<?xml version="1.0" encoding="UTF-8" standalone="no" ?>
<gpx xmlns="http://www.topografix.com/GPX/1/1" xmlns:xsi="http://www.w3.org/2001/XMLSchema-instance" xsi:schemaLocation="http://www.topografix.com/GPX/1/1 http://www.topografix.com/GPX/1/1/gpx.xsd" version="1.1" creator="VisuGPX - https://www.visugpx.com">
  <metadata>
    <name>sortie 24/6</name>
    <desc><![CDATA[ccccccccccccccccccccccccccccccccc]]></desc>
  </metadata>
  <trk>
    <name><![CDATA[180624094754]]></name>
    <trkseg>
      <trkpt lat="50.6114" lon="3.07392">
        <ele>-15.8</ele>
        <time>2018-06-24T07:48:06Z</time>
      </trkpt>
      <trkpt lat="50.61132" lon="3.07385">
        <ele>-16.2</ele>
        <time>2018-06-24T07:48:10Z</time>
      </trkpt>
      <trkpt lat="50.61124" lon="3.07377">
        <ele>-15.8</ele>
        <time>2018-06-24T07:48:14Z</time>
      </trkpt>
      <trkpt lat="50.61116" lon="3.0737">
        <ele>-15.6</ele>
        <time>2018-06-24T07:48:18Z</time>
      </trkpt>
      <trkpt lat="50.61107" lon="3.07362">
        <ele>-15.8</ele>
        <time>2018-06-24T07:48:22Z</time>
      </trkpt>
      <trkpt lat="50.61099" lon="3.07356">
        <ele>-15.4</ele>
        <time>2018-06-24T07:48:26Z</time>
      </trkpt>
      <trkpt lat="50.6109" lon="3.07349">
        <ele>-15.6</ele>
        <time>2018-06-24T07:48:30Z</time>
      </trkpt>
      <trkpt lat="50.61081" lon="3.0734">
        <ele>-15.2</ele>
        <time>2018-06-24T07:48:34Z</time>
      </trkpt>
      <trkpt lat="50.61073" lon="3.07332">
        <ele>-15.4</ele>
        <time>2018-06-24T07:48:38Z</time>
      </trkpt>
      <trkpt lat="50.61066" lon="3.07325">
        <ele>-15.8</ele>
        <time>2018-06-24T07:48:42Z</time>
      </trkpt>
      <trkpt lat="50.6106" lon="3.07316">
        <ele>-15.6</ele>
        <time>2018-06-24T07:48:46Z</time>
      </trkpt>
      <trkpt lat="50.61055" lon="3.07309">
        <ele>-15.6</ele>
        <time>2018-06-24T07:48:50Z</time>
      </trkpt>
      <trkpt lat="50.61044" lon="3.07304">
        <ele>-15.4</ele>
        <time>2018-06-24T07:48:54Z</time>
      </trkpt>
      <trkpt lat="50.61033" lon="3.07291">
        <ele>-15.2</ele>
        <time>2018-06-24T07:48:58Z</time>
      </trkpt>
      <trkpt lat="50.6102" lon="3.07278">
        <ele>-15</ele>
        <time>2018-06-24T07:49:02Z</time>
      </trkpt>
      <trkpt lat="50.61008" lon="3.07268">
        <ele>-14.8</ele>
        <time>2018-06-24T07:49:06Z</time>
      </trkpt>
      <trkpt lat="50.60997" lon="3.07279">
        <ele>-14.8</ele>
        <time>2018-06-24T07:49:10Z</time>
      </trkpt>
      <trkpt lat="50.6099" lon="3.07299">
        <ele>-14.6</ele>
        <time>2018-06-24T07:49:14Z</time>
      </trkpt>
      <trkpt lat="50.60981" lon="3.07317">
        <ele>-14.6</ele>
        <time>2018-06-24T07:49:18Z</time>
      </trkpt>
      <trkpt lat="50.60974" lon="3.07339">
        <ele>-14.4</ele>
        <time>2018-06-24T07:49:22Z</time>
      </trkpt>
      <trkpt lat="50.60966" lon="3.07361">
        <ele>-14</ele>
        <time>2018-06-24T07:49:26Z</time>
      </trkpt>
      <trkpt lat="50.60957" lon="3.07382">
        <ele>-14</ele>
        <time>2018-06-24T07:49:30Z</time>
      </trkpt>
      <trkpt lat="50.60948" lon="3.07404">
        <ele>-14.2</ele>
        <time>2018-06-24T07:49:34Z</time>
      </trkpt>
      <trkpt lat="50.60936" lon="3.0741">
        <ele>-14.4</ele>
        <time>2018-06-24T07:49:38Z</time>
      </trkpt>
      <trkpt lat="50.60923" lon="3.07392">
        <ele>-14.2</ele>
        <time>2018-06-24T07:49:42Z</time>
      </trkpt>
      <trkpt lat="50.6091" lon="3.07374">
        <ele>-14.2</ele>
        <time>2018-06-24T07:49:46Z</time>
      </trkpt>
      <trkpt lat="50.60895" lon="3.07356">
        <ele>-14.2</ele>
        <time>2018-06-24T07:49:50Z</time>
      </trkpt>
      <trkpt lat="50.60879" lon="3.07343">
        <ele>-14</ele>
        <time>2018-06-24T07:49:54Z</time>
      </trkpt>
      <trkpt lat="50.60862" lon="3.0733">
        <ele>-14</ele>
        <time>2018-06-24T07:49:58Z</time>
      </trkpt>
      <trkpt lat="50.6085" lon="3.0732">
        <ele>-13.8</ele>
        <time>2018-06-24T07:50:02Z</time>
      </trkpt>
      <trkpt lat="50.60834" lon="3.07305">
        <ele>-14</ele>
        <time>2018-06-24T07:50:06Z</time>
      </trkpt>
      <trkpt lat="50.60819" lon="3.07288">
        <ele>-13.6</ele>
        <time>2018-06-24T07:50:10Z</time>
      </trkpt>
      <trkpt lat="50.60804" lon="3.07271">
        <ele>-13.6</ele>
        <time>2018-06-24T07:50:14Z</time>
      </trkpt>
      <trkpt lat="50.60789" lon="3.07253">
        <ele>-13.4</ele>
        <time>2018-06-24T07:50:18Z</time>
      </trkpt>
      <trkpt lat="50.60774" lon="3.07234">
        <ele>-13.4</ele>
        <time>2018-06-24T07:50:22Z</time>
      </trkpt>
      <trkpt lat="50.60759" lon="3.07215">
        <ele>-13.4</ele>
        <time>2018-06-24T07:50:26Z</time>
      </trkpt>
      <trkpt lat="50.60744" lon="3.07198">
        <ele>-13</ele>
        <time>2018-06-24T07:50:30Z</time>
      </trkpt>
      <trkpt lat="50.60729" lon="3.0718">
        <ele>-13</ele>
        <time>2018-06-24T07:50:34Z</time>
      </trkpt>
      <trkpt lat="50.60714" lon="3.07162">
        <ele>-12.8</ele>
        <time>2018-06-24T07:50:38Z</time>
      </trkpt>
      <trkpt lat="50.60703" lon="3.07149">
        <ele>-12.8</ele>
        <time>2018-06-24T07:50:42Z</time>
      </trkpt>
      <trkpt lat="50.60698" lon="3.07142">
        <ele>-12.8</ele>
        <time>2018-06-24T07:50:46Z</time>
      </trkpt>
      <trkpt lat="50.60694" lon="3.07136">
        <ele>-13</ele>
        <time>2018-06-24T07:50:50Z</time>
      </trkpt>
      <trkpt lat="50.60692" lon="3.07132">
        <ele>-12.8</ele>
        <time>2018-06-24T07:50:54Z</time>
      </trkpt>
      <trkpt lat="50.60687" lon="3.07125">
        <ele>-13.2</ele>
        <time>2018-06-24T07:50:58Z</time>
      </trkpt>
      <trkpt lat="50.60679" lon="3.07119">
        <ele>-12.8</ele>
        <time>2018-06-24T07:51:02Z</time>
      </trkpt>
      <trkpt lat="50.60669" lon="3.07112">
        <ele>-12.6</ele>
        <time>2018-06-24T07:51:06Z</time>
      </trkpt>
      <trkpt lat="50.60658" lon="3.07101">
        <ele>-12.6</ele>
        <time>2018-06-24T07:51:10Z</time>
      </trkpt>
      <trkpt lat="50.60646" lon="3.07087">
        <ele>-12.6</ele>
        <time>2018-06-24T07:51:14Z</time>
      </trkpt>
      <trkpt lat="50.60633" lon="3.07074">
        <ele>-12.6</ele>
        <time>2018-06-24T07:51:18Z</time>
      </trkpt>
      <trkpt lat="50.6062" lon="3.0706">
        <ele>-12.4</ele>
        <time>2018-06-24T07:51:22Z</time>
      </trkpt>
      <trkpt lat="50.60606" lon="3.07047">
        <ele>-12</ele>
        <time>2018-06-24T07:51:26Z</time>
      </trkpt>
      <trkpt lat="50.60592" lon="3.07033">
        <ele>-12</ele>
        <time>2018-06-24T07:51:30Z</time>
      </trkpt>
      <trkpt lat="50.60578" lon="3.07018">
        <ele>-12.2</ele>
        <time>2018-06-24T07:51:34Z</time>
      </trkpt>
      <trkpt lat="50.60563" lon="3.07004">
        <ele>-11.8</ele>
        <time>2018-06-24T07:51:38Z</time>
      </trkpt>
      <trkpt lat="50.60548" lon="3.06989">
        <ele>-12</ele>
        <time>2018-06-24T07:51:42Z</time>
      </trkpt>
      <trkpt lat="50.60534" lon="3.06973">
        <ele>-12</ele>
        <time>2018-06-24T07:51:46Z</time>
      </trkpt>
      <trkpt lat="50.6052" lon="3.06959">
        <ele>-11.4</ele>
        <time>2018-06-24T07:51:50Z</time>
      </trkpt>
      <trkpt lat="50.60506" lon="3.06946">
        <ele>-11.4</ele>
        <time>2018-06-24T07:51:54Z</time>
      </trkpt>
      <trkpt lat="50.60493" lon="3.06933">
        <ele>-10.8</ele>
        <time>2018-06-24T07:51:58Z</time>
      </trkpt>
      <trkpt lat="50.6048" lon="3.06919">
        <ele>-10.8</ele>
        <time>2018-06-24T07:52:02Z</time>
      </trkpt>
      <trkpt lat="50.60466" lon="3.06904">
        <ele>-10.2</ele>
        <time>2018-06-24T07:52:06Z</time>
      </trkpt>
      <trkpt lat="50.60452" lon="3.06891">
        <ele>-10.2</ele>
        <time>2018-06-24T07:52:10Z</time>
      </trkpt>
      <trkpt lat="50.60439" lon="3.06877">
        <ele>-9.6</ele>
        <time>2018-06-24T07:52:14Z</time>
      </trkpt>
      <trkpt lat="50.60432" lon="3.06862">
        <ele>-9.4</ele>
        <time>2018-06-24T07:52:18Z</time>
      </trkpt>
      <trkpt lat="50.60428" lon="3.06845">
        <ele>-9</ele>
        <time>2018-06-24T07:52:22Z</time>
      </trkpt>
      <trkpt lat="50.60425" lon="3.06823">
        <ele>-8.6</ele>
        <time>2018-06-24T07:52:26Z</time>
      </trkpt>
      <trkpt lat="50.60423" lon="3.06801">
        <ele>-8.4</ele>
        <time>2018-06-24T07:52:30Z</time>
      </trkpt>
      <trkpt lat="50.60421" lon="3.06775">
        <ele>-8.4</ele>
        <time>2018-06-24T07:52:34Z</time>
      </trkpt>
      <trkpt lat="50.60431" lon="3.06757">
        <ele>-8.2</ele>
        <time>2018-06-24T07:52:38Z</time>
      </trkpt>
      <trkpt lat="50.60441" lon="3.0674">
        <ele>-8.2</ele>
        <time>2018-06-24T07:52:42Z</time>
      </trkpt>
      <trkpt lat="50.60436" lon="3.06722">
        <ele>-8.6</ele>
        <time>2018-06-24T07:52:46Z</time>
      </trkpt>
      <trkpt lat="50.60425" lon="3.06705">
        <ele>-8.4</ele>
        <time>2018-06-24T07:52:50Z</time>
      </trkpt>
      <trkpt lat="50.60411" lon="3.06685">
        <ele>-8.2</ele>
        <time>2018-06-24T07:52:54Z</time>
      </trkpt>
      <trkpt lat="50.60397" lon="3.06679">
        <ele>-7.8</ele>
        <time>2018-06-24T07:52:58Z</time>
      </trkpt>
      <trkpt lat="50.60381" lon="3.06684">
        <ele>-8</ele>
        <time>2018-06-24T07:53:02Z</time>
      </trkpt>
      <trkpt lat="50.60363" lon="3.06692">
        <ele>-7.8</ele>
        <time>2018-06-24T07:53:06Z</time>
      </trkpt>
      <trkpt lat="50.60347" lon="3.06701">
        <ele>-7.4</ele>
        <time>2018-06-24T07:53:10Z</time>
      </trkpt>
      <trkpt lat="50.6033" lon="3.0671">
        <ele>-7.6</ele>
        <time>2018-06-24T07:53:14Z</time>
      </trkpt>
      <trkpt lat="50.60312" lon="3.06718">
        <ele>-7.4</ele>
        <time>2018-06-24T07:53:18Z</time>
      </trkpt>
      <trkpt lat="50.60294" lon="3.06727">
        <ele>-7.4</ele>
        <time>2018-06-24T07:53:22Z</time>
      </trkpt>
      <trkpt lat="50.60276" lon="3.06737">
        <ele>-7.6</ele>
        <time>2018-06-24T07:53:26Z</time>
      </trkpt>
      <trkpt lat="50.6026" lon="3.06743">
        <ele>-7.4</ele>
        <time>2018-06-24T07:53:30Z</time>
      </trkpt>
      <trkpt lat="50.60245" lon="3.06753">
        <ele>-7.4</ele>
        <time>2018-06-24T07:53:34Z</time>
      </trkpt>
      <trkpt lat="50.60231" lon="3.06766">
        <ele>-7.4</ele>
        <time>2018-06-24T07:53:38Z</time>
      </trkpt>
      <trkpt lat="50.60214" lon="3.06771">
        <ele>-7.4</ele>
        <time>2018-06-24T07:53:42Z</time>
      </trkpt>
      <trkpt lat="50.60194" lon="3.06769">
        <ele>-7.4</ele>
        <time>2018-06-24T07:53:46Z</time>
      </trkpt>
      <trkpt lat="50.60171" lon="3.06761">
        <ele>-7</ele>
        <time>2018-06-24T07:53:50Z</time>
      </trkpt>
      <trkpt lat="50.6015" lon="3.06762">
        <ele>-7</ele>
        <time>2018-06-24T07:53:54Z</time>
      </trkpt>
      <trkpt lat="50.6013" lon="3.06776">
        <ele>-6.8</ele>
        <time>2018-06-24T07:53:58Z</time>
      </trkpt>
      <trkpt lat="50.60113" lon="3.06793">
        <ele>-6.2</ele>
        <time>2018-06-24T07:54:02Z</time>
      </trkpt>
      <trkpt lat="50.60095" lon="3.06808">
        <ele>-6.4</ele>
        <time>2018-06-24T07:54:06Z</time>
      </trkpt>
      <trkpt lat="50.60077" lon="3.06821">
        <ele>-6.4</ele>
        <time>2018-06-24T07:54:10Z</time>
      </trkpt>
      <trkpt lat="50.60058" lon="3.06832">
        <ele>-6</ele>
        <time>2018-06-24T07:54:14Z</time>
      </trkpt>
      <trkpt lat="50.60041" lon="3.06838">
        <ele>-6</ele>
        <time>2018-06-24T07:54:18Z</time>
      </trkpt>
      <trkpt lat="50.60025" lon="3.06836">
        <ele>-6.2</ele>
        <time>2018-06-24T07:54:22Z</time>
      </trkpt>
      <trkpt lat="50.60018" lon="3.06837">
        <ele>-6</ele>
        <time>2018-06-24T07:54:26Z</time>
      </trkpt>
      <trkpt lat="50.60012" lon="3.06837">
        <ele>-6.2</ele>
        <time>2018-06-24T07:54:30Z</time>
      </trkpt>
      <trkpt lat="50.60008" lon="3.06838">
        <ele>-6</ele>
        <time>2018-06-24T07:54:34Z</time>
      </trkpt>
      <trkpt lat="50.60004" lon="3.06836">
        <ele>-6</ele>
        <time>2018-06-24T07:54:38Z</time>
      </trkpt>
      <trkpt lat="50.60004" lon="3.06836">
        <ele>-6</ele>
        <time>2018-06-24T07:54:42Z</time>
      </trkpt>
      <trkpt lat="50.6" lon="3.06833">
        <ele>-6</ele>
        <time>2018-06-24T07:54:46Z</time>
      </trkpt>
      <trkpt lat="50.59991" lon="3.06832">
        <ele>-5.4</ele>
        <time>2018-06-24T07:54:50Z</time>
      </trkpt>
      <trkpt lat="50.59977" lon="3.06832">
        <ele>-5</ele>
        <time>2018-06-24T07:54:54Z</time>
      </trkpt>
      <trkpt lat="50.59961" lon="3.06833">
        <ele>-5.6</ele>
        <time>2018-06-24T07:54:58Z</time>
      </trkpt>
      <trkpt lat="50.59944" lon="3.06832">
        <ele>-5</ele>
        <time>2018-06-24T07:55:02Z</time>
      </trkpt>
      <trkpt lat="50.59926" lon="3.06832">
        <ele>-5</ele>
        <time>2018-06-24T07:55:06Z</time>
      </trkpt>
      <trkpt lat="50.59908" lon="3.06831">
        <ele>-4.4</ele>
        <time>2018-06-24T07:55:10Z</time>
      </trkpt>
      <trkpt lat="50.59889" lon="3.06829">
        <ele>-4.2</ele>
        <time>2018-06-24T07:55:14Z</time>
      </trkpt>
      <trkpt lat="50.5987" lon="3.06831">
        <ele>-4</ele>
        <time>2018-06-24T07:55:18Z</time>
      </trkpt>
      <trkpt lat="50.59849" lon="3.06835">
        <ele>-4.2</ele>
        <time>2018-06-24T07:55:22Z</time>
      </trkpt>
      <trkpt lat="50.59828" lon="3.06838">
        <ele>-3.8</ele>
        <time>2018-06-24T07:55:26Z</time>
      </trkpt>
      <trkpt lat="50.59808" lon="3.06844">
        <ele>-3.4</ele>
        <time>2018-06-24T07:55:30Z</time>
      </trkpt>
      <trkpt lat="50.59788" lon="3.0685">
        <ele>-2.8</ele>
        <time>2018-06-24T07:55:34Z</time>
      </trkpt>
      <trkpt lat="50.59769" lon="3.06855">
        <ele>-2.2</ele>
        <time>2018-06-24T07:55:38Z</time>
      </trkpt>
      <trkpt lat="50.59752" lon="3.0686">
        <ele>-1.8</ele>
        <time>2018-06-24T07:55:42Z</time>
      </trkpt>
      <trkpt lat="50.59737" lon="3.06868">
        <ele>-1.4</ele>
        <time>2018-06-24T07:55:46Z</time>
      </trkpt>
      <trkpt lat="50.59722" lon="3.0687">
        <ele>-1</ele>
        <time>2018-06-24T07:55:50Z</time>
      </trkpt>
      <trkpt lat="50.59712" lon="3.06876">
        <ele>-1.2</ele>
        <time>2018-06-24T07:55:54Z</time>
      </trkpt>
      <trkpt lat="50.59705" lon="3.06879">
        <ele>-1</ele>
        <time>2018-06-24T07:55:58Z</time>
      </trkpt>
      <trkpt lat="50.597" lon="3.06879">
        <ele>-0.8</ele>
        <time>2018-06-24T07:56:02Z</time>
      </trkpt>
      <trkpt lat="50.59696" lon="3.0688">
        <ele>-0.8</ele>
        <time>2018-06-24T07:56:06Z</time>
      </trkpt>
      <trkpt lat="50.59686" lon="3.06883">
        <ele>-0.8</ele>
        <time>2018-06-24T07:56:10Z</time>
      </trkpt>
      <trkpt lat="50.5967" lon="3.06885">
        <ele>46.9</ele>
        <time>2018-06-24T07:56:14Z</time>
      </trkpt>
      <trkpt lat="50.59651" lon="3.0689">
        <ele>0.2</ele>
        <time>2018-06-24T07:56:18Z</time>
      </trkpt>
      <trkpt lat="50.5963" lon="3.06895">
        <ele>0.8</ele>
        <time>2018-06-24T07:56:22Z</time>
      </trkpt>
      <trkpt lat="50.59609" lon="3.06901">
        <ele>1</ele>
        <time>2018-06-24T07:56:26Z</time>
      </trkpt>
      <trkpt lat="50.59587" lon="3.06907">
        <ele>2.2</ele>
        <time>2018-06-24T07:56:30Z</time>
      </trkpt>
      <trkpt lat="50.59565" lon="3.06914">
        <ele>2.6</ele>
        <time>2018-06-24T07:56:34Z</time>
      </trkpt>
      <trkpt lat="50.59545" lon="3.06926">
        <ele>2.4</ele>
        <time>2018-06-24T07:56:38Z</time>
      </trkpt>
      <trkpt lat="50.59523" lon="3.06929">
        <ele>3.4</ele>
        <time>2018-06-24T07:56:42Z</time>
      </trkpt>
      <trkpt lat="50.59502" lon="3.06936">
        <ele>3.6</ele>
        <time>2018-06-24T07:56:46Z</time>
      </trkpt>
      <trkpt lat="50.59481" lon="3.06943">
        <ele>3.8</ele>
        <time>2018-06-24T07:56:50Z</time>
      </trkpt>
      <trkpt lat="50.59459" lon="3.06952">
        <ele>4.4</ele>
        <time>2018-06-24T07:56:54Z</time>
      </trkpt>
      <trkpt lat="50.59437" lon="3.06962">
        <ele>5</ele>
        <time>2018-06-24T07:56:58Z</time>
      </trkpt>
      <trkpt lat="50.59416" lon="3.06972">
        <ele>5.4</ele>
        <time>2018-06-24T07:57:02Z</time>
      </trkpt>
      <trkpt lat="50.59394" lon="3.06981">
        <ele>5.4</ele>
        <time>2018-06-24T07:57:06Z</time>
      </trkpt>
      <trkpt lat="50.59374" lon="3.06998">
        <ele>5.6</ele>
        <time>2018-06-24T07:57:10Z</time>
      </trkpt>
      <trkpt lat="50.59355" lon="3.07018">
        <ele>6</ele>
        <time>2018-06-24T07:57:14Z</time>
      </trkpt>
      <trkpt lat="50.5934" lon="3.07041">
        <ele>7</ele>
        <time>2018-06-24T07:57:18Z</time>
      </trkpt>
      <trkpt lat="50.59318" lon="3.07065">
        <ele>7.2</ele>
        <time>2018-06-24T07:57:22Z</time>
      </trkpt>
      <trkpt lat="50.59298" lon="3.0709">
        <ele>7.2</ele>
        <time>2018-06-24T07:57:26Z</time>
      </trkpt>
      <trkpt lat="50.59281" lon="3.07113">
        <ele>7.6</ele>
        <time>2018-06-24T07:57:30Z</time>
      </trkpt>
      <trkpt lat="50.59263" lon="3.07135">
        <ele>7.8</ele>
        <time>2018-06-24T07:57:34Z</time>
      </trkpt>
      <trkpt lat="50.59242" lon="3.07158">
        <ele>7.2</ele>
        <time>2018-06-24T07:57:38Z</time>
      </trkpt>
      <trkpt lat="50.59222" lon="3.07182">
        <ele>7.6</ele>
        <time>2018-06-24T07:57:42Z</time>
      </trkpt>
      <trkpt lat="50.59203" lon="3.07207">
        <ele>8.4</ele>
        <time>2018-06-24T07:57:46Z</time>
      </trkpt>
      <trkpt lat="50.59184" lon="3.07231">
        <ele>9</ele>
        <time>2018-06-24T07:57:50Z</time>
      </trkpt>
      <trkpt lat="50.59165" lon="3.07256">
        <ele>9.2</ele>
        <time>2018-06-24T07:57:54Z</time>
      </trkpt>
      <trkpt lat="50.59144" lon="3.07278">
        <ele>9.6</ele>
        <time>2018-06-24T07:57:58Z</time>
      </trkpt>
      <trkpt lat="50.59125" lon="3.073">
        <ele>9.6</ele>
        <time>2018-06-24T07:58:02Z</time>
      </trkpt>
      <trkpt lat="50.59104" lon="3.07322">
        <ele>9.8</ele>
        <time>2018-06-24T07:58:06Z</time>
      </trkpt>
      <trkpt lat="50.59087" lon="3.07342">
        <ele>9.6</ele>
        <time>2018-06-24T07:58:10Z</time>
      </trkpt>
      <trkpt lat="50.59071" lon="3.07361">
        <ele>9.4</ele>
        <time>2018-06-24T07:58:14Z</time>
      </trkpt>
      <trkpt lat="50.59057" lon="3.07379">
        <ele>9.6</ele>
        <time>2018-06-24T07:58:18Z</time>
      </trkpt>
      <trkpt lat="50.59043" lon="3.07393">
        <ele>9.4</ele>
        <time>2018-06-24T07:58:22Z</time>
      </trkpt>
      <trkpt lat="50.5903" lon="3.07408">
        <ele>9.6</ele>
        <time>2018-06-24T07:58:26Z</time>
      </trkpt>
      <trkpt lat="50.59018" lon="3.07433">
        <ele>9.4</ele>
        <time>2018-06-24T07:58:30Z</time>
      </trkpt>
      <trkpt lat="50.5901" lon="3.07462">
        <ele>9</ele>
        <time>2018-06-24T07:58:34Z</time>
      </trkpt>
      <trkpt lat="50.58997" lon="3.07489">
        <ele>9.6</ele>
        <time>2018-06-24T07:58:38Z</time>
      </trkpt>
      <trkpt lat="50.58981" lon="3.07514">
        <ele>9</ele>
        <time>2018-06-24T07:58:42Z</time>
      </trkpt>
      <trkpt lat="50.58963" lon="3.07537">
        <ele>8</ele>
        <time>2018-06-24T07:58:46Z</time>
      </trkpt>
      <trkpt lat="50.58945" lon="3.07559">
        <ele>7.4</ele>
        <time>2018-06-24T07:58:50Z</time>
      </trkpt>
      <trkpt lat="50.58927" lon="3.07572">
        <ele>7.6</ele>
        <time>2018-06-24T07:58:54Z</time>
      </trkpt>
      <trkpt lat="50.58915" lon="3.07548">
        <ele>7.8</ele>
        <time>2018-06-24T07:58:58Z</time>
      </trkpt>
      <trkpt lat="50.58901" lon="3.07521">
        <ele>8</ele>
        <time>2018-06-24T07:59:02Z</time>
      </trkpt>
      <trkpt lat="50.58888" lon="3.07495">
        <ele>8</ele>
        <time>2018-06-24T07:59:06Z</time>
      </trkpt>
      <trkpt lat="50.58877" lon="3.07473">
        <ele>8.2</ele>
        <time>2018-06-24T07:59:10Z</time>
      </trkpt>
      <trkpt lat="50.58864" lon="3.07451">
        <ele>8.4</ele>
        <time>2018-06-24T07:59:14Z</time>
      </trkpt>
      <trkpt lat="50.58852" lon="3.0743">
        <ele>8</ele>
        <time>2018-06-24T07:59:18Z</time>
      </trkpt>
      <trkpt lat="50.58841" lon="3.07409">
        <ele>8.2</ele>
        <time>2018-06-24T07:59:22Z</time>
      </trkpt>
      <trkpt lat="50.5883" lon="3.0739">
        <ele>8.4</ele>
        <time>2018-06-24T07:59:26Z</time>
      </trkpt>
      <trkpt lat="50.58819" lon="3.0737">
        <ele>7.6</ele>
        <time>2018-06-24T07:59:30Z</time>
      </trkpt>
      <trkpt lat="50.58809" lon="3.07351">
        <ele>8</ele>
        <time>2018-06-24T07:59:34Z</time>
      </trkpt>
      <trkpt lat="50.58799" lon="3.07329">
        <ele>7.8</ele>
        <time>2018-06-24T07:59:38Z</time>
      </trkpt>
      <trkpt lat="50.5879" lon="3.07312">
        <ele>7.8</ele>
        <time>2018-06-24T07:59:42Z</time>
      </trkpt>
      <trkpt lat="50.58781" lon="3.07293">
        <ele>7.4</ele>
        <time>2018-06-24T07:59:46Z</time>
      </trkpt>
      <trkpt lat="50.58771" lon="3.07275">
        <ele>7.6</ele>
        <time>2018-06-24T07:59:50Z</time>
      </trkpt>
      <trkpt lat="50.58762" lon="3.07258">
        <ele>7.6</ele>
        <time>2018-06-24T07:59:54Z</time>
      </trkpt>
      <trkpt lat="50.58754" lon="3.07242">
        <ele>7.2</ele>
        <time>2018-06-24T07:59:58Z</time>
      </trkpt>
      <trkpt lat="50.58746" lon="3.07233">
        <ele>7.4</ele>
        <time>2018-06-24T08:00:02Z</time>
      </trkpt>
      <trkpt lat="50.58746" lon="3.07233">
        <ele>7</ele>
        <time>2018-06-24T08:00:06Z</time>
      </trkpt>
      <trkpt lat="50.58746" lon="3.07233">
        <ele>7</ele>
        <time>2018-06-24T08:00:10Z</time>
      </trkpt>
      <trkpt lat="50.58743" lon="3.07236">
        <ele>7.4</ele>
        <time>2018-06-24T08:00:14Z</time>
      </trkpt>
      <trkpt lat="50.58743" lon="3.07236">
        <ele>7.4</ele>
        <time>2018-06-24T08:00:18Z</time>
      </trkpt>
      <trkpt lat="50.58743" lon="3.07236">
        <ele>7.2</ele>
        <time>2018-06-24T08:00:22Z</time>
      </trkpt>
      <trkpt lat="50.58743" lon="3.07236">
        <ele>7.2</ele>
        <time>2018-06-24T08:00:26Z</time>
      </trkpt>
      <trkpt lat="50.58743" lon="3.07236">
        <ele>7.2</ele>
        <time>2018-06-24T08:00:30Z</time>
      </trkpt>
      <trkpt lat="50.58743" lon="3.07236">
        <ele>7.4</ele>
        <time>2018-06-24T08:00:34Z</time>
      </trkpt>
      <trkpt lat="50.58743" lon="3.07236">
        <ele>7.2</ele>
        <time>2018-06-24T08:00:38Z</time>
      </trkpt>
      <trkpt lat="50.58743" lon="3.07236">
        <ele>7.4</ele>
        <time>2018-06-24T08:00:42Z</time>
      </trkpt>
      <trkpt lat="50.58743" lon="3.07236">
        <ele>7.2</ele>
        <time>2018-06-24T08:00:46Z</time>
      </trkpt>
      <trkpt lat="50.58743" lon="3.07236">
        <ele>7.4</ele>
        <time>2018-06-24T08:00:50Z</time>
      </trkpt>
      <trkpt lat="50.58743" lon="3.07236">
        <ele>7</ele>
        <time>2018-06-24T08:00:54Z</time>
      </trkpt>
      <trkpt lat="50.58743" lon="3.07236">
        <ele>7.2</ele>
        <time>2018-06-24T08:00:58Z</time>
      </trkpt>
      <trkpt lat="50.58743" lon="3.07236">
        <ele>7.2</ele>
        <time>2018-06-24T08:01:02Z</time>
      </trkpt>
      <trkpt lat="50.58743" lon="3.07236">
        <ele>7.4</ele>
        <time>2018-06-24T08:01:06Z</time>
      </trkpt>
      <trkpt lat="50.58743" lon="3.07236">
        <ele>7.2</ele>
        <time>2018-06-24T08:01:10Z</time>
      </trkpt>
      <trkpt lat="50.58743" lon="3.07236">
        <ele>7.2</ele>
        <time>2018-06-24T08:01:14Z</time>
      </trkpt>
      <trkpt lat="50.58743" lon="3.07236">
        <ele>7.2</ele>
        <time>2018-06-24T08:01:18Z</time>
      </trkpt>
      <trkpt lat="50.58743" lon="3.07236">
        <ele>6.8</ele>
        <time>2018-06-24T08:01:22Z</time>
      </trkpt>
      <trkpt lat="50.58743" lon="3.07236">
        <ele>7</ele>
        <time>2018-06-24T08:01:26Z</time>
      </trkpt>
      <trkpt lat="50.58743" lon="3.07236">
        <ele>7.2</ele>
        <time>2018-06-24T08:01:30Z</time>
      </trkpt>
      <trkpt lat="50.58743" lon="3.07236">
        <ele>7.2</ele>
        <time>2018-06-24T08:01:34Z</time>
      </trkpt>
      <trkpt lat="50.58743" lon="3.07236">
        <ele>7</ele>
        <time>2018-06-24T08:01:38Z</time>
      </trkpt>
      <trkpt lat="50.58743" lon="3.07236">
        <ele>7</ele>
        <time>2018-06-24T08:01:42Z</time>
      </trkpt>
      <trkpt lat="50.58743" lon="3.07236">
        <ele>7</ele>
        <time>2018-06-24T08:01:46Z</time>
      </trkpt>
      <trkpt lat="50.58743" lon="3.07236">
        <ele>7</ele>
        <time>2018-06-24T08:01:50Z</time>
      </trkpt>
      <trkpt lat="50.58743" lon="3.07236">
        <ele>7.2</ele>
        <time>2018-06-24T08:01:54Z</time>
      </trkpt>
      <trkpt lat="50.58743" lon="3.07236">
        <ele>7.2</ele>
        <time>2018-06-24T08:01:58Z</time>
      </trkpt>
      <trkpt lat="50.58743" lon="3.07236">
        <ele>7.2</ele>
        <time>2018-06-24T08:02:02Z</time>
      </trkpt>
      <trkpt lat="50.58743" lon="3.07236">
        <ele>7</ele>
        <time>2018-06-24T08:02:06Z</time>
      </trkpt>
      <trkpt lat="50.58743" lon="3.07236">
        <ele>7</ele>
        <time>2018-06-24T08:02:10Z</time>
      </trkpt>
      <trkpt lat="50.58743" lon="3.07236">
        <ele>7</ele>
        <time>2018-06-24T08:02:14Z</time>
      </trkpt>
      <trkpt lat="50.58743" lon="3.07236">
        <ele>7.2</ele>
        <time>2018-06-24T08:02:18Z</time>
      </trkpt>
      <trkpt lat="50.58743" lon="3.07236">
        <ele>7.2</ele>
        <time>2018-06-24T08:02:22Z</time>
      </trkpt>
      <trkpt lat="50.58743" lon="3.07236">
        <ele>7.4</ele>
        <time>2018-06-24T08:02:26Z</time>
      </trkpt>
      <trkpt lat="50.58743" lon="3.07236">
        <ele>7.2</ele>
        <time>2018-06-24T08:02:30Z</time>
      </trkpt>
      <trkpt lat="50.58743" lon="3.07236">
        <ele>7</ele>
        <time>2018-06-24T08:02:34Z</time>
      </trkpt>
      <trkpt lat="50.58743" lon="3.07236">
        <ele>7</ele>
        <time>2018-06-24T08:02:38Z</time>
      </trkpt>
      <trkpt lat="50.58743" lon="3.07236">
        <ele>7.2</ele>
        <time>2018-06-24T08:02:42Z</time>
      </trkpt>
      <trkpt lat="50.58743" lon="3.07236">
        <ele>7.2</ele>
        <time>2018-06-24T08:02:46Z</time>
      </trkpt>
      <trkpt lat="50.58743" lon="3.07236">
        <ele>7.2</ele>
        <time>2018-06-24T08:02:50Z</time>
      </trkpt>
      <trkpt lat="50.58743" lon="3.07236">
        <ele>7.4</ele>
        <time>2018-06-24T08:02:54Z</time>
      </trkpt>
      <trkpt lat="50.58743" lon="3.07236">
        <ele>7.2</ele>
        <time>2018-06-24T08:02:58Z</time>
      </trkpt>
      <trkpt lat="50.58743" lon="3.07236">
        <ele>7.4</ele>
        <time>2018-06-24T08:03:02Z</time>
      </trkpt>
      <trkpt lat="50.58743" lon="3.07236">
        <ele>7.4</ele>
        <time>2018-06-24T08:03:06Z</time>
      </trkpt>
      <trkpt lat="50.58743" lon="3.07236">
        <ele>7.2</ele>
        <time>2018-06-24T08:03:10Z</time>
      </trkpt>
      <trkpt lat="50.58743" lon="3.07236">
        <ele>7.2</ele>
        <time>2018-06-24T08:03:14Z</time>
      </trkpt>
      <trkpt lat="50.58743" lon="3.07236">
        <ele>7.2</ele>
        <time>2018-06-24T08:03:18Z</time>
      </trkpt>
      <trkpt lat="50.58743" lon="3.07236">
        <ele>7.2</ele>
        <time>2018-06-24T08:03:22Z</time>
      </trkpt>
      <trkpt lat="50.58743" lon="3.07236">
        <ele>7</ele>
        <time>2018-06-24T08:03:26Z</time>
      </trkpt>
      <trkpt lat="50.58743" lon="3.07236">
        <ele>7.2</ele>
        <time>2018-06-24T08:03:30Z</time>
      </trkpt>
      <trkpt lat="50.58743" lon="3.07236">
        <ele>7.2</ele>
        <time>2018-06-24T08:03:34Z</time>
      </trkpt>
      <trkpt lat="50.58743" lon="3.07236">
        <ele>7</ele>
        <time>2018-06-24T08:03:38Z</time>
      </trkpt>
      <trkpt lat="50.58743" lon="3.07236">
        <ele>7.2</ele>
        <time>2018-06-24T08:03:42Z</time>
      </trkpt>
      <trkpt lat="50.58743" lon="3.07236">
        <ele>7.2</ele>
        <time>2018-06-24T08:03:46Z</time>
      </trkpt>
      <trkpt lat="50.58743" lon="3.07236">
        <ele>7.4</ele>
        <time>2018-06-24T08:03:50Z</time>
      </trkpt>
      <trkpt lat="50.58743" lon="3.07236">
        <ele>7.2</ele>
        <time>2018-06-24T08:03:54Z</time>
      </trkpt>
      <trkpt lat="50.58743" lon="3.07236">
        <ele>7.6</ele>
        <time>2018-06-24T08:03:58Z</time>
      </trkpt>
      <trkpt lat="50.58743" lon="3.07236">
        <ele>6.8</ele>
        <time>2018-06-24T08:04:02Z</time>
      </trkpt>
      <trkpt lat="50.58743" lon="3.07236">
        <ele>6.8</ele>
        <time>2018-06-24T08:04:06Z</time>
      </trkpt>
      <trkpt lat="50.58743" lon="3.07236">
        <ele>6.8</ele>
        <time>2018-06-24T08:04:10Z</time>
      </trkpt>
      <trkpt lat="50.58743" lon="3.07236">
        <ele>7.2</ele>
        <time>2018-06-24T08:04:14Z</time>
      </trkpt>
      <trkpt lat="50.58743" lon="3.07236">
        <ele>7</ele>
        <time>2018-06-24T08:04:18Z</time>
      </trkpt>
      <trkpt lat="50.58743" lon="3.07236">
        <ele>7.2</ele>
        <time>2018-06-24T08:04:22Z</time>
      </trkpt>
      <trkpt lat="50.58743" lon="3.07236">
        <ele>7</ele>
        <time>2018-06-24T08:04:26Z</time>
      </trkpt>
      <trkpt lat="50.58743" lon="3.07236">
        <ele>7.4</ele>
        <time>2018-06-24T08:04:30Z</time>
      </trkpt>
      <trkpt lat="50.58743" lon="3.07236">
        <ele>7</ele>
        <time>2018-06-24T08:04:34Z</time>
      </trkpt>
      <trkpt lat="50.58743" lon="3.07236">
        <ele>7.2</ele>
        <time>2018-06-24T08:04:38Z</time>
      </trkpt>
      <trkpt lat="50.58743" lon="3.07236">
        <ele>7.2</ele>
        <time>2018-06-24T08:04:42Z</time>
      </trkpt>
      <trkpt lat="50.58743" lon="3.07236">
        <ele>7.2</ele>
        <time>2018-06-24T08:04:46Z</time>
      </trkpt>
      <trkpt lat="50.58743" lon="3.07236">
        <ele>7.2</ele>
        <time>2018-06-24T08:04:50Z</time>
      </trkpt>
      <trkpt lat="50.58743" lon="3.07236">
        <ele>7.2</ele>
        <time>2018-06-24T08:04:54Z</time>
      </trkpt>
      <trkpt lat="50.58743" lon="3.07236">
        <ele>7</ele>
        <time>2018-06-24T08:04:58Z</time>
      </trkpt>
      <trkpt lat="50.58743" lon="3.07236">
        <ele>7.2</ele>
        <time>2018-06-24T08:05:02Z</time>
      </trkpt>
      <trkpt lat="50.58743" lon="3.07236">
        <ele>7</ele>
        <time>2018-06-24T08:05:06Z</time>
      </trkpt>
      <trkpt lat="50.58743" lon="3.07236">
        <ele>7.2</ele>
        <time>2018-06-24T08:05:10Z</time>
      </trkpt>
      <trkpt lat="50.58743" lon="3.07236">
        <ele>7.2</ele>
        <time>2018-06-24T08:05:14Z</time>
      </trkpt>
      <trkpt lat="50.58743" lon="3.07236">
        <ele>7.2</ele>
        <time>2018-06-24T08:05:18Z</time>
      </trkpt>
      <trkpt lat="50.58743" lon="3.07236">
        <ele>7.2</ele>
        <time>2018-06-24T08:05:22Z</time>
      </trkpt>
      <trkpt lat="50.58743" lon="3.07236">
        <ele>6.8</ele>
        <time>2018-06-24T08:05:26Z</time>
      </trkpt>
      <trkpt lat="50.58743" lon="3.07236">
        <ele>7.2</ele>
        <time>2018-06-24T08:05:30Z</time>
      </trkpt>
      <trkpt lat="50.58743" lon="3.07236">
        <ele>6.8</ele>
        <time>2018-06-24T08:05:34Z</time>
      </trkpt>
      <trkpt lat="50.58743" lon="3.07236">
        <ele>6.8</ele>
        <time>2018-06-24T08:05:38Z</time>
      </trkpt>
      <trkpt lat="50.58743" lon="3.07236">
        <ele>7</ele>
        <time>2018-06-24T08:05:42Z</time>
      </trkpt>
      <trkpt lat="50.58743" lon="3.07236">
        <ele>7.2</ele>
        <time>2018-06-24T08:05:46Z</time>
      </trkpt>
      <trkpt lat="50.58743" lon="3.07236">
        <ele>7.4</ele>
        <time>2018-06-24T08:05:50Z</time>
      </trkpt>
      <trkpt lat="50.58743" lon="3.07236">
        <ele>7.2</ele>
        <time>2018-06-24T08:05:54Z</time>
      </trkpt>
      <trkpt lat="50.58743" lon="3.07236">
        <ele>7.4</ele>
        <time>2018-06-24T08:05:58Z</time>
      </trkpt>
      <trkpt lat="50.58743" lon="3.07236">
        <ele>7.2</ele>
        <time>2018-06-24T08:06:02Z</time>
      </trkpt>
      <trkpt lat="50.58743" lon="3.07236">
        <ele>7.6</ele>
        <time>2018-06-24T08:06:06Z</time>
      </trkpt>
      <trkpt lat="50.58743" lon="3.07236">
        <ele>7</ele>
        <time>2018-06-24T08:06:10Z</time>
      </trkpt>
      <trkpt lat="50.58743" lon="3.07236">
        <ele>7</ele>
        <time>2018-06-24T08:06:14Z</time>
      </trkpt>
      <trkpt lat="50.58743" lon="3.07236">
        <ele>6.6</ele>
        <time>2018-06-24T08:06:18Z</time>
      </trkpt>
      <trkpt lat="50.58743" lon="3.07236">
        <ele>7</ele>
        <time>2018-06-24T08:06:22Z</time>
      </trkpt>
      <trkpt lat="50.58743" lon="3.07236">
        <ele>6.8</ele>
        <time>2018-06-24T08:06:26Z</time>
      </trkpt>
      <trkpt lat="50.58743" lon="3.07236">
        <ele>7.2</ele>
        <time>2018-06-24T08:06:30Z</time>
      </trkpt>
      <trkpt lat="50.58743" lon="3.07236">
        <ele>7</ele>
        <time>2018-06-24T08:06:34Z</time>
      </trkpt>
      <trkpt lat="50.58743" lon="3.07236">
        <ele>7</ele>
        <time>2018-06-24T08:06:38Z</time>
      </trkpt>
      <trkpt lat="50.58743" lon="3.07236">
        <ele>7</ele>
        <time>2018-06-24T08:06:42Z</time>
      </trkpt>
      <trkpt lat="50.58743" lon="3.07236">
        <ele>7</ele>
        <time>2018-06-24T08:06:46Z</time>
      </trkpt>
      <trkpt lat="50.58743" lon="3.07236">
        <ele>7.2</ele>
        <time>2018-06-24T08:06:50Z</time>
      </trkpt>
      <trkpt lat="50.58743" lon="3.07236">
        <ele>6.8</ele>
        <time>2018-06-24T08:06:54Z</time>
      </trkpt>
      <trkpt lat="50.58743" lon="3.07236">
        <ele>7</ele>
        <time>2018-06-24T08:06:58Z</time>
      </trkpt>
      <trkpt lat="50.58743" lon="3.07236">
        <ele>7</ele>
        <time>2018-06-24T08:07:02Z</time>
      </trkpt>
      <trkpt lat="50.58743" lon="3.07236">
        <ele>7</ele>
        <time>2018-06-24T08:07:06Z</time>
      </trkpt>
      <trkpt lat="50.58743" lon="3.07236">
        <ele>7</ele>
        <time>2018-06-24T08:07:10Z</time>
      </trkpt>
      <trkpt lat="50.58743" lon="3.07236">
        <ele>7.2</ele>
        <time>2018-06-24T08:07:14Z</time>
      </trkpt>
      <trkpt lat="50.58743" lon="3.07236">
        <ele>7.2</ele>
        <time>2018-06-24T08:07:18Z</time>
      </trkpt>
      <trkpt lat="50.58743" lon="3.07236">
        <ele>6.8</ele>
        <time>2018-06-24T08:07:22Z</time>
      </trkpt>
      <trkpt lat="50.58743" lon="3.07236">
        <ele>7.2</ele>
        <time>2018-06-24T08:07:26Z</time>
      </trkpt>
      <trkpt lat="50.58743" lon="3.07236">
        <ele>6.8</ele>
        <time>2018-06-24T08:07:30Z</time>
      </trkpt>
      <trkpt lat="50.58743" lon="3.07236">
        <ele>7</ele>
        <time>2018-06-24T08:07:34Z</time>
      </trkpt>
      <trkpt lat="50.58743" lon="3.07236">
        <ele>7</ele>
        <time>2018-06-24T08:07:38Z</time>
      </trkpt>
      <trkpt lat="50.58743" lon="3.07236">
        <ele>7</ele>
        <time>2018-06-24T08:07:42Z</time>
      </trkpt>
      <trkpt lat="50.58743" lon="3.07236">
        <ele>6.8</ele>
        <time>2018-06-24T08:07:46Z</time>
      </trkpt>
      <trkpt lat="50.58743" lon="3.07236">
        <ele>7.2</ele>
        <time>2018-06-24T08:07:50Z</time>
      </trkpt>
      <trkpt lat="50.58743" lon="3.07236">
        <ele>7.2</ele>
        <time>2018-06-24T08:07:54Z</time>
      </trkpt>
      <trkpt lat="50.58743" lon="3.07236">
        <ele>6.6</ele>
        <time>2018-06-24T08:07:58Z</time>
      </trkpt>
      <trkpt lat="50.58743" lon="3.07236">
        <ele>6.8</ele>
        <time>2018-06-24T08:08:02Z</time>
      </trkpt>
      <trkpt lat="50.58743" lon="3.07236">
        <ele>7.4</ele>
        <time>2018-06-24T08:08:06Z</time>
      </trkpt>
      <trkpt lat="50.58743" lon="3.07236">
        <ele>7.2</ele>
        <time>2018-06-24T08:08:10Z</time>
      </trkpt>
      <trkpt lat="50.58743" lon="3.07236">
        <ele>7.2</ele>
        <time>2018-06-24T08:08:14Z</time>
      </trkpt>
      <trkpt lat="50.58743" lon="3.07236">
        <ele>7.2</ele>
        <time>2018-06-24T08:08:18Z</time>
      </trkpt>
      <trkpt lat="50.58743" lon="3.07236">
        <ele>7.6</ele>
        <time>2018-06-24T08:08:22Z</time>
      </trkpt>
      <trkpt lat="50.58743" lon="3.07236">
        <ele>6.6</ele>
        <time>2018-06-24T08:08:26Z</time>
      </trkpt>
      <trkpt lat="50.58743" lon="3.07236">
        <ele>7.2</ele>
        <time>2018-06-24T08:08:30Z</time>
      </trkpt>
      <trkpt lat="50.58743" lon="3.07236">
        <ele>7.2</ele>
        <time>2018-06-24T08:08:34Z</time>
      </trkpt>
      <trkpt lat="50.58743" lon="3.07236">
        <ele>7.2</ele>
        <time>2018-06-24T08:08:38Z</time>
      </trkpt>
      <trkpt lat="50.58743" lon="3.07236">
        <ele>7.2</ele>
        <time>2018-06-24T08:08:42Z</time>
      </trkpt>
      <trkpt lat="50.58743" lon="3.07236">
        <ele>7.4</ele>
        <time>2018-06-24T08:08:46Z</time>
      </trkpt>
      <trkpt lat="50.58743" lon="3.07236">
        <ele>7.4</ele>
        <time>2018-06-24T08:08:50Z</time>
      </trkpt>
      <trkpt lat="50.58743" lon="3.07236">
        <ele>7</ele>
        <time>2018-06-24T08:08:54Z</time>
      </trkpt>
      <trkpt lat="50.58743" lon="3.07236">
        <ele>7</ele>
        <time>2018-06-24T08:08:58Z</time>
      </trkpt>
      <trkpt lat="50.58743" lon="3.07236">
        <ele>7.2</ele>
        <time>2018-06-24T08:09:02Z</time>
      </trkpt>
      <trkpt lat="50.58743" lon="3.07236">
        <ele>7</ele>
        <time>2018-06-24T08:09:06Z</time>
      </trkpt>
      <trkpt lat="50.58743" lon="3.07236">
        <ele>7.2</ele>
        <time>2018-06-24T08:09:10Z</time>
      </trkpt>
      <trkpt lat="50.58743" lon="3.07236">
        <ele>7.4</ele>
        <time>2018-06-24T08:09:14Z</time>
      </trkpt>
      <trkpt lat="50.58743" lon="3.07236">
        <ele>7.4</ele>
        <time>2018-06-24T08:09:18Z</time>
      </trkpt>
      <trkpt lat="50.58743" lon="3.07236">
        <ele>7.2</ele>
        <time>2018-06-24T08:09:22Z</time>
      </trkpt>
      <trkpt lat="50.58743" lon="3.07236">
        <ele>7</ele>
        <time>2018-06-24T08:09:26Z</time>
      </trkpt>
      <trkpt lat="50.58743" lon="3.07236">
        <ele>7</ele>
        <time>2018-06-24T08:09:30Z</time>
      </trkpt>
      <trkpt lat="50.58743" lon="3.07236">
        <ele>7</ele>
        <time>2018-06-24T08:09:34Z</time>
      </trkpt>
      <trkpt lat="50.58743" lon="3.07236">
        <ele>7</ele>
        <time>2018-06-24T08:09:38Z</time>
      </trkpt>
      <trkpt lat="50.58743" lon="3.07236">
        <ele>7.2</ele>
        <time>2018-06-24T08:09:42Z</time>
      </trkpt>
      <trkpt lat="50.58743" lon="3.07236">
        <ele>7</ele>
        <time>2018-06-24T08:09:46Z</time>
      </trkpt>
      <trkpt lat="50.58743" lon="3.07236">
        <ele>7.2</ele>
        <time>2018-06-24T08:09:50Z</time>
      </trkpt>
      <trkpt lat="50.58743" lon="3.07236">
        <ele>7.2</ele>
        <time>2018-06-24T08:09:54Z</time>
      </trkpt>
      <trkpt lat="50.58743" lon="3.07236">
        <ele>7.2</ele>
        <time>2018-06-24T08:09:58Z</time>
      </trkpt>
      <trkpt lat="50.58743" lon="3.07236">
        <ele>7.2</ele>
        <time>2018-06-24T08:10:02Z</time>
      </trkpt>
      <trkpt lat="50.58743" lon="3.07236">
        <ele>7.2</ele>
        <time>2018-06-24T08:10:06Z</time>
      </trkpt>
      <trkpt lat="50.58743" lon="3.07236">
        <ele>7.2</ele>
        <time>2018-06-24T08:10:10Z</time>
      </trkpt>
      <trkpt lat="50.58743" lon="3.07236">
        <ele>7</ele>
        <time>2018-06-24T08:10:14Z</time>
      </trkpt>
      <trkpt lat="50.58743" lon="3.07236">
        <ele>7.2</ele>
        <time>2018-06-24T08:10:18Z</time>
      </trkpt>
      <trkpt lat="50.58743" lon="3.07236">
        <ele>7.4</ele>
        <time>2018-06-24T08:10:22Z</time>
      </trkpt>
      <trkpt lat="50.58743" lon="3.07236">
        <ele>7.2</ele>
        <time>2018-06-24T08:10:26Z</time>
      </trkpt>
      <trkpt lat="50.58743" lon="3.07236">
        <ele>7.2</ele>
        <time>2018-06-24T08:10:30Z</time>
      </trkpt>
      <trkpt lat="50.58743" lon="3.07236">
        <ele>7.2</ele>
        <time>2018-06-24T08:10:34Z</time>
      </trkpt>
      <trkpt lat="50.58743" lon="3.07236">
        <ele>7</ele>
        <time>2018-06-24T08:10:38Z</time>
      </trkpt>
      <trkpt lat="50.58743" lon="3.07236">
        <ele>7.2</ele>
        <time>2018-06-24T08:10:42Z</time>
      </trkpt>
      <trkpt lat="50.58743" lon="3.07236">
        <ele>7</ele>
        <time>2018-06-24T08:10:46Z</time>
      </trkpt>
      <trkpt lat="50.58743" lon="3.07236">
        <ele>7.2</ele>
        <time>2018-06-24T08:10:50Z</time>
      </trkpt>
      <trkpt lat="50.58743" lon="3.07236">
        <ele>7.4</ele>
        <time>2018-06-24T08:10:54Z</time>
      </trkpt>
      <trkpt lat="50.58743" lon="3.07236">
        <ele>7.2</ele>
        <time>2018-06-24T08:10:58Z</time>
      </trkpt>
      <trkpt lat="50.58743" lon="3.07236">
        <ele>7.4</ele>
        <time>2018-06-24T08:11:02Z</time>
      </trkpt>
      <trkpt lat="50.58743" lon="3.07236">
        <ele>7.2</ele>
        <time>2018-06-24T08:11:06Z</time>
      </trkpt>
      <trkpt lat="50.58743" lon="3.07236">
        <ele>7.2</ele>
        <time>2018-06-24T08:11:10Z</time>
      </trkpt>
      <trkpt lat="50.58743" lon="3.07236">
        <ele>7.6</ele>
        <time>2018-06-24T08:11:14Z</time>
      </trkpt>
      <trkpt lat="50.58743" lon="3.07236">
        <ele>7.2</ele>
        <time>2018-06-24T08:11:18Z</time>
      </trkpt>
      <trkpt lat="50.58743" lon="3.07236">
        <ele>7</ele>
        <time>2018-06-24T08:11:22Z</time>
      </trkpt>
      <trkpt lat="50.58743" lon="3.07236">
        <ele>7</ele>
        <time>2018-06-24T08:11:26Z</time>
      </trkpt>
      <trkpt lat="50.58743" lon="3.07236">
        <ele>8</ele>
        <time>2018-06-24T08:11:30Z</time>
      </trkpt>
      <trkpt lat="50.58743" lon="3.07236">
        <ele>7</ele>
        <time>2018-06-24T08:11:34Z</time>
      </trkpt>
      <trkpt lat="50.58743" lon="3.07236">
        <ele>7.2</ele>
        <time>2018-06-24T08:11:38Z</time>
      </trkpt>
      <trkpt lat="50.58743" lon="3.07236">
        <ele>7.2</ele>
        <time>2018-06-24T08:11:42Z</time>
      </trkpt>
      <trkpt lat="50.58743" lon="3.07236">
        <ele>7.4</ele>
        <time>2018-06-24T08:11:46Z</time>
      </trkpt>
      <trkpt lat="50.58743" lon="3.07236">
        <ele>7.6</ele>
        <time>2018-06-24T08:11:50Z</time>
      </trkpt>
      <trkpt lat="50.58743" lon="3.07236">
        <ele>7.4</ele>
        <time>2018-06-24T08:11:54Z</time>
      </trkpt>
      <trkpt lat="50.58743" lon="3.07236">
        <ele>7</ele>
        <time>2018-06-24T08:11:58Z</time>
      </trkpt>
      <trkpt lat="50.58743" lon="3.07236">
        <ele>7.2</ele>
        <time>2018-06-24T08:12:02Z</time>
      </trkpt>
      <trkpt lat="50.58743" lon="3.07236">
        <ele>7.2</ele>
        <time>2018-06-24T08:12:06Z</time>
      </trkpt>
      <trkpt lat="50.58743" lon="3.07236">
        <ele>7.2</ele>
        <time>2018-06-24T08:12:10Z</time>
      </trkpt>
      <trkpt lat="50.5874" lon="3.07234">
        <ele>7.6</ele>
        <time>2018-06-24T08:12:14Z</time>
      </trkpt>
      <trkpt lat="50.5874" lon="3.07234">
        <ele>7.4</ele>
        <time>2018-06-24T08:12:18Z</time>
      </trkpt>
      <trkpt lat="50.5874" lon="3.07234">
        <ele>7</ele>
        <time>2018-06-24T08:12:22Z</time>
      </trkpt>
      <trkpt lat="50.5874" lon="3.07234">
        <ele>7</ele>
        <time>2018-06-24T08:12:26Z</time>
      </trkpt>
      <trkpt lat="50.5874" lon="3.07234">
        <ele>7.2</ele>
        <time>2018-06-24T08:12:30Z</time>
      </trkpt>
      <trkpt lat="50.5874" lon="3.07234">
        <ele>7</ele>
        <time>2018-06-24T08:12:34Z</time>
      </trkpt>
      <trkpt lat="50.5874" lon="3.07234">
        <ele>7.4</ele>
        <time>2018-06-24T08:12:38Z</time>
      </trkpt>
      <trkpt lat="50.5874" lon="3.07234">
        <ele>7</ele>
        <time>2018-06-24T08:12:42Z</time>
      </trkpt>
      <trkpt lat="50.5874" lon="3.07234">
        <ele>7.2</ele>
        <time>2018-06-24T08:12:46Z</time>
      </trkpt>
      <trkpt lat="50.5874" lon="3.07234">
        <ele>7.4</ele>
        <time>2018-06-24T08:12:50Z</time>
      </trkpt>
      <trkpt lat="50.5874" lon="3.07234">
        <ele>7</ele>
        <time>2018-06-24T08:12:54Z</time>
      </trkpt>
      <trkpt lat="50.58741" lon="3.07234">
        <ele>7</ele>
        <time>2018-06-24T08:12:58Z</time>
      </trkpt>
      <trkpt lat="50.58741" lon="3.07234">
        <ele>7.2</ele>
        <time>2018-06-24T08:13:02Z</time>
      </trkpt>
      <trkpt lat="50.58741" lon="3.07234">
        <ele>7</ele>
        <time>2018-06-24T08:13:06Z</time>
      </trkpt>
      <trkpt lat="50.58742" lon="3.07231">
        <ele>6.8</ele>
        <time>2018-06-24T08:13:10Z</time>
      </trkpt>
      <trkpt lat="50.58746" lon="3.07228">
        <ele>6.8</ele>
        <time>2018-06-24T08:13:14Z</time>
      </trkpt>
      <trkpt lat="50.58743" lon="3.07222">
        <ele>7</ele>
        <time>2018-06-24T08:13:18Z</time>
      </trkpt>
      <trkpt lat="50.5874" lon="3.07216">
        <ele>7</ele>
        <time>2018-06-24T08:13:22Z</time>
      </trkpt>
      <trkpt lat="50.58737" lon="3.07209">
        <ele>6.6</ele>
        <time>2018-06-24T08:13:26Z</time>
      </trkpt>
      <trkpt lat="50.58734" lon="3.07204">
        <ele>6.8</ele>
        <time>2018-06-24T08:13:30Z</time>
      </trkpt>
      <trkpt lat="50.58732" lon="3.07201">
        <ele>6.6</ele>
        <time>2018-06-24T08:13:34Z</time>
      </trkpt>
      <trkpt lat="50.58729" lon="3.07198">
        <ele>6.8</ele>
        <time>2018-06-24T08:13:38Z</time>
      </trkpt>
      <trkpt lat="50.58726" lon="3.07198">
        <ele>6.6</ele>
        <time>2018-06-24T08:13:42Z</time>
      </trkpt>
      <trkpt lat="50.58721" lon="3.07201">
        <ele>6.6</ele>
        <time>2018-06-24T08:13:46Z</time>
      </trkpt>
      <trkpt lat="50.58716" lon="3.0721">
        <ele>6.4</ele>
        <time>2018-06-24T08:13:50Z</time>
      </trkpt>
      <trkpt lat="50.5871" lon="3.0722">
        <ele>6.2</ele>
        <time>2018-06-24T08:13:54Z</time>
      </trkpt>
      <trkpt lat="50.58704" lon="3.0723">
        <ele>6.2</ele>
        <time>2018-06-24T08:13:58Z</time>
      </trkpt>
      <trkpt lat="50.58697" lon="3.07242">
        <ele>6.2</ele>
        <time>2018-06-24T08:14:02Z</time>
      </trkpt>
      <trkpt lat="50.58692" lon="3.07252">
        <ele>5.8</ele>
        <time>2018-06-24T08:14:06Z</time>
      </trkpt>
      <trkpt lat="50.58686" lon="3.07261">
        <ele>5.8</ele>
        <time>2018-06-24T08:14:10Z</time>
      </trkpt>
      <trkpt lat="50.58683" lon="3.07264">
        <ele>5.6</ele>
        <time>2018-06-24T08:14:14Z</time>
      </trkpt>
      <trkpt lat="50.58679" lon="3.07265">
        <ele>5.4</ele>
        <time>2018-06-24T08:14:18Z</time>
      </trkpt>
      <trkpt lat="50.58673" lon="3.07261">
        <ele>5.4</ele>
        <time>2018-06-24T08:14:22Z</time>
      </trkpt>
      <trkpt lat="50.58663" lon="3.0725">
        <ele>5</ele>
        <time>2018-06-24T08:14:26Z</time>
      </trkpt>
      <trkpt lat="50.58651" lon="3.07235">
        <ele>5.2</ele>
        <time>2018-06-24T08:14:30Z</time>
      </trkpt>
      <trkpt lat="50.58641" lon="3.07221">
        <ele>5</ele>
        <time>2018-06-24T08:14:34Z</time>
      </trkpt>
      <trkpt lat="50.58629" lon="3.07225">
        <ele>5.2</ele>
        <time>2018-06-24T08:14:38Z</time>
      </trkpt>
      <trkpt lat="50.58621" lon="3.07232">
        <ele>4.8</ele>
        <time>2018-06-24T08:14:42Z</time>
      </trkpt>
      <trkpt lat="50.58614" lon="3.07235">
        <ele>4.4</ele>
        <time>2018-06-24T08:14:46Z</time>
      </trkpt>
      <trkpt lat="50.58605" lon="3.07222">
        <ele>4.4</ele>
        <time>2018-06-24T08:14:50Z</time>
      </trkpt>
      <trkpt lat="50.586" lon="3.07207">
        <ele>4.2</ele>
        <time>2018-06-24T08:14:54Z</time>
      </trkpt>
      <trkpt lat="50.58589" lon="3.07204">
        <ele>3.4</ele>
        <time>2018-06-24T08:14:58Z</time>
      </trkpt>
      <trkpt lat="50.58575" lon="3.072">
        <ele>3.4</ele>
        <time>2018-06-24T08:15:02Z</time>
      </trkpt>
      <trkpt lat="50.58564" lon="3.07184">
        <ele>3</ele>
        <time>2018-06-24T08:15:06Z</time>
      </trkpt>
      <trkpt lat="50.58555" lon="3.07166">
        <ele>3</ele>
        <time>2018-06-24T08:15:10Z</time>
      </trkpt>
      <trkpt lat="50.58545" lon="3.07149">
        <ele>2.8</ele>
        <time>2018-06-24T08:15:14Z</time>
      </trkpt>
      <trkpt lat="50.58534" lon="3.07131">
        <ele>2.8</ele>
        <time>2018-06-24T08:15:18Z</time>
      </trkpt>
      <trkpt lat="50.58518" lon="3.07123">
        <ele>2.4</ele>
        <time>2018-06-24T08:15:22Z</time>
      </trkpt>
      <trkpt lat="50.58504" lon="3.07108">
        <ele>2</ele>
        <time>2018-06-24T08:15:26Z</time>
      </trkpt>
      <trkpt lat="50.58492" lon="3.07092">
        <ele>2</ele>
        <time>2018-06-24T08:15:30Z</time>
      </trkpt>
      <trkpt lat="50.58479" lon="3.07081">
        <ele>1.8</ele>
        <time>2018-06-24T08:15:34Z</time>
      </trkpt>
      <trkpt lat="50.58466" lon="3.07077">
        <ele>1.2</ele>
        <time>2018-06-24T08:15:38Z</time>
      </trkpt>
      <trkpt lat="50.58453" lon="3.07068">
        <ele>0.6</ele>
        <time>2018-06-24T08:15:42Z</time>
      </trkpt>
      <trkpt lat="50.58438" lon="3.07053">
        <ele>0.6</ele>
        <time>2018-06-24T08:15:46Z</time>
      </trkpt>
      <trkpt lat="50.58422" lon="3.07038">
        <ele>0.2</ele>
        <time>2018-06-24T08:15:50Z</time>
      </trkpt>
      <trkpt lat="50.58413" lon="3.07028">
        <ele>-0.4</ele>
        <time>2018-06-24T08:15:54Z</time>
      </trkpt>
      <trkpt lat="50.58407" lon="3.07022">
        <ele>-0.6</ele>
        <time>2018-06-24T08:15:58Z</time>
      </trkpt>
      <trkpt lat="50.58401" lon="3.07007">
        <ele>-0.6</ele>
        <time>2018-06-24T08:16:02Z</time>
      </trkpt>
      <trkpt lat="50.58402" lon="3.06989">
        <ele>-0.8</ele>
        <time>2018-06-24T08:16:06Z</time>
      </trkpt>
      <trkpt lat="50.58405" lon="3.06972">
        <ele>-0.8</ele>
        <time>2018-06-24T08:16:10Z</time>
      </trkpt>
      <trkpt lat="50.584" lon="3.06955">
        <ele>-1</ele>
        <time>2018-06-24T08:16:14Z</time>
      </trkpt>
      <trkpt lat="50.58389" lon="3.06955">
        <ele>-0.8</ele>
        <time>2018-06-24T08:16:18Z</time>
      </trkpt>
      <trkpt lat="50.58377" lon="3.06963">
        <ele>-1.6</ele>
        <time>2018-06-24T08:16:22Z</time>
      </trkpt>
      <trkpt lat="50.58364" lon="3.0697">
        <ele>-1.6</ele>
        <time>2018-06-24T08:16:26Z</time>
      </trkpt>
      <trkpt lat="50.58352" lon="3.06975">
        <ele>-1.4</ele>
        <time>2018-06-24T08:16:30Z</time>
      </trkpt>
      <trkpt lat="50.5834" lon="3.0698">
        <ele>-1.8</ele>
        <time>2018-06-24T08:16:34Z</time>
      </trkpt>
      <trkpt lat="50.58326" lon="3.06986">
        <ele>-2.2</ele>
        <time>2018-06-24T08:16:38Z</time>
      </trkpt>
      <trkpt lat="50.58313" lon="3.06996">
        <ele>-1.4</ele>
        <time>2018-06-24T08:16:42Z</time>
      </trkpt>
      <trkpt lat="50.583" lon="3.07006">
        <ele>-1.6</ele>
        <time>2018-06-24T08:16:46Z</time>
      </trkpt>
      <trkpt lat="50.58287" lon="3.07017">
        <ele>-1.6</ele>
        <time>2018-06-24T08:16:50Z</time>
      </trkpt>
      <trkpt lat="50.58273" lon="3.07027">
        <ele>-1.8</ele>
        <time>2018-06-24T08:16:54Z</time>
      </trkpt>
      <trkpt lat="50.58261" lon="3.07037">
        <ele>-1.4</ele>
        <time>2018-06-24T08:16:58Z</time>
      </trkpt>
      <trkpt lat="50.58249" lon="3.07046">
        <ele>-1.4</ele>
        <time>2018-06-24T08:17:02Z</time>
      </trkpt>
      <trkpt lat="50.58236" lon="3.07056">
        <ele>-0.8</ele>
        <time>2018-06-24T08:17:06Z</time>
      </trkpt>
      <trkpt lat="50.58224" lon="3.07066">
        <ele>-0.6</ele>
        <time>2018-06-24T08:17:10Z</time>
      </trkpt>
      <trkpt lat="50.58212" lon="3.07075">
        <ele>46</ele>
        <time>2018-06-24T08:17:14Z</time>
      </trkpt>
      <trkpt lat="50.582" lon="3.07085">
        <ele>0.2</ele>
        <time>2018-06-24T08:17:18Z</time>
      </trkpt>
      <trkpt lat="50.58188" lon="3.07095">
        <ele>0.6</ele>
        <time>2018-06-24T08:17:22Z</time>
      </trkpt>
      <trkpt lat="50.58175" lon="3.07106">
        <ele>1</ele>
        <time>2018-06-24T08:17:26Z</time>
      </trkpt>
      <trkpt lat="50.58162" lon="3.07117">
        <ele>1</ele>
        <time>2018-06-24T08:17:30Z</time>
      </trkpt>
      <trkpt lat="50.58149" lon="3.07128">
        <ele>1.4</ele>
        <time>2018-06-24T08:17:34Z</time>
      </trkpt>
      <trkpt lat="50.58136" lon="3.07139">
        <ele>1.6</ele>
        <time>2018-06-24T08:17:38Z</time>
      </trkpt>
      <trkpt lat="50.58122" lon="3.07149">
        <ele>2</ele>
        <time>2018-06-24T08:17:42Z</time>
      </trkpt>
      <trkpt lat="50.58106" lon="3.07157">
        <ele>1.6</ele>
        <time>2018-06-24T08:17:46Z</time>
      </trkpt>
      <trkpt lat="50.5809" lon="3.07163">
        <ele>2</ele>
        <time>2018-06-24T08:17:50Z</time>
      </trkpt>
      <trkpt lat="50.58073" lon="3.0717">
        <ele>1.6</ele>
        <time>2018-06-24T08:17:54Z</time>
      </trkpt>
      <trkpt lat="50.58057" lon="3.07177">
        <ele>1.2</ele>
        <time>2018-06-24T08:17:58Z</time>
      </trkpt>
      <trkpt lat="50.58041" lon="3.07184">
        <ele>1</ele>
        <time>2018-06-24T08:18:02Z</time>
      </trkpt>
      <trkpt lat="50.58025" lon="3.07192">
        <ele>1</ele>
        <time>2018-06-24T08:18:06Z</time>
      </trkpt>
      <trkpt lat="50.58009" lon="3.07201">
        <ele>0.8</ele>
        <time>2018-06-24T08:18:10Z</time>
      </trkpt>
      <trkpt lat="50.57993" lon="3.07211">
        <ele>0.6</ele>
        <time>2018-06-24T08:18:14Z</time>
      </trkpt>
      <trkpt lat="50.57976" lon="3.07225">
        <ele>0.4</ele>
        <time>2018-06-24T08:18:18Z</time>
      </trkpt>
      <trkpt lat="50.5796" lon="3.07243">
        <ele>45.6</ele>
        <time>2018-06-24T08:18:22Z</time>
      </trkpt>
      <trkpt lat="50.57944" lon="3.0726">
        <ele>-0.6</ele>
        <time>2018-06-24T08:18:26Z</time>
      </trkpt>
      <trkpt lat="50.57928" lon="3.07277">
        <ele>-0.8</ele>
        <time>2018-06-24T08:18:30Z</time>
      </trkpt>
      <trkpt lat="50.57912" lon="3.07295">
        <ele>-0.8</ele>
        <time>2018-06-24T08:18:34Z</time>
      </trkpt>
      <trkpt lat="50.57896" lon="3.07312">
        <ele>-1.2</ele>
        <time>2018-06-24T08:18:38Z</time>
      </trkpt>
      <trkpt lat="50.57881" lon="3.07328">
        <ele>-1.4</ele>
        <time>2018-06-24T08:18:42Z</time>
      </trkpt>
      <trkpt lat="50.57864" lon="3.07343">
        <ele>-1.6</ele>
        <time>2018-06-24T08:18:46Z</time>
      </trkpt>
      <trkpt lat="50.5785" lon="3.07343">
        <ele>-2.4</ele>
        <time>2018-06-24T08:18:50Z</time>
      </trkpt>
      <trkpt lat="50.57842" lon="3.07338">
        <ele>-2.6</ele>
        <time>2018-06-24T08:18:54Z</time>
      </trkpt>
      <trkpt lat="50.57832" lon="3.07336">
        <ele>-2.8</ele>
        <time>2018-06-24T08:18:58Z</time>
      </trkpt>
      <trkpt lat="50.5782" lon="3.07332">
        <ele>-3</ele>
        <time>2018-06-24T08:19:02Z</time>
      </trkpt>
      <trkpt lat="50.57808" lon="3.07325">
        <ele>-3.2</ele>
        <time>2018-06-24T08:19:06Z</time>
      </trkpt>
      <trkpt lat="50.57802" lon="3.07316">
        <ele>-3.6</ele>
        <time>2018-06-24T08:19:10Z</time>
      </trkpt>
      <trkpt lat="50.57798" lon="3.07311">
        <ele>-3.6</ele>
        <time>2018-06-24T08:19:14Z</time>
      </trkpt>
      <trkpt lat="50.57796" lon="3.07307">
        <ele>-3.8</ele>
        <time>2018-06-24T08:19:18Z</time>
      </trkpt>
      <trkpt lat="50.57793" lon="3.07304">
        <ele>-4</ele>
        <time>2018-06-24T08:19:22Z</time>
      </trkpt>
      <trkpt lat="50.5779" lon="3.073">
        <ele>-4</ele>
        <time>2018-06-24T08:19:26Z</time>
      </trkpt>
      <trkpt lat="50.5779" lon="3.073">
        <ele>-4</ele>
        <time>2018-06-24T08:19:30Z</time>
      </trkpt>
      <trkpt lat="50.57788" lon="3.07296">
        <ele>-4</ele>
        <time>2018-06-24T08:19:34Z</time>
      </trkpt>
      <trkpt lat="50.57786" lon="3.07293">
        <ele>-4</ele>
        <time>2018-06-24T08:19:38Z</time>
      </trkpt>
      <trkpt lat="50.57785" lon="3.07292">
        <ele>-3.8</ele>
        <time>2018-06-24T08:19:42Z</time>
      </trkpt>
      <trkpt lat="50.57782" lon="3.07287">
        <ele>-4.2</ele>
        <time>2018-06-24T08:19:46Z</time>
      </trkpt>
      <trkpt lat="50.57777" lon="3.07281">
        <ele>-4.2</ele>
        <time>2018-06-24T08:19:50Z</time>
      </trkpt>
      <trkpt lat="50.57773" lon="3.07272">
        <ele>-4.4</ele>
        <time>2018-06-24T08:19:54Z</time>
      </trkpt>
      <trkpt lat="50.57773" lon="3.07262">
        <ele>-4.4</ele>
        <time>2018-06-24T08:19:58Z</time>
      </trkpt>
      <trkpt lat="50.57772" lon="3.07257">
        <ele>-4.2</ele>
        <time>2018-06-24T08:20:02Z</time>
      </trkpt>
      <trkpt lat="50.5777" lon="3.0726">
        <ele>-4.6</ele>
        <time>2018-06-24T08:20:06Z</time>
      </trkpt>
      <trkpt lat="50.57767" lon="3.07258">
        <ele>-5.2</ele>
        <time>2018-06-24T08:20:10Z</time>
      </trkpt>
      <trkpt lat="50.57766" lon="3.07262">
        <ele>-4.8</ele>
        <time>2018-06-24T08:20:14Z</time>
      </trkpt>
      <trkpt lat="50.57772" lon="3.07252">
        <ele>-4.4</ele>
        <time>2018-06-24T08:20:18Z</time>
      </trkpt>
      <trkpt lat="50.57772" lon="3.0723">
        <ele>-4.2</ele>
        <time>2018-06-24T08:20:22Z</time>
      </trkpt>
      <trkpt lat="50.57772" lon="3.07207">
        <ele>-4.4</ele>
        <time>2018-06-24T08:20:26Z</time>
      </trkpt>
      <trkpt lat="50.57772" lon="3.07183">
        <ele>-4.6</ele>
        <time>2018-06-24T08:20:30Z</time>
      </trkpt>
      <trkpt lat="50.57769" lon="3.07159">
        <ele>-5.2</ele>
        <time>2018-06-24T08:20:34Z</time>
      </trkpt>
      <trkpt lat="50.57765" lon="3.07135">
        <ele>-4.8</ele>
        <time>2018-06-24T08:20:38Z</time>
      </trkpt>
      <trkpt lat="50.57758" lon="3.07112">
        <ele>-5.6</ele>
        <time>2018-06-24T08:20:42Z</time>
      </trkpt>
      <trkpt lat="50.5775" lon="3.0709">
        <ele>-5.2</ele>
        <time>2018-06-24T08:20:46Z</time>
      </trkpt>
      <trkpt lat="50.57743" lon="3.07069">
        <ele>-5.6</ele>
        <time>2018-06-24T08:20:50Z</time>
      </trkpt>
      <trkpt lat="50.57736" lon="3.07049">
        <ele>-5.6</ele>
        <time>2018-06-24T08:20:54Z</time>
      </trkpt>
      <trkpt lat="50.57732" lon="3.07027">
        <ele>-5.6</ele>
        <time>2018-06-24T08:20:58Z</time>
      </trkpt>
      <trkpt lat="50.5773" lon="3.07004">
        <ele>-5.8</ele>
        <time>2018-06-24T08:21:02Z</time>
      </trkpt>
      <trkpt lat="50.57728" lon="3.06981">
        <ele>-5.8</ele>
        <time>2018-06-24T08:21:06Z</time>
      </trkpt>
      <trkpt lat="50.57727" lon="3.06959">
        <ele>-6.2</ele>
        <time>2018-06-24T08:21:10Z</time>
      </trkpt>
      <trkpt lat="50.57726" lon="3.06937">
        <ele>-6</ele>
        <time>2018-06-24T08:21:14Z</time>
      </trkpt>
      <trkpt lat="50.57724" lon="3.06913">
        <ele>-6</ele>
        <time>2018-06-24T08:21:18Z</time>
      </trkpt>
      <trkpt lat="50.57723" lon="3.06891">
        <ele>-5.6</ele>
        <time>2018-06-24T08:21:22Z</time>
      </trkpt>
      <trkpt lat="50.57722" lon="3.06868">
        <ele>-6.2</ele>
        <time>2018-06-24T08:21:26Z</time>
      </trkpt>
      <trkpt lat="50.5772" lon="3.06846">
        <ele>-6.2</ele>
        <time>2018-06-24T08:21:30Z</time>
      </trkpt>
      <trkpt lat="50.57719" lon="3.06824">
        <ele>-6</ele>
        <time>2018-06-24T08:21:34Z</time>
      </trkpt>
      <trkpt lat="50.57718" lon="3.06801">
        <ele>-5.8</ele>
        <time>2018-06-24T08:21:38Z</time>
      </trkpt>
      <trkpt lat="50.57716" lon="3.06777">
        <ele>-6.2</ele>
        <time>2018-06-24T08:21:42Z</time>
      </trkpt>
      <trkpt lat="50.57714" lon="3.06754">
        <ele>-6</ele>
        <time>2018-06-24T08:21:46Z</time>
      </trkpt>
      <trkpt lat="50.57712" lon="3.0673">
        <ele>-6</ele>
        <time>2018-06-24T08:21:50Z</time>
      </trkpt>
      <trkpt lat="50.57709" lon="3.06709">
        <ele>-5.6</ele>
        <time>2018-06-24T08:21:54Z</time>
      </trkpt>
      <trkpt lat="50.57706" lon="3.06688">
        <ele>-6.2</ele>
        <time>2018-06-24T08:21:58Z</time>
      </trkpt>
      <trkpt lat="50.57703" lon="3.06667">
        <ele>-6.2</ele>
        <time>2018-06-24T08:22:02Z</time>
      </trkpt>
      <trkpt lat="50.577" lon="3.06643">
        <ele>-6</ele>
        <time>2018-06-24T08:22:06Z</time>
      </trkpt>
      <trkpt lat="50.57697" lon="3.0662">
        <ele>-6</ele>
        <time>2018-06-24T08:22:10Z</time>
      </trkpt>
      <trkpt lat="50.57695" lon="3.06597">
        <ele>-6.4</ele>
        <time>2018-06-24T08:22:14Z</time>
      </trkpt>
      <trkpt lat="50.57692" lon="3.06574">
        <ele>-6.4</ele>
        <time>2018-06-24T08:22:18Z</time>
      </trkpt>
      <trkpt lat="50.57689" lon="3.06549">
        <ele>-7</ele>
        <time>2018-06-24T08:22:22Z</time>
      </trkpt>
      <trkpt lat="50.57685" lon="3.06524">
        <ele>-7</ele>
        <time>2018-06-24T08:22:26Z</time>
      </trkpt>
      <trkpt lat="50.57681" lon="3.06501">
        <ele>-7.4</ele>
        <time>2018-06-24T08:22:30Z</time>
      </trkpt>
      <trkpt lat="50.57676" lon="3.06478">
        <ele>-7.4</ele>
        <time>2018-06-24T08:22:34Z</time>
      </trkpt>
      <trkpt lat="50.57671" lon="3.06455">
        <ele>-8</ele>
        <time>2018-06-24T08:22:38Z</time>
      </trkpt>
      <trkpt lat="50.57666" lon="3.06433">
        <ele>-7.8</ele>
        <time>2018-06-24T08:22:42Z</time>
      </trkpt>
      <trkpt lat="50.57661" lon="3.06412">
        <ele>-8.4</ele>
        <time>2018-06-24T08:22:46Z</time>
      </trkpt>
      <trkpt lat="50.57657" lon="3.06392">
        <ele>-8.6</ele>
        <time>2018-06-24T08:22:50Z</time>
      </trkpt>
      <trkpt lat="50.57652" lon="3.06372">
        <ele>-8.4</ele>
        <time>2018-06-24T08:22:54Z</time>
      </trkpt>
      <trkpt lat="50.57648" lon="3.06351">
        <ele>-8.4</ele>
        <time>2018-06-24T08:22:58Z</time>
      </trkpt>
      <trkpt lat="50.57643" lon="3.06329">
        <ele>-8.6</ele>
        <time>2018-06-24T08:23:02Z</time>
      </trkpt>
      <trkpt lat="50.57638" lon="3.06305">
        <ele>-9</ele>
        <time>2018-06-24T08:23:06Z</time>
      </trkpt>
      <trkpt lat="50.57635" lon="3.06282">
        <ele>-9</ele>
        <time>2018-06-24T08:23:10Z</time>
      </trkpt>
      <trkpt lat="50.57633" lon="3.06259">
        <ele>-9</ele>
        <time>2018-06-24T08:23:14Z</time>
      </trkpt>
      <trkpt lat="50.57631" lon="3.06238">
        <ele>-9.4</ele>
        <time>2018-06-24T08:23:18Z</time>
      </trkpt>
      <trkpt lat="50.5763" lon="3.06215">
        <ele>-9.6</ele>
        <time>2018-06-24T08:23:22Z</time>
      </trkpt>
      <trkpt lat="50.5763" lon="3.06193">
        <ele>-9.8</ele>
        <time>2018-06-24T08:23:26Z</time>
      </trkpt>
      <trkpt lat="50.5763" lon="3.06171">
        <ele>-9.6</ele>
        <time>2018-06-24T08:23:30Z</time>
      </trkpt>
      <trkpt lat="50.5763" lon="3.0615">
        <ele>-9.2</ele>
        <time>2018-06-24T08:23:34Z</time>
      </trkpt>
      <trkpt lat="50.57631" lon="3.06128">
        <ele>-9.2</ele>
        <time>2018-06-24T08:23:38Z</time>
      </trkpt>
      <trkpt lat="50.57632" lon="3.06106">
        <ele>-9.2</ele>
        <time>2018-06-24T08:23:42Z</time>
      </trkpt>
      <trkpt lat="50.57633" lon="3.06084">
        <ele>-9</ele>
        <time>2018-06-24T08:23:46Z</time>
      </trkpt>
      <trkpt lat="50.57634" lon="3.06063">
        <ele>-9</ele>
        <time>2018-06-24T08:23:50Z</time>
      </trkpt>
      <trkpt lat="50.57635" lon="3.06041">
        <ele>-8.8</ele>
        <time>2018-06-24T08:23:54Z</time>
      </trkpt>
      <trkpt lat="50.57635" lon="3.06021">
        <ele>-9</ele>
        <time>2018-06-24T08:23:58Z</time>
      </trkpt>
      <trkpt lat="50.57636" lon="3.06001">
        <ele>-8.4</ele>
        <time>2018-06-24T08:24:02Z</time>
      </trkpt>
      <trkpt lat="50.57636" lon="3.05982">
        <ele>-8.8</ele>
        <time>2018-06-24T08:24:06Z</time>
      </trkpt>
      <trkpt lat="50.57634" lon="3.05964">
        <ele>-9.4</ele>
        <time>2018-06-24T08:24:10Z</time>
      </trkpt>
      <trkpt lat="50.5763" lon="3.05946">
        <ele>-9.2</ele>
        <time>2018-06-24T08:24:14Z</time>
      </trkpt>
      <trkpt lat="50.57621" lon="3.05937">
        <ele>-9.8</ele>
        <time>2018-06-24T08:24:18Z</time>
      </trkpt>
      <trkpt lat="50.57617" lon="3.05923">
        <ele>-9.8</ele>
        <time>2018-06-24T08:24:22Z</time>
      </trkpt>
      <trkpt lat="50.57611" lon="3.05907">
        <ele>-10.2</ele>
        <time>2018-06-24T08:24:26Z</time>
      </trkpt>
      <trkpt lat="50.57612" lon="3.05896">
        <ele>-10.2</ele>
        <time>2018-06-24T08:24:30Z</time>
      </trkpt>
      <trkpt lat="50.57613" lon="3.05892">
        <ele>-10.2</ele>
        <time>2018-06-24T08:24:34Z</time>
      </trkpt>
      <trkpt lat="50.57615" lon="3.05887">
        <ele>-10.2</ele>
        <time>2018-06-24T08:24:38Z</time>
      </trkpt>
      <trkpt lat="50.57617" lon="3.05882">
        <ele>-9.6</ele>
        <time>2018-06-24T08:24:42Z</time>
      </trkpt>
      <trkpt lat="50.57617" lon="3.05879">
        <ele>-10.2</ele>
        <time>2018-06-24T08:24:46Z</time>
      </trkpt>
      <trkpt lat="50.57616" lon="3.05874">
        <ele>-10</ele>
        <time>2018-06-24T08:24:50Z</time>
      </trkpt>
      <trkpt lat="50.57615" lon="3.05869">
        <ele>-9.8</ele>
        <time>2018-06-24T08:24:54Z</time>
      </trkpt>
      <trkpt lat="50.57613" lon="3.05859">
        <ele>-9.8</ele>
        <time>2018-06-24T08:24:58Z</time>
      </trkpt>
      <trkpt lat="50.5761" lon="3.05849">
        <ele>-9.8</ele>
        <time>2018-06-24T08:25:02Z</time>
      </trkpt>
      <trkpt lat="50.57608" lon="3.05837">
        <ele>-9.2</ele>
        <time>2018-06-24T08:25:06Z</time>
      </trkpt>
      <trkpt lat="50.57605" lon="3.05824">
        <ele>-9.2</ele>
        <time>2018-06-24T08:25:10Z</time>
      </trkpt>
      <trkpt lat="50.57601" lon="3.0581">
        <ele>-9.2</ele>
        <time>2018-06-24T08:25:14Z</time>
      </trkpt>
      <trkpt lat="50.57596" lon="3.05793">
        <ele>-9</ele>
        <time>2018-06-24T08:25:18Z</time>
      </trkpt>
      <trkpt lat="50.57589" lon="3.05777">
        <ele>-9</ele>
        <time>2018-06-24T08:25:22Z</time>
      </trkpt>
      <trkpt lat="50.57582" lon="3.05762">
        <ele>-9.8</ele>
        <time>2018-06-24T08:25:26Z</time>
      </trkpt>
      <trkpt lat="50.57574" lon="3.05746">
        <ele>-9.4</ele>
        <time>2018-06-24T08:25:30Z</time>
      </trkpt>
      <trkpt lat="50.57566" lon="3.05729">
        <ele>-10</ele>
        <time>2018-06-24T08:25:34Z</time>
      </trkpt>
      <trkpt lat="50.57558" lon="3.05713">
        <ele>-10.2</ele>
        <time>2018-06-24T08:25:38Z</time>
      </trkpt>
      <trkpt lat="50.57549" lon="3.05698">
        <ele>-10.2</ele>
        <time>2018-06-24T08:25:42Z</time>
      </trkpt>
      <trkpt lat="50.57539" lon="3.05682">
        <ele>-10.4</ele>
        <time>2018-06-24T08:25:46Z</time>
      </trkpt>
      <trkpt lat="50.5753" lon="3.05664">
        <ele>-10.4</ele>
        <time>2018-06-24T08:25:50Z</time>
      </trkpt>
      <trkpt lat="50.5752" lon="3.05648">
        <ele>-10.8</ele>
        <time>2018-06-24T08:25:54Z</time>
      </trkpt>
      <trkpt lat="50.5751" lon="3.05632">
        <ele>-11.2</ele>
        <time>2018-06-24T08:25:58Z</time>
      </trkpt>
      <trkpt lat="50.57501" lon="3.05613">
        <ele>-10.6</ele>
        <time>2018-06-24T08:26:02Z</time>
      </trkpt>
      <trkpt lat="50.57492" lon="3.05594">
        <ele>-11.2</ele>
        <time>2018-06-24T08:26:06Z</time>
      </trkpt>
      <trkpt lat="50.57484" lon="3.05577">
        <ele>-11.8</ele>
        <time>2018-06-24T08:26:10Z</time>
      </trkpt>
      <trkpt lat="50.57477" lon="3.05558">
        <ele>-11.6</ele>
        <time>2018-06-24T08:26:14Z</time>
      </trkpt>
      <trkpt lat="50.5747" lon="3.05536">
        <ele>-12</ele>
        <time>2018-06-24T08:26:18Z</time>
      </trkpt>
      <trkpt lat="50.57462" lon="3.05513">
        <ele>-11.6</ele>
        <time>2018-06-24T08:26:22Z</time>
      </trkpt>
      <trkpt lat="50.57455" lon="3.0549">
        <ele>-12</ele>
        <time>2018-06-24T08:26:26Z</time>
      </trkpt>
      <trkpt lat="50.57448" lon="3.05466">
        <ele>-12</ele>
        <time>2018-06-24T08:26:30Z</time>
      </trkpt>
      <trkpt lat="50.57441" lon="3.05445">
        <ele>-11.8</ele>
        <time>2018-06-24T08:26:34Z</time>
      </trkpt>
      <trkpt lat="50.57434" lon="3.05424">
        <ele>-12</ele>
        <time>2018-06-24T08:26:38Z</time>
      </trkpt>
      <trkpt lat="50.57428" lon="3.05404">
        <ele>-12.6</ele>
        <time>2018-06-24T08:26:42Z</time>
      </trkpt>
      <trkpt lat="50.57423" lon="3.05382">
        <ele>-12.6</ele>
        <time>2018-06-24T08:26:46Z</time>
      </trkpt>
      <trkpt lat="50.57419" lon="3.05365">
        <ele>-13</ele>
        <time>2018-06-24T08:26:50Z</time>
      </trkpt>
      <trkpt lat="50.57416" lon="3.05353">
        <ele>-12.8</ele>
        <time>2018-06-24T08:26:54Z</time>
      </trkpt>
      <trkpt lat="50.57409" lon="3.0534">
        <ele>-12.8</ele>
        <time>2018-06-24T08:26:58Z</time>
      </trkpt>
      <trkpt lat="50.57404" lon="3.05319">
        <ele>-13</ele>
        <time>2018-06-24T08:27:02Z</time>
      </trkpt>
      <trkpt lat="50.574" lon="3.05299">
        <ele>-12.8</ele>
        <time>2018-06-24T08:27:06Z</time>
      </trkpt>
      <trkpt lat="50.57395" lon="3.05279">
        <ele>-12.6</ele>
        <time>2018-06-24T08:27:10Z</time>
      </trkpt>
      <trkpt lat="50.57391" lon="3.05259">
        <ele>-12.6</ele>
        <time>2018-06-24T08:27:14Z</time>
      </trkpt>
      <trkpt lat="50.57386" lon="3.05237">
        <ele>-12.4</ele>
        <time>2018-06-24T08:27:18Z</time>
      </trkpt>
      <trkpt lat="50.57381" lon="3.05214">
        <ele>-12.8</ele>
        <time>2018-06-24T08:27:22Z</time>
      </trkpt>
      <trkpt lat="50.57376" lon="3.05191">
        <ele>-13</ele>
        <time>2018-06-24T08:27:26Z</time>
      </trkpt>
      <trkpt lat="50.57372" lon="3.05167">
        <ele>-12.8</ele>
        <time>2018-06-24T08:27:30Z</time>
      </trkpt>
      <trkpt lat="50.57376" lon="3.05145">
        <ele>-13.2</ele>
        <time>2018-06-24T08:27:34Z</time>
      </trkpt>
      <trkpt lat="50.57387" lon="3.05138">
        <ele>-13</ele>
        <time>2018-06-24T08:27:38Z</time>
      </trkpt>
      <trkpt lat="50.57398" lon="3.05132">
        <ele>-13</ele>
        <time>2018-06-24T08:27:42Z</time>
      </trkpt>
      <trkpt lat="50.57409" lon="3.05126">
        <ele>-12.2</ele>
        <time>2018-06-24T08:27:46Z</time>
      </trkpt>
      <trkpt lat="50.57421" lon="3.05118">
        <ele>-12</ele>
        <time>2018-06-24T08:27:50Z</time>
      </trkpt>
      <trkpt lat="50.57433" lon="3.05113">
        <ele>-12</ele>
        <time>2018-06-24T08:27:54Z</time>
      </trkpt>
      <trkpt lat="50.57445" lon="3.05107">
        <ele>-12</ele>
        <time>2018-06-24T08:27:58Z</time>
      </trkpt>
      <trkpt lat="50.57458" lon="3.051">
        <ele>-11.6</ele>
        <time>2018-06-24T08:28:02Z</time>
      </trkpt>
      <trkpt lat="50.57471" lon="3.05093">
        <ele>-11.8</ele>
        <time>2018-06-24T08:28:06Z</time>
      </trkpt>
      <trkpt lat="50.57485" lon="3.05087">
        <ele>-11.2</ele>
        <time>2018-06-24T08:28:10Z</time>
      </trkpt>
      <trkpt lat="50.57497" lon="3.05077">
        <ele>-10.6</ele>
        <time>2018-06-24T08:28:14Z</time>
      </trkpt>
      <trkpt lat="50.57506" lon="3.05065">
        <ele>-10.4</ele>
        <time>2018-06-24T08:28:18Z</time>
      </trkpt>
      <trkpt lat="50.57511" lon="3.05047">
        <ele>-10.6</ele>
        <time>2018-06-24T08:28:22Z</time>
      </trkpt>
      <trkpt lat="50.57516" lon="3.05027">
        <ele>-10.6</ele>
        <time>2018-06-24T08:28:26Z</time>
      </trkpt>
      <trkpt lat="50.5752" lon="3.05008">
        <ele>-10.4</ele>
        <time>2018-06-24T08:28:30Z</time>
      </trkpt>
      <trkpt lat="50.57524" lon="3.04991">
        <ele>-10.6</ele>
        <time>2018-06-24T08:28:34Z</time>
      </trkpt>
      <trkpt lat="50.57529" lon="3.04971">
        <ele>-10.2</ele>
        <time>2018-06-24T08:28:38Z</time>
      </trkpt>
      <trkpt lat="50.57532" lon="3.04953">
        <ele>-10.2</ele>
        <time>2018-06-24T08:28:42Z</time>
      </trkpt>
      <trkpt lat="50.57536" lon="3.04934">
        <ele>-10.6</ele>
        <time>2018-06-24T08:28:46Z</time>
      </trkpt>
      <trkpt lat="50.57542" lon="3.0491">
        <ele>-10.6</ele>
        <time>2018-06-24T08:28:50Z</time>
      </trkpt>
      <trkpt lat="50.57548" lon="3.04886">
        <ele>-11.8</ele>
        <time>2018-06-24T08:28:54Z</time>
      </trkpt>
      <trkpt lat="50.57551" lon="3.04867">
        <ele>-12.4</ele>
        <time>2018-06-24T08:28:58Z</time>
      </trkpt>
      <trkpt lat="50.57554" lon="3.04853">
        <ele>-12.2</ele>
        <time>2018-06-24T08:29:02Z</time>
      </trkpt>
      <trkpt lat="50.57555" lon="3.04842">
        <ele>-12.2</ele>
        <time>2018-06-24T08:29:06Z</time>
      </trkpt>
      <trkpt lat="50.57548" lon="3.04832">
        <ele>-12.6</ele>
        <time>2018-06-24T08:29:10Z</time>
      </trkpt>
      <trkpt lat="50.57535" lon="3.04826">
        <ele>-13</ele>
        <time>2018-06-24T08:29:14Z</time>
      </trkpt>
      <trkpt lat="50.5752" lon="3.0482">
        <ele>-13</ele>
        <time>2018-06-24T08:29:18Z</time>
      </trkpt>
      <trkpt lat="50.57504" lon="3.04813">
        <ele>-13.4</ele>
        <time>2018-06-24T08:29:22Z</time>
      </trkpt>
      <trkpt lat="50.57486" lon="3.04804">
        <ele>-13.8</ele>
        <time>2018-06-24T08:29:26Z</time>
      </trkpt>
      <trkpt lat="50.57467" lon="3.04795">
        <ele>-14</ele>
        <time>2018-06-24T08:29:30Z</time>
      </trkpt>
      <trkpt lat="50.57449" lon="3.04785">
        <ele>-13.6</ele>
        <time>2018-06-24T08:29:34Z</time>
      </trkpt>
      <trkpt lat="50.57431" lon="3.04775">
        <ele>-14</ele>
        <time>2018-06-24T08:29:38Z</time>
      </trkpt>
      <trkpt lat="50.57412" lon="3.04765">
        <ele>-14.2</ele>
        <time>2018-06-24T08:29:42Z</time>
      </trkpt>
      <trkpt lat="50.57395" lon="3.04755">
        <ele>-14.4</ele>
        <time>2018-06-24T08:29:46Z</time>
      </trkpt>
      <trkpt lat="50.57379" lon="3.04745">
        <ele>-14.8</ele>
        <time>2018-06-24T08:29:50Z</time>
      </trkpt>
      <trkpt lat="50.57362" lon="3.04735">
        <ele>-14.8</ele>
        <time>2018-06-24T08:29:54Z</time>
      </trkpt>
      <trkpt lat="50.57346" lon="3.04723">
        <ele>-15.4</ele>
        <time>2018-06-24T08:29:58Z</time>
      </trkpt>
      <trkpt lat="50.57331" lon="3.04712">
        <ele>-15.2</ele>
        <time>2018-06-24T08:30:02Z</time>
      </trkpt>
      <trkpt lat="50.57315" lon="3.04701">
        <ele>-15.4</ele>
        <time>2018-06-24T08:30:06Z</time>
      </trkpt>
      <trkpt lat="50.57299" lon="3.0469">
        <ele>-14.8</ele>
        <time>2018-06-24T08:30:10Z</time>
      </trkpt>
      <trkpt lat="50.57283" lon="3.04678">
        <ele>-15</ele>
        <time>2018-06-24T08:30:14Z</time>
      </trkpt>
      <trkpt lat="50.57266" lon="3.04666">
        <ele>-14.8</ele>
        <time>2018-06-24T08:30:18Z</time>
      </trkpt>
      <trkpt lat="50.57248" lon="3.04655">
        <ele>-15.2</ele>
        <time>2018-06-24T08:30:22Z</time>
      </trkpt>
      <trkpt lat="50.57231" lon="3.04643">
        <ele>-15.4</ele>
        <time>2018-06-24T08:30:26Z</time>
      </trkpt>
      <trkpt lat="50.57215" lon="3.04634">
        <ele>-15.4</ele>
        <time>2018-06-24T08:30:30Z</time>
      </trkpt>
      <trkpt lat="50.57199" lon="3.04624">
        <ele>-15.2</ele>
        <time>2018-06-24T08:30:34Z</time>
      </trkpt>
      <trkpt lat="50.57184" lon="3.04609">
        <ele>-15</ele>
        <time>2018-06-24T08:30:38Z</time>
      </trkpt>
      <trkpt lat="50.57167" lon="3.04597">
        <ele>-14.6</ele>
        <time>2018-06-24T08:30:42Z</time>
      </trkpt>
      <trkpt lat="50.5715" lon="3.0459">
        <ele>-14.4</ele>
        <time>2018-06-24T08:30:46Z</time>
      </trkpt>
      <trkpt lat="50.57132" lon="3.04578">
        <ele>-14.8</ele>
        <time>2018-06-24T08:30:50Z</time>
      </trkpt>
      <trkpt lat="50.57113" lon="3.04568">
        <ele>-14.4</ele>
        <time>2018-06-24T08:30:54Z</time>
      </trkpt>
      <trkpt lat="50.57095" lon="3.04558">
        <ele>-13.8</ele>
        <time>2018-06-24T08:30:58Z</time>
      </trkpt>
      <trkpt lat="50.57076" lon="3.04547">
        <ele>-14</ele>
        <time>2018-06-24T08:31:02Z</time>
      </trkpt>
      <trkpt lat="50.57055" lon="3.04533">
        <ele>-13.6</ele>
        <time>2018-06-24T08:31:06Z</time>
      </trkpt>
      <trkpt lat="50.57035" lon="3.04521">
        <ele>-13.6</ele>
        <time>2018-06-24T08:31:10Z</time>
      </trkpt>
      <trkpt lat="50.57017" lon="3.0451">
        <ele>-13.4</ele>
        <time>2018-06-24T08:31:14Z</time>
      </trkpt>
      <trkpt lat="50.57001" lon="3.045">
        <ele>-13.6</ele>
        <time>2018-06-24T08:31:18Z</time>
      </trkpt>
      <trkpt lat="50.56987" lon="3.04491">
        <ele>-13.6</ele>
        <time>2018-06-24T08:31:22Z</time>
      </trkpt>
      <trkpt lat="50.56972" lon="3.04481">
        <ele>-13.4</ele>
        <time>2018-06-24T08:31:26Z</time>
      </trkpt>
      <trkpt lat="50.56957" lon="3.04473">
        <ele>-13.4</ele>
        <time>2018-06-24T08:31:30Z</time>
      </trkpt>
      <trkpt lat="50.56943" lon="3.04463">
        <ele>-13.2</ele>
        <time>2018-06-24T08:31:34Z</time>
      </trkpt>
      <trkpt lat="50.56927" lon="3.04454">
        <ele>-13.2</ele>
        <time>2018-06-24T08:31:38Z</time>
      </trkpt>
      <trkpt lat="50.56912" lon="3.04444">
        <ele>-13</ele>
        <time>2018-06-24T08:31:42Z</time>
      </trkpt>
      <trkpt lat="50.56897" lon="3.04434">
        <ele>-12.2</ele>
        <time>2018-06-24T08:31:46Z</time>
      </trkpt>
      <trkpt lat="50.56882" lon="3.04425">
        <ele>-12</ele>
        <time>2018-06-24T08:31:50Z</time>
      </trkpt>
      <trkpt lat="50.56867" lon="3.04416">
        <ele>-12</ele>
        <time>2018-06-24T08:31:54Z</time>
      </trkpt>
      <trkpt lat="50.56853" lon="3.04406">
        <ele>-11.8</ele>
        <time>2018-06-24T08:31:58Z</time>
      </trkpt>
      <trkpt lat="50.56839" lon="3.04398">
        <ele>-11.4</ele>
        <time>2018-06-24T08:32:02Z</time>
      </trkpt>
      <trkpt lat="50.56825" lon="3.0439">
        <ele>-11.2</ele>
        <time>2018-06-24T08:32:06Z</time>
      </trkpt>
      <trkpt lat="50.56811" lon="3.0438">
        <ele>-11.2</ele>
        <time>2018-06-24T08:32:10Z</time>
      </trkpt>
      <trkpt lat="50.56796" lon="3.0437">
        <ele>-10.6</ele>
        <time>2018-06-24T08:32:14Z</time>
      </trkpt>
      <trkpt lat="50.56782" lon="3.04358">
        <ele>-10.6</ele>
        <time>2018-06-24T08:32:18Z</time>
      </trkpt>
      <trkpt lat="50.56767" lon="3.04347">
        <ele>-10.6</ele>
        <time>2018-06-24T08:32:22Z</time>
      </trkpt>
      <trkpt lat="50.56753" lon="3.04335">
        <ele>-10</ele>
        <time>2018-06-24T08:32:26Z</time>
      </trkpt>
      <trkpt lat="50.56738" lon="3.04324">
        <ele>-10</ele>
        <time>2018-06-24T08:32:30Z</time>
      </trkpt>
      <trkpt lat="50.56725" lon="3.04314">
        <ele>-9.6</ele>
        <time>2018-06-24T08:32:34Z</time>
      </trkpt>
      <trkpt lat="50.5671" lon="3.04303">
        <ele>-9.6</ele>
        <time>2018-06-24T08:32:38Z</time>
      </trkpt>
      <trkpt lat="50.56696" lon="3.04293">
        <ele>-9.2</ele>
        <time>2018-06-24T08:32:42Z</time>
      </trkpt>
      <trkpt lat="50.56683" lon="3.04283">
        <ele>-9.6</ele>
        <time>2018-06-24T08:32:46Z</time>
      </trkpt>
      <trkpt lat="50.56669" lon="3.04273">
        <ele>-9.2</ele>
        <time>2018-06-24T08:32:50Z</time>
      </trkpt>
      <trkpt lat="50.56655" lon="3.04263">
        <ele>-8.8</ele>
        <time>2018-06-24T08:32:54Z</time>
      </trkpt>
      <trkpt lat="50.56641" lon="3.04253">
        <ele>-8.8</ele>
        <time>2018-06-24T08:32:58Z</time>
      </trkpt>
      <trkpt lat="50.56628" lon="3.04244">
        <ele>-8.4</ele>
        <time>2018-06-24T08:33:02Z</time>
      </trkpt>
      <trkpt lat="50.56616" lon="3.04232">
        <ele>-8.2</ele>
        <time>2018-06-24T08:33:06Z</time>
      </trkpt>
      <trkpt lat="50.56602" lon="3.04224">
        <ele>-8</ele>
        <time>2018-06-24T08:33:10Z</time>
      </trkpt>
      <trkpt lat="50.56588" lon="3.04217">
        <ele>-8.2</ele>
        <time>2018-06-24T08:33:14Z</time>
      </trkpt>
      <trkpt lat="50.56574" lon="3.04207">
        <ele>-7.8</ele>
        <time>2018-06-24T08:33:18Z</time>
      </trkpt>
      <trkpt lat="50.5656" lon="3.04197">
        <ele>-8</ele>
        <time>2018-06-24T08:33:22Z</time>
      </trkpt>
      <trkpt lat="50.56545" lon="3.04187">
        <ele>-7.6</ele>
        <time>2018-06-24T08:33:26Z</time>
      </trkpt>
      <trkpt lat="50.5653" lon="3.04179">
        <ele>-8</ele>
        <time>2018-06-24T08:33:30Z</time>
      </trkpt>
      <trkpt lat="50.56516" lon="3.04168">
        <ele>-7.2</ele>
        <time>2018-06-24T08:33:34Z</time>
      </trkpt>
      <trkpt lat="50.56501" lon="3.04158">
        <ele>-7.4</ele>
        <time>2018-06-24T08:33:38Z</time>
      </trkpt>
      <trkpt lat="50.56487" lon="3.04147">
        <ele>-7</ele>
        <time>2018-06-24T08:33:42Z</time>
      </trkpt>
      <trkpt lat="50.56472" lon="3.04137">
        <ele>-7</ele>
        <time>2018-06-24T08:33:46Z</time>
      </trkpt>
      <trkpt lat="50.56458" lon="3.04126">
        <ele>-7</ele>
        <time>2018-06-24T08:33:50Z</time>
      </trkpt>
      <trkpt lat="50.56443" lon="3.04115">
        <ele>-6.8</ele>
        <time>2018-06-24T08:33:54Z</time>
      </trkpt>
      <trkpt lat="50.56429" lon="3.04102">
        <ele>-6.4</ele>
        <time>2018-06-24T08:33:58Z</time>
      </trkpt>
      <trkpt lat="50.56414" lon="3.04091">
        <ele>-6.4</ele>
        <time>2018-06-24T08:34:02Z</time>
      </trkpt>
      <trkpt lat="50.56401" lon="3.04081">
        <ele>-6</ele>
        <time>2018-06-24T08:34:06Z</time>
      </trkpt>
      <trkpt lat="50.56387" lon="3.0407">
        <ele>-5.8</ele>
        <time>2018-06-24T08:34:10Z</time>
      </trkpt>
      <trkpt lat="50.56374" lon="3.04057">
        <ele>-5.4</ele>
        <time>2018-06-24T08:34:14Z</time>
      </trkpt>
      <trkpt lat="50.5636" lon="3.04044">
        <ele>-5.4</ele>
        <time>2018-06-24T08:34:18Z</time>
      </trkpt>
      <trkpt lat="50.56347" lon="3.0403">
        <ele>-5.4</ele>
        <time>2018-06-24T08:34:22Z</time>
      </trkpt>
      <trkpt lat="50.56334" lon="3.04015">
        <ele>-5.2</ele>
        <time>2018-06-24T08:34:26Z</time>
      </trkpt>
      <trkpt lat="50.56321" lon="3.04002">
        <ele>-5</ele>
        <time>2018-06-24T08:34:30Z</time>
      </trkpt>
      <trkpt lat="50.56308" lon="3.03989">
        <ele>-4.8</ele>
        <time>2018-06-24T08:34:34Z</time>
      </trkpt>
      <trkpt lat="50.56294" lon="3.03973">
        <ele>-4.4</ele>
        <time>2018-06-24T08:34:38Z</time>
      </trkpt>
      <trkpt lat="50.5628" lon="3.03957">
        <ele>-4.4</ele>
        <time>2018-06-24T08:34:42Z</time>
      </trkpt>
      <trkpt lat="50.56267" lon="3.03942">
        <ele>-4.2</ele>
        <time>2018-06-24T08:34:46Z</time>
      </trkpt>
      <trkpt lat="50.56254" lon="3.03927">
        <ele>-3.8</ele>
        <time>2018-06-24T08:34:50Z</time>
      </trkpt>
      <trkpt lat="50.56241" lon="3.03912">
        <ele>-4.2</ele>
        <time>2018-06-24T08:34:54Z</time>
      </trkpt>
      <trkpt lat="50.56228" lon="3.03897">
        <ele>-3.6</ele>
        <time>2018-06-24T08:34:58Z</time>
      </trkpt>
      <trkpt lat="50.56216" lon="3.03884">
        <ele>-3.6</ele>
        <time>2018-06-24T08:35:02Z</time>
      </trkpt>
      <trkpt lat="50.56204" lon="3.0387">
        <ele>-3.8</ele>
        <time>2018-06-24T08:35:06Z</time>
      </trkpt>
      <trkpt lat="50.56192" lon="3.03855">
        <ele>-3.2</ele>
        <time>2018-06-24T08:35:10Z</time>
      </trkpt>
      <trkpt lat="50.56179" lon="3.03839">
        <ele>-3.4</ele>
        <time>2018-06-24T08:35:14Z</time>
      </trkpt>
      <trkpt lat="50.56166" lon="3.03824">
        <ele>-3.4</ele>
        <time>2018-06-24T08:35:18Z</time>
      </trkpt>
      <trkpt lat="50.56154" lon="3.03809">
        <ele>-3.2</ele>
        <time>2018-06-24T08:35:22Z</time>
      </trkpt>
      <trkpt lat="50.56142" lon="3.03793">
        <ele>-2.8</ele>
        <time>2018-06-24T08:35:26Z</time>
      </trkpt>
      <trkpt lat="50.56129" lon="3.03778">
        <ele>-3.2</ele>
        <time>2018-06-24T08:35:30Z</time>
      </trkpt>
      <trkpt lat="50.56116" lon="3.03762">
        <ele>-2.8</ele>
        <time>2018-06-24T08:35:34Z</time>
      </trkpt>
      <trkpt lat="50.56104" lon="3.03745">
        <ele>-2.8</ele>
        <time>2018-06-24T08:35:38Z</time>
      </trkpt>
      <trkpt lat="50.56092" lon="3.0373">
        <ele>-2.6</ele>
        <time>2018-06-24T08:35:42Z</time>
      </trkpt>
      <trkpt lat="50.56079" lon="3.03714">
        <ele>-2.6</ele>
        <time>2018-06-24T08:35:46Z</time>
      </trkpt>
      <trkpt lat="50.56067" lon="3.03697">
        <ele>-2.8</ele>
        <time>2018-06-24T08:35:50Z</time>
      </trkpt>
      <trkpt lat="50.56055" lon="3.03681">
        <ele>-2.4</ele>
        <time>2018-06-24T08:35:54Z</time>
      </trkpt>
      <trkpt lat="50.56042" lon="3.03665">
        <ele>-2</ele>
        <time>2018-06-24T08:35:58Z</time>
      </trkpt>
      <trkpt lat="50.5603" lon="3.03648">
        <ele>-2.8</ele>
        <time>2018-06-24T08:36:02Z</time>
      </trkpt>
      <trkpt lat="50.56019" lon="3.0363">
        <ele>-3</ele>
        <time>2018-06-24T08:36:06Z</time>
      </trkpt>
      <trkpt lat="50.56007" lon="3.03613">
        <ele>-3</ele>
        <time>2018-06-24T08:36:10Z</time>
      </trkpt>
      <trkpt lat="50.55995" lon="3.03596">
        <ele>-3</ele>
        <time>2018-06-24T08:36:14Z</time>
      </trkpt>
      <trkpt lat="50.55981" lon="3.03578">
        <ele>-3.2</ele>
        <time>2018-06-24T08:36:18Z</time>
      </trkpt>
      <trkpt lat="50.55968" lon="3.0356">
        <ele>-3.2</ele>
        <time>2018-06-24T08:36:22Z</time>
      </trkpt>
      <trkpt lat="50.55955" lon="3.03541">
        <ele>-3.2</ele>
        <time>2018-06-24T08:36:26Z</time>
      </trkpt>
      <trkpt lat="50.55941" lon="3.03522">
        <ele>-3</ele>
        <time>2018-06-24T08:36:30Z</time>
      </trkpt>
      <trkpt lat="50.55927" lon="3.03503">
        <ele>-3.6</ele>
        <time>2018-06-24T08:36:34Z</time>
      </trkpt>
      <trkpt lat="50.55913" lon="3.03484">
        <ele>-3.6</ele>
        <time>2018-06-24T08:36:38Z</time>
      </trkpt>
      <trkpt lat="50.55899" lon="3.03466">
        <ele>-3.8</ele>
        <time>2018-06-24T08:36:42Z</time>
      </trkpt>
      <trkpt lat="50.55885" lon="3.0345">
        <ele>-3.8</ele>
        <time>2018-06-24T08:36:46Z</time>
      </trkpt>
      <trkpt lat="50.5587" lon="3.03431">
        <ele>-3.6</ele>
        <time>2018-06-24T08:36:50Z</time>
      </trkpt>
      <trkpt lat="50.55856" lon="3.03414">
        <ele>-3.6</ele>
        <time>2018-06-24T08:36:54Z</time>
      </trkpt>
      <trkpt lat="50.55841" lon="3.034">
        <ele>-4</ele>
        <time>2018-06-24T08:36:58Z</time>
      </trkpt>
      <trkpt lat="50.55826" lon="3.03387">
        <ele>-3.8</ele>
        <time>2018-06-24T08:37:02Z</time>
      </trkpt>
      <trkpt lat="50.55815" lon="3.03368">
        <ele>-4.4</ele>
        <time>2018-06-24T08:37:06Z</time>
      </trkpt>
      <trkpt lat="50.55806" lon="3.03346">
        <ele>-4.8</ele>
        <time>2018-06-24T08:37:10Z</time>
      </trkpt>
      <trkpt lat="50.55791" lon="3.03335">
        <ele>-5</ele>
        <time>2018-06-24T08:37:14Z</time>
      </trkpt>
      <trkpt lat="50.55774" lon="3.03336">
        <ele>-5.6</ele>
        <time>2018-06-24T08:37:18Z</time>
      </trkpt>
      <trkpt lat="50.55763" lon="3.0334">
        <ele>-5.8</ele>
        <time>2018-06-24T08:37:22Z</time>
      </trkpt>
      <trkpt lat="50.55758" lon="3.03333">
        <ele>-5.8</ele>
        <time>2018-06-24T08:37:26Z</time>
      </trkpt>
      <trkpt lat="50.55754" lon="3.03324">
        <ele>-6</ele>
        <time>2018-06-24T08:37:30Z</time>
      </trkpt>
      <trkpt lat="50.55749" lon="3.03311">
        <ele>-5.8</ele>
        <time>2018-06-24T08:37:34Z</time>
      </trkpt>
      <trkpt lat="50.55742" lon="3.03296">
        <ele>-5.8</ele>
        <time>2018-06-24T08:37:38Z</time>
      </trkpt>
      <trkpt lat="50.55733" lon="3.03283">
        <ele>-6.4</ele>
        <time>2018-06-24T08:37:42Z</time>
      </trkpt>
      <trkpt lat="50.55727" lon="3.03267">
        <ele>-6.2</ele>
        <time>2018-06-24T08:37:46Z</time>
      </trkpt>
      <trkpt lat="50.55717" lon="3.03254">
        <ele>-6.2</ele>
        <time>2018-06-24T08:37:50Z</time>
      </trkpt>
      <trkpt lat="50.55708" lon="3.03237">
        <ele>-6.2</ele>
        <time>2018-06-24T08:37:54Z</time>
      </trkpt>
      <trkpt lat="50.55695" lon="3.03228">
        <ele>-6.8</ele>
        <time>2018-06-24T08:37:58Z</time>
      </trkpt>
      <trkpt lat="50.5568" lon="3.03224">
        <ele>-7</ele>
        <time>2018-06-24T08:38:02Z</time>
      </trkpt>
      <trkpt lat="50.55665" lon="3.03218">
        <ele>-6.8</ele>
        <time>2018-06-24T08:38:06Z</time>
      </trkpt>
      <trkpt lat="50.55655" lon="3.03203">
        <ele>-7</ele>
        <time>2018-06-24T08:38:10Z</time>
      </trkpt>
      <trkpt lat="50.55645" lon="3.03183">
        <ele>-7.2</ele>
        <time>2018-06-24T08:38:14Z</time>
      </trkpt>
      <trkpt lat="50.55631" lon="3.0317">
        <ele>-8</ele>
        <time>2018-06-24T08:38:18Z</time>
      </trkpt>
      <trkpt lat="50.55617" lon="3.03156">
        <ele>-8.4</ele>
        <time>2018-06-24T08:38:22Z</time>
      </trkpt>
      <trkpt lat="50.55603" lon="3.03141">
        <ele>-8.4</ele>
        <time>2018-06-24T08:38:26Z</time>
      </trkpt>
      <trkpt lat="50.5559" lon="3.03125">
        <ele>-8.8</ele>
        <time>2018-06-24T08:38:30Z</time>
      </trkpt>
      <trkpt lat="50.55578" lon="3.03107">
        <ele>-9</ele>
        <time>2018-06-24T08:38:34Z</time>
      </trkpt>
      <trkpt lat="50.55567" lon="3.03088">
        <ele>-9</ele>
        <time>2018-06-24T08:38:38Z</time>
      </trkpt>
      <trkpt lat="50.55555" lon="3.0307">
        <ele>-9.8</ele>
        <time>2018-06-24T08:38:42Z</time>
      </trkpt>
      <trkpt lat="50.55545" lon="3.03052">
        <ele>-9.4</ele>
        <time>2018-06-24T08:38:46Z</time>
      </trkpt>
      <trkpt lat="50.55534" lon="3.03032">
        <ele>-9.6</ele>
        <time>2018-06-24T08:38:50Z</time>
      </trkpt>
      <trkpt lat="50.55523" lon="3.03014">
        <ele>-10</ele>
        <time>2018-06-24T08:38:54Z</time>
      </trkpt>
      <trkpt lat="50.55513" lon="3.02997">
        <ele>-10.6</ele>
        <time>2018-06-24T08:38:58Z</time>
      </trkpt>
      <trkpt lat="50.55502" lon="3.02978">
        <ele>-10.4</ele>
        <time>2018-06-24T08:39:02Z</time>
      </trkpt>
      <trkpt lat="50.55491" lon="3.02959">
        <ele>-10.6</ele>
        <time>2018-06-24T08:39:06Z</time>
      </trkpt>
      <trkpt lat="50.55481" lon="3.0294">
        <ele>-10.2</ele>
        <time>2018-06-24T08:39:10Z</time>
      </trkpt>
      <trkpt lat="50.5547" lon="3.02921">
        <ele>-11.2</ele>
        <time>2018-06-24T08:39:14Z</time>
      </trkpt>
      <trkpt lat="50.55459" lon="3.02901">
        <ele>-11.6</ele>
        <time>2018-06-24T08:39:18Z</time>
      </trkpt>
      <trkpt lat="50.55447" lon="3.02882">
        <ele>-10.8</ele>
        <time>2018-06-24T08:39:22Z</time>
      </trkpt>
      <trkpt lat="50.55437" lon="3.02864">
        <ele>-11.2</ele>
        <time>2018-06-24T08:39:26Z</time>
      </trkpt>
      <trkpt lat="50.55427" lon="3.02845">
        <ele>-11.6</ele>
        <time>2018-06-24T08:39:30Z</time>
      </trkpt>
      <trkpt lat="50.55418" lon="3.02826">
        <ele>-11.4</ele>
        <time>2018-06-24T08:39:34Z</time>
      </trkpt>
      <trkpt lat="50.5541" lon="3.02807">
        <ele>-12</ele>
        <time>2018-06-24T08:39:38Z</time>
      </trkpt>
      <trkpt lat="50.55409" lon="3.02784">
        <ele>-12.2</ele>
        <time>2018-06-24T08:39:42Z</time>
      </trkpt>
      <trkpt lat="50.55395" lon="3.02778">
        <ele>-13</ele>
        <time>2018-06-24T08:39:46Z</time>
      </trkpt>
      <trkpt lat="50.55382" lon="3.02768">
        <ele>-12.8</ele>
        <time>2018-06-24T08:39:50Z</time>
      </trkpt>
      <trkpt lat="50.55368" lon="3.02757">
        <ele>-12.8</ele>
        <time>2018-06-24T08:39:54Z</time>
      </trkpt>
      <trkpt lat="50.55353" lon="3.02747">
        <ele>-13</ele>
        <time>2018-06-24T08:39:58Z</time>
      </trkpt>
      <trkpt lat="50.55337" lon="3.02742">
        <ele>-13</ele>
        <time>2018-06-24T08:40:02Z</time>
      </trkpt>
      <trkpt lat="50.55324" lon="3.02744">
        <ele>-13.4</ele>
        <time>2018-06-24T08:40:06Z</time>
      </trkpt>
      <trkpt lat="50.55311" lon="3.02747">
        <ele>-13.6</ele>
        <time>2018-06-24T08:40:10Z</time>
      </trkpt>
      <trkpt lat="50.55302" lon="3.02755">
        <ele>-13.8</ele>
        <time>2018-06-24T08:40:14Z</time>
      </trkpt>
      <trkpt lat="50.55291" lon="3.02764">
        <ele>-14.2</ele>
        <time>2018-06-24T08:40:18Z</time>
      </trkpt>
      <trkpt lat="50.55279" lon="3.02772">
        <ele>-14.4</ele>
        <time>2018-06-24T08:40:22Z</time>
      </trkpt>
      <trkpt lat="50.55263" lon="3.02776">
        <ele>-14.4</ele>
        <time>2018-06-24T08:40:26Z</time>
      </trkpt>
      <trkpt lat="50.55246" lon="3.02774">
        <ele>-15.2</ele>
        <time>2018-06-24T08:40:30Z</time>
      </trkpt>
      <trkpt lat="50.55228" lon="3.02769">
        <ele>-15.2</ele>
        <time>2018-06-24T08:40:34Z</time>
      </trkpt>
      <trkpt lat="50.55211" lon="3.02758">
        <ele>-15.2</ele>
        <time>2018-06-24T08:40:38Z</time>
      </trkpt>
      <trkpt lat="50.55194" lon="3.02743">
        <ele>-15.6</ele>
        <time>2018-06-24T08:40:42Z</time>
      </trkpt>
      <trkpt lat="50.55178" lon="3.02728">
        <ele>-15.8</ele>
        <time>2018-06-24T08:40:46Z</time>
      </trkpt>
      <trkpt lat="50.55161" lon="3.02714">
        <ele>-16.6</ele>
        <time>2018-06-24T08:40:50Z</time>
      </trkpt>
      <trkpt lat="50.55143" lon="3.02697">
        <ele>-16.8</ele>
        <time>2018-06-24T08:40:54Z</time>
      </trkpt>
      <trkpt lat="50.55128" lon="3.02682">
        <ele>-17</ele>
        <time>2018-06-24T08:40:58Z</time>
      </trkpt>
      <trkpt lat="50.55116" lon="3.02665">
        <ele>-17.2</ele>
        <time>2018-06-24T08:41:02Z</time>
      </trkpt>
      <trkpt lat="50.55103" lon="3.02646">
        <ele>-17.4</ele>
        <time>2018-06-24T08:41:06Z</time>
      </trkpt>
      <trkpt lat="50.55092" lon="3.02629">
        <ele>-17.2</ele>
        <time>2018-06-24T08:41:10Z</time>
      </trkpt>
      <trkpt lat="50.55084" lon="3.02618">
        <ele>-18</ele>
        <time>2018-06-24T08:41:14Z</time>
      </trkpt>
      <trkpt lat="50.55075" lon="3.02604">
        <ele>-18</ele>
        <time>2018-06-24T08:41:18Z</time>
      </trkpt>
      <trkpt lat="50.55067" lon="3.02586">
        <ele>-18.4</ele>
        <time>2018-06-24T08:41:22Z</time>
      </trkpt>
      <trkpt lat="50.55055" lon="3.02567">
        <ele>-18.4</ele>
        <time>2018-06-24T08:41:26Z</time>
      </trkpt>
      <trkpt lat="50.55043" lon="3.02547">
        <ele>-18.6</ele>
        <time>2018-06-24T08:41:30Z</time>
      </trkpt>
      <trkpt lat="50.5503" lon="3.02526">
        <ele>-18.8</ele>
        <time>2018-06-24T08:41:34Z</time>
      </trkpt>
      <trkpt lat="50.55017" lon="3.02505">
        <ele>-18.8</ele>
        <time>2018-06-24T08:41:38Z</time>
      </trkpt>
      <trkpt lat="50.55004" lon="3.02485">
        <ele>-19</ele>
        <time>2018-06-24T08:41:42Z</time>
      </trkpt>
      <trkpt lat="50.54991" lon="3.02465">
        <ele>-19.4</ele>
        <time>2018-06-24T08:41:46Z</time>
      </trkpt>
      <trkpt lat="50.54979" lon="3.02445">
        <ele>-19</ele>
        <time>2018-06-24T08:41:50Z</time>
      </trkpt>
      <trkpt lat="50.54966" lon="3.02425">
        <ele>-19</ele>
        <time>2018-06-24T08:41:54Z</time>
      </trkpt>
      <trkpt lat="50.54954" lon="3.02404">
        <ele>-18.8</ele>
        <time>2018-06-24T08:41:58Z</time>
      </trkpt>
      <trkpt lat="50.54941" lon="3.02384">
        <ele>-19.6</ele>
        <time>2018-06-24T08:42:02Z</time>
      </trkpt>
      <trkpt lat="50.54929" lon="3.02364">
        <ele>-19.6</ele>
        <time>2018-06-24T08:42:06Z</time>
      </trkpt>
      <trkpt lat="50.54917" lon="3.02346">
        <ele>-19.2</ele>
        <time>2018-06-24T08:42:10Z</time>
      </trkpt>
      <trkpt lat="50.54905" lon="3.02331">
        <ele>-19.8</ele>
        <time>2018-06-24T08:42:14Z</time>
      </trkpt>
      <trkpt lat="50.54894" lon="3.02314">
        <ele>-20</ele>
        <time>2018-06-24T08:42:18Z</time>
      </trkpt>
      <trkpt lat="50.54887" lon="3.02291">
        <ele>-20.2</ele>
        <time>2018-06-24T08:42:22Z</time>
      </trkpt>
      <trkpt lat="50.5489" lon="3.02263">
        <ele>-21</ele>
        <time>2018-06-24T08:42:26Z</time>
      </trkpt>
      <trkpt lat="50.54897" lon="3.02236">
        <ele>-21.6</ele>
        <time>2018-06-24T08:42:30Z</time>
      </trkpt>
      <trkpt lat="50.54905" lon="3.02207">
        <ele>-22.6</ele>
        <time>2018-06-24T08:42:34Z</time>
      </trkpt>
      <trkpt lat="50.54911" lon="3.02189">
        <ele>-23.6</ele>
        <time>2018-06-24T08:42:38Z</time>
      </trkpt>
      <trkpt lat="50.54913" lon="3.0218">
        <ele>-23.6</ele>
        <time>2018-06-24T08:42:42Z</time>
      </trkpt>
      <trkpt lat="50.54909" lon="3.02174">
        <ele>-23.8</ele>
        <time>2018-06-24T08:42:46Z</time>
      </trkpt>
      <trkpt lat="50.54903" lon="3.02166">
        <ele>-24</ele>
        <time>2018-06-24T08:42:50Z</time>
      </trkpt>
      <trkpt lat="50.54904" lon="3.0215">
        <ele>-24.2</ele>
        <time>2018-06-24T08:42:54Z</time>
      </trkpt>
      <trkpt lat="50.54908" lon="3.02132">
        <ele>-24.2</ele>
        <time>2018-06-24T08:42:58Z</time>
      </trkpt>
      <trkpt lat="50.54913" lon="3.02114">
        <ele>-24.8</ele>
        <time>2018-06-24T08:43:02Z</time>
      </trkpt>
      <trkpt lat="50.54918" lon="3.02092">
        <ele>-25</ele>
        <time>2018-06-24T08:43:06Z</time>
      </trkpt>
      <trkpt lat="50.54922" lon="3.02067">
        <ele>-24.8</ele>
        <time>2018-06-24T08:43:10Z</time>
      </trkpt>
      <trkpt lat="50.54928" lon="3.02046">
        <ele>-24.4</ele>
        <time>2018-06-24T08:43:14Z</time>
      </trkpt>
      <trkpt lat="50.54935" lon="3.02027">
        <ele>-24.8</ele>
        <time>2018-06-24T08:43:18Z</time>
      </trkpt>
      <trkpt lat="50.54944" lon="3.02006">
        <ele>-24.4</ele>
        <time>2018-06-24T08:43:22Z</time>
      </trkpt>
      <trkpt lat="50.5495" lon="3.01987">
        <ele>-24.4</ele>
        <time>2018-06-24T08:43:26Z</time>
      </trkpt>
      <trkpt lat="50.54954" lon="3.01972">
        <ele>-24.4</ele>
        <time>2018-06-24T08:43:30Z</time>
      </trkpt>
      <trkpt lat="50.54959" lon="3.01956">
        <ele>-24.2</ele>
        <time>2018-06-24T08:43:34Z</time>
      </trkpt>
      <trkpt lat="50.54962" lon="3.01937">
        <ele>-24.2</ele>
        <time>2018-06-24T08:43:38Z</time>
      </trkpt>
      <trkpt lat="50.54969" lon="3.01915">
        <ele>-23.8</ele>
        <time>2018-06-24T08:43:42Z</time>
      </trkpt>
      <trkpt lat="50.54975" lon="3.01897">
        <ele>-24.2</ele>
        <time>2018-06-24T08:43:46Z</time>
      </trkpt>
      <trkpt lat="50.5498" lon="3.0188">
        <ele>-24.4</ele>
        <time>2018-06-24T08:43:50Z</time>
      </trkpt>
      <trkpt lat="50.54983" lon="3.01863">
        <ele>-24.4</ele>
        <time>2018-06-24T08:43:54Z</time>
      </trkpt>
      <trkpt lat="50.54989" lon="3.01842">
        <ele>-24.6</ele>
        <time>2018-06-24T08:43:58Z</time>
      </trkpt>
      <trkpt lat="50.54995" lon="3.01821">
        <ele>-24.6</ele>
        <time>2018-06-24T08:44:02Z</time>
      </trkpt>
      <trkpt lat="50.54999" lon="3.01802">
        <ele>-24.6</ele>
        <time>2018-06-24T08:44:06Z</time>
      </trkpt>
      <trkpt lat="50.55006" lon="3.01781">
        <ele>-24.6</ele>
        <time>2018-06-24T08:44:10Z</time>
      </trkpt>
      <trkpt lat="50.55011" lon="3.01761">
        <ele>-24.6</ele>
        <time>2018-06-24T08:44:14Z</time>
      </trkpt>
      <trkpt lat="50.55017" lon="3.01744">
        <ele>-24.8</ele>
        <time>2018-06-24T08:44:18Z</time>
      </trkpt>
      <trkpt lat="50.55025" lon="3.01722">
        <ele>-24.4</ele>
        <time>2018-06-24T08:44:22Z</time>
      </trkpt>
      <trkpt lat="50.55031" lon="3.017">
        <ele>-24.4</ele>
        <time>2018-06-24T08:44:26Z</time>
      </trkpt>
      <trkpt lat="50.55036" lon="3.01679">
        <ele>-24.4</ele>
        <time>2018-06-24T08:44:30Z</time>
      </trkpt>
      <trkpt lat="50.55042" lon="3.01657">
        <ele>-24.6</ele>
        <time>2018-06-24T08:44:34Z</time>
      </trkpt>
      <trkpt lat="50.5505" lon="3.01636">
        <ele>-24.2</ele>
        <time>2018-06-24T08:44:38Z</time>
      </trkpt>
      <trkpt lat="50.55055" lon="3.01617">
        <ele>-24</ele>
        <time>2018-06-24T08:44:42Z</time>
      </trkpt>
      <trkpt lat="50.55062" lon="3.01598">
        <ele>-23.8</ele>
        <time>2018-06-24T08:44:46Z</time>
      </trkpt>
      <trkpt lat="50.55068" lon="3.01574">
        <ele>-24</ele>
        <time>2018-06-24T08:44:50Z</time>
      </trkpt>
      <trkpt lat="50.55074" lon="3.01552">
        <ele>-24.4</ele>
        <time>2018-06-24T08:44:54Z</time>
      </trkpt>
      <trkpt lat="50.55083" lon="3.01529">
        <ele>-24.4</ele>
        <time>2018-06-24T08:44:58Z</time>
      </trkpt>
      <trkpt lat="50.55087" lon="3.01511">
        <ele>-24.2</ele>
        <time>2018-06-24T08:45:02Z</time>
      </trkpt>
      <trkpt lat="50.55091" lon="3.01492">
        <ele>-24.4</ele>
        <time>2018-06-24T08:45:06Z</time>
      </trkpt>
      <trkpt lat="50.55098" lon="3.0147">
        <ele>-24.4</ele>
        <time>2018-06-24T08:45:10Z</time>
      </trkpt>
      <trkpt lat="50.55106" lon="3.01448">
        <ele>-24.2</ele>
        <time>2018-06-24T08:45:14Z</time>
      </trkpt>
      <trkpt lat="50.55113" lon="3.01423">
        <ele>-24.2</ele>
        <time>2018-06-24T08:45:18Z</time>
      </trkpt>
      <trkpt lat="50.55119" lon="3.01401">
        <ele>-24.2</ele>
        <time>2018-06-24T08:45:22Z</time>
      </trkpt>
      <trkpt lat="50.55123" lon="3.01383">
        <ele>-24</ele>
        <time>2018-06-24T08:45:26Z</time>
      </trkpt>
      <trkpt lat="50.55128" lon="3.01364">
        <ele>-24.4</ele>
        <time>2018-06-24T08:45:30Z</time>
      </trkpt>
      <trkpt lat="50.55133" lon="3.01344">
        <ele>-23.8</ele>
        <time>2018-06-24T08:45:34Z</time>
      </trkpt>
      <trkpt lat="50.55139" lon="3.01323">
        <ele>-24</ele>
        <time>2018-06-24T08:45:38Z</time>
      </trkpt>
      <trkpt lat="50.55147" lon="3.01301">
        <ele>-24.2</ele>
        <time>2018-06-24T08:45:42Z</time>
      </trkpt>
      <trkpt lat="50.55153" lon="3.01281">
        <ele>-23.8</ele>
        <time>2018-06-24T08:45:46Z</time>
      </trkpt>
      <trkpt lat="50.55161" lon="3.01265">
        <ele>-24.4</ele>
        <time>2018-06-24T08:45:50Z</time>
      </trkpt>
      <trkpt lat="50.55166" lon="3.01245">
        <ele>-24.2</ele>
        <time>2018-06-24T08:45:54Z</time>
      </trkpt>
      <trkpt lat="50.55171" lon="3.01229">
        <ele>-25</ele>
        <time>2018-06-24T08:45:58Z</time>
      </trkpt>
      <trkpt lat="50.55177" lon="3.01215">
        <ele>-24.6</ele>
        <time>2018-06-24T08:46:02Z</time>
      </trkpt>
      <trkpt lat="50.55181" lon="3.01202">
        <ele>-24.8</ele>
        <time>2018-06-24T08:46:06Z</time>
      </trkpt>
      <trkpt lat="50.55181" lon="3.01194">
        <ele>-24.8</ele>
        <time>2018-06-24T08:46:10Z</time>
      </trkpt>
      <trkpt lat="50.55183" lon="3.01184">
        <ele>-24.6</ele>
        <time>2018-06-24T08:46:14Z</time>
      </trkpt>
      <trkpt lat="50.55188" lon="3.01177">
        <ele>-25</ele>
        <time>2018-06-24T08:46:18Z</time>
      </trkpt>
      <trkpt lat="50.55191" lon="3.0117">
        <ele>-24.6</ele>
        <time>2018-06-24T08:46:22Z</time>
      </trkpt>
      <trkpt lat="50.55195" lon="3.01159">
        <ele>-24.4</ele>
        <time>2018-06-24T08:46:26Z</time>
      </trkpt>
      <trkpt lat="50.55199" lon="3.01147">
        <ele>-24.6</ele>
        <time>2018-06-24T08:46:30Z</time>
      </trkpt>
      <trkpt lat="50.552" lon="3.01134">
        <ele>-24.6</ele>
        <time>2018-06-24T08:46:34Z</time>
      </trkpt>
      <trkpt lat="50.55204" lon="3.01123">
        <ele>-24.6</ele>
        <time>2018-06-24T08:46:38Z</time>
      </trkpt>
      <trkpt lat="50.55209" lon="3.01109">
        <ele>-24.6</ele>
        <time>2018-06-24T08:46:42Z</time>
      </trkpt>
      <trkpt lat="50.55212" lon="3.01096">
        <ele>-25</ele>
        <time>2018-06-24T08:46:46Z</time>
      </trkpt>
      <trkpt lat="50.55217" lon="3.01079">
        <ele>-25</ele>
        <time>2018-06-24T08:46:50Z</time>
      </trkpt>
      <trkpt lat="50.55223" lon="3.01065">
        <ele>-25.6</ele>
        <time>2018-06-24T08:46:54Z</time>
      </trkpt>
      <trkpt lat="50.55231" lon="3.01046">
        <ele>-25.4</ele>
        <time>2018-06-24T08:46:58Z</time>
      </trkpt>
      <trkpt lat="50.55242" lon="3.01028">
        <ele>-25.4</ele>
        <time>2018-06-24T08:47:02Z</time>
      </trkpt>
      <trkpt lat="50.55254" lon="3.01004">
        <ele>-25</ele>
        <time>2018-06-24T08:47:06Z</time>
      </trkpt>
      <trkpt lat="50.55261" lon="3.0099">
        <ele>-25.2</ele>
        <time>2018-06-24T08:47:10Z</time>
      </trkpt>
      <trkpt lat="50.5527" lon="3.00969">
        <ele>-25.2</ele>
        <time>2018-06-24T08:47:14Z</time>
      </trkpt>
      <trkpt lat="50.55277" lon="3.00953">
        <ele>-24.8</ele>
        <time>2018-06-24T08:47:18Z</time>
      </trkpt>
      <trkpt lat="50.55284" lon="3.00936">
        <ele>-25</ele>
        <time>2018-06-24T08:47:22Z</time>
      </trkpt>
      <trkpt lat="50.55293" lon="3.00923">
        <ele>-25</ele>
        <time>2018-06-24T08:47:26Z</time>
      </trkpt>
      <trkpt lat="50.55303" lon="3.00907">
        <ele>-25.2</ele>
        <time>2018-06-24T08:47:30Z</time>
      </trkpt>
      <trkpt lat="50.5531" lon="3.00893">
        <ele>-24.8</ele>
        <time>2018-06-24T08:47:34Z</time>
      </trkpt>
      <trkpt lat="50.55319" lon="3.00871">
        <ele>-25</ele>
        <time>2018-06-24T08:47:38Z</time>
      </trkpt>
      <trkpt lat="50.55329" lon="3.00852">
        <ele>-25</ele>
        <time>2018-06-24T08:47:42Z</time>
      </trkpt>
      <trkpt lat="50.55337" lon="3.00831">
        <ele>-25.4</ele>
        <time>2018-06-24T08:47:46Z</time>
      </trkpt>
      <trkpt lat="50.55345" lon="3.00814">
        <ele>-25.4</ele>
        <time>2018-06-24T08:47:50Z</time>
      </trkpt>
      <trkpt lat="50.55354" lon="3.00798">
        <ele>-25.2</ele>
        <time>2018-06-24T08:47:54Z</time>
      </trkpt>
      <trkpt lat="50.55359" lon="3.00781">
        <ele>-25.2</ele>
        <time>2018-06-24T08:47:58Z</time>
      </trkpt>
      <trkpt lat="50.55368" lon="3.00762">
        <ele>-25.4</ele>
        <time>2018-06-24T08:48:02Z</time>
      </trkpt>
      <trkpt lat="50.55377" lon="3.00742">
        <ele>-25.2</ele>
        <time>2018-06-24T08:48:06Z</time>
      </trkpt>
      <trkpt lat="50.5539" lon="3.0072">
        <ele>-25.6</ele>
        <time>2018-06-24T08:48:10Z</time>
      </trkpt>
      <trkpt lat="50.55399" lon="3.00701">
        <ele>-25.8</ele>
        <time>2018-06-24T08:48:14Z</time>
      </trkpt>
      <trkpt lat="50.55405" lon="3.00684">
        <ele>-25.6</ele>
        <time>2018-06-24T08:48:18Z</time>
      </trkpt>
      <trkpt lat="50.55414" lon="3.00668">
        <ele>-25.8</ele>
        <time>2018-06-24T08:48:22Z</time>
      </trkpt>
      <trkpt lat="50.55424" lon="3.00647">
        <ele>-25.6</ele>
        <time>2018-06-24T08:48:26Z</time>
      </trkpt>
      <trkpt lat="50.55432" lon="3.00629">
        <ele>-25</ele>
        <time>2018-06-24T08:48:30Z</time>
      </trkpt>
      <trkpt lat="50.55441" lon="3.00612">
        <ele>-25.2</ele>
        <time>2018-06-24T08:48:34Z</time>
      </trkpt>
      <trkpt lat="50.5545" lon="3.00592">
        <ele>-25</ele>
        <time>2018-06-24T08:48:38Z</time>
      </trkpt>
      <trkpt lat="50.55458" lon="3.00574">
        <ele>-25</ele>
        <time>2018-06-24T08:48:42Z</time>
      </trkpt>
      <trkpt lat="50.55466" lon="3.00556">
        <ele>-24.8</ele>
        <time>2018-06-24T08:48:46Z</time>
      </trkpt>
      <trkpt lat="50.55475" lon="3.00536">
        <ele>-24.8</ele>
        <time>2018-06-24T08:48:50Z</time>
      </trkpt>
      <trkpt lat="50.55481" lon="3.0052">
        <ele>-25.2</ele>
        <time>2018-06-24T08:48:54Z</time>
      </trkpt>
      <trkpt lat="50.55488" lon="3.00504">
        <ele>-25.4</ele>
        <time>2018-06-24T08:48:58Z</time>
      </trkpt>
      <trkpt lat="50.55495" lon="3.00487">
        <ele>-25.4</ele>
        <time>2018-06-24T08:49:02Z</time>
      </trkpt>
      <trkpt lat="50.555" lon="3.00471">
        <ele>-25.6</ele>
        <time>2018-06-24T08:49:06Z</time>
      </trkpt>
      <trkpt lat="50.55507" lon="3.00454">
        <ele>-25.4</ele>
        <time>2018-06-24T08:49:10Z</time>
      </trkpt>
      <trkpt lat="50.55517" lon="3.00434">
        <ele>-25.4</ele>
        <time>2018-06-24T08:49:14Z</time>
      </trkpt>
      <trkpt lat="50.55527" lon="3.00412">
        <ele>-25.2</ele>
        <time>2018-06-24T08:49:18Z</time>
      </trkpt>
      <trkpt lat="50.55538" lon="3.00389">
        <ele>-25.4</ele>
        <time>2018-06-24T08:49:22Z</time>
      </trkpt>
      <trkpt lat="50.55547" lon="3.00367">
        <ele>-25.2</ele>
        <time>2018-06-24T08:49:26Z</time>
      </trkpt>
      <trkpt lat="50.55557" lon="3.00342">
        <ele>-25</ele>
        <time>2018-06-24T08:49:30Z</time>
      </trkpt>
      <trkpt lat="50.55568" lon="3.00318">
        <ele>-25.4</ele>
        <time>2018-06-24T08:49:34Z</time>
      </trkpt>
      <trkpt lat="50.55577" lon="3.00292">
        <ele>-24.4</ele>
        <time>2018-06-24T08:49:38Z</time>
      </trkpt>
      <trkpt lat="50.55592" lon="3.00265">
        <ele>-24.8</ele>
        <time>2018-06-24T08:49:42Z</time>
      </trkpt>
      <trkpt lat="50.55602" lon="3.00238">
        <ele>-25.2</ele>
        <time>2018-06-24T08:49:46Z</time>
      </trkpt>
      <trkpt lat="50.55617" lon="3.00205">
        <ele>-25</ele>
        <time>2018-06-24T08:49:50Z</time>
      </trkpt>
      <trkpt lat="50.55632" lon="3.00176">
        <ele>-25</ele>
        <time>2018-06-24T08:49:54Z</time>
      </trkpt>
      <trkpt lat="50.55642" lon="3.00151">
        <ele>-24.6</ele>
        <time>2018-06-24T08:49:58Z</time>
      </trkpt>
      <trkpt lat="50.55658" lon="3.00119">
        <ele>-24.2</ele>
        <time>2018-06-24T08:50:02Z</time>
      </trkpt>
      <trkpt lat="50.55671" lon="3.00084">
        <ele>-24</ele>
        <time>2018-06-24T08:50:06Z</time>
      </trkpt>
      <trkpt lat="50.55683" lon="3.00056">
        <ele>-24.4</ele>
        <time>2018-06-24T08:50:10Z</time>
      </trkpt>
      <trkpt lat="50.55697" lon="3.00026">
        <ele>-25.4</ele>
        <time>2018-06-24T08:50:14Z</time>
      </trkpt>
      <trkpt lat="50.55712" lon="2.99993">
        <ele>-25</ele>
        <time>2018-06-24T08:50:18Z</time>
      </trkpt>
      <trkpt lat="50.55727" lon="2.99962">
        <ele>-24.8</ele>
        <time>2018-06-24T08:50:22Z</time>
      </trkpt>
      <trkpt lat="50.5574" lon="2.99931">
        <ele>-25.4</ele>
        <time>2018-06-24T08:50:26Z</time>
      </trkpt>
      <trkpt lat="50.55752" lon="2.99906">
        <ele>-26</ele>
        <time>2018-06-24T08:50:30Z</time>
      </trkpt>
      <trkpt lat="50.55762" lon="2.99882">
        <ele>-26.4</ele>
        <time>2018-06-24T08:50:34Z</time>
      </trkpt>
      <trkpt lat="50.55776" lon="2.99855">
        <ele>-26.2</ele>
        <time>2018-06-24T08:50:38Z</time>
      </trkpt>
      <trkpt lat="50.55786" lon="2.99834">
        <ele>-26</ele>
        <time>2018-06-24T08:50:42Z</time>
      </trkpt>
      <trkpt lat="50.55795" lon="2.99815">
        <ele>-26.2</ele>
        <time>2018-06-24T08:50:46Z</time>
      </trkpt>
      <trkpt lat="50.55803" lon="2.99796">
        <ele>-26</ele>
        <time>2018-06-24T08:50:50Z</time>
      </trkpt>
      <trkpt lat="50.55808" lon="2.99777">
        <ele>-26</ele>
        <time>2018-06-24T08:50:54Z</time>
      </trkpt>
      <trkpt lat="50.55816" lon="2.9976">
        <ele>-26.8</ele>
        <time>2018-06-24T08:50:58Z</time>
      </trkpt>
      <trkpt lat="50.55824" lon="2.99743">
        <ele>-26.4</ele>
        <time>2018-06-24T08:51:02Z</time>
      </trkpt>
      <trkpt lat="50.55831" lon="2.99724">
        <ele>-26.6</ele>
        <time>2018-06-24T08:51:06Z</time>
      </trkpt>
      <trkpt lat="50.55838" lon="2.99706">
        <ele>-25.8</ele>
        <time>2018-06-24T08:51:10Z</time>
      </trkpt>
      <trkpt lat="50.55844" lon="2.99688">
        <ele>-25</ele>
        <time>2018-06-24T08:51:14Z</time>
      </trkpt>
      <trkpt lat="50.5585" lon="2.99674">
        <ele>-25.4</ele>
        <time>2018-06-24T08:51:18Z</time>
      </trkpt>
      <trkpt lat="50.55854" lon="2.99656">
        <ele>-25.4</ele>
        <time>2018-06-24T08:51:22Z</time>
      </trkpt>
      <trkpt lat="50.55859" lon="2.99642">
        <ele>-25.6</ele>
        <time>2018-06-24T08:51:26Z</time>
      </trkpt>
      <trkpt lat="50.55864" lon="2.99628">
        <ele>-26.4</ele>
        <time>2018-06-24T08:51:30Z</time>
      </trkpt>
      <trkpt lat="50.55871" lon="2.99608">
        <ele>-25.6</ele>
        <time>2018-06-24T08:51:34Z</time>
      </trkpt>
      <trkpt lat="50.55876" lon="2.99591">
        <ele>-26.6</ele>
        <time>2018-06-24T08:51:38Z</time>
      </trkpt>
      <trkpt lat="50.55883" lon="2.99576">
        <ele>-25.8</ele>
        <time>2018-06-24T08:51:42Z</time>
      </trkpt>
      <trkpt lat="50.5589" lon="2.99559">
        <ele>-26.2</ele>
        <time>2018-06-24T08:51:46Z</time>
      </trkpt>
      <trkpt lat="50.55895" lon="2.99541">
        <ele>-26.6</ele>
        <time>2018-06-24T08:51:50Z</time>
      </trkpt>
      <trkpt lat="50.55902" lon="2.99524">
        <ele>-26.2</ele>
        <time>2018-06-24T08:51:54Z</time>
      </trkpt>
      <trkpt lat="50.55905" lon="2.99507">
        <ele>-25.6</ele>
        <time>2018-06-24T08:51:58Z</time>
      </trkpt>
      <trkpt lat="50.55912" lon="2.99491">
        <ele>-26</ele>
        <time>2018-06-24T08:52:02Z</time>
      </trkpt>
      <trkpt lat="50.55919" lon="2.99473">
        <ele>-26</ele>
        <time>2018-06-24T08:52:06Z</time>
      </trkpt>
      <trkpt lat="50.55926" lon="2.99454">
        <ele>-26.4</ele>
        <time>2018-06-24T08:52:10Z</time>
      </trkpt>
      <trkpt lat="50.55931" lon="2.99435">
        <ele>-26</ele>
        <time>2018-06-24T08:52:14Z</time>
      </trkpt>
      <trkpt lat="50.55941" lon="2.99414">
        <ele>-26.4</ele>
        <time>2018-06-24T08:52:18Z</time>
      </trkpt>
      <trkpt lat="50.55945" lon="2.99394">
        <ele>-26.4</ele>
        <time>2018-06-24T08:52:22Z</time>
      </trkpt>
      <trkpt lat="50.55953" lon="2.99374">
        <ele>-25.6</ele>
        <time>2018-06-24T08:52:26Z</time>
      </trkpt>
      <trkpt lat="50.55959" lon="2.99356">
        <ele>-25.6</ele>
        <time>2018-06-24T08:52:30Z</time>
      </trkpt>
      <trkpt lat="50.55965" lon="2.99337">
        <ele>-25.2</ele>
        <time>2018-06-24T08:52:34Z</time>
      </trkpt>
      <trkpt lat="50.55972" lon="2.99319">
        <ele>-26.4</ele>
        <time>2018-06-24T08:52:38Z</time>
      </trkpt>
      <trkpt lat="50.55979" lon="2.99301">
        <ele>-25.8</ele>
        <time>2018-06-24T08:52:42Z</time>
      </trkpt>
      <trkpt lat="50.55986" lon="2.99282">
        <ele>-25.6</ele>
        <time>2018-06-24T08:52:46Z</time>
      </trkpt>
      <trkpt lat="50.55994" lon="2.99261">
        <ele>-26.2</ele>
        <time>2018-06-24T08:52:50Z</time>
      </trkpt>
      <trkpt lat="50.56004" lon="2.99237">
        <ele>-25.8</ele>
        <time>2018-06-24T08:52:54Z</time>
      </trkpt>
      <trkpt lat="50.56011" lon="2.99219">
        <ele>-27</ele>
        <time>2018-06-24T08:52:58Z</time>
      </trkpt>
      <trkpt lat="50.56018" lon="2.99202">
        <ele>-25.4</ele>
        <time>2018-06-24T08:53:02Z</time>
      </trkpt>
      <trkpt lat="50.56025" lon="2.99185">
        <ele>-26.4</ele>
        <time>2018-06-24T08:53:06Z</time>
      </trkpt>
      <trkpt lat="50.56033" lon="2.99162">
        <ele>-27</ele>
        <time>2018-06-24T08:53:10Z</time>
      </trkpt>
      <trkpt lat="50.56042" lon="2.99139">
        <ele>-26.8</ele>
        <time>2018-06-24T08:53:14Z</time>
      </trkpt>
      <trkpt lat="50.56049" lon="2.9912">
        <ele>-26</ele>
        <time>2018-06-24T08:53:18Z</time>
      </trkpt>
      <trkpt lat="50.56057" lon="2.99097">
        <ele>-27.4</ele>
        <time>2018-06-24T08:53:22Z</time>
      </trkpt>
      <trkpt lat="50.56063" lon="2.9908">
        <ele>-26.2</ele>
        <time>2018-06-24T08:53:26Z</time>
      </trkpt>
      <trkpt lat="50.56067" lon="2.99069">
        <ele>-27.4</ele>
        <time>2018-06-24T08:53:30Z</time>
      </trkpt>
      <trkpt lat="50.56071" lon="2.99059">
        <ele>-27.2</ele>
        <time>2018-06-24T08:53:34Z</time>
      </trkpt>
      <trkpt lat="50.56071" lon="2.99059">
        <ele>-27</ele>
        <time>2018-06-24T08:53:38Z</time>
      </trkpt>
      <trkpt lat="50.56071" lon="2.99059">
        <ele>-27</ele>
        <time>2018-06-24T08:53:42Z</time>
      </trkpt>
      <trkpt lat="50.56071" lon="2.99059">
        <ele>-26.8</ele>
        <time>2018-06-24T08:53:46Z</time>
      </trkpt>
      <trkpt lat="50.56071" lon="2.99059">
        <ele>-26.8</ele>
        <time>2018-06-24T08:53:50Z</time>
      </trkpt>
      <trkpt lat="50.56071" lon="2.99059">
        <ele>-26.8</ele>
        <time>2018-06-24T08:53:54Z</time>
      </trkpt>
      <trkpt lat="50.56071" lon="2.99059">
        <ele>-27</ele>
        <time>2018-06-24T08:53:58Z</time>
      </trkpt>
      <trkpt lat="50.56071" lon="2.99059">
        <ele>-27</ele>
        <time>2018-06-24T08:54:02Z</time>
      </trkpt>
      <trkpt lat="50.56071" lon="2.99059">
        <ele>-26.6</ele>
        <time>2018-06-24T08:54:06Z</time>
      </trkpt>
      <trkpt lat="50.56071" lon="2.99059">
        <ele>-27</ele>
        <time>2018-06-24T08:54:10Z</time>
      </trkpt>
      <trkpt lat="50.56071" lon="2.99059">
        <ele>-26.6</ele>
        <time>2018-06-24T08:54:14Z</time>
      </trkpt>
      <trkpt lat="50.56071" lon="2.99059">
        <ele>-26.6</ele>
        <time>2018-06-24T08:54:18Z</time>
      </trkpt>
      <trkpt lat="50.56071" lon="2.99059">
        <ele>-26.6</ele>
        <time>2018-06-24T08:54:22Z</time>
      </trkpt>
      <trkpt lat="50.56071" lon="2.99059">
        <ele>-26.8</ele>
        <time>2018-06-24T08:54:26Z</time>
      </trkpt>
      <trkpt lat="50.56071" lon="2.99059">
        <ele>-26.6</ele>
        <time>2018-06-24T08:54:30Z</time>
      </trkpt>
      <trkpt lat="50.56074" lon="2.99049">
        <ele>-27</ele>
        <time>2018-06-24T08:54:34Z</time>
      </trkpt>
      <trkpt lat="50.56077" lon="2.99042">
        <ele>-26.4</ele>
        <time>2018-06-24T08:54:38Z</time>
      </trkpt>
      <trkpt lat="50.56082" lon="2.99029">
        <ele>-26.6</ele>
        <time>2018-06-24T08:54:42Z</time>
      </trkpt>
      <trkpt lat="50.56086" lon="2.9902">
        <ele>-26</ele>
        <time>2018-06-24T08:54:46Z</time>
      </trkpt>
      <trkpt lat="50.56092" lon="2.99004">
        <ele>-26.6</ele>
        <time>2018-06-24T08:54:50Z</time>
      </trkpt>
      <trkpt lat="50.56098" lon="2.98984">
        <ele>-27</ele>
        <time>2018-06-24T08:54:54Z</time>
      </trkpt>
      <trkpt lat="50.56106" lon="2.98964">
        <ele>-26.6</ele>
        <time>2018-06-24T08:54:58Z</time>
      </trkpt>
      <trkpt lat="50.56112" lon="2.98944">
        <ele>-26.8</ele>
        <time>2018-06-24T08:55:02Z</time>
      </trkpt>
      <trkpt lat="50.56121" lon="2.98923">
        <ele>-26.8</ele>
        <time>2018-06-24T08:55:06Z</time>
      </trkpt>
      <trkpt lat="50.56129" lon="2.98901">
        <ele>-26.8</ele>
        <time>2018-06-24T08:55:10Z</time>
      </trkpt>
      <trkpt lat="50.56136" lon="2.98877">
        <ele>-26.4</ele>
        <time>2018-06-24T08:55:14Z</time>
      </trkpt>
      <trkpt lat="50.56145" lon="2.98856">
        <ele>-26</ele>
        <time>2018-06-24T08:55:18Z</time>
      </trkpt>
      <trkpt lat="50.56152" lon="2.98837">
        <ele>-26.2</ele>
        <time>2018-06-24T08:55:22Z</time>
      </trkpt>
      <trkpt lat="50.5616" lon="2.98815">
        <ele>-25.6</ele>
        <time>2018-06-24T08:55:26Z</time>
      </trkpt>
      <trkpt lat="50.56167" lon="2.98793">
        <ele>-25.4</ele>
        <time>2018-06-24T08:55:30Z</time>
      </trkpt>
      <trkpt lat="50.56179" lon="2.98767">
        <ele>-24.4</ele>
        <time>2018-06-24T08:55:34Z</time>
      </trkpt>
      <trkpt lat="50.56191" lon="2.98743">
        <ele>-25</ele>
        <time>2018-06-24T08:55:38Z</time>
      </trkpt>
      <trkpt lat="50.56201" lon="2.98721">
        <ele>-25</ele>
        <time>2018-06-24T08:55:42Z</time>
      </trkpt>
      <trkpt lat="50.56213" lon="2.98698">
        <ele>-25.4</ele>
        <time>2018-06-24T08:55:46Z</time>
      </trkpt>
      <trkpt lat="50.56223" lon="2.98679">
        <ele>-25.4</ele>
        <time>2018-06-24T08:55:50Z</time>
      </trkpt>
      <trkpt lat="50.56234" lon="2.98658">
        <ele>-25.4</ele>
        <time>2018-06-24T08:55:54Z</time>
      </trkpt>
      <trkpt lat="50.56247" lon="2.98637">
        <ele>-25.8</ele>
        <time>2018-06-24T08:55:58Z</time>
      </trkpt>
      <trkpt lat="50.56259" lon="2.98616">
        <ele>-25.2</ele>
        <time>2018-06-24T08:56:02Z</time>
      </trkpt>
      <trkpt lat="50.56271" lon="2.98592">
        <ele>-25.4</ele>
        <time>2018-06-24T08:56:06Z</time>
      </trkpt>
      <trkpt lat="50.56283" lon="2.98574">
        <ele>-25.2</ele>
        <time>2018-06-24T08:56:10Z</time>
      </trkpt>
      <trkpt lat="50.56296" lon="2.98554">
        <ele>-25.6</ele>
        <time>2018-06-24T08:56:14Z</time>
      </trkpt>
      <trkpt lat="50.56309" lon="2.98531">
        <ele>-25.2</ele>
        <time>2018-06-24T08:56:18Z</time>
      </trkpt>
      <trkpt lat="50.5632" lon="2.98512">
        <ele>-25.8</ele>
        <time>2018-06-24T08:56:22Z</time>
      </trkpt>
      <trkpt lat="50.56334" lon="2.98493">
        <ele>-25.4</ele>
        <time>2018-06-24T08:56:26Z</time>
      </trkpt>
      <trkpt lat="50.56349" lon="2.98474">
        <ele>-25.4</ele>
        <time>2018-06-24T08:56:30Z</time>
      </trkpt>
      <trkpt lat="50.56362" lon="2.98455">
        <ele>-25.2</ele>
        <time>2018-06-24T08:56:34Z</time>
      </trkpt>
      <trkpt lat="50.56375" lon="2.98439">
        <ele>-25.4</ele>
        <time>2018-06-24T08:56:38Z</time>
      </trkpt>
      <trkpt lat="50.56385" lon="2.98423">
        <ele>-26.4</ele>
        <time>2018-06-24T08:56:42Z</time>
      </trkpt>
      <trkpt lat="50.56396" lon="2.98409">
        <ele>-26.6</ele>
        <time>2018-06-24T08:56:46Z</time>
      </trkpt>
      <trkpt lat="50.56407" lon="2.98392">
        <ele>-26</ele>
        <time>2018-06-24T08:56:50Z</time>
      </trkpt>
      <trkpt lat="50.56419" lon="2.98375">
        <ele>-25.2</ele>
        <time>2018-06-24T08:56:54Z</time>
      </trkpt>
      <trkpt lat="50.56432" lon="2.98357">
        <ele>-26</ele>
        <time>2018-06-24T08:56:58Z</time>
      </trkpt>
      <trkpt lat="50.56448" lon="2.98337">
        <ele>-26.2</ele>
        <time>2018-06-24T08:57:02Z</time>
      </trkpt>
      <trkpt lat="50.56458" lon="2.98324">
        <ele>-25.8</ele>
        <time>2018-06-24T08:57:06Z</time>
      </trkpt>
      <trkpt lat="50.56468" lon="2.98312">
        <ele>-26</ele>
        <time>2018-06-24T08:57:10Z</time>
      </trkpt>
      <trkpt lat="50.56476" lon="2.98298">
        <ele>-26</ele>
        <time>2018-06-24T08:57:14Z</time>
      </trkpt>
      <trkpt lat="50.56485" lon="2.98284">
        <ele>-26.2</ele>
        <time>2018-06-24T08:57:18Z</time>
      </trkpt>
      <trkpt lat="50.56496" lon="2.98269">
        <ele>-26.2</ele>
        <time>2018-06-24T08:57:22Z</time>
      </trkpt>
      <trkpt lat="50.56507" lon="2.98252">
        <ele>-25.4</ele>
        <time>2018-06-24T08:57:26Z</time>
      </trkpt>
      <trkpt lat="50.5652" lon="2.98231">
        <ele>-25.4</ele>
        <time>2018-06-24T08:57:30Z</time>
      </trkpt>
      <trkpt lat="50.56535" lon="2.98208">
        <ele>-26.8</ele>
        <time>2018-06-24T08:57:34Z</time>
      </trkpt>
      <trkpt lat="50.5655" lon="2.98182">
        <ele>-26.2</ele>
        <time>2018-06-24T08:57:38Z</time>
      </trkpt>
      <trkpt lat="50.56563" lon="2.98159">
        <ele>-24</ele>
        <time>2018-06-24T08:57:42Z</time>
      </trkpt>
      <trkpt lat="50.56579" lon="2.9813">
        <ele>-25.6</ele>
        <time>2018-06-24T08:57:46Z</time>
      </trkpt>
      <trkpt lat="50.56594" lon="2.98104">
        <ele>-25.6</ele>
        <time>2018-06-24T08:57:50Z</time>
      </trkpt>
      <trkpt lat="50.56608" lon="2.98071">
        <ele>-25.4</ele>
        <time>2018-06-24T08:57:54Z</time>
      </trkpt>
      <trkpt lat="50.56619" lon="2.98045">
        <ele>-26.2</ele>
        <time>2018-06-24T08:57:58Z</time>
      </trkpt>
      <trkpt lat="50.56629" lon="2.98022">
        <ele>-26.4</ele>
        <time>2018-06-24T08:58:02Z</time>
      </trkpt>
      <trkpt lat="50.56638" lon="2.98005">
        <ele>-26.4</ele>
        <time>2018-06-24T08:58:06Z</time>
      </trkpt>
      <trkpt lat="50.5665" lon="2.97982">
        <ele>-25.6</ele>
        <time>2018-06-24T08:58:10Z</time>
      </trkpt>
      <trkpt lat="50.56662" lon="2.97959">
        <ele>-25.4</ele>
        <time>2018-06-24T08:58:14Z</time>
      </trkpt>
      <trkpt lat="50.56673" lon="2.97928">
        <ele>-25.4</ele>
        <time>2018-06-24T08:58:18Z</time>
      </trkpt>
      <trkpt lat="50.56688" lon="2.97899">
        <ele>-25.2</ele>
        <time>2018-06-24T08:58:22Z</time>
      </trkpt>
      <trkpt lat="50.5671" lon="2.97858">
        <ele>-25.2</ele>
        <time>2018-06-24T08:58:26Z</time>
      </trkpt>
      <trkpt lat="50.56731" lon="2.97819">
        <ele>-25.6</ele>
        <time>2018-06-24T08:58:30Z</time>
      </trkpt>
      <trkpt lat="50.5675" lon="2.97784">
        <ele>-25.6</ele>
        <time>2018-06-24T08:58:34Z</time>
      </trkpt>
      <trkpt lat="50.56766" lon="2.97753">
        <ele>-25.4</ele>
        <time>2018-06-24T08:58:38Z</time>
      </trkpt>
      <trkpt lat="50.56781" lon="2.97725">
        <ele>-25.4</ele>
        <time>2018-06-24T08:58:42Z</time>
      </trkpt>
      <trkpt lat="50.56795" lon="2.97702">
        <ele>-24.8</ele>
        <time>2018-06-24T08:58:46Z</time>
      </trkpt>
      <trkpt lat="50.56808" lon="2.97679">
        <ele>-25.6</ele>
        <time>2018-06-24T08:58:50Z</time>
      </trkpt>
      <trkpt lat="50.5682" lon="2.9766">
        <ele>-26.4</ele>
        <time>2018-06-24T08:58:54Z</time>
      </trkpt>
      <trkpt lat="50.56831" lon="2.97642">
        <ele>-25.6</ele>
        <time>2018-06-24T08:58:58Z</time>
      </trkpt>
      <trkpt lat="50.56845" lon="2.97621">
        <ele>-26</ele>
        <time>2018-06-24T08:59:02Z</time>
      </trkpt>
      <trkpt lat="50.56858" lon="2.97602">
        <ele>-25.8</ele>
        <time>2018-06-24T08:59:06Z</time>
      </trkpt>
      <trkpt lat="50.56874" lon="2.97579">
        <ele>-25.8</ele>
        <time>2018-06-24T08:59:10Z</time>
      </trkpt>
      <trkpt lat="50.56887" lon="2.97559">
        <ele>-26</ele>
        <time>2018-06-24T08:59:14Z</time>
      </trkpt>
      <trkpt lat="50.56901" lon="2.97539">
        <ele>-26.4</ele>
        <time>2018-06-24T08:59:18Z</time>
      </trkpt>
      <trkpt lat="50.56916" lon="2.97517">
        <ele>-26</ele>
        <time>2018-06-24T08:59:22Z</time>
      </trkpt>
      <trkpt lat="50.56925" lon="2.97501">
        <ele>-25.4</ele>
        <time>2018-06-24T08:59:26Z</time>
      </trkpt>
      <trkpt lat="50.56926" lon="2.97497">
        <ele>-25.6</ele>
        <time>2018-06-24T08:59:30Z</time>
      </trkpt>
      <trkpt lat="50.56926" lon="2.97497">
        <ele>-26</ele>
        <time>2018-06-24T08:59:34Z</time>
      </trkpt>
      <trkpt lat="50.56926" lon="2.97497">
        <ele>-26.2</ele>
        <time>2018-06-24T08:59:38Z</time>
      </trkpt>
      <trkpt lat="50.56926" lon="2.97497">
        <ele>-25.8</ele>
        <time>2018-06-24T08:59:42Z</time>
      </trkpt>
      <trkpt lat="50.56926" lon="2.97497">
        <ele>-26</ele>
        <time>2018-06-24T08:59:46Z</time>
      </trkpt>
      <trkpt lat="50.56926" lon="2.97497">
        <ele>-25.6</ele>
        <time>2018-06-24T08:59:50Z</time>
      </trkpt>
      <trkpt lat="50.56926" lon="2.97497">
        <ele>-25.6</ele>
        <time>2018-06-24T08:59:54Z</time>
      </trkpt>
      <trkpt lat="50.56926" lon="2.97497">
        <ele>-26</ele>
        <time>2018-06-24T08:59:58Z</time>
      </trkpt>
      <trkpt lat="50.56926" lon="2.97497">
        <ele>-25.4</ele>
        <time>2018-06-24T09:00:02Z</time>
      </trkpt>
      <trkpt lat="50.56926" lon="2.97497">
        <ele>-25.6</ele>
        <time>2018-06-24T09:00:06Z</time>
      </trkpt>
      <trkpt lat="50.56926" lon="2.97497">
        <ele>-25.6</ele>
        <time>2018-06-24T09:00:10Z</time>
      </trkpt>
      <trkpt lat="50.56926" lon="2.97497">
        <ele>-25.6</ele>
        <time>2018-06-24T09:00:14Z</time>
      </trkpt>
      <trkpt lat="50.56926" lon="2.97497">
        <ele>-25.4</ele>
        <time>2018-06-24T09:00:18Z</time>
      </trkpt>
      <trkpt lat="50.56926" lon="2.97497">
        <ele>-25.4</ele>
        <time>2018-06-24T09:00:22Z</time>
      </trkpt>
      <trkpt lat="50.56926" lon="2.97497">
        <ele>-25.4</ele>
        <time>2018-06-24T09:00:26Z</time>
      </trkpt>
      <trkpt lat="50.56926" lon="2.97497">
        <ele>-25.4</ele>
        <time>2018-06-24T09:00:30Z</time>
      </trkpt>
      <trkpt lat="50.56926" lon="2.97497">
        <ele>-25.4</ele>
        <time>2018-06-24T09:00:34Z</time>
      </trkpt>
      <trkpt lat="50.56926" lon="2.97497">
        <ele>-25.6</ele>
        <time>2018-06-24T09:00:38Z</time>
      </trkpt>
      <trkpt lat="50.56926" lon="2.97497">
        <ele>-25.6</ele>
        <time>2018-06-24T09:00:42Z</time>
      </trkpt>
      <trkpt lat="50.56928" lon="2.97498">
        <ele>-25.4</ele>
        <time>2018-06-24T09:00:46Z</time>
      </trkpt>
      <trkpt lat="50.5693" lon="2.97497">
        <ele>-25.4</ele>
        <time>2018-06-24T09:00:50Z</time>
      </trkpt>
      <trkpt lat="50.56937" lon="2.97488">
        <ele>-25.8</ele>
        <time>2018-06-24T09:00:54Z</time>
      </trkpt>
      <trkpt lat="50.56947" lon="2.97474">
        <ele>-25.6</ele>
        <time>2018-06-24T09:00:58Z</time>
      </trkpt>
      <trkpt lat="50.56957" lon="2.97459">
        <ele>-25.8</ele>
        <time>2018-06-24T09:01:02Z</time>
      </trkpt>
      <trkpt lat="50.56967" lon="2.97442">
        <ele>-25.4</ele>
        <time>2018-06-24T09:01:06Z</time>
      </trkpt>
      <trkpt lat="50.56979" lon="2.97423">
        <ele>-25.8</ele>
        <time>2018-06-24T09:01:10Z</time>
      </trkpt>
      <trkpt lat="50.5699" lon="2.97407">
        <ele>-25.2</ele>
        <time>2018-06-24T09:01:14Z</time>
      </trkpt>
      <trkpt lat="50.57" lon="2.97391">
        <ele>-25.6</ele>
        <time>2018-06-24T09:01:18Z</time>
      </trkpt>
      <trkpt lat="50.57013" lon="2.97372">
        <ele>-25.6</ele>
        <time>2018-06-24T09:01:22Z</time>
      </trkpt>
      <trkpt lat="50.57025" lon="2.97354">
        <ele>-25.2</ele>
        <time>2018-06-24T09:01:26Z</time>
      </trkpt>
      <trkpt lat="50.57035" lon="2.97338">
        <ele>-25</ele>
        <time>2018-06-24T09:01:30Z</time>
      </trkpt>
      <trkpt lat="50.57046" lon="2.97321">
        <ele>-25.2</ele>
        <time>2018-06-24T09:01:34Z</time>
      </trkpt>
      <trkpt lat="50.57059" lon="2.973">
        <ele>-25.2</ele>
        <time>2018-06-24T09:01:38Z</time>
      </trkpt>
      <trkpt lat="50.57073" lon="2.97276">
        <ele>-25.4</ele>
        <time>2018-06-24T09:01:42Z</time>
      </trkpt>
      <trkpt lat="50.57089" lon="2.97252">
        <ele>-25</ele>
        <time>2018-06-24T09:01:46Z</time>
      </trkpt>
      <trkpt lat="50.57108" lon="2.97225">
        <ele>-25.2</ele>
        <time>2018-06-24T09:01:50Z</time>
      </trkpt>
      <trkpt lat="50.57124" lon="2.97194">
        <ele>-25.2</ele>
        <time>2018-06-24T09:01:54Z</time>
      </trkpt>
      <trkpt lat="50.57141" lon="2.97167">
        <ele>-25.2</ele>
        <time>2018-06-24T09:01:58Z</time>
      </trkpt>
      <trkpt lat="50.57152" lon="2.97136">
        <ele>-24.6</ele>
        <time>2018-06-24T09:02:02Z</time>
      </trkpt>
      <trkpt lat="50.57156" lon="2.97118">
        <ele>-24</ele>
        <time>2018-06-24T09:02:06Z</time>
      </trkpt>
      <trkpt lat="50.57162" lon="2.97101">
        <ele>-24.4</ele>
        <time>2018-06-24T09:02:10Z</time>
      </trkpt>
      <trkpt lat="50.57161" lon="2.97073">
        <ele>-25.4</ele>
        <time>2018-06-24T09:02:14Z</time>
      </trkpt>
      <trkpt lat="50.57151" lon="2.97049">
        <ele>-25.2</ele>
        <time>2018-06-24T09:02:18Z</time>
      </trkpt>
      <trkpt lat="50.57141" lon="2.97027">
        <ele>-26</ele>
        <time>2018-06-24T09:02:22Z</time>
      </trkpt>
      <trkpt lat="50.57132" lon="2.97005">
        <ele>-26.2</ele>
        <time>2018-06-24T09:02:26Z</time>
      </trkpt>
      <trkpt lat="50.5712" lon="2.96983">
        <ele>-26.6</ele>
        <time>2018-06-24T09:02:30Z</time>
      </trkpt>
      <trkpt lat="50.5711" lon="2.96963">
        <ele>-26.6</ele>
        <time>2018-06-24T09:02:34Z</time>
      </trkpt>
      <trkpt lat="50.571" lon="2.96942">
        <ele>-26</ele>
        <time>2018-06-24T09:02:38Z</time>
      </trkpt>
      <trkpt lat="50.57089" lon="2.96922">
        <ele>-26.2</ele>
        <time>2018-06-24T09:02:42Z</time>
      </trkpt>
      <trkpt lat="50.57079" lon="2.96903">
        <ele>-25.4</ele>
        <time>2018-06-24T09:02:46Z</time>
      </trkpt>
      <trkpt lat="50.5707" lon="2.96885">
        <ele>-25.4</ele>
        <time>2018-06-24T09:02:50Z</time>
      </trkpt>
      <trkpt lat="50.5706" lon="2.96867">
        <ele>-24.6</ele>
        <time>2018-06-24T09:02:54Z</time>
      </trkpt>
      <trkpt lat="50.57053" lon="2.96851">
        <ele>-25.4</ele>
        <time>2018-06-24T09:02:58Z</time>
      </trkpt>
      <trkpt lat="50.57049" lon="2.96843">
        <ele>-25.4</ele>
        <time>2018-06-24T09:03:02Z</time>
      </trkpt>
      <trkpt lat="50.57049" lon="2.96843">
        <ele>-25.8</ele>
        <time>2018-06-24T09:03:06Z</time>
      </trkpt>
      <trkpt lat="50.57047" lon="2.9684">
        <ele>-25.6</ele>
        <time>2018-06-24T09:03:10Z</time>
      </trkpt>
      <trkpt lat="50.57045" lon="2.96839">
        <ele>-25.6</ele>
        <time>2018-06-24T09:03:14Z</time>
      </trkpt>
      <trkpt lat="50.57043" lon="2.96837">
        <ele>-25.4</ele>
        <time>2018-06-24T09:03:18Z</time>
      </trkpt>
      <trkpt lat="50.5704" lon="2.96829">
        <ele>-25.8</ele>
        <time>2018-06-24T09:03:22Z</time>
      </trkpt>
      <trkpt lat="50.57032" lon="2.96814">
        <ele>-25.6</ele>
        <time>2018-06-24T09:03:26Z</time>
      </trkpt>
      <trkpt lat="50.57021" lon="2.96795">
        <ele>-25.4</ele>
        <time>2018-06-24T09:03:30Z</time>
      </trkpt>
      <trkpt lat="50.57008" lon="2.96776">
        <ele>-24.2</ele>
        <time>2018-06-24T09:03:34Z</time>
      </trkpt>
      <trkpt lat="50.56997" lon="2.9676">
        <ele>-25</ele>
        <time>2018-06-24T09:03:38Z</time>
      </trkpt>
      <trkpt lat="50.56988" lon="2.96746">
        <ele>-25.4</ele>
        <time>2018-06-24T09:03:42Z</time>
      </trkpt>
      <trkpt lat="50.56979" lon="2.96739">
        <ele>-25.6</ele>
        <time>2018-06-24T09:03:46Z</time>
      </trkpt>
      <trkpt lat="50.56972" lon="2.96744">
        <ele>-25.6</ele>
        <time>2018-06-24T09:03:50Z</time>
      </trkpt>
      <trkpt lat="50.5697" lon="2.96761">
        <ele>-25.8</ele>
        <time>2018-06-24T09:03:54Z</time>
      </trkpt>
      <trkpt lat="50.56968" lon="2.96781">
        <ele>-26.4</ele>
        <time>2018-06-24T09:03:58Z</time>
      </trkpt>
      <trkpt lat="50.56966" lon="2.96803">
        <ele>-26.2</ele>
        <time>2018-06-24T09:04:02Z</time>
      </trkpt>
      <trkpt lat="50.56964" lon="2.96824">
        <ele>-25.6</ele>
        <time>2018-06-24T09:04:06Z</time>
      </trkpt>
      <trkpt lat="50.56962" lon="2.96844">
        <ele>-25.4</ele>
        <time>2018-06-24T09:04:10Z</time>
      </trkpt>
      <trkpt lat="50.5696" lon="2.96867">
        <ele>-25</ele>
        <time>2018-06-24T09:04:14Z</time>
      </trkpt>
      <trkpt lat="50.5696" lon="2.96889">
        <ele>-25.4</ele>
        <time>2018-06-24T09:04:18Z</time>
      </trkpt>
      <trkpt lat="50.56952" lon="2.96895">
        <ele>-25</ele>
        <time>2018-06-24T09:04:22Z</time>
      </trkpt>
      <trkpt lat="50.56947" lon="2.96878">
        <ele>-24.6</ele>
        <time>2018-06-24T09:04:26Z</time>
      </trkpt>
      <trkpt lat="50.56941" lon="2.96858">
        <ele>-24.2</ele>
        <time>2018-06-24T09:04:30Z</time>
      </trkpt>
      <trkpt lat="50.56935" lon="2.96836">
        <ele>-23.8</ele>
        <time>2018-06-24T09:04:34Z</time>
      </trkpt>
      <trkpt lat="50.56929" lon="2.96815">
        <ele>-23.8</ele>
        <time>2018-06-24T09:04:38Z</time>
      </trkpt>
      <trkpt lat="50.56924" lon="2.96792">
        <ele>-22.4</ele>
        <time>2018-06-24T09:04:42Z</time>
      </trkpt>
      <trkpt lat="50.56918" lon="2.9677">
        <ele>-22.8</ele>
        <time>2018-06-24T09:04:46Z</time>
      </trkpt>
      <trkpt lat="50.56914" lon="2.96746">
        <ele>-22.6</ele>
        <time>2018-06-24T09:04:50Z</time>
      </trkpt>
      <trkpt lat="50.56915" lon="2.96723">
        <ele>-21.8</ele>
        <time>2018-06-24T09:04:54Z</time>
      </trkpt>
      <trkpt lat="50.56918" lon="2.96699">
        <ele>-21.2</ele>
        <time>2018-06-24T09:04:58Z</time>
      </trkpt>
      <trkpt lat="50.56924" lon="2.96678">
        <ele>-20.8</ele>
        <time>2018-06-24T09:05:02Z</time>
      </trkpt>
      <trkpt lat="50.56929" lon="2.96656">
        <ele>-20</ele>
        <time>2018-06-24T09:05:06Z</time>
      </trkpt>
      <trkpt lat="50.56935" lon="2.96635">
        <ele>-20</ele>
        <time>2018-06-24T09:05:10Z</time>
      </trkpt>
      <trkpt lat="50.56941" lon="2.96613">
        <ele>-19.8</ele>
        <time>2018-06-24T09:05:14Z</time>
      </trkpt>
      <trkpt lat="50.56947" lon="2.9659">
        <ele>-20.6</ele>
        <time>2018-06-24T09:05:18Z</time>
      </trkpt>
      <trkpt lat="50.56953" lon="2.96569">
        <ele>-20.2</ele>
        <time>2018-06-24T09:05:22Z</time>
      </trkpt>
      <trkpt lat="50.56959" lon="2.96547">
        <ele>-20.2</ele>
        <time>2018-06-24T09:05:26Z</time>
      </trkpt>
      <trkpt lat="50.56965" lon="2.96524">
        <ele>-20</ele>
        <time>2018-06-24T09:05:30Z</time>
      </trkpt>
      <trkpt lat="50.56973" lon="2.96496">
        <ele>-20.8</ele>
        <time>2018-06-24T09:05:34Z</time>
      </trkpt>
      <trkpt lat="50.56981" lon="2.96466">
        <ele>-21.8</ele>
        <time>2018-06-24T09:05:38Z</time>
      </trkpt>
      <trkpt lat="50.56989" lon="2.96434">
        <ele>-22.2</ele>
        <time>2018-06-24T09:05:42Z</time>
      </trkpt>
      <trkpt lat="50.56998" lon="2.96414">
        <ele>-23.2</ele>
        <time>2018-06-24T09:05:46Z</time>
      </trkpt>
      <trkpt lat="50.56998" lon="2.96431">
        <ele>-24.6</ele>
        <time>2018-06-24T09:05:50Z</time>
      </trkpt>
      <trkpt lat="50.56997" lon="2.96454">
        <ele>-24.8</ele>
        <time>2018-06-24T09:05:54Z</time>
      </trkpt>
      <trkpt lat="50.56995" lon="2.96479">
        <ele>-25</ele>
        <time>2018-06-24T09:05:58Z</time>
      </trkpt>
      <trkpt lat="50.56995" lon="2.96506">
        <ele>-25.2</ele>
        <time>2018-06-24T09:06:02Z</time>
      </trkpt>
      <trkpt lat="50.56995" lon="2.9653">
        <ele>-25.2</ele>
        <time>2018-06-24T09:06:06Z</time>
      </trkpt>
      <trkpt lat="50.56992" lon="2.96552">
        <ele>-25</ele>
        <time>2018-06-24T09:06:10Z</time>
      </trkpt>
      <trkpt lat="50.5699" lon="2.96573">
        <ele>-25.4</ele>
        <time>2018-06-24T09:06:14Z</time>
      </trkpt>
      <trkpt lat="50.56989" lon="2.96594">
        <ele>-25.4</ele>
        <time>2018-06-24T09:06:18Z</time>
      </trkpt>
      <trkpt lat="50.56988" lon="2.96616">
        <ele>-25.4</ele>
        <time>2018-06-24T09:06:22Z</time>
      </trkpt>
      <trkpt lat="50.5698" lon="2.9663">
        <ele>-26</ele>
        <time>2018-06-24T09:06:26Z</time>
      </trkpt>
      <trkpt lat="50.56969" lon="2.96618">
        <ele>-25.4</ele>
        <time>2018-06-24T09:06:30Z</time>
      </trkpt>
      <trkpt lat="50.56959" lon="2.96605">
        <ele>-25.4</ele>
        <time>2018-06-24T09:06:34Z</time>
      </trkpt>
      <trkpt lat="50.56948" lon="2.96591">
        <ele>-25.4</ele>
        <time>2018-06-24T09:06:38Z</time>
      </trkpt>
      <trkpt lat="50.56937" lon="2.96576">
        <ele>-25.2</ele>
        <time>2018-06-24T09:06:42Z</time>
      </trkpt>
      <trkpt lat="50.56925" lon="2.96558">
        <ele>-24.8</ele>
        <time>2018-06-24T09:06:46Z</time>
      </trkpt>
      <trkpt lat="50.56912" lon="2.9654">
        <ele>-24.8</ele>
        <time>2018-06-24T09:06:50Z</time>
      </trkpt>
      <trkpt lat="50.56898" lon="2.96522">
        <ele>-24.6</ele>
        <time>2018-06-24T09:06:54Z</time>
      </trkpt>
      <trkpt lat="50.56884" lon="2.96502">
        <ele>-24.2</ele>
        <time>2018-06-24T09:06:58Z</time>
      </trkpt>
      <trkpt lat="50.56869" lon="2.96481">
        <ele>-25</ele>
        <time>2018-06-24T09:07:02Z</time>
      </trkpt>
      <trkpt lat="50.56854" lon="2.96458">
        <ele>-24.6</ele>
        <time>2018-06-24T09:07:06Z</time>
      </trkpt>
      <trkpt lat="50.56838" lon="2.96434">
        <ele>-25.4</ele>
        <time>2018-06-24T09:07:10Z</time>
      </trkpt>
      <trkpt lat="50.56822" lon="2.9641">
        <ele>-24.6</ele>
        <time>2018-06-24T09:07:14Z</time>
      </trkpt>
      <trkpt lat="50.56807" lon="2.96384">
        <ele>-24.8</ele>
        <time>2018-06-24T09:07:18Z</time>
      </trkpt>
      <trkpt lat="50.56791" lon="2.96358">
        <ele>-24.4</ele>
        <time>2018-06-24T09:07:22Z</time>
      </trkpt>
      <trkpt lat="50.56775" lon="2.96334">
        <ele>-24.6</ele>
        <time>2018-06-24T09:07:26Z</time>
      </trkpt>
      <trkpt lat="50.56758" lon="2.96309">
        <ele>-24.8</ele>
        <time>2018-06-24T09:07:30Z</time>
      </trkpt>
      <trkpt lat="50.56743" lon="2.96283">
        <ele>-25</ele>
        <time>2018-06-24T09:07:34Z</time>
      </trkpt>
      <trkpt lat="50.56728" lon="2.96259">
        <ele>-25.6</ele>
        <time>2018-06-24T09:07:38Z</time>
      </trkpt>
      <trkpt lat="50.56715" lon="2.96236">
        <ele>-25.4</ele>
        <time>2018-06-24T09:07:42Z</time>
      </trkpt>
      <trkpt lat="50.56706" lon="2.96216">
        <ele>-25.6</ele>
        <time>2018-06-24T09:07:46Z</time>
      </trkpt>
      <trkpt lat="50.56695" lon="2.962">
        <ele>-25.6</ele>
        <time>2018-06-24T09:07:50Z</time>
      </trkpt>
      <trkpt lat="50.56684" lon="2.96181">
        <ele>-25.6</ele>
        <time>2018-06-24T09:07:54Z</time>
      </trkpt>
      <trkpt lat="50.56671" lon="2.9616">
        <ele>-26</ele>
        <time>2018-06-24T09:07:58Z</time>
      </trkpt>
      <trkpt lat="50.56657" lon="2.96136">
        <ele>-25.2</ele>
        <time>2018-06-24T09:08:02Z</time>
      </trkpt>
      <trkpt lat="50.56643" lon="2.96112">
        <ele>-25.2</ele>
        <time>2018-06-24T09:08:06Z</time>
      </trkpt>
      <trkpt lat="50.56628" lon="2.96088">
        <ele>-25.6</ele>
        <time>2018-06-24T09:08:10Z</time>
      </trkpt>
      <trkpt lat="50.56613" lon="2.96064">
        <ele>-26</ele>
        <time>2018-06-24T09:08:14Z</time>
      </trkpt>
      <trkpt lat="50.56598" lon="2.96039">
        <ele>-25.2</ele>
        <time>2018-06-24T09:08:18Z</time>
      </trkpt>
      <trkpt lat="50.56582" lon="2.96014">
        <ele>-25.2</ele>
        <time>2018-06-24T09:08:22Z</time>
      </trkpt>
      <trkpt lat="50.56566" lon="2.95988">
        <ele>-25.4</ele>
        <time>2018-06-24T09:08:26Z</time>
      </trkpt>
      <trkpt lat="50.5655" lon="2.95962">
        <ele>-25.4</ele>
        <time>2018-06-24T09:08:30Z</time>
      </trkpt>
      <trkpt lat="50.56534" lon="2.95935">
        <ele>-25.8</ele>
        <time>2018-06-24T09:08:34Z</time>
      </trkpt>
      <trkpt lat="50.56518" lon="2.95907">
        <ele>-25.8</ele>
        <time>2018-06-24T09:08:38Z</time>
      </trkpt>
      <trkpt lat="50.56502" lon="2.9588">
        <ele>-26</ele>
        <time>2018-06-24T09:08:42Z</time>
      </trkpt>
      <trkpt lat="50.56486" lon="2.95853">
        <ele>-25.8</ele>
        <time>2018-06-24T09:08:46Z</time>
      </trkpt>
      <trkpt lat="50.5647" lon="2.95826">
        <ele>-26.4</ele>
        <time>2018-06-24T09:08:50Z</time>
      </trkpt>
      <trkpt lat="50.56455" lon="2.95799">
        <ele>-25.6</ele>
        <time>2018-06-24T09:08:54Z</time>
      </trkpt>
      <trkpt lat="50.56439" lon="2.95772">
        <ele>-26</ele>
        <time>2018-06-24T09:08:58Z</time>
      </trkpt>
      <trkpt lat="50.56424" lon="2.95745">
        <ele>-26</ele>
        <time>2018-06-24T09:09:02Z</time>
      </trkpt>
      <trkpt lat="50.56409" lon="2.95719">
        <ele>-25.4</ele>
        <time>2018-06-24T09:09:06Z</time>
      </trkpt>
      <trkpt lat="50.5639" lon="2.957">
        <ele>-25.2</ele>
        <time>2018-06-24T09:09:10Z</time>
      </trkpt>
      <trkpt lat="50.56369" lon="2.95686">
        <ele>-25.8</ele>
        <time>2018-06-24T09:09:14Z</time>
      </trkpt>
      <trkpt lat="50.56348" lon="2.95674">
        <ele>-25.4</ele>
        <time>2018-06-24T09:09:18Z</time>
      </trkpt>
      <trkpt lat="50.56328" lon="2.95657">
        <ele>-24.8</ele>
        <time>2018-06-24T09:09:22Z</time>
      </trkpt>
      <trkpt lat="50.56311" lon="2.95638">
        <ele>-24.6</ele>
        <time>2018-06-24T09:09:26Z</time>
      </trkpt>
      <trkpt lat="50.56294" lon="2.9562">
        <ele>-24.2</ele>
        <time>2018-06-24T09:09:30Z</time>
      </trkpt>
      <trkpt lat="50.56277" lon="2.95603">
        <ele>-24.6</ele>
        <time>2018-06-24T09:09:34Z</time>
      </trkpt>
      <trkpt lat="50.56259" lon="2.95584">
        <ele>-24.2</ele>
        <time>2018-06-24T09:09:38Z</time>
      </trkpt>
      <trkpt lat="50.56241" lon="2.95567">
        <ele>-24.6</ele>
        <time>2018-06-24T09:09:42Z</time>
      </trkpt>
      <trkpt lat="50.56222" lon="2.95549">
        <ele>-24.4</ele>
        <time>2018-06-24T09:09:46Z</time>
      </trkpt>
      <trkpt lat="50.56202" lon="2.95531">
        <ele>-24.6</ele>
        <time>2018-06-24T09:09:50Z</time>
      </trkpt>
      <trkpt lat="50.56189" lon="2.95506">
        <ele>-24.6</ele>
        <time>2018-06-24T09:09:54Z</time>
      </trkpt>
      <trkpt lat="50.5618" lon="2.95474">
        <ele>-24.6</ele>
        <time>2018-06-24T09:09:58Z</time>
      </trkpt>
      <trkpt lat="50.56162" lon="2.95456">
        <ele>-24.4</ele>
        <time>2018-06-24T09:10:02Z</time>
      </trkpt>
      <trkpt lat="50.56143" lon="2.95446">
        <ele>-24.2</ele>
        <time>2018-06-24T09:10:06Z</time>
      </trkpt>
      <trkpt lat="50.56127" lon="2.95439">
        <ele>-25</ele>
        <time>2018-06-24T09:10:10Z</time>
      </trkpt>
      <trkpt lat="50.5611" lon="2.95429">
        <ele>-24.6</ele>
        <time>2018-06-24T09:10:14Z</time>
      </trkpt>
      <trkpt lat="50.5609" lon="2.95419">
        <ele>-24.6</ele>
        <time>2018-06-24T09:10:18Z</time>
      </trkpt>
      <trkpt lat="50.5607" lon="2.95406">
        <ele>-25.4</ele>
        <time>2018-06-24T09:10:22Z</time>
      </trkpt>
      <trkpt lat="50.5605" lon="2.95388">
        <ele>-25.2</ele>
        <time>2018-06-24T09:10:26Z</time>
      </trkpt>
      <trkpt lat="50.56031" lon="2.9537">
        <ele>-25</ele>
        <time>2018-06-24T09:10:30Z</time>
      </trkpt>
      <trkpt lat="50.56013" lon="2.95351">
        <ele>-25</ele>
        <time>2018-06-24T09:10:34Z</time>
      </trkpt>
      <trkpt lat="50.55995" lon="2.95332">
        <ele>-25.4</ele>
        <time>2018-06-24T09:10:38Z</time>
      </trkpt>
      <trkpt lat="50.55977" lon="2.95312">
        <ele>-25</ele>
        <time>2018-06-24T09:10:42Z</time>
      </trkpt>
      <trkpt lat="50.55959" lon="2.95292">
        <ele>-25.4</ele>
        <time>2018-06-24T09:10:46Z</time>
      </trkpt>
      <trkpt lat="50.55942" lon="2.95269">
        <ele>-25.4</ele>
        <time>2018-06-24T09:10:50Z</time>
      </trkpt>
      <trkpt lat="50.55924" lon="2.95247">
        <ele>-25.4</ele>
        <time>2018-06-24T09:10:54Z</time>
      </trkpt>
      <trkpt lat="50.55907" lon="2.95225">
        <ele>-25.2</ele>
        <time>2018-06-24T09:10:58Z</time>
      </trkpt>
      <trkpt lat="50.5589" lon="2.95202">
        <ele>-25</ele>
        <time>2018-06-24T09:11:02Z</time>
      </trkpt>
      <trkpt lat="50.55874" lon="2.95177">
        <ele>-25.2</ele>
        <time>2018-06-24T09:11:06Z</time>
      </trkpt>
      <trkpt lat="50.55859" lon="2.95151">
        <ele>-24.8</ele>
        <time>2018-06-24T09:11:10Z</time>
      </trkpt>
      <trkpt lat="50.55844" lon="2.95124">
        <ele>-24.8</ele>
        <time>2018-06-24T09:11:14Z</time>
      </trkpt>
      <trkpt lat="50.55829" lon="2.95097">
        <ele>-25</ele>
        <time>2018-06-24T09:11:18Z</time>
      </trkpt>
      <trkpt lat="50.55815" lon="2.95068">
        <ele>-24.6</ele>
        <time>2018-06-24T09:11:22Z</time>
      </trkpt>
      <trkpt lat="50.55802" lon="2.95042">
        <ele>-25</ele>
        <time>2018-06-24T09:11:26Z</time>
      </trkpt>
      <trkpt lat="50.55788" lon="2.95015">
        <ele>-25</ele>
        <time>2018-06-24T09:11:30Z</time>
      </trkpt>
      <trkpt lat="50.55773" lon="2.94987">
        <ele>-25.2</ele>
        <time>2018-06-24T09:11:34Z</time>
      </trkpt>
      <trkpt lat="50.55758" lon="2.94962">
        <ele>-25</ele>
        <time>2018-06-24T09:11:38Z</time>
      </trkpt>
      <trkpt lat="50.55745" lon="2.94932">
        <ele>-25.4</ele>
        <time>2018-06-24T09:11:42Z</time>
      </trkpt>
      <trkpt lat="50.55733" lon="2.94903">
        <ele>-25.4</ele>
        <time>2018-06-24T09:11:46Z</time>
      </trkpt>
      <trkpt lat="50.55719" lon="2.94874">
        <ele>-25.2</ele>
        <time>2018-06-24T09:11:50Z</time>
      </trkpt>
      <trkpt lat="50.55706" lon="2.94847">
        <ele>-25.2</ele>
        <time>2018-06-24T09:11:54Z</time>
      </trkpt>
      <trkpt lat="50.55696" lon="2.9482">
        <ele>-25</ele>
        <time>2018-06-24T09:11:58Z</time>
      </trkpt>
      <trkpt lat="50.55686" lon="2.94796">
        <ele>-25.6</ele>
        <time>2018-06-24T09:12:02Z</time>
      </trkpt>
      <trkpt lat="50.55676" lon="2.94774">
        <ele>-25.6</ele>
        <time>2018-06-24T09:12:06Z</time>
      </trkpt>
      <trkpt lat="50.55668" lon="2.94754">
        <ele>-25.2</ele>
        <time>2018-06-24T09:12:10Z</time>
      </trkpt>
      <trkpt lat="50.55662" lon="2.94735">
        <ele>-25.4</ele>
        <time>2018-06-24T09:12:14Z</time>
      </trkpt>
      <trkpt lat="50.55657" lon="2.9472">
        <ele>-25</ele>
        <time>2018-06-24T09:12:18Z</time>
      </trkpt>
      <trkpt lat="50.55651" lon="2.9471">
        <ele>-25</ele>
        <time>2018-06-24T09:12:22Z</time>
      </trkpt>
      <trkpt lat="50.55648" lon="2.94701">
        <ele>-24.8</ele>
        <time>2018-06-24T09:12:26Z</time>
      </trkpt>
      <trkpt lat="50.55644" lon="2.94693">
        <ele>-25.2</ele>
        <time>2018-06-24T09:12:30Z</time>
      </trkpt>
      <trkpt lat="50.55642" lon="2.94684">
        <ele>-25</ele>
        <time>2018-06-24T09:12:34Z</time>
      </trkpt>
      <trkpt lat="50.55638" lon="2.94675">
        <ele>-24.6</ele>
        <time>2018-06-24T09:12:38Z</time>
      </trkpt>
      <trkpt lat="50.55633" lon="2.94663">
        <ele>-24</ele>
        <time>2018-06-24T09:12:42Z</time>
      </trkpt>
      <trkpt lat="50.55627" lon="2.9465">
        <ele>-24.6</ele>
        <time>2018-06-24T09:12:46Z</time>
      </trkpt>
      <trkpt lat="50.55622" lon="2.94636">
        <ele>-24.2</ele>
        <time>2018-06-24T09:12:50Z</time>
      </trkpt>
      <trkpt lat="50.55617" lon="2.94623">
        <ele>-24</ele>
        <time>2018-06-24T09:12:54Z</time>
      </trkpt>
      <trkpt lat="50.55617" lon="2.94623">
        <ele>-24.4</ele>
        <time>2018-06-24T09:12:58Z</time>
      </trkpt>
      <trkpt lat="50.55617" lon="2.94623">
        <ele>-24.2</ele>
        <time>2018-06-24T09:13:02Z</time>
      </trkpt>
      <trkpt lat="50.55617" lon="2.94623">
        <ele>-24.2</ele>
        <time>2018-06-24T09:13:06Z</time>
      </trkpt>
      <trkpt lat="50.55617" lon="2.94623">
        <ele>-24.6</ele>
        <time>2018-06-24T09:13:10Z</time>
      </trkpt>
      <trkpt lat="50.55617" lon="2.94623">
        <ele>-24.2</ele>
        <time>2018-06-24T09:13:14Z</time>
      </trkpt>
      <trkpt lat="50.55617" lon="2.94623">
        <ele>-24.8</ele>
        <time>2018-06-24T09:13:18Z</time>
      </trkpt>
      <trkpt lat="50.55617" lon="2.94623">
        <ele>-24.2</ele>
        <time>2018-06-24T09:13:22Z</time>
      </trkpt>
      <trkpt lat="50.55617" lon="2.94623">
        <ele>-24.2</ele>
        <time>2018-06-24T09:13:26Z</time>
      </trkpt>
      <trkpt lat="50.55617" lon="2.94623">
        <ele>-24.2</ele>
        <time>2018-06-24T09:13:30Z</time>
      </trkpt>
      <trkpt lat="50.55617" lon="2.94623">
        <ele>-24.2</ele>
        <time>2018-06-24T09:13:34Z</time>
      </trkpt>
      <trkpt lat="50.55617" lon="2.94623">
        <ele>-24.2</ele>
        <time>2018-06-24T09:13:38Z</time>
      </trkpt>
      <trkpt lat="50.55617" lon="2.94623">
        <ele>-24.2</ele>
        <time>2018-06-24T09:13:42Z</time>
      </trkpt>
      <trkpt lat="50.55617" lon="2.94623">
        <ele>-24.4</ele>
        <time>2018-06-24T09:13:46Z</time>
      </trkpt>
      <trkpt lat="50.55617" lon="2.94623">
        <ele>-24.2</ele>
        <time>2018-06-24T09:13:50Z</time>
      </trkpt>
      <trkpt lat="50.55617" lon="2.94623">
        <ele>-24.4</ele>
        <time>2018-06-24T09:13:54Z</time>
      </trkpt>
      <trkpt lat="50.55616" lon="2.94619">
        <ele>-23.8</ele>
        <time>2018-06-24T09:13:58Z</time>
      </trkpt>
      <trkpt lat="50.55617" lon="2.94622">
        <ele>-24</ele>
        <time>2018-06-24T09:14:02Z</time>
      </trkpt>
      <trkpt lat="50.55622" lon="2.94622">
        <ele>-23.6</ele>
        <time>2018-06-24T09:14:06Z</time>
      </trkpt>
      <trkpt lat="50.55628" lon="2.94616">
        <ele>-23.6</ele>
        <time>2018-06-24T09:14:10Z</time>
      </trkpt>
      <trkpt lat="50.55637" lon="2.94608">
        <ele>-24.6</ele>
        <time>2018-06-24T09:14:14Z</time>
      </trkpt>
      <trkpt lat="50.5565" lon="2.94599">
        <ele>-24.2</ele>
        <time>2018-06-24T09:14:18Z</time>
      </trkpt>
      <trkpt lat="50.55663" lon="2.94596">
        <ele>-24.6</ele>
        <time>2018-06-24T09:14:22Z</time>
      </trkpt>
      <trkpt lat="50.55676" lon="2.94599">
        <ele>-23.6</ele>
        <time>2018-06-24T09:14:26Z</time>
      </trkpt>
      <trkpt lat="50.55687" lon="2.94604">
        <ele>-23.6</ele>
        <time>2018-06-24T09:14:30Z</time>
      </trkpt>
      <trkpt lat="50.55697" lon="2.94608">
        <ele>-23.6</ele>
        <time>2018-06-24T09:14:34Z</time>
      </trkpt>
      <trkpt lat="50.55711" lon="2.94612">
        <ele>-23.6</ele>
        <time>2018-06-24T09:14:38Z</time>
      </trkpt>
      <trkpt lat="50.55726" lon="2.94616">
        <ele>-24</ele>
        <time>2018-06-24T09:14:42Z</time>
      </trkpt>
      <trkpt lat="50.55742" lon="2.94622">
        <ele>-24.2</ele>
        <time>2018-06-24T09:14:46Z</time>
      </trkpt>
      <trkpt lat="50.55758" lon="2.94628">
        <ele>-24.6</ele>
        <time>2018-06-24T09:14:50Z</time>
      </trkpt>
      <trkpt lat="50.55774" lon="2.94633">
        <ele>-25</ele>
        <time>2018-06-24T09:14:54Z</time>
      </trkpt>
      <trkpt lat="50.55788" lon="2.94639">
        <ele>-25</ele>
        <time>2018-06-24T09:14:58Z</time>
      </trkpt>
      <trkpt lat="50.55803" lon="2.94644">
        <ele>-25</ele>
        <time>2018-06-24T09:15:02Z</time>
      </trkpt>
      <trkpt lat="50.55817" lon="2.94649">
        <ele>-25.2</ele>
        <time>2018-06-24T09:15:06Z</time>
      </trkpt>
      <trkpt lat="50.55834" lon="2.94656">
        <ele>-25.4</ele>
        <time>2018-06-24T09:15:10Z</time>
      </trkpt>
      <trkpt lat="50.5585" lon="2.94663">
        <ele>-25.8</ele>
        <time>2018-06-24T09:15:14Z</time>
      </trkpt>
      <trkpt lat="50.55866" lon="2.94669">
        <ele>-25.6</ele>
        <time>2018-06-24T09:15:18Z</time>
      </trkpt>
      <trkpt lat="50.55882" lon="2.94676">
        <ele>-25.4</ele>
        <time>2018-06-24T09:15:22Z</time>
      </trkpt>
      <trkpt lat="50.55898" lon="2.94682">
        <ele>-25.2</ele>
        <time>2018-06-24T09:15:26Z</time>
      </trkpt>
      <trkpt lat="50.55915" lon="2.94689">
        <ele>-25.8</ele>
        <time>2018-06-24T09:15:30Z</time>
      </trkpt>
      <trkpt lat="50.55933" lon="2.94695">
        <ele>-25.4</ele>
        <time>2018-06-24T09:15:34Z</time>
      </trkpt>
      <trkpt lat="50.55951" lon="2.94701">
        <ele>-25.4</ele>
        <time>2018-06-24T09:15:38Z</time>
      </trkpt>
      <trkpt lat="50.55968" lon="2.94708">
        <ele>-25.4</ele>
        <time>2018-06-24T09:15:42Z</time>
      </trkpt>
      <trkpt lat="50.55986" lon="2.94715">
        <ele>-25.4</ele>
        <time>2018-06-24T09:15:46Z</time>
      </trkpt>
      <trkpt lat="50.56003" lon="2.9472">
        <ele>-25.4</ele>
        <time>2018-06-24T09:15:50Z</time>
      </trkpt>
      <trkpt lat="50.56016" lon="2.94733">
        <ele>-24.8</ele>
        <time>2018-06-24T09:15:54Z</time>
      </trkpt>
      <trkpt lat="50.56021" lon="2.94751">
        <ele>-24.4</ele>
        <time>2018-06-24T09:15:58Z</time>
      </trkpt>
      <trkpt lat="50.56011" lon="2.94761">
        <ele>-24.6</ele>
        <time>2018-06-24T09:16:02Z</time>
      </trkpt>
      <trkpt lat="50.55991" lon="2.94765">
        <ele>-23.8</ele>
        <time>2018-06-24T09:16:06Z</time>
      </trkpt>
      <trkpt lat="50.55973" lon="2.94769">
        <ele>-24</ele>
        <time>2018-06-24T09:16:10Z</time>
      </trkpt>
      <trkpt lat="50.55955" lon="2.94774">
        <ele>-23.6</ele>
        <time>2018-06-24T09:16:14Z</time>
      </trkpt>
      <trkpt lat="50.55937" lon="2.94782">
        <ele>-23.2</ele>
        <time>2018-06-24T09:16:18Z</time>
      </trkpt>
      <trkpt lat="50.5592" lon="2.94792">
        <ele>-23.2</ele>
        <time>2018-06-24T09:16:22Z</time>
      </trkpt>
      <trkpt lat="50.55903" lon="2.94803">
        <ele>-22.8</ele>
        <time>2018-06-24T09:16:26Z</time>
      </trkpt>
      <trkpt lat="50.55886" lon="2.94815">
        <ele>-22.4</ele>
        <time>2018-06-24T09:16:30Z</time>
      </trkpt>
      <trkpt lat="50.55871" lon="2.9483">
        <ele>-22.8</ele>
        <time>2018-06-24T09:16:34Z</time>
      </trkpt>
      <trkpt lat="50.55857" lon="2.94847">
        <ele>-22.2</ele>
        <time>2018-06-24T09:16:38Z</time>
      </trkpt>
      <trkpt lat="50.55842" lon="2.94862">
        <ele>-21.4</ele>
        <time>2018-06-24T09:16:42Z</time>
      </trkpt>
      <trkpt lat="50.5583" lon="2.94876">
        <ele>-20.8</ele>
        <time>2018-06-24T09:16:46Z</time>
      </trkpt>
      <trkpt lat="50.55817" lon="2.94892">
        <ele>-20.2</ele>
        <time>2018-06-24T09:16:50Z</time>
      </trkpt>
      <trkpt lat="50.55803" lon="2.9491">
        <ele>-19.8</ele>
        <time>2018-06-24T09:16:54Z</time>
      </trkpt>
      <trkpt lat="50.55789" lon="2.94928">
        <ele>-19</ele>
        <time>2018-06-24T09:16:58Z</time>
      </trkpt>
      <trkpt lat="50.55774" lon="2.94948">
        <ele>-19.4</ele>
        <time>2018-06-24T09:17:02Z</time>
      </trkpt>
      <trkpt lat="50.55759" lon="2.94966">
        <ele>-19</ele>
        <time>2018-06-24T09:17:06Z</time>
      </trkpt>
      <trkpt lat="50.55743" lon="2.94984">
        <ele>-18.4</ele>
        <time>2018-06-24T09:17:10Z</time>
      </trkpt>
      <trkpt lat="50.55727" lon="2.95002">
        <ele>-18.4</ele>
        <time>2018-06-24T09:17:14Z</time>
      </trkpt>
      <trkpt lat="50.55711" lon="2.95021">
        <ele>-18.8</ele>
        <time>2018-06-24T09:17:18Z</time>
      </trkpt>
      <trkpt lat="50.55695" lon="2.9504">
        <ele>-19.6</ele>
        <time>2018-06-24T09:17:22Z</time>
      </trkpt>
      <trkpt lat="50.55679" lon="2.95059">
        <ele>-20.2</ele>
        <time>2018-06-24T09:17:26Z</time>
      </trkpt>
      <trkpt lat="50.55661" lon="2.95075">
        <ele>-20</ele>
        <time>2018-06-24T09:17:30Z</time>
      </trkpt>
      <trkpt lat="50.5564" lon="2.9509">
        <ele>-21</ele>
        <time>2018-06-24T09:17:34Z</time>
      </trkpt>
      <trkpt lat="50.55616" lon="2.95102">
        <ele>-22</ele>
        <time>2018-06-24T09:17:38Z</time>
      </trkpt>
      <trkpt lat="50.55588" lon="2.95112">
        <ele>-23.2</ele>
        <time>2018-06-24T09:17:42Z</time>
      </trkpt>
      <trkpt lat="50.55559" lon="2.95116">
        <ele>-23.4</ele>
        <time>2018-06-24T09:17:46Z</time>
      </trkpt>
      <trkpt lat="50.55527" lon="2.95116">
        <ele>-24.2</ele>
        <time>2018-06-24T09:17:50Z</time>
      </trkpt>
      <trkpt lat="50.55499" lon="2.95108">
        <ele>-24</ele>
        <time>2018-06-24T09:17:54Z</time>
      </trkpt>
      <trkpt lat="50.55472" lon="2.95095">
        <ele>-24.2</ele>
        <time>2018-06-24T09:17:58Z</time>
      </trkpt>
      <trkpt lat="50.55444" lon="2.95077">
        <ele>-24.2</ele>
        <time>2018-06-24T09:18:02Z</time>
      </trkpt>
      <trkpt lat="50.5542" lon="2.95056">
        <ele>-24.6</ele>
        <time>2018-06-24T09:18:06Z</time>
      </trkpt>
      <trkpt lat="50.55399" lon="2.95033">
        <ele>-24.6</ele>
        <time>2018-06-24T09:18:10Z</time>
      </trkpt>
      <trkpt lat="50.55397" lon="2.95013">
        <ele>-25</ele>
        <time>2018-06-24T09:18:14Z</time>
      </trkpt>
      <trkpt lat="50.55408" lon="2.94999">
        <ele>-25.6</ele>
        <time>2018-06-24T09:18:18Z</time>
      </trkpt>
      <trkpt lat="50.55422" lon="2.94982">
        <ele>-25</ele>
        <time>2018-06-24T09:18:22Z</time>
      </trkpt>
      <trkpt lat="50.55434" lon="2.94964">
        <ele>-25.6</ele>
        <time>2018-06-24T09:18:26Z</time>
      </trkpt>
      <trkpt lat="50.55448" lon="2.94947">
        <ele>-26.6</ele>
        <time>2018-06-24T09:18:30Z</time>
      </trkpt>
      <trkpt lat="50.55461" lon="2.94929">
        <ele>-26</ele>
        <time>2018-06-24T09:18:34Z</time>
      </trkpt>
      <trkpt lat="50.55465" lon="2.94906">
        <ele>-26.4</ele>
        <time>2018-06-24T09:18:38Z</time>
      </trkpt>
      <trkpt lat="50.55467" lon="2.9489">
        <ele>-26</ele>
        <time>2018-06-24T09:18:42Z</time>
      </trkpt>
      <trkpt lat="50.55477" lon="2.94878">
        <ele>-27</ele>
        <time>2018-06-24T09:18:46Z</time>
      </trkpt>
      <trkpt lat="50.55488" lon="2.94865">
        <ele>-25.4</ele>
        <time>2018-06-24T09:18:50Z</time>
      </trkpt>
      <trkpt lat="50.55502" lon="2.94847">
        <ele>-25.4</ele>
        <time>2018-06-24T09:18:54Z</time>
      </trkpt>
      <trkpt lat="50.55514" lon="2.94831">
        <ele>-25.4</ele>
        <time>2018-06-24T09:18:58Z</time>
      </trkpt>
      <trkpt lat="50.55523" lon="2.94816">
        <ele>-25.4</ele>
        <time>2018-06-24T09:19:02Z</time>
      </trkpt>
      <trkpt lat="50.55524" lon="2.94798">
        <ele>-26.2</ele>
        <time>2018-06-24T09:19:06Z</time>
      </trkpt>
      <trkpt lat="50.55526" lon="2.94787">
        <ele>-26.4</ele>
        <time>2018-06-24T09:19:10Z</time>
      </trkpt>
      <trkpt lat="50.55527" lon="2.94775">
        <ele>-25.6</ele>
        <time>2018-06-24T09:19:14Z</time>
      </trkpt>
      <trkpt lat="50.55523" lon="2.94759">
        <ele>-26</ele>
        <time>2018-06-24T09:19:18Z</time>
      </trkpt>
      <trkpt lat="50.5552" lon="2.94742">
        <ele>-26</ele>
        <time>2018-06-24T09:19:22Z</time>
      </trkpt>
      <trkpt lat="50.55517" lon="2.94722">
        <ele>-25.8</ele>
        <time>2018-06-24T09:19:26Z</time>
      </trkpt>
      <trkpt lat="50.55513" lon="2.94703">
        <ele>-25</ele>
        <time>2018-06-24T09:19:30Z</time>
      </trkpt>
      <trkpt lat="50.55506" lon="2.94689">
        <ele>-24.2</ele>
        <time>2018-06-24T09:19:34Z</time>
      </trkpt>
      <trkpt lat="50.55492" lon="2.94682">
        <ele>-24.2</ele>
        <time>2018-06-24T09:19:38Z</time>
      </trkpt>
      <trkpt lat="50.55485" lon="2.94677">
        <ele>-24.6</ele>
        <time>2018-06-24T09:19:42Z</time>
      </trkpt>
      <trkpt lat="50.55485" lon="2.94677">
        <ele>-25</ele>
        <time>2018-06-24T09:19:46Z</time>
      </trkpt>
      <trkpt lat="50.55485" lon="2.94677">
        <ele>-25</ele>
        <time>2018-06-24T09:19:50Z</time>
      </trkpt>
      <trkpt lat="50.55485" lon="2.94677">
        <ele>-25</ele>
        <time>2018-06-24T09:19:54Z</time>
      </trkpt>
      <trkpt lat="50.55485" lon="2.94677">
        <ele>-24.8</ele>
        <time>2018-06-24T09:19:58Z</time>
      </trkpt>
      <trkpt lat="50.55485" lon="2.94677">
        <ele>-24.8</ele>
        <time>2018-06-24T09:20:02Z</time>
      </trkpt>
      <trkpt lat="50.55485" lon="2.94677">
        <ele>-25</ele>
        <time>2018-06-24T09:20:06Z</time>
      </trkpt>
      <trkpt lat="50.55485" lon="2.94677">
        <ele>-24.8</ele>
        <time>2018-06-24T09:20:10Z</time>
      </trkpt>
      <trkpt lat="50.55485" lon="2.94677">
        <ele>-25</ele>
        <time>2018-06-24T09:20:14Z</time>
      </trkpt>
      <trkpt lat="50.55485" lon="2.94677">
        <ele>-25</ele>
        <time>2018-06-24T09:20:18Z</time>
      </trkpt>
      <trkpt lat="50.55485" lon="2.94677">
        <ele>-24.6</ele>
        <time>2018-06-24T09:20:22Z</time>
      </trkpt>
      <trkpt lat="50.55485" lon="2.94677">
        <ele>-25</ele>
        <time>2018-06-24T09:20:26Z</time>
      </trkpt>
      <trkpt lat="50.55485" lon="2.94677">
        <ele>-24.4</ele>
        <time>2018-06-24T09:20:30Z</time>
      </trkpt>
      <trkpt lat="50.55485" lon="2.94677">
        <ele>-24.8</ele>
        <time>2018-06-24T09:20:34Z</time>
      </trkpt>
      <trkpt lat="50.55485" lon="2.94677">
        <ele>-25</ele>
        <time>2018-06-24T09:20:38Z</time>
      </trkpt>
      <trkpt lat="50.55485" lon="2.94677">
        <ele>-25</ele>
        <time>2018-06-24T09:20:42Z</time>
      </trkpt>
      <trkpt lat="50.55485" lon="2.94677">
        <ele>-25.4</ele>
        <time>2018-06-24T09:20:46Z</time>
      </trkpt>
      <trkpt lat="50.55485" lon="2.94677">
        <ele>-25.2</ele>
        <time>2018-06-24T09:20:50Z</time>
      </trkpt>
      <trkpt lat="50.55485" lon="2.94677">
        <ele>-25.4</ele>
        <time>2018-06-24T09:20:54Z</time>
      </trkpt>
      <trkpt lat="50.55485" lon="2.94677">
        <ele>-25.2</ele>
        <time>2018-06-24T09:20:58Z</time>
      </trkpt>
      <trkpt lat="50.55485" lon="2.94677">
        <ele>-25.2</ele>
        <time>2018-06-24T09:21:02Z</time>
      </trkpt>
      <trkpt lat="50.55485" lon="2.94677">
        <ele>-25.4</ele>
        <time>2018-06-24T09:21:06Z</time>
      </trkpt>
      <trkpt lat="50.55485" lon="2.94677">
        <ele>-25.2</ele>
        <time>2018-06-24T09:21:10Z</time>
      </trkpt>
      <trkpt lat="50.55485" lon="2.94677">
        <ele>-25.2</ele>
        <time>2018-06-24T09:21:14Z</time>
      </trkpt>
      <trkpt lat="50.55485" lon="2.94677">
        <ele>-25.2</ele>
        <time>2018-06-24T09:21:18Z</time>
      </trkpt>
      <trkpt lat="50.55485" lon="2.94677">
        <ele>-25.2</ele>
        <time>2018-06-24T09:21:22Z</time>
      </trkpt>
      <trkpt lat="50.55485" lon="2.94677">
        <ele>-25.2</ele>
        <time>2018-06-24T09:21:26Z</time>
      </trkpt>
      <trkpt lat="50.55485" lon="2.94677">
        <ele>-25.2</ele>
        <time>2018-06-24T09:21:30Z</time>
      </trkpt>
      <trkpt lat="50.55485" lon="2.94677">
        <ele>-25.2</ele>
        <time>2018-06-24T09:21:34Z</time>
      </trkpt>
      <trkpt lat="50.55485" lon="2.94677">
        <ele>-24.6</ele>
        <time>2018-06-24T09:21:38Z</time>
      </trkpt>
      <trkpt lat="50.55483" lon="2.94671">
        <ele>-25.2</ele>
        <time>2018-06-24T09:21:42Z</time>
      </trkpt>
      <trkpt lat="50.55475" lon="2.94669">
        <ele>-24.8</ele>
        <time>2018-06-24T09:21:46Z</time>
      </trkpt>
      <trkpt lat="50.55467" lon="2.94666">
        <ele>-25</ele>
        <time>2018-06-24T09:21:50Z</time>
      </trkpt>
      <trkpt lat="50.55464" lon="2.94648">
        <ele>-26</ele>
        <time>2018-06-24T09:21:54Z</time>
      </trkpt>
      <trkpt lat="50.55459" lon="2.94638">
        <ele>-26.2</ele>
        <time>2018-06-24T09:21:58Z</time>
      </trkpt>
      <trkpt lat="50.55459" lon="2.94638">
        <ele>-26.6</ele>
        <time>2018-06-24T09:22:02Z</time>
      </trkpt>
      <trkpt lat="50.55459" lon="2.94638">
        <ele>-26</ele>
        <time>2018-06-24T09:22:06Z</time>
      </trkpt>
      <trkpt lat="50.55459" lon="2.94638">
        <ele>-26</ele>
        <time>2018-06-24T09:22:10Z</time>
      </trkpt>
      <trkpt lat="50.55459" lon="2.94638">
        <ele>-26</ele>
        <time>2018-06-24T09:22:14Z</time>
      </trkpt>
      <trkpt lat="50.55459" lon="2.94638">
        <ele>-26.2</ele>
        <time>2018-06-24T09:22:18Z</time>
      </trkpt>
      <trkpt lat="50.55459" lon="2.94638">
        <ele>-26</ele>
        <time>2018-06-24T09:22:22Z</time>
      </trkpt>
      <trkpt lat="50.55459" lon="2.94638">
        <ele>-26.4</ele>
        <time>2018-06-24T09:22:26Z</time>
      </trkpt>
      <trkpt lat="50.55459" lon="2.94638">
        <ele>-26.4</ele>
        <time>2018-06-24T09:22:30Z</time>
      </trkpt>
      <trkpt lat="50.55459" lon="2.94638">
        <ele>-26.2</ele>
        <time>2018-06-24T09:22:34Z</time>
      </trkpt>
      <trkpt lat="50.55459" lon="2.94638">
        <ele>-26.2</ele>
        <time>2018-06-24T09:22:38Z</time>
      </trkpt>
      <trkpt lat="50.55459" lon="2.94638">
        <ele>-26.2</ele>
        <time>2018-06-24T09:22:42Z</time>
      </trkpt>
      <trkpt lat="50.55459" lon="2.94638">
        <ele>-26.2</ele>
        <time>2018-06-24T09:22:46Z</time>
      </trkpt>
      <trkpt lat="50.55459" lon="2.94638">
        <ele>-26.6</ele>
        <time>2018-06-24T09:22:50Z</time>
      </trkpt>
      <trkpt lat="50.55459" lon="2.94638">
        <ele>-26.4</ele>
        <time>2018-06-24T09:22:54Z</time>
      </trkpt>
      <trkpt lat="50.55459" lon="2.94638">
        <ele>-26</ele>
        <time>2018-06-24T09:22:58Z</time>
      </trkpt>
      <trkpt lat="50.55459" lon="2.94638">
        <ele>-26</ele>
        <time>2018-06-24T09:23:02Z</time>
      </trkpt>
      <trkpt lat="50.55459" lon="2.94638">
        <ele>-26.2</ele>
        <time>2018-06-24T09:23:06Z</time>
      </trkpt>
      <trkpt lat="50.55459" lon="2.94638">
        <ele>-26</ele>
        <time>2018-06-24T09:23:10Z</time>
      </trkpt>
      <trkpt lat="50.55459" lon="2.94638">
        <ele>-26</ele>
        <time>2018-06-24T09:23:14Z</time>
      </trkpt>
      <trkpt lat="50.55459" lon="2.94638">
        <ele>-26</ele>
        <time>2018-06-24T09:23:18Z</time>
      </trkpt>
      <trkpt lat="50.55459" lon="2.94638">
        <ele>-26</ele>
        <time>2018-06-24T09:23:22Z</time>
      </trkpt>
      <trkpt lat="50.55459" lon="2.94638">
        <ele>-26</ele>
        <time>2018-06-24T09:23:26Z</time>
      </trkpt>
      <trkpt lat="50.55459" lon="2.94638">
        <ele>-26</ele>
        <time>2018-06-24T09:23:30Z</time>
      </trkpt>
      <trkpt lat="50.55459" lon="2.94638">
        <ele>-25.8</ele>
        <time>2018-06-24T09:23:34Z</time>
      </trkpt>
      <trkpt lat="50.55459" lon="2.94638">
        <ele>-26</ele>
        <time>2018-06-24T09:23:38Z</time>
      </trkpt>
      <trkpt lat="50.55459" lon="2.94638">
        <ele>-26.4</ele>
        <time>2018-06-24T09:23:42Z</time>
      </trkpt>
      <trkpt lat="50.55459" lon="2.94638">
        <ele>-26.4</ele>
        <time>2018-06-24T09:23:46Z</time>
      </trkpt>
      <trkpt lat="50.55459" lon="2.94638">
        <ele>-26.2</ele>
        <time>2018-06-24T09:23:50Z</time>
      </trkpt>
      <trkpt lat="50.55459" lon="2.94638">
        <ele>-26.4</ele>
        <time>2018-06-24T09:23:54Z</time>
      </trkpt>
      <trkpt lat="50.55459" lon="2.94638">
        <ele>-26.4</ele>
        <time>2018-06-24T09:23:58Z</time>
      </trkpt>
      <trkpt lat="50.55459" lon="2.94638">
        <ele>-26.4</ele>
        <time>2018-06-24T09:24:02Z</time>
      </trkpt>
      <trkpt lat="50.55459" lon="2.94638">
        <ele>-26.4</ele>
        <time>2018-06-24T09:24:06Z</time>
      </trkpt>
      <trkpt lat="50.55459" lon="2.94638">
        <ele>-26.4</ele>
        <time>2018-06-24T09:24:10Z</time>
      </trkpt>
      <trkpt lat="50.55459" lon="2.94638">
        <ele>-26.4</ele>
        <time>2018-06-24T09:24:14Z</time>
      </trkpt>
      <trkpt lat="50.55459" lon="2.94638">
        <ele>-26.2</ele>
        <time>2018-06-24T09:24:18Z</time>
      </trkpt>
      <trkpt lat="50.55459" lon="2.94638">
        <ele>-26.2</ele>
        <time>2018-06-24T09:24:22Z</time>
      </trkpt>
      <trkpt lat="50.55459" lon="2.94638">
        <ele>-26</ele>
        <time>2018-06-24T09:24:26Z</time>
      </trkpt>
      <trkpt lat="50.55459" lon="2.94638">
        <ele>-26</ele>
        <time>2018-06-24T09:24:30Z</time>
      </trkpt>
      <trkpt lat="50.55459" lon="2.94638">
        <ele>-26</ele>
        <time>2018-06-24T09:24:34Z</time>
      </trkpt>
      <trkpt lat="50.55459" lon="2.94638">
        <ele>-26.2</ele>
        <time>2018-06-24T09:24:38Z</time>
      </trkpt>
      <trkpt lat="50.55459" lon="2.94638">
        <ele>-26</ele>
        <time>2018-06-24T09:24:42Z</time>
      </trkpt>
      <trkpt lat="50.55459" lon="2.94638">
        <ele>-26.2</ele>
        <time>2018-06-24T09:24:46Z</time>
      </trkpt>
      <trkpt lat="50.55459" lon="2.94638">
        <ele>-25.8</ele>
        <time>2018-06-24T09:24:50Z</time>
      </trkpt>
      <trkpt lat="50.55459" lon="2.94638">
        <ele>-26.2</ele>
        <time>2018-06-24T09:24:54Z</time>
      </trkpt>
      <trkpt lat="50.55459" lon="2.94638">
        <ele>-26</ele>
        <time>2018-06-24T09:24:58Z</time>
      </trkpt>
      <trkpt lat="50.55459" lon="2.94638">
        <ele>-26</ele>
        <time>2018-06-24T09:25:02Z</time>
      </trkpt>
      <trkpt lat="50.55459" lon="2.94638">
        <ele>-26.6</ele>
        <time>2018-06-24T09:25:06Z</time>
      </trkpt>
      <trkpt lat="50.55459" lon="2.94638">
        <ele>-26.4</ele>
        <time>2018-06-24T09:25:10Z</time>
      </trkpt>
      <trkpt lat="50.55459" lon="2.94638">
        <ele>-26.4</ele>
        <time>2018-06-24T09:25:14Z</time>
      </trkpt>
      <trkpt lat="50.55459" lon="2.94638">
        <ele>-26</ele>
        <time>2018-06-24T09:25:18Z</time>
      </trkpt>
      <trkpt lat="50.55459" lon="2.94638">
        <ele>-26</ele>
        <time>2018-06-24T09:25:22Z</time>
      </trkpt>
      <trkpt lat="50.55459" lon="2.94638">
        <ele>-26.2</ele>
        <time>2018-06-24T09:25:26Z</time>
      </trkpt>
      <trkpt lat="50.55459" lon="2.94638">
        <ele>-26.4</ele>
        <time>2018-06-24T09:25:30Z</time>
      </trkpt>
      <trkpt lat="50.55459" lon="2.94638">
        <ele>-26</ele>
        <time>2018-06-24T09:25:34Z</time>
      </trkpt>
      <trkpt lat="50.55459" lon="2.94638">
        <ele>-26.2</ele>
        <time>2018-06-24T09:25:38Z</time>
      </trkpt>
      <trkpt lat="50.55459" lon="2.94638">
        <ele>-26.2</ele>
        <time>2018-06-24T09:25:42Z</time>
      </trkpt>
      <trkpt lat="50.55459" lon="2.94638">
        <ele>-26.2</ele>
        <time>2018-06-24T09:25:46Z</time>
      </trkpt>
      <trkpt lat="50.55459" lon="2.94638">
        <ele>-26.4</ele>
        <time>2018-06-24T09:25:50Z</time>
      </trkpt>
      <trkpt lat="50.55459" lon="2.94638">
        <ele>-26.4</ele>
        <time>2018-06-24T09:25:54Z</time>
      </trkpt>
      <trkpt lat="50.55459" lon="2.94638">
        <ele>-26</ele>
        <time>2018-06-24T09:25:58Z</time>
      </trkpt>
      <trkpt lat="50.55459" lon="2.94638">
        <ele>-26</ele>
        <time>2018-06-24T09:26:02Z</time>
      </trkpt>
      <trkpt lat="50.55459" lon="2.94638">
        <ele>-26</ele>
        <time>2018-06-24T09:26:06Z</time>
      </trkpt>
      <trkpt lat="50.55459" lon="2.94638">
        <ele>-26.2</ele>
        <time>2018-06-24T09:26:10Z</time>
      </trkpt>
      <trkpt lat="50.55459" lon="2.94638">
        <ele>-26.2</ele>
        <time>2018-06-24T09:26:14Z</time>
      </trkpt>
      <trkpt lat="50.55459" lon="2.94638">
        <ele>-26.2</ele>
        <time>2018-06-24T09:26:18Z</time>
      </trkpt>
      <trkpt lat="50.55459" lon="2.94638">
        <ele>-26.2</ele>
        <time>2018-06-24T09:26:22Z</time>
      </trkpt>
      <trkpt lat="50.55459" lon="2.94638">
        <ele>-26.4</ele>
        <time>2018-06-24T09:26:26Z</time>
      </trkpt>
      <trkpt lat="50.55459" lon="2.94638">
        <ele>-26.4</ele>
        <time>2018-06-24T09:26:30Z</time>
      </trkpt>
      <trkpt lat="50.55459" lon="2.94638">
        <ele>-26</ele>
        <time>2018-06-24T09:26:34Z</time>
      </trkpt>
      <trkpt lat="50.55459" lon="2.94638">
        <ele>-26.8</ele>
        <time>2018-06-24T09:26:38Z</time>
      </trkpt>
      <trkpt lat="50.55459" lon="2.94638">
        <ele>-26.8</ele>
        <time>2018-06-24T09:26:42Z</time>
      </trkpt>
      <trkpt lat="50.55459" lon="2.94638">
        <ele>-26.4</ele>
        <time>2018-06-24T09:26:46Z</time>
      </trkpt>
      <trkpt lat="50.55459" lon="2.94638">
        <ele>-26.4</ele>
        <time>2018-06-24T09:26:50Z</time>
      </trkpt>
      <trkpt lat="50.55459" lon="2.94638">
        <ele>-26.6</ele>
        <time>2018-06-24T09:26:54Z</time>
      </trkpt>
      <trkpt lat="50.55459" lon="2.94638">
        <ele>-26.8</ele>
        <time>2018-06-24T09:26:58Z</time>
      </trkpt>
      <trkpt lat="50.55459" lon="2.94638">
        <ele>-26.6</ele>
        <time>2018-06-24T09:27:02Z</time>
      </trkpt>
      <trkpt lat="50.55459" lon="2.94638">
        <ele>-26.8</ele>
        <time>2018-06-24T09:27:06Z</time>
      </trkpt>
      <trkpt lat="50.55459" lon="2.94638">
        <ele>-26.6</ele>
        <time>2018-06-24T09:27:10Z</time>
      </trkpt>
      <trkpt lat="50.55459" lon="2.94638">
        <ele>-26.8</ele>
        <time>2018-06-24T09:27:14Z</time>
      </trkpt>
      <trkpt lat="50.55459" lon="2.94638">
        <ele>-26.4</ele>
        <time>2018-06-24T09:27:18Z</time>
      </trkpt>
      <trkpt lat="50.55459" lon="2.94638">
        <ele>-26.8</ele>
        <time>2018-06-24T09:27:22Z</time>
      </trkpt>
      <trkpt lat="50.55459" lon="2.94638">
        <ele>-26.8</ele>
        <time>2018-06-24T09:27:26Z</time>
      </trkpt>
      <trkpt lat="50.55459" lon="2.94638">
        <ele>-27.4</ele>
        <time>2018-06-24T09:27:30Z</time>
      </trkpt>
      <trkpt lat="50.55459" lon="2.94638">
        <ele>-27.4</ele>
        <time>2018-06-24T09:27:34Z</time>
      </trkpt>
      <trkpt lat="50.55459" lon="2.94638">
        <ele>-27.2</ele>
        <time>2018-06-24T09:27:38Z</time>
      </trkpt>
      <trkpt lat="50.55459" lon="2.94638">
        <ele>-27</ele>
        <time>2018-06-24T09:27:42Z</time>
      </trkpt>
      <trkpt lat="50.55459" lon="2.94638">
        <ele>-27.4</ele>
        <time>2018-06-24T09:27:46Z</time>
      </trkpt>
      <trkpt lat="50.55459" lon="2.94638">
        <ele>-27.4</ele>
        <time>2018-06-24T09:27:50Z</time>
      </trkpt>
      <trkpt lat="50.55459" lon="2.94638">
        <ele>-27</ele>
        <time>2018-06-24T09:27:54Z</time>
      </trkpt>
      <trkpt lat="50.55459" lon="2.94638">
        <ele>-27.2</ele>
        <time>2018-06-24T09:27:58Z</time>
      </trkpt>
      <trkpt lat="50.55459" lon="2.94638">
        <ele>-26.8</ele>
        <time>2018-06-24T09:28:02Z</time>
      </trkpt>
      <trkpt lat="50.55459" lon="2.94638">
        <ele>-27</ele>
        <time>2018-06-24T09:28:06Z</time>
      </trkpt>
      <trkpt lat="50.55459" lon="2.94638">
        <ele>-26.8</ele>
        <time>2018-06-24T09:28:10Z</time>
      </trkpt>
      <trkpt lat="50.55459" lon="2.94638">
        <ele>-27</ele>
        <time>2018-06-24T09:28:14Z</time>
      </trkpt>
      <trkpt lat="50.55459" lon="2.94638">
        <ele>-27.4</ele>
        <time>2018-06-24T09:28:18Z</time>
      </trkpt>
      <trkpt lat="50.55459" lon="2.94638">
        <ele>-27</ele>
        <time>2018-06-24T09:28:22Z</time>
      </trkpt>
      <trkpt lat="50.55459" lon="2.94638">
        <ele>-26.8</ele>
        <time>2018-06-24T09:28:26Z</time>
      </trkpt>
      <trkpt lat="50.55459" lon="2.94638">
        <ele>-26.8</ele>
        <time>2018-06-24T09:28:30Z</time>
      </trkpt>
      <trkpt lat="50.55459" lon="2.94638">
        <ele>-26.8</ele>
        <time>2018-06-24T09:28:34Z</time>
      </trkpt>
      <trkpt lat="50.55459" lon="2.94638">
        <ele>-27</ele>
        <time>2018-06-24T09:28:38Z</time>
      </trkpt>
      <trkpt lat="50.55459" lon="2.94638">
        <ele>-27.2</ele>
        <time>2018-06-24T09:28:42Z</time>
      </trkpt>
      <trkpt lat="50.55459" lon="2.94638">
        <ele>-27</ele>
        <time>2018-06-24T09:28:46Z</time>
      </trkpt>
      <trkpt lat="50.55459" lon="2.94638">
        <ele>-27</ele>
        <time>2018-06-24T09:28:50Z</time>
      </trkpt>
      <trkpt lat="50.55459" lon="2.94638">
        <ele>-26.8</ele>
        <time>2018-06-24T09:28:54Z</time>
      </trkpt>
      <trkpt lat="50.55459" lon="2.94638">
        <ele>-27</ele>
        <time>2018-06-24T09:28:58Z</time>
      </trkpt>
      <trkpt lat="50.55459" lon="2.94638">
        <ele>-26.8</ele>
        <time>2018-06-24T09:29:02Z</time>
      </trkpt>
      <trkpt lat="50.55459" lon="2.94638">
        <ele>-26.8</ele>
        <time>2018-06-24T09:29:06Z</time>
      </trkpt>
      <trkpt lat="50.55459" lon="2.94638">
        <ele>-26.8</ele>
        <time>2018-06-24T09:29:10Z</time>
      </trkpt>
      <trkpt lat="50.55459" lon="2.94638">
        <ele>-26.6</ele>
        <time>2018-06-24T09:29:14Z</time>
      </trkpt>
      <trkpt lat="50.55459" lon="2.94638">
        <ele>-26.8</ele>
        <time>2018-06-24T09:29:18Z</time>
      </trkpt>
      <trkpt lat="50.55459" lon="2.94638">
        <ele>-26.8</ele>
        <time>2018-06-24T09:29:22Z</time>
      </trkpt>
      <trkpt lat="50.55459" lon="2.94638">
        <ele>-26.4</ele>
        <time>2018-06-24T09:29:26Z</time>
      </trkpt>
      <trkpt lat="50.55459" lon="2.94638">
        <ele>-26.4</ele>
        <time>2018-06-24T09:29:30Z</time>
      </trkpt>
      <trkpt lat="50.55459" lon="2.94638">
        <ele>-26.4</ele>
        <time>2018-06-24T09:29:34Z</time>
      </trkpt>
      <trkpt lat="50.55459" lon="2.94638">
        <ele>-27.4</ele>
        <time>2018-06-24T09:29:38Z</time>
      </trkpt>
      <trkpt lat="50.55459" lon="2.94638">
        <ele>-27</ele>
        <time>2018-06-24T09:29:42Z</time>
      </trkpt>
      <trkpt lat="50.55459" lon="2.94638">
        <ele>-27.4</ele>
        <time>2018-06-24T09:29:46Z</time>
      </trkpt>
      <trkpt lat="50.55459" lon="2.94638">
        <ele>-27.4</ele>
        <time>2018-06-24T09:29:50Z</time>
      </trkpt>
      <trkpt lat="50.55459" lon="2.94638">
        <ele>-27.2</ele>
        <time>2018-06-24T09:29:54Z</time>
      </trkpt>
      <trkpt lat="50.55459" lon="2.94638">
        <ele>-27</ele>
        <time>2018-06-24T09:29:58Z</time>
      </trkpt>
      <trkpt lat="50.55459" lon="2.94638">
        <ele>-27.2</ele>
        <time>2018-06-24T09:30:02Z</time>
      </trkpt>
      <trkpt lat="50.55459" lon="2.94638">
        <ele>-27.2</ele>
        <time>2018-06-24T09:30:06Z</time>
      </trkpt>
      <trkpt lat="50.55459" lon="2.94638">
        <ele>-27</ele>
        <time>2018-06-24T09:30:10Z</time>
      </trkpt>
      <trkpt lat="50.55459" lon="2.94638">
        <ele>-27.4</ele>
        <time>2018-06-24T09:30:14Z</time>
      </trkpt>
      <trkpt lat="50.55459" lon="2.94638">
        <ele>-27</ele>
        <time>2018-06-24T09:30:18Z</time>
      </trkpt>
      <trkpt lat="50.55459" lon="2.94638">
        <ele>-27</ele>
        <time>2018-06-24T09:30:22Z</time>
      </trkpt>
      <trkpt lat="50.55459" lon="2.94638">
        <ele>-26.8</ele>
        <time>2018-06-24T09:30:26Z</time>
      </trkpt>
      <trkpt lat="50.55459" lon="2.94638">
        <ele>-27.2</ele>
        <time>2018-06-24T09:30:30Z</time>
      </trkpt>
      <trkpt lat="50.55459" lon="2.94638">
        <ele>-27.4</ele>
        <time>2018-06-24T09:30:34Z</time>
      </trkpt>
      <trkpt lat="50.55459" lon="2.94638">
        <ele>-27</ele>
        <time>2018-06-24T09:30:38Z</time>
      </trkpt>
      <trkpt lat="50.55459" lon="2.94638">
        <ele>-27</ele>
        <time>2018-06-24T09:30:42Z</time>
      </trkpt>
      <trkpt lat="50.55459" lon="2.94638">
        <ele>-27.2</ele>
        <time>2018-06-24T09:30:46Z</time>
      </trkpt>
      <trkpt lat="50.55459" lon="2.94638">
        <ele>-27.2</ele>
        <time>2018-06-24T09:30:50Z</time>
      </trkpt>
      <trkpt lat="50.55459" lon="2.94638">
        <ele>-27.4</ele>
        <time>2018-06-24T09:30:54Z</time>
      </trkpt>
      <trkpt lat="50.55459" lon="2.94638">
        <ele>-27.2</ele>
        <time>2018-06-24T09:30:58Z</time>
      </trkpt>
      <trkpt lat="50.55459" lon="2.94638">
        <ele>-27.2</ele>
        <time>2018-06-24T09:31:02Z</time>
      </trkpt>
      <trkpt lat="50.55459" lon="2.94638">
        <ele>-27.2</ele>
        <time>2018-06-24T09:31:06Z</time>
      </trkpt>
      <trkpt lat="50.55459" lon="2.94638">
        <ele>-27.4</ele>
        <time>2018-06-24T09:31:10Z</time>
      </trkpt>
      <trkpt lat="50.55459" lon="2.94638">
        <ele>-27</ele>
        <time>2018-06-24T09:31:14Z</time>
      </trkpt>
      <trkpt lat="50.55459" lon="2.94638">
        <ele>-27.2</ele>
        <time>2018-06-24T09:31:18Z</time>
      </trkpt>
      <trkpt lat="50.55459" lon="2.94638">
        <ele>-27.4</ele>
        <time>2018-06-24T09:31:22Z</time>
      </trkpt>
      <trkpt lat="50.55459" lon="2.94638">
        <ele>-27.8</ele>
        <time>2018-06-24T09:31:26Z</time>
      </trkpt>
      <trkpt lat="50.55459" lon="2.94638">
        <ele>-27</ele>
        <time>2018-06-24T09:31:30Z</time>
      </trkpt>
      <trkpt lat="50.55459" lon="2.94638">
        <ele>-27.4</ele>
        <time>2018-06-24T09:31:34Z</time>
      </trkpt>
      <trkpt lat="50.55459" lon="2.94638">
        <ele>-27.4</ele>
        <time>2018-06-24T09:31:38Z</time>
      </trkpt>
      <trkpt lat="50.55459" lon="2.94638">
        <ele>-27.8</ele>
        <time>2018-06-24T09:31:42Z</time>
      </trkpt>
      <trkpt lat="50.55459" lon="2.94638">
        <ele>-27.4</ele>
        <time>2018-06-24T09:31:46Z</time>
      </trkpt>
      <trkpt lat="50.55459" lon="2.94638">
        <ele>-28</ele>
        <time>2018-06-24T09:31:50Z</time>
      </trkpt>
      <trkpt lat="50.55459" lon="2.94638">
        <ele>-27.8</ele>
        <time>2018-06-24T09:31:54Z</time>
      </trkpt>
      <trkpt lat="50.55459" lon="2.94638">
        <ele>-27.2</ele>
        <time>2018-06-24T09:31:58Z</time>
      </trkpt>
      <trkpt lat="50.55459" lon="2.94638">
        <ele>-27.8</ele>
        <time>2018-06-24T09:32:02Z</time>
      </trkpt>
      <trkpt lat="50.55459" lon="2.94638">
        <ele>-27.2</ele>
        <time>2018-06-24T09:32:06Z</time>
      </trkpt>
      <trkpt lat="50.55459" lon="2.94638">
        <ele>-27.4</ele>
        <time>2018-06-24T09:32:10Z</time>
      </trkpt>
      <trkpt lat="50.55459" lon="2.94638">
        <ele>-27.2</ele>
        <time>2018-06-24T09:32:14Z</time>
      </trkpt>
      <trkpt lat="50.55459" lon="2.94638">
        <ele>-26.8</ele>
        <time>2018-06-24T09:32:18Z</time>
      </trkpt>
      <trkpt lat="50.55459" lon="2.94638">
        <ele>-27.2</ele>
        <time>2018-06-24T09:32:22Z</time>
      </trkpt>
      <trkpt lat="50.55459" lon="2.94638">
        <ele>-27.4</ele>
        <time>2018-06-24T09:32:26Z</time>
      </trkpt>
      <trkpt lat="50.55459" lon="2.94638">
        <ele>-27.4</ele>
        <time>2018-06-24T09:32:30Z</time>
      </trkpt>
      <trkpt lat="50.55459" lon="2.94638">
        <ele>-26.8</ele>
        <time>2018-06-24T09:32:34Z</time>
      </trkpt>
      <trkpt lat="50.55459" lon="2.94638">
        <ele>-27.2</ele>
        <time>2018-06-24T09:32:38Z</time>
      </trkpt>
      <trkpt lat="50.55459" lon="2.94638">
        <ele>-27.2</ele>
        <time>2018-06-24T09:32:42Z</time>
      </trkpt>
      <trkpt lat="50.55459" lon="2.94638">
        <ele>-27.6</ele>
        <time>2018-06-24T09:32:46Z</time>
      </trkpt>
      <trkpt lat="50.55459" lon="2.94638">
        <ele>-27.2</ele>
        <time>2018-06-24T09:32:50Z</time>
      </trkpt>
      <trkpt lat="50.55459" lon="2.94638">
        <ele>-27.4</ele>
        <time>2018-06-24T09:32:54Z</time>
      </trkpt>
      <trkpt lat="50.55459" lon="2.94638">
        <ele>-27.2</ele>
        <time>2018-06-24T09:32:58Z</time>
      </trkpt>
      <trkpt lat="50.55459" lon="2.94638">
        <ele>-26.8</ele>
        <time>2018-06-24T09:33:02Z</time>
      </trkpt>
      <trkpt lat="50.55459" lon="2.94638">
        <ele>-27.4</ele>
        <time>2018-06-24T09:33:06Z</time>
      </trkpt>
      <trkpt lat="50.55459" lon="2.94638">
        <ele>-27.8</ele>
        <time>2018-06-24T09:33:10Z</time>
      </trkpt>
      <trkpt lat="50.55459" lon="2.94638">
        <ele>-27.8</ele>
        <time>2018-06-24T09:33:14Z</time>
      </trkpt>
      <trkpt lat="50.55459" lon="2.94638">
        <ele>-27.6</ele>
        <time>2018-06-24T09:33:18Z</time>
      </trkpt>
      <trkpt lat="50.55459" lon="2.94638">
        <ele>-28</ele>
        <time>2018-06-24T09:33:22Z</time>
      </trkpt>
      <trkpt lat="50.55459" lon="2.94638">
        <ele>-27.4</ele>
        <time>2018-06-24T09:33:26Z</time>
      </trkpt>
      <trkpt lat="50.55459" lon="2.94638">
        <ele>-27.2</ele>
        <time>2018-06-24T09:33:30Z</time>
      </trkpt>
      <trkpt lat="50.55459" lon="2.94638">
        <ele>-27.4</ele>
        <time>2018-06-24T09:33:34Z</time>
      </trkpt>
      <trkpt lat="50.55458" lon="2.94634">
        <ele>-27.2</ele>
        <time>2018-06-24T09:33:38Z</time>
      </trkpt>
      <trkpt lat="50.55456" lon="2.94628">
        <ele>-27.6</ele>
        <time>2018-06-24T09:33:42Z</time>
      </trkpt>
      <trkpt lat="50.55452" lon="2.94618">
        <ele>-27.4</ele>
        <time>2018-06-24T09:33:46Z</time>
      </trkpt>
      <trkpt lat="50.55446" lon="2.94606">
        <ele>-27.2</ele>
        <time>2018-06-24T09:33:50Z</time>
      </trkpt>
      <trkpt lat="50.55441" lon="2.94593">
        <ele>-27.2</ele>
        <time>2018-06-24T09:33:54Z</time>
      </trkpt>
      <trkpt lat="50.55437" lon="2.94577">
        <ele>-27.4</ele>
        <time>2018-06-24T09:33:58Z</time>
      </trkpt>
      <trkpt lat="50.55431" lon="2.94562">
        <ele>-27.2</ele>
        <time>2018-06-24T09:34:02Z</time>
      </trkpt>
      <trkpt lat="50.55426" lon="2.94546">
        <ele>-28</ele>
        <time>2018-06-24T09:34:06Z</time>
      </trkpt>
      <trkpt lat="50.5542" lon="2.94529">
        <ele>-27.4</ele>
        <time>2018-06-24T09:34:10Z</time>
      </trkpt>
      <trkpt lat="50.55415" lon="2.9451">
        <ele>-27.4</ele>
        <time>2018-06-24T09:34:14Z</time>
      </trkpt>
      <trkpt lat="50.55416" lon="2.94487">
        <ele>-27.6</ele>
        <time>2018-06-24T09:34:18Z</time>
      </trkpt>
      <trkpt lat="50.55414" lon="2.94464">
        <ele>-27</ele>
        <time>2018-06-24T09:34:22Z</time>
      </trkpt>
      <trkpt lat="50.55412" lon="2.94441">
        <ele>-27</ele>
        <time>2018-06-24T09:34:26Z</time>
      </trkpt>
      <trkpt lat="50.55404" lon="2.9442">
        <ele>-26.6</ele>
        <time>2018-06-24T09:34:30Z</time>
      </trkpt>
      <trkpt lat="50.55396" lon="2.94397">
        <ele>-27.2</ele>
        <time>2018-06-24T09:34:34Z</time>
      </trkpt>
      <trkpt lat="50.55387" lon="2.94376">
        <ele>-27</ele>
        <time>2018-06-24T09:34:38Z</time>
      </trkpt>
      <trkpt lat="50.5538" lon="2.94354">
        <ele>-27.4</ele>
        <time>2018-06-24T09:34:42Z</time>
      </trkpt>
      <trkpt lat="50.55371" lon="2.94333">
        <ele>-27.2</ele>
        <time>2018-06-24T09:34:46Z</time>
      </trkpt>
      <trkpt lat="50.55364" lon="2.94312">
        <ele>-26.8</ele>
        <time>2018-06-24T09:34:50Z</time>
      </trkpt>
      <trkpt lat="50.55356" lon="2.94291">
        <ele>-27.4</ele>
        <time>2018-06-24T09:34:54Z</time>
      </trkpt>
      <trkpt lat="50.55347" lon="2.94271">
        <ele>-27.2</ele>
        <time>2018-06-24T09:34:58Z</time>
      </trkpt>
      <trkpt lat="50.55336" lon="2.94252">
        <ele>-27.4</ele>
        <time>2018-06-24T09:35:02Z</time>
      </trkpt>
      <trkpt lat="50.55327" lon="2.94229">
        <ele>-27</ele>
        <time>2018-06-24T09:35:06Z</time>
      </trkpt>
      <trkpt lat="50.55318" lon="2.94205">
        <ele>-27.6</ele>
        <time>2018-06-24T09:35:10Z</time>
      </trkpt>
      <trkpt lat="50.55311" lon="2.94179">
        <ele>-27.8</ele>
        <time>2018-06-24T09:35:14Z</time>
      </trkpt>
      <trkpt lat="50.55304" lon="2.94155">
        <ele>-27.2</ele>
        <time>2018-06-24T09:35:18Z</time>
      </trkpt>
      <trkpt lat="50.55295" lon="2.94132">
        <ele>-26.8</ele>
        <time>2018-06-24T09:35:22Z</time>
      </trkpt>
      <trkpt lat="50.55287" lon="2.94107">
        <ele>-26.8</ele>
        <time>2018-06-24T09:35:26Z</time>
      </trkpt>
      <trkpt lat="50.55279" lon="2.94084">
        <ele>-27</ele>
        <time>2018-06-24T09:35:30Z</time>
      </trkpt>
      <trkpt lat="50.55271" lon="2.94063">
        <ele>-27.2</ele>
        <time>2018-06-24T09:35:34Z</time>
      </trkpt>
      <trkpt lat="50.55264" lon="2.94045">
        <ele>-26.6</ele>
        <time>2018-06-24T09:35:38Z</time>
      </trkpt>
      <trkpt lat="50.55259" lon="2.94024">
        <ele>-26.8</ele>
        <time>2018-06-24T09:35:42Z</time>
      </trkpt>
      <trkpt lat="50.55252" lon="2.94003">
        <ele>-26.6</ele>
        <time>2018-06-24T09:35:46Z</time>
      </trkpt>
      <trkpt lat="50.55245" lon="2.93981">
        <ele>-27</ele>
        <time>2018-06-24T09:35:50Z</time>
      </trkpt>
      <trkpt lat="50.55238" lon="2.93959">
        <ele>-26.2</ele>
        <time>2018-06-24T09:35:54Z</time>
      </trkpt>
      <trkpt lat="50.55231" lon="2.93936">
        <ele>-26.8</ele>
        <time>2018-06-24T09:35:58Z</time>
      </trkpt>
      <trkpt lat="50.55223" lon="2.93914">
        <ele>-27</ele>
        <time>2018-06-24T09:36:02Z</time>
      </trkpt>
      <trkpt lat="50.55216" lon="2.93891">
        <ele>-27</ele>
        <time>2018-06-24T09:36:06Z</time>
      </trkpt>
      <trkpt lat="50.55208" lon="2.93868">
        <ele>-26.8</ele>
        <time>2018-06-24T09:36:10Z</time>
      </trkpt>
      <trkpt lat="50.55201" lon="2.93846">
        <ele>-27.2</ele>
        <time>2018-06-24T09:36:14Z</time>
      </trkpt>
      <trkpt lat="50.55196" lon="2.93825">
        <ele>-26.8</ele>
        <time>2018-06-24T09:36:18Z</time>
      </trkpt>
      <trkpt lat="50.55193" lon="2.93806">
        <ele>-26.6</ele>
        <time>2018-06-24T09:36:22Z</time>
      </trkpt>
      <trkpt lat="50.5519" lon="2.93789">
        <ele>-27</ele>
        <time>2018-06-24T09:36:26Z</time>
      </trkpt>
      <trkpt lat="50.55185" lon="2.93775">
        <ele>-26.8</ele>
        <time>2018-06-24T09:36:30Z</time>
      </trkpt>
      <trkpt lat="50.55179" lon="2.93758">
        <ele>-26.8</ele>
        <time>2018-06-24T09:36:34Z</time>
      </trkpt>
      <trkpt lat="50.55174" lon="2.9374">
        <ele>-26.6</ele>
        <time>2018-06-24T09:36:38Z</time>
      </trkpt>
      <trkpt lat="50.55168" lon="2.93721">
        <ele>-26.8</ele>
        <time>2018-06-24T09:36:42Z</time>
      </trkpt>
      <trkpt lat="50.55161" lon="2.93703">
        <ele>-26.6</ele>
        <time>2018-06-24T09:36:46Z</time>
      </trkpt>
      <trkpt lat="50.55155" lon="2.93684">
        <ele>-27</ele>
        <time>2018-06-24T09:36:50Z</time>
      </trkpt>
      <trkpt lat="50.55148" lon="2.93665">
        <ele>-26.6</ele>
        <time>2018-06-24T09:36:54Z</time>
      </trkpt>
      <trkpt lat="50.55141" lon="2.93644">
        <ele>-26.6</ele>
        <time>2018-06-24T09:36:58Z</time>
      </trkpt>
      <trkpt lat="50.55134" lon="2.93622">
        <ele>-26.8</ele>
        <time>2018-06-24T09:37:02Z</time>
      </trkpt>
      <trkpt lat="50.55126" lon="2.936">
        <ele>-26.8</ele>
        <time>2018-06-24T09:37:06Z</time>
      </trkpt>
      <trkpt lat="50.55119" lon="2.93577">
        <ele>-26.6</ele>
        <time>2018-06-24T09:37:10Z</time>
      </trkpt>
      <trkpt lat="50.55111" lon="2.93556">
        <ele>-26.6</ele>
        <time>2018-06-24T09:37:14Z</time>
      </trkpt>
      <trkpt lat="50.55103" lon="2.93534">
        <ele>-26.6</ele>
        <time>2018-06-24T09:37:18Z</time>
      </trkpt>
      <trkpt lat="50.55095" lon="2.93513">
        <ele>-26.6</ele>
        <time>2018-06-24T09:37:22Z</time>
      </trkpt>
      <trkpt lat="50.55088" lon="2.93489">
        <ele>-27</ele>
        <time>2018-06-24T09:37:26Z</time>
      </trkpt>
      <trkpt lat="50.5508" lon="2.93467">
        <ele>-26.4</ele>
        <time>2018-06-24T09:37:30Z</time>
      </trkpt>
      <trkpt lat="50.55074" lon="2.93446">
        <ele>-26.4</ele>
        <time>2018-06-24T09:37:34Z</time>
      </trkpt>
      <trkpt lat="50.55066" lon="2.93424">
        <ele>-26.4</ele>
        <time>2018-06-24T09:37:38Z</time>
      </trkpt>
      <trkpt lat="50.5506" lon="2.93403">
        <ele>-26.8</ele>
        <time>2018-06-24T09:37:42Z</time>
      </trkpt>
      <trkpt lat="50.55053" lon="2.93382">
        <ele>-26.6</ele>
        <time>2018-06-24T09:37:46Z</time>
      </trkpt>
      <trkpt lat="50.55046" lon="2.9336">
        <ele>-26.8</ele>
        <time>2018-06-24T09:37:50Z</time>
      </trkpt>
      <trkpt lat="50.55038" lon="2.93338">
        <ele>-26.8</ele>
        <time>2018-06-24T09:37:54Z</time>
      </trkpt>
      <trkpt lat="50.5503" lon="2.93317">
        <ele>-26.4</ele>
        <time>2018-06-24T09:37:58Z</time>
      </trkpt>
      <trkpt lat="50.55024" lon="2.93294">
        <ele>-27.4</ele>
        <time>2018-06-24T09:38:02Z</time>
      </trkpt>
      <trkpt lat="50.55014" lon="2.93275">
        <ele>-27.2</ele>
        <time>2018-06-24T09:38:06Z</time>
      </trkpt>
      <trkpt lat="50.55006" lon="2.93253">
        <ele>-27.4</ele>
        <time>2018-06-24T09:38:10Z</time>
      </trkpt>
      <trkpt lat="50.54998" lon="2.9323">
        <ele>-27</ele>
        <time>2018-06-24T09:38:14Z</time>
      </trkpt>
      <trkpt lat="50.54989" lon="2.93211">
        <ele>-26.6</ele>
        <time>2018-06-24T09:38:18Z</time>
      </trkpt>
      <trkpt lat="50.54982" lon="2.93188">
        <ele>-27.2</ele>
        <time>2018-06-24T09:38:22Z</time>
      </trkpt>
      <trkpt lat="50.54975" lon="2.93165">
        <ele>-27</ele>
        <time>2018-06-24T09:38:26Z</time>
      </trkpt>
      <trkpt lat="50.54965" lon="2.93143">
        <ele>-26.2</ele>
        <time>2018-06-24T09:38:30Z</time>
      </trkpt>
      <trkpt lat="50.5496" lon="2.93116">
        <ele>-26.8</ele>
        <time>2018-06-24T09:38:34Z</time>
      </trkpt>
      <trkpt lat="50.54952" lon="2.93093">
        <ele>-27.2</ele>
        <time>2018-06-24T09:38:38Z</time>
      </trkpt>
      <trkpt lat="50.54944" lon="2.9307">
        <ele>-27.4</ele>
        <time>2018-06-24T09:38:42Z</time>
      </trkpt>
      <trkpt lat="50.54937" lon="2.9305">
        <ele>-27.2</ele>
        <time>2018-06-24T09:38:46Z</time>
      </trkpt>
      <trkpt lat="50.5493" lon="2.93026">
        <ele>-27.4</ele>
        <time>2018-06-24T09:38:50Z</time>
      </trkpt>
      <trkpt lat="50.54924" lon="2.93003">
        <ele>-27</ele>
        <time>2018-06-24T09:38:54Z</time>
      </trkpt>
      <trkpt lat="50.54917" lon="2.92983">
        <ele>-27.8</ele>
        <time>2018-06-24T09:38:58Z</time>
      </trkpt>
      <trkpt lat="50.54909" lon="2.92961">
        <ele>-27.4</ele>
        <time>2018-06-24T09:39:02Z</time>
      </trkpt>
      <trkpt lat="50.54901" lon="2.92938">
        <ele>-27</ele>
        <time>2018-06-24T09:39:06Z</time>
      </trkpt>
      <trkpt lat="50.54893" lon="2.92915">
        <ele>-27.2</ele>
        <time>2018-06-24T09:39:10Z</time>
      </trkpt>
      <trkpt lat="50.54885" lon="2.92891">
        <ele>-27.2</ele>
        <time>2018-06-24T09:39:14Z</time>
      </trkpt>
      <trkpt lat="50.54877" lon="2.92865">
        <ele>-27.4</ele>
        <time>2018-06-24T09:39:18Z</time>
      </trkpt>
      <trkpt lat="50.54868" lon="2.92839">
        <ele>-27</ele>
        <time>2018-06-24T09:39:22Z</time>
      </trkpt>
      <trkpt lat="50.5486" lon="2.92814">
        <ele>-27.4</ele>
        <time>2018-06-24T09:39:26Z</time>
      </trkpt>
      <trkpt lat="50.54851" lon="2.92789">
        <ele>-27.4</ele>
        <time>2018-06-24T09:39:30Z</time>
      </trkpt>
      <trkpt lat="50.54843" lon="2.92763">
        <ele>-28</ele>
        <time>2018-06-24T09:39:34Z</time>
      </trkpt>
      <trkpt lat="50.54835" lon="2.92739">
        <ele>-27.4</ele>
        <time>2018-06-24T09:39:38Z</time>
      </trkpt>
      <trkpt lat="50.54826" lon="2.92713">
        <ele>-27</ele>
        <time>2018-06-24T09:39:42Z</time>
      </trkpt>
      <trkpt lat="50.54817" lon="2.92689">
        <ele>-27.4</ele>
        <time>2018-06-24T09:39:46Z</time>
      </trkpt>
      <trkpt lat="50.54808" lon="2.92665">
        <ele>-27.4</ele>
        <time>2018-06-24T09:39:50Z</time>
      </trkpt>
      <trkpt lat="50.54795" lon="2.92646">
        <ele>-26.4</ele>
        <time>2018-06-24T09:39:54Z</time>
      </trkpt>
      <trkpt lat="50.54784" lon="2.92633">
        <ele>-26.8</ele>
        <time>2018-06-24T09:39:58Z</time>
      </trkpt>
      <trkpt lat="50.54782" lon="2.92619">
        <ele>-26.6</ele>
        <time>2018-06-24T09:40:02Z</time>
      </trkpt>
      <trkpt lat="50.54776" lon="2.92605">
        <ele>-27</ele>
        <time>2018-06-24T09:40:06Z</time>
      </trkpt>
      <trkpt lat="50.54766" lon="2.92585">
        <ele>-27</ele>
        <time>2018-06-24T09:40:10Z</time>
      </trkpt>
      <trkpt lat="50.54759" lon="2.92561">
        <ele>-27.2</ele>
        <time>2018-06-24T09:40:14Z</time>
      </trkpt>
      <trkpt lat="50.54749" lon="2.92536">
        <ele>-26.8</ele>
        <time>2018-06-24T09:40:18Z</time>
      </trkpt>
      <trkpt lat="50.5474" lon="2.92511">
        <ele>-26.8</ele>
        <time>2018-06-24T09:40:22Z</time>
      </trkpt>
      <trkpt lat="50.54732" lon="2.92484">
        <ele>-26.4</ele>
        <time>2018-06-24T09:40:26Z</time>
      </trkpt>
      <trkpt lat="50.54721" lon="2.9246">
        <ele>-27.2</ele>
        <time>2018-06-24T09:40:30Z</time>
      </trkpt>
      <trkpt lat="50.54711" lon="2.92436">
        <ele>-27.2</ele>
        <time>2018-06-24T09:40:34Z</time>
      </trkpt>
      <trkpt lat="50.54704" lon="2.92412">
        <ele>-27.6</ele>
        <time>2018-06-24T09:40:38Z</time>
      </trkpt>
      <trkpt lat="50.54697" lon="2.92389">
        <ele>-27.4</ele>
        <time>2018-06-24T09:40:42Z</time>
      </trkpt>
      <trkpt lat="50.54693" lon="2.92361">
        <ele>-27.4</ele>
        <time>2018-06-24T09:40:46Z</time>
      </trkpt>
      <trkpt lat="50.54692" lon="2.92333">
        <ele>-27.2</ele>
        <time>2018-06-24T09:40:50Z</time>
      </trkpt>
      <trkpt lat="50.54686" lon="2.92308">
        <ele>-27</ele>
        <time>2018-06-24T09:40:54Z</time>
      </trkpt>
      <trkpt lat="50.5468" lon="2.92287">
        <ele>-27.8</ele>
        <time>2018-06-24T09:40:58Z</time>
      </trkpt>
      <trkpt lat="50.54674" lon="2.92268">
        <ele>-27.4</ele>
        <time>2018-06-24T09:41:02Z</time>
      </trkpt>
      <trkpt lat="50.54668" lon="2.92247">
        <ele>-27</ele>
        <time>2018-06-24T09:41:06Z</time>
      </trkpt>
      <trkpt lat="50.54661" lon="2.92225">
        <ele>-27.8</ele>
        <time>2018-06-24T09:41:10Z</time>
      </trkpt>
      <trkpt lat="50.54656" lon="2.92206">
        <ele>-27</ele>
        <time>2018-06-24T09:41:14Z</time>
      </trkpt>
      <trkpt lat="50.5465" lon="2.92185">
        <ele>-27.6</ele>
        <time>2018-06-24T09:41:18Z</time>
      </trkpt>
      <trkpt lat="50.54646" lon="2.92166">
        <ele>-27.2</ele>
        <time>2018-06-24T09:41:22Z</time>
      </trkpt>
      <trkpt lat="50.54641" lon="2.9215">
        <ele>-27.4</ele>
        <time>2018-06-24T09:41:26Z</time>
      </trkpt>
      <trkpt lat="50.54637" lon="2.92131">
        <ele>-27.4</ele>
        <time>2018-06-24T09:41:30Z</time>
      </trkpt>
      <trkpt lat="50.54635" lon="2.92109">
        <ele>-27</ele>
        <time>2018-06-24T09:41:34Z</time>
      </trkpt>
      <trkpt lat="50.54634" lon="2.92087">
        <ele>-27.2</ele>
        <time>2018-06-24T09:41:38Z</time>
      </trkpt>
      <trkpt lat="50.54632" lon="2.92066">
        <ele>-27.2</ele>
        <time>2018-06-24T09:41:42Z</time>
      </trkpt>
      <trkpt lat="50.54629" lon="2.92048">
        <ele>-26.6</ele>
        <time>2018-06-24T09:41:46Z</time>
      </trkpt>
      <trkpt lat="50.54626" lon="2.92031">
        <ele>-26.8</ele>
        <time>2018-06-24T09:41:50Z</time>
      </trkpt>
      <trkpt lat="50.54623" lon="2.92012">
        <ele>-26.6</ele>
        <time>2018-06-24T09:41:54Z</time>
      </trkpt>
      <trkpt lat="50.54617" lon="2.91996">
        <ele>-25.4</ele>
        <time>2018-06-24T09:41:58Z</time>
      </trkpt>
      <trkpt lat="50.54609" lon="2.91988">
        <ele>-25.2</ele>
        <time>2018-06-24T09:42:02Z</time>
      </trkpt>
      <trkpt lat="50.54607" lon="2.91978">
        <ele>-25</ele>
        <time>2018-06-24T09:42:06Z</time>
      </trkpt>
      <trkpt lat="50.5461" lon="2.91963">
        <ele>-25.2</ele>
        <time>2018-06-24T09:42:10Z</time>
      </trkpt>
      <trkpt lat="50.54613" lon="2.91953">
        <ele>-25.6</ele>
        <time>2018-06-24T09:42:14Z</time>
      </trkpt>
      <trkpt lat="50.54608" lon="2.91947">
        <ele>-25.6</ele>
        <time>2018-06-24T09:42:18Z</time>
      </trkpt>
      <trkpt lat="50.546" lon="2.91945">
        <ele>-25.2</ele>
        <time>2018-06-24T09:42:22Z</time>
      </trkpt>
      <trkpt lat="50.5459" lon="2.91944">
        <ele>-25.2</ele>
        <time>2018-06-24T09:42:26Z</time>
      </trkpt>
      <trkpt lat="50.54579" lon="2.91941">
        <ele>-25</ele>
        <time>2018-06-24T09:42:30Z</time>
      </trkpt>
      <trkpt lat="50.54571" lon="2.91934">
        <ele>-25.2</ele>
        <time>2018-06-24T09:42:34Z</time>
      </trkpt>
      <trkpt lat="50.54563" lon="2.91927">
        <ele>-25.2</ele>
        <time>2018-06-24T09:42:38Z</time>
      </trkpt>
      <trkpt lat="50.54554" lon="2.91924">
        <ele>-25.2</ele>
        <time>2018-06-24T09:42:42Z</time>
      </trkpt>
      <trkpt lat="50.54544" lon="2.91922">
        <ele>-25.2</ele>
        <time>2018-06-24T09:42:46Z</time>
      </trkpt>
      <trkpt lat="50.54534" lon="2.9192">
        <ele>-25</ele>
        <time>2018-06-24T09:42:50Z</time>
      </trkpt>
      <trkpt lat="50.54523" lon="2.91919">
        <ele>-24.8</ele>
        <time>2018-06-24T09:42:54Z</time>
      </trkpt>
      <trkpt lat="50.54512" lon="2.91916">
        <ele>-25.2</ele>
        <time>2018-06-24T09:42:58Z</time>
      </trkpt>
      <trkpt lat="50.54499" lon="2.91912">
        <ele>-25.4</ele>
        <time>2018-06-24T09:43:02Z</time>
      </trkpt>
      <trkpt lat="50.54486" lon="2.91909">
        <ele>-25.4</ele>
        <time>2018-06-24T09:43:06Z</time>
      </trkpt>
      <trkpt lat="50.54472" lon="2.91905">
        <ele>-25</ele>
        <time>2018-06-24T09:43:10Z</time>
      </trkpt>
      <trkpt lat="50.54458" lon="2.91903">
        <ele>-25.4</ele>
        <time>2018-06-24T09:43:14Z</time>
      </trkpt>
      <trkpt lat="50.54445" lon="2.919">
        <ele>-25.2</ele>
        <time>2018-06-24T09:43:18Z</time>
      </trkpt>
      <trkpt lat="50.54433" lon="2.91897">
        <ele>-25.6</ele>
        <time>2018-06-24T09:43:22Z</time>
      </trkpt>
      <trkpt lat="50.54423" lon="2.91892">
        <ele>-26</ele>
        <time>2018-06-24T09:43:26Z</time>
      </trkpt>
      <trkpt lat="50.54411" lon="2.91891">
        <ele>-25.2</ele>
        <time>2018-06-24T09:43:30Z</time>
      </trkpt>
      <trkpt lat="50.544" lon="2.91898">
        <ele>-25.4</ele>
        <time>2018-06-24T09:43:34Z</time>
      </trkpt>
      <trkpt lat="50.54388" lon="2.919">
        <ele>-25.4</ele>
        <time>2018-06-24T09:43:38Z</time>
      </trkpt>
      <trkpt lat="50.54384" lon="2.91885">
        <ele>-25.6</ele>
        <time>2018-06-24T09:43:42Z</time>
      </trkpt>
      <trkpt lat="50.5438" lon="2.91868">
        <ele>-25.6</ele>
        <time>2018-06-24T09:43:46Z</time>
      </trkpt>
      <trkpt lat="50.54376" lon="2.91854">
        <ele>-26</ele>
        <time>2018-06-24T09:43:50Z</time>
      </trkpt>
      <trkpt lat="50.5437" lon="2.91841">
        <ele>-25.6</ele>
        <time>2018-06-24T09:43:54Z</time>
      </trkpt>
      <trkpt lat="50.54364" lon="2.91826">
        <ele>-25.4</ele>
        <time>2018-06-24T09:43:58Z</time>
      </trkpt>
      <trkpt lat="50.54361" lon="2.91812">
        <ele>-25.6</ele>
        <time>2018-06-24T09:44:02Z</time>
      </trkpt>
      <trkpt lat="50.54353" lon="2.91799">
        <ele>-26</ele>
        <time>2018-06-24T09:44:06Z</time>
      </trkpt>
      <trkpt lat="50.54345" lon="2.91783">
        <ele>-26</ele>
        <time>2018-06-24T09:44:10Z</time>
      </trkpt>
      <trkpt lat="50.5434" lon="2.91765">
        <ele>-26</ele>
        <time>2018-06-24T09:44:14Z</time>
      </trkpt>
      <trkpt lat="50.54338" lon="2.91746">
        <ele>-25</ele>
        <time>2018-06-24T09:44:18Z</time>
      </trkpt>
      <trkpt lat="50.54336" lon="2.91727">
        <ele>-24.8</ele>
        <time>2018-06-24T09:44:22Z</time>
      </trkpt>
      <trkpt lat="50.54331" lon="2.91713">
        <ele>-24.6</ele>
        <time>2018-06-24T09:44:26Z</time>
      </trkpt>
      <trkpt lat="50.54323" lon="2.91711">
        <ele>-24.6</ele>
        <time>2018-06-24T09:44:30Z</time>
      </trkpt>
      <trkpt lat="50.54313" lon="2.91708">
        <ele>-24.8</ele>
        <time>2018-06-24T09:44:34Z</time>
      </trkpt>
      <trkpt lat="50.54306" lon="2.91694">
        <ele>-24.2</ele>
        <time>2018-06-24T09:44:38Z</time>
      </trkpt>
      <trkpt lat="50.54304" lon="2.91676">
        <ele>-24.6</ele>
        <time>2018-06-24T09:44:42Z</time>
      </trkpt>
      <trkpt lat="50.54302" lon="2.91656">
        <ele>-24.6</ele>
        <time>2018-06-24T09:44:46Z</time>
      </trkpt>
      <trkpt lat="50.543" lon="2.91637">
        <ele>-24.2</ele>
        <time>2018-06-24T09:44:50Z</time>
      </trkpt>
      <trkpt lat="50.54298" lon="2.91616">
        <ele>-24.2</ele>
        <time>2018-06-24T09:44:54Z</time>
      </trkpt>
      <trkpt lat="50.54295" lon="2.91595">
        <ele>-24.6</ele>
        <time>2018-06-24T09:44:58Z</time>
      </trkpt>
      <trkpt lat="50.54292" lon="2.91571">
        <ele>-24.4</ele>
        <time>2018-06-24T09:45:02Z</time>
      </trkpt>
      <trkpt lat="50.54289" lon="2.91547">
        <ele>-23.8</ele>
        <time>2018-06-24T09:45:06Z</time>
      </trkpt>
      <trkpt lat="50.54286" lon="2.91523">
        <ele>-23.8</ele>
        <time>2018-06-24T09:45:10Z</time>
      </trkpt>
      <trkpt lat="50.54282" lon="2.91499">
        <ele>-24</ele>
        <time>2018-06-24T09:45:14Z</time>
      </trkpt>
      <trkpt lat="50.54279" lon="2.91476">
        <ele>-24.2</ele>
        <time>2018-06-24T09:45:18Z</time>
      </trkpt>
      <trkpt lat="50.54277" lon="2.91452">
        <ele>-24</ele>
        <time>2018-06-24T09:45:22Z</time>
      </trkpt>
      <trkpt lat="50.54275" lon="2.91429">
        <ele>-24.2</ele>
        <time>2018-06-24T09:45:26Z</time>
      </trkpt>
      <trkpt lat="50.5427" lon="2.91407">
        <ele>-24.6</ele>
        <time>2018-06-24T09:45:30Z</time>
      </trkpt>
      <trkpt lat="50.54269" lon="2.91384">
        <ele>-23.8</ele>
        <time>2018-06-24T09:45:34Z</time>
      </trkpt>
      <trkpt lat="50.54274" lon="2.91365">
        <ele>-24.6</ele>
        <time>2018-06-24T09:45:38Z</time>
      </trkpt>
      <trkpt lat="50.54282" lon="2.91349">
        <ele>-24.8</ele>
        <time>2018-06-24T09:45:42Z</time>
      </trkpt>
      <trkpt lat="50.54286" lon="2.91329">
        <ele>-23.8</ele>
        <time>2018-06-24T09:45:46Z</time>
      </trkpt>
      <trkpt lat="50.54292" lon="2.91312">
        <ele>-23.2</ele>
        <time>2018-06-24T09:45:50Z</time>
      </trkpt>
      <trkpt lat="50.54298" lon="2.91298">
        <ele>-23.4</ele>
        <time>2018-06-24T09:45:54Z</time>
      </trkpt>
      <trkpt lat="50.54305" lon="2.91286">
        <ele>-23</ele>
        <time>2018-06-24T09:45:58Z</time>
      </trkpt>
      <trkpt lat="50.54314" lon="2.91273">
        <ele>-23.2</ele>
        <time>2018-06-24T09:46:02Z</time>
      </trkpt>
      <trkpt lat="50.54325" lon="2.91266">
        <ele>-23.6</ele>
        <time>2018-06-24T09:46:06Z</time>
      </trkpt>
      <trkpt lat="50.54332" lon="2.91274">
        <ele>-22.8</ele>
        <time>2018-06-24T09:46:10Z</time>
      </trkpt>
      <trkpt lat="50.54337" lon="2.91283">
        <ele>-22.8</ele>
        <time>2018-06-24T09:46:14Z</time>
      </trkpt>
      <trkpt lat="50.54345" lon="2.91298">
        <ele>-22.8</ele>
        <time>2018-06-24T09:46:18Z</time>
      </trkpt>
      <trkpt lat="50.54354" lon="2.91315">
        <ele>-23.6</ele>
        <time>2018-06-24T09:46:22Z</time>
      </trkpt>
      <trkpt lat="50.54368" lon="2.91331">
        <ele>-24.2</ele>
        <time>2018-06-24T09:46:26Z</time>
      </trkpt>
      <trkpt lat="50.54389" lon="2.91333">
        <ele>-24.4</ele>
        <time>2018-06-24T09:46:30Z</time>
      </trkpt>
      <trkpt lat="50.54404" lon="2.91328">
        <ele>-24.2</ele>
        <time>2018-06-24T09:46:34Z</time>
      </trkpt>
      <trkpt lat="50.54419" lon="2.91326">
        <ele>-24.4</ele>
        <time>2018-06-24T09:46:38Z</time>
      </trkpt>
      <trkpt lat="50.54432" lon="2.91323">
        <ele>-24</ele>
        <time>2018-06-24T09:46:42Z</time>
      </trkpt>
      <trkpt lat="50.54442" lon="2.91315">
        <ele>-24</ele>
        <time>2018-06-24T09:46:46Z</time>
      </trkpt>
      <trkpt lat="50.54449" lon="2.91309">
        <ele>-24.4</ele>
        <time>2018-06-24T09:46:50Z</time>
      </trkpt>
      <trkpt lat="50.54454" lon="2.91303">
        <ele>-24</ele>
        <time>2018-06-24T09:46:54Z</time>
      </trkpt>
      <trkpt lat="50.54456" lon="2.91298">
        <ele>-24.2</ele>
        <time>2018-06-24T09:46:58Z</time>
      </trkpt>
      <trkpt lat="50.54455" lon="2.91289">
        <ele>-24.2</ele>
        <time>2018-06-24T09:47:02Z</time>
      </trkpt>
      <trkpt lat="50.54452" lon="2.9128">
        <ele>-24.2</ele>
        <time>2018-06-24T09:47:06Z</time>
      </trkpt>
      <trkpt lat="50.5445" lon="2.91272">
        <ele>-24</ele>
        <time>2018-06-24T09:47:10Z</time>
      </trkpt>
      <trkpt lat="50.54448" lon="2.91265">
        <ele>-24.2</ele>
        <time>2018-06-24T09:47:14Z</time>
      </trkpt>
      <trkpt lat="50.54446" lon="2.91256">
        <ele>-24.2</ele>
        <time>2018-06-24T09:47:18Z</time>
      </trkpt>
      <trkpt lat="50.54442" lon="2.91246">
        <ele>-24</ele>
        <time>2018-06-24T09:47:22Z</time>
      </trkpt>
      <trkpt lat="50.54437" lon="2.91231">
        <ele>-23.8</ele>
        <time>2018-06-24T09:47:26Z</time>
      </trkpt>
      <trkpt lat="50.54437" lon="2.91215">
        <ele>-24</ele>
        <time>2018-06-24T09:47:30Z</time>
      </trkpt>
      <trkpt lat="50.54436" lon="2.912">
        <ele>-24.2</ele>
        <time>2018-06-24T09:47:34Z</time>
      </trkpt>
      <trkpt lat="50.54433" lon="2.91183">
        <ele>-24</ele>
        <time>2018-06-24T09:47:38Z</time>
      </trkpt>
      <trkpt lat="50.54429" lon="2.91165">
        <ele>-24.2</ele>
        <time>2018-06-24T09:47:42Z</time>
      </trkpt>
      <trkpt lat="50.54424" lon="2.91147">
        <ele>-23.8</ele>
        <time>2018-06-24T09:47:46Z</time>
      </trkpt>
      <trkpt lat="50.54417" lon="2.91128">
        <ele>-23.6</ele>
        <time>2018-06-24T09:47:50Z</time>
      </trkpt>
      <trkpt lat="50.54409" lon="2.9111">
        <ele>-23.8</ele>
        <time>2018-06-24T09:47:54Z</time>
      </trkpt>
      <trkpt lat="50.544" lon="2.91091">
        <ele>-23.8</ele>
        <time>2018-06-24T09:47:58Z</time>
      </trkpt>
      <trkpt lat="50.54391" lon="2.91071">
        <ele>-24</ele>
        <time>2018-06-24T09:48:02Z</time>
      </trkpt>
      <trkpt lat="50.54381" lon="2.91051">
        <ele>-23.8</ele>
        <time>2018-06-24T09:48:06Z</time>
      </trkpt>
      <trkpt lat="50.54372" lon="2.91031">
        <ele>-23.6</ele>
        <time>2018-06-24T09:48:10Z</time>
      </trkpt>
      <trkpt lat="50.54361" lon="2.9101">
        <ele>-24</ele>
        <time>2018-06-24T09:48:14Z</time>
      </trkpt>
      <trkpt lat="50.54351" lon="2.90991">
        <ele>-24</ele>
        <time>2018-06-24T09:48:18Z</time>
      </trkpt>
      <trkpt lat="50.5434" lon="2.90972">
        <ele>-24.8</ele>
        <time>2018-06-24T09:48:22Z</time>
      </trkpt>
      <trkpt lat="50.54328" lon="2.90952">
        <ele>-24.6</ele>
        <time>2018-06-24T09:48:26Z</time>
      </trkpt>
      <trkpt lat="50.54317" lon="2.90933">
        <ele>-24.2</ele>
        <time>2018-06-24T09:48:30Z</time>
      </trkpt>
      <trkpt lat="50.54306" lon="2.90916">
        <ele>-23.6</ele>
        <time>2018-06-24T09:48:34Z</time>
      </trkpt>
      <trkpt lat="50.54295" lon="2.90899">
        <ele>-23.8</ele>
        <time>2018-06-24T09:48:38Z</time>
      </trkpt>
      <trkpt lat="50.54283" lon="2.90881">
        <ele>-24.6</ele>
        <time>2018-06-24T09:48:42Z</time>
      </trkpt>
      <trkpt lat="50.54271" lon="2.90865">
        <ele>-23.8</ele>
        <time>2018-06-24T09:48:46Z</time>
      </trkpt>
      <trkpt lat="50.54258" lon="2.90849">
        <ele>-24.2</ele>
        <time>2018-06-24T09:48:50Z</time>
      </trkpt>
      <trkpt lat="50.54246" lon="2.90834">
        <ele>-23.6</ele>
        <time>2018-06-24T09:48:54Z</time>
      </trkpt>
      <trkpt lat="50.54233" lon="2.90819">
        <ele>-24.2</ele>
        <time>2018-06-24T09:48:58Z</time>
      </trkpt>
      <trkpt lat="50.5422" lon="2.90805">
        <ele>-23.8</ele>
        <time>2018-06-24T09:49:02Z</time>
      </trkpt>
      <trkpt lat="50.54207" lon="2.9079">
        <ele>-24</ele>
        <time>2018-06-24T09:49:06Z</time>
      </trkpt>
      <trkpt lat="50.54193" lon="2.90776">
        <ele>-23.6</ele>
        <time>2018-06-24T09:49:10Z</time>
      </trkpt>
      <trkpt lat="50.54187" lon="2.90754">
        <ele>-23.6</ele>
        <time>2018-06-24T09:49:14Z</time>
      </trkpt>
      <trkpt lat="50.54186" lon="2.90728">
        <ele>-24</ele>
        <time>2018-06-24T09:49:18Z</time>
      </trkpt>
      <trkpt lat="50.54175" lon="2.90708">
        <ele>-24</ele>
        <time>2018-06-24T09:49:22Z</time>
      </trkpt>
      <trkpt lat="50.5416" lon="2.90697">
        <ele>-24</ele>
        <time>2018-06-24T09:49:26Z</time>
      </trkpt>
      <trkpt lat="50.54147" lon="2.90684">
        <ele>-24</ele>
        <time>2018-06-24T09:49:30Z</time>
      </trkpt>
      <trkpt lat="50.54133" lon="2.9068">
        <ele>-23.8</ele>
        <time>2018-06-24T09:49:34Z</time>
      </trkpt>
      <trkpt lat="50.54116" lon="2.90676">
        <ele>-23.6</ele>
        <time>2018-06-24T09:49:38Z</time>
      </trkpt>
      <trkpt lat="50.54099" lon="2.9067">
        <ele>-23.8</ele>
        <time>2018-06-24T09:49:42Z</time>
      </trkpt>
      <trkpt lat="50.54088" lon="2.90654">
        <ele>-24</ele>
        <time>2018-06-24T09:49:46Z</time>
      </trkpt>
      <trkpt lat="50.54076" lon="2.90637">
        <ele>-23.8</ele>
        <time>2018-06-24T09:49:50Z</time>
      </trkpt>
      <trkpt lat="50.54062" lon="2.90621">
        <ele>-23.8</ele>
        <time>2018-06-24T09:49:54Z</time>
      </trkpt>
      <trkpt lat="50.54048" lon="2.90606">
        <ele>-24</ele>
        <time>2018-06-24T09:49:58Z</time>
      </trkpt>
      <trkpt lat="50.54033" lon="2.90592">
        <ele>-24</ele>
        <time>2018-06-24T09:50:02Z</time>
      </trkpt>
      <trkpt lat="50.54019" lon="2.90577">
        <ele>-24.2</ele>
        <time>2018-06-24T09:50:06Z</time>
      </trkpt>
      <trkpt lat="50.54004" lon="2.90563">
        <ele>-24.4</ele>
        <time>2018-06-24T09:50:10Z</time>
      </trkpt>
      <trkpt lat="50.53989" lon="2.90548">
        <ele>-24.4</ele>
        <time>2018-06-24T09:50:14Z</time>
      </trkpt>
      <trkpt lat="50.53975" lon="2.90534">
        <ele>-24.2</ele>
        <time>2018-06-24T09:50:18Z</time>
      </trkpt>
      <trkpt lat="50.5396" lon="2.90521">
        <ele>-24.2</ele>
        <time>2018-06-24T09:50:22Z</time>
      </trkpt>
      <trkpt lat="50.53945" lon="2.90508">
        <ele>-23.6</ele>
        <time>2018-06-24T09:50:26Z</time>
      </trkpt>
      <trkpt lat="50.53929" lon="2.90495">
        <ele>-23.6</ele>
        <time>2018-06-24T09:50:30Z</time>
      </trkpt>
      <trkpt lat="50.53913" lon="2.9048">
        <ele>-23.8</ele>
        <time>2018-06-24T09:50:34Z</time>
      </trkpt>
      <trkpt lat="50.53898" lon="2.90465">
        <ele>-23.6</ele>
        <time>2018-06-24T09:50:38Z</time>
      </trkpt>
      <trkpt lat="50.53882" lon="2.90451">
        <ele>-23.6</ele>
        <time>2018-06-24T09:50:42Z</time>
      </trkpt>
      <trkpt lat="50.53867" lon="2.90436">
        <ele>-23.6</ele>
        <time>2018-06-24T09:50:46Z</time>
      </trkpt>
      <trkpt lat="50.53851" lon="2.90422">
        <ele>-23.6</ele>
        <time>2018-06-24T09:50:50Z</time>
      </trkpt>
      <trkpt lat="50.53836" lon="2.90408">
        <ele>-23.6</ele>
        <time>2018-06-24T09:50:54Z</time>
      </trkpt>
      <trkpt lat="50.5382" lon="2.90394">
        <ele>-23.4</ele>
        <time>2018-06-24T09:50:58Z</time>
      </trkpt>
      <trkpt lat="50.53805" lon="2.90379">
        <ele>-23.4</ele>
        <time>2018-06-24T09:51:02Z</time>
      </trkpt>
      <trkpt lat="50.53789" lon="2.90365">
        <ele>-23.6</ele>
        <time>2018-06-24T09:51:06Z</time>
      </trkpt>
      <trkpt lat="50.53775" lon="2.90352">
        <ele>-23.6</ele>
        <time>2018-06-24T09:51:10Z</time>
      </trkpt>
      <trkpt lat="50.53761" lon="2.90339">
        <ele>-23.6</ele>
        <time>2018-06-24T09:51:14Z</time>
      </trkpt>
      <trkpt lat="50.53745" lon="2.90324">
        <ele>-23.6</ele>
        <time>2018-06-24T09:51:18Z</time>
      </trkpt>
      <trkpt lat="50.5373" lon="2.90307">
        <ele>-23.6</ele>
        <time>2018-06-24T09:51:22Z</time>
      </trkpt>
      <trkpt lat="50.53714" lon="2.90291">
        <ele>-23.4</ele>
        <time>2018-06-24T09:51:26Z</time>
      </trkpt>
      <trkpt lat="50.53699" lon="2.90274">
        <ele>-22.8</ele>
        <time>2018-06-24T09:51:30Z</time>
      </trkpt>
      <trkpt lat="50.53684" lon="2.90258">
        <ele>-23.4</ele>
        <time>2018-06-24T09:51:34Z</time>
      </trkpt>
      <trkpt lat="50.53669" lon="2.90241">
        <ele>-23.4</ele>
        <time>2018-06-24T09:51:38Z</time>
      </trkpt>
      <trkpt lat="50.53654" lon="2.90223">
        <ele>-23.6</ele>
        <time>2018-06-24T09:51:42Z</time>
      </trkpt>
      <trkpt lat="50.5364" lon="2.90206">
        <ele>-23.2</ele>
        <time>2018-06-24T09:51:46Z</time>
      </trkpt>
      <trkpt lat="50.53626" lon="2.90186">
        <ele>-23.4</ele>
        <time>2018-06-24T09:51:50Z</time>
      </trkpt>
      <trkpt lat="50.53611" lon="2.90168">
        <ele>-23</ele>
        <time>2018-06-24T09:51:54Z</time>
      </trkpt>
      <trkpt lat="50.53597" lon="2.90151">
        <ele>-23.4</ele>
        <time>2018-06-24T09:51:58Z</time>
      </trkpt>
      <trkpt lat="50.53584" lon="2.90132">
        <ele>-23.2</ele>
        <time>2018-06-24T09:52:02Z</time>
      </trkpt>
      <trkpt lat="50.53569" lon="2.90113">
        <ele>-22.8</ele>
        <time>2018-06-24T09:52:06Z</time>
      </trkpt>
      <trkpt lat="50.53555" lon="2.90094">
        <ele>-23.2</ele>
        <time>2018-06-24T09:52:10Z</time>
      </trkpt>
      <trkpt lat="50.53541" lon="2.90076">
        <ele>-22.8</ele>
        <time>2018-06-24T09:52:14Z</time>
      </trkpt>
      <trkpt lat="50.53527" lon="2.90057">
        <ele>-23.2</ele>
        <time>2018-06-24T09:52:18Z</time>
      </trkpt>
      <trkpt lat="50.53514" lon="2.90039">
        <ele>-23.2</ele>
        <time>2018-06-24T09:52:22Z</time>
      </trkpt>
      <trkpt lat="50.53501" lon="2.9002">
        <ele>-23.2</ele>
        <time>2018-06-24T09:52:26Z</time>
      </trkpt>
      <trkpt lat="50.53487" lon="2.90002">
        <ele>-23.2</ele>
        <time>2018-06-24T09:52:30Z</time>
      </trkpt>
      <trkpt lat="50.53473" lon="2.89983">
        <ele>-23.4</ele>
        <time>2018-06-24T09:52:34Z</time>
      </trkpt>
      <trkpt lat="50.53459" lon="2.89965">
        <ele>-23.6</ele>
        <time>2018-06-24T09:52:38Z</time>
      </trkpt>
      <trkpt lat="50.53446" lon="2.89949">
        <ele>-24</ele>
        <time>2018-06-24T09:52:42Z</time>
      </trkpt>
      <trkpt lat="50.53431" lon="2.8996">
        <ele>-24.2</ele>
        <time>2018-06-24T09:52:46Z</time>
      </trkpt>
      <trkpt lat="50.5342" lon="2.89982">
        <ele>-24</ele>
        <time>2018-06-24T09:52:50Z</time>
      </trkpt>
      <trkpt lat="50.53407" lon="2.8999">
        <ele>-24.4</ele>
        <time>2018-06-24T09:52:54Z</time>
      </trkpt>
      <trkpt lat="50.53395" lon="2.89975">
        <ele>-24.6</ele>
        <time>2018-06-24T09:52:58Z</time>
      </trkpt>
      <trkpt lat="50.53381" lon="2.89958">
        <ele>-24</ele>
        <time>2018-06-24T09:53:02Z</time>
      </trkpt>
      <trkpt lat="50.53367" lon="2.8994">
        <ele>-24.2</ele>
        <time>2018-06-24T09:53:06Z</time>
      </trkpt>
      <trkpt lat="50.53353" lon="2.89924">
        <ele>-24.2</ele>
        <time>2018-06-24T09:53:10Z</time>
      </trkpt>
      <trkpt lat="50.53339" lon="2.89907">
        <ele>-23.8</ele>
        <time>2018-06-24T09:53:14Z</time>
      </trkpt>
      <trkpt lat="50.53323" lon="2.89889">
        <ele>-24</ele>
        <time>2018-06-24T09:53:18Z</time>
      </trkpt>
      <trkpt lat="50.53308" lon="2.8987">
        <ele>-24</ele>
        <time>2018-06-24T09:53:22Z</time>
      </trkpt>
      <trkpt lat="50.53293" lon="2.89852">
        <ele>-23.6</ele>
        <time>2018-06-24T09:53:26Z</time>
      </trkpt>
      <trkpt lat="50.53278" lon="2.89833">
        <ele>-23.8</ele>
        <time>2018-06-24T09:53:30Z</time>
      </trkpt>
      <trkpt lat="50.53262" lon="2.89814">
        <ele>-24</ele>
        <time>2018-06-24T09:53:34Z</time>
      </trkpt>
      <trkpt lat="50.53247" lon="2.89796">
        <ele>-24.2</ele>
        <time>2018-06-24T09:53:38Z</time>
      </trkpt>
      <trkpt lat="50.53231" lon="2.89777">
        <ele>-23.8</ele>
        <time>2018-06-24T09:53:42Z</time>
      </trkpt>
      <trkpt lat="50.53216" lon="2.89758">
        <ele>-24.2</ele>
        <time>2018-06-24T09:53:46Z</time>
      </trkpt>
      <trkpt lat="50.532" lon="2.89739">
        <ele>-23.8</ele>
        <time>2018-06-24T09:53:50Z</time>
      </trkpt>
      <trkpt lat="50.53185" lon="2.8972">
        <ele>-24.2</ele>
        <time>2018-06-24T09:53:54Z</time>
      </trkpt>
      <trkpt lat="50.53169" lon="2.89702">
        <ele>-24.2</ele>
        <time>2018-06-24T09:53:58Z</time>
      </trkpt>
      <trkpt lat="50.53153" lon="2.89684">
        <ele>-23.8</ele>
        <time>2018-06-24T09:54:02Z</time>
      </trkpt>
      <trkpt lat="50.53138" lon="2.89664">
        <ele>-23.6</ele>
        <time>2018-06-24T09:54:06Z</time>
      </trkpt>
      <trkpt lat="50.53122" lon="2.89645">
        <ele>-23.8</ele>
        <time>2018-06-24T09:54:10Z</time>
      </trkpt>
      <trkpt lat="50.53106" lon="2.89626">
        <ele>-24.2</ele>
        <time>2018-06-24T09:54:14Z</time>
      </trkpt>
      <trkpt lat="50.5309" lon="2.89607">
        <ele>-23.8</ele>
        <time>2018-06-24T09:54:18Z</time>
      </trkpt>
      <trkpt lat="50.53075" lon="2.89587">
        <ele>-24</ele>
        <time>2018-06-24T09:54:22Z</time>
      </trkpt>
      <trkpt lat="50.53059" lon="2.89567">
        <ele>-23.6</ele>
        <time>2018-06-24T09:54:26Z</time>
      </trkpt>
      <trkpt lat="50.53043" lon="2.89547">
        <ele>-23.6</ele>
        <time>2018-06-24T09:54:30Z</time>
      </trkpt>
      <trkpt lat="50.53027" lon="2.89528">
        <ele>-23.6</ele>
        <time>2018-06-24T09:54:34Z</time>
      </trkpt>
      <trkpt lat="50.53011" lon="2.89507">
        <ele>-23.8</ele>
        <time>2018-06-24T09:54:38Z</time>
      </trkpt>
      <trkpt lat="50.52995" lon="2.89488">
        <ele>-23.4</ele>
        <time>2018-06-24T09:54:42Z</time>
      </trkpt>
      <trkpt lat="50.52979" lon="2.89469">
        <ele>-23.6</ele>
        <time>2018-06-24T09:54:46Z</time>
      </trkpt>
      <trkpt lat="50.52963" lon="2.8945">
        <ele>-23.6</ele>
        <time>2018-06-24T09:54:50Z</time>
      </trkpt>
      <trkpt lat="50.52947" lon="2.89431">
        <ele>-23.6</ele>
        <time>2018-06-24T09:54:54Z</time>
      </trkpt>
      <trkpt lat="50.52931" lon="2.89412">
        <ele>-23.2</ele>
        <time>2018-06-24T09:54:58Z</time>
      </trkpt>
      <trkpt lat="50.52916" lon="2.89394">
        <ele>-23.2</ele>
        <time>2018-06-24T09:55:02Z</time>
      </trkpt>
      <trkpt lat="50.52901" lon="2.89376">
        <ele>-23.8</ele>
        <time>2018-06-24T09:55:06Z</time>
      </trkpt>
      <trkpt lat="50.52887" lon="2.89358">
        <ele>-23.6</ele>
        <time>2018-06-24T09:55:10Z</time>
      </trkpt>
      <trkpt lat="50.52872" lon="2.8934">
        <ele>-23.8</ele>
        <time>2018-06-24T09:55:14Z</time>
      </trkpt>
      <trkpt lat="50.52858" lon="2.89322">
        <ele>-23.6</ele>
        <time>2018-06-24T09:55:18Z</time>
      </trkpt>
      <trkpt lat="50.52846" lon="2.89305">
        <ele>-24</ele>
        <time>2018-06-24T09:55:22Z</time>
      </trkpt>
      <trkpt lat="50.52849" lon="2.89287">
        <ele>-24.2</ele>
        <time>2018-06-24T09:55:26Z</time>
      </trkpt>
      <trkpt lat="50.52857" lon="2.89269">
        <ele>-23.4</ele>
        <time>2018-06-24T09:55:30Z</time>
      </trkpt>
      <trkpt lat="50.52862" lon="2.89247">
        <ele>-23.6</ele>
        <time>2018-06-24T09:55:34Z</time>
      </trkpt>
      <trkpt lat="50.52854" lon="2.89229">
        <ele>-23.4</ele>
        <time>2018-06-24T09:55:38Z</time>
      </trkpt>
      <trkpt lat="50.52841" lon="2.89215">
        <ele>-23.4</ele>
        <time>2018-06-24T09:55:42Z</time>
      </trkpt>
      <trkpt lat="50.52827" lon="2.89202">
        <ele>-23.4</ele>
        <time>2018-06-24T09:55:46Z</time>
      </trkpt>
      <trkpt lat="50.52813" lon="2.89189">
        <ele>-22.8</ele>
        <time>2018-06-24T09:55:50Z</time>
      </trkpt>
      <trkpt lat="50.528" lon="2.89175">
        <ele>-22.6</ele>
        <time>2018-06-24T09:55:54Z</time>
      </trkpt>
      <trkpt lat="50.52786" lon="2.8916">
        <ele>-23.2</ele>
        <time>2018-06-24T09:55:58Z</time>
      </trkpt>
      <trkpt lat="50.52772" lon="2.89145">
        <ele>-22.8</ele>
        <time>2018-06-24T09:56:02Z</time>
      </trkpt>
      <trkpt lat="50.52757" lon="2.89131">
        <ele>-23.6</ele>
        <time>2018-06-24T09:56:06Z</time>
      </trkpt>
      <trkpt lat="50.52741" lon="2.89116">
        <ele>-23.4</ele>
        <time>2018-06-24T09:56:10Z</time>
      </trkpt>
      <trkpt lat="50.52726" lon="2.891">
        <ele>-23.2</ele>
        <time>2018-06-24T09:56:14Z</time>
      </trkpt>
      <trkpt lat="50.52711" lon="2.89085">
        <ele>-23.2</ele>
        <time>2018-06-24T09:56:18Z</time>
      </trkpt>
      <trkpt lat="50.52696" lon="2.89068">
        <ele>-23.6</ele>
        <time>2018-06-24T09:56:22Z</time>
      </trkpt>
      <trkpt lat="50.52683" lon="2.89049">
        <ele>-23.4</ele>
        <time>2018-06-24T09:56:26Z</time>
      </trkpt>
      <trkpt lat="50.52668" lon="2.8903">
        <ele>-23.4</ele>
        <time>2018-06-24T09:56:30Z</time>
      </trkpt>
      <trkpt lat="50.52653" lon="2.89015">
        <ele>-23.6</ele>
        <time>2018-06-24T09:56:34Z</time>
      </trkpt>
      <trkpt lat="50.52637" lon="2.89002">
        <ele>-23.4</ele>
        <time>2018-06-24T09:56:38Z</time>
      </trkpt>
      <trkpt lat="50.52623" lon="2.8899">
        <ele>-23.8</ele>
        <time>2018-06-24T09:56:42Z</time>
      </trkpt>
      <trkpt lat="50.52609" lon="2.88977">
        <ele>-24</ele>
        <time>2018-06-24T09:56:46Z</time>
      </trkpt>
      <trkpt lat="50.52594" lon="2.88965">
        <ele>-24.4</ele>
        <time>2018-06-24T09:56:50Z</time>
      </trkpt>
      <trkpt lat="50.52582" lon="2.88954">
        <ele>-24.2</ele>
        <time>2018-06-24T09:56:54Z</time>
      </trkpt>
      <trkpt lat="50.52573" lon="2.88947">
        <ele>-24.4</ele>
        <time>2018-06-24T09:56:58Z</time>
      </trkpt>
      <trkpt lat="50.52573" lon="2.88947">
        <ele>-23.8</ele>
        <time>2018-06-24T09:57:02Z</time>
      </trkpt>
      <trkpt lat="50.52568" lon="2.88947">
        <ele>-23.8</ele>
        <time>2018-06-24T09:57:06Z</time>
      </trkpt>
      <trkpt lat="50.52566" lon="2.88948">
        <ele>-24.2</ele>
        <time>2018-06-24T09:57:10Z</time>
      </trkpt>
      <trkpt lat="50.52566" lon="2.88948">
        <ele>-23.8</ele>
        <time>2018-06-24T09:57:14Z</time>
      </trkpt>
      <trkpt lat="50.52565" lon="2.88944">
        <ele>-24.2</ele>
        <time>2018-06-24T09:57:18Z</time>
      </trkpt>
      <trkpt lat="50.52563" lon="2.8894">
        <ele>-24</ele>
        <time>2018-06-24T09:57:22Z</time>
      </trkpt>
      <trkpt lat="50.52556" lon="2.88936">
        <ele>-23.8</ele>
        <time>2018-06-24T09:57:26Z</time>
      </trkpt>
      <trkpt lat="50.52548" lon="2.88928">
        <ele>-24</ele>
        <time>2018-06-24T09:57:30Z</time>
      </trkpt>
      <trkpt lat="50.52539" lon="2.88922">
        <ele>-23.4</ele>
        <time>2018-06-24T09:57:34Z</time>
      </trkpt>
      <trkpt lat="50.52531" lon="2.88917">
        <ele>-24</ele>
        <time>2018-06-24T09:57:38Z</time>
      </trkpt>
      <trkpt lat="50.52522" lon="2.88911">
        <ele>-24</ele>
        <time>2018-06-24T09:57:42Z</time>
      </trkpt>
      <trkpt lat="50.52513" lon="2.88903">
        <ele>-24</ele>
        <time>2018-06-24T09:57:46Z</time>
      </trkpt>
      <trkpt lat="50.52503" lon="2.88895">
        <ele>-23.8</ele>
        <time>2018-06-24T09:57:50Z</time>
      </trkpt>
      <trkpt lat="50.52491" lon="2.88888">
        <ele>-23.8</ele>
        <time>2018-06-24T09:57:54Z</time>
      </trkpt>
      <trkpt lat="50.5248" lon="2.88879">
        <ele>-23.8</ele>
        <time>2018-06-24T09:57:58Z</time>
      </trkpt>
      <trkpt lat="50.52468" lon="2.88872">
        <ele>-24</ele>
        <time>2018-06-24T09:58:02Z</time>
      </trkpt>
      <trkpt lat="50.52455" lon="2.88864">
        <ele>-24</ele>
        <time>2018-06-24T09:58:06Z</time>
      </trkpt>
      <trkpt lat="50.52442" lon="2.88857">
        <ele>-24</ele>
        <time>2018-06-24T09:58:10Z</time>
      </trkpt>
      <trkpt lat="50.52429" lon="2.8885">
        <ele>-24.6</ele>
        <time>2018-06-24T09:58:14Z</time>
      </trkpt>
      <trkpt lat="50.52414" lon="2.88843">
        <ele>-24.4</ele>
        <time>2018-06-24T09:58:18Z</time>
      </trkpt>
      <trkpt lat="50.524" lon="2.88836">
        <ele>-24.4</ele>
        <time>2018-06-24T09:58:22Z</time>
      </trkpt>
      <trkpt lat="50.52386" lon="2.88828">
        <ele>-24.2</ele>
        <time>2018-06-24T09:58:26Z</time>
      </trkpt>
      <trkpt lat="50.52373" lon="2.88821">
        <ele>-24.2</ele>
        <time>2018-06-24T09:58:30Z</time>
      </trkpt>
      <trkpt lat="50.5236" lon="2.88815">
        <ele>-24.2</ele>
        <time>2018-06-24T09:58:34Z</time>
      </trkpt>
      <trkpt lat="50.52347" lon="2.88809">
        <ele>-23.8</ele>
        <time>2018-06-24T09:58:38Z</time>
      </trkpt>
      <trkpt lat="50.52333" lon="2.88803">
        <ele>-24.2</ele>
        <time>2018-06-24T09:58:42Z</time>
      </trkpt>
      <trkpt lat="50.52318" lon="2.88797">
        <ele>-24.6</ele>
        <time>2018-06-24T09:58:46Z</time>
      </trkpt>
      <trkpt lat="50.52305" lon="2.8879">
        <ele>-24.4</ele>
        <time>2018-06-24T09:58:50Z</time>
      </trkpt>
      <trkpt lat="50.52291" lon="2.88784">
        <ele>-24.2</ele>
        <time>2018-06-24T09:58:54Z</time>
      </trkpt>
      <trkpt lat="50.52277" lon="2.88779">
        <ele>-24.6</ele>
        <time>2018-06-24T09:58:58Z</time>
      </trkpt>
      <trkpt lat="50.52264" lon="2.88771">
        <ele>-24.2</ele>
        <time>2018-06-24T09:59:02Z</time>
      </trkpt>
      <trkpt lat="50.52252" lon="2.88763">
        <ele>-24.2</ele>
        <time>2018-06-24T09:59:06Z</time>
      </trkpt>
      <trkpt lat="50.52238" lon="2.88756">
        <ele>-24.2</ele>
        <time>2018-06-24T09:59:10Z</time>
      </trkpt>
      <trkpt lat="50.52223" lon="2.88747">
        <ele>-24.6</ele>
        <time>2018-06-24T09:59:14Z</time>
      </trkpt>
      <trkpt lat="50.5221" lon="2.88735">
        <ele>-24.2</ele>
        <time>2018-06-24T09:59:18Z</time>
      </trkpt>
      <trkpt lat="50.522" lon="2.88723">
        <ele>-25.2</ele>
        <time>2018-06-24T09:59:22Z</time>
      </trkpt>
      <trkpt lat="50.52189" lon="2.88718">
        <ele>-23.8</ele>
        <time>2018-06-24T09:59:26Z</time>
      </trkpt>
      <trkpt lat="50.52172" lon="2.88719">
        <ele>-24</ele>
        <time>2018-06-24T09:59:30Z</time>
      </trkpt>
      <trkpt lat="50.52154" lon="2.88716">
        <ele>-24.2</ele>
        <time>2018-06-24T09:59:34Z</time>
      </trkpt>
      <trkpt lat="50.52137" lon="2.88707">
        <ele>-24.8</ele>
        <time>2018-06-24T09:59:38Z</time>
      </trkpt>
      <trkpt lat="50.52122" lon="2.88702">
        <ele>-24.6</ele>
        <time>2018-06-24T09:59:42Z</time>
      </trkpt>
      <trkpt lat="50.52111" lon="2.88691">
        <ele>-24.4</ele>
        <time>2018-06-24T09:59:46Z</time>
      </trkpt>
      <trkpt lat="50.52099" lon="2.88684">
        <ele>-24.2</ele>
        <time>2018-06-24T09:59:50Z</time>
      </trkpt>
      <trkpt lat="50.52085" lon="2.88677">
        <ele>-24.4</ele>
        <time>2018-06-24T09:59:54Z</time>
      </trkpt>
      <trkpt lat="50.52071" lon="2.8867">
        <ele>-24.6</ele>
        <time>2018-06-24T09:59:58Z</time>
      </trkpt>
      <trkpt lat="50.52059" lon="2.88664">
        <ele>-24.6</ele>
        <time>2018-06-24T10:00:02Z</time>
      </trkpt>
      <trkpt lat="50.52046" lon="2.88658">
        <ele>-24.4</ele>
        <time>2018-06-24T10:00:06Z</time>
      </trkpt>
      <trkpt lat="50.52033" lon="2.88651">
        <ele>-24.6</ele>
        <time>2018-06-24T10:00:10Z</time>
      </trkpt>
      <trkpt lat="50.52019" lon="2.88644">
        <ele>-24.2</ele>
        <time>2018-06-24T10:00:14Z</time>
      </trkpt>
      <trkpt lat="50.52005" lon="2.88638">
        <ele>-24.4</ele>
        <time>2018-06-24T10:00:18Z</time>
      </trkpt>
      <trkpt lat="50.51992" lon="2.8863">
        <ele>-24.4</ele>
        <time>2018-06-24T10:00:22Z</time>
      </trkpt>
      <trkpt lat="50.51977" lon="2.88624">
        <ele>-24.2</ele>
        <time>2018-06-24T10:00:26Z</time>
      </trkpt>
      <trkpt lat="50.51963" lon="2.88617">
        <ele>-24.4</ele>
        <time>2018-06-24T10:00:30Z</time>
      </trkpt>
      <trkpt lat="50.51948" lon="2.8861">
        <ele>-24</ele>
        <time>2018-06-24T10:00:34Z</time>
      </trkpt>
      <trkpt lat="50.51933" lon="2.88603">
        <ele>-24.2</ele>
        <time>2018-06-24T10:00:38Z</time>
      </trkpt>
      <trkpt lat="50.51917" lon="2.88595">
        <ele>-23.8</ele>
        <time>2018-06-24T10:00:42Z</time>
      </trkpt>
      <trkpt lat="50.51901" lon="2.88586">
        <ele>-24.2</ele>
        <time>2018-06-24T10:00:46Z</time>
      </trkpt>
      <trkpt lat="50.51885" lon="2.88578">
        <ele>-23.8</ele>
        <time>2018-06-24T10:00:50Z</time>
      </trkpt>
      <trkpt lat="50.5187" lon="2.8857">
        <ele>-24</ele>
        <time>2018-06-24T10:00:54Z</time>
      </trkpt>
      <trkpt lat="50.51853" lon="2.88562">
        <ele>-23.4</ele>
        <time>2018-06-24T10:00:58Z</time>
      </trkpt>
      <trkpt lat="50.51836" lon="2.88553">
        <ele>-24</ele>
        <time>2018-06-24T10:01:02Z</time>
      </trkpt>
      <trkpt lat="50.51819" lon="2.88544">
        <ele>-24</ele>
        <time>2018-06-24T10:01:06Z</time>
      </trkpt>
      <trkpt lat="50.51802" lon="2.88535">
        <ele>-23.4</ele>
        <time>2018-06-24T10:01:10Z</time>
      </trkpt>
      <trkpt lat="50.51784" lon="2.88526">
        <ele>-23.6</ele>
        <time>2018-06-24T10:01:14Z</time>
      </trkpt>
      <trkpt lat="50.51766" lon="2.88517">
        <ele>-23.2</ele>
        <time>2018-06-24T10:01:18Z</time>
      </trkpt>
      <trkpt lat="50.51748" lon="2.88508">
        <ele>-23.8</ele>
        <time>2018-06-24T10:01:22Z</time>
      </trkpt>
      <trkpt lat="50.51729" lon="2.88499">
        <ele>-23.6</ele>
        <time>2018-06-24T10:01:26Z</time>
      </trkpt>
      <trkpt lat="50.5171" lon="2.88489">
        <ele>-23.6</ele>
        <time>2018-06-24T10:01:30Z</time>
      </trkpt>
      <trkpt lat="50.51691" lon="2.8848">
        <ele>-23.6</ele>
        <time>2018-06-24T10:01:34Z</time>
      </trkpt>
      <trkpt lat="50.51673" lon="2.8847">
        <ele>-23.8</ele>
        <time>2018-06-24T10:01:38Z</time>
      </trkpt>
      <trkpt lat="50.51654" lon="2.88459">
        <ele>-24.2</ele>
        <time>2018-06-24T10:01:42Z</time>
      </trkpt>
      <trkpt lat="50.51635" lon="2.8845">
        <ele>-24.6</ele>
        <time>2018-06-24T10:01:46Z</time>
      </trkpt>
      <trkpt lat="50.51617" lon="2.88441">
        <ele>-24.2</ele>
        <time>2018-06-24T10:01:50Z</time>
      </trkpt>
      <trkpt lat="50.51598" lon="2.88433">
        <ele>-23.8</ele>
        <time>2018-06-24T10:01:54Z</time>
      </trkpt>
      <trkpt lat="50.5158" lon="2.88424">
        <ele>-23.6</ele>
        <time>2018-06-24T10:01:58Z</time>
      </trkpt>
      <trkpt lat="50.51561" lon="2.88415">
        <ele>-24</ele>
        <time>2018-06-24T10:02:02Z</time>
      </trkpt>
      <trkpt lat="50.51543" lon="2.88406">
        <ele>-23.8</ele>
        <time>2018-06-24T10:02:06Z</time>
      </trkpt>
      <trkpt lat="50.51524" lon="2.88397">
        <ele>-24.2</ele>
        <time>2018-06-24T10:02:10Z</time>
      </trkpt>
      <trkpt lat="50.51505" lon="2.88388">
        <ele>-23.8</ele>
        <time>2018-06-24T10:02:14Z</time>
      </trkpt>
      <trkpt lat="50.51486" lon="2.88377">
        <ele>-24.2</ele>
        <time>2018-06-24T10:02:18Z</time>
      </trkpt>
      <trkpt lat="50.51467" lon="2.88367">
        <ele>-24.8</ele>
        <time>2018-06-24T10:02:22Z</time>
      </trkpt>
      <trkpt lat="50.51447" lon="2.88359">
        <ele>-24.4</ele>
        <time>2018-06-24T10:02:26Z</time>
      </trkpt>
      <trkpt lat="50.51426" lon="2.88351">
        <ele>-24.8</ele>
        <time>2018-06-24T10:02:30Z</time>
      </trkpt>
      <trkpt lat="50.51406" lon="2.88345">
        <ele>-24.6</ele>
        <time>2018-06-24T10:02:34Z</time>
      </trkpt>
      <trkpt lat="50.51385" lon="2.8834">
        <ele>-24.4</ele>
        <time>2018-06-24T10:02:38Z</time>
      </trkpt>
      <trkpt lat="50.51364" lon="2.88335">
        <ele>-24.2</ele>
        <time>2018-06-24T10:02:42Z</time>
      </trkpt>
      <trkpt lat="50.51344" lon="2.88329">
        <ele>-24.4</ele>
        <time>2018-06-24T10:02:46Z</time>
      </trkpt>
      <trkpt lat="50.51324" lon="2.88326">
        <ele>-24.6</ele>
        <time>2018-06-24T10:02:50Z</time>
      </trkpt>
      <trkpt lat="50.51305" lon="2.88321">
        <ele>-24.4</ele>
        <time>2018-06-24T10:02:54Z</time>
      </trkpt>
      <trkpt lat="50.51287" lon="2.88315">
        <ele>-24.2</ele>
        <time>2018-06-24T10:02:58Z</time>
      </trkpt>
      <trkpt lat="50.51268" lon="2.88311">
        <ele>-24</ele>
        <time>2018-06-24T10:03:02Z</time>
      </trkpt>
      <trkpt lat="50.51247" lon="2.88309">
        <ele>-24.6</ele>
        <time>2018-06-24T10:03:06Z</time>
      </trkpt>
      <trkpt lat="50.51229" lon="2.88303">
        <ele>-23.8</ele>
        <time>2018-06-24T10:03:10Z</time>
      </trkpt>
      <trkpt lat="50.51209" lon="2.88299">
        <ele>-24.2</ele>
        <time>2018-06-24T10:03:14Z</time>
      </trkpt>
      <trkpt lat="50.51189" lon="2.88296">
        <ele>-24</ele>
        <time>2018-06-24T10:03:18Z</time>
      </trkpt>
      <trkpt lat="50.51169" lon="2.88293">
        <ele>-24.2</ele>
        <time>2018-06-24T10:03:22Z</time>
      </trkpt>
      <trkpt lat="50.51147" lon="2.88289">
        <ele>-24</ele>
        <time>2018-06-24T10:03:26Z</time>
      </trkpt>
      <trkpt lat="50.51127" lon="2.88286">
        <ele>-24.2</ele>
        <time>2018-06-24T10:03:30Z</time>
      </trkpt>
      <trkpt lat="50.51107" lon="2.88281">
        <ele>-24.4</ele>
        <time>2018-06-24T10:03:34Z</time>
      </trkpt>
      <trkpt lat="50.51087" lon="2.88277">
        <ele>-24</ele>
        <time>2018-06-24T10:03:38Z</time>
      </trkpt>
      <trkpt lat="50.51066" lon="2.88273">
        <ele>-24.4</ele>
        <time>2018-06-24T10:03:42Z</time>
      </trkpt>
      <trkpt lat="50.51046" lon="2.88269">
        <ele>-24.2</ele>
        <time>2018-06-24T10:03:46Z</time>
      </trkpt>
      <trkpt lat="50.51027" lon="2.88265">
        <ele>-24.2</ele>
        <time>2018-06-24T10:03:50Z</time>
      </trkpt>
      <trkpt lat="50.51006" lon="2.88262">
        <ele>-24.2</ele>
        <time>2018-06-24T10:03:54Z</time>
      </trkpt>
      <trkpt lat="50.50985" lon="2.88259">
        <ele>-24.6</ele>
        <time>2018-06-24T10:03:58Z</time>
      </trkpt>
      <trkpt lat="50.50964" lon="2.88256">
        <ele>-24.2</ele>
        <time>2018-06-24T10:04:02Z</time>
      </trkpt>
      <trkpt lat="50.50947" lon="2.88252">
        <ele>-24.2</ele>
        <time>2018-06-24T10:04:06Z</time>
      </trkpt>
      <trkpt lat="50.50926" lon="2.88248">
        <ele>-24.4</ele>
        <time>2018-06-24T10:04:10Z</time>
      </trkpt>
      <trkpt lat="50.50907" lon="2.88246">
        <ele>-23.8</ele>
        <time>2018-06-24T10:04:14Z</time>
      </trkpt>
      <trkpt lat="50.50891" lon="2.88241">
        <ele>-24</ele>
        <time>2018-06-24T10:04:18Z</time>
      </trkpt>
      <trkpt lat="50.50873" lon="2.88238">
        <ele>-23.6</ele>
        <time>2018-06-24T10:04:22Z</time>
      </trkpt>
      <trkpt lat="50.50854" lon="2.88237">
        <ele>-23.6</ele>
        <time>2018-06-24T10:04:26Z</time>
      </trkpt>
      <trkpt lat="50.50835" lon="2.88233">
        <ele>-24</ele>
        <time>2018-06-24T10:04:30Z</time>
      </trkpt>
      <trkpt lat="50.50818" lon="2.8823">
        <ele>-23.8</ele>
        <time>2018-06-24T10:04:34Z</time>
      </trkpt>
      <trkpt lat="50.508" lon="2.88227">
        <ele>-23.8</ele>
        <time>2018-06-24T10:04:38Z</time>
      </trkpt>
      <trkpt lat="50.50782" lon="2.88224">
        <ele>-23.8</ele>
        <time>2018-06-24T10:04:42Z</time>
      </trkpt>
      <trkpt lat="50.50766" lon="2.88221">
        <ele>-23.8</ele>
        <time>2018-06-24T10:04:46Z</time>
      </trkpt>
      <trkpt lat="50.50752" lon="2.88218">
        <ele>-23.6</ele>
        <time>2018-06-24T10:04:50Z</time>
      </trkpt>
      <trkpt lat="50.50739" lon="2.88214">
        <ele>-23.8</ele>
        <time>2018-06-24T10:04:54Z</time>
      </trkpt>
      <trkpt lat="50.50721" lon="2.88211">
        <ele>-23.8</ele>
        <time>2018-06-24T10:04:58Z</time>
      </trkpt>
      <trkpt lat="50.50703" lon="2.88208">
        <ele>-23.6</ele>
        <time>2018-06-24T10:05:02Z</time>
      </trkpt>
      <trkpt lat="50.50685" lon="2.88205">
        <ele>-23.8</ele>
        <time>2018-06-24T10:05:06Z</time>
      </trkpt>
      <trkpt lat="50.50665" lon="2.88202">
        <ele>-23.6</ele>
        <time>2018-06-24T10:05:10Z</time>
      </trkpt>
      <trkpt lat="50.50648" lon="2.882">
        <ele>-23.6</ele>
        <time>2018-06-24T10:05:14Z</time>
      </trkpt>
      <trkpt lat="50.50629" lon="2.88195">
        <ele>-23.6</ele>
        <time>2018-06-24T10:05:18Z</time>
      </trkpt>
      <trkpt lat="50.5061" lon="2.88192">
        <ele>-23.8</ele>
        <time>2018-06-24T10:05:22Z</time>
      </trkpt>
      <trkpt lat="50.50591" lon="2.88188">
        <ele>-23.4</ele>
        <time>2018-06-24T10:05:26Z</time>
      </trkpt>
      <trkpt lat="50.50572" lon="2.88184">
        <ele>-23.8</ele>
        <time>2018-06-24T10:05:30Z</time>
      </trkpt>
      <trkpt lat="50.50552" lon="2.88182">
        <ele>-24</ele>
        <time>2018-06-24T10:05:34Z</time>
      </trkpt>
      <trkpt lat="50.50532" lon="2.88179">
        <ele>-24.2</ele>
        <time>2018-06-24T10:05:38Z</time>
      </trkpt>
      <trkpt lat="50.50512" lon="2.88174">
        <ele>-24.2</ele>
        <time>2018-06-24T10:05:42Z</time>
      </trkpt>
      <trkpt lat="50.50493" lon="2.88171">
        <ele>-23.8</ele>
        <time>2018-06-24T10:05:46Z</time>
      </trkpt>
      <trkpt lat="50.50474" lon="2.88167">
        <ele>-23.8</ele>
        <time>2018-06-24T10:05:50Z</time>
      </trkpt>
      <trkpt lat="50.50456" lon="2.88163">
        <ele>-24.2</ele>
        <time>2018-06-24T10:05:54Z</time>
      </trkpt>
      <trkpt lat="50.50441" lon="2.88163">
        <ele>-24.2</ele>
        <time>2018-06-24T10:05:58Z</time>
      </trkpt>
      <trkpt lat="50.50435" lon="2.8816">
        <ele>-23.8</ele>
        <time>2018-06-24T10:06:02Z</time>
      </trkpt>
      <trkpt lat="50.50427" lon="2.88158">
        <ele>-23.6</ele>
        <time>2018-06-24T10:06:06Z</time>
      </trkpt>
      <trkpt lat="50.50421" lon="2.88156">
        <ele>-23.6</ele>
        <time>2018-06-24T10:06:10Z</time>
      </trkpt>
      <trkpt lat="50.50417" lon="2.88156">
        <ele>-23.6</ele>
        <time>2018-06-24T10:06:14Z</time>
      </trkpt>
      <trkpt lat="50.50413" lon="2.88155">
        <ele>-23.6</ele>
        <time>2018-06-24T10:06:18Z</time>
      </trkpt>
      <trkpt lat="50.50409" lon="2.88154">
        <ele>-24</ele>
        <time>2018-06-24T10:06:22Z</time>
      </trkpt>
      <trkpt lat="50.50404" lon="2.88152">
        <ele>-23.6</ele>
        <time>2018-06-24T10:06:26Z</time>
      </trkpt>
      <trkpt lat="50.50399" lon="2.88152">
        <ele>-23.8</ele>
        <time>2018-06-24T10:06:30Z</time>
      </trkpt>
      <trkpt lat="50.50391" lon="2.88151">
        <ele>-24</ele>
        <time>2018-06-24T10:06:34Z</time>
      </trkpt>
      <trkpt lat="50.50382" lon="2.88149">
        <ele>-23.6</ele>
        <time>2018-06-24T10:06:38Z</time>
      </trkpt>
      <trkpt lat="50.50374" lon="2.88148">
        <ele>-23.4</ele>
        <time>2018-06-24T10:06:42Z</time>
      </trkpt>
      <trkpt lat="50.50367" lon="2.88146">
        <ele>-23.4</ele>
        <time>2018-06-24T10:06:46Z</time>
      </trkpt>
      <trkpt lat="50.50359" lon="2.88144">
        <ele>-23.4</ele>
        <time>2018-06-24T10:06:50Z</time>
      </trkpt>
      <trkpt lat="50.50348" lon="2.88143">
        <ele>-23.6</ele>
        <time>2018-06-24T10:06:54Z</time>
      </trkpt>
      <trkpt lat="50.50338" lon="2.88141">
        <ele>-23.6</ele>
        <time>2018-06-24T10:06:58Z</time>
      </trkpt>
      <trkpt lat="50.50326" lon="2.88139">
        <ele>-23.6</ele>
        <time>2018-06-24T10:07:02Z</time>
      </trkpt>
      <trkpt lat="50.50314" lon="2.88136">
        <ele>-23.2</ele>
        <time>2018-06-24T10:07:06Z</time>
      </trkpt>
      <trkpt lat="50.50304" lon="2.88133">
        <ele>-22.8</ele>
        <time>2018-06-24T10:07:10Z</time>
      </trkpt>
      <trkpt lat="50.50293" lon="2.88129">
        <ele>-23.2</ele>
        <time>2018-06-24T10:07:14Z</time>
      </trkpt>
      <trkpt lat="50.50283" lon="2.88127">
        <ele>-23.6</ele>
        <time>2018-06-24T10:07:18Z</time>
      </trkpt>
      <trkpt lat="50.5027" lon="2.88125">
        <ele>-24</ele>
        <time>2018-06-24T10:07:22Z</time>
      </trkpt>
      <trkpt lat="50.50257" lon="2.88122">
        <ele>-23.8</ele>
        <time>2018-06-24T10:07:26Z</time>
      </trkpt>
      <trkpt lat="50.50243" lon="2.88119">
        <ele>-23.8</ele>
        <time>2018-06-24T10:07:30Z</time>
      </trkpt>
      <trkpt lat="50.50228" lon="2.88115">
        <ele>-23.6</ele>
        <time>2018-06-24T10:07:34Z</time>
      </trkpt>
      <trkpt lat="50.50211" lon="2.88112">
        <ele>-23</ele>
        <time>2018-06-24T10:07:38Z</time>
      </trkpt>
      <trkpt lat="50.50195" lon="2.88109">
        <ele>-23.6</ele>
        <time>2018-06-24T10:07:42Z</time>
      </trkpt>
      <trkpt lat="50.50181" lon="2.88106">
        <ele>-24</ele>
        <time>2018-06-24T10:07:46Z</time>
      </trkpt>
      <trkpt lat="50.50165" lon="2.88104">
        <ele>-23.4</ele>
        <time>2018-06-24T10:07:50Z</time>
      </trkpt>
      <trkpt lat="50.50149" lon="2.88102">
        <ele>-24.2</ele>
        <time>2018-06-24T10:07:54Z</time>
      </trkpt>
      <trkpt lat="50.50132" lon="2.88099">
        <ele>-24.4</ele>
        <time>2018-06-24T10:07:58Z</time>
      </trkpt>
      <trkpt lat="50.50117" lon="2.88095">
        <ele>-23.8</ele>
        <time>2018-06-24T10:08:02Z</time>
      </trkpt>
      <trkpt lat="50.50101" lon="2.8809">
        <ele>-23.6</ele>
        <time>2018-06-24T10:08:06Z</time>
      </trkpt>
      <trkpt lat="50.50083" lon="2.88088">
        <ele>-23.6</ele>
        <time>2018-06-24T10:08:10Z</time>
      </trkpt>
      <trkpt lat="50.50067" lon="2.88085">
        <ele>-23.4</ele>
        <time>2018-06-24T10:08:14Z</time>
      </trkpt>
      <trkpt lat="50.50052" lon="2.88083">
        <ele>-23.8</ele>
        <time>2018-06-24T10:08:18Z</time>
      </trkpt>
      <trkpt lat="50.50038" lon="2.88081">
        <ele>-23.8</ele>
        <time>2018-06-24T10:08:22Z</time>
      </trkpt>
      <trkpt lat="50.50024" lon="2.88076">
        <ele>-23.6</ele>
        <time>2018-06-24T10:08:26Z</time>
      </trkpt>
      <trkpt lat="50.5001" lon="2.88073">
        <ele>-23.6</ele>
        <time>2018-06-24T10:08:30Z</time>
      </trkpt>
      <trkpt lat="50.49997" lon="2.8807">
        <ele>-23.4</ele>
        <time>2018-06-24T10:08:34Z</time>
      </trkpt>
      <trkpt lat="50.49982" lon="2.88068">
        <ele>-23.6</ele>
        <time>2018-06-24T10:08:38Z</time>
      </trkpt>
      <trkpt lat="50.49965" lon="2.88065">
        <ele>-23.2</ele>
        <time>2018-06-24T10:08:42Z</time>
      </trkpt>
      <trkpt lat="50.49948" lon="2.88063">
        <ele>-22.8</ele>
        <time>2018-06-24T10:08:46Z</time>
      </trkpt>
      <trkpt lat="50.49931" lon="2.88059">
        <ele>-23.8</ele>
        <time>2018-06-24T10:08:50Z</time>
      </trkpt>
      <trkpt lat="50.49913" lon="2.88056">
        <ele>-23.6</ele>
        <time>2018-06-24T10:08:54Z</time>
      </trkpt>
      <trkpt lat="50.49899" lon="2.88052">
        <ele>-22.8</ele>
        <time>2018-06-24T10:08:58Z</time>
      </trkpt>
      <trkpt lat="50.49884" lon="2.88049">
        <ele>-23.2</ele>
        <time>2018-06-24T10:09:02Z</time>
      </trkpt>
      <trkpt lat="50.49867" lon="2.88047">
        <ele>-23.2</ele>
        <time>2018-06-24T10:09:06Z</time>
      </trkpt>
      <trkpt lat="50.49853" lon="2.88046">
        <ele>-23.8</ele>
        <time>2018-06-24T10:09:10Z</time>
      </trkpt>
      <trkpt lat="50.49838" lon="2.88043">
        <ele>-22.8</ele>
        <time>2018-06-24T10:09:14Z</time>
      </trkpt>
      <trkpt lat="50.49821" lon="2.88039">
        <ele>-23.2</ele>
        <time>2018-06-24T10:09:18Z</time>
      </trkpt>
      <trkpt lat="50.49804" lon="2.88036">
        <ele>-22.8</ele>
        <time>2018-06-24T10:09:22Z</time>
      </trkpt>
      <trkpt lat="50.49786" lon="2.88033">
        <ele>-23.4</ele>
        <time>2018-06-24T10:09:26Z</time>
      </trkpt>
      <trkpt lat="50.49768" lon="2.8803">
        <ele>-23.6</ele>
        <time>2018-06-24T10:09:30Z</time>
      </trkpt>
      <trkpt lat="50.49753" lon="2.88025">
        <ele>-23.2</ele>
        <time>2018-06-24T10:09:34Z</time>
      </trkpt>
      <trkpt lat="50.49737" lon="2.88021">
        <ele>-23.2</ele>
        <time>2018-06-24T10:09:38Z</time>
      </trkpt>
      <trkpt lat="50.49722" lon="2.88018">
        <ele>-23.6</ele>
        <time>2018-06-24T10:09:42Z</time>
      </trkpt>
      <trkpt lat="50.49706" lon="2.88016">
        <ele>-23.6</ele>
        <time>2018-06-24T10:09:46Z</time>
      </trkpt>
      <trkpt lat="50.4969" lon="2.88014">
        <ele>-23.4</ele>
        <time>2018-06-24T10:09:50Z</time>
      </trkpt>
      <trkpt lat="50.49672" lon="2.88013">
        <ele>-23.2</ele>
        <time>2018-06-24T10:09:54Z</time>
      </trkpt>
      <trkpt lat="50.49655" lon="2.88012">
        <ele>-23</ele>
        <time>2018-06-24T10:09:58Z</time>
      </trkpt>
      <trkpt lat="50.49638" lon="2.88014">
        <ele>-23.8</ele>
        <time>2018-06-24T10:10:02Z</time>
      </trkpt>
      <trkpt lat="50.49622" lon="2.88015">
        <ele>-23.6</ele>
        <time>2018-06-24T10:10:06Z</time>
      </trkpt>
      <trkpt lat="50.49607" lon="2.88017">
        <ele>-23.6</ele>
        <time>2018-06-24T10:10:10Z</time>
      </trkpt>
      <trkpt lat="50.49597" lon="2.88019">
        <ele>-23.6</ele>
        <time>2018-06-24T10:10:14Z</time>
      </trkpt>
      <trkpt lat="50.49588" lon="2.88017">
        <ele>-23.2</ele>
        <time>2018-06-24T10:10:18Z</time>
      </trkpt>
      <trkpt lat="50.49577" lon="2.88017">
        <ele>-22.8</ele>
        <time>2018-06-24T10:10:22Z</time>
      </trkpt>
      <trkpt lat="50.49565" lon="2.88018">
        <ele>-22.8</ele>
        <time>2018-06-24T10:10:26Z</time>
      </trkpt>
      <trkpt lat="50.4955" lon="2.88018">
        <ele>-23.2</ele>
        <time>2018-06-24T10:10:30Z</time>
      </trkpt>
      <trkpt lat="50.49533" lon="2.8802">
        <ele>-23.2</ele>
        <time>2018-06-24T10:10:34Z</time>
      </trkpt>
      <trkpt lat="50.49518" lon="2.8802">
        <ele>-23.2</ele>
        <time>2018-06-24T10:10:38Z</time>
      </trkpt>
      <trkpt lat="50.49501" lon="2.88021">
        <ele>-23.4</ele>
        <time>2018-06-24T10:10:42Z</time>
      </trkpt>
      <trkpt lat="50.49485" lon="2.88021">
        <ele>-23.4</ele>
        <time>2018-06-24T10:10:46Z</time>
      </trkpt>
      <trkpt lat="50.49469" lon="2.88023">
        <ele>-23.2</ele>
        <time>2018-06-24T10:10:50Z</time>
      </trkpt>
      <trkpt lat="50.49453" lon="2.88025">
        <ele>-23.2</ele>
        <time>2018-06-24T10:10:54Z</time>
      </trkpt>
      <trkpt lat="50.49437" lon="2.88026">
        <ele>-22.8</ele>
        <time>2018-06-24T10:10:58Z</time>
      </trkpt>
      <trkpt lat="50.49424" lon="2.88029">
        <ele>-22.8</ele>
        <time>2018-06-24T10:11:02Z</time>
      </trkpt>
      <trkpt lat="50.49408" lon="2.88029">
        <ele>-22.8</ele>
        <time>2018-06-24T10:11:06Z</time>
      </trkpt>
      <trkpt lat="50.49391" lon="2.88029">
        <ele>-22.8</ele>
        <time>2018-06-24T10:11:10Z</time>
      </trkpt>
      <trkpt lat="50.49374" lon="2.88031">
        <ele>-23.2</ele>
        <time>2018-06-24T10:11:14Z</time>
      </trkpt>
      <trkpt lat="50.49355" lon="2.88031">
        <ele>-23.2</ele>
        <time>2018-06-24T10:11:18Z</time>
      </trkpt>
      <trkpt lat="50.49339" lon="2.88033">
        <ele>-23.2</ele>
        <time>2018-06-24T10:11:22Z</time>
      </trkpt>
      <trkpt lat="50.49321" lon="2.88034">
        <ele>-23.2</ele>
        <time>2018-06-24T10:11:26Z</time>
      </trkpt>
      <trkpt lat="50.49303" lon="2.88035">
        <ele>-23.4</ele>
        <time>2018-06-24T10:11:30Z</time>
      </trkpt>
      <trkpt lat="50.49285" lon="2.88037">
        <ele>-23.2</ele>
        <time>2018-06-24T10:11:34Z</time>
      </trkpt>
      <trkpt lat="50.49267" lon="2.88037">
        <ele>-23.2</ele>
        <time>2018-06-24T10:11:38Z</time>
      </trkpt>
      <trkpt lat="50.49248" lon="2.88038">
        <ele>-23.2</ele>
        <time>2018-06-24T10:11:42Z</time>
      </trkpt>
      <trkpt lat="50.4923" lon="2.88039">
        <ele>-23.2</ele>
        <time>2018-06-24T10:11:46Z</time>
      </trkpt>
      <trkpt lat="50.49212" lon="2.88041">
        <ele>-23.2</ele>
        <time>2018-06-24T10:11:50Z</time>
      </trkpt>
      <trkpt lat="50.49194" lon="2.88041">
        <ele>-22.8</ele>
        <time>2018-06-24T10:11:54Z</time>
      </trkpt>
      <trkpt lat="50.49175" lon="2.88043">
        <ele>-23.4</ele>
        <time>2018-06-24T10:11:58Z</time>
      </trkpt>
      <trkpt lat="50.49157" lon="2.88044">
        <ele>-23.2</ele>
        <time>2018-06-24T10:12:02Z</time>
      </trkpt>
      <trkpt lat="50.49138" lon="2.88045">
        <ele>-22.8</ele>
        <time>2018-06-24T10:12:06Z</time>
      </trkpt>
      <trkpt lat="50.4912" lon="2.88047">
        <ele>-23.2</ele>
        <time>2018-06-24T10:12:10Z</time>
      </trkpt>
      <trkpt lat="50.49108" lon="2.88047">
        <ele>-23.2</ele>
        <time>2018-06-24T10:12:14Z</time>
      </trkpt>
      <trkpt lat="50.49102" lon="2.88047">
        <ele>-23.2</ele>
        <time>2018-06-24T10:12:18Z</time>
      </trkpt>
      <trkpt lat="50.49097" lon="2.8805">
        <ele>-23.2</ele>
        <time>2018-06-24T10:12:22Z</time>
      </trkpt>
      <trkpt lat="50.491" lon="2.88052">
        <ele>-23.2</ele>
        <time>2018-06-24T10:12:26Z</time>
      </trkpt>
      <trkpt lat="50.49104" lon="2.8805">
        <ele>-23.6</ele>
        <time>2018-06-24T10:12:30Z</time>
      </trkpt>
      <trkpt lat="50.49108" lon="2.88046">
        <ele>-23.6</ele>
        <time>2018-06-24T10:12:34Z</time>
      </trkpt>
      <trkpt lat="50.49112" lon="2.88048">
        <ele>-23.6</ele>
        <time>2018-06-24T10:12:38Z</time>
      </trkpt>
      <trkpt lat="50.49115" lon="2.88047">
        <ele>-23.2</ele>
        <time>2018-06-24T10:12:42Z</time>
      </trkpt>
      <trkpt lat="50.49112" lon="2.88046">
        <ele>-23.2</ele>
        <time>2018-06-24T10:12:46Z</time>
      </trkpt>
      <trkpt lat="50.49108" lon="2.88047">
        <ele>-23.2</ele>
        <time>2018-06-24T10:12:50Z</time>
      </trkpt>
      <trkpt lat="50.49104" lon="2.88048">
        <ele>-23.4</ele>
        <time>2018-06-24T10:12:54Z</time>
      </trkpt>
      <trkpt lat="50.491" lon="2.88048">
        <ele>-23.2</ele>
        <time>2018-06-24T10:12:58Z</time>
      </trkpt>
      <trkpt lat="50.49096" lon="2.88048">
        <ele>-23.2</ele>
        <time>2018-06-24T10:13:02Z</time>
      </trkpt>
      <trkpt lat="50.49096" lon="2.88048">
        <ele>-23.4</ele>
        <time>2018-06-24T10:13:06Z</time>
      </trkpt>
      <trkpt lat="50.49096" lon="2.88048">
        <ele>-23.6</ele>
        <time>2018-06-24T10:13:10Z</time>
      </trkpt>
      <trkpt lat="50.49096" lon="2.88048">
        <ele>-23.6</ele>
        <time>2018-06-24T10:13:14Z</time>
      </trkpt>
      <trkpt lat="50.49096" lon="2.88048">
        <ele>-23.6</ele>
        <time>2018-06-24T10:13:18Z</time>
      </trkpt>
      <trkpt lat="50.49096" lon="2.88048">
        <ele>-23.8</ele>
        <time>2018-06-24T10:13:22Z</time>
      </trkpt>
      <trkpt lat="50.49096" lon="2.88048">
        <ele>-23.8</ele>
        <time>2018-06-24T10:13:26Z</time>
      </trkpt>
      <trkpt lat="50.49096" lon="2.88048">
        <ele>-23.6</ele>
        <time>2018-06-24T10:13:30Z</time>
      </trkpt>
      <trkpt lat="50.49093" lon="2.88048">
        <ele>-23.4</ele>
        <time>2018-06-24T10:13:34Z</time>
      </trkpt>
      <trkpt lat="50.49086" lon="2.88048">
        <ele>-23.2</ele>
        <time>2018-06-24T10:13:38Z</time>
      </trkpt>
      <trkpt lat="50.49076" lon="2.88049">
        <ele>-23.2</ele>
        <time>2018-06-24T10:13:42Z</time>
      </trkpt>
      <trkpt lat="50.49064" lon="2.8805">
        <ele>-23.2</ele>
        <time>2018-06-24T10:13:46Z</time>
      </trkpt>
      <trkpt lat="50.49051" lon="2.88051">
        <ele>-22.6</ele>
        <time>2018-06-24T10:13:50Z</time>
      </trkpt>
      <trkpt lat="50.49036" lon="2.88052">
        <ele>-22.6</ele>
        <time>2018-06-24T10:13:54Z</time>
      </trkpt>
      <trkpt lat="50.49022" lon="2.88055">
        <ele>-22.8</ele>
        <time>2018-06-24T10:13:58Z</time>
      </trkpt>
      <trkpt lat="50.49006" lon="2.88056">
        <ele>-23</ele>
        <time>2018-06-24T10:14:02Z</time>
      </trkpt>
      <trkpt lat="50.4899" lon="2.88057">
        <ele>-22.8</ele>
        <time>2018-06-24T10:14:06Z</time>
      </trkpt>
      <trkpt lat="50.48974" lon="2.88059">
        <ele>-23.2</ele>
        <time>2018-06-24T10:14:10Z</time>
      </trkpt>
      <trkpt lat="50.48958" lon="2.8806">
        <ele>-22.8</ele>
        <time>2018-06-24T10:14:14Z</time>
      </trkpt>
      <trkpt lat="50.48942" lon="2.88061">
        <ele>-22.8</ele>
        <time>2018-06-24T10:14:18Z</time>
      </trkpt>
      <trkpt lat="50.48926" lon="2.88063">
        <ele>-22.8</ele>
        <time>2018-06-24T10:14:22Z</time>
      </trkpt>
      <trkpt lat="50.4891" lon="2.88064">
        <ele>-22.8</ele>
        <time>2018-06-24T10:14:26Z</time>
      </trkpt>
      <trkpt lat="50.48895" lon="2.88066">
        <ele>-22.8</ele>
        <time>2018-06-24T10:14:30Z</time>
      </trkpt>
      <trkpt lat="50.4888" lon="2.88068">
        <ele>-22.4</ele>
        <time>2018-06-24T10:14:34Z</time>
      </trkpt>
      <trkpt lat="50.48864" lon="2.8807">
        <ele>-22.4</ele>
        <time>2018-06-24T10:14:38Z</time>
      </trkpt>
      <trkpt lat="50.48849" lon="2.88071">
        <ele>-23</ele>
        <time>2018-06-24T10:14:42Z</time>
      </trkpt>
      <trkpt lat="50.48835" lon="2.88074">
        <ele>-22.8</ele>
        <time>2018-06-24T10:14:46Z</time>
      </trkpt>
      <trkpt lat="50.4882" lon="2.88076">
        <ele>-22.8</ele>
        <time>2018-06-24T10:14:50Z</time>
      </trkpt>
      <trkpt lat="50.48803" lon="2.88078">
        <ele>-22.6</ele>
        <time>2018-06-24T10:14:54Z</time>
      </trkpt>
      <trkpt lat="50.48787" lon="2.8808">
        <ele>-22.6</ele>
        <time>2018-06-24T10:14:58Z</time>
      </trkpt>
      <trkpt lat="50.48773" lon="2.88082">
        <ele>-22.2</ele>
        <time>2018-06-24T10:15:02Z</time>
      </trkpt>
      <trkpt lat="50.48759" lon="2.88082">
        <ele>-22.8</ele>
        <time>2018-06-24T10:15:06Z</time>
      </trkpt>
      <trkpt lat="50.48746" lon="2.88083">
        <ele>-22.8</ele>
        <time>2018-06-24T10:15:10Z</time>
      </trkpt>
      <trkpt lat="50.48731" lon="2.88084">
        <ele>-23</ele>
        <time>2018-06-24T10:15:14Z</time>
      </trkpt>
      <trkpt lat="50.48715" lon="2.88085">
        <ele>-23.4</ele>
        <time>2018-06-24T10:15:18Z</time>
      </trkpt>
      <trkpt lat="50.487" lon="2.88087">
        <ele>-23.4</ele>
        <time>2018-06-24T10:15:22Z</time>
      </trkpt>
      <trkpt lat="50.48684" lon="2.88089">
        <ele>-23.4</ele>
        <time>2018-06-24T10:15:26Z</time>
      </trkpt>
      <trkpt lat="50.48669" lon="2.8809">
        <ele>-23.2</ele>
        <time>2018-06-24T10:15:30Z</time>
      </trkpt>
      <trkpt lat="50.48654" lon="2.88093">
        <ele>-23.4</ele>
        <time>2018-06-24T10:15:34Z</time>
      </trkpt>
      <trkpt lat="50.4864" lon="2.88095">
        <ele>-23.2</ele>
        <time>2018-06-24T10:15:38Z</time>
      </trkpt>
      <trkpt lat="50.48628" lon="2.88104">
        <ele>-23.4</ele>
        <time>2018-06-24T10:15:42Z</time>
      </trkpt>
      <trkpt lat="50.48631" lon="2.88118">
        <ele>-22.4</ele>
        <time>2018-06-24T10:15:46Z</time>
      </trkpt>
      <trkpt lat="50.48631" lon="2.88118">
        <ele>-22.6</ele>
        <time>2018-06-24T10:15:50Z</time>
      </trkpt>
      <trkpt lat="50.48631" lon="2.88118">
        <ele>-22.6</ele>
        <time>2018-06-24T10:15:54Z</time>
      </trkpt>
      <trkpt lat="50.48631" lon="2.88118">
        <ele>-22.8</ele>
        <time>2018-06-24T10:15:58Z</time>
      </trkpt>
      <trkpt lat="50.48638" lon="2.88118">
        <ele>-22.8</ele>
        <time>2018-06-24T10:16:02Z</time>
      </trkpt>
      <trkpt lat="50.48638" lon="2.88118">
        <ele>-22.4</ele>
        <time>2018-06-24T10:16:06Z</time>
      </trkpt>
      <trkpt lat="50.48635" lon="2.88116">
        <ele>-22.6</ele>
        <time>2018-06-24T10:16:10Z</time>
      </trkpt>
      <trkpt lat="50.48633" lon="2.88114">
        <ele>-21.8</ele>
        <time>2018-06-24T10:16:14Z</time>
      </trkpt>
      <trkpt lat="50.4863" lon="2.88106">
        <ele>-22.6</ele>
        <time>2018-06-24T10:16:18Z</time>
      </trkpt>
      <trkpt lat="50.48623" lon="2.88098">
        <ele>-22.6</ele>
        <time>2018-06-24T10:16:22Z</time>
      </trkpt>
      <trkpt lat="50.48611" lon="2.88099">
        <ele>-22.6</ele>
        <time>2018-06-24T10:16:26Z</time>
      </trkpt>
      <trkpt lat="50.48598" lon="2.88101">
        <ele>-22.8</ele>
        <time>2018-06-24T10:16:30Z</time>
      </trkpt>
      <trkpt lat="50.48585" lon="2.88103">
        <ele>-22.4</ele>
        <time>2018-06-24T10:16:34Z</time>
      </trkpt>
      <trkpt lat="50.48571" lon="2.88106">
        <ele>-22.4</ele>
        <time>2018-06-24T10:16:38Z</time>
      </trkpt>
      <trkpt lat="50.48557" lon="2.88107">
        <ele>-22.4</ele>
        <time>2018-06-24T10:16:42Z</time>
      </trkpt>
      <trkpt lat="50.48545" lon="2.88111">
        <ele>-22.4</ele>
        <time>2018-06-24T10:16:46Z</time>
      </trkpt>
      <trkpt lat="50.4853" lon="2.88112">
        <ele>-22.8</ele>
        <time>2018-06-24T10:16:50Z</time>
      </trkpt>
      <trkpt lat="50.48515" lon="2.88113">
        <ele>-22.6</ele>
        <time>2018-06-24T10:16:54Z</time>
      </trkpt>
      <trkpt lat="50.48499" lon="2.88115">
        <ele>-22.4</ele>
        <time>2018-06-24T10:16:58Z</time>
      </trkpt>
      <trkpt lat="50.48483" lon="2.88117">
        <ele>-22.4</ele>
        <time>2018-06-24T10:17:02Z</time>
      </trkpt>
      <trkpt lat="50.48467" lon="2.88116">
        <ele>-22.6</ele>
        <time>2018-06-24T10:17:06Z</time>
      </trkpt>
      <trkpt lat="50.48451" lon="2.88117">
        <ele>-22.4</ele>
        <time>2018-06-24T10:17:10Z</time>
      </trkpt>
      <trkpt lat="50.48437" lon="2.88117">
        <ele>-22.8</ele>
        <time>2018-06-24T10:17:14Z</time>
      </trkpt>
      <trkpt lat="50.48429" lon="2.88129">
        <ele>-22.2</ele>
        <time>2018-06-24T10:17:18Z</time>
      </trkpt>
      <trkpt lat="50.48429" lon="2.88146">
        <ele>-21.8</ele>
        <time>2018-06-24T10:17:22Z</time>
      </trkpt>
      <trkpt lat="50.48432" lon="2.88165">
        <ele>-21.8</ele>
        <time>2018-06-24T10:17:26Z</time>
      </trkpt>
      <trkpt lat="50.48436" lon="2.88181">
        <ele>-21.2</ele>
        <time>2018-06-24T10:17:30Z</time>
      </trkpt>
      <trkpt lat="50.48441" lon="2.88196">
        <ele>-21.4</ele>
        <time>2018-06-24T10:17:34Z</time>
      </trkpt>
      <trkpt lat="50.48442" lon="2.88214">
        <ele>-21.4</ele>
        <time>2018-06-24T10:17:38Z</time>
      </trkpt>
      <trkpt lat="50.48444" lon="2.88231">
        <ele>-22.2</ele>
        <time>2018-06-24T10:17:42Z</time>
      </trkpt>
      <trkpt lat="50.48437" lon="2.88248">
        <ele>-22</ele>
        <time>2018-06-24T10:17:46Z</time>
      </trkpt>
      <trkpt lat="50.48432" lon="2.88259">
        <ele>-22</ele>
        <time>2018-06-24T10:17:50Z</time>
      </trkpt>
      <trkpt lat="50.48425" lon="2.88265">
        <ele>-21.4</ele>
        <time>2018-06-24T10:17:54Z</time>
      </trkpt>
      <trkpt lat="50.48416" lon="2.88267">
        <ele>-22.4</ele>
        <time>2018-06-24T10:17:58Z</time>
      </trkpt>
      <trkpt lat="50.48404" lon="2.88266">
        <ele>-22.2</ele>
        <time>2018-06-24T10:18:02Z</time>
      </trkpt>
      <trkpt lat="50.484" lon="2.88252">
        <ele>-22.4</ele>
        <time>2018-06-24T10:18:06Z</time>
      </trkpt>
      <trkpt lat="50.48398" lon="2.88232">
        <ele>-22.6</ele>
        <time>2018-06-24T10:18:10Z</time>
      </trkpt>
      <trkpt lat="50.48397" lon="2.88213">
        <ele>-22.6</ele>
        <time>2018-06-24T10:18:14Z</time>
      </trkpt>
      <trkpt lat="50.48398" lon="2.88194">
        <ele>-22.4</ele>
        <time>2018-06-24T10:18:18Z</time>
      </trkpt>
      <trkpt lat="50.48396" lon="2.88177">
        <ele>-22.4</ele>
        <time>2018-06-24T10:18:22Z</time>
      </trkpt>
      <trkpt lat="50.48396" lon="2.8816">
        <ele>-22</ele>
        <time>2018-06-24T10:18:26Z</time>
      </trkpt>
      <trkpt lat="50.48396" lon="2.88143">
        <ele>-22.4</ele>
        <time>2018-06-24T10:18:30Z</time>
      </trkpt>
      <trkpt lat="50.48393" lon="2.88127">
        <ele>-22.8</ele>
        <time>2018-06-24T10:18:34Z</time>
      </trkpt>
      <trkpt lat="50.48382" lon="2.8812">
        <ele>-22.6</ele>
        <time>2018-06-24T10:18:38Z</time>
      </trkpt>
      <trkpt lat="50.48369" lon="2.88121">
        <ele>-22.2</ele>
        <time>2018-06-24T10:18:42Z</time>
      </trkpt>
      <trkpt lat="50.48355" lon="2.88122">
        <ele>-22.4</ele>
        <time>2018-06-24T10:18:46Z</time>
      </trkpt>
      <trkpt lat="50.4834" lon="2.88123">
        <ele>-22.4</ele>
        <time>2018-06-24T10:18:50Z</time>
      </trkpt>
      <trkpt lat="50.48324" lon="2.88124">
        <ele>-22.8</ele>
        <time>2018-06-24T10:18:54Z</time>
      </trkpt>
      <trkpt lat="50.48308" lon="2.88125">
        <ele>-22.6</ele>
        <time>2018-06-24T10:18:58Z</time>
      </trkpt>
      <trkpt lat="50.48293" lon="2.88126">
        <ele>-22.4</ele>
        <time>2018-06-24T10:19:02Z</time>
      </trkpt>
      <trkpt lat="50.48277" lon="2.88127">
        <ele>-22.8</ele>
        <time>2018-06-24T10:19:06Z</time>
      </trkpt>
      <trkpt lat="50.48261" lon="2.88128">
        <ele>-22.8</ele>
        <time>2018-06-24T10:19:10Z</time>
      </trkpt>
      <trkpt lat="50.48244" lon="2.88129">
        <ele>-23</ele>
        <time>2018-06-24T10:19:14Z</time>
      </trkpt>
      <trkpt lat="50.48228" lon="2.8813">
        <ele>-22.6</ele>
        <time>2018-06-24T10:19:18Z</time>
      </trkpt>
      <trkpt lat="50.4821" lon="2.88131">
        <ele>-22.6</ele>
        <time>2018-06-24T10:19:22Z</time>
      </trkpt>
      <trkpt lat="50.48193" lon="2.88132">
        <ele>-22.8</ele>
        <time>2018-06-24T10:19:26Z</time>
      </trkpt>
      <trkpt lat="50.48175" lon="2.88134">
        <ele>-23.2</ele>
        <time>2018-06-24T10:19:30Z</time>
      </trkpt>
      <trkpt lat="50.48155" lon="2.88135">
        <ele>-22.8</ele>
        <time>2018-06-24T10:19:34Z</time>
      </trkpt>
      <trkpt lat="50.48136" lon="2.88136">
        <ele>-23.2</ele>
        <time>2018-06-24T10:19:38Z</time>
      </trkpt>
      <trkpt lat="50.48117" lon="2.88138">
        <ele>-22.8</ele>
        <time>2018-06-24T10:19:42Z</time>
      </trkpt>
      <trkpt lat="50.48098" lon="2.8814">
        <ele>-23.2</ele>
        <time>2018-06-24T10:19:46Z</time>
      </trkpt>
      <trkpt lat="50.4808" lon="2.88141">
        <ele>-23.2</ele>
        <time>2018-06-24T10:19:50Z</time>
      </trkpt>
      <trkpt lat="50.4806" lon="2.88142">
        <ele>-23.2</ele>
        <time>2018-06-24T10:19:54Z</time>
      </trkpt>
      <trkpt lat="50.4804" lon="2.88143">
        <ele>-23.6</ele>
        <time>2018-06-24T10:19:58Z</time>
      </trkpt>
      <trkpt lat="50.48021" lon="2.88144">
        <ele>-22.6</ele>
        <time>2018-06-24T10:20:02Z</time>
      </trkpt>
      <trkpt lat="50.48001" lon="2.88145">
        <ele>-22.8</ele>
        <time>2018-06-24T10:20:06Z</time>
      </trkpt>
      <trkpt lat="50.47981" lon="2.88147">
        <ele>-22.4</ele>
        <time>2018-06-24T10:20:10Z</time>
      </trkpt>
      <trkpt lat="50.47961" lon="2.88149">
        <ele>-21.8</ele>
        <time>2018-06-24T10:20:14Z</time>
      </trkpt>
      <trkpt lat="50.4794" lon="2.88151">
        <ele>-22.6</ele>
        <time>2018-06-24T10:20:18Z</time>
      </trkpt>
      <trkpt lat="50.47921" lon="2.88154">
        <ele>-22</ele>
        <time>2018-06-24T10:20:22Z</time>
      </trkpt>
      <trkpt lat="50.47901" lon="2.88158">
        <ele>-22.6</ele>
        <time>2018-06-24T10:20:26Z</time>
      </trkpt>
      <trkpt lat="50.4788" lon="2.88162">
        <ele>-22.8</ele>
        <time>2018-06-24T10:20:30Z</time>
      </trkpt>
      <trkpt lat="50.4786" lon="2.88165">
        <ele>-22.8</ele>
        <time>2018-06-24T10:20:34Z</time>
      </trkpt>
      <trkpt lat="50.4784" lon="2.88168">
        <ele>-22.8</ele>
        <time>2018-06-24T10:20:38Z</time>
      </trkpt>
      <trkpt lat="50.47824" lon="2.88169">
        <ele>-22.8</ele>
        <time>2018-06-24T10:20:42Z</time>
      </trkpt>
      <trkpt lat="50.47807" lon="2.88172">
        <ele>-23.2</ele>
        <time>2018-06-24T10:20:46Z</time>
      </trkpt>
      <trkpt lat="50.47789" lon="2.88178">
        <ele>-22.6</ele>
        <time>2018-06-24T10:20:50Z</time>
      </trkpt>
      <trkpt lat="50.47768" lon="2.88184">
        <ele>-22.4</ele>
        <time>2018-06-24T10:20:54Z</time>
      </trkpt>
      <trkpt lat="50.47749" lon="2.88192">
        <ele>-22.8</ele>
        <time>2018-06-24T10:20:58Z</time>
      </trkpt>
      <trkpt lat="50.47729" lon="2.882">
        <ele>-22.8</ele>
        <time>2018-06-24T10:21:02Z</time>
      </trkpt>
      <trkpt lat="50.47709" lon="2.88209">
        <ele>-21.8</ele>
        <time>2018-06-24T10:21:06Z</time>
      </trkpt>
      <trkpt lat="50.47691" lon="2.88217">
        <ele>-22.6</ele>
        <time>2018-06-24T10:21:10Z</time>
      </trkpt>
      <trkpt lat="50.47671" lon="2.88225">
        <ele>-22.2</ele>
        <time>2018-06-24T10:21:14Z</time>
      </trkpt>
      <trkpt lat="50.47652" lon="2.88234">
        <ele>-23</ele>
        <time>2018-06-24T10:21:18Z</time>
      </trkpt>
      <trkpt lat="50.47633" lon="2.88243">
        <ele>-22.6</ele>
        <time>2018-06-24T10:21:22Z</time>
      </trkpt>
      <trkpt lat="50.47613" lon="2.88251">
        <ele>-22.4</ele>
        <time>2018-06-24T10:21:26Z</time>
      </trkpt>
      <trkpt lat="50.47595" lon="2.88259">
        <ele>-23.2</ele>
        <time>2018-06-24T10:21:30Z</time>
      </trkpt>
      <trkpt lat="50.47577" lon="2.88267">
        <ele>-22.6</ele>
        <time>2018-06-24T10:21:34Z</time>
      </trkpt>
      <trkpt lat="50.47559" lon="2.88272">
        <ele>-23.2</ele>
        <time>2018-06-24T10:21:38Z</time>
      </trkpt>
      <trkpt lat="50.4754" lon="2.88277">
        <ele>-22.8</ele>
        <time>2018-06-24T10:21:42Z</time>
      </trkpt>
      <trkpt lat="50.47522" lon="2.88282">
        <ele>-22.8</ele>
        <time>2018-06-24T10:21:46Z</time>
      </trkpt>
      <trkpt lat="50.47504" lon="2.88287">
        <ele>-22.8</ele>
        <time>2018-06-24T10:21:50Z</time>
      </trkpt>
      <trkpt lat="50.47486" lon="2.88293">
        <ele>-22.6</ele>
        <time>2018-06-24T10:21:54Z</time>
      </trkpt>
      <trkpt lat="50.47468" lon="2.883">
        <ele>-21.4</ele>
        <time>2018-06-24T10:21:58Z</time>
      </trkpt>
      <trkpt lat="50.4745" lon="2.88307">
        <ele>-22</ele>
        <time>2018-06-24T10:22:02Z</time>
      </trkpt>
      <trkpt lat="50.47435" lon="2.88314">
        <ele>-23.2</ele>
        <time>2018-06-24T10:22:06Z</time>
      </trkpt>
      <trkpt lat="50.47421" lon="2.8832">
        <ele>-22.6</ele>
        <time>2018-06-24T10:22:10Z</time>
      </trkpt>
      <trkpt lat="50.4741" lon="2.88324">
        <ele>-21.6</ele>
        <time>2018-06-24T10:22:14Z</time>
      </trkpt>
      <trkpt lat="50.47393" lon="2.88333">
        <ele>-21.4</ele>
        <time>2018-06-24T10:22:18Z</time>
      </trkpt>
      <trkpt lat="50.47377" lon="2.8834">
        <ele>-20.8</ele>
        <time>2018-06-24T10:22:22Z</time>
      </trkpt>
      <trkpt lat="50.47364" lon="2.8835">
        <ele>-21.4</ele>
        <time>2018-06-24T10:22:26Z</time>
      </trkpt>
      <trkpt lat="50.47349" lon="2.88363">
        <ele>-21.8</ele>
        <time>2018-06-24T10:22:30Z</time>
      </trkpt>
      <trkpt lat="50.47334" lon="2.88379">
        <ele>-22</ele>
        <time>2018-06-24T10:22:34Z</time>
      </trkpt>
      <trkpt lat="50.47318" lon="2.88395">
        <ele>-22.4</ele>
        <time>2018-06-24T10:22:38Z</time>
      </trkpt>
      <trkpt lat="50.47303" lon="2.88411">
        <ele>-22.2</ele>
        <time>2018-06-24T10:22:42Z</time>
      </trkpt>
      <trkpt lat="50.47289" lon="2.88425">
        <ele>-22</ele>
        <time>2018-06-24T10:22:46Z</time>
      </trkpt>
      <trkpt lat="50.47276" lon="2.88442">
        <ele>-22</ele>
        <time>2018-06-24T10:22:50Z</time>
      </trkpt>
      <trkpt lat="50.47261" lon="2.88459">
        <ele>-21.8</ele>
        <time>2018-06-24T10:22:54Z</time>
      </trkpt>
      <trkpt lat="50.47247" lon="2.88477">
        <ele>-22</ele>
        <time>2018-06-24T10:22:58Z</time>
      </trkpt>
      <trkpt lat="50.47233" lon="2.88495">
        <ele>-21.8</ele>
        <time>2018-06-24T10:23:02Z</time>
      </trkpt>
      <trkpt lat="50.47218" lon="2.88514">
        <ele>-22.2</ele>
        <time>2018-06-24T10:23:06Z</time>
      </trkpt>
      <trkpt lat="50.47205" lon="2.88536">
        <ele>-22.2</ele>
        <time>2018-06-24T10:23:10Z</time>
      </trkpt>
      <trkpt lat="50.47192" lon="2.88558">
        <ele>-22.2</ele>
        <time>2018-06-24T10:23:14Z</time>
      </trkpt>
      <trkpt lat="50.4718" lon="2.8858">
        <ele>-22.4</ele>
        <time>2018-06-24T10:23:18Z</time>
      </trkpt>
      <trkpt lat="50.47169" lon="2.88605">
        <ele>-22.4</ele>
        <time>2018-06-24T10:23:22Z</time>
      </trkpt>
      <trkpt lat="50.47157" lon="2.88629">
        <ele>-21.8</ele>
        <time>2018-06-24T10:23:26Z</time>
      </trkpt>
      <trkpt lat="50.47147" lon="2.88655">
        <ele>-22.4</ele>
        <time>2018-06-24T10:23:30Z</time>
      </trkpt>
      <trkpt lat="50.47137" lon="2.8868">
        <ele>-22.2</ele>
        <time>2018-06-24T10:23:34Z</time>
      </trkpt>
      <trkpt lat="50.47128" lon="2.88706">
        <ele>-22.2</ele>
        <time>2018-06-24T10:23:38Z</time>
      </trkpt>
      <trkpt lat="50.47119" lon="2.88732">
        <ele>-22</ele>
        <time>2018-06-24T10:23:42Z</time>
      </trkpt>
      <trkpt lat="50.47111" lon="2.88758">
        <ele>-21.8</ele>
        <time>2018-06-24T10:23:46Z</time>
      </trkpt>
      <trkpt lat="50.47105" lon="2.88786">
        <ele>-21.8</ele>
        <time>2018-06-24T10:23:50Z</time>
      </trkpt>
      <trkpt lat="50.47099" lon="2.88813">
        <ele>-22</ele>
        <time>2018-06-24T10:23:54Z</time>
      </trkpt>
      <trkpt lat="50.47094" lon="2.88842">
        <ele>-21.8</ele>
        <time>2018-06-24T10:23:58Z</time>
      </trkpt>
      <trkpt lat="50.4709" lon="2.88871">
        <ele>-22.4</ele>
        <time>2018-06-24T10:24:02Z</time>
      </trkpt>
      <trkpt lat="50.47087" lon="2.889">
        <ele>-22.2</ele>
        <time>2018-06-24T10:24:06Z</time>
      </trkpt>
      <trkpt lat="50.47085" lon="2.8893">
        <ele>-21.8</ele>
        <time>2018-06-24T10:24:10Z</time>
      </trkpt>
      <trkpt lat="50.47082" lon="2.88959">
        <ele>-22.4</ele>
        <time>2018-06-24T10:24:14Z</time>
      </trkpt>
      <trkpt lat="50.47079" lon="2.88988">
        <ele>-22.4</ele>
        <time>2018-06-24T10:24:18Z</time>
      </trkpt>
      <trkpt lat="50.47077" lon="2.89017">
        <ele>-22.2</ele>
        <time>2018-06-24T10:24:22Z</time>
      </trkpt>
      <trkpt lat="50.47074" lon="2.89045">
        <ele>-22.6</ele>
        <time>2018-06-24T10:24:26Z</time>
      </trkpt>
      <trkpt lat="50.47072" lon="2.89073">
        <ele>-22.2</ele>
        <time>2018-06-24T10:24:30Z</time>
      </trkpt>
      <trkpt lat="50.4707" lon="2.891">
        <ele>-22.6</ele>
        <time>2018-06-24T10:24:34Z</time>
      </trkpt>
      <trkpt lat="50.47068" lon="2.89128">
        <ele>-22.6</ele>
        <time>2018-06-24T10:24:38Z</time>
      </trkpt>
      <trkpt lat="50.47065" lon="2.89156">
        <ele>-22.4</ele>
        <time>2018-06-24T10:24:42Z</time>
      </trkpt>
      <trkpt lat="50.47063" lon="2.89186">
        <ele>-22</ele>
        <time>2018-06-24T10:24:46Z</time>
      </trkpt>
      <trkpt lat="50.47061" lon="2.89213">
        <ele>-22.2</ele>
        <time>2018-06-24T10:24:50Z</time>
      </trkpt>
      <trkpt lat="50.47059" lon="2.89241">
        <ele>-22.4</ele>
        <time>2018-06-24T10:24:54Z</time>
      </trkpt>
      <trkpt lat="50.47056" lon="2.89268">
        <ele>-22.2</ele>
        <time>2018-06-24T10:24:58Z</time>
      </trkpt>
      <trkpt lat="50.47054" lon="2.89296">
        <ele>-22.2</ele>
        <time>2018-06-24T10:25:02Z</time>
      </trkpt>
      <trkpt lat="50.47052" lon="2.89325">
        <ele>-22</ele>
        <time>2018-06-24T10:25:06Z</time>
      </trkpt>
      <trkpt lat="50.47049" lon="2.89355">
        <ele>-21.8</ele>
        <time>2018-06-24T10:25:10Z</time>
      </trkpt>
      <trkpt lat="50.47046" lon="2.89383">
        <ele>-22.6</ele>
        <time>2018-06-24T10:25:14Z</time>
      </trkpt>
      <trkpt lat="50.47043" lon="2.89411">
        <ele>-22</ele>
        <time>2018-06-24T10:25:18Z</time>
      </trkpt>
      <trkpt lat="50.47041" lon="2.89439">
        <ele>-22.6</ele>
        <time>2018-06-24T10:25:22Z</time>
      </trkpt>
      <trkpt lat="50.47038" lon="2.89467">
        <ele>-22.2</ele>
        <time>2018-06-24T10:25:26Z</time>
      </trkpt>
      <trkpt lat="50.47033" lon="2.89494">
        <ele>-22</ele>
        <time>2018-06-24T10:25:30Z</time>
      </trkpt>
      <trkpt lat="50.47028" lon="2.89522">
        <ele>-21.6</ele>
        <time>2018-06-24T10:25:34Z</time>
      </trkpt>
      <trkpt lat="50.47024" lon="2.89549">
        <ele>-22.8</ele>
        <time>2018-06-24T10:25:38Z</time>
      </trkpt>
      <trkpt lat="50.4702" lon="2.89577">
        <ele>-22.2</ele>
        <time>2018-06-24T10:25:42Z</time>
      </trkpt>
      <trkpt lat="50.47018" lon="2.89605">
        <ele>-22.2</ele>
        <time>2018-06-24T10:25:46Z</time>
      </trkpt>
      <trkpt lat="50.47016" lon="2.89633">
        <ele>-22</ele>
        <time>2018-06-24T10:25:50Z</time>
      </trkpt>
      <trkpt lat="50.47014" lon="2.8966">
        <ele>-22</ele>
        <time>2018-06-24T10:25:54Z</time>
      </trkpt>
      <trkpt lat="50.47013" lon="2.89689">
        <ele>-22.2</ele>
        <time>2018-06-24T10:25:58Z</time>
      </trkpt>
      <trkpt lat="50.47009" lon="2.8972">
        <ele>-22</ele>
        <time>2018-06-24T10:26:02Z</time>
      </trkpt>
      <trkpt lat="50.47005" lon="2.89752">
        <ele>-22.4</ele>
        <time>2018-06-24T10:26:06Z</time>
      </trkpt>
      <trkpt lat="50.47004" lon="2.89783">
        <ele>-22.4</ele>
        <time>2018-06-24T10:26:10Z</time>
      </trkpt>
      <trkpt lat="50.47002" lon="2.89814">
        <ele>-22.8</ele>
        <time>2018-06-24T10:26:14Z</time>
      </trkpt>
      <trkpt lat="50.47001" lon="2.89845">
        <ele>-22.6</ele>
        <time>2018-06-24T10:26:18Z</time>
      </trkpt>
      <trkpt lat="50.47" lon="2.89876">
        <ele>-22.6</ele>
        <time>2018-06-24T10:26:22Z</time>
      </trkpt>
      <trkpt lat="50.46998" lon="2.89907">
        <ele>-22.4</ele>
        <time>2018-06-24T10:26:26Z</time>
      </trkpt>
      <trkpt lat="50.46996" lon="2.89936">
        <ele>-22.4</ele>
        <time>2018-06-24T10:26:30Z</time>
      </trkpt>
      <trkpt lat="50.46994" lon="2.89963">
        <ele>-22.8</ele>
        <time>2018-06-24T10:26:34Z</time>
      </trkpt>
      <trkpt lat="50.46994" lon="2.89987">
        <ele>-22.6</ele>
        <time>2018-06-24T10:26:38Z</time>
      </trkpt>
      <trkpt lat="50.46997" lon="2.90004">
        <ele>-22.6</ele>
        <time>2018-06-24T10:26:42Z</time>
      </trkpt>
      <trkpt lat="50.46995" lon="2.90018">
        <ele>-23.2</ele>
        <time>2018-06-24T10:26:46Z</time>
      </trkpt>
      <trkpt lat="50.46991" lon="2.90038">
        <ele>-22.2</ele>
        <time>2018-06-24T10:26:50Z</time>
      </trkpt>
      <trkpt lat="50.46986" lon="2.90062">
        <ele>-22</ele>
        <time>2018-06-24T10:26:54Z</time>
      </trkpt>
      <trkpt lat="50.4698" lon="2.90088">
        <ele>-22.2</ele>
        <time>2018-06-24T10:26:58Z</time>
      </trkpt>
      <trkpt lat="50.46977" lon="2.90117">
        <ele>-23.2</ele>
        <time>2018-06-24T10:27:02Z</time>
      </trkpt>
      <trkpt lat="50.46975" lon="2.90147">
        <ele>-22.8</ele>
        <time>2018-06-24T10:27:06Z</time>
      </trkpt>
      <trkpt lat="50.46972" lon="2.90177">
        <ele>-23</ele>
        <time>2018-06-24T10:27:10Z</time>
      </trkpt>
      <trkpt lat="50.46969" lon="2.90207">
        <ele>-23</ele>
        <time>2018-06-24T10:27:14Z</time>
      </trkpt>
      <trkpt lat="50.46967" lon="2.90236">
        <ele>-22.8</ele>
        <time>2018-06-24T10:27:18Z</time>
      </trkpt>
      <trkpt lat="50.46965" lon="2.90263">
        <ele>-22.6</ele>
        <time>2018-06-24T10:27:22Z</time>
      </trkpt>
      <trkpt lat="50.46962" lon="2.90287">
        <ele>-23.2</ele>
        <time>2018-06-24T10:27:26Z</time>
      </trkpt>
      <trkpt lat="50.4696" lon="2.90315">
        <ele>-23.2</ele>
        <time>2018-06-24T10:27:30Z</time>
      </trkpt>
      <trkpt lat="50.46957" lon="2.90345">
        <ele>-22.8</ele>
        <time>2018-06-24T10:27:34Z</time>
      </trkpt>
      <trkpt lat="50.46955" lon="2.90375">
        <ele>-22.8</ele>
        <time>2018-06-24T10:27:38Z</time>
      </trkpt>
      <trkpt lat="50.46953" lon="2.90404">
        <ele>-22</ele>
        <time>2018-06-24T10:27:42Z</time>
      </trkpt>
      <trkpt lat="50.46951" lon="2.90431">
        <ele>-22.6</ele>
        <time>2018-06-24T10:27:46Z</time>
      </trkpt>
      <trkpt lat="50.46949" lon="2.90456">
        <ele>-22.8</ele>
        <time>2018-06-24T10:27:50Z</time>
      </trkpt>
      <trkpt lat="50.46947" lon="2.90479">
        <ele>-22.8</ele>
        <time>2018-06-24T10:27:54Z</time>
      </trkpt>
      <trkpt lat="50.46946" lon="2.90499">
        <ele>-23.4</ele>
        <time>2018-06-24T10:27:58Z</time>
      </trkpt>
      <trkpt lat="50.46944" lon="2.90522">
        <ele>-23</ele>
        <time>2018-06-24T10:28:02Z</time>
      </trkpt>
      <trkpt lat="50.46942" lon="2.90548">
        <ele>-23</ele>
        <time>2018-06-24T10:28:06Z</time>
      </trkpt>
      <trkpt lat="50.4694" lon="2.90573">
        <ele>-23.2</ele>
        <time>2018-06-24T10:28:10Z</time>
      </trkpt>
      <trkpt lat="50.46938" lon="2.90598">
        <ele>-23.4</ele>
        <time>2018-06-24T10:28:14Z</time>
      </trkpt>
      <trkpt lat="50.46936" lon="2.90623">
        <ele>-22.8</ele>
        <time>2018-06-24T10:28:18Z</time>
      </trkpt>
      <trkpt lat="50.46933" lon="2.90649">
        <ele>-22.6</ele>
        <time>2018-06-24T10:28:22Z</time>
      </trkpt>
      <trkpt lat="50.46931" lon="2.90675">
        <ele>-22.8</ele>
        <time>2018-06-24T10:28:26Z</time>
      </trkpt>
      <trkpt lat="50.46929" lon="2.907">
        <ele>-23</ele>
        <time>2018-06-24T10:28:30Z</time>
      </trkpt>
      <trkpt lat="50.46927" lon="2.90722">
        <ele>-22.8</ele>
        <time>2018-06-24T10:28:34Z</time>
      </trkpt>
      <trkpt lat="50.46925" lon="2.90747">
        <ele>-23.2</ele>
        <time>2018-06-24T10:28:38Z</time>
      </trkpt>
      <trkpt lat="50.46923" lon="2.90773">
        <ele>-23</ele>
        <time>2018-06-24T10:28:42Z</time>
      </trkpt>
      <trkpt lat="50.46921" lon="2.908">
        <ele>-22.8</ele>
        <time>2018-06-24T10:28:46Z</time>
      </trkpt>
      <trkpt lat="50.46919" lon="2.90823">
        <ele>-22.8</ele>
        <time>2018-06-24T10:28:50Z</time>
      </trkpt>
      <trkpt lat="50.46916" lon="2.90847">
        <ele>-23</ele>
        <time>2018-06-24T10:28:54Z</time>
      </trkpt>
      <trkpt lat="50.46914" lon="2.90874">
        <ele>-22.6</ele>
        <time>2018-06-24T10:28:58Z</time>
      </trkpt>
      <trkpt lat="50.46913" lon="2.909">
        <ele>-22.8</ele>
        <time>2018-06-24T10:29:02Z</time>
      </trkpt>
      <trkpt lat="50.4691" lon="2.90924">
        <ele>-22.6</ele>
        <time>2018-06-24T10:29:06Z</time>
      </trkpt>
      <trkpt lat="50.46909" lon="2.90947">
        <ele>-23.6</ele>
        <time>2018-06-24T10:29:10Z</time>
      </trkpt>
      <trkpt lat="50.46907" lon="2.90969">
        <ele>-22.8</ele>
        <time>2018-06-24T10:29:14Z</time>
      </trkpt>
      <trkpt lat="50.46906" lon="2.90989">
        <ele>-23.2</ele>
        <time>2018-06-24T10:29:18Z</time>
      </trkpt>
      <trkpt lat="50.46904" lon="2.91007">
        <ele>-22.8</ele>
        <time>2018-06-24T10:29:22Z</time>
      </trkpt>
      <trkpt lat="50.469" lon="2.91024">
        <ele>-22.8</ele>
        <time>2018-06-24T10:29:26Z</time>
      </trkpt>
      <trkpt lat="50.46899" lon="2.91045">
        <ele>-22.8</ele>
        <time>2018-06-24T10:29:30Z</time>
      </trkpt>
      <trkpt lat="50.46903" lon="2.91063">
        <ele>-23</ele>
        <time>2018-06-24T10:29:34Z</time>
      </trkpt>
      <trkpt lat="50.46898" lon="2.91084">
        <ele>-22.6</ele>
        <time>2018-06-24T10:29:38Z</time>
      </trkpt>
      <trkpt lat="50.46896" lon="2.91106">
        <ele>-22</ele>
        <time>2018-06-24T10:29:42Z</time>
      </trkpt>
      <trkpt lat="50.46894" lon="2.91131">
        <ele>-21.6</ele>
        <time>2018-06-24T10:29:46Z</time>
      </trkpt>
      <trkpt lat="50.46892" lon="2.91155">
        <ele>-21.8</ele>
        <time>2018-06-24T10:29:50Z</time>
      </trkpt>
      <trkpt lat="50.4689" lon="2.9118">
        <ele>-21.8</ele>
        <time>2018-06-24T10:29:54Z</time>
      </trkpt>
      <trkpt lat="50.46888" lon="2.91205">
        <ele>-21.8</ele>
        <time>2018-06-24T10:29:58Z</time>
      </trkpt>
      <trkpt lat="50.46887" lon="2.9123">
        <ele>-21.8</ele>
        <time>2018-06-24T10:30:02Z</time>
      </trkpt>
      <trkpt lat="50.4689" lon="2.91255">
        <ele>-21.2</ele>
        <time>2018-06-24T10:30:06Z</time>
      </trkpt>
      <trkpt lat="50.46889" lon="2.91281">
        <ele>-21.4</ele>
        <time>2018-06-24T10:30:10Z</time>
      </trkpt>
      <trkpt lat="50.46886" lon="2.91307">
        <ele>-20.8</ele>
        <time>2018-06-24T10:30:14Z</time>
      </trkpt>
      <trkpt lat="50.46885" lon="2.91334">
        <ele>-21.4</ele>
        <time>2018-06-24T10:30:18Z</time>
      </trkpt>
      <trkpt lat="50.46882" lon="2.9136">
        <ele>-20.6</ele>
        <time>2018-06-24T10:30:22Z</time>
      </trkpt>
      <trkpt lat="50.46882" lon="2.91386">
        <ele>-20.8</ele>
        <time>2018-06-24T10:30:26Z</time>
      </trkpt>
      <trkpt lat="50.46879" lon="2.91412">
        <ele>-21.6</ele>
        <time>2018-06-24T10:30:30Z</time>
      </trkpt>
      <trkpt lat="50.46877" lon="2.91437">
        <ele>-21.4</ele>
        <time>2018-06-24T10:30:34Z</time>
      </trkpt>
      <trkpt lat="50.46875" lon="2.91463">
        <ele>-21.8</ele>
        <time>2018-06-24T10:30:38Z</time>
      </trkpt>
      <trkpt lat="50.46872" lon="2.91489">
        <ele>-21.8</ele>
        <time>2018-06-24T10:30:42Z</time>
      </trkpt>
      <trkpt lat="50.4687" lon="2.91515">
        <ele>-21.4</ele>
        <time>2018-06-24T10:30:46Z</time>
      </trkpt>
      <trkpt lat="50.46868" lon="2.91541">
        <ele>-21.4</ele>
        <time>2018-06-24T10:30:50Z</time>
      </trkpt>
      <trkpt lat="50.46865" lon="2.91567">
        <ele>-21.4</ele>
        <time>2018-06-24T10:30:54Z</time>
      </trkpt>
      <trkpt lat="50.46863" lon="2.91594">
        <ele>-21</ele>
        <time>2018-06-24T10:30:58Z</time>
      </trkpt>
      <trkpt lat="50.46861" lon="2.91621">
        <ele>-20.8</ele>
        <time>2018-06-24T10:31:02Z</time>
      </trkpt>
      <trkpt lat="50.46859" lon="2.91648">
        <ele>-21.2</ele>
        <time>2018-06-24T10:31:06Z</time>
      </trkpt>
      <trkpt lat="50.46856" lon="2.91676">
        <ele>-21</ele>
        <time>2018-06-24T10:31:10Z</time>
      </trkpt>
      <trkpt lat="50.46854" lon="2.91704">
        <ele>-20.8</ele>
        <time>2018-06-24T10:31:14Z</time>
      </trkpt>
      <trkpt lat="50.46852" lon="2.91731">
        <ele>-20.8</ele>
        <time>2018-06-24T10:31:18Z</time>
      </trkpt>
      <trkpt lat="50.46849" lon="2.91758">
        <ele>-21.4</ele>
        <time>2018-06-24T10:31:22Z</time>
      </trkpt>
      <trkpt lat="50.46847" lon="2.91786">
        <ele>-21.4</ele>
        <time>2018-06-24T10:31:26Z</time>
      </trkpt>
      <trkpt lat="50.46845" lon="2.91814">
        <ele>-21.4</ele>
        <time>2018-06-24T10:31:30Z</time>
      </trkpt>
      <trkpt lat="50.46842" lon="2.91842">
        <ele>-21.6</ele>
        <time>2018-06-24T10:31:34Z</time>
      </trkpt>
      <trkpt lat="50.4684" lon="2.9187">
        <ele>-21.8</ele>
        <time>2018-06-24T10:31:38Z</time>
      </trkpt>
      <trkpt lat="50.46837" lon="2.91898">
        <ele>-21.2</ele>
        <time>2018-06-24T10:31:42Z</time>
      </trkpt>
      <trkpt lat="50.46835" lon="2.91927">
        <ele>-21.8</ele>
        <time>2018-06-24T10:31:46Z</time>
      </trkpt>
      <trkpt lat="50.46833" lon="2.91956">
        <ele>-22</ele>
        <time>2018-06-24T10:31:50Z</time>
      </trkpt>
      <trkpt lat="50.46831" lon="2.91984">
        <ele>-21.6</ele>
        <time>2018-06-24T10:31:54Z</time>
      </trkpt>
      <trkpt lat="50.46829" lon="2.92013">
        <ele>-21.6</ele>
        <time>2018-06-24T10:31:58Z</time>
      </trkpt>
      <trkpt lat="50.46828" lon="2.92042">
        <ele>-21.8</ele>
        <time>2018-06-24T10:32:02Z</time>
      </trkpt>
      <trkpt lat="50.46826" lon="2.92071">
        <ele>-21.4</ele>
        <time>2018-06-24T10:32:06Z</time>
      </trkpt>
      <trkpt lat="50.46825" lon="2.921">
        <ele>-21.4</ele>
        <time>2018-06-24T10:32:10Z</time>
      </trkpt>
      <trkpt lat="50.46823" lon="2.92129">
        <ele>-20.8</ele>
        <time>2018-06-24T10:32:14Z</time>
      </trkpt>
      <trkpt lat="50.46823" lon="2.92158">
        <ele>-21.4</ele>
        <time>2018-06-24T10:32:18Z</time>
      </trkpt>
      <trkpt lat="50.46823" lon="2.92188">
        <ele>-21.4</ele>
        <time>2018-06-24T10:32:22Z</time>
      </trkpt>
      <trkpt lat="50.46823" lon="2.92218">
        <ele>-21.4</ele>
        <time>2018-06-24T10:32:26Z</time>
      </trkpt>
      <trkpt lat="50.46823" lon="2.92247">
        <ele>-21.4</ele>
        <time>2018-06-24T10:32:30Z</time>
      </trkpt>
      <trkpt lat="50.46824" lon="2.92276">
        <ele>-21.4</ele>
        <time>2018-06-24T10:32:34Z</time>
      </trkpt>
      <trkpt lat="50.46825" lon="2.92305">
        <ele>-21.8</ele>
        <time>2018-06-24T10:32:38Z</time>
      </trkpt>
      <trkpt lat="50.46826" lon="2.92335">
        <ele>-21.6</ele>
        <time>2018-06-24T10:32:42Z</time>
      </trkpt>
      <trkpt lat="50.46827" lon="2.92365">
        <ele>-21.4</ele>
        <time>2018-06-24T10:32:46Z</time>
      </trkpt>
      <trkpt lat="50.46829" lon="2.92395">
        <ele>-21.8</ele>
        <time>2018-06-24T10:32:50Z</time>
      </trkpt>
      <trkpt lat="50.46831" lon="2.92424">
        <ele>-21.6</ele>
        <time>2018-06-24T10:32:54Z</time>
      </trkpt>
      <trkpt lat="50.46832" lon="2.92454">
        <ele>-21.8</ele>
        <time>2018-06-24T10:32:58Z</time>
      </trkpt>
      <trkpt lat="50.46833" lon="2.92485">
        <ele>-21.6</ele>
        <time>2018-06-24T10:33:02Z</time>
      </trkpt>
      <trkpt lat="50.46834" lon="2.92515">
        <ele>-21.8</ele>
        <time>2018-06-24T10:33:06Z</time>
      </trkpt>
      <trkpt lat="50.46836" lon="2.92546">
        <ele>-22</ele>
        <time>2018-06-24T10:33:10Z</time>
      </trkpt>
      <trkpt lat="50.46837" lon="2.92578">
        <ele>-21.2</ele>
        <time>2018-06-24T10:33:14Z</time>
      </trkpt>
      <trkpt lat="50.46838" lon="2.92609">
        <ele>-22.2</ele>
        <time>2018-06-24T10:33:18Z</time>
      </trkpt>
      <trkpt lat="50.4684" lon="2.9264">
        <ele>-22</ele>
        <time>2018-06-24T10:33:22Z</time>
      </trkpt>
      <trkpt lat="50.46842" lon="2.92669">
        <ele>-21.8</ele>
        <time>2018-06-24T10:33:26Z</time>
      </trkpt>
      <trkpt lat="50.46843" lon="2.92699">
        <ele>-22.4</ele>
        <time>2018-06-24T10:33:30Z</time>
      </trkpt>
      <trkpt lat="50.46845" lon="2.92728">
        <ele>-22</ele>
        <time>2018-06-24T10:33:34Z</time>
      </trkpt>
      <trkpt lat="50.46847" lon="2.92758">
        <ele>-21.8</ele>
        <time>2018-06-24T10:33:38Z</time>
      </trkpt>
      <trkpt lat="50.46849" lon="2.92788">
        <ele>-21.6</ele>
        <time>2018-06-24T10:33:42Z</time>
      </trkpt>
      <trkpt lat="50.46851" lon="2.92817">
        <ele>-21.8</ele>
        <time>2018-06-24T10:33:46Z</time>
      </trkpt>
      <trkpt lat="50.46852" lon="2.92846">
        <ele>-21.6</ele>
        <time>2018-06-24T10:33:50Z</time>
      </trkpt>
      <trkpt lat="50.46853" lon="2.92875">
        <ele>-21.2</ele>
        <time>2018-06-24T10:33:54Z</time>
      </trkpt>
      <trkpt lat="50.46855" lon="2.92903">
        <ele>-21.8</ele>
        <time>2018-06-24T10:33:58Z</time>
      </trkpt>
      <trkpt lat="50.46856" lon="2.92931">
        <ele>-21.8</ele>
        <time>2018-06-24T10:34:02Z</time>
      </trkpt>
      <trkpt lat="50.46858" lon="2.92961">
        <ele>-21.2</ele>
        <time>2018-06-24T10:34:06Z</time>
      </trkpt>
      <trkpt lat="50.46859" lon="2.92989">
        <ele>-22</ele>
        <time>2018-06-24T10:34:10Z</time>
      </trkpt>
      <trkpt lat="50.4686" lon="2.93018">
        <ele>-21.4</ele>
        <time>2018-06-24T10:34:14Z</time>
      </trkpt>
      <trkpt lat="50.46862" lon="2.93046">
        <ele>-21.4</ele>
        <time>2018-06-24T10:34:18Z</time>
      </trkpt>
      <trkpt lat="50.46863" lon="2.93074">
        <ele>-22</ele>
        <time>2018-06-24T10:34:22Z</time>
      </trkpt>
      <trkpt lat="50.46865" lon="2.93102">
        <ele>-21.8</ele>
        <time>2018-06-24T10:34:26Z</time>
      </trkpt>
      <trkpt lat="50.46867" lon="2.93131">
        <ele>-21.6</ele>
        <time>2018-06-24T10:34:30Z</time>
      </trkpt>
      <trkpt lat="50.46869" lon="2.93161">
        <ele>-21.8</ele>
        <time>2018-06-24T10:34:34Z</time>
      </trkpt>
      <trkpt lat="50.4687" lon="2.93192">
        <ele>-22</ele>
        <time>2018-06-24T10:34:38Z</time>
      </trkpt>
      <trkpt lat="50.46872" lon="2.93222">
        <ele>-21.8</ele>
        <time>2018-06-24T10:34:42Z</time>
      </trkpt>
      <trkpt lat="50.46873" lon="2.93252">
        <ele>-22.2</ele>
        <time>2018-06-24T10:34:46Z</time>
      </trkpt>
      <trkpt lat="50.46875" lon="2.93283">
        <ele>-22</ele>
        <time>2018-06-24T10:34:50Z</time>
      </trkpt>
      <trkpt lat="50.46876" lon="2.93313">
        <ele>-22</ele>
        <time>2018-06-24T10:34:54Z</time>
      </trkpt>
      <trkpt lat="50.46878" lon="2.93342">
        <ele>-22</ele>
        <time>2018-06-24T10:34:58Z</time>
      </trkpt>
      <trkpt lat="50.46879" lon="2.93371">
        <ele>-21.8</ele>
        <time>2018-06-24T10:35:02Z</time>
      </trkpt>
      <trkpt lat="50.46881" lon="2.93399">
        <ele>-21.4</ele>
        <time>2018-06-24T10:35:06Z</time>
      </trkpt>
      <trkpt lat="50.46882" lon="2.93428">
        <ele>-21.2</ele>
        <time>2018-06-24T10:35:10Z</time>
      </trkpt>
      <trkpt lat="50.46883" lon="2.93455">
        <ele>-21.8</ele>
        <time>2018-06-24T10:35:14Z</time>
      </trkpt>
      <trkpt lat="50.46884" lon="2.93482">
        <ele>-21.8</ele>
        <time>2018-06-24T10:35:18Z</time>
      </trkpt>
      <trkpt lat="50.46885" lon="2.93511">
        <ele>-21.4</ele>
        <time>2018-06-24T10:35:22Z</time>
      </trkpt>
      <trkpt lat="50.46885" lon="2.9354">
        <ele>-21.4</ele>
        <time>2018-06-24T10:35:26Z</time>
      </trkpt>
      <trkpt lat="50.46885" lon="2.9357">
        <ele>-21.8</ele>
        <time>2018-06-24T10:35:30Z</time>
      </trkpt>
      <trkpt lat="50.46885" lon="2.93601">
        <ele>-21</ele>
        <time>2018-06-24T10:35:34Z</time>
      </trkpt>
      <trkpt lat="50.46886" lon="2.93632">
        <ele>-21.4</ele>
        <time>2018-06-24T10:35:38Z</time>
      </trkpt>
      <trkpt lat="50.46886" lon="2.93663">
        <ele>-21.2</ele>
        <time>2018-06-24T10:35:42Z</time>
      </trkpt>
      <trkpt lat="50.46886" lon="2.93694">
        <ele>-21.2</ele>
        <time>2018-06-24T10:35:46Z</time>
      </trkpt>
      <trkpt lat="50.46886" lon="2.93726">
        <ele>-21.2</ele>
        <time>2018-06-24T10:35:50Z</time>
      </trkpt>
      <trkpt lat="50.46886" lon="2.93757">
        <ele>-21</ele>
        <time>2018-06-24T10:35:54Z</time>
      </trkpt>
      <trkpt lat="50.46886" lon="2.93788">
        <ele>-21.4</ele>
        <time>2018-06-24T10:35:58Z</time>
      </trkpt>
      <trkpt lat="50.46886" lon="2.9382">
        <ele>-21.4</ele>
        <time>2018-06-24T10:36:02Z</time>
      </trkpt>
      <trkpt lat="50.46886" lon="2.93851">
        <ele>-21.2</ele>
        <time>2018-06-24T10:36:06Z</time>
      </trkpt>
      <trkpt lat="50.46885" lon="2.93882">
        <ele>-21.4</ele>
        <time>2018-06-24T10:36:10Z</time>
      </trkpt>
      <trkpt lat="50.46885" lon="2.93912">
        <ele>-21.2</ele>
        <time>2018-06-24T10:36:14Z</time>
      </trkpt>
      <trkpt lat="50.46886" lon="2.93942">
        <ele>-21.8</ele>
        <time>2018-06-24T10:36:18Z</time>
      </trkpt>
      <trkpt lat="50.46886" lon="2.93972">
        <ele>-21.8</ele>
        <time>2018-06-24T10:36:22Z</time>
      </trkpt>
      <trkpt lat="50.46887" lon="2.94001">
        <ele>-21.6</ele>
        <time>2018-06-24T10:36:26Z</time>
      </trkpt>
      <trkpt lat="50.46888" lon="2.9403">
        <ele>-21.8</ele>
        <time>2018-06-24T10:36:30Z</time>
      </trkpt>
      <trkpt lat="50.46891" lon="2.9406">
        <ele>-22.2</ele>
        <time>2018-06-24T10:36:34Z</time>
      </trkpt>
      <trkpt lat="50.46891" lon="2.9409">
        <ele>-22</ele>
        <time>2018-06-24T10:36:38Z</time>
      </trkpt>
      <trkpt lat="50.46888" lon="2.94118">
        <ele>-22</ele>
        <time>2018-06-24T10:36:42Z</time>
      </trkpt>
      <trkpt lat="50.46888" lon="2.94146">
        <ele>-22.2</ele>
        <time>2018-06-24T10:36:46Z</time>
      </trkpt>
      <trkpt lat="50.46891" lon="2.94173">
        <ele>-22.4</ele>
        <time>2018-06-24T10:36:50Z</time>
      </trkpt>
      <trkpt lat="50.46893" lon="2.942">
        <ele>-22.6</ele>
        <time>2018-06-24T10:36:54Z</time>
      </trkpt>
      <trkpt lat="50.46895" lon="2.94222">
        <ele>-22.2</ele>
        <time>2018-06-24T10:36:58Z</time>
      </trkpt>
      <trkpt lat="50.46899" lon="2.94241">
        <ele>-22.6</ele>
        <time>2018-06-24T10:37:02Z</time>
      </trkpt>
      <trkpt lat="50.469" lon="2.94261">
        <ele>-22.2</ele>
        <time>2018-06-24T10:37:06Z</time>
      </trkpt>
      <trkpt lat="50.46902" lon="2.94285">
        <ele>-22.6</ele>
        <time>2018-06-24T10:37:10Z</time>
      </trkpt>
      <trkpt lat="50.46906" lon="2.9431">
        <ele>-22.6</ele>
        <time>2018-06-24T10:37:14Z</time>
      </trkpt>
      <trkpt lat="50.46909" lon="2.94336">
        <ele>-23</ele>
        <time>2018-06-24T10:37:18Z</time>
      </trkpt>
      <trkpt lat="50.4691" lon="2.94362">
        <ele>-22.4</ele>
        <time>2018-06-24T10:37:22Z</time>
      </trkpt>
      <trkpt lat="50.46914" lon="2.94388">
        <ele>-22.8</ele>
        <time>2018-06-24T10:37:26Z</time>
      </trkpt>
      <trkpt lat="50.46916" lon="2.94415">
        <ele>-23.2</ele>
        <time>2018-06-24T10:37:30Z</time>
      </trkpt>
      <trkpt lat="50.46919" lon="2.9444">
        <ele>-22.8</ele>
        <time>2018-06-24T10:37:34Z</time>
      </trkpt>
      <trkpt lat="50.46922" lon="2.94467">
        <ele>-22.8</ele>
        <time>2018-06-24T10:37:38Z</time>
      </trkpt>
      <trkpt lat="50.46925" lon="2.94495">
        <ele>-23</ele>
        <time>2018-06-24T10:37:42Z</time>
      </trkpt>
      <trkpt lat="50.46929" lon="2.94521">
        <ele>-23</ele>
        <time>2018-06-24T10:37:46Z</time>
      </trkpt>
      <trkpt lat="50.46931" lon="2.94549">
        <ele>-22.6</ele>
        <time>2018-06-24T10:37:50Z</time>
      </trkpt>
      <trkpt lat="50.46932" lon="2.94576">
        <ele>-22.8</ele>
        <time>2018-06-24T10:37:54Z</time>
      </trkpt>
      <trkpt lat="50.46934" lon="2.94602">
        <ele>-22.6</ele>
        <time>2018-06-24T10:37:58Z</time>
      </trkpt>
      <trkpt lat="50.46941" lon="2.94626">
        <ele>-22.6</ele>
        <time>2018-06-24T10:38:02Z</time>
      </trkpt>
      <trkpt lat="50.46945" lon="2.94651">
        <ele>-22.4</ele>
        <time>2018-06-24T10:38:06Z</time>
      </trkpt>
      <trkpt lat="50.46948" lon="2.94678">
        <ele>-22</ele>
        <time>2018-06-24T10:38:10Z</time>
      </trkpt>
      <trkpt lat="50.46951" lon="2.94706">
        <ele>-22.2</ele>
        <time>2018-06-24T10:38:14Z</time>
      </trkpt>
      <trkpt lat="50.46955" lon="2.94734">
        <ele>-22.2</ele>
        <time>2018-06-24T10:38:18Z</time>
      </trkpt>
      <trkpt lat="50.46958" lon="2.94761">
        <ele>-21.8</ele>
        <time>2018-06-24T10:38:22Z</time>
      </trkpt>
      <trkpt lat="50.46962" lon="2.94789">
        <ele>-22.4</ele>
        <time>2018-06-24T10:38:26Z</time>
      </trkpt>
      <trkpt lat="50.46965" lon="2.94817">
        <ele>-22.8</ele>
        <time>2018-06-24T10:38:30Z</time>
      </trkpt>
      <trkpt lat="50.46967" lon="2.94845">
        <ele>-22.2</ele>
        <time>2018-06-24T10:38:34Z</time>
      </trkpt>
      <trkpt lat="50.4697" lon="2.94873">
        <ele>-22.8</ele>
        <time>2018-06-24T10:38:38Z</time>
      </trkpt>
      <trkpt lat="50.46973" lon="2.949">
        <ele>-22.6</ele>
        <time>2018-06-24T10:38:42Z</time>
      </trkpt>
      <trkpt lat="50.46977" lon="2.94928">
        <ele>-22.2</ele>
        <time>2018-06-24T10:38:46Z</time>
      </trkpt>
      <trkpt lat="50.4698" lon="2.94956">
        <ele>-22.6</ele>
        <time>2018-06-24T10:38:50Z</time>
      </trkpt>
      <trkpt lat="50.46983" lon="2.94984">
        <ele>-22.4</ele>
        <time>2018-06-24T10:38:54Z</time>
      </trkpt>
      <trkpt lat="50.46987" lon="2.95012">
        <ele>-22.4</ele>
        <time>2018-06-24T10:38:58Z</time>
      </trkpt>
      <trkpt lat="50.46993" lon="2.95038">
        <ele>-22.6</ele>
        <time>2018-06-24T10:39:02Z</time>
      </trkpt>
      <trkpt lat="50.47002" lon="2.95064">
        <ele>-22.4</ele>
        <time>2018-06-24T10:39:06Z</time>
      </trkpt>
      <trkpt lat="50.47009" lon="2.9509">
        <ele>-22.6</ele>
        <time>2018-06-24T10:39:10Z</time>
      </trkpt>
      <trkpt lat="50.47013" lon="2.95119">
        <ele>-22</ele>
        <time>2018-06-24T10:39:14Z</time>
      </trkpt>
      <trkpt lat="50.47016" lon="2.95146">
        <ele>-22.2</ele>
        <time>2018-06-24T10:39:18Z</time>
      </trkpt>
      <trkpt lat="50.47019" lon="2.95175">
        <ele>-22.6</ele>
        <time>2018-06-24T10:39:22Z</time>
      </trkpt>
      <trkpt lat="50.47022" lon="2.95203">
        <ele>-22</ele>
        <time>2018-06-24T10:39:26Z</time>
      </trkpt>
      <trkpt lat="50.47024" lon="2.95233">
        <ele>-22.8</ele>
        <time>2018-06-24T10:39:30Z</time>
      </trkpt>
      <trkpt lat="50.47026" lon="2.95263">
        <ele>-22.6</ele>
        <time>2018-06-24T10:39:34Z</time>
      </trkpt>
      <trkpt lat="50.47028" lon="2.95293">
        <ele>-22.2</ele>
        <time>2018-06-24T10:39:38Z</time>
      </trkpt>
      <trkpt lat="50.47029" lon="2.95323">
        <ele>-22</ele>
        <time>2018-06-24T10:39:42Z</time>
      </trkpt>
      <trkpt lat="50.4703" lon="2.95353">
        <ele>-22.2</ele>
        <time>2018-06-24T10:39:46Z</time>
      </trkpt>
      <trkpt lat="50.4703" lon="2.95383">
        <ele>-22.2</ele>
        <time>2018-06-24T10:39:50Z</time>
      </trkpt>
      <trkpt lat="50.4703" lon="2.95413">
        <ele>-22.2</ele>
        <time>2018-06-24T10:39:54Z</time>
      </trkpt>
      <trkpt lat="50.47029" lon="2.95443">
        <ele>-22</ele>
        <time>2018-06-24T10:39:58Z</time>
      </trkpt>
      <trkpt lat="50.47029" lon="2.95473">
        <ele>-22.4</ele>
        <time>2018-06-24T10:40:02Z</time>
      </trkpt>
      <trkpt lat="50.47028" lon="2.95501">
        <ele>-21.8</ele>
        <time>2018-06-24T10:40:06Z</time>
      </trkpt>
      <trkpt lat="50.47026" lon="2.95529">
        <ele>-21.8</ele>
        <time>2018-06-24T10:40:10Z</time>
      </trkpt>
      <trkpt lat="50.47024" lon="2.9556">
        <ele>-22</ele>
        <time>2018-06-24T10:40:14Z</time>
      </trkpt>
      <trkpt lat="50.47021" lon="2.95591">
        <ele>-21.8</ele>
        <time>2018-06-24T10:40:18Z</time>
      </trkpt>
      <trkpt lat="50.47018" lon="2.95621">
        <ele>-21.8</ele>
        <time>2018-06-24T10:40:22Z</time>
      </trkpt>
      <trkpt lat="50.47015" lon="2.95652">
        <ele>-21.6</ele>
        <time>2018-06-24T10:40:26Z</time>
      </trkpt>
      <trkpt lat="50.4701" lon="2.95683">
        <ele>-22</ele>
        <time>2018-06-24T10:40:30Z</time>
      </trkpt>
      <trkpt lat="50.47006" lon="2.95713">
        <ele>-22.2</ele>
        <time>2018-06-24T10:40:34Z</time>
      </trkpt>
      <trkpt lat="50.47002" lon="2.95744">
        <ele>-21.8</ele>
        <time>2018-06-24T10:40:38Z</time>
      </trkpt>
      <trkpt lat="50.46996" lon="2.95776">
        <ele>-22</ele>
        <time>2018-06-24T10:40:42Z</time>
      </trkpt>
      <trkpt lat="50.46991" lon="2.95807">
        <ele>-21.4</ele>
        <time>2018-06-24T10:40:46Z</time>
      </trkpt>
      <trkpt lat="50.46984" lon="2.95839">
        <ele>-20.8</ele>
        <time>2018-06-24T10:40:50Z</time>
      </trkpt>
      <trkpt lat="50.46977" lon="2.9587">
        <ele>-21.2</ele>
        <time>2018-06-24T10:40:54Z</time>
      </trkpt>
      <trkpt lat="50.4697" lon="2.95901">
        <ele>-21.4</ele>
        <time>2018-06-24T10:40:58Z</time>
      </trkpt>
      <trkpt lat="50.46963" lon="2.9593">
        <ele>-21.6</ele>
        <time>2018-06-24T10:41:02Z</time>
      </trkpt>
      <trkpt lat="50.46955" lon="2.95959">
        <ele>-22.2</ele>
        <time>2018-06-24T10:41:06Z</time>
      </trkpt>
      <trkpt lat="50.46947" lon="2.95987">
        <ele>-22</ele>
        <time>2018-06-24T10:41:10Z</time>
      </trkpt>
      <trkpt lat="50.46938" lon="2.96016">
        <ele>-21.6</ele>
        <time>2018-06-24T10:41:14Z</time>
      </trkpt>
      <trkpt lat="50.46928" lon="2.96044">
        <ele>-21.4</ele>
        <time>2018-06-24T10:41:18Z</time>
      </trkpt>
      <trkpt lat="50.4692" lon="2.96073">
        <ele>-21.8</ele>
        <time>2018-06-24T10:41:22Z</time>
      </trkpt>
      <trkpt lat="50.46911" lon="2.961">
        <ele>-21.4</ele>
        <time>2018-06-24T10:41:26Z</time>
      </trkpt>
      <trkpt lat="50.46902" lon="2.96127">
        <ele>-21.8</ele>
        <time>2018-06-24T10:41:30Z</time>
      </trkpt>
      <trkpt lat="50.46892" lon="2.96154">
        <ele>-21.8</ele>
        <time>2018-06-24T10:41:34Z</time>
      </trkpt>
      <trkpt lat="50.4688" lon="2.96179">
        <ele>-21.8</ele>
        <time>2018-06-24T10:41:38Z</time>
      </trkpt>
      <trkpt lat="50.4687" lon="2.96207">
        <ele>-22</ele>
        <time>2018-06-24T10:41:42Z</time>
      </trkpt>
      <trkpt lat="50.46859" lon="2.96232">
        <ele>-21.8</ele>
        <time>2018-06-24T10:41:46Z</time>
      </trkpt>
      <trkpt lat="50.46849" lon="2.96256">
        <ele>-22</ele>
        <time>2018-06-24T10:41:50Z</time>
      </trkpt>
      <trkpt lat="50.46837" lon="2.9628">
        <ele>-21.8</ele>
        <time>2018-06-24T10:41:54Z</time>
      </trkpt>
      <trkpt lat="50.46824" lon="2.96302">
        <ele>-21.8</ele>
        <time>2018-06-24T10:41:58Z</time>
      </trkpt>
      <trkpt lat="50.46809" lon="2.96325">
        <ele>-21.8</ele>
        <time>2018-06-24T10:42:02Z</time>
      </trkpt>
      <trkpt lat="50.46796" lon="2.96348">
        <ele>-21.8</ele>
        <time>2018-06-24T10:42:06Z</time>
      </trkpt>
      <trkpt lat="50.46782" lon="2.9637">
        <ele>-21.8</ele>
        <time>2018-06-24T10:42:10Z</time>
      </trkpt>
      <trkpt lat="50.46769" lon="2.9639">
        <ele>-21.6</ele>
        <time>2018-06-24T10:42:14Z</time>
      </trkpt>
      <trkpt lat="50.46757" lon="2.9641">
        <ele>-21.4</ele>
        <time>2018-06-24T10:42:18Z</time>
      </trkpt>
      <trkpt lat="50.46744" lon="2.96431">
        <ele>-21.4</ele>
        <time>2018-06-24T10:42:22Z</time>
      </trkpt>
      <trkpt lat="50.4673" lon="2.96453">
        <ele>-21.2</ele>
        <time>2018-06-24T10:42:26Z</time>
      </trkpt>
      <trkpt lat="50.46716" lon="2.96476">
        <ele>-21.4</ele>
        <time>2018-06-24T10:42:30Z</time>
      </trkpt>
      <trkpt lat="50.46701" lon="2.96495">
        <ele>-21.4</ele>
        <time>2018-06-24T10:42:34Z</time>
      </trkpt>
      <trkpt lat="50.46686" lon="2.96515">
        <ele>-21.8</ele>
        <time>2018-06-24T10:42:38Z</time>
      </trkpt>
      <trkpt lat="50.46671" lon="2.96535">
        <ele>-21.6</ele>
        <time>2018-06-24T10:42:42Z</time>
      </trkpt>
      <trkpt lat="50.46657" lon="2.96556">
        <ele>-21.8</ele>
        <time>2018-06-24T10:42:46Z</time>
      </trkpt>
      <trkpt lat="50.46641" lon="2.96573">
        <ele>-21.4</ele>
        <time>2018-06-24T10:42:50Z</time>
      </trkpt>
      <trkpt lat="50.46624" lon="2.96591">
        <ele>-22</ele>
        <time>2018-06-24T10:42:54Z</time>
      </trkpt>
      <trkpt lat="50.46607" lon="2.96608">
        <ele>-22</ele>
        <time>2018-06-24T10:42:58Z</time>
      </trkpt>
      <trkpt lat="50.46592" lon="2.96625">
        <ele>-22.2</ele>
        <time>2018-06-24T10:43:02Z</time>
      </trkpt>
      <trkpt lat="50.46576" lon="2.96641">
        <ele>-21.8</ele>
        <time>2018-06-24T10:43:06Z</time>
      </trkpt>
      <trkpt lat="50.4656" lon="2.96656">
        <ele>-21.6</ele>
        <time>2018-06-24T10:43:10Z</time>
      </trkpt>
      <trkpt lat="50.46542" lon="2.96671">
        <ele>-21.4</ele>
        <time>2018-06-24T10:43:14Z</time>
      </trkpt>
      <trkpt lat="50.46525" lon="2.96684">
        <ele>-21.8</ele>
        <time>2018-06-24T10:43:18Z</time>
      </trkpt>
      <trkpt lat="50.46508" lon="2.96697">
        <ele>-22</ele>
        <time>2018-06-24T10:43:22Z</time>
      </trkpt>
      <trkpt lat="50.46491" lon="2.96708">
        <ele>-21.8</ele>
        <time>2018-06-24T10:43:26Z</time>
      </trkpt>
      <trkpt lat="50.46474" lon="2.96717">
        <ele>-22.6</ele>
        <time>2018-06-24T10:43:30Z</time>
      </trkpt>
      <trkpt lat="50.46457" lon="2.96725">
        <ele>-23</ele>
        <time>2018-06-24T10:43:34Z</time>
      </trkpt>
      <trkpt lat="50.46442" lon="2.9674">
        <ele>-22</ele>
        <time>2018-06-24T10:43:38Z</time>
      </trkpt>
      <trkpt lat="50.46428" lon="2.96754">
        <ele>-22</ele>
        <time>2018-06-24T10:43:42Z</time>
      </trkpt>
      <trkpt lat="50.46417" lon="2.96771">
        <ele>-21.4</ele>
        <time>2018-06-24T10:43:46Z</time>
      </trkpt>
      <trkpt lat="50.4642" lon="2.96793">
        <ele>-20</ele>
        <time>2018-06-24T10:43:50Z</time>
      </trkpt>
      <trkpt lat="50.46426" lon="2.96799">
        <ele>-19.4</ele>
        <time>2018-06-24T10:43:54Z</time>
      </trkpt>
      <trkpt lat="50.46428" lon="2.96804">
        <ele>-19.4</ele>
        <time>2018-06-24T10:43:58Z</time>
      </trkpt>
      <trkpt lat="50.46425" lon="2.96813">
        <ele>-19.4</ele>
        <time>2018-06-24T10:44:02Z</time>
      </trkpt>
      <trkpt lat="50.46426" lon="2.96828">
        <ele>-19.4</ele>
        <time>2018-06-24T10:44:06Z</time>
      </trkpt>
      <trkpt lat="50.4643" lon="2.96843">
        <ele>-19.6</ele>
        <time>2018-06-24T10:44:10Z</time>
      </trkpt>
      <trkpt lat="50.4644" lon="2.96858">
        <ele>-18.6</ele>
        <time>2018-06-24T10:44:14Z</time>
      </trkpt>
      <trkpt lat="50.46449" lon="2.96875">
        <ele>-18.6</ele>
        <time>2018-06-24T10:44:18Z</time>
      </trkpt>
      <trkpt lat="50.46458" lon="2.96894">
        <ele>-19</ele>
        <time>2018-06-24T10:44:22Z</time>
      </trkpt>
      <trkpt lat="50.46468" lon="2.96912">
        <ele>-19.2</ele>
        <time>2018-06-24T10:44:26Z</time>
      </trkpt>
      <trkpt lat="50.46477" lon="2.9693">
        <ele>-18.8</ele>
        <time>2018-06-24T10:44:30Z</time>
      </trkpt>
      <trkpt lat="50.46486" lon="2.96949">
        <ele>-19.2</ele>
        <time>2018-06-24T10:44:34Z</time>
      </trkpt>
      <trkpt lat="50.46495" lon="2.96966">
        <ele>-19</ele>
        <time>2018-06-24T10:44:38Z</time>
      </trkpt>
      <trkpt lat="50.46504" lon="2.96983">
        <ele>-18.8</ele>
        <time>2018-06-24T10:44:42Z</time>
      </trkpt>
      <trkpt lat="50.46513" lon="2.97">
        <ele>-18.6</ele>
        <time>2018-06-24T10:44:46Z</time>
      </trkpt>
      <trkpt lat="50.46523" lon="2.97017">
        <ele>-18.4</ele>
        <time>2018-06-24T10:44:50Z</time>
      </trkpt>
      <trkpt lat="50.46533" lon="2.97033">
        <ele>-18.2</ele>
        <time>2018-06-24T10:44:54Z</time>
      </trkpt>
      <trkpt lat="50.46545" lon="2.97042">
        <ele>-18.8</ele>
        <time>2018-06-24T10:44:58Z</time>
      </trkpt>
      <trkpt lat="50.46556" lon="2.97048">
        <ele>-18.8</ele>
        <time>2018-06-24T10:45:02Z</time>
      </trkpt>
      <trkpt lat="50.46563" lon="2.97063">
        <ele>-18.2</ele>
        <time>2018-06-24T10:45:06Z</time>
      </trkpt>
      <trkpt lat="50.4657" lon="2.97083">
        <ele>-18.4</ele>
        <time>2018-06-24T10:45:10Z</time>
      </trkpt>
      <trkpt lat="50.46578" lon="2.97102">
        <ele>-18.2</ele>
        <time>2018-06-24T10:45:14Z</time>
      </trkpt>
      <trkpt lat="50.46584" lon="2.97121">
        <ele>-18.2</ele>
        <time>2018-06-24T10:45:18Z</time>
      </trkpt>
      <trkpt lat="50.46589" lon="2.97138">
        <ele>-17.2</ele>
        <time>2018-06-24T10:45:22Z</time>
      </trkpt>
      <trkpt lat="50.46595" lon="2.97154">
        <ele>-17.2</ele>
        <time>2018-06-24T10:45:26Z</time>
      </trkpt>
      <trkpt lat="50.466" lon="2.97171">
        <ele>-17.2</ele>
        <time>2018-06-24T10:45:30Z</time>
      </trkpt>
      <trkpt lat="50.46606" lon="2.97188">
        <ele>-16.2</ele>
        <time>2018-06-24T10:45:34Z</time>
      </trkpt>
      <trkpt lat="50.46611" lon="2.97206">
        <ele>-14.8</ele>
        <time>2018-06-24T10:45:38Z</time>
      </trkpt>
      <trkpt lat="50.46616" lon="2.97222">
        <ele>-14.6</ele>
        <time>2018-06-24T10:45:42Z</time>
      </trkpt>
      <trkpt lat="50.46622" lon="2.97237">
        <ele>-14</ele>
        <time>2018-06-24T10:45:46Z</time>
      </trkpt>
      <trkpt lat="50.46628" lon="2.97255">
        <ele>-12.8</ele>
        <time>2018-06-24T10:45:50Z</time>
      </trkpt>
      <trkpt lat="50.46634" lon="2.97274">
        <ele>-12.2</ele>
        <time>2018-06-24T10:45:54Z</time>
      </trkpt>
      <trkpt lat="50.46639" lon="2.97293">
        <ele>-11.2</ele>
        <time>2018-06-24T10:45:58Z</time>
      </trkpt>
      <trkpt lat="50.46645" lon="2.97312">
        <ele>-11.2</ele>
        <time>2018-06-24T10:46:02Z</time>
      </trkpt>
      <trkpt lat="50.46649" lon="2.97334">
        <ele>-10.2</ele>
        <time>2018-06-24T10:46:06Z</time>
      </trkpt>
      <trkpt lat="50.46654" lon="2.9736">
        <ele>-10</ele>
        <time>2018-06-24T10:46:10Z</time>
      </trkpt>
      <trkpt lat="50.46659" lon="2.97385">
        <ele>-10.2</ele>
        <time>2018-06-24T10:46:14Z</time>
      </trkpt>
      <trkpt lat="50.46662" lon="2.9741">
        <ele>-9.8</ele>
        <time>2018-06-24T10:46:18Z</time>
      </trkpt>
      <trkpt lat="50.46664" lon="2.97435">
        <ele>-9.6</ele>
        <time>2018-06-24T10:46:22Z</time>
      </trkpt>
      <trkpt lat="50.46667" lon="2.9746">
        <ele>-10.4</ele>
        <time>2018-06-24T10:46:26Z</time>
      </trkpt>
      <trkpt lat="50.4667" lon="2.97486">
        <ele>-10.8</ele>
        <time>2018-06-24T10:46:30Z</time>
      </trkpt>
      <trkpt lat="50.46673" lon="2.97508">
        <ele>-10.6</ele>
        <time>2018-06-24T10:46:34Z</time>
      </trkpt>
      <trkpt lat="50.46675" lon="2.97527">
        <ele>-11.6</ele>
        <time>2018-06-24T10:46:38Z</time>
      </trkpt>
      <trkpt lat="50.46679" lon="2.97549">
        <ele>-11.6</ele>
        <time>2018-06-24T10:46:42Z</time>
      </trkpt>
      <trkpt lat="50.46684" lon="2.97575">
        <ele>-12.2</ele>
        <time>2018-06-24T10:46:46Z</time>
      </trkpt>
      <trkpt lat="50.46689" lon="2.97602">
        <ele>-11.4</ele>
        <time>2018-06-24T10:46:50Z</time>
      </trkpt>
      <trkpt lat="50.46695" lon="2.97627">
        <ele>-11.8</ele>
        <time>2018-06-24T10:46:54Z</time>
      </trkpt>
      <trkpt lat="50.467" lon="2.97653">
        <ele>-12.4</ele>
        <time>2018-06-24T10:46:58Z</time>
      </trkpt>
      <trkpt lat="50.46705" lon="2.97679">
        <ele>-12.6</ele>
        <time>2018-06-24T10:47:02Z</time>
      </trkpt>
      <trkpt lat="50.4671" lon="2.97705">
        <ele>-13</ele>
        <time>2018-06-24T10:47:06Z</time>
      </trkpt>
      <trkpt lat="50.46716" lon="2.97732">
        <ele>-13.4</ele>
        <time>2018-06-24T10:47:10Z</time>
      </trkpt>
      <trkpt lat="50.46722" lon="2.97761">
        <ele>-13.4</ele>
        <time>2018-06-24T10:47:14Z</time>
      </trkpt>
      <trkpt lat="50.46727" lon="2.97789">
        <ele>-14.8</ele>
        <time>2018-06-24T10:47:18Z</time>
      </trkpt>
      <trkpt lat="50.46732" lon="2.97817">
        <ele>-15.6</ele>
        <time>2018-06-24T10:47:22Z</time>
      </trkpt>
      <trkpt lat="50.46737" lon="2.97847">
        <ele>-16</ele>
        <time>2018-06-24T10:47:26Z</time>
      </trkpt>
      <trkpt lat="50.46742" lon="2.97876">
        <ele>-17</ele>
        <time>2018-06-24T10:47:30Z</time>
      </trkpt>
      <trkpt lat="50.46747" lon="2.97902">
        <ele>-17</ele>
        <time>2018-06-24T10:47:34Z</time>
      </trkpt>
      <trkpt lat="50.46752" lon="2.97928">
        <ele>-17.2</ele>
        <time>2018-06-24T10:47:38Z</time>
      </trkpt>
      <trkpt lat="50.46757" lon="2.97955">
        <ele>-17.8</ele>
        <time>2018-06-24T10:47:42Z</time>
      </trkpt>
      <trkpt lat="50.4676" lon="2.97983">
        <ele>-18</ele>
        <time>2018-06-24T10:47:46Z</time>
      </trkpt>
      <trkpt lat="50.46763" lon="2.98013">
        <ele>-17.6</ele>
        <time>2018-06-24T10:47:50Z</time>
      </trkpt>
      <trkpt lat="50.46766" lon="2.98048">
        <ele>-17.6</ele>
        <time>2018-06-24T10:47:54Z</time>
      </trkpt>
      <trkpt lat="50.46769" lon="2.98087">
        <ele>-17.8</ele>
        <time>2018-06-24T10:47:58Z</time>
      </trkpt>
      <trkpt lat="50.4677" lon="2.98129">
        <ele>-17.6</ele>
        <time>2018-06-24T10:48:02Z</time>
      </trkpt>
      <trkpt lat="50.46771" lon="2.98164">
        <ele>-17.8</ele>
        <time>2018-06-24T10:48:06Z</time>
      </trkpt>
      <trkpt lat="50.46771" lon="2.98183">
        <ele>-18.4</ele>
        <time>2018-06-24T10:48:10Z</time>
      </trkpt>
      <trkpt lat="50.4677" lon="2.98198">
        <ele>-18.8</ele>
        <time>2018-06-24T10:48:14Z</time>
      </trkpt>
      <trkpt lat="50.46771" lon="2.98216">
        <ele>-18.6</ele>
        <time>2018-06-24T10:48:18Z</time>
      </trkpt>
      <trkpt lat="50.46772" lon="2.98235">
        <ele>-18.6</ele>
        <time>2018-06-24T10:48:22Z</time>
      </trkpt>
      <trkpt lat="50.46772" lon="2.98254">
        <ele>-19</ele>
        <time>2018-06-24T10:48:26Z</time>
      </trkpt>
      <trkpt lat="50.46772" lon="2.98272">
        <ele>-18.6</ele>
        <time>2018-06-24T10:48:30Z</time>
      </trkpt>
      <trkpt lat="50.46772" lon="2.9829">
        <ele>-18.2</ele>
        <time>2018-06-24T10:48:34Z</time>
      </trkpt>
      <trkpt lat="50.46772" lon="2.98309">
        <ele>-18.4</ele>
        <time>2018-06-24T10:48:38Z</time>
      </trkpt>
      <trkpt lat="50.46773" lon="2.98327">
        <ele>-18.6</ele>
        <time>2018-06-24T10:48:42Z</time>
      </trkpt>
      <trkpt lat="50.46772" lon="2.98344">
        <ele>-18.6</ele>
        <time>2018-06-24T10:48:46Z</time>
      </trkpt>
      <trkpt lat="50.46764" lon="2.98359">
        <ele>-18.4</ele>
        <time>2018-06-24T10:48:50Z</time>
      </trkpt>
      <trkpt lat="50.46764" lon="2.98377">
        <ele>-18.4</ele>
        <time>2018-06-24T10:48:54Z</time>
      </trkpt>
      <trkpt lat="50.46768" lon="2.984">
        <ele>-18.4</ele>
        <time>2018-06-24T10:48:58Z</time>
      </trkpt>
      <trkpt lat="50.46766" lon="2.98425">
        <ele>-17.8</ele>
        <time>2018-06-24T10:49:02Z</time>
      </trkpt>
      <trkpt lat="50.46763" lon="2.9845">
        <ele>-18.2</ele>
        <time>2018-06-24T10:49:06Z</time>
      </trkpt>
      <trkpt lat="50.46759" lon="2.98479">
        <ele>-17.8</ele>
        <time>2018-06-24T10:49:10Z</time>
      </trkpt>
      <trkpt lat="50.46756" lon="2.98507">
        <ele>-17.4</ele>
        <time>2018-06-24T10:49:14Z</time>
      </trkpt>
      <trkpt lat="50.46755" lon="2.98536">
        <ele>-17.4</ele>
        <time>2018-06-24T10:49:18Z</time>
      </trkpt>
      <trkpt lat="50.46751" lon="2.98561">
        <ele>-17.6</ele>
        <time>2018-06-24T10:49:22Z</time>
      </trkpt>
      <trkpt lat="50.4675" lon="2.98583">
        <ele>-17.8</ele>
        <time>2018-06-24T10:49:26Z</time>
      </trkpt>
      <trkpt lat="50.46748" lon="2.98605">
        <ele>-16.6</ele>
        <time>2018-06-24T10:49:30Z</time>
      </trkpt>
      <trkpt lat="50.46747" lon="2.9863">
        <ele>-16.6</ele>
        <time>2018-06-24T10:49:34Z</time>
      </trkpt>
      <trkpt lat="50.46747" lon="2.98656">
        <ele>-16.6</ele>
        <time>2018-06-24T10:49:38Z</time>
      </trkpt>
      <trkpt lat="50.46748" lon="2.98681">
        <ele>-16.4</ele>
        <time>2018-06-24T10:49:42Z</time>
      </trkpt>
      <trkpt lat="50.46752" lon="2.98705">
        <ele>-16.2</ele>
        <time>2018-06-24T10:49:46Z</time>
      </trkpt>
      <trkpt lat="50.46756" lon="2.98729">
        <ele>-16.8</ele>
        <time>2018-06-24T10:49:50Z</time>
      </trkpt>
      <trkpt lat="50.4676" lon="2.98755">
        <ele>-16.6</ele>
        <time>2018-06-24T10:49:54Z</time>
      </trkpt>
      <trkpt lat="50.46766" lon="2.98777">
        <ele>-17</ele>
        <time>2018-06-24T10:49:58Z</time>
      </trkpt>
      <trkpt lat="50.46771" lon="2.988">
        <ele>-17.4</ele>
        <time>2018-06-24T10:50:02Z</time>
      </trkpt>
      <trkpt lat="50.46777" lon="2.98822">
        <ele>-17.6</ele>
        <time>2018-06-24T10:50:06Z</time>
      </trkpt>
      <trkpt lat="50.4678" lon="2.9884">
        <ele>-17.4</ele>
        <time>2018-06-24T10:50:10Z</time>
      </trkpt>
      <trkpt lat="50.46777" lon="2.98855">
        <ele>-17.2</ele>
        <time>2018-06-24T10:50:14Z</time>
      </trkpt>
      <trkpt lat="50.46777" lon="2.98855">
        <ele>-17.2</ele>
        <time>2018-06-24T10:50:18Z</time>
      </trkpt>
      <trkpt lat="50.46777" lon="2.98855">
        <ele>-17.2</ele>
        <time>2018-06-24T10:50:22Z</time>
      </trkpt>
      <trkpt lat="50.46775" lon="2.98861">
        <ele>-17</ele>
        <time>2018-06-24T10:50:26Z</time>
      </trkpt>
      <trkpt lat="50.46772" lon="2.98869">
        <ele>-17</ele>
        <time>2018-06-24T10:50:30Z</time>
      </trkpt>
      <trkpt lat="50.46769" lon="2.9888">
        <ele>-16.6</ele>
        <time>2018-06-24T10:50:34Z</time>
      </trkpt>
      <trkpt lat="50.46767" lon="2.98889">
        <ele>-16.6</ele>
        <time>2018-06-24T10:50:38Z</time>
      </trkpt>
      <trkpt lat="50.46764" lon="2.98891">
        <ele>-16.2</ele>
        <time>2018-06-24T10:50:42Z</time>
      </trkpt>
      <trkpt lat="50.46764" lon="2.98891">
        <ele>-16.6</ele>
        <time>2018-06-24T10:50:46Z</time>
      </trkpt>
      <trkpt lat="50.46763" lon="2.98894">
        <ele>-16.4</ele>
        <time>2018-06-24T10:50:50Z</time>
      </trkpt>
      <trkpt lat="50.46761" lon="2.98897">
        <ele>-16.2</ele>
        <time>2018-06-24T10:50:54Z</time>
      </trkpt>
      <trkpt lat="50.46759" lon="2.98901">
        <ele>-16.2</ele>
        <time>2018-06-24T10:50:58Z</time>
      </trkpt>
      <trkpt lat="50.46757" lon="2.98903">
        <ele>-16.4</ele>
        <time>2018-06-24T10:51:02Z</time>
      </trkpt>
      <trkpt lat="50.46755" lon="2.98907">
        <ele>-16.4</ele>
        <time>2018-06-24T10:51:06Z</time>
      </trkpt>
      <trkpt lat="50.46754" lon="2.98912">
        <ele>-16.2</ele>
        <time>2018-06-24T10:51:10Z</time>
      </trkpt>
      <trkpt lat="50.46751" lon="2.98917">
        <ele>-16.4</ele>
        <time>2018-06-24T10:51:14Z</time>
      </trkpt>
      <trkpt lat="50.4675" lon="2.98922">
        <ele>-16.6</ele>
        <time>2018-06-24T10:51:18Z</time>
      </trkpt>
      <trkpt lat="50.46747" lon="2.98928">
        <ele>-16.2</ele>
        <time>2018-06-24T10:51:22Z</time>
      </trkpt>
      <trkpt lat="50.46744" lon="2.98933">
        <ele>-16.2</ele>
        <time>2018-06-24T10:51:26Z</time>
      </trkpt>
      <trkpt lat="50.46741" lon="2.98935">
        <ele>-16.6</ele>
        <time>2018-06-24T10:51:30Z</time>
      </trkpt>
      <trkpt lat="50.46741" lon="2.98935">
        <ele>-16.4</ele>
        <time>2018-06-24T10:51:34Z</time>
      </trkpt>
      <trkpt lat="50.46738" lon="2.98937">
        <ele>-16.2</ele>
        <time>2018-06-24T10:51:38Z</time>
      </trkpt>
      <trkpt lat="50.46733" lon="2.98939">
        <ele>-16.2</ele>
        <time>2018-06-24T10:51:42Z</time>
      </trkpt>
      <trkpt lat="50.46729" lon="2.98942">
        <ele>-16.2</ele>
        <time>2018-06-24T10:51:46Z</time>
      </trkpt>
      <trkpt lat="50.46726" lon="2.98942">
        <ele>-16.4</ele>
        <time>2018-06-24T10:51:50Z</time>
      </trkpt>
      <trkpt lat="50.46724" lon="2.98939">
        <ele>-16.2</ele>
        <time>2018-06-24T10:51:54Z</time>
      </trkpt>
      <trkpt lat="50.46721" lon="2.98936">
        <ele>-16</ele>
        <time>2018-06-24T10:51:58Z</time>
      </trkpt>
      <trkpt lat="50.46718" lon="2.98931">
        <ele>-16.6</ele>
        <time>2018-06-24T10:52:02Z</time>
      </trkpt>
      <trkpt lat="50.46716" lon="2.98925">
        <ele>-16.6</ele>
        <time>2018-06-24T10:52:06Z</time>
      </trkpt>
      <trkpt lat="50.46713" lon="2.9892">
        <ele>-16.4</ele>
        <time>2018-06-24T10:52:10Z</time>
      </trkpt>
      <trkpt lat="50.46711" lon="2.98915">
        <ele>-16.6</ele>
        <time>2018-06-24T10:52:14Z</time>
      </trkpt>
      <trkpt lat="50.46709" lon="2.98909">
        <ele>-16.4</ele>
        <time>2018-06-24T10:52:18Z</time>
      </trkpt>
      <trkpt lat="50.46706" lon="2.98904">
        <ele>-17</ele>
        <time>2018-06-24T10:52:22Z</time>
      </trkpt>
      <trkpt lat="50.46704" lon="2.98898">
        <ele>-16.8</ele>
        <time>2018-06-24T10:52:26Z</time>
      </trkpt>
      <trkpt lat="50.46701" lon="2.98893">
        <ele>-17</ele>
        <time>2018-06-24T10:52:30Z</time>
      </trkpt>
      <trkpt lat="50.46698" lon="2.98888">
        <ele>-17.2</ele>
        <time>2018-06-24T10:52:34Z</time>
      </trkpt>
      <trkpt lat="50.46695" lon="2.98883">
        <ele>-17.2</ele>
        <time>2018-06-24T10:52:38Z</time>
      </trkpt>
      <trkpt lat="50.46692" lon="2.98878">
        <ele>-17.6</ele>
        <time>2018-06-24T10:52:42Z</time>
      </trkpt>
      <trkpt lat="50.46689" lon="2.98873">
        <ele>-18</ele>
        <time>2018-06-24T10:52:46Z</time>
      </trkpt>
      <trkpt lat="50.46686" lon="2.98869">
        <ele>-17.6</ele>
        <time>2018-06-24T10:52:50Z</time>
      </trkpt>
      <trkpt lat="50.46683" lon="2.98866">
        <ele>-17.4</ele>
        <time>2018-06-24T10:52:54Z</time>
      </trkpt>
      <trkpt lat="50.46679" lon="2.98864">
        <ele>-17.6</ele>
        <time>2018-06-24T10:52:58Z</time>
      </trkpt>
      <trkpt lat="50.46675" lon="2.98863">
        <ele>-17.4</ele>
        <time>2018-06-24T10:53:02Z</time>
      </trkpt>
      <trkpt lat="50.46671" lon="2.98862">
        <ele>-17.6</ele>
        <time>2018-06-24T10:53:06Z</time>
      </trkpt>
      <trkpt lat="50.46667" lon="2.98861">
        <ele>-18.4</ele>
        <time>2018-06-24T10:53:10Z</time>
      </trkpt>
      <trkpt lat="50.46663" lon="2.9886">
        <ele>-18.4</ele>
        <time>2018-06-24T10:53:14Z</time>
      </trkpt>
      <trkpt lat="50.46659" lon="2.98858">
        <ele>-18.4</ele>
        <time>2018-06-24T10:53:18Z</time>
      </trkpt>
      <trkpt lat="50.46655" lon="2.98858">
        <ele>-18.6</ele>
        <time>2018-06-24T10:53:22Z</time>
      </trkpt>
      <trkpt lat="50.46651" lon="2.98857">
        <ele>-18.6</ele>
        <time>2018-06-24T10:53:26Z</time>
      </trkpt>
      <trkpt lat="50.46646" lon="2.98856">
        <ele>-18.6</ele>
        <time>2018-06-24T10:53:30Z</time>
      </trkpt>
      <trkpt lat="50.46642" lon="2.98854">
        <ele>-18.6</ele>
        <time>2018-06-24T10:53:34Z</time>
      </trkpt>
      <trkpt lat="50.46638" lon="2.98853">
        <ele>-18.4</ele>
        <time>2018-06-24T10:53:38Z</time>
      </trkpt>
      <trkpt lat="50.46634" lon="2.98851">
        <ele>-18.2</ele>
        <time>2018-06-24T10:53:42Z</time>
      </trkpt>
      <trkpt lat="50.4663" lon="2.98847">
        <ele>-18.4</ele>
        <time>2018-06-24T10:53:46Z</time>
      </trkpt>
      <trkpt lat="50.46625" lon="2.98844">
        <ele>-18.4</ele>
        <time>2018-06-24T10:53:50Z</time>
      </trkpt>
      <trkpt lat="50.46621" lon="2.98843">
        <ele>-18.4</ele>
        <time>2018-06-24T10:53:54Z</time>
      </trkpt>
      <trkpt lat="50.46617" lon="2.9884">
        <ele>-18</ele>
        <time>2018-06-24T10:53:58Z</time>
      </trkpt>
      <trkpt lat="50.46612" lon="2.98839">
        <ele>-18</ele>
        <time>2018-06-24T10:54:02Z</time>
      </trkpt>
      <trkpt lat="50.46608" lon="2.98837">
        <ele>-18.6</ele>
        <time>2018-06-24T10:54:06Z</time>
      </trkpt>
      <trkpt lat="50.46603" lon="2.98836">
        <ele>-18.4</ele>
        <time>2018-06-24T10:54:10Z</time>
      </trkpt>
      <trkpt lat="50.46598" lon="2.98835">
        <ele>-18.2</ele>
        <time>2018-06-24T10:54:14Z</time>
      </trkpt>
      <trkpt lat="50.46593" lon="2.98833">
        <ele>-18</ele>
        <time>2018-06-24T10:54:18Z</time>
      </trkpt>
      <trkpt lat="50.46586" lon="2.98831">
        <ele>-18.4</ele>
        <time>2018-06-24T10:54:22Z</time>
      </trkpt>
      <trkpt lat="50.46582" lon="2.98829">
        <ele>-17.8</ele>
        <time>2018-06-24T10:54:26Z</time>
      </trkpt>
      <trkpt lat="50.46578" lon="2.98826">
        <ele>-18.2</ele>
        <time>2018-06-24T10:54:30Z</time>
      </trkpt>
      <trkpt lat="50.46578" lon="2.98826">
        <ele>-18.2</ele>
        <time>2018-06-24T10:54:34Z</time>
      </trkpt>
      <trkpt lat="50.46576" lon="2.98823">
        <ele>-18.4</ele>
        <time>2018-06-24T10:54:38Z</time>
      </trkpt>
      <trkpt lat="50.46576" lon="2.98823">
        <ele>-18</ele>
        <time>2018-06-24T10:54:42Z</time>
      </trkpt>
      <trkpt lat="50.46576" lon="2.98823">
        <ele>-18.4</ele>
        <time>2018-06-24T10:54:46Z</time>
      </trkpt>
      <trkpt lat="50.46576" lon="2.98823">
        <ele>-18.4</ele>
        <time>2018-06-24T10:54:50Z</time>
      </trkpt>
      <trkpt lat="50.46576" lon="2.98823">
        <ele>-18</ele>
        <time>2018-06-24T10:54:54Z</time>
      </trkpt>
      <trkpt lat="50.46576" lon="2.98823">
        <ele>-17.6</ele>
        <time>2018-06-24T10:54:58Z</time>
      </trkpt>
      <trkpt lat="50.46576" lon="2.98823">
        <ele>-18.2</ele>
        <time>2018-06-24T10:55:02Z</time>
      </trkpt>
      <trkpt lat="50.46576" lon="2.98823">
        <ele>-18</ele>
        <time>2018-06-24T10:55:06Z</time>
      </trkpt>
      <trkpt lat="50.46576" lon="2.98823">
        <ele>-17.8</ele>
        <time>2018-06-24T10:55:10Z</time>
      </trkpt>
      <trkpt lat="50.46576" lon="2.98823">
        <ele>-18.2</ele>
        <time>2018-06-24T10:55:14Z</time>
      </trkpt>
      <trkpt lat="50.46576" lon="2.98823">
        <ele>-18</ele>
        <time>2018-06-24T10:55:18Z</time>
      </trkpt>
      <trkpt lat="50.46576" lon="2.98823">
        <ele>-18</ele>
        <time>2018-06-24T10:55:22Z</time>
      </trkpt>
      <trkpt lat="50.46576" lon="2.98823">
        <ele>-18.2</ele>
        <time>2018-06-24T10:55:26Z</time>
      </trkpt>
      <trkpt lat="50.46576" lon="2.98823">
        <ele>-17.8</ele>
        <time>2018-06-24T10:55:30Z</time>
      </trkpt>
      <trkpt lat="50.46576" lon="2.98823">
        <ele>-18</ele>
        <time>2018-06-24T10:55:34Z</time>
      </trkpt>
      <trkpt lat="50.46576" lon="2.98823">
        <ele>-18</ele>
        <time>2018-06-24T10:55:38Z</time>
      </trkpt>
      <trkpt lat="50.46576" lon="2.98823">
        <ele>-17.8</ele>
        <time>2018-06-24T10:55:42Z</time>
      </trkpt>
      <trkpt lat="50.46576" lon="2.98823">
        <ele>-18</ele>
        <time>2018-06-24T10:55:46Z</time>
      </trkpt>
      <trkpt lat="50.46576" lon="2.98823">
        <ele>-17.6</ele>
        <time>2018-06-24T10:55:50Z</time>
      </trkpt>
      <trkpt lat="50.46576" lon="2.98823">
        <ele>-17.6</ele>
        <time>2018-06-24T10:55:54Z</time>
      </trkpt>
      <trkpt lat="50.46576" lon="2.98823">
        <ele>-18</ele>
        <time>2018-06-24T10:55:58Z</time>
      </trkpt>
      <trkpt lat="50.46576" lon="2.98823">
        <ele>-18</ele>
        <time>2018-06-24T10:56:02Z</time>
      </trkpt>
      <trkpt lat="50.46576" lon="2.98823">
        <ele>-18.2</ele>
        <time>2018-06-24T10:56:06Z</time>
      </trkpt>
      <trkpt lat="50.46576" lon="2.98823">
        <ele>-18.2</ele>
        <time>2018-06-24T10:56:10Z</time>
      </trkpt>
      <trkpt lat="50.46576" lon="2.98823">
        <ele>-17.8</ele>
        <time>2018-06-24T10:56:14Z</time>
      </trkpt>
      <trkpt lat="50.46576" lon="2.98823">
        <ele>-17.6</ele>
        <time>2018-06-24T10:56:18Z</time>
      </trkpt>
      <trkpt lat="50.46576" lon="2.98823">
        <ele>-18</ele>
        <time>2018-06-24T10:56:22Z</time>
      </trkpt>
      <trkpt lat="50.46576" lon="2.98823">
        <ele>-18.2</ele>
        <time>2018-06-24T10:56:26Z</time>
      </trkpt>
      <trkpt lat="50.46576" lon="2.98823">
        <ele>-17.6</ele>
        <time>2018-06-24T10:56:30Z</time>
      </trkpt>
      <trkpt lat="50.46576" lon="2.98823">
        <ele>-17.6</ele>
        <time>2018-06-24T10:56:34Z</time>
      </trkpt>
      <trkpt lat="50.46576" lon="2.98823">
        <ele>-17.4</ele>
        <time>2018-06-24T10:56:38Z</time>
      </trkpt>
      <trkpt lat="50.46576" lon="2.98823">
        <ele>-17.6</ele>
        <time>2018-06-24T10:56:42Z</time>
      </trkpt>
      <trkpt lat="50.46576" lon="2.98823">
        <ele>-17.6</ele>
        <time>2018-06-24T10:56:46Z</time>
      </trkpt>
      <trkpt lat="50.46576" lon="2.98823">
        <ele>-17.6</ele>
        <time>2018-06-24T10:56:50Z</time>
      </trkpt>
      <trkpt lat="50.46576" lon="2.98823">
        <ele>-18</ele>
        <time>2018-06-24T10:56:54Z</time>
      </trkpt>
      <trkpt lat="50.46576" lon="2.98823">
        <ele>-17.6</ele>
        <time>2018-06-24T10:56:58Z</time>
      </trkpt>
      <trkpt lat="50.46576" lon="2.98823">
        <ele>-17.8</ele>
        <time>2018-06-24T10:57:02Z</time>
      </trkpt>
      <trkpt lat="50.46576" lon="2.98823">
        <ele>-17.6</ele>
        <time>2018-06-24T10:57:06Z</time>
      </trkpt>
      <trkpt lat="50.46576" lon="2.98823">
        <ele>-17.6</ele>
        <time>2018-06-24T10:57:10Z</time>
      </trkpt>
      <trkpt lat="50.46576" lon="2.98823">
        <ele>-17.6</ele>
        <time>2018-06-24T10:57:14Z</time>
      </trkpt>
      <trkpt lat="50.46576" lon="2.98823">
        <ele>-17.8</ele>
        <time>2018-06-24T10:57:18Z</time>
      </trkpt>
      <trkpt lat="50.46576" lon="2.98823">
        <ele>-18</ele>
        <time>2018-06-24T10:57:22Z</time>
      </trkpt>
      <trkpt lat="50.46576" lon="2.98823">
        <ele>-17.4</ele>
        <time>2018-06-24T10:57:26Z</time>
      </trkpt>
      <trkpt lat="50.46576" lon="2.98823">
        <ele>-17.6</ele>
        <time>2018-06-24T10:57:30Z</time>
      </trkpt>
      <trkpt lat="50.46576" lon="2.98823">
        <ele>-17.8</ele>
        <time>2018-06-24T10:57:34Z</time>
      </trkpt>
      <trkpt lat="50.46576" lon="2.98823">
        <ele>-18.2</ele>
        <time>2018-06-24T10:57:38Z</time>
      </trkpt>
      <trkpt lat="50.46576" lon="2.98823">
        <ele>-17.8</ele>
        <time>2018-06-24T10:57:42Z</time>
      </trkpt>
      <trkpt lat="50.46576" lon="2.98823">
        <ele>-17.6</ele>
        <time>2018-06-24T10:57:46Z</time>
      </trkpt>
      <trkpt lat="50.46576" lon="2.98823">
        <ele>-17.6</ele>
        <time>2018-06-24T10:57:50Z</time>
      </trkpt>
      <trkpt lat="50.46576" lon="2.98823">
        <ele>-17.6</ele>
        <time>2018-06-24T10:57:54Z</time>
      </trkpt>
      <trkpt lat="50.46576" lon="2.98823">
        <ele>-17.4</ele>
        <time>2018-06-24T10:57:58Z</time>
      </trkpt>
      <trkpt lat="50.46576" lon="2.98823">
        <ele>-17.4</ele>
        <time>2018-06-24T10:58:02Z</time>
      </trkpt>
      <trkpt lat="50.46576" lon="2.98823">
        <ele>-17.8</ele>
        <time>2018-06-24T10:58:06Z</time>
      </trkpt>
      <trkpt lat="50.46576" lon="2.98823">
        <ele>-17.6</ele>
        <time>2018-06-24T10:58:10Z</time>
      </trkpt>
      <trkpt lat="50.46576" lon="2.98823">
        <ele>-17.8</ele>
        <time>2018-06-24T10:58:14Z</time>
      </trkpt>
      <trkpt lat="50.46576" lon="2.98823">
        <ele>-17.2</ele>
        <time>2018-06-24T10:58:18Z</time>
      </trkpt>
      <trkpt lat="50.46576" lon="2.98823">
        <ele>-17.6</ele>
        <time>2018-06-24T10:58:22Z</time>
      </trkpt>
      <trkpt lat="50.46576" lon="2.98823">
        <ele>-17.8</ele>
        <time>2018-06-24T10:58:26Z</time>
      </trkpt>
      <trkpt lat="50.46576" lon="2.98823">
        <ele>-17.8</ele>
        <time>2018-06-24T10:58:30Z</time>
      </trkpt>
      <trkpt lat="50.46576" lon="2.98823">
        <ele>-18</ele>
        <time>2018-06-24T10:58:34Z</time>
      </trkpt>
      <trkpt lat="50.46576" lon="2.98823">
        <ele>-18</ele>
        <time>2018-06-24T10:58:38Z</time>
      </trkpt>
      <trkpt lat="50.46576" lon="2.98823">
        <ele>-17.6</ele>
        <time>2018-06-24T10:58:42Z</time>
      </trkpt>
      <trkpt lat="50.46576" lon="2.98823">
        <ele>-17.8</ele>
        <time>2018-06-24T10:58:46Z</time>
      </trkpt>
      <trkpt lat="50.46576" lon="2.98823">
        <ele>-17.8</ele>
        <time>2018-06-24T10:58:50Z</time>
      </trkpt>
      <trkpt lat="50.46576" lon="2.98823">
        <ele>-17.4</ele>
        <time>2018-06-24T10:58:54Z</time>
      </trkpt>
      <trkpt lat="50.46576" lon="2.98823">
        <ele>-17.4</ele>
        <time>2018-06-24T10:58:58Z</time>
      </trkpt>
      <trkpt lat="50.46576" lon="2.98823">
        <ele>-18</ele>
        <time>2018-06-24T10:59:02Z</time>
      </trkpt>
      <trkpt lat="50.46576" lon="2.98823">
        <ele>-17.8</ele>
        <time>2018-06-24T10:59:06Z</time>
      </trkpt>
      <trkpt lat="50.46576" lon="2.98823">
        <ele>-17.6</ele>
        <time>2018-06-24T10:59:10Z</time>
      </trkpt>
      <trkpt lat="50.46576" lon="2.98823">
        <ele>-18</ele>
        <time>2018-06-24T10:59:14Z</time>
      </trkpt>
      <trkpt lat="50.46576" lon="2.98823">
        <ele>-17.8</ele>
        <time>2018-06-24T10:59:18Z</time>
      </trkpt>
      <trkpt lat="50.46576" lon="2.98823">
        <ele>-17.6</ele>
        <time>2018-06-24T10:59:22Z</time>
      </trkpt>
      <trkpt lat="50.46576" lon="2.98823">
        <ele>-17.8</ele>
        <time>2018-06-24T10:59:26Z</time>
      </trkpt>
      <trkpt lat="50.46576" lon="2.98823">
        <ele>-17.8</ele>
        <time>2018-06-24T10:59:30Z</time>
      </trkpt>
      <trkpt lat="50.46576" lon="2.98823">
        <ele>-17.8</ele>
        <time>2018-06-24T10:59:34Z</time>
      </trkpt>
      <trkpt lat="50.46576" lon="2.98823">
        <ele>-17.8</ele>
        <time>2018-06-24T10:59:38Z</time>
      </trkpt>
      <trkpt lat="50.46576" lon="2.98823">
        <ele>-17.6</ele>
        <time>2018-06-24T10:59:42Z</time>
      </trkpt>
      <trkpt lat="50.46576" lon="2.98823">
        <ele>-17.8</ele>
        <time>2018-06-24T10:59:46Z</time>
      </trkpt>
      <trkpt lat="50.46576" lon="2.98823">
        <ele>-17.6</ele>
        <time>2018-06-24T10:59:50Z</time>
      </trkpt>
      <trkpt lat="50.46576" lon="2.98823">
        <ele>-17.8</ele>
        <time>2018-06-24T10:59:54Z</time>
      </trkpt>
      <trkpt lat="50.46576" lon="2.98823">
        <ele>-18</ele>
        <time>2018-06-24T10:59:58Z</time>
      </trkpt>
      <trkpt lat="50.46576" lon="2.98823">
        <ele>-17.8</ele>
        <time>2018-06-24T11:00:02Z</time>
      </trkpt>
      <trkpt lat="50.46576" lon="2.98823">
        <ele>-18</ele>
        <time>2018-06-24T11:00:06Z</time>
      </trkpt>
      <trkpt lat="50.46576" lon="2.98823">
        <ele>-18</ele>
        <time>2018-06-24T11:00:10Z</time>
      </trkpt>
      <trkpt lat="50.46576" lon="2.98823">
        <ele>-18</ele>
        <time>2018-06-24T11:00:14Z</time>
      </trkpt>
      <trkpt lat="50.46576" lon="2.98823">
        <ele>-18</ele>
        <time>2018-06-24T11:00:18Z</time>
      </trkpt>
      <trkpt lat="50.46576" lon="2.98823">
        <ele>-18</ele>
        <time>2018-06-24T11:00:22Z</time>
      </trkpt>
      <trkpt lat="50.46576" lon="2.98823">
        <ele>-18</ele>
        <time>2018-06-24T11:00:26Z</time>
      </trkpt>
      <trkpt lat="50.46576" lon="2.98823">
        <ele>-18</ele>
        <time>2018-06-24T11:00:30Z</time>
      </trkpt>
      <trkpt lat="50.46576" lon="2.98823">
        <ele>-18</ele>
        <time>2018-06-24T11:00:34Z</time>
      </trkpt>
      <trkpt lat="50.46576" lon="2.98823">
        <ele>-17.8</ele>
        <time>2018-06-24T11:00:38Z</time>
      </trkpt>
      <trkpt lat="50.46576" lon="2.98823">
        <ele>-18</ele>
        <time>2018-06-24T11:00:42Z</time>
      </trkpt>
      <trkpt lat="50.46576" lon="2.98823">
        <ele>-17.8</ele>
        <time>2018-06-24T11:00:46Z</time>
      </trkpt>
      <trkpt lat="50.46576" lon="2.98823">
        <ele>-17.4</ele>
        <time>2018-06-24T11:00:50Z</time>
      </trkpt>
      <trkpt lat="50.46576" lon="2.98823">
        <ele>-17.8</ele>
        <time>2018-06-24T11:00:54Z</time>
      </trkpt>
      <trkpt lat="50.46576" lon="2.98823">
        <ele>-18</ele>
        <time>2018-06-24T11:00:58Z</time>
      </trkpt>
      <trkpt lat="50.46576" lon="2.98823">
        <ele>-18</ele>
        <time>2018-06-24T11:01:02Z</time>
      </trkpt>
      <trkpt lat="50.46576" lon="2.98823">
        <ele>-17.8</ele>
        <time>2018-06-24T11:01:06Z</time>
      </trkpt>
      <trkpt lat="50.46576" lon="2.98823">
        <ele>-18</ele>
        <time>2018-06-24T11:01:10Z</time>
      </trkpt>
      <trkpt lat="50.46576" lon="2.98823">
        <ele>-18</ele>
        <time>2018-06-24T11:01:14Z</time>
      </trkpt>
      <trkpt lat="50.46576" lon="2.98823">
        <ele>-18</ele>
        <time>2018-06-24T11:01:18Z</time>
      </trkpt>
      <trkpt lat="50.46576" lon="2.98823">
        <ele>-17.8</ele>
        <time>2018-06-24T11:01:22Z</time>
      </trkpt>
      <trkpt lat="50.46576" lon="2.98823">
        <ele>-17.6</ele>
        <time>2018-06-24T11:01:26Z</time>
      </trkpt>
      <trkpt lat="50.46576" lon="2.98823">
        <ele>-17.8</ele>
        <time>2018-06-24T11:01:30Z</time>
      </trkpt>
      <trkpt lat="50.46576" lon="2.98823">
        <ele>-18</ele>
        <time>2018-06-24T11:01:34Z</time>
      </trkpt>
      <trkpt lat="50.46576" lon="2.98823">
        <ele>-17.6</ele>
        <time>2018-06-24T11:01:38Z</time>
      </trkpt>
      <trkpt lat="50.46576" lon="2.98823">
        <ele>-17.8</ele>
        <time>2018-06-24T11:01:42Z</time>
      </trkpt>
      <trkpt lat="50.46576" lon="2.98823">
        <ele>-17.8</ele>
        <time>2018-06-24T11:01:46Z</time>
      </trkpt>
      <trkpt lat="50.46576" lon="2.98823">
        <ele>-18</ele>
        <time>2018-06-24T11:01:50Z</time>
      </trkpt>
      <trkpt lat="50.46576" lon="2.98823">
        <ele>-17.8</ele>
        <time>2018-06-24T11:01:54Z</time>
      </trkpt>
      <trkpt lat="50.46576" lon="2.98823">
        <ele>-17.6</ele>
        <time>2018-06-24T11:01:58Z</time>
      </trkpt>
      <trkpt lat="50.46576" lon="2.98823">
        <ele>-17.8</ele>
        <time>2018-06-24T11:02:02Z</time>
      </trkpt>
      <trkpt lat="50.46576" lon="2.98823">
        <ele>-17.8</ele>
        <time>2018-06-24T11:02:06Z</time>
      </trkpt>
      <trkpt lat="50.46576" lon="2.98823">
        <ele>-18.2</ele>
        <time>2018-06-24T11:02:10Z</time>
      </trkpt>
      <trkpt lat="50.46576" lon="2.98823">
        <ele>-18</ele>
        <time>2018-06-24T11:02:14Z</time>
      </trkpt>
      <trkpt lat="50.46576" lon="2.98823">
        <ele>-17.6</ele>
        <time>2018-06-24T11:02:18Z</time>
      </trkpt>
      <trkpt lat="50.46576" lon="2.98823">
        <ele>-17.6</ele>
        <time>2018-06-24T11:02:22Z</time>
      </trkpt>
      <trkpt lat="50.46576" lon="2.98823">
        <ele>-17.6</ele>
        <time>2018-06-24T11:02:26Z</time>
      </trkpt>
      <trkpt lat="50.46576" lon="2.98823">
        <ele>-17.6</ele>
        <time>2018-06-24T11:02:30Z</time>
      </trkpt>
      <trkpt lat="50.46576" lon="2.98823">
        <ele>-17.6</ele>
        <time>2018-06-24T11:02:34Z</time>
      </trkpt>
      <trkpt lat="50.46576" lon="2.98823">
        <ele>-17.6</ele>
        <time>2018-06-24T11:02:38Z</time>
      </trkpt>
      <trkpt lat="50.46576" lon="2.98823">
        <ele>-17.6</ele>
        <time>2018-06-24T11:02:42Z</time>
      </trkpt>
      <trkpt lat="50.46576" lon="2.98823">
        <ele>-17.6</ele>
        <time>2018-06-24T11:02:46Z</time>
      </trkpt>
      <trkpt lat="50.46576" lon="2.98823">
        <ele>-17.8</ele>
        <time>2018-06-24T11:02:50Z</time>
      </trkpt>
      <trkpt lat="50.46576" lon="2.98823">
        <ele>-18</ele>
        <time>2018-06-24T11:02:54Z</time>
      </trkpt>
      <trkpt lat="50.46576" lon="2.98823">
        <ele>-17.8</ele>
        <time>2018-06-24T11:02:58Z</time>
      </trkpt>
      <trkpt lat="50.46576" lon="2.98823">
        <ele>-17.8</ele>
        <time>2018-06-24T11:03:02Z</time>
      </trkpt>
      <trkpt lat="50.46576" lon="2.98823">
        <ele>-17.6</ele>
        <time>2018-06-24T11:03:06Z</time>
      </trkpt>
      <trkpt lat="50.46576" lon="2.98823">
        <ele>-17.8</ele>
        <time>2018-06-24T11:03:10Z</time>
      </trkpt>
      <trkpt lat="50.46576" lon="2.98823">
        <ele>-17.8</ele>
        <time>2018-06-24T11:03:14Z</time>
      </trkpt>
      <trkpt lat="50.46576" lon="2.98823">
        <ele>-17.8</ele>
        <time>2018-06-24T11:03:18Z</time>
      </trkpt>
      <trkpt lat="50.46576" lon="2.98823">
        <ele>-17.8</ele>
        <time>2018-06-24T11:03:22Z</time>
      </trkpt>
      <trkpt lat="50.46576" lon="2.98823">
        <ele>-17.8</ele>
        <time>2018-06-24T11:03:26Z</time>
      </trkpt>
      <trkpt lat="50.46576" lon="2.98823">
        <ele>-18</ele>
        <time>2018-06-24T11:03:30Z</time>
      </trkpt>
      <trkpt lat="50.46576" lon="2.98823">
        <ele>-17.8</ele>
        <time>2018-06-24T11:03:34Z</time>
      </trkpt>
      <trkpt lat="50.46576" lon="2.98823">
        <ele>-18</ele>
        <time>2018-06-24T11:03:38Z</time>
      </trkpt>
      <trkpt lat="50.46576" lon="2.98823">
        <ele>-18</ele>
        <time>2018-06-24T11:03:42Z</time>
      </trkpt>
      <trkpt lat="50.46576" lon="2.98823">
        <ele>-18</ele>
        <time>2018-06-24T11:03:46Z</time>
      </trkpt>
      <trkpt lat="50.46576" lon="2.98823">
        <ele>-18</ele>
        <time>2018-06-24T11:03:50Z</time>
      </trkpt>
      <trkpt lat="50.46576" lon="2.98823">
        <ele>-18</ele>
        <time>2018-06-24T11:03:54Z</time>
      </trkpt>
      <trkpt lat="50.46576" lon="2.98823">
        <ele>-18.2</ele>
        <time>2018-06-24T11:03:58Z</time>
      </trkpt>
      <trkpt lat="50.46576" lon="2.98823">
        <ele>-18.2</ele>
        <time>2018-06-24T11:04:02Z</time>
      </trkpt>
      <trkpt lat="50.46576" lon="2.98823">
        <ele>-18.2</ele>
        <time>2018-06-24T11:04:06Z</time>
      </trkpt>
      <trkpt lat="50.46576" lon="2.98823">
        <ele>-18.2</ele>
        <time>2018-06-24T11:04:10Z</time>
      </trkpt>
      <trkpt lat="50.46576" lon="2.98823">
        <ele>-18.2</ele>
        <time>2018-06-24T11:04:14Z</time>
      </trkpt>
      <trkpt lat="50.46576" lon="2.98823">
        <ele>-18.6</ele>
        <time>2018-06-24T11:04:18Z</time>
      </trkpt>
      <trkpt lat="50.46576" lon="2.98823">
        <ele>-18.2</ele>
        <time>2018-06-24T11:04:22Z</time>
      </trkpt>
      <trkpt lat="50.46576" lon="2.98823">
        <ele>-18.6</ele>
        <time>2018-06-24T11:04:26Z</time>
      </trkpt>
      <trkpt lat="50.46576" lon="2.98823">
        <ele>-18.4</ele>
        <time>2018-06-24T11:04:30Z</time>
      </trkpt>
      <trkpt lat="50.46576" lon="2.98823">
        <ele>-18</ele>
        <time>2018-06-24T11:04:34Z</time>
      </trkpt>
      <trkpt lat="50.46576" lon="2.98823">
        <ele>-18</ele>
        <time>2018-06-24T11:04:38Z</time>
      </trkpt>
      <trkpt lat="50.46576" lon="2.98823">
        <ele>-18</ele>
        <time>2018-06-24T11:04:42Z</time>
      </trkpt>
      <trkpt lat="50.46576" lon="2.98823">
        <ele>-18</ele>
        <time>2018-06-24T11:04:46Z</time>
      </trkpt>
      <trkpt lat="50.46576" lon="2.98823">
        <ele>-18.2</ele>
        <time>2018-06-24T11:04:50Z</time>
      </trkpt>
      <trkpt lat="50.46576" lon="2.98823">
        <ele>-18.4</ele>
        <time>2018-06-24T11:04:54Z</time>
      </trkpt>
      <trkpt lat="50.46576" lon="2.98823">
        <ele>-18.6</ele>
        <time>2018-06-24T11:04:58Z</time>
      </trkpt>
      <trkpt lat="50.46576" lon="2.98823">
        <ele>-18.4</ele>
        <time>2018-06-24T11:05:02Z</time>
      </trkpt>
      <trkpt lat="50.46576" lon="2.98823">
        <ele>-18.4</ele>
        <time>2018-06-24T11:05:06Z</time>
      </trkpt>
      <trkpt lat="50.46576" lon="2.98823">
        <ele>-18</ele>
        <time>2018-06-24T11:05:10Z</time>
      </trkpt>
      <trkpt lat="50.46576" lon="2.98823">
        <ele>-18.2</ele>
        <time>2018-06-24T11:05:14Z</time>
      </trkpt>
      <trkpt lat="50.46576" lon="2.98823">
        <ele>-18.4</ele>
        <time>2018-06-24T11:05:18Z</time>
      </trkpt>
      <trkpt lat="50.46576" lon="2.98823">
        <ele>-18.2</ele>
        <time>2018-06-24T11:05:22Z</time>
      </trkpt>
      <trkpt lat="50.46576" lon="2.98823">
        <ele>-18</ele>
        <time>2018-06-24T11:05:26Z</time>
      </trkpt>
      <trkpt lat="50.46576" lon="2.98823">
        <ele>-18</ele>
        <time>2018-06-24T11:05:30Z</time>
      </trkpt>
      <trkpt lat="50.46576" lon="2.98823">
        <ele>-18.2</ele>
        <time>2018-06-24T11:05:34Z</time>
      </trkpt>
      <trkpt lat="50.46576" lon="2.98823">
        <ele>-18</ele>
        <time>2018-06-24T11:05:38Z</time>
      </trkpt>
      <trkpt lat="50.46576" lon="2.98823">
        <ele>-18</ele>
        <time>2018-06-24T11:05:42Z</time>
      </trkpt>
      <trkpt lat="50.46576" lon="2.98823">
        <ele>-18</ele>
        <time>2018-06-24T11:05:46Z</time>
      </trkpt>
      <trkpt lat="50.46576" lon="2.98823">
        <ele>-18.2</ele>
        <time>2018-06-24T11:05:50Z</time>
      </trkpt>
      <trkpt lat="50.46576" lon="2.98823">
        <ele>-17.8</ele>
        <time>2018-06-24T11:05:54Z</time>
      </trkpt>
      <trkpt lat="50.46576" lon="2.98823">
        <ele>-18</ele>
        <time>2018-06-24T11:05:58Z</time>
      </trkpt>
      <trkpt lat="50.46576" lon="2.98823">
        <ele>-18</ele>
        <time>2018-06-24T11:06:02Z</time>
      </trkpt>
      <trkpt lat="50.46576" lon="2.98823">
        <ele>-18</ele>
        <time>2018-06-24T11:06:06Z</time>
      </trkpt>
      <trkpt lat="50.46576" lon="2.98823">
        <ele>-18.2</ele>
        <time>2018-06-24T11:06:10Z</time>
      </trkpt>
      <trkpt lat="50.46576" lon="2.98823">
        <ele>-18.4</ele>
        <time>2018-06-24T11:06:14Z</time>
      </trkpt>
      <trkpt lat="50.46576" lon="2.98823">
        <ele>-18.4</ele>
        <time>2018-06-24T11:06:18Z</time>
      </trkpt>
      <trkpt lat="50.46576" lon="2.98823">
        <ele>-18.4</ele>
        <time>2018-06-24T11:06:22Z</time>
      </trkpt>
      <trkpt lat="50.46576" lon="2.98823">
        <ele>-18.6</ele>
        <time>2018-06-24T11:06:26Z</time>
      </trkpt>
      <trkpt lat="50.46576" lon="2.98823">
        <ele>-18.6</ele>
        <time>2018-06-24T11:06:30Z</time>
      </trkpt>
      <trkpt lat="50.46576" lon="2.98823">
        <ele>-18.6</ele>
        <time>2018-06-24T11:06:34Z</time>
      </trkpt>
      <trkpt lat="50.46576" lon="2.98823">
        <ele>-18.6</ele>
        <time>2018-06-24T11:06:38Z</time>
      </trkpt>
      <trkpt lat="50.46576" lon="2.98823">
        <ele>-18.4</ele>
        <time>2018-06-24T11:06:42Z</time>
      </trkpt>
      <trkpt lat="50.46576" lon="2.98823">
        <ele>-18.8</ele>
        <time>2018-06-24T11:06:46Z</time>
      </trkpt>
      <trkpt lat="50.46576" lon="2.98823">
        <ele>-18.6</ele>
        <time>2018-06-24T11:06:50Z</time>
      </trkpt>
      <trkpt lat="50.46576" lon="2.98823">
        <ele>-18.4</ele>
        <time>2018-06-24T11:06:54Z</time>
      </trkpt>
      <trkpt lat="50.46576" lon="2.98823">
        <ele>-18.2</ele>
        <time>2018-06-24T11:06:58Z</time>
      </trkpt>
      <trkpt lat="50.46576" lon="2.98823">
        <ele>-18.4</ele>
        <time>2018-06-24T11:07:02Z</time>
      </trkpt>
      <trkpt lat="50.46576" lon="2.98823">
        <ele>-18.4</ele>
        <time>2018-06-24T11:07:06Z</time>
      </trkpt>
      <trkpt lat="50.46576" lon="2.98823">
        <ele>-18.4</ele>
        <time>2018-06-24T11:07:10Z</time>
      </trkpt>
      <trkpt lat="50.46576" lon="2.98823">
        <ele>-18</ele>
        <time>2018-06-24T11:07:14Z</time>
      </trkpt>
      <trkpt lat="50.46576" lon="2.98823">
        <ele>-18.4</ele>
        <time>2018-06-24T11:07:18Z</time>
      </trkpt>
      <trkpt lat="50.46576" lon="2.98823">
        <ele>-18.2</ele>
        <time>2018-06-24T11:07:22Z</time>
      </trkpt>
      <trkpt lat="50.46576" lon="2.98823">
        <ele>-18.4</ele>
        <time>2018-06-24T11:07:26Z</time>
      </trkpt>
      <trkpt lat="50.46576" lon="2.98823">
        <ele>-17.8</ele>
        <time>2018-06-24T11:07:30Z</time>
      </trkpt>
      <trkpt lat="50.46576" lon="2.98823">
        <ele>-18</ele>
        <time>2018-06-24T11:07:34Z</time>
      </trkpt>
      <trkpt lat="50.46576" lon="2.98823">
        <ele>-17.8</ele>
        <time>2018-06-24T11:07:38Z</time>
      </trkpt>
      <trkpt lat="50.46576" lon="2.98823">
        <ele>-17.8</ele>
        <time>2018-06-24T11:07:42Z</time>
      </trkpt>
      <trkpt lat="50.46576" lon="2.98823">
        <ele>-18</ele>
        <time>2018-06-24T11:07:46Z</time>
      </trkpt>
      <trkpt lat="50.46576" lon="2.98823">
        <ele>-18.2</ele>
        <time>2018-06-24T11:07:50Z</time>
      </trkpt>
      <trkpt lat="50.46576" lon="2.98823">
        <ele>-18</ele>
        <time>2018-06-24T11:07:54Z</time>
      </trkpt>
      <trkpt lat="50.46576" lon="2.98823">
        <ele>-17.8</ele>
        <time>2018-06-24T11:07:58Z</time>
      </trkpt>
      <trkpt lat="50.46576" lon="2.98823">
        <ele>-17.6</ele>
        <time>2018-06-24T11:08:02Z</time>
      </trkpt>
      <trkpt lat="50.46576" lon="2.98823">
        <ele>-17.4</ele>
        <time>2018-06-24T11:08:06Z</time>
      </trkpt>
      <trkpt lat="50.46576" lon="2.98823">
        <ele>-17.8</ele>
        <time>2018-06-24T11:08:10Z</time>
      </trkpt>
      <trkpt lat="50.46576" lon="2.98823">
        <ele>-18</ele>
        <time>2018-06-24T11:08:14Z</time>
      </trkpt>
      <trkpt lat="50.46576" lon="2.98823">
        <ele>-18</ele>
        <time>2018-06-24T11:08:18Z</time>
      </trkpt>
      <trkpt lat="50.46576" lon="2.98823">
        <ele>-18.2</ele>
        <time>2018-06-24T11:08:22Z</time>
      </trkpt>
      <trkpt lat="50.46576" lon="2.98823">
        <ele>-17.8</ele>
        <time>2018-06-24T11:08:26Z</time>
      </trkpt>
      <trkpt lat="50.46576" lon="2.98823">
        <ele>-18</ele>
        <time>2018-06-24T11:08:30Z</time>
      </trkpt>
      <trkpt lat="50.46576" lon="2.98823">
        <ele>-18</ele>
        <time>2018-06-24T11:08:34Z</time>
      </trkpt>
      <trkpt lat="50.46576" lon="2.98823">
        <ele>-18.2</ele>
        <time>2018-06-24T11:08:38Z</time>
      </trkpt>
      <trkpt lat="50.46576" lon="2.98823">
        <ele>-18</ele>
        <time>2018-06-24T11:08:42Z</time>
      </trkpt>
      <trkpt lat="50.46576" lon="2.98823">
        <ele>-18</ele>
        <time>2018-06-24T11:08:46Z</time>
      </trkpt>
      <trkpt lat="50.46576" lon="2.98823">
        <ele>-18.2</ele>
        <time>2018-06-24T11:08:50Z</time>
      </trkpt>
      <trkpt lat="50.46576" lon="2.98823">
        <ele>-18.6</ele>
        <time>2018-06-24T11:08:54Z</time>
      </trkpt>
      <trkpt lat="50.46576" lon="2.98823">
        <ele>-18.4</ele>
        <time>2018-06-24T11:08:58Z</time>
      </trkpt>
      <trkpt lat="50.46576" lon="2.98823">
        <ele>-18.2</ele>
        <time>2018-06-24T11:09:02Z</time>
      </trkpt>
      <trkpt lat="50.46576" lon="2.98823">
        <ele>-18.4</ele>
        <time>2018-06-24T11:09:06Z</time>
      </trkpt>
      <trkpt lat="50.46576" lon="2.98823">
        <ele>-18.6</ele>
        <time>2018-06-24T11:09:10Z</time>
      </trkpt>
      <trkpt lat="50.46576" lon="2.98823">
        <ele>-18.2</ele>
        <time>2018-06-24T11:09:14Z</time>
      </trkpt>
      <trkpt lat="50.46576" lon="2.98823">
        <ele>-18.4</ele>
        <time>2018-06-24T11:09:18Z</time>
      </trkpt>
      <trkpt lat="50.46576" lon="2.98823">
        <ele>-18.2</ele>
        <time>2018-06-24T11:09:22Z</time>
      </trkpt>
      <trkpt lat="50.46576" lon="2.98823">
        <ele>-18</ele>
        <time>2018-06-24T11:09:26Z</time>
      </trkpt>
      <trkpt lat="50.46576" lon="2.98823">
        <ele>-18.4</ele>
        <time>2018-06-24T11:09:30Z</time>
      </trkpt>
      <trkpt lat="50.46576" lon="2.98823">
        <ele>-18.2</ele>
        <time>2018-06-24T11:09:34Z</time>
      </trkpt>
      <trkpt lat="50.46576" lon="2.98823">
        <ele>-18.6</ele>
        <time>2018-06-24T11:09:38Z</time>
      </trkpt>
      <trkpt lat="50.46576" lon="2.98823">
        <ele>-18.6</ele>
        <time>2018-06-24T11:09:42Z</time>
      </trkpt>
      <trkpt lat="50.46576" lon="2.98823">
        <ele>-18.8</ele>
        <time>2018-06-24T11:09:46Z</time>
      </trkpt>
      <trkpt lat="50.46576" lon="2.98823">
        <ele>-18.6</ele>
        <time>2018-06-24T11:09:50Z</time>
      </trkpt>
      <trkpt lat="50.46576" lon="2.98823">
        <ele>-18.6</ele>
        <time>2018-06-24T11:09:54Z</time>
      </trkpt>
      <trkpt lat="50.46576" lon="2.98823">
        <ele>-18.6</ele>
        <time>2018-06-24T11:09:58Z</time>
      </trkpt>
      <trkpt lat="50.46576" lon="2.98823">
        <ele>-18.6</ele>
        <time>2018-06-24T11:10:02Z</time>
      </trkpt>
      <trkpt lat="50.46576" lon="2.98823">
        <ele>-18.2</ele>
        <time>2018-06-24T11:10:06Z</time>
      </trkpt>
      <trkpt lat="50.46576" lon="2.98823">
        <ele>-18.6</ele>
        <time>2018-06-24T11:10:10Z</time>
      </trkpt>
      <trkpt lat="50.46576" lon="2.98823">
        <ele>-18.6</ele>
        <time>2018-06-24T11:10:14Z</time>
      </trkpt>
      <trkpt lat="50.46576" lon="2.98823">
        <ele>-18.8</ele>
        <time>2018-06-24T11:10:18Z</time>
      </trkpt>
      <trkpt lat="50.46576" lon="2.98823">
        <ele>-18.6</ele>
        <time>2018-06-24T11:10:22Z</time>
      </trkpt>
      <trkpt lat="50.46576" lon="2.98823">
        <ele>-18.8</ele>
        <time>2018-06-24T11:10:26Z</time>
      </trkpt>
      <trkpt lat="50.46576" lon="2.98823">
        <ele>-18.8</ele>
        <time>2018-06-24T11:10:30Z</time>
      </trkpt>
      <trkpt lat="50.46576" lon="2.98823">
        <ele>-18.8</ele>
        <time>2018-06-24T11:10:34Z</time>
      </trkpt>
      <trkpt lat="50.46576" lon="2.98823">
        <ele>-18.8</ele>
        <time>2018-06-24T11:10:38Z</time>
      </trkpt>
      <trkpt lat="50.46576" lon="2.98823">
        <ele>-18.8</ele>
        <time>2018-06-24T11:10:42Z</time>
      </trkpt>
      <trkpt lat="50.46576" lon="2.98823">
        <ele>-18.8</ele>
        <time>2018-06-24T11:10:46Z</time>
      </trkpt>
      <trkpt lat="50.46576" lon="2.98823">
        <ele>-18.8</ele>
        <time>2018-06-24T11:10:50Z</time>
      </trkpt>
      <trkpt lat="50.46576" lon="2.98823">
        <ele>-18.6</ele>
        <time>2018-06-24T11:10:54Z</time>
      </trkpt>
      <trkpt lat="50.46576" lon="2.98823">
        <ele>-18.6</ele>
        <time>2018-06-24T11:10:58Z</time>
      </trkpt>
      <trkpt lat="50.46576" lon="2.98823">
        <ele>-18.8</ele>
        <time>2018-06-24T11:11:02Z</time>
      </trkpt>
      <trkpt lat="50.46576" lon="2.98823">
        <ele>-18.4</ele>
        <time>2018-06-24T11:11:06Z</time>
      </trkpt>
      <trkpt lat="50.46576" lon="2.98823">
        <ele>-18.4</ele>
        <time>2018-06-24T11:11:10Z</time>
      </trkpt>
      <trkpt lat="50.46576" lon="2.98823">
        <ele>-18.6</ele>
        <time>2018-06-24T11:11:14Z</time>
      </trkpt>
      <trkpt lat="50.46576" lon="2.98823">
        <ele>-18.8</ele>
        <time>2018-06-24T11:11:18Z</time>
      </trkpt>
      <trkpt lat="50.46576" lon="2.98823">
        <ele>-18.6</ele>
        <time>2018-06-24T11:11:22Z</time>
      </trkpt>
      <trkpt lat="50.46576" lon="2.98823">
        <ele>-18.6</ele>
        <time>2018-06-24T11:11:26Z</time>
      </trkpt>
      <trkpt lat="50.46576" lon="2.98823">
        <ele>-18.2</ele>
        <time>2018-06-24T11:11:30Z</time>
      </trkpt>
      <trkpt lat="50.46576" lon="2.98823">
        <ele>-18.6</ele>
        <time>2018-06-24T11:11:34Z</time>
      </trkpt>
      <trkpt lat="50.46576" lon="2.98823">
        <ele>-18.6</ele>
        <time>2018-06-24T11:11:38Z</time>
      </trkpt>
      <trkpt lat="50.46576" lon="2.98823">
        <ele>-18.4</ele>
        <time>2018-06-24T11:11:42Z</time>
      </trkpt>
      <trkpt lat="50.46576" lon="2.98823">
        <ele>-18.6</ele>
        <time>2018-06-24T11:11:46Z</time>
      </trkpt>
      <trkpt lat="50.46576" lon="2.98823">
        <ele>-18.6</ele>
        <time>2018-06-24T11:11:50Z</time>
      </trkpt>
      <trkpt lat="50.46576" lon="2.98823">
        <ele>-18.6</ele>
        <time>2018-06-24T11:11:54Z</time>
      </trkpt>
      <trkpt lat="50.46576" lon="2.98823">
        <ele>-18.8</ele>
        <time>2018-06-24T11:11:58Z</time>
      </trkpt>
      <trkpt lat="50.46576" lon="2.98823">
        <ele>-18.8</ele>
        <time>2018-06-24T11:12:02Z</time>
      </trkpt>
      <trkpt lat="50.46576" lon="2.98823">
        <ele>-19</ele>
        <time>2018-06-24T11:12:06Z</time>
      </trkpt>
      <trkpt lat="50.46576" lon="2.98823">
        <ele>-19</ele>
        <time>2018-06-24T11:12:10Z</time>
      </trkpt>
      <trkpt lat="50.46576" lon="2.98823">
        <ele>-18.8</ele>
        <time>2018-06-24T11:12:14Z</time>
      </trkpt>
      <trkpt lat="50.46576" lon="2.98823">
        <ele>-18.8</ele>
        <time>2018-06-24T11:12:18Z</time>
      </trkpt>
      <trkpt lat="50.46576" lon="2.98823">
        <ele>-18.6</ele>
        <time>2018-06-24T11:12:22Z</time>
      </trkpt>
      <trkpt lat="50.46576" lon="2.98823">
        <ele>-18.8</ele>
        <time>2018-06-24T11:12:26Z</time>
      </trkpt>
      <trkpt lat="50.46576" lon="2.98823">
        <ele>-18.6</ele>
        <time>2018-06-24T11:12:30Z</time>
      </trkpt>
      <trkpt lat="50.46576" lon="2.98823">
        <ele>-18.4</ele>
        <time>2018-06-24T11:12:34Z</time>
      </trkpt>
      <trkpt lat="50.46576" lon="2.98823">
        <ele>-18.6</ele>
        <time>2018-06-24T11:12:38Z</time>
      </trkpt>
      <trkpt lat="50.46576" lon="2.98823">
        <ele>-18.6</ele>
        <time>2018-06-24T11:12:42Z</time>
      </trkpt>
      <trkpt lat="50.46576" lon="2.98823">
        <ele>-18.4</ele>
        <time>2018-06-24T11:12:46Z</time>
      </trkpt>
      <trkpt lat="50.46576" lon="2.98823">
        <ele>-18.6</ele>
        <time>2018-06-24T11:12:50Z</time>
      </trkpt>
      <trkpt lat="50.46576" lon="2.98823">
        <ele>-18.6</ele>
        <time>2018-06-24T11:12:54Z</time>
      </trkpt>
      <trkpt lat="50.46576" lon="2.98823">
        <ele>-18.4</ele>
        <time>2018-06-24T11:12:58Z</time>
      </trkpt>
      <trkpt lat="50.46576" lon="2.98823">
        <ele>-18.4</ele>
        <time>2018-06-24T11:13:02Z</time>
      </trkpt>
      <trkpt lat="50.46576" lon="2.98823">
        <ele>-18.6</ele>
        <time>2018-06-24T11:13:06Z</time>
      </trkpt>
      <trkpt lat="50.46576" lon="2.98823">
        <ele>-18.6</ele>
        <time>2018-06-24T11:13:10Z</time>
      </trkpt>
      <trkpt lat="50.46576" lon="2.98823">
        <ele>-18</ele>
        <time>2018-06-24T11:13:14Z</time>
      </trkpt>
      <trkpt lat="50.46576" lon="2.98823">
        <ele>-18.8</ele>
        <time>2018-06-24T11:13:18Z</time>
      </trkpt>
      <trkpt lat="50.46576" lon="2.98823">
        <ele>-18.4</ele>
        <time>2018-06-24T11:13:22Z</time>
      </trkpt>
      <trkpt lat="50.46576" lon="2.98823">
        <ele>-18.2</ele>
        <time>2018-06-24T11:13:26Z</time>
      </trkpt>
      <trkpt lat="50.46576" lon="2.98823">
        <ele>-18.4</ele>
        <time>2018-06-24T11:13:30Z</time>
      </trkpt>
      <trkpt lat="50.46576" lon="2.98823">
        <ele>-18</ele>
        <time>2018-06-24T11:13:34Z</time>
      </trkpt>
      <trkpt lat="50.46576" lon="2.98823">
        <ele>-18.2</ele>
        <time>2018-06-24T11:13:38Z</time>
      </trkpt>
      <trkpt lat="50.46576" lon="2.98823">
        <ele>-18.6</ele>
        <time>2018-06-24T11:13:42Z</time>
      </trkpt>
      <trkpt lat="50.46576" lon="2.98823">
        <ele>-18.6</ele>
        <time>2018-06-24T11:13:46Z</time>
      </trkpt>
      <trkpt lat="50.46576" lon="2.98823">
        <ele>-18.6</ele>
        <time>2018-06-24T11:13:50Z</time>
      </trkpt>
      <trkpt lat="50.46576" lon="2.98823">
        <ele>-18.4</ele>
        <time>2018-06-24T11:13:54Z</time>
      </trkpt>
      <trkpt lat="50.46576" lon="2.98823">
        <ele>-18.4</ele>
        <time>2018-06-24T11:13:58Z</time>
      </trkpt>
      <trkpt lat="50.46576" lon="2.98823">
        <ele>-18.6</ele>
        <time>2018-06-24T11:14:02Z</time>
      </trkpt>
      <trkpt lat="50.46576" lon="2.98823">
        <ele>-18.4</ele>
        <time>2018-06-24T11:14:06Z</time>
      </trkpt>
      <trkpt lat="50.46576" lon="2.98823">
        <ele>-18.4</ele>
        <time>2018-06-24T11:14:10Z</time>
      </trkpt>
      <trkpt lat="50.46576" lon="2.98823">
        <ele>-19</ele>
        <time>2018-06-24T11:14:14Z</time>
      </trkpt>
      <trkpt lat="50.46576" lon="2.98823">
        <ele>-18.6</ele>
        <time>2018-06-24T11:14:18Z</time>
      </trkpt>
      <trkpt lat="50.46576" lon="2.98823">
        <ele>-18.6</ele>
        <time>2018-06-24T11:14:22Z</time>
      </trkpt>
      <trkpt lat="50.46576" lon="2.98823">
        <ele>-18.6</ele>
        <time>2018-06-24T11:14:26Z</time>
      </trkpt>
      <trkpt lat="50.46576" lon="2.98823">
        <ele>-18.4</ele>
        <time>2018-06-24T11:14:30Z</time>
      </trkpt>
      <trkpt lat="50.46576" lon="2.98823">
        <ele>-18.4</ele>
        <time>2018-06-24T11:14:34Z</time>
      </trkpt>
      <trkpt lat="50.46576" lon="2.98823">
        <ele>-18.6</ele>
        <time>2018-06-24T11:14:38Z</time>
      </trkpt>
      <trkpt lat="50.46576" lon="2.98823">
        <ele>-18.6</ele>
        <time>2018-06-24T11:14:42Z</time>
      </trkpt>
      <trkpt lat="50.46576" lon="2.98823">
        <ele>-18.8</ele>
        <time>2018-06-24T11:14:46Z</time>
      </trkpt>
      <trkpt lat="50.46576" lon="2.98823">
        <ele>-18.6</ele>
        <time>2018-06-24T11:14:50Z</time>
      </trkpt>
      <trkpt lat="50.46576" lon="2.98823">
        <ele>-18.6</ele>
        <time>2018-06-24T11:14:54Z</time>
      </trkpt>
      <trkpt lat="50.46576" lon="2.98823">
        <ele>-18.8</ele>
        <time>2018-06-24T11:14:58Z</time>
      </trkpt>
      <trkpt lat="50.46576" lon="2.98823">
        <ele>-18.6</ele>
        <time>2018-06-24T11:15:02Z</time>
      </trkpt>
      <trkpt lat="50.46576" lon="2.98823">
        <ele>-18.8</ele>
        <time>2018-06-24T11:15:06Z</time>
      </trkpt>
      <trkpt lat="50.46576" lon="2.98823">
        <ele>-18.6</ele>
        <time>2018-06-24T11:15:10Z</time>
      </trkpt>
      <trkpt lat="50.46576" lon="2.98823">
        <ele>-18.6</ele>
        <time>2018-06-24T11:15:14Z</time>
      </trkpt>
      <trkpt lat="50.46576" lon="2.98823">
        <ele>-18.4</ele>
        <time>2018-06-24T11:15:18Z</time>
      </trkpt>
      <trkpt lat="50.46576" lon="2.98823">
        <ele>-18.4</ele>
        <time>2018-06-24T11:15:22Z</time>
      </trkpt>
      <trkpt lat="50.46576" lon="2.98823">
        <ele>-18.4</ele>
        <time>2018-06-24T11:15:26Z</time>
      </trkpt>
      <trkpt lat="50.46576" lon="2.98823">
        <ele>-18.4</ele>
        <time>2018-06-24T11:15:30Z</time>
      </trkpt>
      <trkpt lat="50.46576" lon="2.98823">
        <ele>-18.4</ele>
        <time>2018-06-24T11:15:34Z</time>
      </trkpt>
      <trkpt lat="50.46576" lon="2.98823">
        <ele>-18.2</ele>
        <time>2018-06-24T11:15:38Z</time>
      </trkpt>
      <trkpt lat="50.46576" lon="2.98823">
        <ele>-18.2</ele>
        <time>2018-06-24T11:15:42Z</time>
      </trkpt>
      <trkpt lat="50.46576" lon="2.98823">
        <ele>-18.2</ele>
        <time>2018-06-24T11:15:46Z</time>
      </trkpt>
      <trkpt lat="50.46576" lon="2.98823">
        <ele>-18.6</ele>
        <time>2018-06-24T11:15:50Z</time>
      </trkpt>
      <trkpt lat="50.46576" lon="2.98823">
        <ele>-18.2</ele>
        <time>2018-06-24T11:15:54Z</time>
      </trkpt>
      <trkpt lat="50.46576" lon="2.98823">
        <ele>-18.2</ele>
        <time>2018-06-24T11:15:58Z</time>
      </trkpt>
      <trkpt lat="50.46576" lon="2.98823">
        <ele>-18.6</ele>
        <time>2018-06-24T11:16:02Z</time>
      </trkpt>
      <trkpt lat="50.46576" lon="2.98823">
        <ele>-18.4</ele>
        <time>2018-06-24T11:16:06Z</time>
      </trkpt>
      <trkpt lat="50.46576" lon="2.98823">
        <ele>-18.8</ele>
        <time>2018-06-24T11:16:10Z</time>
      </trkpt>
      <trkpt lat="50.46576" lon="2.98823">
        <ele>-18.4</ele>
        <time>2018-06-24T11:16:14Z</time>
      </trkpt>
      <trkpt lat="50.46576" lon="2.98823">
        <ele>-18.2</ele>
        <time>2018-06-24T11:16:18Z</time>
      </trkpt>
      <trkpt lat="50.46576" lon="2.98823">
        <ele>-18.4</ele>
        <time>2018-06-24T11:16:22Z</time>
      </trkpt>
      <trkpt lat="50.46576" lon="2.98823">
        <ele>-18.6</ele>
        <time>2018-06-24T11:16:26Z</time>
      </trkpt>
      <trkpt lat="50.46576" lon="2.98823">
        <ele>-18.2</ele>
        <time>2018-06-24T11:16:30Z</time>
      </trkpt>
      <trkpt lat="50.46576" lon="2.98823">
        <ele>-18.4</ele>
        <time>2018-06-24T11:16:34Z</time>
      </trkpt>
      <trkpt lat="50.46576" lon="2.98823">
        <ele>-18.2</ele>
        <time>2018-06-24T11:16:38Z</time>
      </trkpt>
      <trkpt lat="50.46576" lon="2.98823">
        <ele>-18.2</ele>
        <time>2018-06-24T11:16:42Z</time>
      </trkpt>
      <trkpt lat="50.46576" lon="2.98823">
        <ele>-18.4</ele>
        <time>2018-06-24T11:16:46Z</time>
      </trkpt>
      <trkpt lat="50.46576" lon="2.98823">
        <ele>-18.4</ele>
        <time>2018-06-24T11:16:50Z</time>
      </trkpt>
      <trkpt lat="50.46576" lon="2.98823">
        <ele>-18.2</ele>
        <time>2018-06-24T11:16:54Z</time>
      </trkpt>
      <trkpt lat="50.46576" lon="2.98823">
        <ele>-18.2</ele>
        <time>2018-06-24T11:16:58Z</time>
      </trkpt>
      <trkpt lat="50.46576" lon="2.98823">
        <ele>-18.4</ele>
        <time>2018-06-24T11:17:02Z</time>
      </trkpt>
      <trkpt lat="50.46576" lon="2.98823">
        <ele>-18.6</ele>
        <time>2018-06-24T11:17:06Z</time>
      </trkpt>
      <trkpt lat="50.46576" lon="2.98823">
        <ele>-18.6</ele>
        <time>2018-06-24T11:17:10Z</time>
      </trkpt>
      <trkpt lat="50.46576" lon="2.98823">
        <ele>-18.2</ele>
        <time>2018-06-24T11:17:14Z</time>
      </trkpt>
      <trkpt lat="50.46576" lon="2.98823">
        <ele>-18.6</ele>
        <time>2018-06-24T11:17:18Z</time>
      </trkpt>
      <trkpt lat="50.46576" lon="2.98823">
        <ele>-18.6</ele>
        <time>2018-06-24T11:17:22Z</time>
      </trkpt>
      <trkpt lat="50.46576" lon="2.98823">
        <ele>-18.6</ele>
        <time>2018-06-24T11:17:26Z</time>
      </trkpt>
      <trkpt lat="50.46576" lon="2.98823">
        <ele>-18</ele>
        <time>2018-06-24T11:17:30Z</time>
      </trkpt>
      <trkpt lat="50.46576" lon="2.98823">
        <ele>-18.2</ele>
        <time>2018-06-24T11:17:34Z</time>
      </trkpt>
      <trkpt lat="50.46576" lon="2.98823">
        <ele>-18.2</ele>
        <time>2018-06-24T11:17:38Z</time>
      </trkpt>
      <trkpt lat="50.46576" lon="2.98823">
        <ele>-18.4</ele>
        <time>2018-06-24T11:17:42Z</time>
      </trkpt>
      <trkpt lat="50.46576" lon="2.98823">
        <ele>-18.4</ele>
        <time>2018-06-24T11:17:46Z</time>
      </trkpt>
      <trkpt lat="50.46576" lon="2.98823">
        <ele>-18</ele>
        <time>2018-06-24T11:17:50Z</time>
      </trkpt>
      <trkpt lat="50.46576" lon="2.98823">
        <ele>-18</ele>
        <time>2018-06-24T11:17:54Z</time>
      </trkpt>
      <trkpt lat="50.46576" lon="2.98823">
        <ele>-18.4</ele>
        <time>2018-06-24T11:17:58Z</time>
      </trkpt>
      <trkpt lat="50.46576" lon="2.98823">
        <ele>-18.2</ele>
        <time>2018-06-24T11:18:02Z</time>
      </trkpt>
      <trkpt lat="50.46576" lon="2.98823">
        <ele>-18</ele>
        <time>2018-06-24T11:18:06Z</time>
      </trkpt>
      <trkpt lat="50.46576" lon="2.98823">
        <ele>-18</ele>
        <time>2018-06-24T11:18:10Z</time>
      </trkpt>
      <trkpt lat="50.46576" lon="2.98823">
        <ele>-18</ele>
        <time>2018-06-24T11:18:14Z</time>
      </trkpt>
      <trkpt lat="50.46576" lon="2.98823">
        <ele>-17.8</ele>
        <time>2018-06-24T11:18:18Z</time>
      </trkpt>
      <trkpt lat="50.46576" lon="2.98823">
        <ele>-18.2</ele>
        <time>2018-06-24T11:18:22Z</time>
      </trkpt>
      <trkpt lat="50.46576" lon="2.98823">
        <ele>-17.8</ele>
        <time>2018-06-24T11:18:26Z</time>
      </trkpt>
      <trkpt lat="50.46576" lon="2.98823">
        <ele>-18.2</ele>
        <time>2018-06-24T11:18:30Z</time>
      </trkpt>
      <trkpt lat="50.46576" lon="2.98823">
        <ele>-18</ele>
        <time>2018-06-24T11:18:34Z</time>
      </trkpt>
      <trkpt lat="50.46576" lon="2.98823">
        <ele>-18.2</ele>
        <time>2018-06-24T11:18:38Z</time>
      </trkpt>
      <trkpt lat="50.46576" lon="2.98823">
        <ele>-18</ele>
        <time>2018-06-24T11:18:42Z</time>
      </trkpt>
      <trkpt lat="50.46576" lon="2.98823">
        <ele>-17.6</ele>
        <time>2018-06-24T11:18:46Z</time>
      </trkpt>
      <trkpt lat="50.46576" lon="2.98823">
        <ele>-17.8</ele>
        <time>2018-06-24T11:18:50Z</time>
      </trkpt>
      <trkpt lat="50.46576" lon="2.98823">
        <ele>-18</ele>
        <time>2018-06-24T11:18:54Z</time>
      </trkpt>
      <trkpt lat="50.46576" lon="2.98823">
        <ele>-17.8</ele>
        <time>2018-06-24T11:18:58Z</time>
      </trkpt>
      <trkpt lat="50.46576" lon="2.98823">
        <ele>-18</ele>
        <time>2018-06-24T11:19:02Z</time>
      </trkpt>
      <trkpt lat="50.46576" lon="2.98823">
        <ele>-17.8</ele>
        <time>2018-06-24T11:19:06Z</time>
      </trkpt>
      <trkpt lat="50.46576" lon="2.98823">
        <ele>-18.4</ele>
        <time>2018-06-24T11:19:10Z</time>
      </trkpt>
      <trkpt lat="50.46576" lon="2.98823">
        <ele>-18</ele>
        <time>2018-06-24T11:19:14Z</time>
      </trkpt>
      <trkpt lat="50.46576" lon="2.98823">
        <ele>-18.4</ele>
        <time>2018-06-24T11:19:18Z</time>
      </trkpt>
      <trkpt lat="50.46576" lon="2.98823">
        <ele>-18</ele>
        <time>2018-06-24T11:19:22Z</time>
      </trkpt>
      <trkpt lat="50.46576" lon="2.98823">
        <ele>-18.2</ele>
        <time>2018-06-24T11:19:26Z</time>
      </trkpt>
      <trkpt lat="50.46576" lon="2.98823">
        <ele>-18</ele>
        <time>2018-06-24T11:19:30Z</time>
      </trkpt>
      <trkpt lat="50.46576" lon="2.98823">
        <ele>-18</ele>
        <time>2018-06-24T11:19:34Z</time>
      </trkpt>
      <trkpt lat="50.46576" lon="2.98823">
        <ele>-17.8</ele>
        <time>2018-06-24T11:19:38Z</time>
      </trkpt>
      <trkpt lat="50.46576" lon="2.98823">
        <ele>-18</ele>
        <time>2018-06-24T11:19:42Z</time>
      </trkpt>
      <trkpt lat="50.46576" lon="2.98823">
        <ele>-18.2</ele>
        <time>2018-06-24T11:19:46Z</time>
      </trkpt>
      <trkpt lat="50.46576" lon="2.98823">
        <ele>-18.6</ele>
        <time>2018-06-24T11:19:50Z</time>
      </trkpt>
      <trkpt lat="50.46576" lon="2.98823">
        <ele>-18</ele>
        <time>2018-06-24T11:19:54Z</time>
      </trkpt>
      <trkpt lat="50.46576" lon="2.98823">
        <ele>-18.2</ele>
        <time>2018-06-24T11:19:58Z</time>
      </trkpt>
      <trkpt lat="50.46576" lon="2.98823">
        <ele>-18.4</ele>
        <time>2018-06-24T11:20:02Z</time>
      </trkpt>
      <trkpt lat="50.46576" lon="2.98823">
        <ele>-18</ele>
        <time>2018-06-24T11:20:06Z</time>
      </trkpt>
      <trkpt lat="50.46576" lon="2.98823">
        <ele>-18.4</ele>
        <time>2018-06-24T11:20:10Z</time>
      </trkpt>
      <trkpt lat="50.46576" lon="2.98823">
        <ele>-18.4</ele>
        <time>2018-06-24T11:20:14Z</time>
      </trkpt>
      <trkpt lat="50.46576" lon="2.98823">
        <ele>-18.6</ele>
        <time>2018-06-24T11:20:18Z</time>
      </trkpt>
      <trkpt lat="50.46576" lon="2.98823">
        <ele>-18.6</ele>
        <time>2018-06-24T11:20:22Z</time>
      </trkpt>
      <trkpt lat="50.46576" lon="2.98823">
        <ele>-18.6</ele>
        <time>2018-06-24T11:20:26Z</time>
      </trkpt>
      <trkpt lat="50.46576" lon="2.98823">
        <ele>-18.4</ele>
        <time>2018-06-24T11:20:30Z</time>
      </trkpt>
      <trkpt lat="50.46576" lon="2.98823">
        <ele>-18.6</ele>
        <time>2018-06-24T11:20:34Z</time>
      </trkpt>
      <trkpt lat="50.46576" lon="2.98823">
        <ele>-18.4</ele>
        <time>2018-06-24T11:20:38Z</time>
      </trkpt>
      <trkpt lat="50.46576" lon="2.98823">
        <ele>-18.4</ele>
        <time>2018-06-24T11:20:42Z</time>
      </trkpt>
      <trkpt lat="50.46576" lon="2.98823">
        <ele>-18.8</ele>
        <time>2018-06-24T11:20:46Z</time>
      </trkpt>
      <trkpt lat="50.46576" lon="2.98823">
        <ele>-18.6</ele>
        <time>2018-06-24T11:20:50Z</time>
      </trkpt>
      <trkpt lat="50.46576" lon="2.98823">
        <ele>-18.4</ele>
        <time>2018-06-24T11:20:54Z</time>
      </trkpt>
      <trkpt lat="50.46576" lon="2.98823">
        <ele>-18.2</ele>
        <time>2018-06-24T11:20:58Z</time>
      </trkpt>
      <trkpt lat="50.46576" lon="2.98823">
        <ele>-18.2</ele>
        <time>2018-06-24T11:21:02Z</time>
      </trkpt>
      <trkpt lat="50.46576" lon="2.98823">
        <ele>-18</ele>
        <time>2018-06-24T11:21:06Z</time>
      </trkpt>
      <trkpt lat="50.46576" lon="2.98823">
        <ele>-18.4</ele>
        <time>2018-06-24T11:21:10Z</time>
      </trkpt>
      <trkpt lat="50.46576" lon="2.98823">
        <ele>-18.2</ele>
        <time>2018-06-24T11:21:14Z</time>
      </trkpt>
      <trkpt lat="50.46576" lon="2.98823">
        <ele>-18.2</ele>
        <time>2018-06-24T11:21:18Z</time>
      </trkpt>
      <trkpt lat="50.46576" lon="2.98823">
        <ele>-18.4</ele>
        <time>2018-06-24T11:21:22Z</time>
      </trkpt>
      <trkpt lat="50.46576" lon="2.98823">
        <ele>-18.4</ele>
        <time>2018-06-24T11:21:26Z</time>
      </trkpt>
      <trkpt lat="50.46576" lon="2.98823">
        <ele>-18.2</ele>
        <time>2018-06-24T11:21:30Z</time>
      </trkpt>
      <trkpt lat="50.46576" lon="2.98823">
        <ele>-18</ele>
        <time>2018-06-24T11:21:34Z</time>
      </trkpt>
      <trkpt lat="50.46576" lon="2.98823">
        <ele>-17.8</ele>
        <time>2018-06-24T11:21:38Z</time>
      </trkpt>
      <trkpt lat="50.46576" lon="2.98823">
        <ele>-18.4</ele>
        <time>2018-06-24T11:21:42Z</time>
      </trkpt>
      <trkpt lat="50.46576" lon="2.98823">
        <ele>-18.2</ele>
        <time>2018-06-24T11:21:46Z</time>
      </trkpt>
      <trkpt lat="50.46576" lon="2.98823">
        <ele>-18</ele>
        <time>2018-06-24T11:21:50Z</time>
      </trkpt>
      <trkpt lat="50.46576" lon="2.98823">
        <ele>-18</ele>
        <time>2018-06-24T11:21:54Z</time>
      </trkpt>
      <trkpt lat="50.46576" lon="2.98823">
        <ele>-18.6</ele>
        <time>2018-06-24T11:21:58Z</time>
      </trkpt>
      <trkpt lat="50.46576" lon="2.98823">
        <ele>-18.6</ele>
        <time>2018-06-24T11:22:02Z</time>
      </trkpt>
      <trkpt lat="50.46576" lon="2.98823">
        <ele>-18.4</ele>
        <time>2018-06-24T11:22:06Z</time>
      </trkpt>
      <trkpt lat="50.46576" lon="2.98823">
        <ele>-18.6</ele>
        <time>2018-06-24T11:22:10Z</time>
      </trkpt>
      <trkpt lat="50.46576" lon="2.98823">
        <ele>-18.4</ele>
        <time>2018-06-24T11:22:14Z</time>
      </trkpt>
      <trkpt lat="50.46576" lon="2.98823">
        <ele>-18.4</ele>
        <time>2018-06-24T11:22:18Z</time>
      </trkpt>
      <trkpt lat="50.46576" lon="2.98823">
        <ele>-18.2</ele>
        <time>2018-06-24T11:22:22Z</time>
      </trkpt>
      <trkpt lat="50.46576" lon="2.98823">
        <ele>-18.4</ele>
        <time>2018-06-24T11:22:26Z</time>
      </trkpt>
      <trkpt lat="50.46576" lon="2.98823">
        <ele>-18.6</ele>
        <time>2018-06-24T11:22:30Z</time>
      </trkpt>
      <trkpt lat="50.46576" lon="2.98823">
        <ele>-18.4</ele>
        <time>2018-06-24T11:22:34Z</time>
      </trkpt>
      <trkpt lat="50.46576" lon="2.98823">
        <ele>-18.4</ele>
        <time>2018-06-24T11:22:38Z</time>
      </trkpt>
      <trkpt lat="50.46576" lon="2.98823">
        <ele>-18.2</ele>
        <time>2018-06-24T11:22:42Z</time>
      </trkpt>
      <trkpt lat="50.46576" lon="2.98823">
        <ele>-18</ele>
        <time>2018-06-24T11:22:46Z</time>
      </trkpt>
      <trkpt lat="50.46576" lon="2.98823">
        <ele>-18.4</ele>
        <time>2018-06-24T11:22:50Z</time>
      </trkpt>
      <trkpt lat="50.46576" lon="2.98823">
        <ele>-18.4</ele>
        <time>2018-06-24T11:22:54Z</time>
      </trkpt>
      <trkpt lat="50.46576" lon="2.98823">
        <ele>-18</ele>
        <time>2018-06-24T11:22:58Z</time>
      </trkpt>
      <trkpt lat="50.46576" lon="2.98823">
        <ele>-18.2</ele>
        <time>2018-06-24T11:23:02Z</time>
      </trkpt>
      <trkpt lat="50.46576" lon="2.98823">
        <ele>-18</ele>
        <time>2018-06-24T11:23:06Z</time>
      </trkpt>
      <trkpt lat="50.46576" lon="2.98823">
        <ele>-18</ele>
        <time>2018-06-24T11:23:10Z</time>
      </trkpt>
      <trkpt lat="50.46576" lon="2.98823">
        <ele>-18.2</ele>
        <time>2018-06-24T11:23:14Z</time>
      </trkpt>
      <trkpt lat="50.46576" lon="2.98823">
        <ele>-18.4</ele>
        <time>2018-06-24T11:23:18Z</time>
      </trkpt>
      <trkpt lat="50.46576" lon="2.98823">
        <ele>-18.2</ele>
        <time>2018-06-24T11:23:22Z</time>
      </trkpt>
      <trkpt lat="50.46576" lon="2.98823">
        <ele>-17.8</ele>
        <time>2018-06-24T11:23:26Z</time>
      </trkpt>
      <trkpt lat="50.46576" lon="2.98823">
        <ele>-17.8</ele>
        <time>2018-06-24T11:23:30Z</time>
      </trkpt>
      <trkpt lat="50.46576" lon="2.98823">
        <ele>-17.6</ele>
        <time>2018-06-24T11:23:34Z</time>
      </trkpt>
      <trkpt lat="50.46576" lon="2.98823">
        <ele>-17.6</ele>
        <time>2018-06-24T11:23:38Z</time>
      </trkpt>
      <trkpt lat="50.46576" lon="2.98823">
        <ele>-17.4</ele>
        <time>2018-06-24T11:23:42Z</time>
      </trkpt>
      <trkpt lat="50.46576" lon="2.98823">
        <ele>-17.8</ele>
        <time>2018-06-24T11:23:46Z</time>
      </trkpt>
      <trkpt lat="50.46576" lon="2.98823">
        <ele>-17.8</ele>
        <time>2018-06-24T11:23:50Z</time>
      </trkpt>
      <trkpt lat="50.46576" lon="2.98823">
        <ele>-17.8</ele>
        <time>2018-06-24T11:23:54Z</time>
      </trkpt>
      <trkpt lat="50.46576" lon="2.98823">
        <ele>-18</ele>
        <time>2018-06-24T11:23:58Z</time>
      </trkpt>
      <trkpt lat="50.46576" lon="2.98823">
        <ele>-17.6</ele>
        <time>2018-06-24T11:24:02Z</time>
      </trkpt>
      <trkpt lat="50.46576" lon="2.98823">
        <ele>-18</ele>
        <time>2018-06-24T11:24:06Z</time>
      </trkpt>
      <trkpt lat="50.46576" lon="2.98823">
        <ele>-18.2</ele>
        <time>2018-06-24T11:24:10Z</time>
      </trkpt>
      <trkpt lat="50.46576" lon="2.98823">
        <ele>-18</ele>
        <time>2018-06-24T11:24:14Z</time>
      </trkpt>
      <trkpt lat="50.46576" lon="2.98823">
        <ele>-18</ele>
        <time>2018-06-24T11:24:18Z</time>
      </trkpt>
      <trkpt lat="50.46576" lon="2.98823">
        <ele>-17.8</ele>
        <time>2018-06-24T11:24:22Z</time>
      </trkpt>
      <trkpt lat="50.46576" lon="2.98823">
        <ele>-18</ele>
        <time>2018-06-24T11:24:26Z</time>
      </trkpt>
      <trkpt lat="50.46576" lon="2.98823">
        <ele>-17.6</ele>
        <time>2018-06-24T11:24:30Z</time>
      </trkpt>
      <trkpt lat="50.46576" lon="2.98823">
        <ele>-17.8</ele>
        <time>2018-06-24T11:24:34Z</time>
      </trkpt>
      <trkpt lat="50.46576" lon="2.98823">
        <ele>-17.6</ele>
        <time>2018-06-24T11:24:38Z</time>
      </trkpt>
      <trkpt lat="50.46576" lon="2.98823">
        <ele>-17.4</ele>
        <time>2018-06-24T11:24:42Z</time>
      </trkpt>
      <trkpt lat="50.46576" lon="2.98823">
        <ele>-17.6</ele>
        <time>2018-06-24T11:24:46Z</time>
      </trkpt>
      <trkpt lat="50.46576" lon="2.98823">
        <ele>-17.6</ele>
        <time>2018-06-24T11:24:50Z</time>
      </trkpt>
      <trkpt lat="50.46576" lon="2.98823">
        <ele>-17.6</ele>
        <time>2018-06-24T11:24:54Z</time>
      </trkpt>
      <trkpt lat="50.46576" lon="2.98823">
        <ele>-17.8</ele>
        <time>2018-06-24T11:24:58Z</time>
      </trkpt>
      <trkpt lat="50.46576" lon="2.98823">
        <ele>-17.6</ele>
        <time>2018-06-24T11:25:02Z</time>
      </trkpt>
      <trkpt lat="50.46576" lon="2.98823">
        <ele>-17.6</ele>
        <time>2018-06-24T11:25:06Z</time>
      </trkpt>
      <trkpt lat="50.46576" lon="2.98823">
        <ele>-17.6</ele>
        <time>2018-06-24T11:25:10Z</time>
      </trkpt>
      <trkpt lat="50.46576" lon="2.98823">
        <ele>-18</ele>
        <time>2018-06-24T11:25:14Z</time>
      </trkpt>
      <trkpt lat="50.46576" lon="2.98823">
        <ele>-18</ele>
        <time>2018-06-24T11:25:18Z</time>
      </trkpt>
      <trkpt lat="50.46576" lon="2.98823">
        <ele>-17.6</ele>
        <time>2018-06-24T11:25:22Z</time>
      </trkpt>
      <trkpt lat="50.46576" lon="2.98823">
        <ele>-17.6</ele>
        <time>2018-06-24T11:25:26Z</time>
      </trkpt>
      <trkpt lat="50.46576" lon="2.98823">
        <ele>-17.6</ele>
        <time>2018-06-24T11:25:30Z</time>
      </trkpt>
      <trkpt lat="50.46576" lon="2.98823">
        <ele>-17.6</ele>
        <time>2018-06-24T11:25:34Z</time>
      </trkpt>
      <trkpt lat="50.46576" lon="2.98823">
        <ele>-18</ele>
        <time>2018-06-24T11:25:38Z</time>
      </trkpt>
      <trkpt lat="50.46576" lon="2.98823">
        <ele>-17.6</ele>
        <time>2018-06-24T11:25:42Z</time>
      </trkpt>
      <trkpt lat="50.46576" lon="2.98823">
        <ele>-17.6</ele>
        <time>2018-06-24T11:25:46Z</time>
      </trkpt>
      <trkpt lat="50.46576" lon="2.98823">
        <ele>-17.8</ele>
        <time>2018-06-24T11:25:50Z</time>
      </trkpt>
      <trkpt lat="50.46576" lon="2.98823">
        <ele>-18</ele>
        <time>2018-06-24T11:25:54Z</time>
      </trkpt>
      <trkpt lat="50.46576" lon="2.98823">
        <ele>-17.8</ele>
        <time>2018-06-24T11:25:58Z</time>
      </trkpt>
      <trkpt lat="50.46576" lon="2.98823">
        <ele>-17.8</ele>
        <time>2018-06-24T11:26:02Z</time>
      </trkpt>
      <trkpt lat="50.46576" lon="2.98823">
        <ele>-18</ele>
        <time>2018-06-24T11:26:06Z</time>
      </trkpt>
      <trkpt lat="50.46576" lon="2.98823">
        <ele>-17.8</ele>
        <time>2018-06-24T11:26:10Z</time>
      </trkpt>
      <trkpt lat="50.46576" lon="2.98823">
        <ele>-17.8</ele>
        <time>2018-06-24T11:26:14Z</time>
      </trkpt>
      <trkpt lat="50.46576" lon="2.98823">
        <ele>-17.8</ele>
        <time>2018-06-24T11:26:18Z</time>
      </trkpt>
      <trkpt lat="50.46576" lon="2.98823">
        <ele>-17.8</ele>
        <time>2018-06-24T11:26:22Z</time>
      </trkpt>
      <trkpt lat="50.46576" lon="2.98823">
        <ele>-17.8</ele>
        <time>2018-06-24T11:26:26Z</time>
      </trkpt>
      <trkpt lat="50.46576" lon="2.98823">
        <ele>-17.8</ele>
        <time>2018-06-24T11:26:30Z</time>
      </trkpt>
      <trkpt lat="50.46576" lon="2.98823">
        <ele>-18</ele>
        <time>2018-06-24T11:26:34Z</time>
      </trkpt>
      <trkpt lat="50.46576" lon="2.98823">
        <ele>-17.6</ele>
        <time>2018-06-24T11:26:38Z</time>
      </trkpt>
      <trkpt lat="50.46576" lon="2.98823">
        <ele>-17.6</ele>
        <time>2018-06-24T11:26:42Z</time>
      </trkpt>
      <trkpt lat="50.46576" lon="2.98823">
        <ele>-17.8</ele>
        <time>2018-06-24T11:26:46Z</time>
      </trkpt>
      <trkpt lat="50.46576" lon="2.98823">
        <ele>-17.8</ele>
        <time>2018-06-24T11:26:50Z</time>
      </trkpt>
      <trkpt lat="50.46576" lon="2.98823">
        <ele>-17.8</ele>
        <time>2018-06-24T11:26:54Z</time>
      </trkpt>
      <trkpt lat="50.46576" lon="2.98823">
        <ele>-17.8</ele>
        <time>2018-06-24T11:26:58Z</time>
      </trkpt>
      <trkpt lat="50.46576" lon="2.98823">
        <ele>-17.8</ele>
        <time>2018-06-24T11:27:02Z</time>
      </trkpt>
      <trkpt lat="50.46576" lon="2.98823">
        <ele>-17.8</ele>
        <time>2018-06-24T11:27:06Z</time>
      </trkpt>
      <trkpt lat="50.46576" lon="2.98823">
        <ele>-17.8</ele>
        <time>2018-06-24T11:27:10Z</time>
      </trkpt>
      <trkpt lat="50.46576" lon="2.98823">
        <ele>-18</ele>
        <time>2018-06-24T11:27:14Z</time>
      </trkpt>
      <trkpt lat="50.46576" lon="2.98823">
        <ele>-18</ele>
        <time>2018-06-24T11:27:18Z</time>
      </trkpt>
      <trkpt lat="50.46576" lon="2.98823">
        <ele>-18</ele>
        <time>2018-06-24T11:27:22Z</time>
      </trkpt>
      <trkpt lat="50.46576" lon="2.98823">
        <ele>-18</ele>
        <time>2018-06-24T11:27:26Z</time>
      </trkpt>
      <trkpt lat="50.46576" lon="2.98823">
        <ele>-18</ele>
        <time>2018-06-24T11:27:30Z</time>
      </trkpt>
      <trkpt lat="50.46576" lon="2.98823">
        <ele>-17.8</ele>
        <time>2018-06-24T11:27:34Z</time>
      </trkpt>
      <trkpt lat="50.46576" lon="2.98823">
        <ele>-18</ele>
        <time>2018-06-24T11:27:38Z</time>
      </trkpt>
      <trkpt lat="50.46576" lon="2.98823">
        <ele>-18</ele>
        <time>2018-06-24T11:27:42Z</time>
      </trkpt>
      <trkpt lat="50.46576" lon="2.98823">
        <ele>-18</ele>
        <time>2018-06-24T11:27:46Z</time>
      </trkpt>
      <trkpt lat="50.46576" lon="2.98823">
        <ele>-18</ele>
        <time>2018-06-24T11:27:50Z</time>
      </trkpt>
      <trkpt lat="50.46576" lon="2.98823">
        <ele>-17.8</ele>
        <time>2018-06-24T11:27:54Z</time>
      </trkpt>
      <trkpt lat="50.46576" lon="2.98823">
        <ele>-17.8</ele>
        <time>2018-06-24T11:27:58Z</time>
      </trkpt>
      <trkpt lat="50.46576" lon="2.98823">
        <ele>-17.8</ele>
        <time>2018-06-24T11:28:02Z</time>
      </trkpt>
      <trkpt lat="50.46576" lon="2.98823">
        <ele>-17.8</ele>
        <time>2018-06-24T11:28:06Z</time>
      </trkpt>
      <trkpt lat="50.46576" lon="2.98823">
        <ele>-17.4</ele>
        <time>2018-06-24T11:28:10Z</time>
      </trkpt>
      <trkpt lat="50.46576" lon="2.98823">
        <ele>-17.4</ele>
        <time>2018-06-24T11:28:14Z</time>
      </trkpt>
      <trkpt lat="50.46576" lon="2.98823">
        <ele>-17.6</ele>
        <time>2018-06-24T11:28:18Z</time>
      </trkpt>
      <trkpt lat="50.46576" lon="2.98823">
        <ele>-17.2</ele>
        <time>2018-06-24T11:28:22Z</time>
      </trkpt>
      <trkpt lat="50.46576" lon="2.98823">
        <ele>-17.6</ele>
        <time>2018-06-24T11:28:26Z</time>
      </trkpt>
      <trkpt lat="50.46576" lon="2.98823">
        <ele>-17.6</ele>
        <time>2018-06-24T11:28:30Z</time>
      </trkpt>
      <trkpt lat="50.46576" lon="2.98823">
        <ele>-17.6</ele>
        <time>2018-06-24T11:28:34Z</time>
      </trkpt>
      <trkpt lat="50.46576" lon="2.98823">
        <ele>-17.6</ele>
        <time>2018-06-24T11:28:38Z</time>
      </trkpt>
      <trkpt lat="50.46576" lon="2.98823">
        <ele>-17.8</ele>
        <time>2018-06-24T11:28:42Z</time>
      </trkpt>
      <trkpt lat="50.46576" lon="2.98823">
        <ele>-17.8</ele>
        <time>2018-06-24T11:28:46Z</time>
      </trkpt>
      <trkpt lat="50.46576" lon="2.98823">
        <ele>-18</ele>
        <time>2018-06-24T11:28:50Z</time>
      </trkpt>
      <trkpt lat="50.46576" lon="2.98823">
        <ele>-17.8</ele>
        <time>2018-06-24T11:28:54Z</time>
      </trkpt>
      <trkpt lat="50.46576" lon="2.98823">
        <ele>-17.6</ele>
        <time>2018-06-24T11:28:58Z</time>
      </trkpt>
      <trkpt lat="50.46576" lon="2.98823">
        <ele>-17.6</ele>
        <time>2018-06-24T11:29:02Z</time>
      </trkpt>
      <trkpt lat="50.46576" lon="2.98823">
        <ele>-17.6</ele>
        <time>2018-06-24T11:29:06Z</time>
      </trkpt>
      <trkpt lat="50.46576" lon="2.98823">
        <ele>-17.2</ele>
        <time>2018-06-24T11:29:10Z</time>
      </trkpt>
      <trkpt lat="50.46576" lon="2.98823">
        <ele>-17.6</ele>
        <time>2018-06-24T11:29:14Z</time>
      </trkpt>
      <trkpt lat="50.46576" lon="2.98823">
        <ele>-17.8</ele>
        <time>2018-06-24T11:29:18Z</time>
      </trkpt>
      <trkpt lat="50.46576" lon="2.98823">
        <ele>-18</ele>
        <time>2018-06-24T11:29:22Z</time>
      </trkpt>
      <trkpt lat="50.46576" lon="2.98823">
        <ele>-17.8</ele>
        <time>2018-06-24T11:29:26Z</time>
      </trkpt>
      <trkpt lat="50.46576" lon="2.98823">
        <ele>-17.8</ele>
        <time>2018-06-24T11:29:30Z</time>
      </trkpt>
      <trkpt lat="50.46576" lon="2.98823">
        <ele>-17.8</ele>
        <time>2018-06-24T11:29:34Z</time>
      </trkpt>
      <trkpt lat="50.46576" lon="2.98823">
        <ele>-18</ele>
        <time>2018-06-24T11:29:38Z</time>
      </trkpt>
      <trkpt lat="50.46576" lon="2.98823">
        <ele>-18</ele>
        <time>2018-06-24T11:29:42Z</time>
      </trkpt>
      <trkpt lat="50.46576" lon="2.98823">
        <ele>-17.8</ele>
        <time>2018-06-24T11:29:46Z</time>
      </trkpt>
      <trkpt lat="50.46576" lon="2.98823">
        <ele>-17.8</ele>
        <time>2018-06-24T11:29:50Z</time>
      </trkpt>
      <trkpt lat="50.46576" lon="2.98823">
        <ele>-17.6</ele>
        <time>2018-06-24T11:29:54Z</time>
      </trkpt>
      <trkpt lat="50.46576" lon="2.98823">
        <ele>-17.6</ele>
        <time>2018-06-24T11:29:58Z</time>
      </trkpt>
      <trkpt lat="50.46576" lon="2.98823">
        <ele>-17.6</ele>
        <time>2018-06-24T11:30:02Z</time>
      </trkpt>
      <trkpt lat="50.46576" lon="2.98823">
        <ele>-17.6</ele>
        <time>2018-06-24T11:30:06Z</time>
      </trkpt>
      <trkpt lat="50.46576" lon="2.98823">
        <ele>-17.6</ele>
        <time>2018-06-24T11:30:10Z</time>
      </trkpt>
      <trkpt lat="50.46576" lon="2.98823">
        <ele>-17.4</ele>
        <time>2018-06-24T11:30:14Z</time>
      </trkpt>
      <trkpt lat="50.46576" lon="2.98823">
        <ele>-17.6</ele>
        <time>2018-06-24T11:30:18Z</time>
      </trkpt>
      <trkpt lat="50.46576" lon="2.98823">
        <ele>-17.6</ele>
        <time>2018-06-24T11:30:22Z</time>
      </trkpt>
      <trkpt lat="50.46576" lon="2.98823">
        <ele>-17.6</ele>
        <time>2018-06-24T11:30:26Z</time>
      </trkpt>
      <trkpt lat="50.46576" lon="2.98823">
        <ele>-17.6</ele>
        <time>2018-06-24T11:30:30Z</time>
      </trkpt>
      <trkpt lat="50.46576" lon="2.98823">
        <ele>-17.6</ele>
        <time>2018-06-24T11:30:34Z</time>
      </trkpt>
      <trkpt lat="50.46576" lon="2.98823">
        <ele>-17.6</ele>
        <time>2018-06-24T11:30:38Z</time>
      </trkpt>
      <trkpt lat="50.46576" lon="2.98823">
        <ele>-17.6</ele>
        <time>2018-06-24T11:30:42Z</time>
      </trkpt>
      <trkpt lat="50.46576" lon="2.98823">
        <ele>-17.6</ele>
        <time>2018-06-24T11:30:46Z</time>
      </trkpt>
      <trkpt lat="50.46576" lon="2.98823">
        <ele>-17.6</ele>
        <time>2018-06-24T11:30:50Z</time>
      </trkpt>
      <trkpt lat="50.46576" lon="2.98823">
        <ele>-17.8</ele>
        <time>2018-06-24T11:30:54Z</time>
      </trkpt>
      <trkpt lat="50.46576" lon="2.98823">
        <ele>-17.6</ele>
        <time>2018-06-24T11:30:58Z</time>
      </trkpt>
      <trkpt lat="50.46576" lon="2.98823">
        <ele>-17.6</ele>
        <time>2018-06-24T11:31:02Z</time>
      </trkpt>
      <trkpt lat="50.46576" lon="2.98823">
        <ele>-17.6</ele>
        <time>2018-06-24T11:31:06Z</time>
      </trkpt>
      <trkpt lat="50.46576" lon="2.98823">
        <ele>-17.6</ele>
        <time>2018-06-24T11:31:10Z</time>
      </trkpt>
      <trkpt lat="50.46576" lon="2.98823">
        <ele>-17.4</ele>
        <time>2018-06-24T11:31:14Z</time>
      </trkpt>
      <trkpt lat="50.46576" lon="2.98823">
        <ele>-17.6</ele>
        <time>2018-06-24T11:31:18Z</time>
      </trkpt>
      <trkpt lat="50.46576" lon="2.98823">
        <ele>-17.6</ele>
        <time>2018-06-24T11:31:22Z</time>
      </trkpt>
      <trkpt lat="50.46576" lon="2.98823">
        <ele>-17.6</ele>
        <time>2018-06-24T11:31:26Z</time>
      </trkpt>
      <trkpt lat="50.46576" lon="2.98823">
        <ele>-17.8</ele>
        <time>2018-06-24T11:31:30Z</time>
      </trkpt>
      <trkpt lat="50.46576" lon="2.98823">
        <ele>-17.6</ele>
        <time>2018-06-24T11:31:34Z</time>
      </trkpt>
      <trkpt lat="50.46576" lon="2.98823">
        <ele>-17.6</ele>
        <time>2018-06-24T11:31:38Z</time>
      </trkpt>
      <trkpt lat="50.46576" lon="2.98823">
        <ele>-17.4</ele>
        <time>2018-06-24T11:31:42Z</time>
      </trkpt>
      <trkpt lat="50.46576" lon="2.98823">
        <ele>-17.2</ele>
        <time>2018-06-24T11:31:46Z</time>
      </trkpt>
      <trkpt lat="50.46576" lon="2.98823">
        <ele>-17.4</ele>
        <time>2018-06-24T11:31:50Z</time>
      </trkpt>
      <trkpt lat="50.46576" lon="2.98823">
        <ele>-17.8</ele>
        <time>2018-06-24T11:31:54Z</time>
      </trkpt>
      <trkpt lat="50.46576" lon="2.98823">
        <ele>-17.8</ele>
        <time>2018-06-24T11:31:58Z</time>
      </trkpt>
      <trkpt lat="50.46576" lon="2.98823">
        <ele>-17.8</ele>
        <time>2018-06-24T11:32:02Z</time>
      </trkpt>
      <trkpt lat="50.46576" lon="2.98823">
        <ele>-17.6</ele>
        <time>2018-06-24T11:32:06Z</time>
      </trkpt>
      <trkpt lat="50.46576" lon="2.98823">
        <ele>-17.6</ele>
        <time>2018-06-24T11:32:10Z</time>
      </trkpt>
      <trkpt lat="50.46576" lon="2.98823">
        <ele>-17.4</ele>
        <time>2018-06-24T11:32:14Z</time>
      </trkpt>
      <trkpt lat="50.46576" lon="2.98823">
        <ele>-17.6</ele>
        <time>2018-06-24T11:32:18Z</time>
      </trkpt>
      <trkpt lat="50.46576" lon="2.98823">
        <ele>-17.6</ele>
        <time>2018-06-24T11:32:22Z</time>
      </trkpt>
      <trkpt lat="50.46576" lon="2.98823">
        <ele>-17.6</ele>
        <time>2018-06-24T11:32:26Z</time>
      </trkpt>
      <trkpt lat="50.46576" lon="2.98823">
        <ele>-17.6</ele>
        <time>2018-06-24T11:32:30Z</time>
      </trkpt>
      <trkpt lat="50.46576" lon="2.98823">
        <ele>-17.6</ele>
        <time>2018-06-24T11:32:34Z</time>
      </trkpt>
      <trkpt lat="50.46576" lon="2.98823">
        <ele>-17.8</ele>
        <time>2018-06-24T11:32:38Z</time>
      </trkpt>
      <trkpt lat="50.46576" lon="2.98823">
        <ele>-17.8</ele>
        <time>2018-06-24T11:32:42Z</time>
      </trkpt>
      <trkpt lat="50.46576" lon="2.98823">
        <ele>-17.2</ele>
        <time>2018-06-24T11:32:46Z</time>
      </trkpt>
      <trkpt lat="50.46576" lon="2.98823">
        <ele>-17.8</ele>
        <time>2018-06-24T11:32:50Z</time>
      </trkpt>
      <trkpt lat="50.46576" lon="2.98823">
        <ele>-17.8</ele>
        <time>2018-06-24T11:32:54Z</time>
      </trkpt>
      <trkpt lat="50.46576" lon="2.98823">
        <ele>-17.8</ele>
        <time>2018-06-24T11:32:58Z</time>
      </trkpt>
      <trkpt lat="50.46576" lon="2.98823">
        <ele>-18</ele>
        <time>2018-06-24T11:33:02Z</time>
      </trkpt>
      <trkpt lat="50.46576" lon="2.98823">
        <ele>-17.4</ele>
        <time>2018-06-24T11:33:06Z</time>
      </trkpt>
      <trkpt lat="50.46576" lon="2.98823">
        <ele>-17.6</ele>
        <time>2018-06-24T11:33:10Z</time>
      </trkpt>
      <trkpt lat="50.46576" lon="2.98823">
        <ele>-17.6</ele>
        <time>2018-06-24T11:33:14Z</time>
      </trkpt>
      <trkpt lat="50.46576" lon="2.98823">
        <ele>-17.6</ele>
        <time>2018-06-24T11:33:18Z</time>
      </trkpt>
      <trkpt lat="50.46576" lon="2.98823">
        <ele>-17.6</ele>
        <time>2018-06-24T11:33:22Z</time>
      </trkpt>
      <trkpt lat="50.46576" lon="2.98823">
        <ele>-17.4</ele>
        <time>2018-06-24T11:33:26Z</time>
      </trkpt>
      <trkpt lat="50.46576" lon="2.98823">
        <ele>-17.8</ele>
        <time>2018-06-24T11:33:30Z</time>
      </trkpt>
      <trkpt lat="50.46576" lon="2.98823">
        <ele>-17.6</ele>
        <time>2018-06-24T11:33:34Z</time>
      </trkpt>
      <trkpt lat="50.46576" lon="2.98823">
        <ele>-17.6</ele>
        <time>2018-06-24T11:33:38Z</time>
      </trkpt>
      <trkpt lat="50.46576" lon="2.98823">
        <ele>-17.8</ele>
        <time>2018-06-24T11:33:42Z</time>
      </trkpt>
      <trkpt lat="50.46576" lon="2.98823">
        <ele>-17.8</ele>
        <time>2018-06-24T11:33:46Z</time>
      </trkpt>
      <trkpt lat="50.46576" lon="2.98823">
        <ele>-17.6</ele>
        <time>2018-06-24T11:33:50Z</time>
      </trkpt>
      <trkpt lat="50.46576" lon="2.98823">
        <ele>-17.6</ele>
        <time>2018-06-24T11:33:54Z</time>
      </trkpt>
      <trkpt lat="50.46576" lon="2.98823">
        <ele>-17.6</ele>
        <time>2018-06-24T11:33:58Z</time>
      </trkpt>
      <trkpt lat="50.46576" lon="2.98823">
        <ele>-17.6</ele>
        <time>2018-06-24T11:34:02Z</time>
      </trkpt>
      <trkpt lat="50.46576" lon="2.98823">
        <ele>-17.6</ele>
        <time>2018-06-24T11:34:06Z</time>
      </trkpt>
      <trkpt lat="50.46576" lon="2.98823">
        <ele>-17.8</ele>
        <time>2018-06-24T11:34:10Z</time>
      </trkpt>
      <trkpt lat="50.46576" lon="2.98823">
        <ele>-17.6</ele>
        <time>2018-06-24T11:34:14Z</time>
      </trkpt>
      <trkpt lat="50.46576" lon="2.98823">
        <ele>-17.6</ele>
        <time>2018-06-24T11:34:18Z</time>
      </trkpt>
      <trkpt lat="50.46576" lon="2.98823">
        <ele>-17.6</ele>
        <time>2018-06-24T11:34:22Z</time>
      </trkpt>
      <trkpt lat="50.46576" lon="2.98823">
        <ele>-17.6</ele>
        <time>2018-06-24T11:34:26Z</time>
      </trkpt>
      <trkpt lat="50.46576" lon="2.98823">
        <ele>-17.8</ele>
        <time>2018-06-24T11:34:30Z</time>
      </trkpt>
      <trkpt lat="50.46576" lon="2.98823">
        <ele>-17.8</ele>
        <time>2018-06-24T11:34:34Z</time>
      </trkpt>
      <trkpt lat="50.46576" lon="2.98823">
        <ele>-18</ele>
        <time>2018-06-24T11:34:38Z</time>
      </trkpt>
      <trkpt lat="50.46576" lon="2.98823">
        <ele>-18</ele>
        <time>2018-06-24T11:34:42Z</time>
      </trkpt>
      <trkpt lat="50.46576" lon="2.98823">
        <ele>-18.4</ele>
        <time>2018-06-24T11:34:46Z</time>
      </trkpt>
      <trkpt lat="50.46576" lon="2.98823">
        <ele>-18.4</ele>
        <time>2018-06-24T11:34:50Z</time>
      </trkpt>
      <trkpt lat="50.46576" lon="2.98823">
        <ele>-18.2</ele>
        <time>2018-06-24T11:34:54Z</time>
      </trkpt>
      <trkpt lat="50.46576" lon="2.98823">
        <ele>-18</ele>
        <time>2018-06-24T11:34:58Z</time>
      </trkpt>
      <trkpt lat="50.46576" lon="2.98823">
        <ele>-18.2</ele>
        <time>2018-06-24T11:35:02Z</time>
      </trkpt>
      <trkpt lat="50.46576" lon="2.98823">
        <ele>-18.2</ele>
        <time>2018-06-24T11:35:06Z</time>
      </trkpt>
      <trkpt lat="50.46576" lon="2.98823">
        <ele>-18.6</ele>
        <time>2018-06-24T11:35:10Z</time>
      </trkpt>
      <trkpt lat="50.46576" lon="2.98823">
        <ele>-18.4</ele>
        <time>2018-06-24T11:35:14Z</time>
      </trkpt>
      <trkpt lat="50.46576" lon="2.98823">
        <ele>-18</ele>
        <time>2018-06-24T11:35:18Z</time>
      </trkpt>
      <trkpt lat="50.46576" lon="2.98823">
        <ele>-18.2</ele>
        <time>2018-06-24T11:35:22Z</time>
      </trkpt>
      <trkpt lat="50.46576" lon="2.98823">
        <ele>-18.2</ele>
        <time>2018-06-24T11:35:26Z</time>
      </trkpt>
      <trkpt lat="50.46576" lon="2.98823">
        <ele>-18.4</ele>
        <time>2018-06-24T11:35:30Z</time>
      </trkpt>
      <trkpt lat="50.46576" lon="2.98823">
        <ele>-18</ele>
        <time>2018-06-24T11:35:34Z</time>
      </trkpt>
      <trkpt lat="50.46576" lon="2.98823">
        <ele>-18.2</ele>
        <time>2018-06-24T11:35:38Z</time>
      </trkpt>
      <trkpt lat="50.46576" lon="2.98823">
        <ele>-18.4</ele>
        <time>2018-06-24T11:35:42Z</time>
      </trkpt>
      <trkpt lat="50.46576" lon="2.98823">
        <ele>-18.2</ele>
        <time>2018-06-24T11:35:46Z</time>
      </trkpt>
      <trkpt lat="50.46576" lon="2.98823">
        <ele>-18.4</ele>
        <time>2018-06-24T11:35:50Z</time>
      </trkpt>
      <trkpt lat="50.46576" lon="2.98823">
        <ele>-18</ele>
        <time>2018-06-24T11:35:54Z</time>
      </trkpt>
      <trkpt lat="50.46576" lon="2.98823">
        <ele>-17.8</ele>
        <time>2018-06-24T11:35:58Z</time>
      </trkpt>
      <trkpt lat="50.46576" lon="2.98823">
        <ele>-17.6</ele>
        <time>2018-06-24T11:36:02Z</time>
      </trkpt>
      <trkpt lat="50.46576" lon="2.98823">
        <ele>-17.8</ele>
        <time>2018-06-24T11:36:06Z</time>
      </trkpt>
      <trkpt lat="50.46576" lon="2.98823">
        <ele>-17.8</ele>
        <time>2018-06-24T11:36:10Z</time>
      </trkpt>
      <trkpt lat="50.46576" lon="2.98823">
        <ele>-17.8</ele>
        <time>2018-06-24T11:36:14Z</time>
      </trkpt>
      <trkpt lat="50.46576" lon="2.98823">
        <ele>-17.8</ele>
        <time>2018-06-24T11:36:18Z</time>
      </trkpt>
      <trkpt lat="50.46576" lon="2.98823">
        <ele>-17.8</ele>
        <time>2018-06-24T11:36:22Z</time>
      </trkpt>
      <trkpt lat="50.46576" lon="2.98823">
        <ele>-18.2</ele>
        <time>2018-06-24T11:36:26Z</time>
      </trkpt>
      <trkpt lat="50.46576" lon="2.98823">
        <ele>-18</ele>
        <time>2018-06-24T11:36:30Z</time>
      </trkpt>
      <trkpt lat="50.46576" lon="2.98823">
        <ele>-18.2</ele>
        <time>2018-06-24T11:36:34Z</time>
      </trkpt>
      <trkpt lat="50.46576" lon="2.98823">
        <ele>-18</ele>
        <time>2018-06-24T11:36:38Z</time>
      </trkpt>
      <trkpt lat="50.46576" lon="2.98823">
        <ele>-18.2</ele>
        <time>2018-06-24T11:36:42Z</time>
      </trkpt>
      <trkpt lat="50.46576" lon="2.98823">
        <ele>-18.2</ele>
        <time>2018-06-24T11:36:46Z</time>
      </trkpt>
      <trkpt lat="50.46576" lon="2.98823">
        <ele>-18</ele>
        <time>2018-06-24T11:36:50Z</time>
      </trkpt>
      <trkpt lat="50.46576" lon="2.98823">
        <ele>-18</ele>
        <time>2018-06-24T11:36:54Z</time>
      </trkpt>
      <trkpt lat="50.46576" lon="2.98823">
        <ele>-18</ele>
        <time>2018-06-24T11:36:58Z</time>
      </trkpt>
      <trkpt lat="50.46576" lon="2.98823">
        <ele>-18.4</ele>
        <time>2018-06-24T11:37:02Z</time>
      </trkpt>
      <trkpt lat="50.46576" lon="2.98823">
        <ele>-18.4</ele>
        <time>2018-06-24T11:37:06Z</time>
      </trkpt>
      <trkpt lat="50.46576" lon="2.98823">
        <ele>-18.2</ele>
        <time>2018-06-24T11:37:10Z</time>
      </trkpt>
      <trkpt lat="50.46576" lon="2.98823">
        <ele>-18</ele>
        <time>2018-06-24T11:37:14Z</time>
      </trkpt>
      <trkpt lat="50.46576" lon="2.98823">
        <ele>-18.2</ele>
        <time>2018-06-24T11:37:18Z</time>
      </trkpt>
      <trkpt lat="50.46576" lon="2.98823">
        <ele>-18.8</ele>
        <time>2018-06-24T11:37:22Z</time>
      </trkpt>
      <trkpt lat="50.46576" lon="2.98823">
        <ele>-18.2</ele>
        <time>2018-06-24T11:37:26Z</time>
      </trkpt>
      <trkpt lat="50.46576" lon="2.98823">
        <ele>-18.6</ele>
        <time>2018-06-24T11:37:30Z</time>
      </trkpt>
      <trkpt lat="50.46576" lon="2.98823">
        <ele>-18</ele>
        <time>2018-06-24T11:37:34Z</time>
      </trkpt>
      <trkpt lat="50.46576" lon="2.98823">
        <ele>-18.4</ele>
        <time>2018-06-24T11:37:38Z</time>
      </trkpt>
      <trkpt lat="50.46576" lon="2.98823">
        <ele>-18.2</ele>
        <time>2018-06-24T11:37:42Z</time>
      </trkpt>
      <trkpt lat="50.46576" lon="2.98823">
        <ele>-18</ele>
        <time>2018-06-24T11:37:46Z</time>
      </trkpt>
      <trkpt lat="50.46576" lon="2.98823">
        <ele>-18</ele>
        <time>2018-06-24T11:37:50Z</time>
      </trkpt>
      <trkpt lat="50.46576" lon="2.98823">
        <ele>-18.2</ele>
        <time>2018-06-24T11:37:54Z</time>
      </trkpt>
      <trkpt lat="50.46576" lon="2.98823">
        <ele>-18</ele>
        <time>2018-06-24T11:37:58Z</time>
      </trkpt>
      <trkpt lat="50.46576" lon="2.98823">
        <ele>-17.8</ele>
        <time>2018-06-24T11:38:02Z</time>
      </trkpt>
      <trkpt lat="50.46576" lon="2.98823">
        <ele>-17.8</ele>
        <time>2018-06-24T11:38:06Z</time>
      </trkpt>
      <trkpt lat="50.46576" lon="2.98823">
        <ele>-18</ele>
        <time>2018-06-24T11:38:10Z</time>
      </trkpt>
      <trkpt lat="50.46576" lon="2.98823">
        <ele>-17.8</ele>
        <time>2018-06-24T11:38:14Z</time>
      </trkpt>
      <trkpt lat="50.46576" lon="2.98823">
        <ele>-18</ele>
        <time>2018-06-24T11:38:18Z</time>
      </trkpt>
      <trkpt lat="50.46576" lon="2.98823">
        <ele>-18</ele>
        <time>2018-06-24T11:38:22Z</time>
      </trkpt>
      <trkpt lat="50.46576" lon="2.98823">
        <ele>-17.8</ele>
        <time>2018-06-24T11:38:26Z</time>
      </trkpt>
      <trkpt lat="50.46576" lon="2.98823">
        <ele>-18</ele>
        <time>2018-06-24T11:38:30Z</time>
      </trkpt>
      <trkpt lat="50.46576" lon="2.98823">
        <ele>-17.8</ele>
        <time>2018-06-24T11:38:34Z</time>
      </trkpt>
      <trkpt lat="50.46576" lon="2.98823">
        <ele>-17.6</ele>
        <time>2018-06-24T11:38:38Z</time>
      </trkpt>
      <trkpt lat="50.46576" lon="2.98823">
        <ele>-17.6</ele>
        <time>2018-06-24T11:38:42Z</time>
      </trkpt>
      <trkpt lat="50.46576" lon="2.98823">
        <ele>-17.8</ele>
        <time>2018-06-24T11:38:46Z</time>
      </trkpt>
      <trkpt lat="50.46576" lon="2.98823">
        <ele>-17.8</ele>
        <time>2018-06-24T11:38:50Z</time>
      </trkpt>
      <trkpt lat="50.46576" lon="2.98823">
        <ele>-17.8</ele>
        <time>2018-06-24T11:38:54Z</time>
      </trkpt>
      <trkpt lat="50.46576" lon="2.98823">
        <ele>-17.6</ele>
        <time>2018-06-24T11:38:58Z</time>
      </trkpt>
      <trkpt lat="50.46576" lon="2.98823">
        <ele>-17.8</ele>
        <time>2018-06-24T11:39:02Z</time>
      </trkpt>
      <trkpt lat="50.46576" lon="2.98823">
        <ele>-17.6</ele>
        <time>2018-06-24T11:39:06Z</time>
      </trkpt>
      <trkpt lat="50.46576" lon="2.98823">
        <ele>-17.6</ele>
        <time>2018-06-24T11:39:10Z</time>
      </trkpt>
      <trkpt lat="50.46576" lon="2.98823">
        <ele>-17.6</ele>
        <time>2018-06-24T11:39:14Z</time>
      </trkpt>
      <trkpt lat="50.46576" lon="2.98823">
        <ele>-17.6</ele>
        <time>2018-06-24T11:39:18Z</time>
      </trkpt>
      <trkpt lat="50.46576" lon="2.98823">
        <ele>-17.8</ele>
        <time>2018-06-24T11:39:22Z</time>
      </trkpt>
      <trkpt lat="50.46576" lon="2.98823">
        <ele>-17.8</ele>
        <time>2018-06-24T11:39:26Z</time>
      </trkpt>
      <trkpt lat="50.46576" lon="2.98823">
        <ele>-17.6</ele>
        <time>2018-06-24T11:39:30Z</time>
      </trkpt>
      <trkpt lat="50.46576" lon="2.98823">
        <ele>-17.8</ele>
        <time>2018-06-24T11:39:34Z</time>
      </trkpt>
      <trkpt lat="50.46576" lon="2.98823">
        <ele>-17.8</ele>
        <time>2018-06-24T11:39:38Z</time>
      </trkpt>
      <trkpt lat="50.46576" lon="2.98823">
        <ele>-17.8</ele>
        <time>2018-06-24T11:39:42Z</time>
      </trkpt>
      <trkpt lat="50.46576" lon="2.98823">
        <ele>-17.4</ele>
        <time>2018-06-24T11:39:46Z</time>
      </trkpt>
      <trkpt lat="50.46576" lon="2.98823">
        <ele>-17.4</ele>
        <time>2018-06-24T11:39:50Z</time>
      </trkpt>
      <trkpt lat="50.46576" lon="2.98823">
        <ele>-17.6</ele>
        <time>2018-06-24T11:39:54Z</time>
      </trkpt>
      <trkpt lat="50.46576" lon="2.98823">
        <ele>-17.6</ele>
        <time>2018-06-24T11:39:58Z</time>
      </trkpt>
      <trkpt lat="50.46576" lon="2.98823">
        <ele>-17.8</ele>
        <time>2018-06-24T11:40:02Z</time>
      </trkpt>
      <trkpt lat="50.46576" lon="2.98823">
        <ele>-17.6</ele>
        <time>2018-06-24T11:40:06Z</time>
      </trkpt>
      <trkpt lat="50.46576" lon="2.98823">
        <ele>-17.8</ele>
        <time>2018-06-24T11:40:10Z</time>
      </trkpt>
      <trkpt lat="50.46576" lon="2.98823">
        <ele>-17.4</ele>
        <time>2018-06-24T11:40:14Z</time>
      </trkpt>
      <trkpt lat="50.46576" lon="2.98823">
        <ele>-17.4</ele>
        <time>2018-06-24T11:40:18Z</time>
      </trkpt>
      <trkpt lat="50.46576" lon="2.98823">
        <ele>-17.4</ele>
        <time>2018-06-24T11:40:22Z</time>
      </trkpt>
      <trkpt lat="50.46576" lon="2.98823">
        <ele>-17.4</ele>
        <time>2018-06-24T11:40:26Z</time>
      </trkpt>
      <trkpt lat="50.46576" lon="2.98823">
        <ele>-17.6</ele>
        <time>2018-06-24T11:40:30Z</time>
      </trkpt>
      <trkpt lat="50.46576" lon="2.98823">
        <ele>-17.2</ele>
        <time>2018-06-24T11:40:34Z</time>
      </trkpt>
      <trkpt lat="50.46576" lon="2.98823">
        <ele>-17.8</ele>
        <time>2018-06-24T11:40:38Z</time>
      </trkpt>
      <trkpt lat="50.46576" lon="2.98823">
        <ele>-17.6</ele>
        <time>2018-06-24T11:40:42Z</time>
      </trkpt>
      <trkpt lat="50.46576" lon="2.98823">
        <ele>-17.6</ele>
        <time>2018-06-24T11:40:46Z</time>
      </trkpt>
      <trkpt lat="50.46576" lon="2.98823">
        <ele>-17.4</ele>
        <time>2018-06-24T11:40:50Z</time>
      </trkpt>
      <trkpt lat="50.46576" lon="2.98823">
        <ele>-17.6</ele>
        <time>2018-06-24T11:40:54Z</time>
      </trkpt>
      <trkpt lat="50.46576" lon="2.98823">
        <ele>-17.4</ele>
        <time>2018-06-24T11:40:58Z</time>
      </trkpt>
      <trkpt lat="50.46576" lon="2.98823">
        <ele>-17.6</ele>
        <time>2018-06-24T11:41:02Z</time>
      </trkpt>
      <trkpt lat="50.46576" lon="2.98823">
        <ele>-17.6</ele>
        <time>2018-06-24T11:41:06Z</time>
      </trkpt>
      <trkpt lat="50.46576" lon="2.98823">
        <ele>-17.6</ele>
        <time>2018-06-24T11:41:10Z</time>
      </trkpt>
      <trkpt lat="50.46576" lon="2.98823">
        <ele>-17.6</ele>
        <time>2018-06-24T11:41:14Z</time>
      </trkpt>
      <trkpt lat="50.46576" lon="2.98823">
        <ele>-17.6</ele>
        <time>2018-06-24T11:41:18Z</time>
      </trkpt>
      <trkpt lat="50.46576" lon="2.98823">
        <ele>-17.4</ele>
        <time>2018-06-24T11:41:22Z</time>
      </trkpt>
      <trkpt lat="50.46576" lon="2.98823">
        <ele>-17.6</ele>
        <time>2018-06-24T11:41:26Z</time>
      </trkpt>
      <trkpt lat="50.46576" lon="2.98823">
        <ele>-17.2</ele>
        <time>2018-06-24T11:41:30Z</time>
      </trkpt>
      <trkpt lat="50.46576" lon="2.98823">
        <ele>-17.4</ele>
        <time>2018-06-24T11:41:34Z</time>
      </trkpt>
      <trkpt lat="50.46576" lon="2.98823">
        <ele>-17.6</ele>
        <time>2018-06-24T11:41:38Z</time>
      </trkpt>
      <trkpt lat="50.46576" lon="2.98823">
        <ele>-17.6</ele>
        <time>2018-06-24T11:41:42Z</time>
      </trkpt>
      <trkpt lat="50.46576" lon="2.98823">
        <ele>-17.4</ele>
        <time>2018-06-24T11:41:46Z</time>
      </trkpt>
      <trkpt lat="50.46576" lon="2.98823">
        <ele>-17.4</ele>
        <time>2018-06-24T11:41:50Z</time>
      </trkpt>
      <trkpt lat="50.46576" lon="2.98823">
        <ele>-17.4</ele>
        <time>2018-06-24T11:41:54Z</time>
      </trkpt>
      <trkpt lat="50.46576" lon="2.98823">
        <ele>-17.2</ele>
        <time>2018-06-24T11:41:58Z</time>
      </trkpt>
      <trkpt lat="50.46576" lon="2.98823">
        <ele>-17.2</ele>
        <time>2018-06-24T11:42:02Z</time>
      </trkpt>
      <trkpt lat="50.46576" lon="2.98823">
        <ele>-17</ele>
        <time>2018-06-24T11:42:06Z</time>
      </trkpt>
      <trkpt lat="50.46576" lon="2.98823">
        <ele>-17</ele>
        <time>2018-06-24T11:42:10Z</time>
      </trkpt>
      <trkpt lat="50.46576" lon="2.98823">
        <ele>-17.2</ele>
        <time>2018-06-24T11:42:14Z</time>
      </trkpt>
      <trkpt lat="50.46576" lon="2.98823">
        <ele>-17.2</ele>
        <time>2018-06-24T11:42:18Z</time>
      </trkpt>
      <trkpt lat="50.46576" lon="2.98823">
        <ele>-17.2</ele>
        <time>2018-06-24T11:42:22Z</time>
      </trkpt>
      <trkpt lat="50.46576" lon="2.98823">
        <ele>-17</ele>
        <time>2018-06-24T11:42:26Z</time>
      </trkpt>
      <trkpt lat="50.46576" lon="2.98823">
        <ele>-17.2</ele>
        <time>2018-06-24T11:42:30Z</time>
      </trkpt>
      <trkpt lat="50.46576" lon="2.98823">
        <ele>-17.2</ele>
        <time>2018-06-24T11:42:34Z</time>
      </trkpt>
      <trkpt lat="50.46576" lon="2.98823">
        <ele>-17.2</ele>
        <time>2018-06-24T11:42:38Z</time>
      </trkpt>
      <trkpt lat="50.46576" lon="2.98823">
        <ele>-17</ele>
        <time>2018-06-24T11:42:42Z</time>
      </trkpt>
      <trkpt lat="50.46576" lon="2.98823">
        <ele>-17.2</ele>
        <time>2018-06-24T11:42:46Z</time>
      </trkpt>
      <trkpt lat="50.46576" lon="2.98823">
        <ele>-17.4</ele>
        <time>2018-06-24T11:42:50Z</time>
      </trkpt>
      <trkpt lat="50.46576" lon="2.98823">
        <ele>-17</ele>
        <time>2018-06-24T11:42:54Z</time>
      </trkpt>
      <trkpt lat="50.46576" lon="2.98823">
        <ele>-17.4</ele>
        <time>2018-06-24T11:42:58Z</time>
      </trkpt>
      <trkpt lat="50.46576" lon="2.98823">
        <ele>-17.6</ele>
        <time>2018-06-24T11:43:02Z</time>
      </trkpt>
      <trkpt lat="50.46576" lon="2.98823">
        <ele>-17.4</ele>
        <time>2018-06-24T11:43:06Z</time>
      </trkpt>
      <trkpt lat="50.46576" lon="2.98823">
        <ele>-17.6</ele>
        <time>2018-06-24T11:43:10Z</time>
      </trkpt>
      <trkpt lat="50.46576" lon="2.98823">
        <ele>-17.4</ele>
        <time>2018-06-24T11:43:14Z</time>
      </trkpt>
      <trkpt lat="50.46576" lon="2.98823">
        <ele>-17.2</ele>
        <time>2018-06-24T11:43:18Z</time>
      </trkpt>
      <trkpt lat="50.46576" lon="2.98823">
        <ele>-17.4</ele>
        <time>2018-06-24T11:43:22Z</time>
      </trkpt>
      <trkpt lat="50.46576" lon="2.98823">
        <ele>-17.2</ele>
        <time>2018-06-24T11:43:26Z</time>
      </trkpt>
      <trkpt lat="50.46576" lon="2.98823">
        <ele>-17.4</ele>
        <time>2018-06-24T11:43:30Z</time>
      </trkpt>
      <trkpt lat="50.46576" lon="2.98823">
        <ele>-17.2</ele>
        <time>2018-06-24T11:43:34Z</time>
      </trkpt>
      <trkpt lat="50.46576" lon="2.98823">
        <ele>-17.6</ele>
        <time>2018-06-24T11:43:38Z</time>
      </trkpt>
      <trkpt lat="50.46576" lon="2.98823">
        <ele>-17.6</ele>
        <time>2018-06-24T11:43:42Z</time>
      </trkpt>
      <trkpt lat="50.46576" lon="2.98823">
        <ele>-17.6</ele>
        <time>2018-06-24T11:43:46Z</time>
      </trkpt>
      <trkpt lat="50.46576" lon="2.98823">
        <ele>-17.2</ele>
        <time>2018-06-24T11:43:50Z</time>
      </trkpt>
      <trkpt lat="50.46576" lon="2.98823">
        <ele>-17.2</ele>
        <time>2018-06-24T11:43:54Z</time>
      </trkpt>
      <trkpt lat="50.46576" lon="2.98823">
        <ele>-17.6</ele>
        <time>2018-06-24T11:43:58Z</time>
      </trkpt>
      <trkpt lat="50.46576" lon="2.98823">
        <ele>-17.4</ele>
        <time>2018-06-24T11:44:02Z</time>
      </trkpt>
      <trkpt lat="50.46576" lon="2.98823">
        <ele>-17.4</ele>
        <time>2018-06-24T11:44:06Z</time>
      </trkpt>
      <trkpt lat="50.46576" lon="2.98823">
        <ele>-17.4</ele>
        <time>2018-06-24T11:44:10Z</time>
      </trkpt>
      <trkpt lat="50.46576" lon="2.98823">
        <ele>-17.4</ele>
        <time>2018-06-24T11:44:14Z</time>
      </trkpt>
      <trkpt lat="50.46576" lon="2.98823">
        <ele>-17.2</ele>
        <time>2018-06-24T11:44:18Z</time>
      </trkpt>
      <trkpt lat="50.46576" lon="2.98823">
        <ele>-17.2</ele>
        <time>2018-06-24T11:44:22Z</time>
      </trkpt>
      <trkpt lat="50.46576" lon="2.98823">
        <ele>-17.6</ele>
        <time>2018-06-24T11:44:26Z</time>
      </trkpt>
      <trkpt lat="50.46576" lon="2.98823">
        <ele>-17.4</ele>
        <time>2018-06-24T11:44:30Z</time>
      </trkpt>
      <trkpt lat="50.46576" lon="2.98823">
        <ele>-17.2</ele>
        <time>2018-06-24T11:44:34Z</time>
      </trkpt>
      <trkpt lat="50.46576" lon="2.98823">
        <ele>-17.4</ele>
        <time>2018-06-24T11:44:38Z</time>
      </trkpt>
      <trkpt lat="50.46576" lon="2.98823">
        <ele>-17.2</ele>
        <time>2018-06-24T11:44:42Z</time>
      </trkpt>
      <trkpt lat="50.46576" lon="2.98823">
        <ele>-17.4</ele>
        <time>2018-06-24T11:44:46Z</time>
      </trkpt>
      <trkpt lat="50.46576" lon="2.98823">
        <ele>-16.8</ele>
        <time>2018-06-24T11:44:50Z</time>
      </trkpt>
      <trkpt lat="50.46576" lon="2.98823">
        <ele>-17</ele>
        <time>2018-06-24T11:44:54Z</time>
      </trkpt>
      <trkpt lat="50.46576" lon="2.98823">
        <ele>-17</ele>
        <time>2018-06-24T11:44:58Z</time>
      </trkpt>
      <trkpt lat="50.46576" lon="2.98823">
        <ele>-17.2</ele>
        <time>2018-06-24T11:45:02Z</time>
      </trkpt>
      <trkpt lat="50.46576" lon="2.98823">
        <ele>-17</ele>
        <time>2018-06-24T11:45:06Z</time>
      </trkpt>
      <trkpt lat="50.46576" lon="2.98823">
        <ele>-17</ele>
        <time>2018-06-24T11:45:10Z</time>
      </trkpt>
      <trkpt lat="50.46576" lon="2.98823">
        <ele>-17.2</ele>
        <time>2018-06-24T11:45:14Z</time>
      </trkpt>
      <trkpt lat="50.46576" lon="2.98823">
        <ele>-17.2</ele>
        <time>2018-06-24T11:45:18Z</time>
      </trkpt>
      <trkpt lat="50.46576" lon="2.98823">
        <ele>-17</ele>
        <time>2018-06-24T11:45:22Z</time>
      </trkpt>
      <trkpt lat="50.46576" lon="2.98823">
        <ele>-17.2</ele>
        <time>2018-06-24T11:45:26Z</time>
      </trkpt>
      <trkpt lat="50.46576" lon="2.98823">
        <ele>-17</ele>
        <time>2018-06-24T11:45:30Z</time>
      </trkpt>
      <trkpt lat="50.46576" lon="2.98823">
        <ele>-17.2</ele>
        <time>2018-06-24T11:45:34Z</time>
      </trkpt>
      <trkpt lat="50.46576" lon="2.98823">
        <ele>-17.2</ele>
        <time>2018-06-24T11:45:38Z</time>
      </trkpt>
      <trkpt lat="50.46576" lon="2.98823">
        <ele>-17.2</ele>
        <time>2018-06-24T11:45:42Z</time>
      </trkpt>
      <trkpt lat="50.46576" lon="2.98823">
        <ele>-17</ele>
        <time>2018-06-24T11:45:46Z</time>
      </trkpt>
      <trkpt lat="50.46576" lon="2.98823">
        <ele>-17.2</ele>
        <time>2018-06-24T11:45:50Z</time>
      </trkpt>
      <trkpt lat="50.46576" lon="2.98823">
        <ele>-17.2</ele>
        <time>2018-06-24T11:45:54Z</time>
      </trkpt>
      <trkpt lat="50.46576" lon="2.98823">
        <ele>-17.6</ele>
        <time>2018-06-24T11:45:58Z</time>
      </trkpt>
      <trkpt lat="50.46576" lon="2.98823">
        <ele>-17.2</ele>
        <time>2018-06-24T11:46:02Z</time>
      </trkpt>
      <trkpt lat="50.46576" lon="2.98823">
        <ele>-17</ele>
        <time>2018-06-24T11:46:06Z</time>
      </trkpt>
      <trkpt lat="50.46576" lon="2.98823">
        <ele>-17</ele>
        <time>2018-06-24T11:46:10Z</time>
      </trkpt>
      <trkpt lat="50.46576" lon="2.98823">
        <ele>-17</ele>
        <time>2018-06-24T11:46:14Z</time>
      </trkpt>
      <trkpt lat="50.46576" lon="2.98823">
        <ele>-17.2</ele>
        <time>2018-06-24T11:46:18Z</time>
      </trkpt>
      <trkpt lat="50.46576" lon="2.98823">
        <ele>-17.2</ele>
        <time>2018-06-24T11:46:22Z</time>
      </trkpt>
      <trkpt lat="50.46576" lon="2.98823">
        <ele>-17.2</ele>
        <time>2018-06-24T11:46:26Z</time>
      </trkpt>
      <trkpt lat="50.46576" lon="2.98823">
        <ele>-17.2</ele>
        <time>2018-06-24T11:46:30Z</time>
      </trkpt>
      <trkpt lat="50.46576" lon="2.98823">
        <ele>-17.2</ele>
        <time>2018-06-24T11:46:34Z</time>
      </trkpt>
      <trkpt lat="50.46576" lon="2.98823">
        <ele>-17.2</ele>
        <time>2018-06-24T11:46:38Z</time>
      </trkpt>
      <trkpt lat="50.46576" lon="2.98823">
        <ele>-17.2</ele>
        <time>2018-06-24T11:46:42Z</time>
      </trkpt>
      <trkpt lat="50.46576" lon="2.98823">
        <ele>-17.2</ele>
        <time>2018-06-24T11:46:46Z</time>
      </trkpt>
      <trkpt lat="50.46576" lon="2.98823">
        <ele>-17.2</ele>
        <time>2018-06-24T11:46:50Z</time>
      </trkpt>
      <trkpt lat="50.46576" lon="2.98823">
        <ele>-17</ele>
        <time>2018-06-24T11:46:54Z</time>
      </trkpt>
      <trkpt lat="50.46576" lon="2.98823">
        <ele>-17.2</ele>
        <time>2018-06-24T11:46:58Z</time>
      </trkpt>
      <trkpt lat="50.46576" lon="2.98823">
        <ele>-17.2</ele>
        <time>2018-06-24T11:47:02Z</time>
      </trkpt>
      <trkpt lat="50.46576" lon="2.98823">
        <ele>-17.2</ele>
        <time>2018-06-24T11:47:06Z</time>
      </trkpt>
      <trkpt lat="50.46576" lon="2.98823">
        <ele>-17.2</ele>
        <time>2018-06-24T11:47:10Z</time>
      </trkpt>
      <trkpt lat="50.46576" lon="2.98823">
        <ele>-17.2</ele>
        <time>2018-06-24T11:47:14Z</time>
      </trkpt>
      <trkpt lat="50.46576" lon="2.98823">
        <ele>-17.2</ele>
        <time>2018-06-24T11:47:18Z</time>
      </trkpt>
      <trkpt lat="50.46576" lon="2.98823">
        <ele>-17</ele>
        <time>2018-06-24T11:47:22Z</time>
      </trkpt>
      <trkpt lat="50.46576" lon="2.98823">
        <ele>-17.2</ele>
        <time>2018-06-24T11:47:26Z</time>
      </trkpt>
      <trkpt lat="50.46576" lon="2.98823">
        <ele>-17</ele>
        <time>2018-06-24T11:47:30Z</time>
      </trkpt>
      <trkpt lat="50.46576" lon="2.98823">
        <ele>-16.8</ele>
        <time>2018-06-24T11:47:34Z</time>
      </trkpt>
      <trkpt lat="50.46576" lon="2.98823">
        <ele>-17.4</ele>
        <time>2018-06-24T11:47:38Z</time>
      </trkpt>
      <trkpt lat="50.46576" lon="2.98823">
        <ele>-17.2</ele>
        <time>2018-06-24T11:47:42Z</time>
      </trkpt>
      <trkpt lat="50.46576" lon="2.98823">
        <ele>-17.2</ele>
        <time>2018-06-24T11:47:46Z</time>
      </trkpt>
      <trkpt lat="50.46576" lon="2.98823">
        <ele>-17.2</ele>
        <time>2018-06-24T11:47:50Z</time>
      </trkpt>
      <trkpt lat="50.46576" lon="2.98823">
        <ele>-17.6</ele>
        <time>2018-06-24T11:47:54Z</time>
      </trkpt>
      <trkpt lat="50.46576" lon="2.98823">
        <ele>-17.2</ele>
        <time>2018-06-24T11:47:58Z</time>
      </trkpt>
      <trkpt lat="50.46576" lon="2.98823">
        <ele>-17</ele>
        <time>2018-06-24T11:48:02Z</time>
      </trkpt>
      <trkpt lat="50.46576" lon="2.98823">
        <ele>-17.2</ele>
        <time>2018-06-24T11:48:06Z</time>
      </trkpt>
      <trkpt lat="50.46576" lon="2.98823">
        <ele>-17.2</ele>
        <time>2018-06-24T11:48:10Z</time>
      </trkpt>
      <trkpt lat="50.46576" lon="2.98823">
        <ele>-17.2</ele>
        <time>2018-06-24T11:48:14Z</time>
      </trkpt>
      <trkpt lat="50.46576" lon="2.98823">
        <ele>-17.6</ele>
        <time>2018-06-24T11:48:18Z</time>
      </trkpt>
      <trkpt lat="50.46576" lon="2.98823">
        <ele>-17.2</ele>
        <time>2018-06-24T11:48:22Z</time>
      </trkpt>
      <trkpt lat="50.46576" lon="2.98823">
        <ele>-17.2</ele>
        <time>2018-06-24T11:48:26Z</time>
      </trkpt>
      <trkpt lat="50.46576" lon="2.98823">
        <ele>-17.4</ele>
        <time>2018-06-24T11:48:30Z</time>
      </trkpt>
      <trkpt lat="50.46576" lon="2.98823">
        <ele>-17.2</ele>
        <time>2018-06-24T11:48:34Z</time>
      </trkpt>
      <trkpt lat="50.46576" lon="2.98823">
        <ele>-17.4</ele>
        <time>2018-06-24T11:48:38Z</time>
      </trkpt>
      <trkpt lat="50.46576" lon="2.98823">
        <ele>-17.4</ele>
        <time>2018-06-24T11:48:42Z</time>
      </trkpt>
      <trkpt lat="50.46576" lon="2.98823">
        <ele>-17.6</ele>
        <time>2018-06-24T11:48:46Z</time>
      </trkpt>
      <trkpt lat="50.46576" lon="2.98823">
        <ele>-17.4</ele>
        <time>2018-06-24T11:48:50Z</time>
      </trkpt>
      <trkpt lat="50.46576" lon="2.98823">
        <ele>-17.2</ele>
        <time>2018-06-24T11:48:54Z</time>
      </trkpt>
      <trkpt lat="50.46576" lon="2.98823">
        <ele>-17</ele>
        <time>2018-06-24T11:48:58Z</time>
      </trkpt>
      <trkpt lat="50.46576" lon="2.98823">
        <ele>-17.4</ele>
        <time>2018-06-24T11:49:02Z</time>
      </trkpt>
      <trkpt lat="50.46576" lon="2.98823">
        <ele>-17.6</ele>
        <time>2018-06-24T11:49:06Z</time>
      </trkpt>
      <trkpt lat="50.46576" lon="2.98823">
        <ele>-17.4</ele>
        <time>2018-06-24T11:49:10Z</time>
      </trkpt>
      <trkpt lat="50.46576" lon="2.98823">
        <ele>-17.2</ele>
        <time>2018-06-24T11:49:14Z</time>
      </trkpt>
      <trkpt lat="50.46576" lon="2.98823">
        <ele>-17.4</ele>
        <time>2018-06-24T11:49:18Z</time>
      </trkpt>
      <trkpt lat="50.46576" lon="2.98823">
        <ele>-17.2</ele>
        <time>2018-06-24T11:49:22Z</time>
      </trkpt>
      <trkpt lat="50.46576" lon="2.98823">
        <ele>-17.2</ele>
        <time>2018-06-24T11:49:26Z</time>
      </trkpt>
      <trkpt lat="50.46576" lon="2.98823">
        <ele>-17.2</ele>
        <time>2018-06-24T11:49:30Z</time>
      </trkpt>
      <trkpt lat="50.46576" lon="2.98823">
        <ele>-17.2</ele>
        <time>2018-06-24T11:49:34Z</time>
      </trkpt>
      <trkpt lat="50.46576" lon="2.98823">
        <ele>-17.2</ele>
        <time>2018-06-24T11:49:38Z</time>
      </trkpt>
      <trkpt lat="50.46576" lon="2.98823">
        <ele>-17.2</ele>
        <time>2018-06-24T11:49:42Z</time>
      </trkpt>
      <trkpt lat="50.46576" lon="2.98823">
        <ele>-17.2</ele>
        <time>2018-06-24T11:49:46Z</time>
      </trkpt>
      <trkpt lat="50.46576" lon="2.98823">
        <ele>-17</ele>
        <time>2018-06-24T11:49:50Z</time>
      </trkpt>
      <trkpt lat="50.46576" lon="2.98823">
        <ele>-17.2</ele>
        <time>2018-06-24T11:49:54Z</time>
      </trkpt>
      <trkpt lat="50.46576" lon="2.98823">
        <ele>-17.4</ele>
        <time>2018-06-24T11:49:58Z</time>
      </trkpt>
      <trkpt lat="50.46576" lon="2.98823">
        <ele>-17</ele>
        <time>2018-06-24T11:50:02Z</time>
      </trkpt>
      <trkpt lat="50.46576" lon="2.98823">
        <ele>-17</ele>
        <time>2018-06-24T11:50:06Z</time>
      </trkpt>
      <trkpt lat="50.46576" lon="2.98823">
        <ele>-17</ele>
        <time>2018-06-24T11:50:10Z</time>
      </trkpt>
      <trkpt lat="50.46576" lon="2.98823">
        <ele>-17</ele>
        <time>2018-06-24T11:50:14Z</time>
      </trkpt>
      <trkpt lat="50.46576" lon="2.98823">
        <ele>-17.2</ele>
        <time>2018-06-24T11:50:18Z</time>
      </trkpt>
      <trkpt lat="50.46576" lon="2.98823">
        <ele>-17.2</ele>
        <time>2018-06-24T11:50:22Z</time>
      </trkpt>
      <trkpt lat="50.46576" lon="2.98823">
        <ele>-17.2</ele>
        <time>2018-06-24T11:50:26Z</time>
      </trkpt>
      <trkpt lat="50.46576" lon="2.98823">
        <ele>-17.4</ele>
        <time>2018-06-24T11:50:30Z</time>
      </trkpt>
      <trkpt lat="50.46576" lon="2.98823">
        <ele>-17.2</ele>
        <time>2018-06-24T11:50:34Z</time>
      </trkpt>
      <trkpt lat="50.46576" lon="2.98823">
        <ele>-17.2</ele>
        <time>2018-06-24T11:50:38Z</time>
      </trkpt>
      <trkpt lat="50.46576" lon="2.98823">
        <ele>-17.4</ele>
        <time>2018-06-24T11:50:42Z</time>
      </trkpt>
      <trkpt lat="50.46576" lon="2.98823">
        <ele>-17.6</ele>
        <time>2018-06-24T11:50:46Z</time>
      </trkpt>
      <trkpt lat="50.46576" lon="2.98823">
        <ele>-17.2</ele>
        <time>2018-06-24T11:50:50Z</time>
      </trkpt>
      <trkpt lat="50.46576" lon="2.98823">
        <ele>-17.4</ele>
        <time>2018-06-24T11:50:54Z</time>
      </trkpt>
      <trkpt lat="50.46576" lon="2.98823">
        <ele>-17.4</ele>
        <time>2018-06-24T11:50:58Z</time>
      </trkpt>
      <trkpt lat="50.46576" lon="2.98823">
        <ele>-17.6</ele>
        <time>2018-06-24T11:51:02Z</time>
      </trkpt>
      <trkpt lat="50.46576" lon="2.98823">
        <ele>-17.4</ele>
        <time>2018-06-24T11:51:06Z</time>
      </trkpt>
      <trkpt lat="50.46576" lon="2.98823">
        <ele>-17.4</ele>
        <time>2018-06-24T11:51:10Z</time>
      </trkpt>
      <trkpt lat="50.46576" lon="2.98823">
        <ele>-17.6</ele>
        <time>2018-06-24T11:51:14Z</time>
      </trkpt>
      <trkpt lat="50.46576" lon="2.98823">
        <ele>-17.2</ele>
        <time>2018-06-24T11:51:18Z</time>
      </trkpt>
      <trkpt lat="50.46576" lon="2.98823">
        <ele>-17.2</ele>
        <time>2018-06-24T11:51:22Z</time>
      </trkpt>
      <trkpt lat="50.46576" lon="2.98823">
        <ele>-17.2</ele>
        <time>2018-06-24T11:51:26Z</time>
      </trkpt>
      <trkpt lat="50.46576" lon="2.98823">
        <ele>-17.4</ele>
        <time>2018-06-24T11:51:30Z</time>
      </trkpt>
      <trkpt lat="50.46576" lon="2.98823">
        <ele>-17.2</ele>
        <time>2018-06-24T11:51:34Z</time>
      </trkpt>
      <trkpt lat="50.46576" lon="2.98823">
        <ele>-17.2</ele>
        <time>2018-06-24T11:51:38Z</time>
      </trkpt>
      <trkpt lat="50.46576" lon="2.98823">
        <ele>-17.4</ele>
        <time>2018-06-24T11:51:42Z</time>
      </trkpt>
      <trkpt lat="50.46576" lon="2.98823">
        <ele>-17.2</ele>
        <time>2018-06-24T11:51:46Z</time>
      </trkpt>
      <trkpt lat="50.46576" lon="2.98823">
        <ele>-17.2</ele>
        <time>2018-06-24T11:51:50Z</time>
      </trkpt>
      <trkpt lat="50.46576" lon="2.98823">
        <ele>-17.2</ele>
        <time>2018-06-24T11:51:54Z</time>
      </trkpt>
      <trkpt lat="50.46576" lon="2.98823">
        <ele>-17.2</ele>
        <time>2018-06-24T11:51:58Z</time>
      </trkpt>
      <trkpt lat="50.46576" lon="2.98823">
        <ele>-17.2</ele>
        <time>2018-06-24T11:52:02Z</time>
      </trkpt>
      <trkpt lat="50.46576" lon="2.98823">
        <ele>-17.2</ele>
        <time>2018-06-24T11:52:06Z</time>
      </trkpt>
      <trkpt lat="50.46576" lon="2.98823">
        <ele>-17.4</ele>
        <time>2018-06-24T11:52:10Z</time>
      </trkpt>
      <trkpt lat="50.46576" lon="2.98823">
        <ele>-17.4</ele>
        <time>2018-06-24T11:52:14Z</time>
      </trkpt>
      <trkpt lat="50.46576" lon="2.98823">
        <ele>-17.4</ele>
        <time>2018-06-24T11:52:18Z</time>
      </trkpt>
      <trkpt lat="50.46576" lon="2.98823">
        <ele>-17</ele>
        <time>2018-06-24T11:52:22Z</time>
      </trkpt>
      <trkpt lat="50.46576" lon="2.98823">
        <ele>-17</ele>
        <time>2018-06-24T11:52:26Z</time>
      </trkpt>
      <trkpt lat="50.46576" lon="2.98823">
        <ele>-17.4</ele>
        <time>2018-06-24T11:52:30Z</time>
      </trkpt>
      <trkpt lat="50.46576" lon="2.98823">
        <ele>-17.4</ele>
        <time>2018-06-24T11:52:34Z</time>
      </trkpt>
      <trkpt lat="50.46576" lon="2.98823">
        <ele>-17.4</ele>
        <time>2018-06-24T11:52:38Z</time>
      </trkpt>
      <trkpt lat="50.46576" lon="2.98823">
        <ele>-17.2</ele>
        <time>2018-06-24T11:52:42Z</time>
      </trkpt>
      <trkpt lat="50.46576" lon="2.98823">
        <ele>-17.2</ele>
        <time>2018-06-24T11:52:46Z</time>
      </trkpt>
      <trkpt lat="50.46576" lon="2.98823">
        <ele>-17.2</ele>
        <time>2018-06-24T11:52:50Z</time>
      </trkpt>
      <trkpt lat="50.46576" lon="2.98823">
        <ele>-17.2</ele>
        <time>2018-06-24T11:52:54Z</time>
      </trkpt>
      <trkpt lat="50.46576" lon="2.98823">
        <ele>-17.4</ele>
        <time>2018-06-24T11:52:58Z</time>
      </trkpt>
      <trkpt lat="50.46576" lon="2.98823">
        <ele>-17.4</ele>
        <time>2018-06-24T11:53:02Z</time>
      </trkpt>
      <trkpt lat="50.46576" lon="2.98823">
        <ele>-17.2</ele>
        <time>2018-06-24T11:53:06Z</time>
      </trkpt>
      <trkpt lat="50.46576" lon="2.98823">
        <ele>-17.6</ele>
        <time>2018-06-24T11:53:10Z</time>
      </trkpt>
      <trkpt lat="50.46576" lon="2.98823">
        <ele>-17.6</ele>
        <time>2018-06-24T11:53:14Z</time>
      </trkpt>
      <trkpt lat="50.46576" lon="2.98823">
        <ele>-17.2</ele>
        <time>2018-06-24T11:53:18Z</time>
      </trkpt>
      <trkpt lat="50.46576" lon="2.98823">
        <ele>-17.4</ele>
        <time>2018-06-24T11:53:22Z</time>
      </trkpt>
      <trkpt lat="50.46576" lon="2.98823">
        <ele>-17.4</ele>
        <time>2018-06-24T11:53:26Z</time>
      </trkpt>
      <trkpt lat="50.46576" lon="2.98823">
        <ele>-17.4</ele>
        <time>2018-06-24T11:53:30Z</time>
      </trkpt>
      <trkpt lat="50.46576" lon="2.98823">
        <ele>-17.4</ele>
        <time>2018-06-24T11:53:34Z</time>
      </trkpt>
      <trkpt lat="50.46576" lon="2.98823">
        <ele>-17.2</ele>
        <time>2018-06-24T11:53:38Z</time>
      </trkpt>
      <trkpt lat="50.46576" lon="2.98823">
        <ele>-17.4</ele>
        <time>2018-06-24T11:53:42Z</time>
      </trkpt>
      <trkpt lat="50.46576" lon="2.98823">
        <ele>-17.2</ele>
        <time>2018-06-24T11:53:46Z</time>
      </trkpt>
      <trkpt lat="50.46576" lon="2.98823">
        <ele>-17.2</ele>
        <time>2018-06-24T11:53:50Z</time>
      </trkpt>
      <trkpt lat="50.46576" lon="2.98823">
        <ele>-17.2</ele>
        <time>2018-06-24T11:53:54Z</time>
      </trkpt>
      <trkpt lat="50.46576" lon="2.98823">
        <ele>-17.2</ele>
        <time>2018-06-24T11:53:58Z</time>
      </trkpt>
      <trkpt lat="50.46576" lon="2.98823">
        <ele>-17.2</ele>
        <time>2018-06-24T11:54:02Z</time>
      </trkpt>
      <trkpt lat="50.46576" lon="2.98823">
        <ele>-17</ele>
        <time>2018-06-24T11:54:06Z</time>
      </trkpt>
      <trkpt lat="50.46576" lon="2.98823">
        <ele>-17</ele>
        <time>2018-06-24T11:54:10Z</time>
      </trkpt>
      <trkpt lat="50.46576" lon="2.98823">
        <ele>-17.2</ele>
        <time>2018-06-24T11:54:14Z</time>
      </trkpt>
      <trkpt lat="50.46576" lon="2.98823">
        <ele>-17</ele>
        <time>2018-06-24T11:54:18Z</time>
      </trkpt>
      <trkpt lat="50.46576" lon="2.98823">
        <ele>-17.2</ele>
        <time>2018-06-24T11:54:22Z</time>
      </trkpt>
      <trkpt lat="50.46576" lon="2.98823">
        <ele>-17.2</ele>
        <time>2018-06-24T11:54:26Z</time>
      </trkpt>
      <trkpt lat="50.46576" lon="2.98823">
        <ele>-17.2</ele>
        <time>2018-06-24T11:54:30Z</time>
      </trkpt>
      <trkpt lat="50.46576" lon="2.98823">
        <ele>-17.2</ele>
        <time>2018-06-24T11:54:34Z</time>
      </trkpt>
      <trkpt lat="50.46576" lon="2.98823">
        <ele>-17.2</ele>
        <time>2018-06-24T11:54:38Z</time>
      </trkpt>
      <trkpt lat="50.46576" lon="2.98823">
        <ele>-17</ele>
        <time>2018-06-24T11:54:42Z</time>
      </trkpt>
      <trkpt lat="50.46576" lon="2.98823">
        <ele>-16.8</ele>
        <time>2018-06-24T11:54:46Z</time>
      </trkpt>
      <trkpt lat="50.46576" lon="2.98823">
        <ele>-17</ele>
        <time>2018-06-24T11:54:50Z</time>
      </trkpt>
      <trkpt lat="50.46576" lon="2.98823">
        <ele>-17</ele>
        <time>2018-06-24T11:54:54Z</time>
      </trkpt>
      <trkpt lat="50.46576" lon="2.98823">
        <ele>-17</ele>
        <time>2018-06-24T11:54:58Z</time>
      </trkpt>
      <trkpt lat="50.46576" lon="2.98823">
        <ele>-16.6</ele>
        <time>2018-06-24T11:55:02Z</time>
      </trkpt>
      <trkpt lat="50.46576" lon="2.98823">
        <ele>-16.6</ele>
        <time>2018-06-24T11:55:06Z</time>
      </trkpt>
      <trkpt lat="50.46576" lon="2.98823">
        <ele>-16.4</ele>
        <time>2018-06-24T11:55:10Z</time>
      </trkpt>
      <trkpt lat="50.46576" lon="2.98823">
        <ele>-16.6</ele>
        <time>2018-06-24T11:55:14Z</time>
      </trkpt>
      <trkpt lat="50.46576" lon="2.98823">
        <ele>-16.6</ele>
        <time>2018-06-24T11:55:18Z</time>
      </trkpt>
      <trkpt lat="50.46576" lon="2.98823">
        <ele>-16.6</ele>
        <time>2018-06-24T11:55:22Z</time>
      </trkpt>
      <trkpt lat="50.46576" lon="2.98823">
        <ele>-16.6</ele>
        <time>2018-06-24T11:55:26Z</time>
      </trkpt>
      <trkpt lat="50.46576" lon="2.98823">
        <ele>-16.6</ele>
        <time>2018-06-24T11:55:30Z</time>
      </trkpt>
      <trkpt lat="50.46576" lon="2.98823">
        <ele>-16.4</ele>
        <time>2018-06-24T11:55:34Z</time>
      </trkpt>
      <trkpt lat="50.46576" lon="2.98823">
        <ele>-16.6</ele>
        <time>2018-06-24T11:55:38Z</time>
      </trkpt>
      <trkpt lat="50.46576" lon="2.98823">
        <ele>-16.6</ele>
        <time>2018-06-24T11:55:42Z</time>
      </trkpt>
      <trkpt lat="50.46576" lon="2.98823">
        <ele>-16.6</ele>
        <time>2018-06-24T11:55:46Z</time>
      </trkpt>
      <trkpt lat="50.46576" lon="2.98823">
        <ele>-16.8</ele>
        <time>2018-06-24T11:55:50Z</time>
      </trkpt>
      <trkpt lat="50.46576" lon="2.98823">
        <ele>-16.8</ele>
        <time>2018-06-24T11:55:54Z</time>
      </trkpt>
      <trkpt lat="50.46576" lon="2.98823">
        <ele>-16.6</ele>
        <time>2018-06-24T11:55:58Z</time>
      </trkpt>
      <trkpt lat="50.46576" lon="2.98823">
        <ele>-16.6</ele>
        <time>2018-06-24T11:56:02Z</time>
      </trkpt>
      <trkpt lat="50.46576" lon="2.98823">
        <ele>-17</ele>
        <time>2018-06-24T11:56:06Z</time>
      </trkpt>
      <trkpt lat="50.46576" lon="2.98823">
        <ele>-16.6</ele>
        <time>2018-06-24T11:56:10Z</time>
      </trkpt>
      <trkpt lat="50.46576" lon="2.98823">
        <ele>-16.6</ele>
        <time>2018-06-24T11:56:14Z</time>
      </trkpt>
      <trkpt lat="50.46576" lon="2.98823">
        <ele>-16.8</ele>
        <time>2018-06-24T11:56:18Z</time>
      </trkpt>
      <trkpt lat="50.46576" lon="2.98823">
        <ele>-16.8</ele>
        <time>2018-06-24T11:56:22Z</time>
      </trkpt>
      <trkpt lat="50.46576" lon="2.98823">
        <ele>-16.8</ele>
        <time>2018-06-24T11:56:26Z</time>
      </trkpt>
      <trkpt lat="50.46576" lon="2.98823">
        <ele>-16.8</ele>
        <time>2018-06-24T11:56:30Z</time>
      </trkpt>
      <trkpt lat="50.46576" lon="2.98823">
        <ele>-17</ele>
        <time>2018-06-24T11:56:34Z</time>
      </trkpt>
      <trkpt lat="50.46576" lon="2.98823">
        <ele>-17</ele>
        <time>2018-06-24T11:56:38Z</time>
      </trkpt>
      <trkpt lat="50.46576" lon="2.98823">
        <ele>-16.8</ele>
        <time>2018-06-24T11:56:42Z</time>
      </trkpt>
      <trkpt lat="50.46576" lon="2.98823">
        <ele>-16.8</ele>
        <time>2018-06-24T11:56:46Z</time>
      </trkpt>
      <trkpt lat="50.46576" lon="2.98823">
        <ele>-16.8</ele>
        <time>2018-06-24T11:56:50Z</time>
      </trkpt>
      <trkpt lat="50.46576" lon="2.98823">
        <ele>-16.6</ele>
        <time>2018-06-24T11:56:54Z</time>
      </trkpt>
      <trkpt lat="50.46576" lon="2.98823">
        <ele>-16.6</ele>
        <time>2018-06-24T11:56:58Z</time>
      </trkpt>
      <trkpt lat="50.46576" lon="2.98823">
        <ele>-16.6</ele>
        <time>2018-06-24T11:57:02Z</time>
      </trkpt>
      <trkpt lat="50.46576" lon="2.98823">
        <ele>-16.8</ele>
        <time>2018-06-24T11:57:06Z</time>
      </trkpt>
      <trkpt lat="50.46576" lon="2.98823">
        <ele>-17.2</ele>
        <time>2018-06-24T11:57:10Z</time>
      </trkpt>
      <trkpt lat="50.46576" lon="2.98823">
        <ele>-16.8</ele>
        <time>2018-06-24T11:57:14Z</time>
      </trkpt>
      <trkpt lat="50.46576" lon="2.98823">
        <ele>-17</ele>
        <time>2018-06-24T11:57:18Z</time>
      </trkpt>
      <trkpt lat="50.46576" lon="2.98823">
        <ele>-17</ele>
        <time>2018-06-24T11:57:22Z</time>
      </trkpt>
      <trkpt lat="50.46576" lon="2.98823">
        <ele>-17</ele>
        <time>2018-06-24T11:57:26Z</time>
      </trkpt>
      <trkpt lat="50.46576" lon="2.98823">
        <ele>-17</ele>
        <time>2018-06-24T11:57:30Z</time>
      </trkpt>
      <trkpt lat="50.46576" lon="2.98823">
        <ele>-16.8</ele>
        <time>2018-06-24T11:57:34Z</time>
      </trkpt>
      <trkpt lat="50.46576" lon="2.98823">
        <ele>-16.8</ele>
        <time>2018-06-24T11:57:38Z</time>
      </trkpt>
      <trkpt lat="50.46576" lon="2.98823">
        <ele>-17</ele>
        <time>2018-06-24T11:57:42Z</time>
      </trkpt>
      <trkpt lat="50.46576" lon="2.98823">
        <ele>-17</ele>
        <time>2018-06-24T11:57:46Z</time>
      </trkpt>
      <trkpt lat="50.46576" lon="2.98823">
        <ele>-17.2</ele>
        <time>2018-06-24T11:57:50Z</time>
      </trkpt>
      <trkpt lat="50.46576" lon="2.98823">
        <ele>-16.6</ele>
        <time>2018-06-24T11:57:54Z</time>
      </trkpt>
      <trkpt lat="50.46576" lon="2.98823">
        <ele>-16.8</ele>
        <time>2018-06-24T11:57:58Z</time>
      </trkpt>
      <trkpt lat="50.46576" lon="2.98823">
        <ele>-16.6</ele>
        <time>2018-06-24T11:58:02Z</time>
      </trkpt>
      <trkpt lat="50.46576" lon="2.98823">
        <ele>-17</ele>
        <time>2018-06-24T11:58:06Z</time>
      </trkpt>
      <trkpt lat="50.46576" lon="2.98823">
        <ele>-16.8</ele>
        <time>2018-06-24T11:58:10Z</time>
      </trkpt>
      <trkpt lat="50.46576" lon="2.98823">
        <ele>-17.2</ele>
        <time>2018-06-24T11:58:14Z</time>
      </trkpt>
      <trkpt lat="50.46576" lon="2.98823">
        <ele>-17</ele>
        <time>2018-06-24T11:58:18Z</time>
      </trkpt>
      <trkpt lat="50.46576" lon="2.98823">
        <ele>-17</ele>
        <time>2018-06-24T11:58:22Z</time>
      </trkpt>
      <trkpt lat="50.46576" lon="2.98823">
        <ele>-17</ele>
        <time>2018-06-24T11:58:26Z</time>
      </trkpt>
      <trkpt lat="50.46576" lon="2.98823">
        <ele>-17</ele>
        <time>2018-06-24T11:58:30Z</time>
      </trkpt>
      <trkpt lat="50.46576" lon="2.98823">
        <ele>-17.2</ele>
        <time>2018-06-24T11:58:34Z</time>
      </trkpt>
      <trkpt lat="50.46576" lon="2.98823">
        <ele>-16.8</ele>
        <time>2018-06-24T11:58:38Z</time>
      </trkpt>
      <trkpt lat="50.46576" lon="2.98823">
        <ele>-16.6</ele>
        <time>2018-06-24T11:58:42Z</time>
      </trkpt>
      <trkpt lat="50.46576" lon="2.98823">
        <ele>-17.2</ele>
        <time>2018-06-24T11:58:46Z</time>
      </trkpt>
      <trkpt lat="50.46576" lon="2.98823">
        <ele>-17.2</ele>
        <time>2018-06-24T11:58:50Z</time>
      </trkpt>
      <trkpt lat="50.46576" lon="2.98823">
        <ele>-17.2</ele>
        <time>2018-06-24T11:58:54Z</time>
      </trkpt>
      <trkpt lat="50.46576" lon="2.98823">
        <ele>-17</ele>
        <time>2018-06-24T11:58:58Z</time>
      </trkpt>
      <trkpt lat="50.46576" lon="2.98823">
        <ele>-17</ele>
        <time>2018-06-24T11:59:02Z</time>
      </trkpt>
      <trkpt lat="50.46576" lon="2.98823">
        <ele>-16.6</ele>
        <time>2018-06-24T11:59:06Z</time>
      </trkpt>
      <trkpt lat="50.46576" lon="2.98823">
        <ele>-17</ele>
        <time>2018-06-24T11:59:10Z</time>
      </trkpt>
      <trkpt lat="50.46576" lon="2.98823">
        <ele>-16.8</ele>
        <time>2018-06-24T11:59:14Z</time>
      </trkpt>
      <trkpt lat="50.46576" lon="2.98823">
        <ele>-16.6</ele>
        <time>2018-06-24T11:59:18Z</time>
      </trkpt>
      <trkpt lat="50.46576" lon="2.98823">
        <ele>-16.8</ele>
        <time>2018-06-24T11:59:22Z</time>
      </trkpt>
      <trkpt lat="50.46576" lon="2.98823">
        <ele>-17</ele>
        <time>2018-06-24T11:59:26Z</time>
      </trkpt>
      <trkpt lat="50.46576" lon="2.98823">
        <ele>-16.8</ele>
        <time>2018-06-24T11:59:30Z</time>
      </trkpt>
      <trkpt lat="50.46576" lon="2.98823">
        <ele>-16.6</ele>
        <time>2018-06-24T11:59:34Z</time>
      </trkpt>
      <trkpt lat="50.46576" lon="2.98823">
        <ele>-16.6</ele>
        <time>2018-06-24T11:59:38Z</time>
      </trkpt>
      <trkpt lat="50.46576" lon="2.98823">
        <ele>-16.6</ele>
        <time>2018-06-24T11:59:42Z</time>
      </trkpt>
      <trkpt lat="50.46576" lon="2.98823">
        <ele>-16.6</ele>
        <time>2018-06-24T11:59:46Z</time>
      </trkpt>
      <trkpt lat="50.46576" lon="2.98823">
        <ele>-16.8</ele>
        <time>2018-06-24T11:59:50Z</time>
      </trkpt>
      <trkpt lat="50.46576" lon="2.98823">
        <ele>-16.8</ele>
        <time>2018-06-24T11:59:54Z</time>
      </trkpt>
      <trkpt lat="50.46576" lon="2.98823">
        <ele>-16.8</ele>
        <time>2018-06-24T11:59:58Z</time>
      </trkpt>
      <trkpt lat="50.46576" lon="2.98823">
        <ele>-17</ele>
        <time>2018-06-24T12:00:02Z</time>
      </trkpt>
      <trkpt lat="50.46576" lon="2.98823">
        <ele>-16.4</ele>
        <time>2018-06-24T12:00:06Z</time>
      </trkpt>
      <trkpt lat="50.46576" lon="2.98823">
        <ele>-16.8</ele>
        <time>2018-06-24T12:00:10Z</time>
      </trkpt>
      <trkpt lat="50.46576" lon="2.98823">
        <ele>-16.6</ele>
        <time>2018-06-24T12:00:14Z</time>
      </trkpt>
      <trkpt lat="50.46576" lon="2.98823">
        <ele>-16.4</ele>
        <time>2018-06-24T12:00:18Z</time>
      </trkpt>
      <trkpt lat="50.46576" lon="2.98823">
        <ele>-16.4</ele>
        <time>2018-06-24T12:00:22Z</time>
      </trkpt>
      <trkpt lat="50.46576" lon="2.98823">
        <ele>-16.6</ele>
        <time>2018-06-24T12:00:26Z</time>
      </trkpt>
      <trkpt lat="50.46576" lon="2.98823">
        <ele>-17</ele>
        <time>2018-06-24T12:00:30Z</time>
      </trkpt>
      <trkpt lat="50.46576" lon="2.98823">
        <ele>-16.6</ele>
        <time>2018-06-24T12:00:34Z</time>
      </trkpt>
      <trkpt lat="50.46576" lon="2.98823">
        <ele>-16.8</ele>
        <time>2018-06-24T12:00:38Z</time>
      </trkpt>
      <trkpt lat="50.46576" lon="2.98823">
        <ele>-16.6</ele>
        <time>2018-06-24T12:00:42Z</time>
      </trkpt>
      <trkpt lat="50.46576" lon="2.98823">
        <ele>-16.2</ele>
        <time>2018-06-24T12:00:46Z</time>
      </trkpt>
      <trkpt lat="50.46576" lon="2.98823">
        <ele>-16.6</ele>
        <time>2018-06-24T12:00:50Z</time>
      </trkpt>
      <trkpt lat="50.46576" lon="2.98823">
        <ele>-16.4</ele>
        <time>2018-06-24T12:00:54Z</time>
      </trkpt>
      <trkpt lat="50.46576" lon="2.98823">
        <ele>-16.6</ele>
        <time>2018-06-24T12:00:58Z</time>
      </trkpt>
      <trkpt lat="50.46576" lon="2.98823">
        <ele>-16.6</ele>
        <time>2018-06-24T12:01:02Z</time>
      </trkpt>
      <trkpt lat="50.46576" lon="2.98823">
        <ele>-16.4</ele>
        <time>2018-06-24T12:01:06Z</time>
      </trkpt>
      <trkpt lat="50.46576" lon="2.98823">
        <ele>-16.4</ele>
        <time>2018-06-24T12:01:10Z</time>
      </trkpt>
      <trkpt lat="50.46576" lon="2.98823">
        <ele>-16.2</ele>
        <time>2018-06-24T12:01:14Z</time>
      </trkpt>
      <trkpt lat="50.46576" lon="2.98823">
        <ele>-16.4</ele>
        <time>2018-06-24T12:01:18Z</time>
      </trkpt>
      <trkpt lat="50.46576" lon="2.98823">
        <ele>-16.6</ele>
        <time>2018-06-24T12:01:22Z</time>
      </trkpt>
      <trkpt lat="50.46576" lon="2.98823">
        <ele>-16.6</ele>
        <time>2018-06-24T12:01:26Z</time>
      </trkpt>
      <trkpt lat="50.46576" lon="2.98823">
        <ele>-16.2</ele>
        <time>2018-06-24T12:01:30Z</time>
      </trkpt>
      <trkpt lat="50.46576" lon="2.98823">
        <ele>-16.8</ele>
        <time>2018-06-24T12:01:34Z</time>
      </trkpt>
      <trkpt lat="50.46576" lon="2.98823">
        <ele>-16.8</ele>
        <time>2018-06-24T12:01:38Z</time>
      </trkpt>
      <trkpt lat="50.46576" lon="2.98823">
        <ele>-16.6</ele>
        <time>2018-06-24T12:01:42Z</time>
      </trkpt>
      <trkpt lat="50.46576" lon="2.98823">
        <ele>-16.6</ele>
        <time>2018-06-24T12:01:46Z</time>
      </trkpt>
      <trkpt lat="50.46576" lon="2.98823">
        <ele>-16.8</ele>
        <time>2018-06-24T12:01:50Z</time>
      </trkpt>
      <trkpt lat="50.46576" lon="2.98823">
        <ele>-16.6</ele>
        <time>2018-06-24T12:01:54Z</time>
      </trkpt>
      <trkpt lat="50.46576" lon="2.98823">
        <ele>-17</ele>
        <time>2018-06-24T12:01:58Z</time>
      </trkpt>
      <trkpt lat="50.46576" lon="2.98823">
        <ele>-16.8</ele>
        <time>2018-06-24T12:02:02Z</time>
      </trkpt>
      <trkpt lat="50.46576" lon="2.98823">
        <ele>-16.6</ele>
        <time>2018-06-24T12:02:06Z</time>
      </trkpt>
      <trkpt lat="50.46576" lon="2.98823">
        <ele>-16.6</ele>
        <time>2018-06-24T12:02:10Z</time>
      </trkpt>
      <trkpt lat="50.46576" lon="2.98823">
        <ele>-16.4</ele>
        <time>2018-06-24T12:02:14Z</time>
      </trkpt>
      <trkpt lat="50.46576" lon="2.98823">
        <ele>-16.2</ele>
        <time>2018-06-24T12:02:18Z</time>
      </trkpt>
      <trkpt lat="50.46576" lon="2.98823">
        <ele>-16.2</ele>
        <time>2018-06-24T12:02:22Z</time>
      </trkpt>
      <trkpt lat="50.46576" lon="2.98823">
        <ele>-16.4</ele>
        <time>2018-06-24T12:02:26Z</time>
      </trkpt>
      <trkpt lat="50.46576" lon="2.98823">
        <ele>-16.2</ele>
        <time>2018-06-24T12:02:30Z</time>
      </trkpt>
      <trkpt lat="50.46576" lon="2.98823">
        <ele>-16.4</ele>
        <time>2018-06-24T12:02:34Z</time>
      </trkpt>
      <trkpt lat="50.46576" lon="2.98823">
        <ele>-16.6</ele>
        <time>2018-06-24T12:02:38Z</time>
      </trkpt>
      <trkpt lat="50.46576" lon="2.98823">
        <ele>-16.6</ele>
        <time>2018-06-24T12:02:42Z</time>
      </trkpt>
      <trkpt lat="50.46576" lon="2.98823">
        <ele>-16.4</ele>
        <time>2018-06-24T12:02:46Z</time>
      </trkpt>
      <trkpt lat="50.46576" lon="2.98823">
        <ele>-17.2</ele>
        <time>2018-06-24T12:02:50Z</time>
      </trkpt>
      <trkpt lat="50.46576" lon="2.98823">
        <ele>-17</ele>
        <time>2018-06-24T12:02:54Z</time>
      </trkpt>
      <trkpt lat="50.46576" lon="2.98823">
        <ele>-16.2</ele>
        <time>2018-06-24T12:02:58Z</time>
      </trkpt>
      <trkpt lat="50.46576" lon="2.98823">
        <ele>-16.8</ele>
        <time>2018-06-24T12:03:02Z</time>
      </trkpt>
      <trkpt lat="50.46576" lon="2.98823">
        <ele>-16.8</ele>
        <time>2018-06-24T12:03:06Z</time>
      </trkpt>
      <trkpt lat="50.46576" lon="2.98823">
        <ele>-16.8</ele>
        <time>2018-06-24T12:03:10Z</time>
      </trkpt>
      <trkpt lat="50.46576" lon="2.98823">
        <ele>-16.6</ele>
        <time>2018-06-24T12:03:14Z</time>
      </trkpt>
      <trkpt lat="50.46576" lon="2.98823">
        <ele>-16.6</ele>
        <time>2018-06-24T12:03:18Z</time>
      </trkpt>
      <trkpt lat="50.46576" lon="2.98823">
        <ele>-16.8</ele>
        <time>2018-06-24T12:03:22Z</time>
      </trkpt>
      <trkpt lat="50.46576" lon="2.98823">
        <ele>-16.8</ele>
        <time>2018-06-24T12:03:26Z</time>
      </trkpt>
      <trkpt lat="50.46576" lon="2.98823">
        <ele>-16.6</ele>
        <time>2018-06-24T12:03:30Z</time>
      </trkpt>
      <trkpt lat="50.46576" lon="2.98823">
        <ele>-16.6</ele>
        <time>2018-06-24T12:03:34Z</time>
      </trkpt>
      <trkpt lat="50.46576" lon="2.98823">
        <ele>-16.6</ele>
        <time>2018-06-24T12:03:38Z</time>
      </trkpt>
      <trkpt lat="50.46576" lon="2.98823">
        <ele>-17.2</ele>
        <time>2018-06-24T12:03:42Z</time>
      </trkpt>
      <trkpt lat="50.46576" lon="2.98823">
        <ele>-16.8</ele>
        <time>2018-06-24T12:03:46Z</time>
      </trkpt>
      <trkpt lat="50.46576" lon="2.98823">
        <ele>-16.8</ele>
        <time>2018-06-24T12:03:50Z</time>
      </trkpt>
      <trkpt lat="50.46576" lon="2.98823">
        <ele>-16.8</ele>
        <time>2018-06-24T12:03:54Z</time>
      </trkpt>
      <trkpt lat="50.46576" lon="2.98823">
        <ele>-16.8</ele>
        <time>2018-06-24T12:03:58Z</time>
      </trkpt>
      <trkpt lat="50.46576" lon="2.98823">
        <ele>-16.6</ele>
        <time>2018-06-24T12:04:02Z</time>
      </trkpt>
      <trkpt lat="50.46576" lon="2.98823">
        <ele>-17</ele>
        <time>2018-06-24T12:04:06Z</time>
      </trkpt>
      <trkpt lat="50.46576" lon="2.98823">
        <ele>-16.8</ele>
        <time>2018-06-24T12:04:10Z</time>
      </trkpt>
      <trkpt lat="50.46576" lon="2.98823">
        <ele>-17</ele>
        <time>2018-06-24T12:04:14Z</time>
      </trkpt>
      <trkpt lat="50.46576" lon="2.98823">
        <ele>-16.6</ele>
        <time>2018-06-24T12:04:18Z</time>
      </trkpt>
      <trkpt lat="50.46576" lon="2.98823">
        <ele>-16.4</ele>
        <time>2018-06-24T12:04:22Z</time>
      </trkpt>
      <trkpt lat="50.46575" lon="2.98814">
        <ele>-16.2</ele>
        <time>2018-06-24T12:04:26Z</time>
      </trkpt>
      <trkpt lat="50.46577" lon="2.98816">
        <ele>-16.2</ele>
        <time>2018-06-24T12:04:30Z</time>
      </trkpt>
      <trkpt lat="50.46578" lon="2.98816">
        <ele>-16.6</ele>
        <time>2018-06-24T12:04:34Z</time>
      </trkpt>
      <trkpt lat="50.4658" lon="2.98818">
        <ele>-16.4</ele>
        <time>2018-06-24T12:04:38Z</time>
      </trkpt>
      <trkpt lat="50.46582" lon="2.9882">
        <ele>-16.2</ele>
        <time>2018-06-24T12:04:42Z</time>
      </trkpt>
      <trkpt lat="50.46584" lon="2.98823">
        <ele>-16</ele>
        <time>2018-06-24T12:04:46Z</time>
      </trkpt>
      <trkpt lat="50.46588" lon="2.98825">
        <ele>-16.6</ele>
        <time>2018-06-24T12:04:50Z</time>
      </trkpt>
      <trkpt lat="50.46591" lon="2.98828">
        <ele>-16.2</ele>
        <time>2018-06-24T12:04:54Z</time>
      </trkpt>
      <trkpt lat="50.46594" lon="2.98831">
        <ele>-16.8</ele>
        <time>2018-06-24T12:04:58Z</time>
      </trkpt>
      <trkpt lat="50.46596" lon="2.98832">
        <ele>-16.6</ele>
        <time>2018-06-24T12:05:02Z</time>
      </trkpt>
      <trkpt lat="50.46599" lon="2.98834">
        <ele>-16.4</ele>
        <time>2018-06-24T12:05:06Z</time>
      </trkpt>
      <trkpt lat="50.46602" lon="2.98836">
        <ele>-16.6</ele>
        <time>2018-06-24T12:05:10Z</time>
      </trkpt>
      <trkpt lat="50.46604" lon="2.98838">
        <ele>-16.4</ele>
        <time>2018-06-24T12:05:14Z</time>
      </trkpt>
      <trkpt lat="50.46609" lon="2.9884">
        <ele>-16.2</ele>
        <time>2018-06-24T12:05:18Z</time>
      </trkpt>
      <trkpt lat="50.46613" lon="2.9884">
        <ele>-16.8</ele>
        <time>2018-06-24T12:05:22Z</time>
      </trkpt>
      <trkpt lat="50.46617" lon="2.98842">
        <ele>-16.4</ele>
        <time>2018-06-24T12:05:26Z</time>
      </trkpt>
      <trkpt lat="50.46621" lon="2.98842">
        <ele>-16.4</ele>
        <time>2018-06-24T12:05:30Z</time>
      </trkpt>
      <trkpt lat="50.46625" lon="2.98843">
        <ele>-16.2</ele>
        <time>2018-06-24T12:05:34Z</time>
      </trkpt>
      <trkpt lat="50.46629" lon="2.98843">
        <ele>-16.6</ele>
        <time>2018-06-24T12:05:38Z</time>
      </trkpt>
      <trkpt lat="50.46634" lon="2.98844">
        <ele>-16.6</ele>
        <time>2018-06-24T12:05:42Z</time>
      </trkpt>
      <trkpt lat="50.46639" lon="2.98848">
        <ele>-16.8</ele>
        <time>2018-06-24T12:05:46Z</time>
      </trkpt>
      <trkpt lat="50.46644" lon="2.98854">
        <ele>-16.2</ele>
        <time>2018-06-24T12:05:50Z</time>
      </trkpt>
      <trkpt lat="50.46649" lon="2.98863">
        <ele>-16.4</ele>
        <time>2018-06-24T12:05:54Z</time>
      </trkpt>
      <trkpt lat="50.46653" lon="2.98867">
        <ele>-16.2</ele>
        <time>2018-06-24T12:05:58Z</time>
      </trkpt>
      <trkpt lat="50.46656" lon="2.98871">
        <ele>-16.4</ele>
        <time>2018-06-24T12:06:02Z</time>
      </trkpt>
      <trkpt lat="50.4666" lon="2.98874">
        <ele>-16.2</ele>
        <time>2018-06-24T12:06:06Z</time>
      </trkpt>
      <trkpt lat="50.46661" lon="2.98875">
        <ele>-16.4</ele>
        <time>2018-06-24T12:06:10Z</time>
      </trkpt>
      <trkpt lat="50.46663" lon="2.98881">
        <ele>-16</ele>
        <time>2018-06-24T12:06:14Z</time>
      </trkpt>
      <trkpt lat="50.46665" lon="2.98888">
        <ele>-15.8</ele>
        <time>2018-06-24T12:06:18Z</time>
      </trkpt>
      <trkpt lat="50.46668" lon="2.98895">
        <ele>-15.8</ele>
        <time>2018-06-24T12:06:22Z</time>
      </trkpt>
      <trkpt lat="50.46669" lon="2.98902">
        <ele>-15.2</ele>
        <time>2018-06-24T12:06:26Z</time>
      </trkpt>
      <trkpt lat="50.4667" lon="2.98908">
        <ele>-14.8</ele>
        <time>2018-06-24T12:06:30Z</time>
      </trkpt>
      <trkpt lat="50.4667" lon="2.98908">
        <ele>-15.2</ele>
        <time>2018-06-24T12:06:34Z</time>
      </trkpt>
      <trkpt lat="50.46666" lon="2.98908">
        <ele>-15.4</ele>
        <time>2018-06-24T12:06:38Z</time>
      </trkpt>
      <trkpt lat="50.46664" lon="2.98907">
        <ele>-15.6</ele>
        <time>2018-06-24T12:06:42Z</time>
      </trkpt>
      <trkpt lat="50.46665" lon="2.98911">
        <ele>-15.4</ele>
        <time>2018-06-24T12:06:46Z</time>
      </trkpt>
      <trkpt lat="50.46667" lon="2.98915">
        <ele>-15.6</ele>
        <time>2018-06-24T12:06:50Z</time>
      </trkpt>
      <trkpt lat="50.46669" lon="2.98919">
        <ele>-15.6</ele>
        <time>2018-06-24T12:06:54Z</time>
      </trkpt>
      <trkpt lat="50.4667" lon="2.98926">
        <ele>-15.6</ele>
        <time>2018-06-24T12:06:58Z</time>
      </trkpt>
      <trkpt lat="50.46671" lon="2.98932">
        <ele>-15</ele>
        <time>2018-06-24T12:07:02Z</time>
      </trkpt>
      <trkpt lat="50.46671" lon="2.9894">
        <ele>-15.4</ele>
        <time>2018-06-24T12:07:06Z</time>
      </trkpt>
      <trkpt lat="50.46672" lon="2.98946">
        <ele>-15</ele>
        <time>2018-06-24T12:07:10Z</time>
      </trkpt>
      <trkpt lat="50.46674" lon="2.98952">
        <ele>-14.8</ele>
        <time>2018-06-24T12:07:14Z</time>
      </trkpt>
      <trkpt lat="50.46677" lon="2.98955">
        <ele>-15.2</ele>
        <time>2018-06-24T12:07:18Z</time>
      </trkpt>
      <trkpt lat="50.46681" lon="2.98958">
        <ele>-15</ele>
        <time>2018-06-24T12:07:22Z</time>
      </trkpt>
      <trkpt lat="50.46685" lon="2.9896">
        <ele>-15</ele>
        <time>2018-06-24T12:07:26Z</time>
      </trkpt>
      <trkpt lat="50.46689" lon="2.9896">
        <ele>-14.8</ele>
        <time>2018-06-24T12:07:30Z</time>
      </trkpt>
      <trkpt lat="50.46693" lon="2.9896">
        <ele>-15.2</ele>
        <time>2018-06-24T12:07:34Z</time>
      </trkpt>
      <trkpt lat="50.46697" lon="2.98959">
        <ele>-15.2</ele>
        <time>2018-06-24T12:07:38Z</time>
      </trkpt>
      <trkpt lat="50.46702" lon="2.98958">
        <ele>-15</ele>
        <time>2018-06-24T12:07:42Z</time>
      </trkpt>
      <trkpt lat="50.46707" lon="2.98958">
        <ele>-14.8</ele>
        <time>2018-06-24T12:07:46Z</time>
      </trkpt>
      <trkpt lat="50.46711" lon="2.9896">
        <ele>-14.8</ele>
        <time>2018-06-24T12:07:50Z</time>
      </trkpt>
      <trkpt lat="50.46715" lon="2.9896">
        <ele>-14.8</ele>
        <time>2018-06-24T12:07:54Z</time>
      </trkpt>
      <trkpt lat="50.46719" lon="2.9896">
        <ele>-15.2</ele>
        <time>2018-06-24T12:07:58Z</time>
      </trkpt>
      <trkpt lat="50.46723" lon="2.98958">
        <ele>-14.6</ele>
        <time>2018-06-24T12:08:02Z</time>
      </trkpt>
      <trkpt lat="50.46726" lon="2.98955">
        <ele>-14.2</ele>
        <time>2018-06-24T12:08:06Z</time>
      </trkpt>
      <trkpt lat="50.4673" lon="2.98952">
        <ele>-14.6</ele>
        <time>2018-06-24T12:08:10Z</time>
      </trkpt>
      <trkpt lat="50.46733" lon="2.98948">
        <ele>-14.2</ele>
        <time>2018-06-24T12:08:14Z</time>
      </trkpt>
      <trkpt lat="50.46737" lon="2.98944">
        <ele>-14.4</ele>
        <time>2018-06-24T12:08:18Z</time>
      </trkpt>
      <trkpt lat="50.46742" lon="2.9894">
        <ele>-14.6</ele>
        <time>2018-06-24T12:08:22Z</time>
      </trkpt>
      <trkpt lat="50.46745" lon="2.98936">
        <ele>-14.6</ele>
        <time>2018-06-24T12:08:26Z</time>
      </trkpt>
      <trkpt lat="50.46749" lon="2.98932">
        <ele>-14.6</ele>
        <time>2018-06-24T12:08:30Z</time>
      </trkpt>
      <trkpt lat="50.46753" lon="2.98929">
        <ele>-14.8</ele>
        <time>2018-06-24T12:08:34Z</time>
      </trkpt>
      <trkpt lat="50.46754" lon="2.98924">
        <ele>-14.8</ele>
        <time>2018-06-24T12:08:38Z</time>
      </trkpt>
      <trkpt lat="50.46754" lon="2.98924">
        <ele>-14.8</ele>
        <time>2018-06-24T12:08:42Z</time>
      </trkpt>
      <trkpt lat="50.46754" lon="2.98924">
        <ele>-14.6</ele>
        <time>2018-06-24T12:08:46Z</time>
      </trkpt>
      <trkpt lat="50.46754" lon="2.98924">
        <ele>-14.4</ele>
        <time>2018-06-24T12:08:50Z</time>
      </trkpt>
      <trkpt lat="50.46754" lon="2.98924">
        <ele>-14.2</ele>
        <time>2018-06-24T12:08:54Z</time>
      </trkpt>
      <trkpt lat="50.46754" lon="2.98924">
        <ele>-14.4</ele>
        <time>2018-06-24T12:08:58Z</time>
      </trkpt>
      <trkpt lat="50.46754" lon="2.98924">
        <ele>-14.8</ele>
        <time>2018-06-24T12:09:02Z</time>
      </trkpt>
      <trkpt lat="50.46754" lon="2.98924">
        <ele>-14.6</ele>
        <time>2018-06-24T12:09:06Z</time>
      </trkpt>
      <trkpt lat="50.46754" lon="2.98924">
        <ele>-14.6</ele>
        <time>2018-06-24T12:09:10Z</time>
      </trkpt>
      <trkpt lat="50.46754" lon="2.98924">
        <ele>-14.6</ele>
        <time>2018-06-24T12:09:14Z</time>
      </trkpt>
      <trkpt lat="50.46754" lon="2.98924">
        <ele>-14.6</ele>
        <time>2018-06-24T12:09:18Z</time>
      </trkpt>
      <trkpt lat="50.46754" lon="2.98924">
        <ele>-14.6</ele>
        <time>2018-06-24T12:09:22Z</time>
      </trkpt>
      <trkpt lat="50.46754" lon="2.98924">
        <ele>-14.4</ele>
        <time>2018-06-24T12:09:26Z</time>
      </trkpt>
      <trkpt lat="50.46754" lon="2.98924">
        <ele>-14.2</ele>
        <time>2018-06-24T12:09:30Z</time>
      </trkpt>
      <trkpt lat="50.46754" lon="2.98924">
        <ele>-14.4</ele>
        <time>2018-06-24T12:09:34Z</time>
      </trkpt>
      <trkpt lat="50.46754" lon="2.98924">
        <ele>-14</ele>
        <time>2018-06-24T12:09:38Z</time>
      </trkpt>
      <trkpt lat="50.46754" lon="2.98924">
        <ele>-14.2</ele>
        <time>2018-06-24T12:09:42Z</time>
      </trkpt>
      <trkpt lat="50.46754" lon="2.98924">
        <ele>-14.4</ele>
        <time>2018-06-24T12:09:46Z</time>
      </trkpt>
      <trkpt lat="50.46754" lon="2.98924">
        <ele>-14</ele>
        <time>2018-06-24T12:09:50Z</time>
      </trkpt>
      <trkpt lat="50.46754" lon="2.98924">
        <ele>-14.4</ele>
        <time>2018-06-24T12:09:54Z</time>
      </trkpt>
      <trkpt lat="50.46754" lon="2.98924">
        <ele>-14.4</ele>
        <time>2018-06-24T12:09:58Z</time>
      </trkpt>
      <trkpt lat="50.46754" lon="2.98924">
        <ele>-14</ele>
        <time>2018-06-24T12:10:02Z</time>
      </trkpt>
      <trkpt lat="50.46754" lon="2.98924">
        <ele>-14.2</ele>
        <time>2018-06-24T12:10:06Z</time>
      </trkpt>
      <trkpt lat="50.46754" lon="2.98924">
        <ele>-14.4</ele>
        <time>2018-06-24T12:10:10Z</time>
      </trkpt>
      <trkpt lat="50.46754" lon="2.98924">
        <ele>-14</ele>
        <time>2018-06-24T12:10:14Z</time>
      </trkpt>
      <trkpt lat="50.46754" lon="2.98924">
        <ele>-14.2</ele>
        <time>2018-06-24T12:10:18Z</time>
      </trkpt>
      <trkpt lat="50.46754" lon="2.98924">
        <ele>-14.4</ele>
        <time>2018-06-24T12:10:22Z</time>
      </trkpt>
      <trkpt lat="50.46754" lon="2.98924">
        <ele>-14.2</ele>
        <time>2018-06-24T12:10:26Z</time>
      </trkpt>
      <trkpt lat="50.46754" lon="2.98924">
        <ele>-14.6</ele>
        <time>2018-06-24T12:10:30Z</time>
      </trkpt>
      <trkpt lat="50.46754" lon="2.98924">
        <ele>-14</ele>
        <time>2018-06-24T12:10:34Z</time>
      </trkpt>
      <trkpt lat="50.46754" lon="2.98924">
        <ele>-14</ele>
        <time>2018-06-24T12:10:38Z</time>
      </trkpt>
      <trkpt lat="50.46754" lon="2.98924">
        <ele>-14</ele>
        <time>2018-06-24T12:10:42Z</time>
      </trkpt>
      <trkpt lat="50.46754" lon="2.98924">
        <ele>-14.2</ele>
        <time>2018-06-24T12:10:46Z</time>
      </trkpt>
      <trkpt lat="50.46754" lon="2.98924">
        <ele>-14.2</ele>
        <time>2018-06-24T12:10:50Z</time>
      </trkpt>
      <trkpt lat="50.46754" lon="2.98924">
        <ele>-14</ele>
        <time>2018-06-24T12:10:54Z</time>
      </trkpt>
      <trkpt lat="50.46754" lon="2.98924">
        <ele>-14</ele>
        <time>2018-06-24T12:10:58Z</time>
      </trkpt>
      <trkpt lat="50.46754" lon="2.98924">
        <ele>-14.2</ele>
        <time>2018-06-24T12:11:02Z</time>
      </trkpt>
      <trkpt lat="50.46754" lon="2.98924">
        <ele>-14.2</ele>
        <time>2018-06-24T12:11:06Z</time>
      </trkpt>
      <trkpt lat="50.46754" lon="2.98924">
        <ele>-14.2</ele>
        <time>2018-06-24T12:11:10Z</time>
      </trkpt>
      <trkpt lat="50.46754" lon="2.98924">
        <ele>-14.2</ele>
        <time>2018-06-24T12:11:14Z</time>
      </trkpt>
      <trkpt lat="50.46754" lon="2.98924">
        <ele>-14.4</ele>
        <time>2018-06-24T12:11:18Z</time>
      </trkpt>
      <trkpt lat="50.46754" lon="2.98924">
        <ele>-14.2</ele>
        <time>2018-06-24T12:11:22Z</time>
      </trkpt>
      <trkpt lat="50.46754" lon="2.98924">
        <ele>-14.2</ele>
        <time>2018-06-24T12:11:26Z</time>
      </trkpt>
      <trkpt lat="50.46754" lon="2.98924">
        <ele>-14.4</ele>
        <time>2018-06-24T12:11:30Z</time>
      </trkpt>
      <trkpt lat="50.46754" lon="2.98924">
        <ele>-13.8</ele>
        <time>2018-06-24T12:11:34Z</time>
      </trkpt>
      <trkpt lat="50.46754" lon="2.98924">
        <ele>-14</ele>
        <time>2018-06-24T12:11:38Z</time>
      </trkpt>
      <trkpt lat="50.46754" lon="2.98924">
        <ele>-14.2</ele>
        <time>2018-06-24T12:11:42Z</time>
      </trkpt>
      <trkpt lat="50.46754" lon="2.98924">
        <ele>-14</ele>
        <time>2018-06-24T12:11:46Z</time>
      </trkpt>
      <trkpt lat="50.46754" lon="2.98924">
        <ele>-14</ele>
        <time>2018-06-24T12:11:50Z</time>
      </trkpt>
      <trkpt lat="50.46754" lon="2.98924">
        <ele>-14</ele>
        <time>2018-06-24T12:11:54Z</time>
      </trkpt>
      <trkpt lat="50.46754" lon="2.98924">
        <ele>-14.2</ele>
        <time>2018-06-24T12:11:58Z</time>
      </trkpt>
      <trkpt lat="50.46754" lon="2.98924">
        <ele>-13.8</ele>
        <time>2018-06-24T12:12:02Z</time>
      </trkpt>
      <trkpt lat="50.46754" lon="2.98924">
        <ele>-13.6</ele>
        <time>2018-06-24T12:12:06Z</time>
      </trkpt>
      <trkpt lat="50.46754" lon="2.98924">
        <ele>-13.4</ele>
        <time>2018-06-24T12:12:10Z</time>
      </trkpt>
      <trkpt lat="50.46754" lon="2.98924">
        <ele>-14</ele>
        <time>2018-06-24T12:12:14Z</time>
      </trkpt>
      <trkpt lat="50.46754" lon="2.98924">
        <ele>-14</ele>
        <time>2018-06-24T12:12:18Z</time>
      </trkpt>
      <trkpt lat="50.46754" lon="2.98924">
        <ele>-14.2</ele>
        <time>2018-06-24T12:12:22Z</time>
      </trkpt>
      <trkpt lat="50.46754" lon="2.98924">
        <ele>-14.4</ele>
        <time>2018-06-24T12:12:26Z</time>
      </trkpt>
      <trkpt lat="50.46754" lon="2.98924">
        <ele>-14.8</ele>
        <time>2018-06-24T12:12:30Z</time>
      </trkpt>
      <trkpt lat="50.46754" lon="2.98924">
        <ele>-14.8</ele>
        <time>2018-06-24T12:12:34Z</time>
      </trkpt>
      <trkpt lat="50.46754" lon="2.98924">
        <ele>-14.8</ele>
        <time>2018-06-24T12:12:38Z</time>
      </trkpt>
      <trkpt lat="50.46754" lon="2.98924">
        <ele>-14.8</ele>
        <time>2018-06-24T12:12:42Z</time>
      </trkpt>
      <trkpt lat="50.46754" lon="2.98924">
        <ele>-15</ele>
        <time>2018-06-24T12:12:46Z</time>
      </trkpt>
      <trkpt lat="50.46754" lon="2.98924">
        <ele>-14.8</ele>
        <time>2018-06-24T12:12:50Z</time>
      </trkpt>
      <trkpt lat="50.46754" lon="2.98924">
        <ele>-14.6</ele>
        <time>2018-06-24T12:12:54Z</time>
      </trkpt>
      <trkpt lat="50.46754" lon="2.98924">
        <ele>-14.6</ele>
        <time>2018-06-24T12:12:58Z</time>
      </trkpt>
      <trkpt lat="50.46754" lon="2.98924">
        <ele>-14.6</ele>
        <time>2018-06-24T12:13:02Z</time>
      </trkpt>
      <trkpt lat="50.46754" lon="2.98924">
        <ele>-14.6</ele>
        <time>2018-06-24T12:13:06Z</time>
      </trkpt>
      <trkpt lat="50.46754" lon="2.98924">
        <ele>-14.6</ele>
        <time>2018-06-24T12:13:10Z</time>
      </trkpt>
      <trkpt lat="50.46754" lon="2.98924">
        <ele>-14.6</ele>
        <time>2018-06-24T12:13:14Z</time>
      </trkpt>
      <trkpt lat="50.46754" lon="2.98924">
        <ele>-14.6</ele>
        <time>2018-06-24T12:13:18Z</time>
      </trkpt>
      <trkpt lat="50.46754" lon="2.98924">
        <ele>-14.4</ele>
        <time>2018-06-24T12:13:22Z</time>
      </trkpt>
      <trkpt lat="50.46754" lon="2.98924">
        <ele>-15</ele>
        <time>2018-06-24T12:13:26Z</time>
      </trkpt>
      <trkpt lat="50.46754" lon="2.98924">
        <ele>-14.6</ele>
        <time>2018-06-24T12:13:30Z</time>
      </trkpt>
      <trkpt lat="50.46754" lon="2.98924">
        <ele>-14.6</ele>
        <time>2018-06-24T12:13:34Z</time>
      </trkpt>
      <trkpt lat="50.46754" lon="2.98924">
        <ele>-14.8</ele>
        <time>2018-06-24T12:13:38Z</time>
      </trkpt>
      <trkpt lat="50.46754" lon="2.98924">
        <ele>-14.4</ele>
        <time>2018-06-24T12:13:42Z</time>
      </trkpt>
      <trkpt lat="50.46754" lon="2.98924">
        <ele>-14.8</ele>
        <time>2018-06-24T12:13:46Z</time>
      </trkpt>
      <trkpt lat="50.46754" lon="2.98924">
        <ele>-14.8</ele>
        <time>2018-06-24T12:13:50Z</time>
      </trkpt>
      <trkpt lat="50.46754" lon="2.98924">
        <ele>-14.4</ele>
        <time>2018-06-24T12:13:54Z</time>
      </trkpt>
      <trkpt lat="50.46754" lon="2.98924">
        <ele>-14.4</ele>
        <time>2018-06-24T12:13:58Z</time>
      </trkpt>
      <trkpt lat="50.46754" lon="2.98924">
        <ele>-14.8</ele>
        <time>2018-06-24T12:14:02Z</time>
      </trkpt>
      <trkpt lat="50.46754" lon="2.98924">
        <ele>-14.4</ele>
        <time>2018-06-24T12:14:06Z</time>
      </trkpt>
      <trkpt lat="50.46754" lon="2.98924">
        <ele>-14.2</ele>
        <time>2018-06-24T12:14:10Z</time>
      </trkpt>
      <trkpt lat="50.46754" lon="2.98924">
        <ele>-14.4</ele>
        <time>2018-06-24T12:14:14Z</time>
      </trkpt>
      <trkpt lat="50.46754" lon="2.98924">
        <ele>-14.2</ele>
        <time>2018-06-24T12:14:18Z</time>
      </trkpt>
      <trkpt lat="50.46754" lon="2.98924">
        <ele>-14.6</ele>
        <time>2018-06-24T12:14:22Z</time>
      </trkpt>
      <trkpt lat="50.46754" lon="2.98924">
        <ele>-14.6</ele>
        <time>2018-06-24T12:14:26Z</time>
      </trkpt>
      <trkpt lat="50.46754" lon="2.98924">
        <ele>-14.6</ele>
        <time>2018-06-24T12:14:30Z</time>
      </trkpt>
      <trkpt lat="50.46754" lon="2.98924">
        <ele>-14.8</ele>
        <time>2018-06-24T12:14:34Z</time>
      </trkpt>
      <trkpt lat="50.46754" lon="2.98924">
        <ele>-14.4</ele>
        <time>2018-06-24T12:14:38Z</time>
      </trkpt>
      <trkpt lat="50.46754" lon="2.98924">
        <ele>-14.4</ele>
        <time>2018-06-24T12:14:42Z</time>
      </trkpt>
      <trkpt lat="50.46754" lon="2.98924">
        <ele>-14.4</ele>
        <time>2018-06-24T12:14:46Z</time>
      </trkpt>
      <trkpt lat="50.46754" lon="2.98924">
        <ele>-14.2</ele>
        <time>2018-06-24T12:14:50Z</time>
      </trkpt>
      <trkpt lat="50.46754" lon="2.98924">
        <ele>-14.4</ele>
        <time>2018-06-24T12:14:54Z</time>
      </trkpt>
      <trkpt lat="50.46753" lon="2.98922">
        <ele>-14.4</ele>
        <time>2018-06-24T12:14:58Z</time>
      </trkpt>
      <trkpt lat="50.46752" lon="2.98927">
        <ele>-14.6</ele>
        <time>2018-06-24T12:15:02Z</time>
      </trkpt>
      <trkpt lat="50.46754" lon="2.98932">
        <ele>-14.6</ele>
        <time>2018-06-24T12:15:06Z</time>
      </trkpt>
      <trkpt lat="50.46757" lon="2.98938">
        <ele>-14.6</ele>
        <time>2018-06-24T12:15:10Z</time>
      </trkpt>
      <trkpt lat="50.4676" lon="2.98945">
        <ele>-14.6</ele>
        <time>2018-06-24T12:15:14Z</time>
      </trkpt>
      <trkpt lat="50.46761" lon="2.98952">
        <ele>-15.2</ele>
        <time>2018-06-24T12:15:18Z</time>
      </trkpt>
      <trkpt lat="50.46765" lon="2.98957">
        <ele>-14.4</ele>
        <time>2018-06-24T12:15:22Z</time>
      </trkpt>
      <trkpt lat="50.46766" lon="2.98963">
        <ele>-14.2</ele>
        <time>2018-06-24T12:15:26Z</time>
      </trkpt>
      <trkpt lat="50.46767" lon="2.9897">
        <ele>-14.2</ele>
        <time>2018-06-24T12:15:30Z</time>
      </trkpt>
      <trkpt lat="50.46766" lon="2.98979">
        <ele>-14.4</ele>
        <time>2018-06-24T12:15:34Z</time>
      </trkpt>
      <trkpt lat="50.46768" lon="2.98987">
        <ele>-14.2</ele>
        <time>2018-06-24T12:15:38Z</time>
      </trkpt>
      <trkpt lat="50.46769" lon="2.98991">
        <ele>-14</ele>
        <time>2018-06-24T12:15:42Z</time>
      </trkpt>
      <trkpt lat="50.46772" lon="2.98998">
        <ele>-14.4</ele>
        <time>2018-06-24T12:15:46Z</time>
      </trkpt>
      <trkpt lat="50.46775" lon="2.99003">
        <ele>-14</ele>
        <time>2018-06-24T12:15:50Z</time>
      </trkpt>
      <trkpt lat="50.46778" lon="2.9901">
        <ele>-14</ele>
        <time>2018-06-24T12:15:54Z</time>
      </trkpt>
      <trkpt lat="50.46782" lon="2.99016">
        <ele>-14.4</ele>
        <time>2018-06-24T12:15:58Z</time>
      </trkpt>
      <trkpt lat="50.46786" lon="2.99023">
        <ele>-14.2</ele>
        <time>2018-06-24T12:16:02Z</time>
      </trkpt>
      <trkpt lat="50.46788" lon="2.99031">
        <ele>-14</ele>
        <time>2018-06-24T12:16:06Z</time>
      </trkpt>
      <trkpt lat="50.46789" lon="2.99038">
        <ele>-13.6</ele>
        <time>2018-06-24T12:16:10Z</time>
      </trkpt>
      <trkpt lat="50.46792" lon="2.99046">
        <ele>-14.8</ele>
        <time>2018-06-24T12:16:14Z</time>
      </trkpt>
      <trkpt lat="50.46794" lon="2.99052">
        <ele>-14</ele>
        <time>2018-06-24T12:16:18Z</time>
      </trkpt>
      <trkpt lat="50.46796" lon="2.99058">
        <ele>-14</ele>
        <time>2018-06-24T12:16:22Z</time>
      </trkpt>
      <trkpt lat="50.46798" lon="2.99062">
        <ele>-14</ele>
        <time>2018-06-24T12:16:26Z</time>
      </trkpt>
      <trkpt lat="50.46798" lon="2.99062">
        <ele>-13.8</ele>
        <time>2018-06-24T12:16:30Z</time>
      </trkpt>
      <trkpt lat="50.46799" lon="2.99064">
        <ele>-14</ele>
        <time>2018-06-24T12:16:34Z</time>
      </trkpt>
      <trkpt lat="50.46799" lon="2.99064">
        <ele>-14.2</ele>
        <time>2018-06-24T12:16:38Z</time>
      </trkpt>
      <trkpt lat="50.46802" lon="2.99066">
        <ele>-14.2</ele>
        <time>2018-06-24T12:16:42Z</time>
      </trkpt>
      <trkpt lat="50.46805" lon="2.99065">
        <ele>-14.6</ele>
        <time>2018-06-24T12:16:46Z</time>
      </trkpt>
      <trkpt lat="50.46805" lon="2.99065">
        <ele>-14.4</ele>
        <time>2018-06-24T12:16:50Z</time>
      </trkpt>
      <trkpt lat="50.46805" lon="2.99065">
        <ele>-14.2</ele>
        <time>2018-06-24T12:16:54Z</time>
      </trkpt>
      <trkpt lat="50.46805" lon="2.99065">
        <ele>-14.4</ele>
        <time>2018-06-24T12:16:58Z</time>
      </trkpt>
      <trkpt lat="50.46805" lon="2.99065">
        <ele>-14.4</ele>
        <time>2018-06-24T12:17:02Z</time>
      </trkpt>
      <trkpt lat="50.46805" lon="2.99065">
        <ele>-14.4</ele>
        <time>2018-06-24T12:17:06Z</time>
      </trkpt>
      <trkpt lat="50.46805" lon="2.99065">
        <ele>-14.2</ele>
        <time>2018-06-24T12:17:10Z</time>
      </trkpt>
      <trkpt lat="50.46805" lon="2.99065">
        <ele>-14.2</ele>
        <time>2018-06-24T12:17:14Z</time>
      </trkpt>
      <trkpt lat="50.46805" lon="2.99065">
        <ele>-14</ele>
        <time>2018-06-24T12:17:18Z</time>
      </trkpt>
      <trkpt lat="50.46805" lon="2.99065">
        <ele>-13.8</ele>
        <time>2018-06-24T12:17:22Z</time>
      </trkpt>
      <trkpt lat="50.46809" lon="2.9907">
        <ele>-13.4</ele>
        <time>2018-06-24T12:17:26Z</time>
      </trkpt>
      <trkpt lat="50.4681" lon="2.99073">
        <ele>-13.8</ele>
        <time>2018-06-24T12:17:30Z</time>
      </trkpt>
      <trkpt lat="50.46811" lon="2.99078">
        <ele>-14.4</ele>
        <time>2018-06-24T12:17:34Z</time>
      </trkpt>
      <trkpt lat="50.46811" lon="2.99078">
        <ele>-13.4</ele>
        <time>2018-06-24T12:17:38Z</time>
      </trkpt>
      <trkpt lat="50.46811" lon="2.99078">
        <ele>-14</ele>
        <time>2018-06-24T12:17:42Z</time>
      </trkpt>
      <trkpt lat="50.46812" lon="2.99079">
        <ele>-14.2</ele>
        <time>2018-06-24T12:17:46Z</time>
      </trkpt>
      <trkpt lat="50.46813" lon="2.99084">
        <ele>-14</ele>
        <time>2018-06-24T12:17:50Z</time>
      </trkpt>
      <trkpt lat="50.46813" lon="2.99092">
        <ele>-14.4</ele>
        <time>2018-06-24T12:17:54Z</time>
      </trkpt>
      <trkpt lat="50.46811" lon="2.99103">
        <ele>-14.4</ele>
        <time>2018-06-24T12:17:58Z</time>
      </trkpt>
      <trkpt lat="50.4681" lon="2.99116">
        <ele>-14.4</ele>
        <time>2018-06-24T12:18:02Z</time>
      </trkpt>
      <trkpt lat="50.4681" lon="2.9913">
        <ele>-14.4</ele>
        <time>2018-06-24T12:18:06Z</time>
      </trkpt>
      <trkpt lat="50.46813" lon="2.99143">
        <ele>-14.4</ele>
        <time>2018-06-24T12:18:10Z</time>
      </trkpt>
      <trkpt lat="50.46819" lon="2.99155">
        <ele>-14.4</ele>
        <time>2018-06-24T12:18:14Z</time>
      </trkpt>
      <trkpt lat="50.46823" lon="2.99168">
        <ele>-14.4</ele>
        <time>2018-06-24T12:18:18Z</time>
      </trkpt>
      <trkpt lat="50.46827" lon="2.99177">
        <ele>-13.6</ele>
        <time>2018-06-24T12:18:22Z</time>
      </trkpt>
      <trkpt lat="50.46829" lon="2.99184">
        <ele>-13.8</ele>
        <time>2018-06-24T12:18:26Z</time>
      </trkpt>
      <trkpt lat="50.46832" lon="2.99193">
        <ele>-13.4</ele>
        <time>2018-06-24T12:18:30Z</time>
      </trkpt>
      <trkpt lat="50.46839" lon="2.99201">
        <ele>-13.8</ele>
        <time>2018-06-24T12:18:34Z</time>
      </trkpt>
      <trkpt lat="50.46845" lon="2.9921">
        <ele>-13.8</ele>
        <time>2018-06-24T12:18:38Z</time>
      </trkpt>
      <trkpt lat="50.4685" lon="2.99219">
        <ele>-14.2</ele>
        <time>2018-06-24T12:18:42Z</time>
      </trkpt>
      <trkpt lat="50.4685" lon="2.99219">
        <ele>-14.4</ele>
        <time>2018-06-24T12:18:46Z</time>
      </trkpt>
      <trkpt lat="50.4685" lon="2.99219">
        <ele>-14.2</ele>
        <time>2018-06-24T12:18:50Z</time>
      </trkpt>
      <trkpt lat="50.4685" lon="2.99219">
        <ele>-14.4</ele>
        <time>2018-06-24T12:18:54Z</time>
      </trkpt>
      <trkpt lat="50.4685" lon="2.99219">
        <ele>-14.4</ele>
        <time>2018-06-24T12:18:58Z</time>
      </trkpt>
      <trkpt lat="50.4685" lon="2.99219">
        <ele>-14.4</ele>
        <time>2018-06-24T12:19:02Z</time>
      </trkpt>
      <trkpt lat="50.4685" lon="2.99219">
        <ele>-14.4</ele>
        <time>2018-06-24T12:19:06Z</time>
      </trkpt>
      <trkpt lat="50.4685" lon="2.99219">
        <ele>-14.2</ele>
        <time>2018-06-24T12:19:10Z</time>
      </trkpt>
      <trkpt lat="50.46859" lon="2.99222">
        <ele>-14.4</ele>
        <time>2018-06-24T12:19:14Z</time>
      </trkpt>
      <trkpt lat="50.46863" lon="2.99228">
        <ele>-13.6</ele>
        <time>2018-06-24T12:19:18Z</time>
      </trkpt>
      <trkpt lat="50.46866" lon="2.99238">
        <ele>-14.6</ele>
        <time>2018-06-24T12:19:22Z</time>
      </trkpt>
      <trkpt lat="50.46871" lon="2.99251">
        <ele>-14.4</ele>
        <time>2018-06-24T12:19:26Z</time>
      </trkpt>
      <trkpt lat="50.46876" lon="2.99264">
        <ele>-14.4</ele>
        <time>2018-06-24T12:19:30Z</time>
      </trkpt>
      <trkpt lat="50.4688" lon="2.99277">
        <ele>-14</ele>
        <time>2018-06-24T12:19:34Z</time>
      </trkpt>
      <trkpt lat="50.46884" lon="2.99293">
        <ele>-15</ele>
        <time>2018-06-24T12:19:38Z</time>
      </trkpt>
      <trkpt lat="50.46886" lon="2.99309">
        <ele>-14.8</ele>
        <time>2018-06-24T12:19:42Z</time>
      </trkpt>
      <trkpt lat="50.46885" lon="2.99326">
        <ele>-14.8</ele>
        <time>2018-06-24T12:19:46Z</time>
      </trkpt>
      <trkpt lat="50.46883" lon="2.99341">
        <ele>-15</ele>
        <time>2018-06-24T12:19:50Z</time>
      </trkpt>
      <trkpt lat="50.46882" lon="2.99357">
        <ele>-14.8</ele>
        <time>2018-06-24T12:19:54Z</time>
      </trkpt>
      <trkpt lat="50.4688" lon="2.99372">
        <ele>-15</ele>
        <time>2018-06-24T12:19:58Z</time>
      </trkpt>
      <trkpt lat="50.46879" lon="2.99388">
        <ele>-14.8</ele>
        <time>2018-06-24T12:20:02Z</time>
      </trkpt>
      <trkpt lat="50.46881" lon="2.99407">
        <ele>-14.6</ele>
        <time>2018-06-24T12:20:06Z</time>
      </trkpt>
      <trkpt lat="50.46879" lon="2.99428">
        <ele>-14.2</ele>
        <time>2018-06-24T12:20:10Z</time>
      </trkpt>
      <trkpt lat="50.46875" lon="2.99447">
        <ele>-14.8</ele>
        <time>2018-06-24T12:20:14Z</time>
      </trkpt>
      <trkpt lat="50.46877" lon="2.99465">
        <ele>-14.6</ele>
        <time>2018-06-24T12:20:18Z</time>
      </trkpt>
      <trkpt lat="50.46873" lon="2.99479">
        <ele>-14.4</ele>
        <time>2018-06-24T12:20:22Z</time>
      </trkpt>
      <trkpt lat="50.46871" lon="2.99489">
        <ele>-14</ele>
        <time>2018-06-24T12:20:26Z</time>
      </trkpt>
      <trkpt lat="50.4687" lon="2.99499">
        <ele>-14.4</ele>
        <time>2018-06-24T12:20:30Z</time>
      </trkpt>
      <trkpt lat="50.46868" lon="2.99516">
        <ele>-14.4</ele>
        <time>2018-06-24T12:20:34Z</time>
      </trkpt>
      <trkpt lat="50.46866" lon="2.99537">
        <ele>-14.6</ele>
        <time>2018-06-24T12:20:38Z</time>
      </trkpt>
      <trkpt lat="50.46863" lon="2.99557">
        <ele>-14.4</ele>
        <time>2018-06-24T12:20:42Z</time>
      </trkpt>
      <trkpt lat="50.46862" lon="2.99579">
        <ele>-14</ele>
        <time>2018-06-24T12:20:46Z</time>
      </trkpt>
      <trkpt lat="50.46856" lon="2.99601">
        <ele>-14.4</ele>
        <time>2018-06-24T12:20:50Z</time>
      </trkpt>
      <trkpt lat="50.46852" lon="2.99623">
        <ele>-14.4</ele>
        <time>2018-06-24T12:20:54Z</time>
      </trkpt>
      <trkpt lat="50.46849" lon="2.99644">
        <ele>-14.2</ele>
        <time>2018-06-24T12:20:58Z</time>
      </trkpt>
      <trkpt lat="50.46844" lon="2.99665">
        <ele>-14.6</ele>
        <time>2018-06-24T12:21:02Z</time>
      </trkpt>
      <trkpt lat="50.46841" lon="2.99686">
        <ele>-14</ele>
        <time>2018-06-24T12:21:06Z</time>
      </trkpt>
      <trkpt lat="50.46841" lon="2.99705">
        <ele>-14</ele>
        <time>2018-06-24T12:21:10Z</time>
      </trkpt>
      <trkpt lat="50.46847" lon="2.99726">
        <ele>-15.2</ele>
        <time>2018-06-24T12:21:14Z</time>
      </trkpt>
      <trkpt lat="50.46849" lon="2.99746">
        <ele>-14.8</ele>
        <time>2018-06-24T12:21:18Z</time>
      </trkpt>
      <trkpt lat="50.46855" lon="2.99768">
        <ele>-14.8</ele>
        <time>2018-06-24T12:21:22Z</time>
      </trkpt>
      <trkpt lat="50.4686" lon="2.9979">
        <ele>-15</ele>
        <time>2018-06-24T12:21:26Z</time>
      </trkpt>
      <trkpt lat="50.46865" lon="2.99813">
        <ele>-15.2</ele>
        <time>2018-06-24T12:21:30Z</time>
      </trkpt>
      <trkpt lat="50.46865" lon="2.99837">
        <ele>-15.4</ele>
        <time>2018-06-24T12:21:34Z</time>
      </trkpt>
      <trkpt lat="50.46867" lon="2.99863">
        <ele>-15.4</ele>
        <time>2018-06-24T12:21:38Z</time>
      </trkpt>
      <trkpt lat="50.46865" lon="2.99887">
        <ele>-15.2</ele>
        <time>2018-06-24T12:21:42Z</time>
      </trkpt>
      <trkpt lat="50.46863" lon="2.9991">
        <ele>-15.2</ele>
        <time>2018-06-24T12:21:46Z</time>
      </trkpt>
      <trkpt lat="50.46858" lon="2.99932">
        <ele>-15.4</ele>
        <time>2018-06-24T12:21:50Z</time>
      </trkpt>
      <trkpt lat="50.46854" lon="2.99953">
        <ele>-15.2</ele>
        <time>2018-06-24T12:21:54Z</time>
      </trkpt>
      <trkpt lat="50.4685" lon="2.99975">
        <ele>-15.4</ele>
        <time>2018-06-24T12:21:58Z</time>
      </trkpt>
      <trkpt lat="50.46845" lon="2.99995">
        <ele>-15.2</ele>
        <time>2018-06-24T12:22:02Z</time>
      </trkpt>
      <trkpt lat="50.46842" lon="3.00014">
        <ele>-15.2</ele>
        <time>2018-06-24T12:22:06Z</time>
      </trkpt>
      <trkpt lat="50.46841" lon="3.00034">
        <ele>-15.8</ele>
        <time>2018-06-24T12:22:10Z</time>
      </trkpt>
      <trkpt lat="50.46838" lon="3.00055">
        <ele>-15</ele>
        <time>2018-06-24T12:22:14Z</time>
      </trkpt>
      <trkpt lat="50.46839" lon="3.00077">
        <ele>-15</ele>
        <time>2018-06-24T12:22:18Z</time>
      </trkpt>
      <trkpt lat="50.46842" lon="3.001">
        <ele>-14.8</ele>
        <time>2018-06-24T12:22:22Z</time>
      </trkpt>
      <trkpt lat="50.46843" lon="3.00122">
        <ele>-14.4</ele>
        <time>2018-06-24T12:22:26Z</time>
      </trkpt>
      <trkpt lat="50.46844" lon="3.00144">
        <ele>-14.2</ele>
        <time>2018-06-24T12:22:30Z</time>
      </trkpt>
      <trkpt lat="50.46845" lon="3.00166">
        <ele>-14.4</ele>
        <time>2018-06-24T12:22:34Z</time>
      </trkpt>
      <trkpt lat="50.46842" lon="3.00187">
        <ele>-14</ele>
        <time>2018-06-24T12:22:38Z</time>
      </trkpt>
      <trkpt lat="50.46831" lon="3.00205">
        <ele>-14</ele>
        <time>2018-06-24T12:22:42Z</time>
      </trkpt>
      <trkpt lat="50.46828" lon="3.00228">
        <ele>-14</ele>
        <time>2018-06-24T12:22:46Z</time>
      </trkpt>
      <trkpt lat="50.46829" lon="3.00251">
        <ele>-13.8</ele>
        <time>2018-06-24T12:22:50Z</time>
      </trkpt>
      <trkpt lat="50.46828" lon="3.00276">
        <ele>-14</ele>
        <time>2018-06-24T12:22:54Z</time>
      </trkpt>
      <trkpt lat="50.46828" lon="3.00299">
        <ele>-13.6</ele>
        <time>2018-06-24T12:22:58Z</time>
      </trkpt>
      <trkpt lat="50.46827" lon="3.00323">
        <ele>-13.4</ele>
        <time>2018-06-24T12:23:02Z</time>
      </trkpt>
      <trkpt lat="50.46829" lon="3.00346">
        <ele>-14</ele>
        <time>2018-06-24T12:23:06Z</time>
      </trkpt>
      <trkpt lat="50.46833" lon="3.00368">
        <ele>-13.8</ele>
        <time>2018-06-24T12:23:10Z</time>
      </trkpt>
      <trkpt lat="50.46836" lon="3.0039">
        <ele>-13.6</ele>
        <time>2018-06-24T12:23:14Z</time>
      </trkpt>
      <trkpt lat="50.46838" lon="3.00412">
        <ele>-14</ele>
        <time>2018-06-24T12:23:18Z</time>
      </trkpt>
      <trkpt lat="50.46841" lon="3.00435">
        <ele>-13.8</ele>
        <time>2018-06-24T12:23:22Z</time>
      </trkpt>
      <trkpt lat="50.46844" lon="3.00459">
        <ele>-13.4</ele>
        <time>2018-06-24T12:23:26Z</time>
      </trkpt>
      <trkpt lat="50.46848" lon="3.00482">
        <ele>-13.8</ele>
        <time>2018-06-24T12:23:30Z</time>
      </trkpt>
      <trkpt lat="50.46851" lon="3.00506">
        <ele>-14.4</ele>
        <time>2018-06-24T12:23:34Z</time>
      </trkpt>
      <trkpt lat="50.46858" lon="3.00531">
        <ele>-13.8</ele>
        <time>2018-06-24T12:23:38Z</time>
      </trkpt>
      <trkpt lat="50.46865" lon="3.00557">
        <ele>-14.4</ele>
        <time>2018-06-24T12:23:42Z</time>
      </trkpt>
      <trkpt lat="50.46871" lon="3.00582">
        <ele>-14.8</ele>
        <time>2018-06-24T12:23:46Z</time>
      </trkpt>
      <trkpt lat="50.46873" lon="3.00605">
        <ele>-14.8</ele>
        <time>2018-06-24T12:23:50Z</time>
      </trkpt>
      <trkpt lat="50.46876" lon="3.00631">
        <ele>-14.8</ele>
        <time>2018-06-24T12:23:54Z</time>
      </trkpt>
      <trkpt lat="50.46881" lon="3.00653">
        <ele>-14.4</ele>
        <time>2018-06-24T12:23:58Z</time>
      </trkpt>
      <trkpt lat="50.46887" lon="3.00676">
        <ele>-14.4</ele>
        <time>2018-06-24T12:24:02Z</time>
      </trkpt>
      <trkpt lat="50.46892" lon="3.00698">
        <ele>-14.4</ele>
        <time>2018-06-24T12:24:06Z</time>
      </trkpt>
      <trkpt lat="50.46895" lon="3.00722">
        <ele>-13.6</ele>
        <time>2018-06-24T12:24:10Z</time>
      </trkpt>
      <trkpt lat="50.46898" lon="3.00744">
        <ele>-13.2</ele>
        <time>2018-06-24T12:24:14Z</time>
      </trkpt>
      <trkpt lat="50.46903" lon="3.00768">
        <ele>-13.4</ele>
        <time>2018-06-24T12:24:18Z</time>
      </trkpt>
      <trkpt lat="50.46909" lon="3.0079">
        <ele>-13</ele>
        <time>2018-06-24T12:24:22Z</time>
      </trkpt>
      <trkpt lat="50.46916" lon="3.00812">
        <ele>-12.8</ele>
        <time>2018-06-24T12:24:26Z</time>
      </trkpt>
      <trkpt lat="50.46924" lon="3.00831">
        <ele>-13</ele>
        <time>2018-06-24T12:24:30Z</time>
      </trkpt>
      <trkpt lat="50.46934" lon="3.00848">
        <ele>-12.6</ele>
        <time>2018-06-24T12:24:34Z</time>
      </trkpt>
      <trkpt lat="50.46946" lon="3.00866">
        <ele>-12.6</ele>
        <time>2018-06-24T12:24:38Z</time>
      </trkpt>
      <trkpt lat="50.46957" lon="3.00887">
        <ele>-12.4</ele>
        <time>2018-06-24T12:24:42Z</time>
      </trkpt>
      <trkpt lat="50.46969" lon="3.00907">
        <ele>-12.8</ele>
        <time>2018-06-24T12:24:46Z</time>
      </trkpt>
      <trkpt lat="50.46981" lon="3.00929">
        <ele>-12.2</ele>
        <time>2018-06-24T12:24:50Z</time>
      </trkpt>
      <trkpt lat="50.46993" lon="3.0095">
        <ele>-12</ele>
        <time>2018-06-24T12:24:54Z</time>
      </trkpt>
      <trkpt lat="50.47004" lon="3.00971">
        <ele>-12.2</ele>
        <time>2018-06-24T12:24:58Z</time>
      </trkpt>
      <trkpt lat="50.47014" lon="3.00993">
        <ele>-12</ele>
        <time>2018-06-24T12:25:02Z</time>
      </trkpt>
      <trkpt lat="50.47025" lon="3.01016">
        <ele>-12</ele>
        <time>2018-06-24T12:25:06Z</time>
      </trkpt>
      <trkpt lat="50.47035" lon="3.01037">
        <ele>-12</ele>
        <time>2018-06-24T12:25:10Z</time>
      </trkpt>
      <trkpt lat="50.47045" lon="3.01059">
        <ele>-11.8</ele>
        <time>2018-06-24T12:25:14Z</time>
      </trkpt>
      <trkpt lat="50.47054" lon="3.0108">
        <ele>-11.2</ele>
        <time>2018-06-24T12:25:18Z</time>
      </trkpt>
      <trkpt lat="50.47064" lon="3.01102">
        <ele>-11.8</ele>
        <time>2018-06-24T12:25:22Z</time>
      </trkpt>
      <trkpt lat="50.47074" lon="3.01123">
        <ele>-11.4</ele>
        <time>2018-06-24T12:25:26Z</time>
      </trkpt>
      <trkpt lat="50.47084" lon="3.01144">
        <ele>-11.4</ele>
        <time>2018-06-24T12:25:30Z</time>
      </trkpt>
      <trkpt lat="50.47093" lon="3.01165">
        <ele>-11.2</ele>
        <time>2018-06-24T12:25:34Z</time>
      </trkpt>
      <trkpt lat="50.47102" lon="3.01186">
        <ele>-10.6</ele>
        <time>2018-06-24T12:25:38Z</time>
      </trkpt>
      <trkpt lat="50.47111" lon="3.01207">
        <ele>-10.4</ele>
        <time>2018-06-24T12:25:42Z</time>
      </trkpt>
      <trkpt lat="50.4712" lon="3.01229">
        <ele>-10.8</ele>
        <time>2018-06-24T12:25:46Z</time>
      </trkpt>
      <trkpt lat="50.47129" lon="3.01251">
        <ele>-10.6</ele>
        <time>2018-06-24T12:25:50Z</time>
      </trkpt>
      <trkpt lat="50.47139" lon="3.01272">
        <ele>-10.4</ele>
        <time>2018-06-24T12:25:54Z</time>
      </trkpt>
      <trkpt lat="50.47148" lon="3.01293">
        <ele>-9.6</ele>
        <time>2018-06-24T12:25:58Z</time>
      </trkpt>
      <trkpt lat="50.47157" lon="3.01314">
        <ele>-9.6</ele>
        <time>2018-06-24T12:26:02Z</time>
      </trkpt>
      <trkpt lat="50.47166" lon="3.01336">
        <ele>-9.4</ele>
        <time>2018-06-24T12:26:06Z</time>
      </trkpt>
      <trkpt lat="50.47174" lon="3.01358">
        <ele>-9</ele>
        <time>2018-06-24T12:26:10Z</time>
      </trkpt>
      <trkpt lat="50.47184" lon="3.01379">
        <ele>-8.8</ele>
        <time>2018-06-24T12:26:14Z</time>
      </trkpt>
      <trkpt lat="50.47194" lon="3.01401">
        <ele>-8.4</ele>
        <time>2018-06-24T12:26:18Z</time>
      </trkpt>
      <trkpt lat="50.47203" lon="3.01425">
        <ele>-8.6</ele>
        <time>2018-06-24T12:26:22Z</time>
      </trkpt>
      <trkpt lat="50.47211" lon="3.0145">
        <ele>-8.8</ele>
        <time>2018-06-24T12:26:26Z</time>
      </trkpt>
      <trkpt lat="50.47218" lon="3.01473">
        <ele>-9</ele>
        <time>2018-06-24T12:26:30Z</time>
      </trkpt>
      <trkpt lat="50.47226" lon="3.01495">
        <ele>-9.2</ele>
        <time>2018-06-24T12:26:34Z</time>
      </trkpt>
      <trkpt lat="50.4723" lon="3.01511">
        <ele>-9.2</ele>
        <time>2018-06-24T12:26:38Z</time>
      </trkpt>
      <trkpt lat="50.47235" lon="3.01525">
        <ele>-8.8</ele>
        <time>2018-06-24T12:26:42Z</time>
      </trkpt>
      <trkpt lat="50.4724" lon="3.01544">
        <ele>-8.8</ele>
        <time>2018-06-24T12:26:46Z</time>
      </trkpt>
      <trkpt lat="50.47246" lon="3.01565">
        <ele>-9.8</ele>
        <time>2018-06-24T12:26:50Z</time>
      </trkpt>
      <trkpt lat="50.47253" lon="3.01586">
        <ele>-9.4</ele>
        <time>2018-06-24T12:26:54Z</time>
      </trkpt>
      <trkpt lat="50.47258" lon="3.01605">
        <ele>-9.6</ele>
        <time>2018-06-24T12:26:58Z</time>
      </trkpt>
      <trkpt lat="50.47261" lon="3.01619">
        <ele>-9.4</ele>
        <time>2018-06-24T12:27:02Z</time>
      </trkpt>
      <trkpt lat="50.47267" lon="3.01638">
        <ele>-10</ele>
        <time>2018-06-24T12:27:06Z</time>
      </trkpt>
      <trkpt lat="50.47273" lon="3.01659">
        <ele>-9.2</ele>
        <time>2018-06-24T12:27:10Z</time>
      </trkpt>
      <trkpt lat="50.47279" lon="3.01681">
        <ele>-9.2</ele>
        <time>2018-06-24T12:27:14Z</time>
      </trkpt>
      <trkpt lat="50.47287" lon="3.01705">
        <ele>-9.6</ele>
        <time>2018-06-24T12:27:18Z</time>
      </trkpt>
      <trkpt lat="50.47297" lon="3.01728">
        <ele>-10.2</ele>
        <time>2018-06-24T12:27:22Z</time>
      </trkpt>
      <trkpt lat="50.47308" lon="3.01749">
        <ele>-10</ele>
        <time>2018-06-24T12:27:26Z</time>
      </trkpt>
      <trkpt lat="50.47321" lon="3.01767">
        <ele>-10.2</ele>
        <time>2018-06-24T12:27:30Z</time>
      </trkpt>
      <trkpt lat="50.47334" lon="3.01783">
        <ele>-9.8</ele>
        <time>2018-06-24T12:27:34Z</time>
      </trkpt>
      <trkpt lat="50.47348" lon="3.01799">
        <ele>-10.2</ele>
        <time>2018-06-24T12:27:38Z</time>
      </trkpt>
      <trkpt lat="50.47362" lon="3.01815">
        <ele>-10</ele>
        <time>2018-06-24T12:27:42Z</time>
      </trkpt>
      <trkpt lat="50.47374" lon="3.0183">
        <ele>-11</ele>
        <time>2018-06-24T12:27:46Z</time>
      </trkpt>
      <trkpt lat="50.47386" lon="3.01847">
        <ele>-11.4</ele>
        <time>2018-06-24T12:27:50Z</time>
      </trkpt>
      <trkpt lat="50.47398" lon="3.01869">
        <ele>-10.2</ele>
        <time>2018-06-24T12:27:54Z</time>
      </trkpt>
      <trkpt lat="50.47408" lon="3.01892">
        <ele>-11.4</ele>
        <time>2018-06-24T12:27:58Z</time>
      </trkpt>
      <trkpt lat="50.47416" lon="3.01914">
        <ele>-12</ele>
        <time>2018-06-24T12:28:02Z</time>
      </trkpt>
      <trkpt lat="50.47425" lon="3.01936">
        <ele>-11.6</ele>
        <time>2018-06-24T12:28:06Z</time>
      </trkpt>
      <trkpt lat="50.47434" lon="3.01959">
        <ele>-11.6</ele>
        <time>2018-06-24T12:28:10Z</time>
      </trkpt>
      <trkpt lat="50.47444" lon="3.01984">
        <ele>-12.2</ele>
        <time>2018-06-24T12:28:14Z</time>
      </trkpt>
      <trkpt lat="50.47453" lon="3.02008">
        <ele>-12</ele>
        <time>2018-06-24T12:28:18Z</time>
      </trkpt>
      <trkpt lat="50.47462" lon="3.02033">
        <ele>-11.8</ele>
        <time>2018-06-24T12:28:22Z</time>
      </trkpt>
      <trkpt lat="50.4747" lon="3.02055">
        <ele>-11.6</ele>
        <time>2018-06-24T12:28:26Z</time>
      </trkpt>
      <trkpt lat="50.47477" lon="3.02076">
        <ele>-11.6</ele>
        <time>2018-06-24T12:28:30Z</time>
      </trkpt>
      <trkpt lat="50.47483" lon="3.02096">
        <ele>-11.4</ele>
        <time>2018-06-24T12:28:34Z</time>
      </trkpt>
      <trkpt lat="50.47488" lon="3.02114">
        <ele>-11.8</ele>
        <time>2018-06-24T12:28:38Z</time>
      </trkpt>
      <trkpt lat="50.47492" lon="3.02135">
        <ele>-11.8</ele>
        <time>2018-06-24T12:28:42Z</time>
      </trkpt>
      <trkpt lat="50.47495" lon="3.02157">
        <ele>-11.2</ele>
        <time>2018-06-24T12:28:46Z</time>
      </trkpt>
      <trkpt lat="50.47497" lon="3.02181">
        <ele>-11</ele>
        <time>2018-06-24T12:28:50Z</time>
      </trkpt>
      <trkpt lat="50.47498" lon="3.02205">
        <ele>-10.6</ele>
        <time>2018-06-24T12:28:54Z</time>
      </trkpt>
      <trkpt lat="50.47501" lon="3.02229">
        <ele>-10.4</ele>
        <time>2018-06-24T12:28:58Z</time>
      </trkpt>
      <trkpt lat="50.47502" lon="3.02252">
        <ele>-10.2</ele>
        <time>2018-06-24T12:29:02Z</time>
      </trkpt>
      <trkpt lat="50.47505" lon="3.02276">
        <ele>-10.6</ele>
        <time>2018-06-24T12:29:06Z</time>
      </trkpt>
      <trkpt lat="50.47508" lon="3.023">
        <ele>-10.2</ele>
        <time>2018-06-24T12:29:10Z</time>
      </trkpt>
      <trkpt lat="50.47512" lon="3.02322">
        <ele>-10.2</ele>
        <time>2018-06-24T12:29:14Z</time>
      </trkpt>
      <trkpt lat="50.47517" lon="3.02345">
        <ele>-9.8</ele>
        <time>2018-06-24T12:29:18Z</time>
      </trkpt>
      <trkpt lat="50.4752" lon="3.02369">
        <ele>-9.4</ele>
        <time>2018-06-24T12:29:22Z</time>
      </trkpt>
      <trkpt lat="50.47523" lon="3.02391">
        <ele>-9.2</ele>
        <time>2018-06-24T12:29:26Z</time>
      </trkpt>
      <trkpt lat="50.47525" lon="3.02415">
        <ele>-9</ele>
        <time>2018-06-24T12:29:30Z</time>
      </trkpt>
      <trkpt lat="50.47528" lon="3.0244">
        <ele>-9.2</ele>
        <time>2018-06-24T12:29:34Z</time>
      </trkpt>
      <trkpt lat="50.47533" lon="3.02465">
        <ele>-9.2</ele>
        <time>2018-06-24T12:29:38Z</time>
      </trkpt>
      <trkpt lat="50.47537" lon="3.02491">
        <ele>-9</ele>
        <time>2018-06-24T12:29:42Z</time>
      </trkpt>
      <trkpt lat="50.4754" lon="3.02517">
        <ele>-9.2</ele>
        <time>2018-06-24T12:29:46Z</time>
      </trkpt>
      <trkpt lat="50.47541" lon="3.02542">
        <ele>-8.8</ele>
        <time>2018-06-24T12:29:50Z</time>
      </trkpt>
      <trkpt lat="50.47542" lon="3.02567">
        <ele>-9.2</ele>
        <time>2018-06-24T12:29:54Z</time>
      </trkpt>
      <trkpt lat="50.47542" lon="3.02592">
        <ele>-8.4</ele>
        <time>2018-06-24T12:29:58Z</time>
      </trkpt>
      <trkpt lat="50.47543" lon="3.02617">
        <ele>-8.8</ele>
        <time>2018-06-24T12:30:02Z</time>
      </trkpt>
      <trkpt lat="50.47545" lon="3.02641">
        <ele>-8</ele>
        <time>2018-06-24T12:30:06Z</time>
      </trkpt>
      <trkpt lat="50.47548" lon="3.02665">
        <ele>-7.6</ele>
        <time>2018-06-24T12:30:10Z</time>
      </trkpt>
      <trkpt lat="50.47551" lon="3.02689">
        <ele>-7.8</ele>
        <time>2018-06-24T12:30:14Z</time>
      </trkpt>
      <trkpt lat="50.47555" lon="3.02713">
        <ele>-6.8</ele>
        <time>2018-06-24T12:30:18Z</time>
      </trkpt>
      <trkpt lat="50.47558" lon="3.02737">
        <ele>-6</ele>
        <time>2018-06-24T12:30:22Z</time>
      </trkpt>
      <trkpt lat="50.47561" lon="3.02759">
        <ele>-5.8</ele>
        <time>2018-06-24T12:30:26Z</time>
      </trkpt>
      <trkpt lat="50.47564" lon="3.02783">
        <ele>-5.8</ele>
        <time>2018-06-24T12:30:30Z</time>
      </trkpt>
      <trkpt lat="50.47566" lon="3.02807">
        <ele>-5</ele>
        <time>2018-06-24T12:30:34Z</time>
      </trkpt>
      <trkpt lat="50.47566" lon="3.0283">
        <ele>-5</ele>
        <time>2018-06-24T12:30:38Z</time>
      </trkpt>
      <trkpt lat="50.47565" lon="3.02854">
        <ele>-4.6</ele>
        <time>2018-06-24T12:30:42Z</time>
      </trkpt>
      <trkpt lat="50.47565" lon="3.02879">
        <ele>-4.6</ele>
        <time>2018-06-24T12:30:46Z</time>
      </trkpt>
      <trkpt lat="50.47567" lon="3.02904">
        <ele>-4.4</ele>
        <time>2018-06-24T12:30:50Z</time>
      </trkpt>
      <trkpt lat="50.47571" lon="3.02926">
        <ele>-4.2</ele>
        <time>2018-06-24T12:30:54Z</time>
      </trkpt>
      <trkpt lat="50.47576" lon="3.02946">
        <ele>-4.2</ele>
        <time>2018-06-24T12:30:58Z</time>
      </trkpt>
      <trkpt lat="50.47582" lon="3.02965">
        <ele>-4.2</ele>
        <time>2018-06-24T12:31:02Z</time>
      </trkpt>
      <trkpt lat="50.4759" lon="3.02986">
        <ele>-4.4</ele>
        <time>2018-06-24T12:31:06Z</time>
      </trkpt>
      <trkpt lat="50.47597" lon="3.03008">
        <ele>-4.4</ele>
        <time>2018-06-24T12:31:10Z</time>
      </trkpt>
      <trkpt lat="50.47602" lon="3.03031">
        <ele>-4.4</ele>
        <time>2018-06-24T12:31:14Z</time>
      </trkpt>
      <trkpt lat="50.47606" lon="3.03054">
        <ele>-4.6</ele>
        <time>2018-06-24T12:31:18Z</time>
      </trkpt>
      <trkpt lat="50.47611" lon="3.03077">
        <ele>-4.2</ele>
        <time>2018-06-24T12:31:22Z</time>
      </trkpt>
      <trkpt lat="50.47617" lon="3.031">
        <ele>-4.2</ele>
        <time>2018-06-24T12:31:26Z</time>
      </trkpt>
      <trkpt lat="50.47624" lon="3.03123">
        <ele>-4.2</ele>
        <time>2018-06-24T12:31:30Z</time>
      </trkpt>
      <trkpt lat="50.47632" lon="3.03145">
        <ele>-4.4</ele>
        <time>2018-06-24T12:31:34Z</time>
      </trkpt>
      <trkpt lat="50.47641" lon="3.03167">
        <ele>-4.2</ele>
        <time>2018-06-24T12:31:38Z</time>
      </trkpt>
      <trkpt lat="50.4765" lon="3.03189">
        <ele>-3.8</ele>
        <time>2018-06-24T12:31:42Z</time>
      </trkpt>
      <trkpt lat="50.4766" lon="3.03209">
        <ele>-3.6</ele>
        <time>2018-06-24T12:31:46Z</time>
      </trkpt>
      <trkpt lat="50.47669" lon="3.03229">
        <ele>-3.2</ele>
        <time>2018-06-24T12:31:50Z</time>
      </trkpt>
      <trkpt lat="50.4768" lon="3.03247">
        <ele>-3.2</ele>
        <time>2018-06-24T12:31:54Z</time>
      </trkpt>
      <trkpt lat="50.47692" lon="3.03263">
        <ele>-4</ele>
        <time>2018-06-24T12:31:58Z</time>
      </trkpt>
      <trkpt lat="50.47705" lon="3.03276">
        <ele>-3.4</ele>
        <time>2018-06-24T12:32:02Z</time>
      </trkpt>
      <trkpt lat="50.47719" lon="3.03285">
        <ele>-2.8</ele>
        <time>2018-06-24T12:32:06Z</time>
      </trkpt>
      <trkpt lat="50.47734" lon="3.03291">
        <ele>-2</ele>
        <time>2018-06-24T12:32:10Z</time>
      </trkpt>
      <trkpt lat="50.47747" lon="3.03295">
        <ele>-2.2</ele>
        <time>2018-06-24T12:32:14Z</time>
      </trkpt>
      <trkpt lat="50.4776" lon="3.03299">
        <ele>-2.2</ele>
        <time>2018-06-24T12:32:18Z</time>
      </trkpt>
      <trkpt lat="50.47774" lon="3.03303">
        <ele>-2</ele>
        <time>2018-06-24T12:32:22Z</time>
      </trkpt>
      <trkpt lat="50.47788" lon="3.03305">
        <ele>-1.8</ele>
        <time>2018-06-24T12:32:26Z</time>
      </trkpt>
      <trkpt lat="50.47803" lon="3.03309">
        <ele>-1.8</ele>
        <time>2018-06-24T12:32:30Z</time>
      </trkpt>
      <trkpt lat="50.47817" lon="3.03313">
        <ele>-1.4</ele>
        <time>2018-06-24T12:32:34Z</time>
      </trkpt>
      <trkpt lat="50.47832" lon="3.0332">
        <ele>-1.4</ele>
        <time>2018-06-24T12:32:38Z</time>
      </trkpt>
      <trkpt lat="50.47846" lon="3.03329">
        <ele>-1.4</ele>
        <time>2018-06-24T12:32:42Z</time>
      </trkpt>
      <trkpt lat="50.4786" lon="3.03338">
        <ele>-1</ele>
        <time>2018-06-24T12:32:46Z</time>
      </trkpt>
      <trkpt lat="50.47874" lon="3.03349">
        <ele>-0.8</ele>
        <time>2018-06-24T12:32:50Z</time>
      </trkpt>
      <trkpt lat="50.47888" lon="3.03361">
        <ele>-0.8</ele>
        <time>2018-06-24T12:32:54Z</time>
      </trkpt>
      <trkpt lat="50.47902" lon="3.03375">
        <ele>-0.6</ele>
        <time>2018-06-24T12:32:58Z</time>
      </trkpt>
      <trkpt lat="50.47913" lon="3.0339">
        <ele>-0.6</ele>
        <time>2018-06-24T12:33:02Z</time>
      </trkpt>
      <trkpt lat="50.47927" lon="3.03404">
        <ele>0.4</ele>
        <time>2018-06-24T12:33:06Z</time>
      </trkpt>
      <trkpt lat="50.47941" lon="3.03417">
        <ele>-0.2</ele>
        <time>2018-06-24T12:33:10Z</time>
      </trkpt>
      <trkpt lat="50.47956" lon="3.03429">
        <ele>0.2</ele>
        <time>2018-06-24T12:33:14Z</time>
      </trkpt>
      <trkpt lat="50.4797" lon="3.0344">
        <ele>1.2</ele>
        <time>2018-06-24T12:33:18Z</time>
      </trkpt>
      <trkpt lat="50.47984" lon="3.03451">
        <ele>1.2</ele>
        <time>2018-06-24T12:33:22Z</time>
      </trkpt>
      <trkpt lat="50.47999" lon="3.03462">
        <ele>2.4</ele>
        <time>2018-06-24T12:33:26Z</time>
      </trkpt>
      <trkpt lat="50.48013" lon="3.03473">
        <ele>2.2</ele>
        <time>2018-06-24T12:33:30Z</time>
      </trkpt>
      <trkpt lat="50.48027" lon="3.03484">
        <ele>2.4</ele>
        <time>2018-06-24T12:33:34Z</time>
      </trkpt>
      <trkpt lat="50.48041" lon="3.03495">
        <ele>3</ele>
        <time>2018-06-24T12:33:38Z</time>
      </trkpt>
      <trkpt lat="50.48055" lon="3.03505">
        <ele>3.8</ele>
        <time>2018-06-24T12:33:42Z</time>
      </trkpt>
      <trkpt lat="50.48068" lon="3.03516">
        <ele>3.6</ele>
        <time>2018-06-24T12:33:46Z</time>
      </trkpt>
      <trkpt lat="50.48083" lon="3.03526">
        <ele>3.8</ele>
        <time>2018-06-24T12:33:50Z</time>
      </trkpt>
      <trkpt lat="50.48097" lon="3.03537">
        <ele>5.2</ele>
        <time>2018-06-24T12:33:54Z</time>
      </trkpt>
      <trkpt lat="50.48111" lon="3.03549">
        <ele>5.2</ele>
        <time>2018-06-24T12:33:58Z</time>
      </trkpt>
      <trkpt lat="50.48125" lon="3.03558">
        <ele>5.8</ele>
        <time>2018-06-24T12:34:02Z</time>
      </trkpt>
      <trkpt lat="50.48138" lon="3.03568">
        <ele>6.6</ele>
        <time>2018-06-24T12:34:06Z</time>
      </trkpt>
      <trkpt lat="50.48151" lon="3.03579">
        <ele>7.4</ele>
        <time>2018-06-24T12:34:10Z</time>
      </trkpt>
      <trkpt lat="50.48163" lon="3.0359">
        <ele>8.2</ele>
        <time>2018-06-24T12:34:14Z</time>
      </trkpt>
      <trkpt lat="50.48175" lon="3.03605">
        <ele>8.4</ele>
        <time>2018-06-24T12:34:18Z</time>
      </trkpt>
      <trkpt lat="50.48185" lon="3.03621">
        <ele>8.6</ele>
        <time>2018-06-24T12:34:22Z</time>
      </trkpt>
      <trkpt lat="50.48195" lon="3.03638">
        <ele>9.4</ele>
        <time>2018-06-24T12:34:26Z</time>
      </trkpt>
      <trkpt lat="50.48203" lon="3.03652">
        <ele>10</ele>
        <time>2018-06-24T12:34:30Z</time>
      </trkpt>
      <trkpt lat="50.48209" lon="3.03665">
        <ele>10</ele>
        <time>2018-06-24T12:34:34Z</time>
      </trkpt>
      <trkpt lat="50.48212" lon="3.03672">
        <ele>10</ele>
        <time>2018-06-24T12:34:38Z</time>
      </trkpt>
      <trkpt lat="50.48222" lon="3.03675">
        <ele>10.8</ele>
        <time>2018-06-24T12:34:42Z</time>
      </trkpt>
      <trkpt lat="50.48234" lon="3.03672">
        <ele>10.8</ele>
        <time>2018-06-24T12:34:46Z</time>
      </trkpt>
      <trkpt lat="50.48248" lon="3.03669">
        <ele>11.2</ele>
        <time>2018-06-24T12:34:50Z</time>
      </trkpt>
      <trkpt lat="50.48261" lon="3.03664">
        <ele>11.4</ele>
        <time>2018-06-24T12:34:54Z</time>
      </trkpt>
      <trkpt lat="50.48275" lon="3.0366">
        <ele>11.8</ele>
        <time>2018-06-24T12:34:58Z</time>
      </trkpt>
      <trkpt lat="50.48288" lon="3.03655">
        <ele>11.8</ele>
        <time>2018-06-24T12:35:02Z</time>
      </trkpt>
      <trkpt lat="50.48302" lon="3.03651">
        <ele>12.2</ele>
        <time>2018-06-24T12:35:06Z</time>
      </trkpt>
      <trkpt lat="50.48316" lon="3.03647">
        <ele>12.4</ele>
        <time>2018-06-24T12:35:10Z</time>
      </trkpt>
      <trkpt lat="50.48327" lon="3.03644">
        <ele>12.4</ele>
        <time>2018-06-24T12:35:14Z</time>
      </trkpt>
      <trkpt lat="50.48334" lon="3.03641">
        <ele>12.4</ele>
        <time>2018-06-24T12:35:18Z</time>
      </trkpt>
      <trkpt lat="50.48338" lon="3.03641">
        <ele>12.4</ele>
        <time>2018-06-24T12:35:22Z</time>
      </trkpt>
      <trkpt lat="50.48338" lon="3.03641">
        <ele>12.6</ele>
        <time>2018-06-24T12:35:26Z</time>
      </trkpt>
      <trkpt lat="50.48338" lon="3.03641">
        <ele>12.6</ele>
        <time>2018-06-24T12:35:30Z</time>
      </trkpt>
      <trkpt lat="50.4834" lon="3.0364">
        <ele>12.8</ele>
        <time>2018-06-24T12:35:34Z</time>
      </trkpt>
      <trkpt lat="50.48334" lon="3.03638">
        <ele>12.6</ele>
        <time>2018-06-24T12:35:38Z</time>
      </trkpt>
      <trkpt lat="50.48325" lon="3.03642">
        <ele>12.8</ele>
        <time>2018-06-24T12:35:42Z</time>
      </trkpt>
      <trkpt lat="50.48316" lon="3.03652">
        <ele>12</ele>
        <time>2018-06-24T12:35:46Z</time>
      </trkpt>
      <trkpt lat="50.48314" lon="3.03667">
        <ele>12.6</ele>
        <time>2018-06-24T12:35:50Z</time>
      </trkpt>
      <trkpt lat="50.48318" lon="3.03682">
        <ele>13.2</ele>
        <time>2018-06-24T12:35:54Z</time>
      </trkpt>
      <trkpt lat="50.48322" lon="3.03698">
        <ele>13.8</ele>
        <time>2018-06-24T12:35:58Z</time>
      </trkpt>
      <trkpt lat="50.48326" lon="3.03714">
        <ele>13.8</ele>
        <time>2018-06-24T12:36:02Z</time>
      </trkpt>
      <trkpt lat="50.48328" lon="3.03733">
        <ele>14</ele>
        <time>2018-06-24T12:36:06Z</time>
      </trkpt>
      <trkpt lat="50.48331" lon="3.03752">
        <ele>14.6</ele>
        <time>2018-06-24T12:36:10Z</time>
      </trkpt>
      <trkpt lat="50.48333" lon="3.03773">
        <ele>14.4</ele>
        <time>2018-06-24T12:36:14Z</time>
      </trkpt>
      <trkpt lat="50.48336" lon="3.03793">
        <ele>15</ele>
        <time>2018-06-24T12:36:18Z</time>
      </trkpt>
      <trkpt lat="50.48337" lon="3.03812">
        <ele>15.2</ele>
        <time>2018-06-24T12:36:22Z</time>
      </trkpt>
      <trkpt lat="50.48334" lon="3.03831">
        <ele>15.4</ele>
        <time>2018-06-24T12:36:26Z</time>
      </trkpt>
      <trkpt lat="50.48331" lon="3.0385">
        <ele>15.6</ele>
        <time>2018-06-24T12:36:30Z</time>
      </trkpt>
      <trkpt lat="50.48329" lon="3.0387">
        <ele>15.8</ele>
        <time>2018-06-24T12:36:34Z</time>
      </trkpt>
      <trkpt lat="50.48331" lon="3.03889">
        <ele>15.6</ele>
        <time>2018-06-24T12:36:38Z</time>
      </trkpt>
      <trkpt lat="50.48337" lon="3.03906">
        <ele>16.4</ele>
        <time>2018-06-24T12:36:42Z</time>
      </trkpt>
      <trkpt lat="50.48344" lon="3.03924">
        <ele>17</ele>
        <time>2018-06-24T12:36:46Z</time>
      </trkpt>
      <trkpt lat="50.48351" lon="3.0394">
        <ele>17.2</ele>
        <time>2018-06-24T12:36:50Z</time>
      </trkpt>
      <trkpt lat="50.48357" lon="3.03955">
        <ele>17.6</ele>
        <time>2018-06-24T12:36:54Z</time>
      </trkpt>
      <trkpt lat="50.48364" lon="3.03971">
        <ele>18.2</ele>
        <time>2018-06-24T12:36:58Z</time>
      </trkpt>
      <trkpt lat="50.48371" lon="3.03986">
        <ele>17.6</ele>
        <time>2018-06-24T12:37:02Z</time>
      </trkpt>
      <trkpt lat="50.48378" lon="3.04">
        <ele>18.4</ele>
        <time>2018-06-24T12:37:06Z</time>
      </trkpt>
      <trkpt lat="50.48384" lon="3.04012">
        <ele>18.4</ele>
        <time>2018-06-24T12:37:10Z</time>
      </trkpt>
      <trkpt lat="50.48388" lon="3.0402">
        <ele>18.8</ele>
        <time>2018-06-24T12:37:14Z</time>
      </trkpt>
      <trkpt lat="50.4839" lon="3.04026">
        <ele>19</ele>
        <time>2018-06-24T12:37:18Z</time>
      </trkpt>
      <trkpt lat="50.48392" lon="3.04031">
        <ele>19.2</ele>
        <time>2018-06-24T12:37:22Z</time>
      </trkpt>
      <trkpt lat="50.48392" lon="3.04031">
        <ele>19.2</ele>
        <time>2018-06-24T12:37:26Z</time>
      </trkpt>
      <trkpt lat="50.48394" lon="3.04035">
        <ele>19.4</ele>
        <time>2018-06-24T12:37:30Z</time>
      </trkpt>
      <trkpt lat="50.48396" lon="3.04039">
        <ele>19.2</ele>
        <time>2018-06-24T12:37:34Z</time>
      </trkpt>
      <trkpt lat="50.48398" lon="3.04039">
        <ele>19.2</ele>
        <time>2018-06-24T12:37:38Z</time>
      </trkpt>
      <trkpt lat="50.48393" lon="3.04031">
        <ele>19</ele>
        <time>2018-06-24T12:37:42Z</time>
      </trkpt>
      <trkpt lat="50.48387" lon="3.0402">
        <ele>18.6</ele>
        <time>2018-06-24T12:37:46Z</time>
      </trkpt>
      <trkpt lat="50.48381" lon="3.04005">
        <ele>18.4</ele>
        <time>2018-06-24T12:37:50Z</time>
      </trkpt>
      <trkpt lat="50.48374" lon="3.03989">
        <ele>18.2</ele>
        <time>2018-06-24T12:37:54Z</time>
      </trkpt>
      <trkpt lat="50.48366" lon="3.03971">
        <ele>18.2</ele>
        <time>2018-06-24T12:37:58Z</time>
      </trkpt>
      <trkpt lat="50.48358" lon="3.03954">
        <ele>17.8</ele>
        <time>2018-06-24T12:38:02Z</time>
      </trkpt>
      <trkpt lat="50.4835" lon="3.03935">
        <ele>17.2</ele>
        <time>2018-06-24T12:38:06Z</time>
      </trkpt>
      <trkpt lat="50.48341" lon="3.03915">
        <ele>17.2</ele>
        <time>2018-06-24T12:38:10Z</time>
      </trkpt>
      <trkpt lat="50.48335" lon="3.03899">
        <ele>17</ele>
        <time>2018-06-24T12:38:14Z</time>
      </trkpt>
      <trkpt lat="50.48331" lon="3.03884">
        <ele>16.6</ele>
        <time>2018-06-24T12:38:18Z</time>
      </trkpt>
      <trkpt lat="50.48328" lon="3.03875">
        <ele>16.6</ele>
        <time>2018-06-24T12:38:22Z</time>
      </trkpt>
      <trkpt lat="50.48328" lon="3.03875">
        <ele>16.4</ele>
        <time>2018-06-24T12:38:26Z</time>
      </trkpt>
      <trkpt lat="50.48328" lon="3.03875">
        <ele>16.4</ele>
        <time>2018-06-24T12:38:30Z</time>
      </trkpt>
      <trkpt lat="50.48328" lon="3.03875">
        <ele>16.2</ele>
        <time>2018-06-24T12:38:34Z</time>
      </trkpt>
      <trkpt lat="50.48328" lon="3.03875">
        <ele>16.2</ele>
        <time>2018-06-24T12:38:38Z</time>
      </trkpt>
      <trkpt lat="50.48326" lon="3.03872">
        <ele>16.4</ele>
        <time>2018-06-24T12:38:42Z</time>
      </trkpt>
      <trkpt lat="50.48327" lon="3.03865">
        <ele>16</ele>
        <time>2018-06-24T12:38:46Z</time>
      </trkpt>
      <trkpt lat="50.48328" lon="3.03856">
        <ele>15.8</ele>
        <time>2018-06-24T12:38:50Z</time>
      </trkpt>
      <trkpt lat="50.4833" lon="3.03846">
        <ele>16.2</ele>
        <time>2018-06-24T12:38:54Z</time>
      </trkpt>
      <trkpt lat="50.48333" lon="3.03835">
        <ele>16.4</ele>
        <time>2018-06-24T12:38:58Z</time>
      </trkpt>
      <trkpt lat="50.48335" lon="3.03822">
        <ele>16</ele>
        <time>2018-06-24T12:39:02Z</time>
      </trkpt>
      <trkpt lat="50.48337" lon="3.03809">
        <ele>15.6</ele>
        <time>2018-06-24T12:39:06Z</time>
      </trkpt>
      <trkpt lat="50.48335" lon="3.03794">
        <ele>15.6</ele>
        <time>2018-06-24T12:39:10Z</time>
      </trkpt>
      <trkpt lat="50.48333" lon="3.03777">
        <ele>15.8</ele>
        <time>2018-06-24T12:39:14Z</time>
      </trkpt>
      <trkpt lat="50.48328" lon="3.0377">
        <ele>15.4</ele>
        <time>2018-06-24T12:39:18Z</time>
      </trkpt>
      <trkpt lat="50.48321" lon="3.03771">
        <ele>15</ele>
        <time>2018-06-24T12:39:22Z</time>
      </trkpt>
      <trkpt lat="50.48316" lon="3.03776">
        <ele>15.2</ele>
        <time>2018-06-24T12:39:26Z</time>
      </trkpt>
      <trkpt lat="50.4831" lon="3.03784">
        <ele>15.2</ele>
        <time>2018-06-24T12:39:30Z</time>
      </trkpt>
      <trkpt lat="50.48305" lon="3.03794">
        <ele>15</ele>
        <time>2018-06-24T12:39:34Z</time>
      </trkpt>
      <trkpt lat="50.48298" lon="3.03802">
        <ele>15.4</ele>
        <time>2018-06-24T12:39:38Z</time>
      </trkpt>
      <trkpt lat="50.48291" lon="3.03811">
        <ele>15.2</ele>
        <time>2018-06-24T12:39:42Z</time>
      </trkpt>
      <trkpt lat="50.48284" lon="3.0382">
        <ele>15.2</ele>
        <time>2018-06-24T12:39:46Z</time>
      </trkpt>
      <trkpt lat="50.48279" lon="3.0383">
        <ele>14.8</ele>
        <time>2018-06-24T12:39:50Z</time>
      </trkpt>
      <trkpt lat="50.48276" lon="3.0384">
        <ele>15.2</ele>
        <time>2018-06-24T12:39:54Z</time>
      </trkpt>
      <trkpt lat="50.48273" lon="3.03847">
        <ele>15.2</ele>
        <time>2018-06-24T12:39:58Z</time>
      </trkpt>
      <trkpt lat="50.48271" lon="3.03851">
        <ele>15.2</ele>
        <time>2018-06-24T12:40:02Z</time>
      </trkpt>
      <trkpt lat="50.48271" lon="3.03851">
        <ele>15</ele>
        <time>2018-06-24T12:40:06Z</time>
      </trkpt>
      <trkpt lat="50.48271" lon="3.03851">
        <ele>15</ele>
        <time>2018-06-24T12:40:10Z</time>
      </trkpt>
      <trkpt lat="50.48271" lon="3.03851">
        <ele>14.6</ele>
        <time>2018-06-24T12:40:14Z</time>
      </trkpt>
      <trkpt lat="50.48271" lon="3.03851">
        <ele>14.6</ele>
        <time>2018-06-24T12:40:18Z</time>
      </trkpt>
      <trkpt lat="50.48273" lon="3.03851">
        <ele>14.6</ele>
        <time>2018-06-24T12:40:22Z</time>
      </trkpt>
      <trkpt lat="50.48273" lon="3.03848">
        <ele>14.8</ele>
        <time>2018-06-24T12:40:26Z</time>
      </trkpt>
      <trkpt lat="50.48276" lon="3.03843">
        <ele>15.2</ele>
        <time>2018-06-24T12:40:30Z</time>
      </trkpt>
      <trkpt lat="50.48277" lon="3.03836">
        <ele>15.6</ele>
        <time>2018-06-24T12:40:34Z</time>
      </trkpt>
      <trkpt lat="50.48279" lon="3.03831">
        <ele>15.2</ele>
        <time>2018-06-24T12:40:38Z</time>
      </trkpt>
      <trkpt lat="50.48281" lon="3.03826">
        <ele>14.6</ele>
        <time>2018-06-24T12:40:42Z</time>
      </trkpt>
      <trkpt lat="50.48284" lon="3.03822">
        <ele>15</ele>
        <time>2018-06-24T12:40:46Z</time>
      </trkpt>
      <trkpt lat="50.48286" lon="3.03816">
        <ele>15</ele>
        <time>2018-06-24T12:40:50Z</time>
      </trkpt>
      <trkpt lat="50.48289" lon="3.0381">
        <ele>14.4</ele>
        <time>2018-06-24T12:40:54Z</time>
      </trkpt>
      <trkpt lat="50.48292" lon="3.03806">
        <ele>15.2</ele>
        <time>2018-06-24T12:40:58Z</time>
      </trkpt>
      <trkpt lat="50.48296" lon="3.03801">
        <ele>15.4</ele>
        <time>2018-06-24T12:41:02Z</time>
      </trkpt>
      <trkpt lat="50.48299" lon="3.03796">
        <ele>15.8</ele>
        <time>2018-06-24T12:41:06Z</time>
      </trkpt>
      <trkpt lat="50.48302" lon="3.03792">
        <ele>15.6</ele>
        <time>2018-06-24T12:41:10Z</time>
      </trkpt>
      <trkpt lat="50.48305" lon="3.03787">
        <ele>15.4</ele>
        <time>2018-06-24T12:41:14Z</time>
      </trkpt>
      <trkpt lat="50.48309" lon="3.03783">
        <ele>15.8</ele>
        <time>2018-06-24T12:41:18Z</time>
      </trkpt>
      <trkpt lat="50.48314" lon="3.03779">
        <ele>15.6</ele>
        <time>2018-06-24T12:41:22Z</time>
      </trkpt>
      <trkpt lat="50.48318" lon="3.03775">
        <ele>15.6</ele>
        <time>2018-06-24T12:41:26Z</time>
      </trkpt>
      <trkpt lat="50.48322" lon="3.03771">
        <ele>15.4</ele>
        <time>2018-06-24T12:41:30Z</time>
      </trkpt>
      <trkpt lat="50.48325" lon="3.03768">
        <ele>15.4</ele>
        <time>2018-06-24T12:41:34Z</time>
      </trkpt>
      <trkpt lat="50.48328" lon="3.03768">
        <ele>15.8</ele>
        <time>2018-06-24T12:41:38Z</time>
      </trkpt>
      <trkpt lat="50.48328" lon="3.03768">
        <ele>15.6</ele>
        <time>2018-06-24T12:41:42Z</time>
      </trkpt>
      <trkpt lat="50.48328" lon="3.03768">
        <ele>15.8</ele>
        <time>2018-06-24T12:41:46Z</time>
      </trkpt>
      <trkpt lat="50.48328" lon="3.03768">
        <ele>15.4</ele>
        <time>2018-06-24T12:41:50Z</time>
      </trkpt>
      <trkpt lat="50.48328" lon="3.03768">
        <ele>15.4</ele>
        <time>2018-06-24T12:41:54Z</time>
      </trkpt>
      <trkpt lat="50.48328" lon="3.03768">
        <ele>15.6</ele>
        <time>2018-06-24T12:41:58Z</time>
      </trkpt>
      <trkpt lat="50.48328" lon="3.03768">
        <ele>15.6</ele>
        <time>2018-06-24T12:42:02Z</time>
      </trkpt>
      <trkpt lat="50.48328" lon="3.03768">
        <ele>15.4</ele>
        <time>2018-06-24T12:42:06Z</time>
      </trkpt>
      <trkpt lat="50.48328" lon="3.03768">
        <ele>15.4</ele>
        <time>2018-06-24T12:42:10Z</time>
      </trkpt>
      <trkpt lat="50.48328" lon="3.03768">
        <ele>15.6</ele>
        <time>2018-06-24T12:42:14Z</time>
      </trkpt>
      <trkpt lat="50.48328" lon="3.03768">
        <ele>15.6</ele>
        <time>2018-06-24T12:42:18Z</time>
      </trkpt>
      <trkpt lat="50.4833" lon="3.0377">
        <ele>15.8</ele>
        <time>2018-06-24T12:42:22Z</time>
      </trkpt>
      <trkpt lat="50.48332" lon="3.03774">
        <ele>16</ele>
        <time>2018-06-24T12:42:26Z</time>
      </trkpt>
      <trkpt lat="50.48334" lon="3.03784">
        <ele>16.2</ele>
        <time>2018-06-24T12:42:30Z</time>
      </trkpt>
      <trkpt lat="50.48335" lon="3.03801">
        <ele>16.2</ele>
        <time>2018-06-24T12:42:34Z</time>
      </trkpt>
      <trkpt lat="50.48335" lon="3.03818">
        <ele>16.6</ele>
        <time>2018-06-24T12:42:38Z</time>
      </trkpt>
      <trkpt lat="50.48332" lon="3.03836">
        <ele>17</ele>
        <time>2018-06-24T12:42:42Z</time>
      </trkpt>
      <trkpt lat="50.48327" lon="3.03855">
        <ele>16.8</ele>
        <time>2018-06-24T12:42:46Z</time>
      </trkpt>
      <trkpt lat="50.48328" lon="3.03874">
        <ele>17.8</ele>
        <time>2018-06-24T12:42:50Z</time>
      </trkpt>
      <trkpt lat="50.48332" lon="3.03892">
        <ele>17.8</ele>
        <time>2018-06-24T12:42:54Z</time>
      </trkpt>
      <trkpt lat="50.48337" lon="3.03909">
        <ele>18</ele>
        <time>2018-06-24T12:42:58Z</time>
      </trkpt>
      <trkpt lat="50.48344" lon="3.03925">
        <ele>17.8</ele>
        <time>2018-06-24T12:43:02Z</time>
      </trkpt>
      <trkpt lat="50.48351" lon="3.03941">
        <ele>18.4</ele>
        <time>2018-06-24T12:43:06Z</time>
      </trkpt>
      <trkpt lat="50.48357" lon="3.03956">
        <ele>18.4</ele>
        <time>2018-06-24T12:43:10Z</time>
      </trkpt>
      <trkpt lat="50.48365" lon="3.03971">
        <ele>19.6</ele>
        <time>2018-06-24T12:43:14Z</time>
      </trkpt>
      <trkpt lat="50.48372" lon="3.03988">
        <ele>19.2</ele>
        <time>2018-06-24T12:43:18Z</time>
      </trkpt>
      <trkpt lat="50.48379" lon="3.04004">
        <ele>19.8</ele>
        <time>2018-06-24T12:43:22Z</time>
      </trkpt>
      <trkpt lat="50.48387" lon="3.0402">
        <ele>19.2</ele>
        <time>2018-06-24T12:43:26Z</time>
      </trkpt>
      <trkpt lat="50.48393" lon="3.04036">
        <ele>19.8</ele>
        <time>2018-06-24T12:43:30Z</time>
      </trkpt>
      <trkpt lat="50.484" lon="3.04052">
        <ele>20.4</ele>
        <time>2018-06-24T12:43:34Z</time>
      </trkpt>
      <trkpt lat="50.48406" lon="3.04065">
        <ele>20.8</ele>
        <time>2018-06-24T12:43:38Z</time>
      </trkpt>
      <trkpt lat="50.48403" lon="3.04078">
        <ele>20.4</ele>
        <time>2018-06-24T12:43:42Z</time>
      </trkpt>
      <trkpt lat="50.48394" lon="3.04091">
        <ele>21.2</ele>
        <time>2018-06-24T12:43:46Z</time>
      </trkpt>
      <trkpt lat="50.48384" lon="3.04105">
        <ele>21.6</ele>
        <time>2018-06-24T12:43:50Z</time>
      </trkpt>
      <trkpt lat="50.48375" lon="3.04119">
        <ele>20.6</ele>
        <time>2018-06-24T12:43:54Z</time>
      </trkpt>
      <trkpt lat="50.48369" lon="3.04129">
        <ele>21</ele>
        <time>2018-06-24T12:43:58Z</time>
      </trkpt>
      <trkpt lat="50.48366" lon="3.04134">
        <ele>21.2</ele>
        <time>2018-06-24T12:44:02Z</time>
      </trkpt>
      <trkpt lat="50.48369" lon="3.0414">
        <ele>21.4</ele>
        <time>2018-06-24T12:44:06Z</time>
      </trkpt>
      <trkpt lat="50.48375" lon="3.04147">
        <ele>21.2</ele>
        <time>2018-06-24T12:44:10Z</time>
      </trkpt>
      <trkpt lat="50.4838" lon="3.04159">
        <ele>21.8</ele>
        <time>2018-06-24T12:44:14Z</time>
      </trkpt>
      <trkpt lat="50.48386" lon="3.04174">
        <ele>21.8</ele>
        <time>2018-06-24T12:44:18Z</time>
      </trkpt>
      <trkpt lat="50.48391" lon="3.04188">
        <ele>21.8</ele>
        <time>2018-06-24T12:44:22Z</time>
      </trkpt>
      <trkpt lat="50.48397" lon="3.04204">
        <ele>22</ele>
        <time>2018-06-24T12:44:26Z</time>
      </trkpt>
      <trkpt lat="50.48403" lon="3.04221">
        <ele>22.6</ele>
        <time>2018-06-24T12:44:30Z</time>
      </trkpt>
      <trkpt lat="50.4841" lon="3.04236">
        <ele>22.6</ele>
        <time>2018-06-24T12:44:34Z</time>
      </trkpt>
      <trkpt lat="50.48417" lon="3.04254">
        <ele>22.6</ele>
        <time>2018-06-24T12:44:38Z</time>
      </trkpt>
      <trkpt lat="50.48423" lon="3.04271">
        <ele>23</ele>
        <time>2018-06-24T12:44:42Z</time>
      </trkpt>
      <trkpt lat="50.48429" lon="3.04288">
        <ele>23</ele>
        <time>2018-06-24T12:44:46Z</time>
      </trkpt>
      <trkpt lat="50.48437" lon="3.04304">
        <ele>23.2</ele>
        <time>2018-06-24T12:44:50Z</time>
      </trkpt>
      <trkpt lat="50.48448" lon="3.04313">
        <ele>23.6</ele>
        <time>2018-06-24T12:44:54Z</time>
      </trkpt>
      <trkpt lat="50.4846" lon="3.04309">
        <ele>23.8</ele>
        <time>2018-06-24T12:44:58Z</time>
      </trkpt>
      <trkpt lat="50.48469" lon="3.043">
        <ele>23.6</ele>
        <time>2018-06-24T12:45:02Z</time>
      </trkpt>
      <trkpt lat="50.48477" lon="3.04292">
        <ele>23.4</ele>
        <time>2018-06-24T12:45:06Z</time>
      </trkpt>
      <trkpt lat="50.48486" lon="3.04288">
        <ele>23.6</ele>
        <time>2018-06-24T12:45:10Z</time>
      </trkpt>
      <trkpt lat="50.48492" lon="3.04284">
        <ele>23.2</ele>
        <time>2018-06-24T12:45:14Z</time>
      </trkpt>
      <trkpt lat="50.48497" lon="3.04288">
        <ele>23.4</ele>
        <time>2018-06-24T12:45:18Z</time>
      </trkpt>
      <trkpt lat="50.485" lon="3.04302">
        <ele>23.2</ele>
        <time>2018-06-24T12:45:22Z</time>
      </trkpt>
      <trkpt lat="50.48501" lon="3.04319">
        <ele>23.2</ele>
        <time>2018-06-24T12:45:26Z</time>
      </trkpt>
      <trkpt lat="50.48504" lon="3.04331">
        <ele>23.6</ele>
        <time>2018-06-24T12:45:30Z</time>
      </trkpt>
      <trkpt lat="50.48507" lon="3.04338">
        <ele>23.6</ele>
        <time>2018-06-24T12:45:34Z</time>
      </trkpt>
      <trkpt lat="50.48511" lon="3.04351">
        <ele>23.4</ele>
        <time>2018-06-24T12:45:38Z</time>
      </trkpt>
      <trkpt lat="50.48511" lon="3.04371">
        <ele>23.8</ele>
        <time>2018-06-24T12:45:42Z</time>
      </trkpt>
      <trkpt lat="50.4851" lon="3.0439">
        <ele>24.4</ele>
        <time>2018-06-24T12:45:46Z</time>
      </trkpt>
      <trkpt lat="50.48509" lon="3.04409">
        <ele>24.2</ele>
        <time>2018-06-24T12:45:50Z</time>
      </trkpt>
      <trkpt lat="50.48509" lon="3.04426">
        <ele>24</ele>
        <time>2018-06-24T12:45:54Z</time>
      </trkpt>
      <trkpt lat="50.48508" lon="3.0444">
        <ele>23.8</ele>
        <time>2018-06-24T12:45:58Z</time>
      </trkpt>
      <trkpt lat="50.4851" lon="3.04451">
        <ele>23.8</ele>
        <time>2018-06-24T12:46:02Z</time>
      </trkpt>
      <trkpt lat="50.48512" lon="3.04467">
        <ele>24.2</ele>
        <time>2018-06-24T12:46:06Z</time>
      </trkpt>
      <trkpt lat="50.48521" lon="3.04483">
        <ele>24.8</ele>
        <time>2018-06-24T12:46:10Z</time>
      </trkpt>
      <trkpt lat="50.48535" lon="3.04489">
        <ele>25</ele>
        <time>2018-06-24T12:46:14Z</time>
      </trkpt>
      <trkpt lat="50.48549" lon="3.04491">
        <ele>24.2</ele>
        <time>2018-06-24T12:46:18Z</time>
      </trkpt>
      <trkpt lat="50.48563" lon="3.04495">
        <ele>24.2</ele>
        <time>2018-06-24T12:46:22Z</time>
      </trkpt>
      <trkpt lat="50.48576" lon="3.045">
        <ele>24.4</ele>
        <time>2018-06-24T12:46:26Z</time>
      </trkpt>
      <trkpt lat="50.48589" lon="3.04507">
        <ele>24</ele>
        <time>2018-06-24T12:46:30Z</time>
      </trkpt>
      <trkpt lat="50.48603" lon="3.04513">
        <ele>23.4</ele>
        <time>2018-06-24T12:46:34Z</time>
      </trkpt>
      <trkpt lat="50.48618" lon="3.0452">
        <ele>23.4</ele>
        <time>2018-06-24T12:46:38Z</time>
      </trkpt>
      <trkpt lat="50.48633" lon="3.04527">
        <ele>23.2</ele>
        <time>2018-06-24T12:46:42Z</time>
      </trkpt>
      <trkpt lat="50.48648" lon="3.04535">
        <ele>23.2</ele>
        <time>2018-06-24T12:46:46Z</time>
      </trkpt>
      <trkpt lat="50.48664" lon="3.04544">
        <ele>22.4</ele>
        <time>2018-06-24T12:46:50Z</time>
      </trkpt>
      <trkpt lat="50.4868" lon="3.04559">
        <ele>22.6</ele>
        <time>2018-06-24T12:46:54Z</time>
      </trkpt>
      <trkpt lat="50.48694" lon="3.04575">
        <ele>21.6</ele>
        <time>2018-06-24T12:46:58Z</time>
      </trkpt>
      <trkpt lat="50.48708" lon="3.04594">
        <ele>21.6</ele>
        <time>2018-06-24T12:47:02Z</time>
      </trkpt>
      <trkpt lat="50.48723" lon="3.04614">
        <ele>21.4</ele>
        <time>2018-06-24T12:47:06Z</time>
      </trkpt>
      <trkpt lat="50.48739" lon="3.04635">
        <ele>21.6</ele>
        <time>2018-06-24T12:47:10Z</time>
      </trkpt>
      <trkpt lat="50.48756" lon="3.04656">
        <ele>20.8</ele>
        <time>2018-06-24T12:47:14Z</time>
      </trkpt>
      <trkpt lat="50.48772" lon="3.04678">
        <ele>20</ele>
        <time>2018-06-24T12:47:18Z</time>
      </trkpt>
      <trkpt lat="50.48788" lon="3.04699">
        <ele>19.2</ele>
        <time>2018-06-24T12:47:22Z</time>
      </trkpt>
      <trkpt lat="50.48803" lon="3.04718">
        <ele>19</ele>
        <time>2018-06-24T12:47:26Z</time>
      </trkpt>
      <trkpt lat="50.48818" lon="3.04736">
        <ele>19.2</ele>
        <time>2018-06-24T12:47:30Z</time>
      </trkpt>
      <trkpt lat="50.48829" lon="3.0476">
        <ele>18.6</ele>
        <time>2018-06-24T12:47:34Z</time>
      </trkpt>
      <trkpt lat="50.4884" lon="3.04781">
        <ele>18.4</ele>
        <time>2018-06-24T12:47:38Z</time>
      </trkpt>
      <trkpt lat="50.4885" lon="3.04802">
        <ele>18</ele>
        <time>2018-06-24T12:47:42Z</time>
      </trkpt>
      <trkpt lat="50.48859" lon="3.04821">
        <ele>18.4</ele>
        <time>2018-06-24T12:47:46Z</time>
      </trkpt>
      <trkpt lat="50.48866" lon="3.04839">
        <ele>18</ele>
        <time>2018-06-24T12:47:50Z</time>
      </trkpt>
      <trkpt lat="50.48869" lon="3.04858">
        <ele>17.6</ele>
        <time>2018-06-24T12:47:54Z</time>
      </trkpt>
      <trkpt lat="50.48868" lon="3.0488">
        <ele>17.2</ele>
        <time>2018-06-24T12:47:58Z</time>
      </trkpt>
      <trkpt lat="50.48857" lon="3.04901">
        <ele>17.2</ele>
        <time>2018-06-24T12:48:02Z</time>
      </trkpt>
      <trkpt lat="50.48846" lon="3.04921">
        <ele>16.6</ele>
        <time>2018-06-24T12:48:06Z</time>
      </trkpt>
      <trkpt lat="50.48835" lon="3.04942">
        <ele>16.6</ele>
        <time>2018-06-24T12:48:10Z</time>
      </trkpt>
      <trkpt lat="50.48824" lon="3.04962">
        <ele>16.6</ele>
        <time>2018-06-24T12:48:14Z</time>
      </trkpt>
      <trkpt lat="50.48814" lon="3.04982">
        <ele>16.2</ele>
        <time>2018-06-24T12:48:18Z</time>
      </trkpt>
      <trkpt lat="50.48804" lon="3.05002">
        <ele>16.8</ele>
        <time>2018-06-24T12:48:22Z</time>
      </trkpt>
      <trkpt lat="50.48792" lon="3.05023">
        <ele>16.6</ele>
        <time>2018-06-24T12:48:26Z</time>
      </trkpt>
      <trkpt lat="50.48782" lon="3.05042">
        <ele>15.8</ele>
        <time>2018-06-24T12:48:30Z</time>
      </trkpt>
      <trkpt lat="50.48773" lon="3.05065">
        <ele>16.2</ele>
        <time>2018-06-24T12:48:34Z</time>
      </trkpt>
      <trkpt lat="50.48765" lon="3.05088">
        <ele>15.2</ele>
        <time>2018-06-24T12:48:38Z</time>
      </trkpt>
      <trkpt lat="50.48757" lon="3.05111">
        <ele>14.6</ele>
        <time>2018-06-24T12:48:42Z</time>
      </trkpt>
      <trkpt lat="50.48748" lon="3.05134">
        <ele>14.4</ele>
        <time>2018-06-24T12:48:46Z</time>
      </trkpt>
      <trkpt lat="50.48739" lon="3.05154">
        <ele>14.2</ele>
        <time>2018-06-24T12:48:50Z</time>
      </trkpt>
      <trkpt lat="50.48728" lon="3.05174">
        <ele>14.2</ele>
        <time>2018-06-24T12:48:54Z</time>
      </trkpt>
      <trkpt lat="50.48721" lon="3.05194">
        <ele>14.2</ele>
        <time>2018-06-24T12:48:58Z</time>
      </trkpt>
      <trkpt lat="50.48716" lon="3.05216">
        <ele>14</ele>
        <time>2018-06-24T12:49:02Z</time>
      </trkpt>
      <trkpt lat="50.48716" lon="3.05216">
        <ele>13.4</ele>
        <time>2018-06-24T12:49:06Z</time>
      </trkpt>
      <trkpt lat="50.48716" lon="3.05216">
        <ele>13.2</ele>
        <time>2018-06-24T12:49:10Z</time>
      </trkpt>
      <trkpt lat="50.48714" lon="3.05226">
        <ele>13.6</ele>
        <time>2018-06-24T12:49:14Z</time>
      </trkpt>
      <trkpt lat="50.48712" lon="3.05231">
        <ele>13.4</ele>
        <time>2018-06-24T12:49:18Z</time>
      </trkpt>
      <trkpt lat="50.48712" lon="3.05231">
        <ele>13.6</ele>
        <time>2018-06-24T12:49:22Z</time>
      </trkpt>
      <trkpt lat="50.48711" lon="3.05234">
        <ele>13.6</ele>
        <time>2018-06-24T12:49:26Z</time>
      </trkpt>
      <trkpt lat="50.48709" lon="3.05239">
        <ele>13.4</ele>
        <time>2018-06-24T12:49:30Z</time>
      </trkpt>
      <trkpt lat="50.48707" lon="3.05247">
        <ele>13.6</ele>
        <time>2018-06-24T12:49:34Z</time>
      </trkpt>
      <trkpt lat="50.48704" lon="3.05255">
        <ele>13.4</ele>
        <time>2018-06-24T12:49:38Z</time>
      </trkpt>
      <trkpt lat="50.487" lon="3.05265">
        <ele>13.4</ele>
        <time>2018-06-24T12:49:42Z</time>
      </trkpt>
      <trkpt lat="50.48699" lon="3.05275">
        <ele>13.2</ele>
        <time>2018-06-24T12:49:46Z</time>
      </trkpt>
      <trkpt lat="50.48696" lon="3.05287">
        <ele>12.8</ele>
        <time>2018-06-24T12:49:50Z</time>
      </trkpt>
      <trkpt lat="50.48695" lon="3.053">
        <ele>13</ele>
        <time>2018-06-24T12:49:54Z</time>
      </trkpt>
      <trkpt lat="50.48692" lon="3.05315">
        <ele>12.8</ele>
        <time>2018-06-24T12:49:58Z</time>
      </trkpt>
      <trkpt lat="50.48687" lon="3.0533">
        <ele>12.6</ele>
        <time>2018-06-24T12:50:02Z</time>
      </trkpt>
      <trkpt lat="50.48681" lon="3.05346">
        <ele>12.8</ele>
        <time>2018-06-24T12:50:06Z</time>
      </trkpt>
      <trkpt lat="50.48676" lon="3.05359">
        <ele>12.6</ele>
        <time>2018-06-24T12:50:10Z</time>
      </trkpt>
      <trkpt lat="50.48671" lon="3.05374">
        <ele>11.6</ele>
        <time>2018-06-24T12:50:14Z</time>
      </trkpt>
      <trkpt lat="50.48666" lon="3.05389">
        <ele>12.4</ele>
        <time>2018-06-24T12:50:18Z</time>
      </trkpt>
      <trkpt lat="50.48663" lon="3.05412">
        <ele>11.6</ele>
        <time>2018-06-24T12:50:22Z</time>
      </trkpt>
      <trkpt lat="50.4866" lon="3.05433">
        <ele>12</ele>
        <time>2018-06-24T12:50:26Z</time>
      </trkpt>
      <trkpt lat="50.48657" lon="3.05453">
        <ele>11.8</ele>
        <time>2018-06-24T12:50:30Z</time>
      </trkpt>
      <trkpt lat="50.48654" lon="3.05472">
        <ele>11.8</ele>
        <time>2018-06-24T12:50:34Z</time>
      </trkpt>
      <trkpt lat="50.4865" lon="3.05488">
        <ele>11.8</ele>
        <time>2018-06-24T12:50:38Z</time>
      </trkpt>
      <trkpt lat="50.48643" lon="3.05506">
        <ele>11.4</ele>
        <time>2018-06-24T12:50:42Z</time>
      </trkpt>
      <trkpt lat="50.48641" lon="3.05528">
        <ele>11.2</ele>
        <time>2018-06-24T12:50:46Z</time>
      </trkpt>
      <trkpt lat="50.48638" lon="3.05547">
        <ele>10.4</ele>
        <time>2018-06-24T12:50:50Z</time>
      </trkpt>
      <trkpt lat="50.48633" lon="3.05566">
        <ele>10.8</ele>
        <time>2018-06-24T12:50:54Z</time>
      </trkpt>
      <trkpt lat="50.48627" lon="3.05588">
        <ele>10.2</ele>
        <time>2018-06-24T12:50:58Z</time>
      </trkpt>
      <trkpt lat="50.48619" lon="3.05616">
        <ele>10.2</ele>
        <time>2018-06-24T12:51:02Z</time>
      </trkpt>
      <trkpt lat="50.48612" lon="3.05642">
        <ele>10.2</ele>
        <time>2018-06-24T12:51:06Z</time>
      </trkpt>
      <trkpt lat="50.48603" lon="3.05667">
        <ele>10.2</ele>
        <time>2018-06-24T12:51:10Z</time>
      </trkpt>
      <trkpt lat="50.48596" lon="3.05694">
        <ele>10.8</ele>
        <time>2018-06-24T12:51:14Z</time>
      </trkpt>
      <trkpt lat="50.48592" lon="3.05719">
        <ele>9.6</ele>
        <time>2018-06-24T12:51:18Z</time>
      </trkpt>
      <trkpt lat="50.48585" lon="3.05744">
        <ele>9.8</ele>
        <time>2018-06-24T12:51:22Z</time>
      </trkpt>
      <trkpt lat="50.48578" lon="3.05765">
        <ele>9.4</ele>
        <time>2018-06-24T12:51:26Z</time>
      </trkpt>
      <trkpt lat="50.48571" lon="3.05789">
        <ele>9.2</ele>
        <time>2018-06-24T12:51:30Z</time>
      </trkpt>
      <trkpt lat="50.48566" lon="3.05811">
        <ele>10</ele>
        <time>2018-06-24T12:51:34Z</time>
      </trkpt>
      <trkpt lat="50.48562" lon="3.0583">
        <ele>9.8</ele>
        <time>2018-06-24T12:51:38Z</time>
      </trkpt>
      <trkpt lat="50.48553" lon="3.05851">
        <ele>9.2</ele>
        <time>2018-06-24T12:51:42Z</time>
      </trkpt>
      <trkpt lat="50.48548" lon="3.05877">
        <ele>9.4</ele>
        <time>2018-06-24T12:51:46Z</time>
      </trkpt>
      <trkpt lat="50.48542" lon="3.05897">
        <ele>9.4</ele>
        <time>2018-06-24T12:51:50Z</time>
      </trkpt>
      <trkpt lat="50.48534" lon="3.05921">
        <ele>9.2</ele>
        <time>2018-06-24T12:51:54Z</time>
      </trkpt>
      <trkpt lat="50.48528" lon="3.05946">
        <ele>9.4</ele>
        <time>2018-06-24T12:51:58Z</time>
      </trkpt>
      <trkpt lat="50.48523" lon="3.05973">
        <ele>9.2</ele>
        <time>2018-06-24T12:52:02Z</time>
      </trkpt>
      <trkpt lat="50.48518" lon="3.05999">
        <ele>8.6</ele>
        <time>2018-06-24T12:52:06Z</time>
      </trkpt>
      <trkpt lat="50.4851" lon="3.06022">
        <ele>9</ele>
        <time>2018-06-24T12:52:10Z</time>
      </trkpt>
      <trkpt lat="50.48505" lon="3.06042">
        <ele>8.8</ele>
        <time>2018-06-24T12:52:14Z</time>
      </trkpt>
      <trkpt lat="50.48496" lon="3.06064">
        <ele>9.2</ele>
        <time>2018-06-24T12:52:18Z</time>
      </trkpt>
      <trkpt lat="50.4849" lon="3.0609">
        <ele>9</ele>
        <time>2018-06-24T12:52:22Z</time>
      </trkpt>
      <trkpt lat="50.48484" lon="3.06112">
        <ele>8.4</ele>
        <time>2018-06-24T12:52:26Z</time>
      </trkpt>
      <trkpt lat="50.48482" lon="3.06136">
        <ele>9</ele>
        <time>2018-06-24T12:52:30Z</time>
      </trkpt>
      <trkpt lat="50.48477" lon="3.0616">
        <ele>8.4</ele>
        <time>2018-06-24T12:52:34Z</time>
      </trkpt>
      <trkpt lat="50.4847" lon="3.0618">
        <ele>9.2</ele>
        <time>2018-06-24T12:52:38Z</time>
      </trkpt>
      <trkpt lat="50.48464" lon="3.06199">
        <ele>9.2</ele>
        <time>2018-06-24T12:52:42Z</time>
      </trkpt>
      <trkpt lat="50.48454" lon="3.06229">
        <ele>9</ele>
        <time>2018-06-24T12:52:46Z</time>
      </trkpt>
      <trkpt lat="50.48451" lon="3.06248">
        <ele>9</ele>
        <time>2018-06-24T12:52:50Z</time>
      </trkpt>
      <trkpt lat="50.48447" lon="3.06267">
        <ele>9.2</ele>
        <time>2018-06-24T12:52:54Z</time>
      </trkpt>
      <trkpt lat="50.48443" lon="3.06285">
        <ele>8.8</ele>
        <time>2018-06-24T12:52:58Z</time>
      </trkpt>
      <trkpt lat="50.48436" lon="3.06307">
        <ele>8.2</ele>
        <time>2018-06-24T12:53:02Z</time>
      </trkpt>
      <trkpt lat="50.48428" lon="3.06331">
        <ele>8</ele>
        <time>2018-06-24T12:53:06Z</time>
      </trkpt>
      <trkpt lat="50.48421" lon="3.06352">
        <ele>8</ele>
        <time>2018-06-24T12:53:10Z</time>
      </trkpt>
      <trkpt lat="50.48416" lon="3.06375">
        <ele>8</ele>
        <time>2018-06-24T12:53:14Z</time>
      </trkpt>
      <trkpt lat="50.48413" lon="3.06395">
        <ele>8.8</ele>
        <time>2018-06-24T12:53:18Z</time>
      </trkpt>
      <trkpt lat="50.48407" lon="3.06417">
        <ele>8.6</ele>
        <time>2018-06-24T12:53:22Z</time>
      </trkpt>
      <trkpt lat="50.48402" lon="3.06437">
        <ele>8.8</ele>
        <time>2018-06-24T12:53:26Z</time>
      </trkpt>
      <trkpt lat="50.48398" lon="3.06462">
        <ele>9.8</ele>
        <time>2018-06-24T12:53:30Z</time>
      </trkpt>
      <trkpt lat="50.48395" lon="3.06486">
        <ele>9.4</ele>
        <time>2018-06-24T12:53:34Z</time>
      </trkpt>
      <trkpt lat="50.48391" lon="3.0651">
        <ele>10</ele>
        <time>2018-06-24T12:53:38Z</time>
      </trkpt>
      <trkpt lat="50.48385" lon="3.06536">
        <ele>9.2</ele>
        <time>2018-06-24T12:53:42Z</time>
      </trkpt>
      <trkpt lat="50.4838" lon="3.06564">
        <ele>9.8</ele>
        <time>2018-06-24T12:53:46Z</time>
      </trkpt>
      <trkpt lat="50.48368" lon="3.06594">
        <ele>9</ele>
        <time>2018-06-24T12:53:50Z</time>
      </trkpt>
      <trkpt lat="50.48361" lon="3.0662">
        <ele>9.4</ele>
        <time>2018-06-24T12:53:54Z</time>
      </trkpt>
      <trkpt lat="50.48352" lon="3.06645">
        <ele>9.4</ele>
        <time>2018-06-24T12:53:58Z</time>
      </trkpt>
      <trkpt lat="50.48343" lon="3.06666">
        <ele>10</ele>
        <time>2018-06-24T12:54:02Z</time>
      </trkpt>
      <trkpt lat="50.48336" lon="3.06685">
        <ele>10</ele>
        <time>2018-06-24T12:54:06Z</time>
      </trkpt>
      <trkpt lat="50.48329" lon="3.06709">
        <ele>10.2</ele>
        <time>2018-06-24T12:54:10Z</time>
      </trkpt>
      <trkpt lat="50.48323" lon="3.06737">
        <ele>10</ele>
        <time>2018-06-24T12:54:14Z</time>
      </trkpt>
      <trkpt lat="50.48316" lon="3.06763">
        <ele>10.4</ele>
        <time>2018-06-24T12:54:18Z</time>
      </trkpt>
      <trkpt lat="50.48309" lon="3.06793">
        <ele>10.4</ele>
        <time>2018-06-24T12:54:22Z</time>
      </trkpt>
      <trkpt lat="50.48303" lon="3.06818">
        <ele>10.6</ele>
        <time>2018-06-24T12:54:26Z</time>
      </trkpt>
      <trkpt lat="50.48294" lon="3.06843">
        <ele>10.4</ele>
        <time>2018-06-24T12:54:30Z</time>
      </trkpt>
      <trkpt lat="50.48292" lon="3.06869">
        <ele>10.4</ele>
        <time>2018-06-24T12:54:34Z</time>
      </trkpt>
      <trkpt lat="50.48293" lon="3.06898">
        <ele>10.6</ele>
        <time>2018-06-24T12:54:38Z</time>
      </trkpt>
      <trkpt lat="50.48293" lon="3.06925">
        <ele>10</ele>
        <time>2018-06-24T12:54:42Z</time>
      </trkpt>
      <trkpt lat="50.48294" lon="3.06948">
        <ele>10</ele>
        <time>2018-06-24T12:54:46Z</time>
      </trkpt>
      <trkpt lat="50.48295" lon="3.06966">
        <ele>10.4</ele>
        <time>2018-06-24T12:54:50Z</time>
      </trkpt>
      <trkpt lat="50.48295" lon="3.0698">
        <ele>9.8</ele>
        <time>2018-06-24T12:54:54Z</time>
      </trkpt>
      <trkpt lat="50.48295" lon="3.0698">
        <ele>9.8</ele>
        <time>2018-06-24T12:54:58Z</time>
      </trkpt>
      <trkpt lat="50.48294" lon="3.06982">
        <ele>9.6</ele>
        <time>2018-06-24T12:55:02Z</time>
      </trkpt>
      <trkpt lat="50.48292" lon="3.06987">
        <ele>9.6</ele>
        <time>2018-06-24T12:55:06Z</time>
      </trkpt>
      <trkpt lat="50.48292" lon="3.06987">
        <ele>9.6</ele>
        <time>2018-06-24T12:55:10Z</time>
      </trkpt>
      <trkpt lat="50.48292" lon="3.06987">
        <ele>9.6</ele>
        <time>2018-06-24T12:55:14Z</time>
      </trkpt>
      <trkpt lat="50.48291" lon="3.06991">
        <ele>9.6</ele>
        <time>2018-06-24T12:55:18Z</time>
      </trkpt>
      <trkpt lat="50.48291" lon="3.06991">
        <ele>9.8</ele>
        <time>2018-06-24T12:55:22Z</time>
      </trkpt>
      <trkpt lat="50.48291" lon="3.06991">
        <ele>9.6</ele>
        <time>2018-06-24T12:55:26Z</time>
      </trkpt>
      <trkpt lat="50.48291" lon="3.06991">
        <ele>9.8</ele>
        <time>2018-06-24T12:55:30Z</time>
      </trkpt>
      <trkpt lat="50.48291" lon="3.06991">
        <ele>9.8</ele>
        <time>2018-06-24T12:55:34Z</time>
      </trkpt>
      <trkpt lat="50.48291" lon="3.06991">
        <ele>9.8</ele>
        <time>2018-06-24T12:55:38Z</time>
      </trkpt>
      <trkpt lat="50.48291" lon="3.06991">
        <ele>9.6</ele>
        <time>2018-06-24T12:55:42Z</time>
      </trkpt>
      <trkpt lat="50.48291" lon="3.06991">
        <ele>9.8</ele>
        <time>2018-06-24T12:55:46Z</time>
      </trkpt>
      <trkpt lat="50.48291" lon="3.06991">
        <ele>9.8</ele>
        <time>2018-06-24T12:55:50Z</time>
      </trkpt>
      <trkpt lat="50.48291" lon="3.06991">
        <ele>10</ele>
        <time>2018-06-24T12:55:54Z</time>
      </trkpt>
      <trkpt lat="50.48291" lon="3.06991">
        <ele>9.8</ele>
        <time>2018-06-24T12:55:58Z</time>
      </trkpt>
      <trkpt lat="50.48291" lon="3.06991">
        <ele>9.2</ele>
        <time>2018-06-24T12:56:02Z</time>
      </trkpt>
      <trkpt lat="50.48291" lon="3.06991">
        <ele>8.8</ele>
        <time>2018-06-24T12:56:06Z</time>
      </trkpt>
      <trkpt lat="50.48291" lon="3.06991">
        <ele>9.2</ele>
        <time>2018-06-24T12:56:10Z</time>
      </trkpt>
      <trkpt lat="50.48291" lon="3.06991">
        <ele>9.8</ele>
        <time>2018-06-24T12:56:14Z</time>
      </trkpt>
      <trkpt lat="50.48291" lon="3.06991">
        <ele>10</ele>
        <time>2018-06-24T12:56:18Z</time>
      </trkpt>
      <trkpt lat="50.48289" lon="3.06996">
        <ele>10</ele>
        <time>2018-06-24T12:56:22Z</time>
      </trkpt>
      <trkpt lat="50.4829" lon="3.07">
        <ele>9.6</ele>
        <time>2018-06-24T12:56:26Z</time>
      </trkpt>
      <trkpt lat="50.4829" lon="3.07">
        <ele>9.8</ele>
        <time>2018-06-24T12:56:30Z</time>
      </trkpt>
      <trkpt lat="50.48289" lon="3.07006">
        <ele>10</ele>
        <time>2018-06-24T12:56:34Z</time>
      </trkpt>
      <trkpt lat="50.48289" lon="3.07001">
        <ele>9.6</ele>
        <time>2018-06-24T12:56:38Z</time>
      </trkpt>
      <trkpt lat="50.48289" lon="3.07001">
        <ele>9.8</ele>
        <time>2018-06-24T12:56:42Z</time>
      </trkpt>
      <trkpt lat="50.48289" lon="3.07001">
        <ele>9.8</ele>
        <time>2018-06-24T12:56:46Z</time>
      </trkpt>
      <trkpt lat="50.48289" lon="3.07001">
        <ele>9.6</ele>
        <time>2018-06-24T12:56:50Z</time>
      </trkpt>
      <trkpt lat="50.48289" lon="3.07001">
        <ele>9.6</ele>
        <time>2018-06-24T12:56:54Z</time>
      </trkpt>
      <trkpt lat="50.48289" lon="3.07001">
        <ele>10</ele>
        <time>2018-06-24T12:56:58Z</time>
      </trkpt>
      <trkpt lat="50.48289" lon="3.07001">
        <ele>9.8</ele>
        <time>2018-06-24T12:57:02Z</time>
      </trkpt>
      <trkpt lat="50.48287" lon="3.06997">
        <ele>10.2</ele>
        <time>2018-06-24T12:57:06Z</time>
      </trkpt>
      <trkpt lat="50.48287" lon="3.06997">
        <ele>10</ele>
        <time>2018-06-24T12:57:10Z</time>
      </trkpt>
      <trkpt lat="50.48288" lon="3.06999">
        <ele>10.4</ele>
        <time>2018-06-24T12:57:14Z</time>
      </trkpt>
      <trkpt lat="50.4829" lon="3.07007">
        <ele>10.4</ele>
        <time>2018-06-24T12:57:18Z</time>
      </trkpt>
      <trkpt lat="50.48289" lon="3.07017">
        <ele>10</ele>
        <time>2018-06-24T12:57:22Z</time>
      </trkpt>
      <trkpt lat="50.48283" lon="3.07022">
        <ele>10</ele>
        <time>2018-06-24T12:57:26Z</time>
      </trkpt>
      <trkpt lat="50.48274" lon="3.07024">
        <ele>10.4</ele>
        <time>2018-06-24T12:57:30Z</time>
      </trkpt>
      <trkpt lat="50.48264" lon="3.07026">
        <ele>10.4</ele>
        <time>2018-06-24T12:57:34Z</time>
      </trkpt>
      <trkpt lat="50.48253" lon="3.07029">
        <ele>10.4</ele>
        <time>2018-06-24T12:57:38Z</time>
      </trkpt>
      <trkpt lat="50.48241" lon="3.07032">
        <ele>10.6</ele>
        <time>2018-06-24T12:57:42Z</time>
      </trkpt>
      <trkpt lat="50.48228" lon="3.07037">
        <ele>10.6</ele>
        <time>2018-06-24T12:57:46Z</time>
      </trkpt>
      <trkpt lat="50.48215" lon="3.07042">
        <ele>11</ele>
        <time>2018-06-24T12:57:50Z</time>
      </trkpt>
      <trkpt lat="50.48202" lon="3.07048">
        <ele>10.8</ele>
        <time>2018-06-24T12:57:54Z</time>
      </trkpt>
      <trkpt lat="50.48188" lon="3.07052">
        <ele>11.4</ele>
        <time>2018-06-24T12:57:58Z</time>
      </trkpt>
      <trkpt lat="50.48174" lon="3.07058">
        <ele>11.2</ele>
        <time>2018-06-24T12:58:02Z</time>
      </trkpt>
      <trkpt lat="50.48159" lon="3.0706">
        <ele>11.4</ele>
        <time>2018-06-24T12:58:06Z</time>
      </trkpt>
      <trkpt lat="50.48145" lon="3.0706">
        <ele>11.4</ele>
        <time>2018-06-24T12:58:10Z</time>
      </trkpt>
      <trkpt lat="50.48131" lon="3.07058">
        <ele>11.8</ele>
        <time>2018-06-24T12:58:14Z</time>
      </trkpt>
      <trkpt lat="50.48117" lon="3.07059">
        <ele>12</ele>
        <time>2018-06-24T12:58:18Z</time>
      </trkpt>
      <trkpt lat="50.48103" lon="3.07059">
        <ele>12.2</ele>
        <time>2018-06-24T12:58:22Z</time>
      </trkpt>
      <trkpt lat="50.48089" lon="3.07058">
        <ele>12.2</ele>
        <time>2018-06-24T12:58:26Z</time>
      </trkpt>
      <trkpt lat="50.48074" lon="3.07059">
        <ele>12.2</ele>
        <time>2018-06-24T12:58:30Z</time>
      </trkpt>
      <trkpt lat="50.48059" lon="3.07058">
        <ele>12.4</ele>
        <time>2018-06-24T12:58:34Z</time>
      </trkpt>
      <trkpt lat="50.48044" lon="3.07057">
        <ele>12.6</ele>
        <time>2018-06-24T12:58:38Z</time>
      </trkpt>
      <trkpt lat="50.48029" lon="3.07057">
        <ele>12.4</ele>
        <time>2018-06-24T12:58:42Z</time>
      </trkpt>
      <trkpt lat="50.48014" lon="3.07057">
        <ele>12.8</ele>
        <time>2018-06-24T12:58:46Z</time>
      </trkpt>
      <trkpt lat="50.47999" lon="3.07057">
        <ele>12.8</ele>
        <time>2018-06-24T12:58:50Z</time>
      </trkpt>
      <trkpt lat="50.47983" lon="3.07057">
        <ele>12.6</ele>
        <time>2018-06-24T12:58:54Z</time>
      </trkpt>
      <trkpt lat="50.47968" lon="3.07057">
        <ele>13</ele>
        <time>2018-06-24T12:58:58Z</time>
      </trkpt>
      <trkpt lat="50.47953" lon="3.07057">
        <ele>13</ele>
        <time>2018-06-24T12:59:02Z</time>
      </trkpt>
      <trkpt lat="50.47938" lon="3.07057">
        <ele>12.8</ele>
        <time>2018-06-24T12:59:06Z</time>
      </trkpt>
      <trkpt lat="50.47925" lon="3.07058">
        <ele>13</ele>
        <time>2018-06-24T12:59:10Z</time>
      </trkpt>
      <trkpt lat="50.47915" lon="3.07057">
        <ele>13.2</ele>
        <time>2018-06-24T12:59:14Z</time>
      </trkpt>
      <trkpt lat="50.47907" lon="3.07058">
        <ele>13.6</ele>
        <time>2018-06-24T12:59:18Z</time>
      </trkpt>
      <trkpt lat="50.479" lon="3.07064">
        <ele>13.4</ele>
        <time>2018-06-24T12:59:22Z</time>
      </trkpt>
      <trkpt lat="50.47899" lon="3.07077">
        <ele>13.4</ele>
        <time>2018-06-24T12:59:26Z</time>
      </trkpt>
      <trkpt lat="50.47899" lon="3.07092">
        <ele>13.6</ele>
        <time>2018-06-24T12:59:30Z</time>
      </trkpt>
      <trkpt lat="50.479" lon="3.0711">
        <ele>13</ele>
        <time>2018-06-24T12:59:34Z</time>
      </trkpt>
      <trkpt lat="50.47901" lon="3.07132">
        <ele>13</ele>
        <time>2018-06-24T12:59:38Z</time>
      </trkpt>
      <trkpt lat="50.47902" lon="3.07155">
        <ele>13.2</ele>
        <time>2018-06-24T12:59:42Z</time>
      </trkpt>
      <trkpt lat="50.47902" lon="3.07178">
        <ele>13.4</ele>
        <time>2018-06-24T12:59:46Z</time>
      </trkpt>
      <trkpt lat="50.47903" lon="3.07201">
        <ele>13.6</ele>
        <time>2018-06-24T12:59:50Z</time>
      </trkpt>
      <trkpt lat="50.47905" lon="3.07224">
        <ele>13.2</ele>
        <time>2018-06-24T12:59:54Z</time>
      </trkpt>
      <trkpt lat="50.47907" lon="3.07247">
        <ele>13.2</ele>
        <time>2018-06-24T12:59:58Z</time>
      </trkpt>
      <trkpt lat="50.47909" lon="3.07268">
        <ele>13.8</ele>
        <time>2018-06-24T13:00:02Z</time>
      </trkpt>
      <trkpt lat="50.47911" lon="3.07288">
        <ele>12.8</ele>
        <time>2018-06-24T13:00:06Z</time>
      </trkpt>
      <trkpt lat="50.47914" lon="3.07311">
        <ele>12.8</ele>
        <time>2018-06-24T13:00:10Z</time>
      </trkpt>
      <trkpt lat="50.47916" lon="3.07335">
        <ele>12.2</ele>
        <time>2018-06-24T13:00:14Z</time>
      </trkpt>
      <trkpt lat="50.47919" lon="3.07357">
        <ele>12.2</ele>
        <time>2018-06-24T13:00:18Z</time>
      </trkpt>
      <trkpt lat="50.47922" lon="3.07379">
        <ele>12.4</ele>
        <time>2018-06-24T13:00:22Z</time>
      </trkpt>
      <trkpt lat="50.47924" lon="3.07402">
        <ele>11.8</ele>
        <time>2018-06-24T13:00:26Z</time>
      </trkpt>
      <trkpt lat="50.47929" lon="3.07426">
        <ele>12.4</ele>
        <time>2018-06-24T13:00:30Z</time>
      </trkpt>
      <trkpt lat="50.47935" lon="3.07452">
        <ele>11.8</ele>
        <time>2018-06-24T13:00:34Z</time>
      </trkpt>
      <trkpt lat="50.47942" lon="3.07475">
        <ele>11.8</ele>
        <time>2018-06-24T13:00:38Z</time>
      </trkpt>
      <trkpt lat="50.4795" lon="3.07498">
        <ele>11</ele>
        <time>2018-06-24T13:00:42Z</time>
      </trkpt>
      <trkpt lat="50.47958" lon="3.07522">
        <ele>10.6</ele>
        <time>2018-06-24T13:00:46Z</time>
      </trkpt>
      <trkpt lat="50.47966" lon="3.07546">
        <ele>11</ele>
        <time>2018-06-24T13:00:50Z</time>
      </trkpt>
      <trkpt lat="50.47972" lon="3.07568">
        <ele>11.6</ele>
        <time>2018-06-24T13:00:54Z</time>
      </trkpt>
      <trkpt lat="50.47978" lon="3.07586">
        <ele>11</ele>
        <time>2018-06-24T13:00:58Z</time>
      </trkpt>
      <trkpt lat="50.47984" lon="3.07607">
        <ele>11</ele>
        <time>2018-06-24T13:01:02Z</time>
      </trkpt>
      <trkpt lat="50.4799" lon="3.07631">
        <ele>11</ele>
        <time>2018-06-24T13:01:06Z</time>
      </trkpt>
      <trkpt lat="50.47996" lon="3.07654">
        <ele>11</ele>
        <time>2018-06-24T13:01:10Z</time>
      </trkpt>
      <trkpt lat="50.48002" lon="3.07678">
        <ele>10.6</ele>
        <time>2018-06-24T13:01:14Z</time>
      </trkpt>
      <trkpt lat="50.48009" lon="3.07701">
        <ele>10.6</ele>
        <time>2018-06-24T13:01:18Z</time>
      </trkpt>
      <trkpt lat="50.48015" lon="3.07725">
        <ele>10</ele>
        <time>2018-06-24T13:01:22Z</time>
      </trkpt>
      <trkpt lat="50.48021" lon="3.0775">
        <ele>10.4</ele>
        <time>2018-06-24T13:01:26Z</time>
      </trkpt>
      <trkpt lat="50.48028" lon="3.07774">
        <ele>10.8</ele>
        <time>2018-06-24T13:01:30Z</time>
      </trkpt>
      <trkpt lat="50.48034" lon="3.07797">
        <ele>10.6</ele>
        <time>2018-06-24T13:01:34Z</time>
      </trkpt>
      <trkpt lat="50.4804" lon="3.0782">
        <ele>10.2</ele>
        <time>2018-06-24T13:01:38Z</time>
      </trkpt>
      <trkpt lat="50.48046" lon="3.07842">
        <ele>10.4</ele>
        <time>2018-06-24T13:01:42Z</time>
      </trkpt>
      <trkpt lat="50.48052" lon="3.07865">
        <ele>10</ele>
        <time>2018-06-24T13:01:46Z</time>
      </trkpt>
      <trkpt lat="50.48056" lon="3.07886">
        <ele>10.2</ele>
        <time>2018-06-24T13:01:50Z</time>
      </trkpt>
      <trkpt lat="50.48063" lon="3.07906">
        <ele>10</ele>
        <time>2018-06-24T13:01:54Z</time>
      </trkpt>
      <trkpt lat="50.48067" lon="3.07924">
        <ele>10.4</ele>
        <time>2018-06-24T13:01:58Z</time>
      </trkpt>
      <trkpt lat="50.48071" lon="3.07942">
        <ele>11</ele>
        <time>2018-06-24T13:02:02Z</time>
      </trkpt>
      <trkpt lat="50.48075" lon="3.07963">
        <ele>11.4</ele>
        <time>2018-06-24T13:02:06Z</time>
      </trkpt>
      <trkpt lat="50.48078" lon="3.07984">
        <ele>11.2</ele>
        <time>2018-06-24T13:02:10Z</time>
      </trkpt>
      <trkpt lat="50.48081" lon="3.08006">
        <ele>11.6</ele>
        <time>2018-06-24T13:02:14Z</time>
      </trkpt>
      <trkpt lat="50.48083" lon="3.08028">
        <ele>11.8</ele>
        <time>2018-06-24T13:02:18Z</time>
      </trkpt>
      <trkpt lat="50.48083" lon="3.08051">
        <ele>12</ele>
        <time>2018-06-24T13:02:22Z</time>
      </trkpt>
      <trkpt lat="50.48083" lon="3.08073">
        <ele>12.2</ele>
        <time>2018-06-24T13:02:26Z</time>
      </trkpt>
      <trkpt lat="50.48081" lon="3.08097">
        <ele>13</ele>
        <time>2018-06-24T13:02:30Z</time>
      </trkpt>
      <trkpt lat="50.48078" lon="3.0812">
        <ele>13.4</ele>
        <time>2018-06-24T13:02:34Z</time>
      </trkpt>
      <trkpt lat="50.48074" lon="3.08144">
        <ele>13.2</ele>
        <time>2018-06-24T13:02:38Z</time>
      </trkpt>
      <trkpt lat="50.4807" lon="3.08167">
        <ele>13.2</ele>
        <time>2018-06-24T13:02:42Z</time>
      </trkpt>
      <trkpt lat="50.48064" lon="3.0819">
        <ele>14.2</ele>
        <time>2018-06-24T13:02:46Z</time>
      </trkpt>
      <trkpt lat="50.48058" lon="3.08212">
        <ele>14.2</ele>
        <time>2018-06-24T13:02:50Z</time>
      </trkpt>
      <trkpt lat="50.4805" lon="3.08234">
        <ele>14.4</ele>
        <time>2018-06-24T13:02:54Z</time>
      </trkpt>
      <trkpt lat="50.48041" lon="3.08255">
        <ele>14.6</ele>
        <time>2018-06-24T13:02:58Z</time>
      </trkpt>
      <trkpt lat="50.48031" lon="3.08274">
        <ele>15.2</ele>
        <time>2018-06-24T13:03:02Z</time>
      </trkpt>
      <trkpt lat="50.4802" lon="3.08294">
        <ele>15.2</ele>
        <time>2018-06-24T13:03:06Z</time>
      </trkpt>
      <trkpt lat="50.48008" lon="3.08312">
        <ele>15.2</ele>
        <time>2018-06-24T13:03:10Z</time>
      </trkpt>
      <trkpt lat="50.47994" lon="3.08329">
        <ele>16.2</ele>
        <time>2018-06-24T13:03:14Z</time>
      </trkpt>
      <trkpt lat="50.4798" lon="3.08346">
        <ele>16</ele>
        <time>2018-06-24T13:03:18Z</time>
      </trkpt>
      <trkpt lat="50.47964" lon="3.0836">
        <ele>16.6</ele>
        <time>2018-06-24T13:03:22Z</time>
      </trkpt>
      <trkpt lat="50.47947" lon="3.08375">
        <ele>16.6</ele>
        <time>2018-06-24T13:03:26Z</time>
      </trkpt>
      <trkpt lat="50.47929" lon="3.08387">
        <ele>16.6</ele>
        <time>2018-06-24T13:03:30Z</time>
      </trkpt>
      <trkpt lat="50.47911" lon="3.08399">
        <ele>16.8</ele>
        <time>2018-06-24T13:03:34Z</time>
      </trkpt>
      <trkpt lat="50.47894" lon="3.08409">
        <ele>16.6</ele>
        <time>2018-06-24T13:03:38Z</time>
      </trkpt>
      <trkpt lat="50.47876" lon="3.0842">
        <ele>16.2</ele>
        <time>2018-06-24T13:03:42Z</time>
      </trkpt>
      <trkpt lat="50.47858" lon="3.08432">
        <ele>16.2</ele>
        <time>2018-06-24T13:03:46Z</time>
      </trkpt>
      <trkpt lat="50.47841" lon="3.08446">
        <ele>16.4</ele>
        <time>2018-06-24T13:03:50Z</time>
      </trkpt>
      <trkpt lat="50.47825" lon="3.08462">
        <ele>16.4</ele>
        <time>2018-06-24T13:03:54Z</time>
      </trkpt>
      <trkpt lat="50.4781" lon="3.08479">
        <ele>16.4</ele>
        <time>2018-06-24T13:03:58Z</time>
      </trkpt>
      <trkpt lat="50.47795" lon="3.08498">
        <ele>16.2</ele>
        <time>2018-06-24T13:04:02Z</time>
      </trkpt>
      <trkpt lat="50.47783" lon="3.08519">
        <ele>16</ele>
        <time>2018-06-24T13:04:06Z</time>
      </trkpt>
      <trkpt lat="50.47771" lon="3.0854">
        <ele>16.4</ele>
        <time>2018-06-24T13:04:10Z</time>
      </trkpt>
      <trkpt lat="50.47761" lon="3.08561">
        <ele>16.6</ele>
        <time>2018-06-24T13:04:14Z</time>
      </trkpt>
      <trkpt lat="50.47751" lon="3.08581">
        <ele>16.8</ele>
        <time>2018-06-24T13:04:18Z</time>
      </trkpt>
      <trkpt lat="50.47739" lon="3.08598">
        <ele>16.6</ele>
        <time>2018-06-24T13:04:22Z</time>
      </trkpt>
      <trkpt lat="50.47728" lon="3.08619">
        <ele>16.6</ele>
        <time>2018-06-24T13:04:26Z</time>
      </trkpt>
      <trkpt lat="50.47716" lon="3.08641">
        <ele>16.8</ele>
        <time>2018-06-24T13:04:30Z</time>
      </trkpt>
      <trkpt lat="50.47704" lon="3.08663">
        <ele>16.4</ele>
        <time>2018-06-24T13:04:34Z</time>
      </trkpt>
      <trkpt lat="50.47692" lon="3.08686">
        <ele>16.6</ele>
        <time>2018-06-24T13:04:38Z</time>
      </trkpt>
      <trkpt lat="50.4768" lon="3.08709">
        <ele>16.8</ele>
        <time>2018-06-24T13:04:42Z</time>
      </trkpt>
      <trkpt lat="50.47668" lon="3.08732">
        <ele>16.6</ele>
        <time>2018-06-24T13:04:46Z</time>
      </trkpt>
      <trkpt lat="50.47656" lon="3.08756">
        <ele>16.6</ele>
        <time>2018-06-24T13:04:50Z</time>
      </trkpt>
      <trkpt lat="50.47647" lon="3.08781">
        <ele>16.8</ele>
        <time>2018-06-24T13:04:54Z</time>
      </trkpt>
      <trkpt lat="50.47638" lon="3.08805">
        <ele>17.2</ele>
        <time>2018-06-24T13:04:58Z</time>
      </trkpt>
      <trkpt lat="50.47629" lon="3.08828">
        <ele>16.6</ele>
        <time>2018-06-24T13:05:02Z</time>
      </trkpt>
      <trkpt lat="50.4762" lon="3.08851">
        <ele>17.2</ele>
        <time>2018-06-24T13:05:06Z</time>
      </trkpt>
      <trkpt lat="50.47611" lon="3.08875">
        <ele>17</ele>
        <time>2018-06-24T13:05:10Z</time>
      </trkpt>
      <trkpt lat="50.47603" lon="3.089">
        <ele>16.8</ele>
        <time>2018-06-24T13:05:14Z</time>
      </trkpt>
      <trkpt lat="50.47593" lon="3.08925">
        <ele>16.6</ele>
        <time>2018-06-24T13:05:18Z</time>
      </trkpt>
      <trkpt lat="50.47583" lon="3.0895">
        <ele>17.2</ele>
        <time>2018-06-24T13:05:22Z</time>
      </trkpt>
      <trkpt lat="50.47573" lon="3.08975">
        <ele>17.4</ele>
        <time>2018-06-24T13:05:26Z</time>
      </trkpt>
      <trkpt lat="50.47563" lon="3.09">
        <ele>17.4</ele>
        <time>2018-06-24T13:05:30Z</time>
      </trkpt>
      <trkpt lat="50.47553" lon="3.09026">
        <ele>17.6</ele>
        <time>2018-06-24T13:05:34Z</time>
      </trkpt>
      <trkpt lat="50.47543" lon="3.09051">
        <ele>18</ele>
        <time>2018-06-24T13:05:38Z</time>
      </trkpt>
      <trkpt lat="50.47534" lon="3.09077">
        <ele>18.4</ele>
        <time>2018-06-24T13:05:42Z</time>
      </trkpt>
      <trkpt lat="50.47524" lon="3.09103">
        <ele>19</ele>
        <time>2018-06-24T13:05:46Z</time>
      </trkpt>
      <trkpt lat="50.47515" lon="3.09129">
        <ele>19.2</ele>
        <time>2018-06-24T13:05:50Z</time>
      </trkpt>
      <trkpt lat="50.47506" lon="3.09154">
        <ele>19.6</ele>
        <time>2018-06-24T13:05:54Z</time>
      </trkpt>
      <trkpt lat="50.47495" lon="3.09178">
        <ele>19.8</ele>
        <time>2018-06-24T13:05:58Z</time>
      </trkpt>
      <trkpt lat="50.47485" lon="3.09204">
        <ele>19.8</ele>
        <time>2018-06-24T13:06:02Z</time>
      </trkpt>
      <trkpt lat="50.47476" lon="3.09229">
        <ele>20.2</ele>
        <time>2018-06-24T13:06:06Z</time>
      </trkpt>
      <trkpt lat="50.47467" lon="3.09254">
        <ele>20.4</ele>
        <time>2018-06-24T13:06:10Z</time>
      </trkpt>
      <trkpt lat="50.47458" lon="3.09277">
        <ele>20.4</ele>
        <time>2018-06-24T13:06:14Z</time>
      </trkpt>
      <trkpt lat="50.47451" lon="3.09296">
        <ele>20.2</ele>
        <time>2018-06-24T13:06:18Z</time>
      </trkpt>
      <trkpt lat="50.47447" lon="3.09307">
        <ele>20.6</ele>
        <time>2018-06-24T13:06:22Z</time>
      </trkpt>
      <trkpt lat="50.47443" lon="3.09316">
        <ele>20.6</ele>
        <time>2018-06-24T13:06:26Z</time>
      </trkpt>
      <trkpt lat="50.47441" lon="3.09326">
        <ele>20.6</ele>
        <time>2018-06-24T13:06:30Z</time>
      </trkpt>
      <trkpt lat="50.47436" lon="3.09339">
        <ele>20.6</ele>
        <time>2018-06-24T13:06:34Z</time>
      </trkpt>
      <trkpt lat="50.47433" lon="3.09355">
        <ele>21.4</ele>
        <time>2018-06-24T13:06:38Z</time>
      </trkpt>
      <trkpt lat="50.47429" lon="3.09374">
        <ele>21.8</ele>
        <time>2018-06-24T13:06:42Z</time>
      </trkpt>
      <trkpt lat="50.47425" lon="3.09393">
        <ele>21.4</ele>
        <time>2018-06-24T13:06:46Z</time>
      </trkpt>
      <trkpt lat="50.4742" lon="3.09415">
        <ele>21.6</ele>
        <time>2018-06-24T13:06:50Z</time>
      </trkpt>
      <trkpt lat="50.47418" lon="3.09437">
        <ele>22</ele>
        <time>2018-06-24T13:06:54Z</time>
      </trkpt>
      <trkpt lat="50.47416" lon="3.09462">
        <ele>21.8</ele>
        <time>2018-06-24T13:06:58Z</time>
      </trkpt>
      <trkpt lat="50.47416" lon="3.09488">
        <ele>22.2</ele>
        <time>2018-06-24T13:07:02Z</time>
      </trkpt>
      <trkpt lat="50.47417" lon="3.09515">
        <ele>22.8</ele>
        <time>2018-06-24T13:07:06Z</time>
      </trkpt>
      <trkpt lat="50.47419" lon="3.09541">
        <ele>22.8</ele>
        <time>2018-06-24T13:07:10Z</time>
      </trkpt>
      <trkpt lat="50.47421" lon="3.09567">
        <ele>22.6</ele>
        <time>2018-06-24T13:07:14Z</time>
      </trkpt>
      <trkpt lat="50.47423" lon="3.09593">
        <ele>23</ele>
        <time>2018-06-24T13:07:18Z</time>
      </trkpt>
      <trkpt lat="50.47425" lon="3.0962">
        <ele>23</ele>
        <time>2018-06-24T13:07:22Z</time>
      </trkpt>
      <trkpt lat="50.47427" lon="3.09647">
        <ele>23.4</ele>
        <time>2018-06-24T13:07:26Z</time>
      </trkpt>
      <trkpt lat="50.47429" lon="3.09674">
        <ele>24</ele>
        <time>2018-06-24T13:07:30Z</time>
      </trkpt>
      <trkpt lat="50.47432" lon="3.09701">
        <ele>24.2</ele>
        <time>2018-06-24T13:07:34Z</time>
      </trkpt>
      <trkpt lat="50.47433" lon="3.09726">
        <ele>24.8</ele>
        <time>2018-06-24T13:07:38Z</time>
      </trkpt>
      <trkpt lat="50.47436" lon="3.09752">
        <ele>25.4</ele>
        <time>2018-06-24T13:07:42Z</time>
      </trkpt>
      <trkpt lat="50.47439" lon="3.09778">
        <ele>25.6</ele>
        <time>2018-06-24T13:07:46Z</time>
      </trkpt>
      <trkpt lat="50.47441" lon="3.09804">
        <ele>25.6</ele>
        <time>2018-06-24T13:07:50Z</time>
      </trkpt>
      <trkpt lat="50.47443" lon="3.09831">
        <ele>26</ele>
        <time>2018-06-24T13:07:54Z</time>
      </trkpt>
      <trkpt lat="50.47445" lon="3.09858">
        <ele>26.6</ele>
        <time>2018-06-24T13:07:58Z</time>
      </trkpt>
      <trkpt lat="50.47448" lon="3.09886">
        <ele>26.6</ele>
        <time>2018-06-24T13:08:02Z</time>
      </trkpt>
      <trkpt lat="50.47451" lon="3.09911">
        <ele>26.6</ele>
        <time>2018-06-24T13:08:06Z</time>
      </trkpt>
      <trkpt lat="50.47453" lon="3.09932">
        <ele>26.6</ele>
        <time>2018-06-24T13:08:10Z</time>
      </trkpt>
      <trkpt lat="50.47455" lon="3.09951">
        <ele>27</ele>
        <time>2018-06-24T13:08:14Z</time>
      </trkpt>
      <trkpt lat="50.47458" lon="3.09967">
        <ele>26.8</ele>
        <time>2018-06-24T13:08:18Z</time>
      </trkpt>
      <trkpt lat="50.47463" lon="3.09984">
        <ele>26.6</ele>
        <time>2018-06-24T13:08:22Z</time>
      </trkpt>
      <trkpt lat="50.47467" lon="3.10006">
        <ele>26.4</ele>
        <time>2018-06-24T13:08:26Z</time>
      </trkpt>
      <trkpt lat="50.47472" lon="3.10027">
        <ele>26.2</ele>
        <time>2018-06-24T13:08:30Z</time>
      </trkpt>
      <trkpt lat="50.47478" lon="3.1005">
        <ele>26.4</ele>
        <time>2018-06-24T13:08:34Z</time>
      </trkpt>
      <trkpt lat="50.47484" lon="3.10076">
        <ele>26.4</ele>
        <time>2018-06-24T13:08:38Z</time>
      </trkpt>
      <trkpt lat="50.47488" lon="3.10103">
        <ele>26.6</ele>
        <time>2018-06-24T13:08:42Z</time>
      </trkpt>
      <trkpt lat="50.47494" lon="3.10129">
        <ele>26.2</ele>
        <time>2018-06-24T13:08:46Z</time>
      </trkpt>
      <trkpt lat="50.47497" lon="3.10153">
        <ele>26.4</ele>
        <time>2018-06-24T13:08:50Z</time>
      </trkpt>
      <trkpt lat="50.475" lon="3.10177">
        <ele>26.6</ele>
        <time>2018-06-24T13:08:54Z</time>
      </trkpt>
      <trkpt lat="50.47506" lon="3.10203">
        <ele>25.6</ele>
        <time>2018-06-24T13:08:58Z</time>
      </trkpt>
      <trkpt lat="50.4751" lon="3.10228">
        <ele>26</ele>
        <time>2018-06-24T13:09:02Z</time>
      </trkpt>
      <trkpt lat="50.47515" lon="3.1025">
        <ele>26</ele>
        <time>2018-06-24T13:09:06Z</time>
      </trkpt>
      <trkpt lat="50.47518" lon="3.10269">
        <ele>25.8</ele>
        <time>2018-06-24T13:09:10Z</time>
      </trkpt>
      <trkpt lat="50.47524" lon="3.1029">
        <ele>25.4</ele>
        <time>2018-06-24T13:09:14Z</time>
      </trkpt>
      <trkpt lat="50.47528" lon="3.10307">
        <ele>25.2</ele>
        <time>2018-06-24T13:09:18Z</time>
      </trkpt>
      <trkpt lat="50.4753" lon="3.1032">
        <ele>25.2</ele>
        <time>2018-06-24T13:09:22Z</time>
      </trkpt>
      <trkpt lat="50.47531" lon="3.10332">
        <ele>25.2</ele>
        <time>2018-06-24T13:09:26Z</time>
      </trkpt>
      <trkpt lat="50.47534" lon="3.10346">
        <ele>25</ele>
        <time>2018-06-24T13:09:30Z</time>
      </trkpt>
      <trkpt lat="50.47538" lon="3.10364">
        <ele>24.2</ele>
        <time>2018-06-24T13:09:34Z</time>
      </trkpt>
      <trkpt lat="50.47542" lon="3.10386">
        <ele>24.6</ele>
        <time>2018-06-24T13:09:38Z</time>
      </trkpt>
      <trkpt lat="50.47547" lon="3.10411">
        <ele>23.8</ele>
        <time>2018-06-24T13:09:42Z</time>
      </trkpt>
      <trkpt lat="50.47552" lon="3.10435">
        <ele>23.2</ele>
        <time>2018-06-24T13:09:46Z</time>
      </trkpt>
      <trkpt lat="50.47556" lon="3.1046">
        <ele>23.4</ele>
        <time>2018-06-24T13:09:50Z</time>
      </trkpt>
      <trkpt lat="50.47559" lon="3.10487">
        <ele>22.8</ele>
        <time>2018-06-24T13:09:54Z</time>
      </trkpt>
      <trkpt lat="50.47561" lon="3.10513">
        <ele>22.4</ele>
        <time>2018-06-24T13:09:58Z</time>
      </trkpt>
      <trkpt lat="50.47562" lon="3.10541">
        <ele>22.2</ele>
        <time>2018-06-24T13:10:02Z</time>
      </trkpt>
      <trkpt lat="50.47562" lon="3.10569">
        <ele>21.8</ele>
        <time>2018-06-24T13:10:06Z</time>
      </trkpt>
      <trkpt lat="50.4756" lon="3.10599">
        <ele>21.6</ele>
        <time>2018-06-24T13:10:10Z</time>
      </trkpt>
      <trkpt lat="50.47556" lon="3.10628">
        <ele>21.4</ele>
        <time>2018-06-24T13:10:14Z</time>
      </trkpt>
      <trkpt lat="50.4755" lon="3.10657">
        <ele>20.6</ele>
        <time>2018-06-24T13:10:18Z</time>
      </trkpt>
      <trkpt lat="50.47543" lon="3.10684">
        <ele>20</ele>
        <time>2018-06-24T13:10:22Z</time>
      </trkpt>
      <trkpt lat="50.47535" lon="3.10711">
        <ele>20</ele>
        <time>2018-06-24T13:10:26Z</time>
      </trkpt>
      <trkpt lat="50.47528" lon="3.10736">
        <ele>19</ele>
        <time>2018-06-24T13:10:30Z</time>
      </trkpt>
      <trkpt lat="50.47517" lon="3.10762">
        <ele>19.4</ele>
        <time>2018-06-24T13:10:34Z</time>
      </trkpt>
      <trkpt lat="50.47505" lon="3.10791">
        <ele>18.6</ele>
        <time>2018-06-24T13:10:38Z</time>
      </trkpt>
      <trkpt lat="50.47494" lon="3.10819">
        <ele>17.6</ele>
        <time>2018-06-24T13:10:42Z</time>
      </trkpt>
      <trkpt lat="50.47482" lon="3.10847">
        <ele>17.8</ele>
        <time>2018-06-24T13:10:46Z</time>
      </trkpt>
      <trkpt lat="50.4747" lon="3.10874">
        <ele>17.6</ele>
        <time>2018-06-24T13:10:50Z</time>
      </trkpt>
      <trkpt lat="50.47457" lon="3.109">
        <ele>16.6</ele>
        <time>2018-06-24T13:10:54Z</time>
      </trkpt>
      <trkpt lat="50.47442" lon="3.10924">
        <ele>16.2</ele>
        <time>2018-06-24T13:10:58Z</time>
      </trkpt>
      <trkpt lat="50.47427" lon="3.10945">
        <ele>15.6</ele>
        <time>2018-06-24T13:11:02Z</time>
      </trkpt>
      <trkpt lat="50.47409" lon="3.10965">
        <ele>14.4</ele>
        <time>2018-06-24T13:11:06Z</time>
      </trkpt>
      <trkpt lat="50.47391" lon="3.10981">
        <ele>14.8</ele>
        <time>2018-06-24T13:11:10Z</time>
      </trkpt>
      <trkpt lat="50.47373" lon="3.10995">
        <ele>14.2</ele>
        <time>2018-06-24T13:11:14Z</time>
      </trkpt>
      <trkpt lat="50.47354" lon="3.11006">
        <ele>13.6</ele>
        <time>2018-06-24T13:11:18Z</time>
      </trkpt>
      <trkpt lat="50.47333" lon="3.11014">
        <ele>13.2</ele>
        <time>2018-06-24T13:11:22Z</time>
      </trkpt>
      <trkpt lat="50.47313" lon="3.11021">
        <ele>13</ele>
        <time>2018-06-24T13:11:26Z</time>
      </trkpt>
      <trkpt lat="50.47293" lon="3.11028">
        <ele>12.2</ele>
        <time>2018-06-24T13:11:30Z</time>
      </trkpt>
      <trkpt lat="50.47271" lon="3.11035">
        <ele>11.6</ele>
        <time>2018-06-24T13:11:34Z</time>
      </trkpt>
      <trkpt lat="50.47248" lon="3.11042">
        <ele>11.4</ele>
        <time>2018-06-24T13:11:38Z</time>
      </trkpt>
      <trkpt lat="50.47226" lon="3.1105">
        <ele>10.4</ele>
        <time>2018-06-24T13:11:42Z</time>
      </trkpt>
      <trkpt lat="50.47203" lon="3.11057">
        <ele>10</ele>
        <time>2018-06-24T13:11:46Z</time>
      </trkpt>
      <trkpt lat="50.47179" lon="3.11064">
        <ele>9.6</ele>
        <time>2018-06-24T13:11:50Z</time>
      </trkpt>
      <trkpt lat="50.47156" lon="3.11071">
        <ele>9.2</ele>
        <time>2018-06-24T13:11:54Z</time>
      </trkpt>
      <trkpt lat="50.47133" lon="3.11078">
        <ele>8</ele>
        <time>2018-06-24T13:11:58Z</time>
      </trkpt>
      <trkpt lat="50.47111" lon="3.11082">
        <ele>8.6</ele>
        <time>2018-06-24T13:12:02Z</time>
      </trkpt>
      <trkpt lat="50.47088" lon="3.11082">
        <ele>7.6</ele>
        <time>2018-06-24T13:12:06Z</time>
      </trkpt>
      <trkpt lat="50.47064" lon="3.11081">
        <ele>7</ele>
        <time>2018-06-24T13:12:10Z</time>
      </trkpt>
      <trkpt lat="50.4704" lon="3.1108">
        <ele>7.2</ele>
        <time>2018-06-24T13:12:14Z</time>
      </trkpt>
      <trkpt lat="50.47017" lon="3.11082">
        <ele>6</ele>
        <time>2018-06-24T13:12:18Z</time>
      </trkpt>
      <trkpt lat="50.46995" lon="3.11085">
        <ele>5.6</ele>
        <time>2018-06-24T13:12:22Z</time>
      </trkpt>
      <trkpt lat="50.46973" lon="3.11092">
        <ele>5.4</ele>
        <time>2018-06-24T13:12:26Z</time>
      </trkpt>
      <trkpt lat="50.46953" lon="3.11102">
        <ele>5.2</ele>
        <time>2018-06-24T13:12:30Z</time>
      </trkpt>
      <trkpt lat="50.46934" lon="3.11115">
        <ele>4.4</ele>
        <time>2018-06-24T13:12:34Z</time>
      </trkpt>
      <trkpt lat="50.46916" lon="3.1113">
        <ele>4.8</ele>
        <time>2018-06-24T13:12:38Z</time>
      </trkpt>
      <trkpt lat="50.46899" lon="3.11146">
        <ele>5</ele>
        <time>2018-06-24T13:12:42Z</time>
      </trkpt>
      <trkpt lat="50.46885" lon="3.11164">
        <ele>3.6</ele>
        <time>2018-06-24T13:12:46Z</time>
      </trkpt>
      <trkpt lat="50.46872" lon="3.11182">
        <ele>2</ele>
        <time>2018-06-24T13:12:50Z</time>
      </trkpt>
      <trkpt lat="50.46859" lon="3.112">
        <ele>2.4</ele>
        <time>2018-06-24T13:12:54Z</time>
      </trkpt>
      <trkpt lat="50.46847" lon="3.11217">
        <ele>2</ele>
        <time>2018-06-24T13:12:58Z</time>
      </trkpt>
      <trkpt lat="50.46834" lon="3.11235">
        <ele>2.2</ele>
        <time>2018-06-24T13:13:02Z</time>
      </trkpt>
      <trkpt lat="50.46821" lon="3.11255">
        <ele>1.6</ele>
        <time>2018-06-24T13:13:06Z</time>
      </trkpt>
      <trkpt lat="50.46809" lon="3.11274">
        <ele>2</ele>
        <time>2018-06-24T13:13:10Z</time>
      </trkpt>
      <trkpt lat="50.46797" lon="3.11296">
        <ele>1.6</ele>
        <time>2018-06-24T13:13:14Z</time>
      </trkpt>
      <trkpt lat="50.46787" lon="3.11321">
        <ele>1.8</ele>
        <time>2018-06-24T13:13:18Z</time>
      </trkpt>
      <trkpt lat="50.46776" lon="3.11347">
        <ele>2</ele>
        <time>2018-06-24T13:13:22Z</time>
      </trkpt>
      <trkpt lat="50.46768" lon="3.11375">
        <ele>1.8</ele>
        <time>2018-06-24T13:13:26Z</time>
      </trkpt>
      <trkpt lat="50.46761" lon="3.11403">
        <ele>1.2</ele>
        <time>2018-06-24T13:13:30Z</time>
      </trkpt>
      <trkpt lat="50.46757" lon="3.11431">
        <ele>1.4</ele>
        <time>2018-06-24T13:13:34Z</time>
      </trkpt>
      <trkpt lat="50.46753" lon="3.11456">
        <ele>1.2</ele>
        <time>2018-06-24T13:13:38Z</time>
      </trkpt>
      <trkpt lat="50.46752" lon="3.1148">
        <ele>1.2</ele>
        <time>2018-06-24T13:13:42Z</time>
      </trkpt>
      <trkpt lat="50.46751" lon="3.11504">
        <ele>1</ele>
        <time>2018-06-24T13:13:46Z</time>
      </trkpt>
      <trkpt lat="50.46751" lon="3.11527">
        <ele>1</ele>
        <time>2018-06-24T13:13:50Z</time>
      </trkpt>
      <trkpt lat="50.4675" lon="3.11553">
        <ele>1.2</ele>
        <time>2018-06-24T13:13:54Z</time>
      </trkpt>
      <trkpt lat="50.46749" lon="3.1158">
        <ele>1</ele>
        <time>2018-06-24T13:13:58Z</time>
      </trkpt>
      <trkpt lat="50.46751" lon="3.11608">
        <ele>-0.8</ele>
        <time>2018-06-24T13:14:02Z</time>
      </trkpt>
      <trkpt lat="50.46753" lon="3.11636">
        <ele>0.6</ele>
        <time>2018-06-24T13:14:06Z</time>
      </trkpt>
      <trkpt lat="50.46753" lon="3.11663">
        <ele>0.6</ele>
        <time>2018-06-24T13:14:10Z</time>
      </trkpt>
      <trkpt lat="50.46752" lon="3.11688">
        <ele>0.6</ele>
        <time>2018-06-24T13:14:14Z</time>
      </trkpt>
      <trkpt lat="50.46752" lon="3.11709">
        <ele>39.1</ele>
        <time>2018-06-24T13:14:18Z</time>
      </trkpt>
      <trkpt lat="50.46752" lon="3.11735">
        <ele>0.2</ele>
        <time>2018-06-24T13:14:22Z</time>
      </trkpt>
      <trkpt lat="50.4675" lon="3.11761">
        <ele>0.6</ele>
        <time>2018-06-24T13:14:26Z</time>
      </trkpt>
      <trkpt lat="50.46746" lon="3.11785">
        <ele>0.4</ele>
        <time>2018-06-24T13:14:30Z</time>
      </trkpt>
      <trkpt lat="50.46742" lon="3.11809">
        <ele>0.4</ele>
        <time>2018-06-24T13:14:34Z</time>
      </trkpt>
      <trkpt lat="50.46738" lon="3.11827">
        <ele>0.4</ele>
        <time>2018-06-24T13:14:38Z</time>
      </trkpt>
      <trkpt lat="50.46738" lon="3.11839">
        <ele>0.6</ele>
        <time>2018-06-24T13:14:42Z</time>
      </trkpt>
      <trkpt lat="50.46738" lon="3.11859">
        <ele>0.4</ele>
        <time>2018-06-24T13:14:46Z</time>
      </trkpt>
      <trkpt lat="50.46735" lon="3.11868">
        <ele>0.6</ele>
        <time>2018-06-24T13:14:50Z</time>
      </trkpt>
      <trkpt lat="50.46736" lon="3.11881">
        <ele>0.6</ele>
        <time>2018-06-24T13:14:54Z</time>
      </trkpt>
      <trkpt lat="50.46734" lon="3.11896">
        <ele>0.8</ele>
        <time>2018-06-24T13:14:58Z</time>
      </trkpt>
      <trkpt lat="50.46727" lon="3.11921">
        <ele>0.6</ele>
        <time>2018-06-24T13:15:02Z</time>
      </trkpt>
      <trkpt lat="50.46723" lon="3.11943">
        <ele>0.2</ele>
        <time>2018-06-24T13:15:06Z</time>
      </trkpt>
      <trkpt lat="50.46717" lon="3.11964">
        <ele>0.2</ele>
        <time>2018-06-24T13:15:10Z</time>
      </trkpt>
      <trkpt lat="50.46713" lon="3.11985">
        <ele>0.2</ele>
        <time>2018-06-24T13:15:14Z</time>
      </trkpt>
      <trkpt lat="50.46707" lon="3.12009">
        <ele>0.2</ele>
        <time>2018-06-24T13:15:18Z</time>
      </trkpt>
      <trkpt lat="50.46702" lon="3.12032">
        <ele>-0.6</ele>
        <time>2018-06-24T13:15:22Z</time>
      </trkpt>
      <trkpt lat="50.46697" lon="3.12059">
        <ele>-0.8</ele>
        <time>2018-06-24T13:15:26Z</time>
      </trkpt>
      <trkpt lat="50.46689" lon="3.12087">
        <ele>-0.8</ele>
        <time>2018-06-24T13:15:30Z</time>
      </trkpt>
      <trkpt lat="50.46682" lon="3.12116">
        <ele>-2.2</ele>
        <time>2018-06-24T13:15:34Z</time>
      </trkpt>
      <trkpt lat="50.46674" lon="3.12144">
        <ele>-2</ele>
        <time>2018-06-24T13:15:38Z</time>
      </trkpt>
      <trkpt lat="50.46669" lon="3.12173">
        <ele>-1.8</ele>
        <time>2018-06-24T13:15:42Z</time>
      </trkpt>
      <trkpt lat="50.46664" lon="3.122">
        <ele>-2.6</ele>
        <time>2018-06-24T13:15:46Z</time>
      </trkpt>
      <trkpt lat="50.4666" lon="3.12226">
        <ele>-2.8</ele>
        <time>2018-06-24T13:15:50Z</time>
      </trkpt>
      <trkpt lat="50.46655" lon="3.12249">
        <ele>-2.6</ele>
        <time>2018-06-24T13:15:54Z</time>
      </trkpt>
      <trkpt lat="50.46648" lon="3.1227">
        <ele>-2.4</ele>
        <time>2018-06-24T13:15:58Z</time>
      </trkpt>
      <trkpt lat="50.46645" lon="3.12295">
        <ele>-2.6</ele>
        <time>2018-06-24T13:16:02Z</time>
      </trkpt>
      <trkpt lat="50.46643" lon="3.12325">
        <ele>-2.2</ele>
        <time>2018-06-24T13:16:06Z</time>
      </trkpt>
      <trkpt lat="50.46639" lon="3.12352">
        <ele>-2.8</ele>
        <time>2018-06-24T13:16:10Z</time>
      </trkpt>
      <trkpt lat="50.46634" lon="3.12381">
        <ele>-2.4</ele>
        <time>2018-06-24T13:16:14Z</time>
      </trkpt>
      <trkpt lat="50.4663" lon="3.12409">
        <ele>-2.8</ele>
        <time>2018-06-24T13:16:18Z</time>
      </trkpt>
      <trkpt lat="50.46625" lon="3.12438">
        <ele>-2.4</ele>
        <time>2018-06-24T13:16:22Z</time>
      </trkpt>
      <trkpt lat="50.4662" lon="3.12465">
        <ele>-2.6</ele>
        <time>2018-06-24T13:16:26Z</time>
      </trkpt>
      <trkpt lat="50.46613" lon="3.12491">
        <ele>-2.4</ele>
        <time>2018-06-24T13:16:30Z</time>
      </trkpt>
      <trkpt lat="50.46606" lon="3.12516">
        <ele>-2.8</ele>
        <time>2018-06-24T13:16:34Z</time>
      </trkpt>
      <trkpt lat="50.46597" lon="3.12541">
        <ele>-2.8</ele>
        <time>2018-06-24T13:16:38Z</time>
      </trkpt>
      <trkpt lat="50.46587" lon="3.12564">
        <ele>-2.4</ele>
        <time>2018-06-24T13:16:42Z</time>
      </trkpt>
      <trkpt lat="50.46576" lon="3.12585">
        <ele>-2.6</ele>
        <time>2018-06-24T13:16:46Z</time>
      </trkpt>
      <trkpt lat="50.46565" lon="3.12605">
        <ele>-2</ele>
        <time>2018-06-24T13:16:50Z</time>
      </trkpt>
      <trkpt lat="50.46554" lon="3.12625">
        <ele>-2.4</ele>
        <time>2018-06-24T13:16:54Z</time>
      </trkpt>
      <trkpt lat="50.46542" lon="3.12644">
        <ele>-2.6</ele>
        <time>2018-06-24T13:16:58Z</time>
      </trkpt>
      <trkpt lat="50.46532" lon="3.12659">
        <ele>-2.6</ele>
        <time>2018-06-24T13:17:02Z</time>
      </trkpt>
      <trkpt lat="50.46525" lon="3.12671">
        <ele>-2.6</ele>
        <time>2018-06-24T13:17:06Z</time>
      </trkpt>
      <trkpt lat="50.46518" lon="3.12684">
        <ele>-2.4</ele>
        <time>2018-06-24T13:17:10Z</time>
      </trkpt>
      <trkpt lat="50.46511" lon="3.12697">
        <ele>-2.2</ele>
        <time>2018-06-24T13:17:14Z</time>
      </trkpt>
      <trkpt lat="50.46503" lon="3.12707">
        <ele>-2.6</ele>
        <time>2018-06-24T13:17:18Z</time>
      </trkpt>
      <trkpt lat="50.46495" lon="3.1272">
        <ele>-2.6</ele>
        <time>2018-06-24T13:17:22Z</time>
      </trkpt>
      <trkpt lat="50.46484" lon="3.12736">
        <ele>-2.2</ele>
        <time>2018-06-24T13:17:26Z</time>
      </trkpt>
      <trkpt lat="50.46474" lon="3.12753">
        <ele>-1.8</ele>
        <time>2018-06-24T13:17:30Z</time>
      </trkpt>
      <trkpt lat="50.46463" lon="3.12772">
        <ele>-1.8</ele>
        <time>2018-06-24T13:17:34Z</time>
      </trkpt>
      <trkpt lat="50.46452" lon="3.12792">
        <ele>-2</ele>
        <time>2018-06-24T13:17:38Z</time>
      </trkpt>
      <trkpt lat="50.46439" lon="3.12811">
        <ele>-1.8</ele>
        <time>2018-06-24T13:17:42Z</time>
      </trkpt>
      <trkpt lat="50.46426" lon="3.1283">
        <ele>-1.6</ele>
        <time>2018-06-24T13:17:46Z</time>
      </trkpt>
      <trkpt lat="50.46413" lon="3.1285">
        <ele>-1.4</ele>
        <time>2018-06-24T13:17:50Z</time>
      </trkpt>
      <trkpt lat="50.46402" lon="3.12873">
        <ele>-1.2</ele>
        <time>2018-06-24T13:17:54Z</time>
      </trkpt>
      <trkpt lat="50.46391" lon="3.12898">
        <ele>-1.4</ele>
        <time>2018-06-24T13:17:58Z</time>
      </trkpt>
      <trkpt lat="50.4638" lon="3.12924">
        <ele>-1.4</ele>
        <time>2018-06-24T13:18:02Z</time>
      </trkpt>
      <trkpt lat="50.46371" lon="3.12951">
        <ele>-1.6</ele>
        <time>2018-06-24T13:18:06Z</time>
      </trkpt>
      <trkpt lat="50.46362" lon="3.12983">
        <ele>-0.6</ele>
        <time>2018-06-24T13:18:10Z</time>
      </trkpt>
      <trkpt lat="50.46355" lon="3.13012">
        <ele>-1.4</ele>
        <time>2018-06-24T13:18:14Z</time>
      </trkpt>
      <trkpt lat="50.4635" lon="3.13041">
        <ele>-1</ele>
        <time>2018-06-24T13:18:18Z</time>
      </trkpt>
      <trkpt lat="50.46346" lon="3.13071">
        <ele>-0.8</ele>
        <time>2018-06-24T13:18:22Z</time>
      </trkpt>
      <trkpt lat="50.46344" lon="3.13101">
        <ele>-1</ele>
        <time>2018-06-24T13:18:26Z</time>
      </trkpt>
      <trkpt lat="50.46342" lon="3.13131">
        <ele>-1.4</ele>
        <time>2018-06-24T13:18:30Z</time>
      </trkpt>
      <trkpt lat="50.46339" lon="3.13161">
        <ele>-0.8</ele>
        <time>2018-06-24T13:18:34Z</time>
      </trkpt>
      <trkpt lat="50.46337" lon="3.13191">
        <ele>-0.8</ele>
        <time>2018-06-24T13:18:38Z</time>
      </trkpt>
      <trkpt lat="50.46335" lon="3.13223">
        <ele>-1.2</ele>
        <time>2018-06-24T13:18:42Z</time>
      </trkpt>
      <trkpt lat="50.46332" lon="3.13254">
        <ele>-0.8</ele>
        <time>2018-06-24T13:18:46Z</time>
      </trkpt>
      <trkpt lat="50.4633" lon="3.13284">
        <ele>-1.4</ele>
        <time>2018-06-24T13:18:50Z</time>
      </trkpt>
      <trkpt lat="50.46327" lon="3.13316">
        <ele>-2</ele>
        <time>2018-06-24T13:18:54Z</time>
      </trkpt>
      <trkpt lat="50.46325" lon="3.13349">
        <ele>-1.8</ele>
        <time>2018-06-24T13:18:58Z</time>
      </trkpt>
      <trkpt lat="50.46322" lon="3.13383">
        <ele>-1.8</ele>
        <time>2018-06-24T13:19:02Z</time>
      </trkpt>
      <trkpt lat="50.46319" lon="3.13416">
        <ele>-1.8</ele>
        <time>2018-06-24T13:19:06Z</time>
      </trkpt>
      <trkpt lat="50.46316" lon="3.1345">
        <ele>-2</ele>
        <time>2018-06-24T13:19:10Z</time>
      </trkpt>
      <trkpt lat="50.46315" lon="3.13483">
        <ele>-1.6</ele>
        <time>2018-06-24T13:19:14Z</time>
      </trkpt>
      <trkpt lat="50.46312" lon="3.13515">
        <ele>-1.8</ele>
        <time>2018-06-24T13:19:18Z</time>
      </trkpt>
      <trkpt lat="50.46309" lon="3.13543">
        <ele>-2</ele>
        <time>2018-06-24T13:19:22Z</time>
      </trkpt>
      <trkpt lat="50.46307" lon="3.13571">
        <ele>-1.6</ele>
        <time>2018-06-24T13:19:26Z</time>
      </trkpt>
      <trkpt lat="50.46305" lon="3.13598">
        <ele>-2.2</ele>
        <time>2018-06-24T13:19:30Z</time>
      </trkpt>
      <trkpt lat="50.46304" lon="3.13624">
        <ele>-1.6</ele>
        <time>2018-06-24T13:19:34Z</time>
      </trkpt>
      <trkpt lat="50.46302" lon="3.13649">
        <ele>-2</ele>
        <time>2018-06-24T13:19:38Z</time>
      </trkpt>
      <trkpt lat="50.46298" lon="3.13669">
        <ele>-2.2</ele>
        <time>2018-06-24T13:19:42Z</time>
      </trkpt>
      <trkpt lat="50.46299" lon="3.13682">
        <ele>-1.6</ele>
        <time>2018-06-24T13:19:46Z</time>
      </trkpt>
      <trkpt lat="50.463" lon="3.13694">
        <ele>-1.4</ele>
        <time>2018-06-24T13:19:50Z</time>
      </trkpt>
      <trkpt lat="50.46298" lon="3.1371">
        <ele>-2</ele>
        <time>2018-06-24T13:19:54Z</time>
      </trkpt>
      <trkpt lat="50.46298" lon="3.1373">
        <ele>-1.8</ele>
        <time>2018-06-24T13:19:58Z</time>
      </trkpt>
      <trkpt lat="50.46296" lon="3.13753">
        <ele>-2.2</ele>
        <time>2018-06-24T13:20:02Z</time>
      </trkpt>
      <trkpt lat="50.46293" lon="3.13777">
        <ele>-2.8</ele>
        <time>2018-06-24T13:20:06Z</time>
      </trkpt>
      <trkpt lat="50.46292" lon="3.138">
        <ele>-1.8</ele>
        <time>2018-06-24T13:20:10Z</time>
      </trkpt>
      <trkpt lat="50.46291" lon="3.1382">
        <ele>-1.8</ele>
        <time>2018-06-24T13:20:14Z</time>
      </trkpt>
      <trkpt lat="50.46291" lon="3.13841">
        <ele>-1.8</ele>
        <time>2018-06-24T13:20:18Z</time>
      </trkpt>
      <trkpt lat="50.4629" lon="3.13864">
        <ele>-2</ele>
        <time>2018-06-24T13:20:22Z</time>
      </trkpt>
      <trkpt lat="50.46293" lon="3.13889">
        <ele>-1.8</ele>
        <time>2018-06-24T13:20:26Z</time>
      </trkpt>
      <trkpt lat="50.46293" lon="3.13914">
        <ele>-2.2</ele>
        <time>2018-06-24T13:20:30Z</time>
      </trkpt>
      <trkpt lat="50.46292" lon="3.1394">
        <ele>-2</ele>
        <time>2018-06-24T13:20:34Z</time>
      </trkpt>
      <trkpt lat="50.46292" lon="3.13965">
        <ele>-2</ele>
        <time>2018-06-24T13:20:38Z</time>
      </trkpt>
      <trkpt lat="50.46292" lon="3.13988">
        <ele>-2.2</ele>
        <time>2018-06-24T13:20:42Z</time>
      </trkpt>
      <trkpt lat="50.46295" lon="3.14012">
        <ele>-2.4</ele>
        <time>2018-06-24T13:20:46Z</time>
      </trkpt>
      <trkpt lat="50.46294" lon="3.14037">
        <ele>-2.4</ele>
        <time>2018-06-24T13:20:50Z</time>
      </trkpt>
      <trkpt lat="50.46295" lon="3.14061">
        <ele>-2.4</ele>
        <time>2018-06-24T13:20:54Z</time>
      </trkpt>
      <trkpt lat="50.46297" lon="3.14086">
        <ele>-2.6</ele>
        <time>2018-06-24T13:20:58Z</time>
      </trkpt>
      <trkpt lat="50.46298" lon="3.14109">
        <ele>-2.6</ele>
        <time>2018-06-24T13:21:02Z</time>
      </trkpt>
      <trkpt lat="50.46299" lon="3.14132">
        <ele>-3.2</ele>
        <time>2018-06-24T13:21:06Z</time>
      </trkpt>
      <trkpt lat="50.46301" lon="3.14152">
        <ele>-3.2</ele>
        <time>2018-06-24T13:21:10Z</time>
      </trkpt>
      <trkpt lat="50.46306" lon="3.14175">
        <ele>-3.2</ele>
        <time>2018-06-24T13:21:14Z</time>
      </trkpt>
      <trkpt lat="50.46304" lon="3.14198">
        <ele>-3.6</ele>
        <time>2018-06-24T13:21:18Z</time>
      </trkpt>
      <trkpt lat="50.46306" lon="3.14224">
        <ele>-3.2</ele>
        <time>2018-06-24T13:21:22Z</time>
      </trkpt>
      <trkpt lat="50.4631" lon="3.14252">
        <ele>-3.6</ele>
        <time>2018-06-24T13:21:26Z</time>
      </trkpt>
      <trkpt lat="50.46314" lon="3.14275">
        <ele>-3.4</ele>
        <time>2018-06-24T13:21:30Z</time>
      </trkpt>
      <trkpt lat="50.46321" lon="3.14298">
        <ele>-3.4</ele>
        <time>2018-06-24T13:21:34Z</time>
      </trkpt>
      <trkpt lat="50.46328" lon="3.14324">
        <ele>-4.2</ele>
        <time>2018-06-24T13:21:38Z</time>
      </trkpt>
      <trkpt lat="50.46337" lon="3.14348">
        <ele>-3.8</ele>
        <time>2018-06-24T13:21:42Z</time>
      </trkpt>
      <trkpt lat="50.46347" lon="3.14374">
        <ele>-4</ele>
        <time>2018-06-24T13:21:46Z</time>
      </trkpt>
      <trkpt lat="50.46359" lon="3.14394">
        <ele>-3.6</ele>
        <time>2018-06-24T13:21:50Z</time>
      </trkpt>
      <trkpt lat="50.46372" lon="3.14415">
        <ele>-4.2</ele>
        <time>2018-06-24T13:21:54Z</time>
      </trkpt>
      <trkpt lat="50.46388" lon="3.14435">
        <ele>-4</ele>
        <time>2018-06-24T13:21:58Z</time>
      </trkpt>
      <trkpt lat="50.46405" lon="3.14454">
        <ele>-4.2</ele>
        <time>2018-06-24T13:22:02Z</time>
      </trkpt>
      <trkpt lat="50.46422" lon="3.14468">
        <ele>-4.4</ele>
        <time>2018-06-24T13:22:06Z</time>
      </trkpt>
      <trkpt lat="50.4644" lon="3.1448">
        <ele>-5</ele>
        <time>2018-06-24T13:22:10Z</time>
      </trkpt>
      <trkpt lat="50.46457" lon="3.14489">
        <ele>-4.8</ele>
        <time>2018-06-24T13:22:14Z</time>
      </trkpt>
      <trkpt lat="50.46476" lon="3.14496">
        <ele>-5</ele>
        <time>2018-06-24T13:22:18Z</time>
      </trkpt>
      <trkpt lat="50.46496" lon="3.14501">
        <ele>-4.8</ele>
        <time>2018-06-24T13:22:22Z</time>
      </trkpt>
      <trkpt lat="50.46516" lon="3.14502">
        <ele>-5.6</ele>
        <time>2018-06-24T13:22:26Z</time>
      </trkpt>
      <trkpt lat="50.46535" lon="3.14503">
        <ele>-4.6</ele>
        <time>2018-06-24T13:22:30Z</time>
      </trkpt>
      <trkpt lat="50.46553" lon="3.14504">
        <ele>-5.2</ele>
        <time>2018-06-24T13:22:34Z</time>
      </trkpt>
      <trkpt lat="50.46571" lon="3.14505">
        <ele>-5</ele>
        <time>2018-06-24T13:22:38Z</time>
      </trkpt>
      <trkpt lat="50.46589" lon="3.14504">
        <ele>-5.4</ele>
        <time>2018-06-24T13:22:42Z</time>
      </trkpt>
      <trkpt lat="50.46608" lon="3.14507">
        <ele>-5</ele>
        <time>2018-06-24T13:22:46Z</time>
      </trkpt>
      <trkpt lat="50.46628" lon="3.14509">
        <ele>-4.6</ele>
        <time>2018-06-24T13:22:50Z</time>
      </trkpt>
      <trkpt lat="50.46647" lon="3.14512">
        <ele>-4.8</ele>
        <time>2018-06-24T13:22:54Z</time>
      </trkpt>
      <trkpt lat="50.46665" lon="3.14512">
        <ele>-5</ele>
        <time>2018-06-24T13:22:58Z</time>
      </trkpt>
      <trkpt lat="50.46686" lon="3.14514">
        <ele>-5</ele>
        <time>2018-06-24T13:23:02Z</time>
      </trkpt>
      <trkpt lat="50.46706" lon="3.14517">
        <ele>-3.8</ele>
        <time>2018-06-24T13:23:06Z</time>
      </trkpt>
      <trkpt lat="50.46726" lon="3.14517">
        <ele>-3.8</ele>
        <time>2018-06-24T13:23:10Z</time>
      </trkpt>
      <trkpt lat="50.46745" lon="3.14518">
        <ele>-3.6</ele>
        <time>2018-06-24T13:23:14Z</time>
      </trkpt>
      <trkpt lat="50.46765" lon="3.14521">
        <ele>-3</ele>
        <time>2018-06-24T13:23:18Z</time>
      </trkpt>
      <trkpt lat="50.46784" lon="3.14523">
        <ele>-3</ele>
        <time>2018-06-24T13:23:22Z</time>
      </trkpt>
      <trkpt lat="50.46802" lon="3.14525">
        <ele>-2.6</ele>
        <time>2018-06-24T13:23:26Z</time>
      </trkpt>
      <trkpt lat="50.4682" lon="3.14525">
        <ele>-2.8</ele>
        <time>2018-06-24T13:23:30Z</time>
      </trkpt>
      <trkpt lat="50.46837" lon="3.14528">
        <ele>-2.8</ele>
        <time>2018-06-24T13:23:34Z</time>
      </trkpt>
      <trkpt lat="50.46852" lon="3.1453">
        <ele>-3</ele>
        <time>2018-06-24T13:23:38Z</time>
      </trkpt>
      <trkpt lat="50.46865" lon="3.14531">
        <ele>-2.8</ele>
        <time>2018-06-24T13:23:42Z</time>
      </trkpt>
      <trkpt lat="50.46876" lon="3.14532">
        <ele>-3.8</ele>
        <time>2018-06-24T13:23:46Z</time>
      </trkpt>
      <trkpt lat="50.46885" lon="3.14535">
        <ele>-2.8</ele>
        <time>2018-06-24T13:23:50Z</time>
      </trkpt>
      <trkpt lat="50.46896" lon="3.14535">
        <ele>-2.6</ele>
        <time>2018-06-24T13:23:54Z</time>
      </trkpt>
      <trkpt lat="50.4691" lon="3.14534">
        <ele>-2.6</ele>
        <time>2018-06-24T13:23:58Z</time>
      </trkpt>
      <trkpt lat="50.46925" lon="3.14534">
        <ele>-1.8</ele>
        <time>2018-06-24T13:24:02Z</time>
      </trkpt>
      <trkpt lat="50.46941" lon="3.14533">
        <ele>-1.8</ele>
        <time>2018-06-24T13:24:06Z</time>
      </trkpt>
      <trkpt lat="50.46957" lon="3.14529">
        <ele>-2.2</ele>
        <time>2018-06-24T13:24:10Z</time>
      </trkpt>
      <trkpt lat="50.46971" lon="3.14526">
        <ele>-2</ele>
        <time>2018-06-24T13:24:14Z</time>
      </trkpt>
      <trkpt lat="50.46987" lon="3.14524">
        <ele>-1</ele>
        <time>2018-06-24T13:24:18Z</time>
      </trkpt>
      <trkpt lat="50.47004" lon="3.1452">
        <ele>-1.4</ele>
        <time>2018-06-24T13:24:22Z</time>
      </trkpt>
      <trkpt lat="50.4702" lon="3.14516">
        <ele>-1</ele>
        <time>2018-06-24T13:24:26Z</time>
      </trkpt>
      <trkpt lat="50.47037" lon="3.14514">
        <ele>-0.8</ele>
        <time>2018-06-24T13:24:30Z</time>
      </trkpt>
      <trkpt lat="50.47054" lon="3.14513">
        <ele>-0.4</ele>
        <time>2018-06-24T13:24:34Z</time>
      </trkpt>
      <trkpt lat="50.47072" lon="3.1451">
        <ele>-0.2</ele>
        <time>2018-06-24T13:24:38Z</time>
      </trkpt>
      <trkpt lat="50.4709" lon="3.14507">
        <ele>-0.2</ele>
        <time>2018-06-24T13:24:42Z</time>
      </trkpt>
      <trkpt lat="50.47107" lon="3.14504">
        <ele>36.7</ele>
        <time>2018-06-24T13:24:46Z</time>
      </trkpt>
      <trkpt lat="50.47125" lon="3.14501">
        <ele>0.2</ele>
        <time>2018-06-24T13:24:50Z</time>
      </trkpt>
      <trkpt lat="50.47142" lon="3.14499">
        <ele>37</ele>
        <time>2018-06-24T13:24:54Z</time>
      </trkpt>
      <trkpt lat="50.47159" lon="3.14496">
        <ele>0.4</ele>
        <time>2018-06-24T13:24:58Z</time>
      </trkpt>
      <trkpt lat="50.47176" lon="3.14493">
        <ele>0.6</ele>
        <time>2018-06-24T13:25:02Z</time>
      </trkpt>
      <trkpt lat="50.47192" lon="3.1449">
        <ele>1.2</ele>
        <time>2018-06-24T13:25:06Z</time>
      </trkpt>
      <trkpt lat="50.47208" lon="3.14486">
        <ele>1</ele>
        <time>2018-06-24T13:25:10Z</time>
      </trkpt>
      <trkpt lat="50.47223" lon="3.14479">
        <ele>1.2</ele>
        <time>2018-06-24T13:25:14Z</time>
      </trkpt>
      <trkpt lat="50.47238" lon="3.14472">
        <ele>1.6</ele>
        <time>2018-06-24T13:25:18Z</time>
      </trkpt>
      <trkpt lat="50.47253" lon="3.14463">
        <ele>1.2</ele>
        <time>2018-06-24T13:25:22Z</time>
      </trkpt>
      <trkpt lat="50.47267" lon="3.14454">
        <ele>2.4</ele>
        <time>2018-06-24T13:25:26Z</time>
      </trkpt>
      <trkpt lat="50.47281" lon="3.14444">
        <ele>2</ele>
        <time>2018-06-24T13:25:30Z</time>
      </trkpt>
      <trkpt lat="50.47295" lon="3.14434">
        <ele>2.8</ele>
        <time>2018-06-24T13:25:34Z</time>
      </trkpt>
      <trkpt lat="50.47309" lon="3.14424">
        <ele>2.8</ele>
        <time>2018-06-24T13:25:38Z</time>
      </trkpt>
      <trkpt lat="50.47324" lon="3.14413">
        <ele>2.6</ele>
        <time>2018-06-24T13:25:42Z</time>
      </trkpt>
      <trkpt lat="50.47339" lon="3.14403">
        <ele>2.6</ele>
        <time>2018-06-24T13:25:46Z</time>
      </trkpt>
      <trkpt lat="50.47353" lon="3.14392">
        <ele>2.6</ele>
        <time>2018-06-24T13:25:50Z</time>
      </trkpt>
      <trkpt lat="50.47369" lon="3.1438">
        <ele>3</ele>
        <time>2018-06-24T13:25:54Z</time>
      </trkpt>
      <trkpt lat="50.47384" lon="3.14368">
        <ele>2.8</ele>
        <time>2018-06-24T13:25:58Z</time>
      </trkpt>
      <trkpt lat="50.474" lon="3.14358">
        <ele>3</ele>
        <time>2018-06-24T13:26:02Z</time>
      </trkpt>
      <trkpt lat="50.47416" lon="3.14347">
        <ele>3</ele>
        <time>2018-06-24T13:26:06Z</time>
      </trkpt>
      <trkpt lat="50.47432" lon="3.14336">
        <ele>3.2</ele>
        <time>2018-06-24T13:26:10Z</time>
      </trkpt>
      <trkpt lat="50.47447" lon="3.14324">
        <ele>3.4</ele>
        <time>2018-06-24T13:26:14Z</time>
      </trkpt>
      <trkpt lat="50.47463" lon="3.14313">
        <ele>3.4</ele>
        <time>2018-06-24T13:26:18Z</time>
      </trkpt>
      <trkpt lat="50.47478" lon="3.14302">
        <ele>4.2</ele>
        <time>2018-06-24T13:26:22Z</time>
      </trkpt>
      <trkpt lat="50.47494" lon="3.1429">
        <ele>4.6</ele>
        <time>2018-06-24T13:26:26Z</time>
      </trkpt>
      <trkpt lat="50.47509" lon="3.14278">
        <ele>4.8</ele>
        <time>2018-06-24T13:26:30Z</time>
      </trkpt>
      <trkpt lat="50.47525" lon="3.14266">
        <ele>5</ele>
        <time>2018-06-24T13:26:34Z</time>
      </trkpt>
      <trkpt lat="50.47541" lon="3.14255">
        <ele>5.8</ele>
        <time>2018-06-24T13:26:38Z</time>
      </trkpt>
      <trkpt lat="50.47557" lon="3.14245">
        <ele>6.2</ele>
        <time>2018-06-24T13:26:42Z</time>
      </trkpt>
      <trkpt lat="50.47575" lon="3.14235">
        <ele>6.4</ele>
        <time>2018-06-24T13:26:46Z</time>
      </trkpt>
      <trkpt lat="50.47591" lon="3.14229">
        <ele>7.2</ele>
        <time>2018-06-24T13:26:50Z</time>
      </trkpt>
      <trkpt lat="50.47608" lon="3.14225">
        <ele>7.6</ele>
        <time>2018-06-24T13:26:54Z</time>
      </trkpt>
      <trkpt lat="50.47624" lon="3.14223">
        <ele>7.8</ele>
        <time>2018-06-24T13:26:58Z</time>
      </trkpt>
      <trkpt lat="50.47641" lon="3.14224">
        <ele>7.8</ele>
        <time>2018-06-24T13:27:02Z</time>
      </trkpt>
      <trkpt lat="50.47657" lon="3.14225">
        <ele>8.4</ele>
        <time>2018-06-24T13:27:06Z</time>
      </trkpt>
      <trkpt lat="50.47672" lon="3.14225">
        <ele>8.6</ele>
        <time>2018-06-24T13:27:10Z</time>
      </trkpt>
      <trkpt lat="50.47689" lon="3.14227">
        <ele>9.2</ele>
        <time>2018-06-24T13:27:14Z</time>
      </trkpt>
      <trkpt lat="50.47706" lon="3.1423">
        <ele>9.6</ele>
        <time>2018-06-24T13:27:18Z</time>
      </trkpt>
      <trkpt lat="50.47721" lon="3.14232">
        <ele>10.4</ele>
        <time>2018-06-24T13:27:22Z</time>
      </trkpt>
      <trkpt lat="50.47737" lon="3.14234">
        <ele>10.2</ele>
        <time>2018-06-24T13:27:26Z</time>
      </trkpt>
      <trkpt lat="50.47752" lon="3.14234">
        <ele>10.4</ele>
        <time>2018-06-24T13:27:30Z</time>
      </trkpt>
      <trkpt lat="50.47768" lon="3.14232">
        <ele>11</ele>
        <time>2018-06-24T13:27:34Z</time>
      </trkpt>
      <trkpt lat="50.47782" lon="3.14229">
        <ele>11.4</ele>
        <time>2018-06-24T13:27:38Z</time>
      </trkpt>
      <trkpt lat="50.47797" lon="3.14226">
        <ele>11.8</ele>
        <time>2018-06-24T13:27:42Z</time>
      </trkpt>
      <trkpt lat="50.47806" lon="3.14221">
        <ele>12.4</ele>
        <time>2018-06-24T13:27:46Z</time>
      </trkpt>
      <trkpt lat="50.47815" lon="3.14216">
        <ele>11.8</ele>
        <time>2018-06-24T13:27:50Z</time>
      </trkpt>
      <trkpt lat="50.47824" lon="3.1421">
        <ele>12.4</ele>
        <time>2018-06-24T13:27:54Z</time>
      </trkpt>
      <trkpt lat="50.4784" lon="3.14205">
        <ele>12.8</ele>
        <time>2018-06-24T13:27:58Z</time>
      </trkpt>
      <trkpt lat="50.47851" lon="3.14194">
        <ele>12.8</ele>
        <time>2018-06-24T13:28:02Z</time>
      </trkpt>
      <trkpt lat="50.47857" lon="3.14185">
        <ele>13.2</ele>
        <time>2018-06-24T13:28:06Z</time>
      </trkpt>
      <trkpt lat="50.47867" lon="3.14175">
        <ele>13</ele>
        <time>2018-06-24T13:28:10Z</time>
      </trkpt>
      <trkpt lat="50.47874" lon="3.1417">
        <ele>13.2</ele>
        <time>2018-06-24T13:28:14Z</time>
      </trkpt>
      <trkpt lat="50.47883" lon="3.14162">
        <ele>13.6</ele>
        <time>2018-06-24T13:28:18Z</time>
      </trkpt>
      <trkpt lat="50.47895" lon="3.14149">
        <ele>13.4</ele>
        <time>2018-06-24T13:28:22Z</time>
      </trkpt>
      <trkpt lat="50.4791" lon="3.14139">
        <ele>13.4</ele>
        <time>2018-06-24T13:28:26Z</time>
      </trkpt>
      <trkpt lat="50.47921" lon="3.14127">
        <ele>13.4</ele>
        <time>2018-06-24T13:28:30Z</time>
      </trkpt>
      <trkpt lat="50.47931" lon="3.14112">
        <ele>13.6</ele>
        <time>2018-06-24T13:28:34Z</time>
      </trkpt>
      <trkpt lat="50.4794" lon="3.141">
        <ele>13.8</ele>
        <time>2018-06-24T13:28:38Z</time>
      </trkpt>
      <trkpt lat="50.47943" lon="3.14087">
        <ele>13.4</ele>
        <time>2018-06-24T13:28:42Z</time>
      </trkpt>
      <trkpt lat="50.47951" lon="3.14079">
        <ele>13.6</ele>
        <time>2018-06-24T13:28:46Z</time>
      </trkpt>
      <trkpt lat="50.4796" lon="3.14068">
        <ele>13.6</ele>
        <time>2018-06-24T13:28:50Z</time>
      </trkpt>
      <trkpt lat="50.47967" lon="3.14053">
        <ele>13</ele>
        <time>2018-06-24T13:28:54Z</time>
      </trkpt>
      <trkpt lat="50.47975" lon="3.14042">
        <ele>13.6</ele>
        <time>2018-06-24T13:28:58Z</time>
      </trkpt>
      <trkpt lat="50.4798" lon="3.14034">
        <ele>13.6</ele>
        <time>2018-06-24T13:29:02Z</time>
      </trkpt>
      <trkpt lat="50.47985" lon="3.14025">
        <ele>13.2</ele>
        <time>2018-06-24T13:29:06Z</time>
      </trkpt>
      <trkpt lat="50.47991" lon="3.14017">
        <ele>12.8</ele>
        <time>2018-06-24T13:29:10Z</time>
      </trkpt>
      <trkpt lat="50.47999" lon="3.14011">
        <ele>12.4</ele>
        <time>2018-06-24T13:29:14Z</time>
      </trkpt>
      <trkpt lat="50.48007" lon="3.14003">
        <ele>13</ele>
        <time>2018-06-24T13:29:18Z</time>
      </trkpt>
      <trkpt lat="50.48017" lon="3.13992">
        <ele>13</ele>
        <time>2018-06-24T13:29:22Z</time>
      </trkpt>
      <trkpt lat="50.48029" lon="3.1398">
        <ele>13.2</ele>
        <time>2018-06-24T13:29:26Z</time>
      </trkpt>
      <trkpt lat="50.48039" lon="3.13969">
        <ele>13.2</ele>
        <time>2018-06-24T13:29:30Z</time>
      </trkpt>
      <trkpt lat="50.48049" lon="3.13962">
        <ele>13.2</ele>
        <time>2018-06-24T13:29:34Z</time>
      </trkpt>
      <trkpt lat="50.48054" lon="3.13958">
        <ele>13</ele>
        <time>2018-06-24T13:29:38Z</time>
      </trkpt>
      <trkpt lat="50.4806" lon="3.13953">
        <ele>13.2</ele>
        <time>2018-06-24T13:29:42Z</time>
      </trkpt>
      <trkpt lat="50.48069" lon="3.13947">
        <ele>13.2</ele>
        <time>2018-06-24T13:29:46Z</time>
      </trkpt>
      <trkpt lat="50.48081" lon="3.13937">
        <ele>13.2</ele>
        <time>2018-06-24T13:29:50Z</time>
      </trkpt>
      <trkpt lat="50.48094" lon="3.13927">
        <ele>13</ele>
        <time>2018-06-24T13:29:54Z</time>
      </trkpt>
      <trkpt lat="50.48108" lon="3.13917">
        <ele>13.8</ele>
        <time>2018-06-24T13:29:58Z</time>
      </trkpt>
      <trkpt lat="50.48122" lon="3.13908">
        <ele>13.8</ele>
        <time>2018-06-24T13:30:02Z</time>
      </trkpt>
      <trkpt lat="50.48136" lon="3.13899">
        <ele>13.8</ele>
        <time>2018-06-24T13:30:06Z</time>
      </trkpt>
      <trkpt lat="50.48149" lon="3.13889">
        <ele>14</ele>
        <time>2018-06-24T13:30:10Z</time>
      </trkpt>
      <trkpt lat="50.48163" lon="3.13879">
        <ele>14.4</ele>
        <time>2018-06-24T13:30:14Z</time>
      </trkpt>
      <trkpt lat="50.48177" lon="3.13868">
        <ele>14.4</ele>
        <time>2018-06-24T13:30:18Z</time>
      </trkpt>
      <trkpt lat="50.4819" lon="3.13859">
        <ele>14.2</ele>
        <time>2018-06-24T13:30:22Z</time>
      </trkpt>
      <trkpt lat="50.48204" lon="3.13849">
        <ele>14.8</ele>
        <time>2018-06-24T13:30:26Z</time>
      </trkpt>
      <trkpt lat="50.48217" lon="3.13836">
        <ele>14.8</ele>
        <time>2018-06-24T13:30:30Z</time>
      </trkpt>
      <trkpt lat="50.48231" lon="3.13823">
        <ele>15.6</ele>
        <time>2018-06-24T13:30:34Z</time>
      </trkpt>
      <trkpt lat="50.48243" lon="3.13807">
        <ele>15.8</ele>
        <time>2018-06-24T13:30:38Z</time>
      </trkpt>
      <trkpt lat="50.48255" lon="3.13791">
        <ele>15.8</ele>
        <time>2018-06-24T13:30:42Z</time>
      </trkpt>
      <trkpt lat="50.48269" lon="3.13775">
        <ele>15.8</ele>
        <time>2018-06-24T13:30:46Z</time>
      </trkpt>
      <trkpt lat="50.48283" lon="3.13759">
        <ele>16.2</ele>
        <time>2018-06-24T13:30:50Z</time>
      </trkpt>
      <trkpt lat="50.48298" lon="3.13742">
        <ele>17.4</ele>
        <time>2018-06-24T13:30:54Z</time>
      </trkpt>
      <trkpt lat="50.48313" lon="3.13727">
        <ele>17.4</ele>
        <time>2018-06-24T13:30:58Z</time>
      </trkpt>
      <trkpt lat="50.48326" lon="3.13711">
        <ele>17</ele>
        <time>2018-06-24T13:31:02Z</time>
      </trkpt>
      <trkpt lat="50.48339" lon="3.13694">
        <ele>17.6</ele>
        <time>2018-06-24T13:31:06Z</time>
      </trkpt>
      <trkpt lat="50.48353" lon="3.13678">
        <ele>18</ele>
        <time>2018-06-24T13:31:10Z</time>
      </trkpt>
      <trkpt lat="50.48368" lon="3.13662">
        <ele>18.6</ele>
        <time>2018-06-24T13:31:14Z</time>
      </trkpt>
      <trkpt lat="50.48382" lon="3.13647">
        <ele>19</ele>
        <time>2018-06-24T13:31:18Z</time>
      </trkpt>
      <trkpt lat="50.48398" lon="3.13633">
        <ele>19.4</ele>
        <time>2018-06-24T13:31:22Z</time>
      </trkpt>
      <trkpt lat="50.48413" lon="3.1362">
        <ele>20.4</ele>
        <time>2018-06-24T13:31:26Z</time>
      </trkpt>
      <trkpt lat="50.48429" lon="3.13608">
        <ele>20.4</ele>
        <time>2018-06-24T13:31:30Z</time>
      </trkpt>
      <trkpt lat="50.48445" lon="3.13598">
        <ele>20.4</ele>
        <time>2018-06-24T13:31:34Z</time>
      </trkpt>
      <trkpt lat="50.4846" lon="3.13587">
        <ele>19.8</ele>
        <time>2018-06-24T13:31:38Z</time>
      </trkpt>
      <trkpt lat="50.48473" lon="3.13579">
        <ele>19.8</ele>
        <time>2018-06-24T13:31:42Z</time>
      </trkpt>
      <trkpt lat="50.48487" lon="3.13571">
        <ele>20.4</ele>
        <time>2018-06-24T13:31:46Z</time>
      </trkpt>
      <trkpt lat="50.48502" lon="3.13561">
        <ele>19.8</ele>
        <time>2018-06-24T13:31:50Z</time>
      </trkpt>
      <trkpt lat="50.48516" lon="3.13552">
        <ele>19.6</ele>
        <time>2018-06-24T13:31:54Z</time>
      </trkpt>
      <trkpt lat="50.4853" lon="3.13543">
        <ele>19</ele>
        <time>2018-06-24T13:31:58Z</time>
      </trkpt>
      <trkpt lat="50.48544" lon="3.13534">
        <ele>19.4</ele>
        <time>2018-06-24T13:32:02Z</time>
      </trkpt>
      <trkpt lat="50.48557" lon="3.13524">
        <ele>19</ele>
        <time>2018-06-24T13:32:06Z</time>
      </trkpt>
      <trkpt lat="50.48569" lon="3.13513">
        <ele>18</ele>
        <time>2018-06-24T13:32:10Z</time>
      </trkpt>
      <trkpt lat="50.48579" lon="3.13503">
        <ele>17.6</ele>
        <time>2018-06-24T13:32:14Z</time>
      </trkpt>
      <trkpt lat="50.4859" lon="3.13501">
        <ele>18</ele>
        <time>2018-06-24T13:32:18Z</time>
      </trkpt>
      <trkpt lat="50.48596" lon="3.13489">
        <ele>18.2</ele>
        <time>2018-06-24T13:32:22Z</time>
      </trkpt>
      <trkpt lat="50.48603" lon="3.13478">
        <ele>16.6</ele>
        <time>2018-06-24T13:32:26Z</time>
      </trkpt>
      <trkpt lat="50.48612" lon="3.13461">
        <ele>16.4</ele>
        <time>2018-06-24T13:32:30Z</time>
      </trkpt>
      <trkpt lat="50.48623" lon="3.13443">
        <ele>16.2</ele>
        <time>2018-06-24T13:32:34Z</time>
      </trkpt>
      <trkpt lat="50.48635" lon="3.13424">
        <ele>15.6</ele>
        <time>2018-06-24T13:32:38Z</time>
      </trkpt>
      <trkpt lat="50.48649" lon="3.13403">
        <ele>16</ele>
        <time>2018-06-24T13:32:42Z</time>
      </trkpt>
      <trkpt lat="50.48662" lon="3.13381">
        <ele>15.6</ele>
        <time>2018-06-24T13:32:46Z</time>
      </trkpt>
      <trkpt lat="50.48673" lon="3.13362">
        <ele>15.4</ele>
        <time>2018-06-24T13:32:50Z</time>
      </trkpt>
      <trkpt lat="50.48684" lon="3.13344">
        <ele>15.2</ele>
        <time>2018-06-24T13:32:54Z</time>
      </trkpt>
      <trkpt lat="50.48695" lon="3.13326">
        <ele>15.2</ele>
        <time>2018-06-24T13:32:58Z</time>
      </trkpt>
      <trkpt lat="50.48706" lon="3.1331">
        <ele>14.6</ele>
        <time>2018-06-24T13:33:02Z</time>
      </trkpt>
      <trkpt lat="50.48716" lon="3.13293">
        <ele>14.6</ele>
        <time>2018-06-24T13:33:06Z</time>
      </trkpt>
      <trkpt lat="50.48726" lon="3.13278">
        <ele>14.6</ele>
        <time>2018-06-24T13:33:10Z</time>
      </trkpt>
      <trkpt lat="50.48736" lon="3.13269">
        <ele>13.8</ele>
        <time>2018-06-24T13:33:14Z</time>
      </trkpt>
      <trkpt lat="50.48745" lon="3.1326">
        <ele>14.2</ele>
        <time>2018-06-24T13:33:18Z</time>
      </trkpt>
      <trkpt lat="50.48752" lon="3.13253">
        <ele>14.4</ele>
        <time>2018-06-24T13:33:22Z</time>
      </trkpt>
      <trkpt lat="50.48758" lon="3.13241">
        <ele>14.4</ele>
        <time>2018-06-24T13:33:26Z</time>
      </trkpt>
      <trkpt lat="50.48765" lon="3.13228">
        <ele>14.4</ele>
        <time>2018-06-24T13:33:30Z</time>
      </trkpt>
      <trkpt lat="50.48776" lon="3.13216">
        <ele>14.4</ele>
        <time>2018-06-24T13:33:34Z</time>
      </trkpt>
      <trkpt lat="50.48789" lon="3.13202">
        <ele>14.6</ele>
        <time>2018-06-24T13:33:38Z</time>
      </trkpt>
      <trkpt lat="50.48801" lon="3.13189">
        <ele>14.4</ele>
        <time>2018-06-24T13:33:42Z</time>
      </trkpt>
      <trkpt lat="50.48814" lon="3.13174">
        <ele>14.6</ele>
        <time>2018-06-24T13:33:46Z</time>
      </trkpt>
      <trkpt lat="50.48823" lon="3.13157">
        <ele>14</ele>
        <time>2018-06-24T13:33:50Z</time>
      </trkpt>
      <trkpt lat="50.48837" lon="3.13142">
        <ele>14.4</ele>
        <time>2018-06-24T13:33:54Z</time>
      </trkpt>
      <trkpt lat="50.4885" lon="3.13128">
        <ele>14.6</ele>
        <time>2018-06-24T13:33:58Z</time>
      </trkpt>
      <trkpt lat="50.48863" lon="3.13115">
        <ele>14.6</ele>
        <time>2018-06-24T13:34:02Z</time>
      </trkpt>
      <trkpt lat="50.48877" lon="3.13104">
        <ele>14.6</ele>
        <time>2018-06-24T13:34:06Z</time>
      </trkpt>
      <trkpt lat="50.48891" lon="3.13092">
        <ele>15</ele>
        <time>2018-06-24T13:34:10Z</time>
      </trkpt>
      <trkpt lat="50.48906" lon="3.13081">
        <ele>15</ele>
        <time>2018-06-24T13:34:14Z</time>
      </trkpt>
      <trkpt lat="50.48922" lon="3.1307">
        <ele>14.8</ele>
        <time>2018-06-24T13:34:18Z</time>
      </trkpt>
      <trkpt lat="50.48937" lon="3.13057">
        <ele>14.8</ele>
        <time>2018-06-24T13:34:22Z</time>
      </trkpt>
      <trkpt lat="50.48952" lon="3.13043">
        <ele>14.2</ele>
        <time>2018-06-24T13:34:26Z</time>
      </trkpt>
      <trkpt lat="50.48966" lon="3.13032">
        <ele>15.2</ele>
        <time>2018-06-24T13:34:30Z</time>
      </trkpt>
      <trkpt lat="50.48979" lon="3.13018">
        <ele>15</ele>
        <time>2018-06-24T13:34:34Z</time>
      </trkpt>
      <trkpt lat="50.48992" lon="3.13001">
        <ele>15</ele>
        <time>2018-06-24T13:34:38Z</time>
      </trkpt>
      <trkpt lat="50.49005" lon="3.12984">
        <ele>14.6</ele>
        <time>2018-06-24T13:34:42Z</time>
      </trkpt>
      <trkpt lat="50.49017" lon="3.12969">
        <ele>14.4</ele>
        <time>2018-06-24T13:34:46Z</time>
      </trkpt>
      <trkpt lat="50.49028" lon="3.12953">
        <ele>14.4</ele>
        <time>2018-06-24T13:34:50Z</time>
      </trkpt>
      <trkpt lat="50.49041" lon="3.12937">
        <ele>14.6</ele>
        <time>2018-06-24T13:34:54Z</time>
      </trkpt>
      <trkpt lat="50.49053" lon="3.12919">
        <ele>13.4</ele>
        <time>2018-06-24T13:34:58Z</time>
      </trkpt>
      <trkpt lat="50.49064" lon="3.129">
        <ele>13.8</ele>
        <time>2018-06-24T13:35:02Z</time>
      </trkpt>
      <trkpt lat="50.49077" lon="3.12883">
        <ele>13.8</ele>
        <time>2018-06-24T13:35:06Z</time>
      </trkpt>
      <trkpt lat="50.49089" lon="3.12865">
        <ele>13.2</ele>
        <time>2018-06-24T13:35:10Z</time>
      </trkpt>
      <trkpt lat="50.49102" lon="3.12848">
        <ele>13</ele>
        <time>2018-06-24T13:35:14Z</time>
      </trkpt>
      <trkpt lat="50.49114" lon="3.12831">
        <ele>12.8</ele>
        <time>2018-06-24T13:35:18Z</time>
      </trkpt>
      <trkpt lat="50.49124" lon="3.12816">
        <ele>12</ele>
        <time>2018-06-24T13:35:22Z</time>
      </trkpt>
      <trkpt lat="50.49136" lon="3.12799">
        <ele>12.8</ele>
        <time>2018-06-24T13:35:26Z</time>
      </trkpt>
      <trkpt lat="50.49146" lon="3.12785">
        <ele>12.6</ele>
        <time>2018-06-24T13:35:30Z</time>
      </trkpt>
      <trkpt lat="50.49154" lon="3.12774">
        <ele>12.4</ele>
        <time>2018-06-24T13:35:34Z</time>
      </trkpt>
      <trkpt lat="50.49161" lon="3.12768">
        <ele>11.8</ele>
        <time>2018-06-24T13:35:38Z</time>
      </trkpt>
      <trkpt lat="50.49167" lon="3.12754">
        <ele>11.2</ele>
        <time>2018-06-24T13:35:42Z</time>
      </trkpt>
      <trkpt lat="50.49176" lon="3.12741">
        <ele>11.2</ele>
        <time>2018-06-24T13:35:46Z</time>
      </trkpt>
      <trkpt lat="50.49186" lon="3.12726">
        <ele>11</ele>
        <time>2018-06-24T13:35:50Z</time>
      </trkpt>
      <trkpt lat="50.49198" lon="3.12709">
        <ele>11.4</ele>
        <time>2018-06-24T13:35:54Z</time>
      </trkpt>
      <trkpt lat="50.49211" lon="3.12691">
        <ele>11</ele>
        <time>2018-06-24T13:35:58Z</time>
      </trkpt>
      <trkpt lat="50.49224" lon="3.12673">
        <ele>10.4</ele>
        <time>2018-06-24T13:36:02Z</time>
      </trkpt>
      <trkpt lat="50.49236" lon="3.12654">
        <ele>10.4</ele>
        <time>2018-06-24T13:36:06Z</time>
      </trkpt>
      <trkpt lat="50.4925" lon="3.12635">
        <ele>10</ele>
        <time>2018-06-24T13:36:10Z</time>
      </trkpt>
      <trkpt lat="50.49263" lon="3.12615">
        <ele>9.8</ele>
        <time>2018-06-24T13:36:14Z</time>
      </trkpt>
      <trkpt lat="50.49277" lon="3.12595">
        <ele>9.8</ele>
        <time>2018-06-24T13:36:18Z</time>
      </trkpt>
      <trkpt lat="50.4929" lon="3.12575">
        <ele>9.4</ele>
        <time>2018-06-24T13:36:22Z</time>
      </trkpt>
      <trkpt lat="50.49302" lon="3.12556">
        <ele>9.4</ele>
        <time>2018-06-24T13:36:26Z</time>
      </trkpt>
      <trkpt lat="50.49314" lon="3.12536">
        <ele>9.4</ele>
        <time>2018-06-24T13:36:30Z</time>
      </trkpt>
      <trkpt lat="50.49325" lon="3.12515">
        <ele>9.8</ele>
        <time>2018-06-24T13:36:34Z</time>
      </trkpt>
      <trkpt lat="50.49337" lon="3.12494">
        <ele>9.4</ele>
        <time>2018-06-24T13:36:38Z</time>
      </trkpt>
      <trkpt lat="50.49349" lon="3.12473">
        <ele>9.6</ele>
        <time>2018-06-24T13:36:42Z</time>
      </trkpt>
      <trkpt lat="50.4936" lon="3.12452">
        <ele>9.8</ele>
        <time>2018-06-24T13:36:46Z</time>
      </trkpt>
      <trkpt lat="50.49371" lon="3.1243">
        <ele>9.8</ele>
        <time>2018-06-24T13:36:50Z</time>
      </trkpt>
      <trkpt lat="50.49383" lon="3.12409">
        <ele>10.2</ele>
        <time>2018-06-24T13:36:54Z</time>
      </trkpt>
      <trkpt lat="50.49395" lon="3.12389">
        <ele>10.4</ele>
        <time>2018-06-24T13:36:58Z</time>
      </trkpt>
      <trkpt lat="50.49406" lon="3.12368">
        <ele>10.4</ele>
        <time>2018-06-24T13:37:02Z</time>
      </trkpt>
      <trkpt lat="50.49418" lon="3.12348">
        <ele>11</ele>
        <time>2018-06-24T13:37:06Z</time>
      </trkpt>
      <trkpt lat="50.49429" lon="3.12327">
        <ele>10.6</ele>
        <time>2018-06-24T13:37:10Z</time>
      </trkpt>
      <trkpt lat="50.49441" lon="3.12305">
        <ele>10.6</ele>
        <time>2018-06-24T13:37:14Z</time>
      </trkpt>
      <trkpt lat="50.49453" lon="3.12284">
        <ele>10.6</ele>
        <time>2018-06-24T13:37:18Z</time>
      </trkpt>
      <trkpt lat="50.49464" lon="3.12263">
        <ele>10.4</ele>
        <time>2018-06-24T13:37:22Z</time>
      </trkpt>
      <trkpt lat="50.49476" lon="3.12242">
        <ele>9.6</ele>
        <time>2018-06-24T13:37:26Z</time>
      </trkpt>
      <trkpt lat="50.49487" lon="3.12219">
        <ele>9.4</ele>
        <time>2018-06-24T13:37:30Z</time>
      </trkpt>
      <trkpt lat="50.49499" lon="3.122">
        <ele>9</ele>
        <time>2018-06-24T13:37:34Z</time>
      </trkpt>
      <trkpt lat="50.49509" lon="3.1218">
        <ele>8.6</ele>
        <time>2018-06-24T13:37:38Z</time>
      </trkpt>
      <trkpt lat="50.49518" lon="3.1216">
        <ele>8.6</ele>
        <time>2018-06-24T13:37:42Z</time>
      </trkpt>
      <trkpt lat="50.49527" lon="3.12149">
        <ele>7.8</ele>
        <time>2018-06-24T13:37:46Z</time>
      </trkpt>
      <trkpt lat="50.49536" lon="3.12136">
        <ele>8.4</ele>
        <time>2018-06-24T13:37:50Z</time>
      </trkpt>
      <trkpt lat="50.49547" lon="3.12121">
        <ele>8.2</ele>
        <time>2018-06-24T13:37:54Z</time>
      </trkpt>
      <trkpt lat="50.49559" lon="3.12104">
        <ele>8.6</ele>
        <time>2018-06-24T13:37:58Z</time>
      </trkpt>
      <trkpt lat="50.4957" lon="3.12086">
        <ele>9.2</ele>
        <time>2018-06-24T13:38:02Z</time>
      </trkpt>
      <trkpt lat="50.49582" lon="3.12069">
        <ele>9.8</ele>
        <time>2018-06-24T13:38:06Z</time>
      </trkpt>
      <trkpt lat="50.49594" lon="3.12051">
        <ele>9.8</ele>
        <time>2018-06-24T13:38:10Z</time>
      </trkpt>
      <trkpt lat="50.49607" lon="3.12034">
        <ele>10.4</ele>
        <time>2018-06-24T13:38:14Z</time>
      </trkpt>
      <trkpt lat="50.49618" lon="3.12016">
        <ele>10.4</ele>
        <time>2018-06-24T13:38:18Z</time>
      </trkpt>
      <trkpt lat="50.4963" lon="3.11997">
        <ele>10.8</ele>
        <time>2018-06-24T13:38:22Z</time>
      </trkpt>
      <trkpt lat="50.49643" lon="3.11979">
        <ele>10.6</ele>
        <time>2018-06-24T13:38:26Z</time>
      </trkpt>
      <trkpt lat="50.49657" lon="3.11962">
        <ele>10.4</ele>
        <time>2018-06-24T13:38:30Z</time>
      </trkpt>
      <trkpt lat="50.49671" lon="3.11944">
        <ele>10.2</ele>
        <time>2018-06-24T13:38:34Z</time>
      </trkpt>
      <trkpt lat="50.49684" lon="3.11925">
        <ele>10.2</ele>
        <time>2018-06-24T13:38:38Z</time>
      </trkpt>
      <trkpt lat="50.49698" lon="3.11906">
        <ele>10.4</ele>
        <time>2018-06-24T13:38:42Z</time>
      </trkpt>
      <trkpt lat="50.49712" lon="3.11887">
        <ele>10.4</ele>
        <time>2018-06-24T13:38:46Z</time>
      </trkpt>
      <trkpt lat="50.49725" lon="3.11868">
        <ele>9.6</ele>
        <time>2018-06-24T13:38:50Z</time>
      </trkpt>
      <trkpt lat="50.49738" lon="3.1185">
        <ele>10.4</ele>
        <time>2018-06-24T13:38:54Z</time>
      </trkpt>
      <trkpt lat="50.4975" lon="3.11832">
        <ele>11</ele>
        <time>2018-06-24T13:38:58Z</time>
      </trkpt>
      <trkpt lat="50.49761" lon="3.11817">
        <ele>10.4</ele>
        <time>2018-06-24T13:39:02Z</time>
      </trkpt>
      <trkpt lat="50.49773" lon="3.11804">
        <ele>10.4</ele>
        <time>2018-06-24T13:39:06Z</time>
      </trkpt>
      <trkpt lat="50.49782" lon="3.1179">
        <ele>11</ele>
        <time>2018-06-24T13:39:10Z</time>
      </trkpt>
      <trkpt lat="50.49791" lon="3.11772">
        <ele>10.8</ele>
        <time>2018-06-24T13:39:14Z</time>
      </trkpt>
      <trkpt lat="50.49805" lon="3.11756">
        <ele>10.6</ele>
        <time>2018-06-24T13:39:18Z</time>
      </trkpt>
      <trkpt lat="50.49818" lon="3.11737">
        <ele>10.4</ele>
        <time>2018-06-24T13:39:22Z</time>
      </trkpt>
      <trkpt lat="50.49832" lon="3.11719">
        <ele>11.2</ele>
        <time>2018-06-24T13:39:26Z</time>
      </trkpt>
      <trkpt lat="50.49846" lon="3.117">
        <ele>10.8</ele>
        <time>2018-06-24T13:39:30Z</time>
      </trkpt>
      <trkpt lat="50.49859" lon="3.11681">
        <ele>10</ele>
        <time>2018-06-24T13:39:34Z</time>
      </trkpt>
      <trkpt lat="50.49873" lon="3.11664">
        <ele>10.4</ele>
        <time>2018-06-24T13:39:38Z</time>
      </trkpt>
      <trkpt lat="50.49886" lon="3.11644">
        <ele>9.8</ele>
        <time>2018-06-24T13:39:42Z</time>
      </trkpt>
      <trkpt lat="50.49899" lon="3.11622">
        <ele>10.6</ele>
        <time>2018-06-24T13:39:46Z</time>
      </trkpt>
      <trkpt lat="50.49912" lon="3.11601">
        <ele>10.2</ele>
        <time>2018-06-24T13:39:50Z</time>
      </trkpt>
      <trkpt lat="50.49924" lon="3.11578">
        <ele>10</ele>
        <time>2018-06-24T13:39:54Z</time>
      </trkpt>
      <trkpt lat="50.49937" lon="3.11557">
        <ele>11.2</ele>
        <time>2018-06-24T13:39:58Z</time>
      </trkpt>
      <trkpt lat="50.4995" lon="3.11538">
        <ele>10.8</ele>
        <time>2018-06-24T13:40:02Z</time>
      </trkpt>
      <trkpt lat="50.49961" lon="3.1152">
        <ele>10.4</ele>
        <time>2018-06-24T13:40:06Z</time>
      </trkpt>
      <trkpt lat="50.4997" lon="3.11504">
        <ele>9.6</ele>
        <time>2018-06-24T13:40:10Z</time>
      </trkpt>
      <trkpt lat="50.4998" lon="3.11487">
        <ele>9.6</ele>
        <time>2018-06-24T13:40:14Z</time>
      </trkpt>
      <trkpt lat="50.4999" lon="3.11469">
        <ele>9.2</ele>
        <time>2018-06-24T13:40:18Z</time>
      </trkpt>
      <trkpt lat="50.49999" lon="3.1145">
        <ele>9.4</ele>
        <time>2018-06-24T13:40:22Z</time>
      </trkpt>
      <trkpt lat="50.50009" lon="3.11431">
        <ele>8.6</ele>
        <time>2018-06-24T13:40:26Z</time>
      </trkpt>
      <trkpt lat="50.50021" lon="3.11413">
        <ele>8</ele>
        <time>2018-06-24T13:40:30Z</time>
      </trkpt>
      <trkpt lat="50.50033" lon="3.11393">
        <ele>8.4</ele>
        <time>2018-06-24T13:40:34Z</time>
      </trkpt>
      <trkpt lat="50.50045" lon="3.11372">
        <ele>8.2</ele>
        <time>2018-06-24T13:40:38Z</time>
      </trkpt>
      <trkpt lat="50.50057" lon="3.11352">
        <ele>8.2</ele>
        <time>2018-06-24T13:40:42Z</time>
      </trkpt>
      <trkpt lat="50.5007" lon="3.11332">
        <ele>8.4</ele>
        <time>2018-06-24T13:40:46Z</time>
      </trkpt>
      <trkpt lat="50.50083" lon="3.1131">
        <ele>8</ele>
        <time>2018-06-24T13:40:50Z</time>
      </trkpt>
      <trkpt lat="50.50097" lon="3.11289">
        <ele>7.6</ele>
        <time>2018-06-24T13:40:54Z</time>
      </trkpt>
      <trkpt lat="50.5011" lon="3.11268">
        <ele>7.6</ele>
        <time>2018-06-24T13:40:58Z</time>
      </trkpt>
      <trkpt lat="50.50122" lon="3.11246">
        <ele>7</ele>
        <time>2018-06-24T13:41:02Z</time>
      </trkpt>
      <trkpt lat="50.50134" lon="3.11227">
        <ele>7.2</ele>
        <time>2018-06-24T13:41:06Z</time>
      </trkpt>
      <trkpt lat="50.50144" lon="3.11209">
        <ele>7</ele>
        <time>2018-06-24T13:41:10Z</time>
      </trkpt>
      <trkpt lat="50.50149" lon="3.11196">
        <ele>7.2</ele>
        <time>2018-06-24T13:41:14Z</time>
      </trkpt>
      <trkpt lat="50.50156" lon="3.1118">
        <ele>7.2</ele>
        <time>2018-06-24T13:41:18Z</time>
      </trkpt>
      <trkpt lat="50.50165" lon="3.11163">
        <ele>6.8</ele>
        <time>2018-06-24T13:41:22Z</time>
      </trkpt>
      <trkpt lat="50.50175" lon="3.1115">
        <ele>7.2</ele>
        <time>2018-06-24T13:41:26Z</time>
      </trkpt>
      <trkpt lat="50.50182" lon="3.11135">
        <ele>7</ele>
        <time>2018-06-24T13:41:30Z</time>
      </trkpt>
      <trkpt lat="50.50193" lon="3.11115">
        <ele>7.2</ele>
        <time>2018-06-24T13:41:34Z</time>
      </trkpt>
      <trkpt lat="50.50206" lon="3.11099">
        <ele>7.4</ele>
        <time>2018-06-24T13:41:38Z</time>
      </trkpt>
      <trkpt lat="50.5022" lon="3.11078">
        <ele>6.6</ele>
        <time>2018-06-24T13:41:42Z</time>
      </trkpt>
      <trkpt lat="50.50225" lon="3.11057">
        <ele>6.6</ele>
        <time>2018-06-24T13:41:46Z</time>
      </trkpt>
      <trkpt lat="50.50237" lon="3.11037">
        <ele>6.4</ele>
        <time>2018-06-24T13:41:50Z</time>
      </trkpt>
      <trkpt lat="50.50252" lon="3.11011">
        <ele>6.6</ele>
        <time>2018-06-24T13:41:54Z</time>
      </trkpt>
      <trkpt lat="50.50267" lon="3.10988">
        <ele>7.6</ele>
        <time>2018-06-24T13:41:58Z</time>
      </trkpt>
      <trkpt lat="50.50283" lon="3.1096">
        <ele>6.2</ele>
        <time>2018-06-24T13:42:02Z</time>
      </trkpt>
      <trkpt lat="50.50297" lon="3.10934">
        <ele>6.4</ele>
        <time>2018-06-24T13:42:06Z</time>
      </trkpt>
      <trkpt lat="50.50306" lon="3.10913">
        <ele>6.6</ele>
        <time>2018-06-24T13:42:10Z</time>
      </trkpt>
      <trkpt lat="50.50319" lon="3.10892">
        <ele>6.4</ele>
        <time>2018-06-24T13:42:14Z</time>
      </trkpt>
      <trkpt lat="50.50327" lon="3.10874">
        <ele>6.2</ele>
        <time>2018-06-24T13:42:18Z</time>
      </trkpt>
      <trkpt lat="50.50338" lon="3.10861">
        <ele>6.2</ele>
        <time>2018-06-24T13:42:22Z</time>
      </trkpt>
      <trkpt lat="50.50342" lon="3.10849">
        <ele>6.6</ele>
        <time>2018-06-24T13:42:26Z</time>
      </trkpt>
      <trkpt lat="50.50348" lon="3.10837">
        <ele>6.4</ele>
        <time>2018-06-24T13:42:30Z</time>
      </trkpt>
      <trkpt lat="50.50353" lon="3.10823">
        <ele>6.6</ele>
        <time>2018-06-24T13:42:34Z</time>
      </trkpt>
      <trkpt lat="50.50366" lon="3.10804">
        <ele>6.4</ele>
        <time>2018-06-24T13:42:38Z</time>
      </trkpt>
      <trkpt lat="50.50378" lon="3.10784">
        <ele>6.4</ele>
        <time>2018-06-24T13:42:42Z</time>
      </trkpt>
      <trkpt lat="50.50391" lon="3.10764">
        <ele>6.4</ele>
        <time>2018-06-24T13:42:46Z</time>
      </trkpt>
      <trkpt lat="50.50403" lon="3.10742">
        <ele>6.6</ele>
        <time>2018-06-24T13:42:50Z</time>
      </trkpt>
      <trkpt lat="50.50416" lon="3.10721">
        <ele>7.2</ele>
        <time>2018-06-24T13:42:54Z</time>
      </trkpt>
      <trkpt lat="50.50428" lon="3.10701">
        <ele>6.6</ele>
        <time>2018-06-24T13:42:58Z</time>
      </trkpt>
      <trkpt lat="50.50439" lon="3.10684">
        <ele>6.8</ele>
        <time>2018-06-24T13:43:02Z</time>
      </trkpt>
      <trkpt lat="50.50449" lon="3.10664">
        <ele>6.8</ele>
        <time>2018-06-24T13:43:06Z</time>
      </trkpt>
      <trkpt lat="50.50462" lon="3.10648">
        <ele>7.4</ele>
        <time>2018-06-24T13:43:10Z</time>
      </trkpt>
      <trkpt lat="50.50471" lon="3.1063">
        <ele>7.2</ele>
        <time>2018-06-24T13:43:14Z</time>
      </trkpt>
      <trkpt lat="50.50479" lon="3.10614">
        <ele>7.2</ele>
        <time>2018-06-24T13:43:18Z</time>
      </trkpt>
      <trkpt lat="50.50489" lon="3.10592">
        <ele>7.2</ele>
        <time>2018-06-24T13:43:22Z</time>
      </trkpt>
      <trkpt lat="50.50501" lon="3.1057">
        <ele>7.2</ele>
        <time>2018-06-24T13:43:26Z</time>
      </trkpt>
      <trkpt lat="50.50519" lon="3.10548">
        <ele>7.6</ele>
        <time>2018-06-24T13:43:30Z</time>
      </trkpt>
      <trkpt lat="50.50529" lon="3.10528">
        <ele>6.8</ele>
        <time>2018-06-24T13:43:34Z</time>
      </trkpt>
      <trkpt lat="50.50537" lon="3.10504">
        <ele>6.4</ele>
        <time>2018-06-24T13:43:38Z</time>
      </trkpt>
      <trkpt lat="50.50548" lon="3.10492">
        <ele>6.6</ele>
        <time>2018-06-24T13:43:42Z</time>
      </trkpt>
      <trkpt lat="50.50548" lon="3.10492">
        <ele>7</ele>
        <time>2018-06-24T13:43:46Z</time>
      </trkpt>
      <trkpt lat="50.50548" lon="3.10492">
        <ele>6.4</ele>
        <time>2018-06-24T13:43:50Z</time>
      </trkpt>
      <trkpt lat="50.50548" lon="3.10492">
        <ele>6.8</ele>
        <time>2018-06-24T13:43:54Z</time>
      </trkpt>
      <trkpt lat="50.50548" lon="3.10492">
        <ele>6.6</ele>
        <time>2018-06-24T13:43:58Z</time>
      </trkpt>
      <trkpt lat="50.50548" lon="3.10492">
        <ele>6.6</ele>
        <time>2018-06-24T13:44:02Z</time>
      </trkpt>
      <trkpt lat="50.50548" lon="3.10492">
        <ele>6.6</ele>
        <time>2018-06-24T13:44:06Z</time>
      </trkpt>
      <trkpt lat="50.50548" lon="3.10492">
        <ele>6.4</ele>
        <time>2018-06-24T13:44:10Z</time>
      </trkpt>
      <trkpt lat="50.50548" lon="3.10492">
        <ele>7</ele>
        <time>2018-06-24T13:44:14Z</time>
      </trkpt>
      <trkpt lat="50.50548" lon="3.10492">
        <ele>6.6</ele>
        <time>2018-06-24T13:44:18Z</time>
      </trkpt>
      <trkpt lat="50.50548" lon="3.10492">
        <ele>6.6</ele>
        <time>2018-06-24T13:44:22Z</time>
      </trkpt>
      <trkpt lat="50.50548" lon="3.10492">
        <ele>6.8</ele>
        <time>2018-06-24T13:44:26Z</time>
      </trkpt>
      <trkpt lat="50.50548" lon="3.10492">
        <ele>6.8</ele>
        <time>2018-06-24T13:44:30Z</time>
      </trkpt>
      <trkpt lat="50.50548" lon="3.10492">
        <ele>7.4</ele>
        <time>2018-06-24T13:44:34Z</time>
      </trkpt>
      <trkpt lat="50.50548" lon="3.10492">
        <ele>7.2</ele>
        <time>2018-06-24T13:44:38Z</time>
      </trkpt>
      <trkpt lat="50.50548" lon="3.10492">
        <ele>6.6</ele>
        <time>2018-06-24T13:44:42Z</time>
      </trkpt>
      <trkpt lat="50.50548" lon="3.10492">
        <ele>7</ele>
        <time>2018-06-24T13:44:46Z</time>
      </trkpt>
      <trkpt lat="50.50548" lon="3.10492">
        <ele>7.2</ele>
        <time>2018-06-24T13:44:50Z</time>
      </trkpt>
      <trkpt lat="50.50548" lon="3.10492">
        <ele>6.8</ele>
        <time>2018-06-24T13:44:54Z</time>
      </trkpt>
      <trkpt lat="50.50548" lon="3.10492">
        <ele>7.2</ele>
        <time>2018-06-24T13:44:58Z</time>
      </trkpt>
      <trkpt lat="50.50548" lon="3.10492">
        <ele>6.6</ele>
        <time>2018-06-24T13:45:02Z</time>
      </trkpt>
      <trkpt lat="50.50548" lon="3.10492">
        <ele>6.8</ele>
        <time>2018-06-24T13:45:06Z</time>
      </trkpt>
      <trkpt lat="50.50548" lon="3.10492">
        <ele>6.8</ele>
        <time>2018-06-24T13:45:10Z</time>
      </trkpt>
      <trkpt lat="50.50548" lon="3.10492">
        <ele>6.6</ele>
        <time>2018-06-24T13:45:14Z</time>
      </trkpt>
      <trkpt lat="50.50548" lon="3.10492">
        <ele>6.4</ele>
        <time>2018-06-24T13:45:18Z</time>
      </trkpt>
      <trkpt lat="50.50548" lon="3.10492">
        <ele>6.8</ele>
        <time>2018-06-24T13:45:22Z</time>
      </trkpt>
      <trkpt lat="50.50548" lon="3.10492">
        <ele>6.6</ele>
        <time>2018-06-24T13:45:26Z</time>
      </trkpt>
      <trkpt lat="50.50548" lon="3.10492">
        <ele>6.8</ele>
        <time>2018-06-24T13:45:30Z</time>
      </trkpt>
      <trkpt lat="50.50548" lon="3.10492">
        <ele>6.8</ele>
        <time>2018-06-24T13:45:34Z</time>
      </trkpt>
      <trkpt lat="50.50548" lon="3.10492">
        <ele>7</ele>
        <time>2018-06-24T13:45:38Z</time>
      </trkpt>
      <trkpt lat="50.50548" lon="3.10492">
        <ele>7</ele>
        <time>2018-06-24T13:45:42Z</time>
      </trkpt>
      <trkpt lat="50.50548" lon="3.10492">
        <ele>6.8</ele>
        <time>2018-06-24T13:45:46Z</time>
      </trkpt>
      <trkpt lat="50.50548" lon="3.10492">
        <ele>6.8</ele>
        <time>2018-06-24T13:45:50Z</time>
      </trkpt>
      <trkpt lat="50.50548" lon="3.10492">
        <ele>7</ele>
        <time>2018-06-24T13:45:54Z</time>
      </trkpt>
      <trkpt lat="50.50548" lon="3.10492">
        <ele>7</ele>
        <time>2018-06-24T13:45:58Z</time>
      </trkpt>
      <trkpt lat="50.50548" lon="3.10492">
        <ele>7</ele>
        <time>2018-06-24T13:46:02Z</time>
      </trkpt>
      <trkpt lat="50.50548" lon="3.10492">
        <ele>6.6</ele>
        <time>2018-06-24T13:46:06Z</time>
      </trkpt>
      <trkpt lat="50.50548" lon="3.10492">
        <ele>6.8</ele>
        <time>2018-06-24T13:46:10Z</time>
      </trkpt>
      <trkpt lat="50.50548" lon="3.10492">
        <ele>6.8</ele>
        <time>2018-06-24T13:46:14Z</time>
      </trkpt>
      <trkpt lat="50.50548" lon="3.10492">
        <ele>6.8</ele>
        <time>2018-06-24T13:46:18Z</time>
      </trkpt>
      <trkpt lat="50.50548" lon="3.10492">
        <ele>7</ele>
        <time>2018-06-24T13:46:22Z</time>
      </trkpt>
      <trkpt lat="50.50548" lon="3.10492">
        <ele>7</ele>
        <time>2018-06-24T13:46:26Z</time>
      </trkpt>
      <trkpt lat="50.50548" lon="3.10492">
        <ele>6.6</ele>
        <time>2018-06-24T13:46:30Z</time>
      </trkpt>
      <trkpt lat="50.50548" lon="3.10492">
        <ele>6.6</ele>
        <time>2018-06-24T13:46:34Z</time>
      </trkpt>
      <trkpt lat="50.50548" lon="3.10492">
        <ele>6.8</ele>
        <time>2018-06-24T13:46:38Z</time>
      </trkpt>
      <trkpt lat="50.50548" lon="3.10492">
        <ele>6.8</ele>
        <time>2018-06-24T13:46:42Z</time>
      </trkpt>
      <trkpt lat="50.50548" lon="3.10492">
        <ele>7</ele>
        <time>2018-06-24T13:46:46Z</time>
      </trkpt>
      <trkpt lat="50.50548" lon="3.10492">
        <ele>7</ele>
        <time>2018-06-24T13:46:50Z</time>
      </trkpt>
      <trkpt lat="50.50548" lon="3.10492">
        <ele>6.8</ele>
        <time>2018-06-24T13:46:54Z</time>
      </trkpt>
      <trkpt lat="50.50548" lon="3.10492">
        <ele>7</ele>
        <time>2018-06-24T13:46:58Z</time>
      </trkpt>
      <trkpt lat="50.50548" lon="3.10492">
        <ele>6.8</ele>
        <time>2018-06-24T13:47:02Z</time>
      </trkpt>
      <trkpt lat="50.50548" lon="3.10492">
        <ele>7</ele>
        <time>2018-06-24T13:47:06Z</time>
      </trkpt>
      <trkpt lat="50.50548" lon="3.10492">
        <ele>6.8</ele>
        <time>2018-06-24T13:47:10Z</time>
      </trkpt>
      <trkpt lat="50.50548" lon="3.10492">
        <ele>6.6</ele>
        <time>2018-06-24T13:47:14Z</time>
      </trkpt>
      <trkpt lat="50.50548" lon="3.10492">
        <ele>6.8</ele>
        <time>2018-06-24T13:47:18Z</time>
      </trkpt>
      <trkpt lat="50.50548" lon="3.10492">
        <ele>6.6</ele>
        <time>2018-06-24T13:47:22Z</time>
      </trkpt>
      <trkpt lat="50.50548" lon="3.10492">
        <ele>6.6</ele>
        <time>2018-06-24T13:47:26Z</time>
      </trkpt>
      <trkpt lat="50.50548" lon="3.10492">
        <ele>6.6</ele>
        <time>2018-06-24T13:47:30Z</time>
      </trkpt>
      <trkpt lat="50.50548" lon="3.10492">
        <ele>6.8</ele>
        <time>2018-06-24T13:47:34Z</time>
      </trkpt>
      <trkpt lat="50.50548" lon="3.10492">
        <ele>6.8</ele>
        <time>2018-06-24T13:47:38Z</time>
      </trkpt>
      <trkpt lat="50.50548" lon="3.10492">
        <ele>6.6</ele>
        <time>2018-06-24T13:47:42Z</time>
      </trkpt>
      <trkpt lat="50.50548" lon="3.10492">
        <ele>6.6</ele>
        <time>2018-06-24T13:47:46Z</time>
      </trkpt>
      <trkpt lat="50.50548" lon="3.10492">
        <ele>6.6</ele>
        <time>2018-06-24T13:47:50Z</time>
      </trkpt>
      <trkpt lat="50.50548" lon="3.10492">
        <ele>6.4</ele>
        <time>2018-06-24T13:47:54Z</time>
      </trkpt>
      <trkpt lat="50.50548" lon="3.10492">
        <ele>6.4</ele>
        <time>2018-06-24T13:47:58Z</time>
      </trkpt>
      <trkpt lat="50.50548" lon="3.10492">
        <ele>6.6</ele>
        <time>2018-06-24T13:48:02Z</time>
      </trkpt>
      <trkpt lat="50.50548" lon="3.10492">
        <ele>6.6</ele>
        <time>2018-06-24T13:48:06Z</time>
      </trkpt>
      <trkpt lat="50.50548" lon="3.10492">
        <ele>6.6</ele>
        <time>2018-06-24T13:48:10Z</time>
      </trkpt>
      <trkpt lat="50.50548" lon="3.10492">
        <ele>7</ele>
        <time>2018-06-24T13:48:14Z</time>
      </trkpt>
      <trkpt lat="50.50558" lon="3.1048">
        <ele>7</ele>
        <time>2018-06-24T13:48:18Z</time>
      </trkpt>
      <trkpt lat="50.50562" lon="3.10473">
        <ele>7.2</ele>
        <time>2018-06-24T13:48:22Z</time>
      </trkpt>
      <trkpt lat="50.50567" lon="3.10464">
        <ele>7.2</ele>
        <time>2018-06-24T13:48:26Z</time>
      </trkpt>
      <trkpt lat="50.50574" lon="3.10453">
        <ele>7.2</ele>
        <time>2018-06-24T13:48:30Z</time>
      </trkpt>
      <trkpt lat="50.50582" lon="3.10438">
        <ele>7.2</ele>
        <time>2018-06-24T13:48:34Z</time>
      </trkpt>
      <trkpt lat="50.50591" lon="3.10422">
        <ele>7.2</ele>
        <time>2018-06-24T13:48:38Z</time>
      </trkpt>
      <trkpt lat="50.50601" lon="3.10407">
        <ele>7.2</ele>
        <time>2018-06-24T13:48:42Z</time>
      </trkpt>
      <trkpt lat="50.5061" lon="3.1039">
        <ele>7.4</ele>
        <time>2018-06-24T13:48:46Z</time>
      </trkpt>
      <trkpt lat="50.5062" lon="3.10373">
        <ele>7.4</ele>
        <time>2018-06-24T13:48:50Z</time>
      </trkpt>
      <trkpt lat="50.5063" lon="3.10357">
        <ele>7.2</ele>
        <time>2018-06-24T13:48:54Z</time>
      </trkpt>
      <trkpt lat="50.5064" lon="3.1034">
        <ele>7.2</ele>
        <time>2018-06-24T13:48:58Z</time>
      </trkpt>
      <trkpt lat="50.5065" lon="3.10321">
        <ele>7</ele>
        <time>2018-06-24T13:49:02Z</time>
      </trkpt>
      <trkpt lat="50.5066" lon="3.10303">
        <ele>6.6</ele>
        <time>2018-06-24T13:49:06Z</time>
      </trkpt>
      <trkpt lat="50.50671" lon="3.10285">
        <ele>6.6</ele>
        <time>2018-06-24T13:49:10Z</time>
      </trkpt>
      <trkpt lat="50.50681" lon="3.10266">
        <ele>6.6</ele>
        <time>2018-06-24T13:49:14Z</time>
      </trkpt>
      <trkpt lat="50.50692" lon="3.10247">
        <ele>5.8</ele>
        <time>2018-06-24T13:49:18Z</time>
      </trkpt>
      <trkpt lat="50.50703" lon="3.10227">
        <ele>5.8</ele>
        <time>2018-06-24T13:49:22Z</time>
      </trkpt>
      <trkpt lat="50.50714" lon="3.10206">
        <ele>6</ele>
        <time>2018-06-24T13:49:26Z</time>
      </trkpt>
      <trkpt lat="50.50724" lon="3.10185">
        <ele>6</ele>
        <time>2018-06-24T13:49:30Z</time>
      </trkpt>
      <trkpt lat="50.50733" lon="3.10165">
        <ele>5.6</ele>
        <time>2018-06-24T13:49:34Z</time>
      </trkpt>
      <trkpt lat="50.50741" lon="3.10145">
        <ele>5.6</ele>
        <time>2018-06-24T13:49:38Z</time>
      </trkpt>
      <trkpt lat="50.50745" lon="3.10128">
        <ele>5.2</ele>
        <time>2018-06-24T13:49:42Z</time>
      </trkpt>
      <trkpt lat="50.50751" lon="3.10111">
        <ele>5</ele>
        <time>2018-06-24T13:49:46Z</time>
      </trkpt>
      <trkpt lat="50.50757" lon="3.1009">
        <ele>5.2</ele>
        <time>2018-06-24T13:49:50Z</time>
      </trkpt>
      <trkpt lat="50.50764" lon="3.10068">
        <ele>5.4</ele>
        <time>2018-06-24T13:49:54Z</time>
      </trkpt>
      <trkpt lat="50.5077" lon="3.10044">
        <ele>5.4</ele>
        <time>2018-06-24T13:49:58Z</time>
      </trkpt>
      <trkpt lat="50.50776" lon="3.10019">
        <ele>5.4</ele>
        <time>2018-06-24T13:50:02Z</time>
      </trkpt>
      <trkpt lat="50.50783" lon="3.09993">
        <ele>5.4</ele>
        <time>2018-06-24T13:50:06Z</time>
      </trkpt>
      <trkpt lat="50.5079" lon="3.09967">
        <ele>5</ele>
        <time>2018-06-24T13:50:10Z</time>
      </trkpt>
      <trkpt lat="50.50796" lon="3.09939">
        <ele>4.6</ele>
        <time>2018-06-24T13:50:14Z</time>
      </trkpt>
      <trkpt lat="50.50803" lon="3.09912">
        <ele>4.2</ele>
        <time>2018-06-24T13:50:18Z</time>
      </trkpt>
      <trkpt lat="50.50809" lon="3.09886">
        <ele>4</ele>
        <time>2018-06-24T13:50:22Z</time>
      </trkpt>
      <trkpt lat="50.50816" lon="3.0986">
        <ele>3.8</ele>
        <time>2018-06-24T13:50:26Z</time>
      </trkpt>
      <trkpt lat="50.50824" lon="3.09834">
        <ele>3.6</ele>
        <time>2018-06-24T13:50:30Z</time>
      </trkpt>
      <trkpt lat="50.50831" lon="3.09809">
        <ele>3.8</ele>
        <time>2018-06-24T13:50:34Z</time>
      </trkpt>
      <trkpt lat="50.50838" lon="3.09783">
        <ele>3.8</ele>
        <time>2018-06-24T13:50:38Z</time>
      </trkpt>
      <trkpt lat="50.50845" lon="3.09757">
        <ele>3.8</ele>
        <time>2018-06-24T13:50:42Z</time>
      </trkpt>
      <trkpt lat="50.50849" lon="3.09731">
        <ele>4.4</ele>
        <time>2018-06-24T13:50:46Z</time>
      </trkpt>
      <trkpt lat="50.50852" lon="3.09705">
        <ele>3.8</ele>
        <time>2018-06-24T13:50:50Z</time>
      </trkpt>
      <trkpt lat="50.50854" lon="3.09677">
        <ele>4</ele>
        <time>2018-06-24T13:50:54Z</time>
      </trkpt>
      <trkpt lat="50.50855" lon="3.09649">
        <ele>4.2</ele>
        <time>2018-06-24T13:50:58Z</time>
      </trkpt>
      <trkpt lat="50.50854" lon="3.0962">
        <ele>4.2</ele>
        <time>2018-06-24T13:51:02Z</time>
      </trkpt>
      <trkpt lat="50.50854" lon="3.09591">
        <ele>4.2</ele>
        <time>2018-06-24T13:51:06Z</time>
      </trkpt>
      <trkpt lat="50.50854" lon="3.09563">
        <ele>4.4</ele>
        <time>2018-06-24T13:51:10Z</time>
      </trkpt>
      <trkpt lat="50.50854" lon="3.09534">
        <ele>4.2</ele>
        <time>2018-06-24T13:51:14Z</time>
      </trkpt>
      <trkpt lat="50.50853" lon="3.09506">
        <ele>4.2</ele>
        <time>2018-06-24T13:51:18Z</time>
      </trkpt>
      <trkpt lat="50.50852" lon="3.09483">
        <ele>4</ele>
        <time>2018-06-24T13:51:22Z</time>
      </trkpt>
      <trkpt lat="50.50856" lon="3.09466">
        <ele>4</ele>
        <time>2018-06-24T13:51:26Z</time>
      </trkpt>
      <trkpt lat="50.50855" lon="3.09448">
        <ele>3.6</ele>
        <time>2018-06-24T13:51:30Z</time>
      </trkpt>
      <trkpt lat="50.50857" lon="3.09428">
        <ele>4.2</ele>
        <time>2018-06-24T13:51:34Z</time>
      </trkpt>
      <trkpt lat="50.50859" lon="3.09403">
        <ele>3.8</ele>
        <time>2018-06-24T13:51:38Z</time>
      </trkpt>
      <trkpt lat="50.50861" lon="3.09376">
        <ele>3.8</ele>
        <time>2018-06-24T13:51:42Z</time>
      </trkpt>
      <trkpt lat="50.50864" lon="3.09348">
        <ele>4</ele>
        <time>2018-06-24T13:51:46Z</time>
      </trkpt>
      <trkpt lat="50.50868" lon="3.0932">
        <ele>4.4</ele>
        <time>2018-06-24T13:51:50Z</time>
      </trkpt>
      <trkpt lat="50.50873" lon="3.09292">
        <ele>4.4</ele>
        <time>2018-06-24T13:51:54Z</time>
      </trkpt>
      <trkpt lat="50.50878" lon="3.09263">
        <ele>4.4</ele>
        <time>2018-06-24T13:51:58Z</time>
      </trkpt>
      <trkpt lat="50.50884" lon="3.09236">
        <ele>4.4</ele>
        <time>2018-06-24T13:52:02Z</time>
      </trkpt>
      <trkpt lat="50.50891" lon="3.09208">
        <ele>4.4</ele>
        <time>2018-06-24T13:52:06Z</time>
      </trkpt>
      <trkpt lat="50.509" lon="3.0918">
        <ele>4.4</ele>
        <time>2018-06-24T13:52:10Z</time>
      </trkpt>
      <trkpt lat="50.50908" lon="3.09153">
        <ele>4.2</ele>
        <time>2018-06-24T13:52:14Z</time>
      </trkpt>
      <trkpt lat="50.50918" lon="3.09127">
        <ele>3.8</ele>
        <time>2018-06-24T13:52:18Z</time>
      </trkpt>
      <trkpt lat="50.50928" lon="3.09101">
        <ele>3.6</ele>
        <time>2018-06-24T13:52:22Z</time>
      </trkpt>
      <trkpt lat="50.50939" lon="3.09077">
        <ele>3.4</ele>
        <time>2018-06-24T13:52:26Z</time>
      </trkpt>
      <trkpt lat="50.50951" lon="3.09053">
        <ele>2.8</ele>
        <time>2018-06-24T13:52:30Z</time>
      </trkpt>
      <trkpt lat="50.50963" lon="3.0903">
        <ele>3.6</ele>
        <time>2018-06-24T13:52:34Z</time>
      </trkpt>
      <trkpt lat="50.50976" lon="3.09006">
        <ele>3.2</ele>
        <time>2018-06-24T13:52:38Z</time>
      </trkpt>
      <trkpt lat="50.50988" lon="3.08979">
        <ele>2.8</ele>
        <time>2018-06-24T13:52:42Z</time>
      </trkpt>
      <trkpt lat="50.51001" lon="3.08954">
        <ele>3.4</ele>
        <time>2018-06-24T13:52:46Z</time>
      </trkpt>
      <trkpt lat="50.51014" lon="3.08929">
        <ele>3.2</ele>
        <time>2018-06-24T13:52:50Z</time>
      </trkpt>
      <trkpt lat="50.51027" lon="3.08904">
        <ele>3.4</ele>
        <time>2018-06-24T13:52:54Z</time>
      </trkpt>
      <trkpt lat="50.51041" lon="3.0888">
        <ele>3.6</ele>
        <time>2018-06-24T13:52:58Z</time>
      </trkpt>
      <trkpt lat="50.51056" lon="3.08857">
        <ele>3.8</ele>
        <time>2018-06-24T13:53:02Z</time>
      </trkpt>
      <trkpt lat="50.51071" lon="3.08835">
        <ele>4.4</ele>
        <time>2018-06-24T13:53:06Z</time>
      </trkpt>
      <trkpt lat="50.51087" lon="3.08816">
        <ele>4.4</ele>
        <time>2018-06-24T13:53:10Z</time>
      </trkpt>
      <trkpt lat="50.51104" lon="3.08803">
        <ele>3.8</ele>
        <time>2018-06-24T13:53:14Z</time>
      </trkpt>
      <trkpt lat="50.51118" lon="3.08793">
        <ele>4.4</ele>
        <time>2018-06-24T13:53:18Z</time>
      </trkpt>
      <trkpt lat="50.5113" lon="3.08789">
        <ele>3.8</ele>
        <time>2018-06-24T13:53:22Z</time>
      </trkpt>
      <trkpt lat="50.51135" lon="3.08787">
        <ele>4</ele>
        <time>2018-06-24T13:53:26Z</time>
      </trkpt>
      <trkpt lat="50.51143" lon="3.08782">
        <ele>4.2</ele>
        <time>2018-06-24T13:53:30Z</time>
      </trkpt>
      <trkpt lat="50.51153" lon="3.0878">
        <ele>5.2</ele>
        <time>2018-06-24T13:53:34Z</time>
      </trkpt>
      <trkpt lat="50.51163" lon="3.08776">
        <ele>4.6</ele>
        <time>2018-06-24T13:53:38Z</time>
      </trkpt>
      <trkpt lat="50.51175" lon="3.08772">
        <ele>4.8</ele>
        <time>2018-06-24T13:53:42Z</time>
      </trkpt>
      <trkpt lat="50.51189" lon="3.08771">
        <ele>5.4</ele>
        <time>2018-06-24T13:53:46Z</time>
      </trkpt>
      <trkpt lat="50.51204" lon="3.0877">
        <ele>5.4</ele>
        <time>2018-06-24T13:53:50Z</time>
      </trkpt>
      <trkpt lat="50.51219" lon="3.08771">
        <ele>6</ele>
        <time>2018-06-24T13:53:54Z</time>
      </trkpt>
      <trkpt lat="50.51235" lon="3.08772">
        <ele>6</ele>
        <time>2018-06-24T13:53:58Z</time>
      </trkpt>
      <trkpt lat="50.51251" lon="3.08778">
        <ele>6.2</ele>
        <time>2018-06-24T13:54:02Z</time>
      </trkpt>
      <trkpt lat="50.51267" lon="3.08783">
        <ele>6</ele>
        <time>2018-06-24T13:54:06Z</time>
      </trkpt>
      <trkpt lat="50.51283" lon="3.0879">
        <ele>6</ele>
        <time>2018-06-24T13:54:10Z</time>
      </trkpt>
      <trkpt lat="50.51299" lon="3.08798">
        <ele>6.2</ele>
        <time>2018-06-24T13:54:14Z</time>
      </trkpt>
      <trkpt lat="50.51315" lon="3.08807">
        <ele>5.8</ele>
        <time>2018-06-24T13:54:18Z</time>
      </trkpt>
      <trkpt lat="50.51331" lon="3.08818">
        <ele>6.2</ele>
        <time>2018-06-24T13:54:22Z</time>
      </trkpt>
      <trkpt lat="50.51347" lon="3.08828">
        <ele>6.2</ele>
        <time>2018-06-24T13:54:26Z</time>
      </trkpt>
      <trkpt lat="50.51364" lon="3.08841">
        <ele>6.2</ele>
        <time>2018-06-24T13:54:30Z</time>
      </trkpt>
      <trkpt lat="50.51381" lon="3.08853">
        <ele>5.8</ele>
        <time>2018-06-24T13:54:34Z</time>
      </trkpt>
      <trkpt lat="50.51398" lon="3.08862">
        <ele>5.6</ele>
        <time>2018-06-24T13:54:38Z</time>
      </trkpt>
      <trkpt lat="50.51413" lon="3.08871">
        <ele>5.6</ele>
        <time>2018-06-24T13:54:42Z</time>
      </trkpt>
      <trkpt lat="50.51428" lon="3.08879">
        <ele>5.4</ele>
        <time>2018-06-24T13:54:46Z</time>
      </trkpt>
      <trkpt lat="50.51442" lon="3.08887">
        <ele>5</ele>
        <time>2018-06-24T13:54:50Z</time>
      </trkpt>
      <trkpt lat="50.51458" lon="3.08897">
        <ele>4.4</ele>
        <time>2018-06-24T13:54:54Z</time>
      </trkpt>
      <trkpt lat="50.51473" lon="3.08908">
        <ele>4</ele>
        <time>2018-06-24T13:54:58Z</time>
      </trkpt>
      <trkpt lat="50.51488" lon="3.08919">
        <ele>4.2</ele>
        <time>2018-06-24T13:55:02Z</time>
      </trkpt>
      <trkpt lat="50.51503" lon="3.08931">
        <ele>3.2</ele>
        <time>2018-06-24T13:55:06Z</time>
      </trkpt>
      <trkpt lat="50.51516" lon="3.08943">
        <ele>3</ele>
        <time>2018-06-24T13:55:10Z</time>
      </trkpt>
      <trkpt lat="50.51527" lon="3.08953">
        <ele>3</ele>
        <time>2018-06-24T13:55:14Z</time>
      </trkpt>
      <trkpt lat="50.51536" lon="3.08962">
        <ele>2.6</ele>
        <time>2018-06-24T13:55:18Z</time>
      </trkpt>
      <trkpt lat="50.51547" lon="3.08971">
        <ele>2.6</ele>
        <time>2018-06-24T13:55:22Z</time>
      </trkpt>
      <trkpt lat="50.51558" lon="3.08983">
        <ele>3</ele>
        <time>2018-06-24T13:55:26Z</time>
      </trkpt>
      <trkpt lat="50.51572" lon="3.08995">
        <ele>2.8</ele>
        <time>2018-06-24T13:55:30Z</time>
      </trkpt>
      <trkpt lat="50.51583" lon="3.09001">
        <ele>3</ele>
        <time>2018-06-24T13:55:34Z</time>
      </trkpt>
      <trkpt lat="50.51594" lon="3.09008">
        <ele>3</ele>
        <time>2018-06-24T13:55:38Z</time>
      </trkpt>
      <trkpt lat="50.51607" lon="3.0902">
        <ele>3.2</ele>
        <time>2018-06-24T13:55:42Z</time>
      </trkpt>
      <trkpt lat="50.51619" lon="3.09032">
        <ele>3.4</ele>
        <time>2018-06-24T13:55:46Z</time>
      </trkpt>
      <trkpt lat="50.51633" lon="3.09045">
        <ele>3.4</ele>
        <time>2018-06-24T13:55:50Z</time>
      </trkpt>
      <trkpt lat="50.51647" lon="3.09058">
        <ele>3.6</ele>
        <time>2018-06-24T13:55:54Z</time>
      </trkpt>
      <trkpt lat="50.51661" lon="3.09071">
        <ele>3.6</ele>
        <time>2018-06-24T13:55:58Z</time>
      </trkpt>
      <trkpt lat="50.51675" lon="3.09082">
        <ele>3.8</ele>
        <time>2018-06-24T13:56:02Z</time>
      </trkpt>
      <trkpt lat="50.51686" lon="3.0909">
        <ele>4.2</ele>
        <time>2018-06-24T13:56:06Z</time>
      </trkpt>
      <trkpt lat="50.51698" lon="3.091">
        <ele>4.2</ele>
        <time>2018-06-24T13:56:10Z</time>
      </trkpt>
      <trkpt lat="50.51708" lon="3.09106">
        <ele>4</ele>
        <time>2018-06-24T13:56:14Z</time>
      </trkpt>
      <trkpt lat="50.51725" lon="3.09117">
        <ele>3.6</ele>
        <time>2018-06-24T13:56:18Z</time>
      </trkpt>
      <trkpt lat="50.51741" lon="3.0912">
        <ele>3.4</ele>
        <time>2018-06-24T13:56:22Z</time>
      </trkpt>
      <trkpt lat="50.51752" lon="3.09125">
        <ele>3.6</ele>
        <time>2018-06-24T13:56:26Z</time>
      </trkpt>
      <trkpt lat="50.51769" lon="3.09134">
        <ele>3.6</ele>
        <time>2018-06-24T13:56:30Z</time>
      </trkpt>
      <trkpt lat="50.51785" lon="3.09143">
        <ele>3.2</ele>
        <time>2018-06-24T13:56:34Z</time>
      </trkpt>
      <trkpt lat="50.51804" lon="3.09157">
        <ele>3.8</ele>
        <time>2018-06-24T13:56:38Z</time>
      </trkpt>
      <trkpt lat="50.5182" lon="3.09165">
        <ele>4.2</ele>
        <time>2018-06-24T13:56:42Z</time>
      </trkpt>
      <trkpt lat="50.51836" lon="3.09174">
        <ele>3.4</ele>
        <time>2018-06-24T13:56:46Z</time>
      </trkpt>
      <trkpt lat="50.51853" lon="3.09184">
        <ele>3.4</ele>
        <time>2018-06-24T13:56:50Z</time>
      </trkpt>
      <trkpt lat="50.51869" lon="3.09193">
        <ele>4.4</ele>
        <time>2018-06-24T13:56:54Z</time>
      </trkpt>
      <trkpt lat="50.51885" lon="3.09202">
        <ele>4.6</ele>
        <time>2018-06-24T13:56:58Z</time>
      </trkpt>
      <trkpt lat="50.51901" lon="3.09212">
        <ele>4.4</ele>
        <time>2018-06-24T13:57:02Z</time>
      </trkpt>
      <trkpt lat="50.51917" lon="3.09222">
        <ele>5.2</ele>
        <time>2018-06-24T13:57:06Z</time>
      </trkpt>
      <trkpt lat="50.51933" lon="3.09233">
        <ele>5.4</ele>
        <time>2018-06-24T13:57:10Z</time>
      </trkpt>
      <trkpt lat="50.5195" lon="3.09242">
        <ele>4.8</ele>
        <time>2018-06-24T13:57:14Z</time>
      </trkpt>
      <trkpt lat="50.51966" lon="3.09252">
        <ele>5.2</ele>
        <time>2018-06-24T13:57:18Z</time>
      </trkpt>
      <trkpt lat="50.51983" lon="3.09261">
        <ele>5.4</ele>
        <time>2018-06-24T13:57:22Z</time>
      </trkpt>
      <trkpt lat="50.52" lon="3.09271">
        <ele>4.8</ele>
        <time>2018-06-24T13:57:26Z</time>
      </trkpt>
      <trkpt lat="50.52017" lon="3.09281">
        <ele>4.8</ele>
        <time>2018-06-24T13:57:30Z</time>
      </trkpt>
      <trkpt lat="50.52034" lon="3.09291">
        <ele>4.8</ele>
        <time>2018-06-24T13:57:34Z</time>
      </trkpt>
      <trkpt lat="50.52051" lon="3.09302">
        <ele>4.6</ele>
        <time>2018-06-24T13:57:38Z</time>
      </trkpt>
      <trkpt lat="50.52068" lon="3.09312">
        <ele>5.2</ele>
        <time>2018-06-24T13:57:42Z</time>
      </trkpt>
      <trkpt lat="50.52085" lon="3.09323">
        <ele>5</ele>
        <time>2018-06-24T13:57:46Z</time>
      </trkpt>
      <trkpt lat="50.52102" lon="3.09334">
        <ele>5.2</ele>
        <time>2018-06-24T13:57:50Z</time>
      </trkpt>
      <trkpt lat="50.52119" lon="3.09347">
        <ele>5.2</ele>
        <time>2018-06-24T13:57:54Z</time>
      </trkpt>
      <trkpt lat="50.52134" lon="3.09359">
        <ele>5.4</ele>
        <time>2018-06-24T13:57:58Z</time>
      </trkpt>
      <trkpt lat="50.52148" lon="3.09373">
        <ele>5.2</ele>
        <time>2018-06-24T13:58:02Z</time>
      </trkpt>
      <trkpt lat="50.52162" lon="3.09383">
        <ele>5</ele>
        <time>2018-06-24T13:58:06Z</time>
      </trkpt>
      <trkpt lat="50.52176" lon="3.09395">
        <ele>4.8</ele>
        <time>2018-06-24T13:58:10Z</time>
      </trkpt>
      <trkpt lat="50.52187" lon="3.09405">
        <ele>6.2</ele>
        <time>2018-06-24T13:58:14Z</time>
      </trkpt>
      <trkpt lat="50.52195" lon="3.09416">
        <ele>5.4</ele>
        <time>2018-06-24T13:58:18Z</time>
      </trkpt>
      <trkpt lat="50.52203" lon="3.09426">
        <ele>5.8</ele>
        <time>2018-06-24T13:58:22Z</time>
      </trkpt>
      <trkpt lat="50.52211" lon="3.09434">
        <ele>5.8</ele>
        <time>2018-06-24T13:58:26Z</time>
      </trkpt>
      <trkpt lat="50.52222" lon="3.09442">
        <ele>5.8</ele>
        <time>2018-06-24T13:58:30Z</time>
      </trkpt>
      <trkpt lat="50.52234" lon="3.09455">
        <ele>6.4</ele>
        <time>2018-06-24T13:58:34Z</time>
      </trkpt>
      <trkpt lat="50.52247" lon="3.09468">
        <ele>6.8</ele>
        <time>2018-06-24T13:58:38Z</time>
      </trkpt>
      <trkpt lat="50.52261" lon="3.09481">
        <ele>6.2</ele>
        <time>2018-06-24T13:58:42Z</time>
      </trkpt>
      <trkpt lat="50.52275" lon="3.09493">
        <ele>6.6</ele>
        <time>2018-06-24T13:58:46Z</time>
      </trkpt>
      <trkpt lat="50.52286" lon="3.09503">
        <ele>6.6</ele>
        <time>2018-06-24T13:58:50Z</time>
      </trkpt>
      <trkpt lat="50.523" lon="3.09516">
        <ele>6.8</ele>
        <time>2018-06-24T13:58:54Z</time>
      </trkpt>
      <trkpt lat="50.52313" lon="3.0953">
        <ele>6.8</ele>
        <time>2018-06-24T13:58:58Z</time>
      </trkpt>
      <trkpt lat="50.52325" lon="3.09542">
        <ele>6.8</ele>
        <time>2018-06-24T13:59:02Z</time>
      </trkpt>
      <trkpt lat="50.52337" lon="3.09554">
        <ele>7.2</ele>
        <time>2018-06-24T13:59:06Z</time>
      </trkpt>
      <trkpt lat="50.52348" lon="3.09564">
        <ele>7</ele>
        <time>2018-06-24T13:59:10Z</time>
      </trkpt>
      <trkpt lat="50.5236" lon="3.0958">
        <ele>7</ele>
        <time>2018-06-24T13:59:14Z</time>
      </trkpt>
      <trkpt lat="50.52373" lon="3.09593">
        <ele>7</ele>
        <time>2018-06-24T13:59:18Z</time>
      </trkpt>
      <trkpt lat="50.52388" lon="3.09608">
        <ele>7.2</ele>
        <time>2018-06-24T13:59:22Z</time>
      </trkpt>
      <trkpt lat="50.52402" lon="3.09622">
        <ele>7.2</ele>
        <time>2018-06-24T13:59:26Z</time>
      </trkpt>
      <trkpt lat="50.52417" lon="3.09637">
        <ele>7</ele>
        <time>2018-06-24T13:59:30Z</time>
      </trkpt>
      <trkpt lat="50.52431" lon="3.09652">
        <ele>7</ele>
        <time>2018-06-24T13:59:34Z</time>
      </trkpt>
      <trkpt lat="50.52445" lon="3.09666">
        <ele>6.6</ele>
        <time>2018-06-24T13:59:38Z</time>
      </trkpt>
      <trkpt lat="50.5246" lon="3.09681">
        <ele>6.6</ele>
        <time>2018-06-24T13:59:42Z</time>
      </trkpt>
      <trkpt lat="50.52475" lon="3.09696">
        <ele>6.6</ele>
        <time>2018-06-24T13:59:46Z</time>
      </trkpt>
      <trkpt lat="50.52489" lon="3.0971">
        <ele>6.6</ele>
        <time>2018-06-24T13:59:50Z</time>
      </trkpt>
      <trkpt lat="50.52503" lon="3.09724">
        <ele>6.8</ele>
        <time>2018-06-24T13:59:54Z</time>
      </trkpt>
      <trkpt lat="50.52517" lon="3.09739">
        <ele>7.4</ele>
        <time>2018-06-24T13:59:58Z</time>
      </trkpt>
      <trkpt lat="50.5253" lon="3.09754">
        <ele>5.8</ele>
        <time>2018-06-24T14:00:02Z</time>
      </trkpt>
      <trkpt lat="50.52546" lon="3.09768">
        <ele>5.8</ele>
        <time>2018-06-24T14:00:06Z</time>
      </trkpt>
      <trkpt lat="50.52563" lon="3.09786">
        <ele>5.8</ele>
        <time>2018-06-24T14:00:10Z</time>
      </trkpt>
      <trkpt lat="50.52582" lon="3.09802">
        <ele>5.8</ele>
        <time>2018-06-24T14:00:14Z</time>
      </trkpt>
      <trkpt lat="50.52601" lon="3.09819">
        <ele>5.4</ele>
        <time>2018-06-24T14:00:18Z</time>
      </trkpt>
      <trkpt lat="50.52618" lon="3.09836">
        <ele>5.6</ele>
        <time>2018-06-24T14:00:22Z</time>
      </trkpt>
      <trkpt lat="50.52635" lon="3.09851">
        <ele>5.2</ele>
        <time>2018-06-24T14:00:26Z</time>
      </trkpt>
      <trkpt lat="50.52652" lon="3.09869">
        <ele>5.4</ele>
        <time>2018-06-24T14:00:30Z</time>
      </trkpt>
      <trkpt lat="50.52668" lon="3.09884">
        <ele>5</ele>
        <time>2018-06-24T14:00:34Z</time>
      </trkpt>
      <trkpt lat="50.52682" lon="3.09897">
        <ele>4.8</ele>
        <time>2018-06-24T14:00:38Z</time>
      </trkpt>
      <trkpt lat="50.52697" lon="3.09911">
        <ele>4.6</ele>
        <time>2018-06-24T14:00:42Z</time>
      </trkpt>
      <trkpt lat="50.52712" lon="3.09924">
        <ele>3.8</ele>
        <time>2018-06-24T14:00:46Z</time>
      </trkpt>
      <trkpt lat="50.52725" lon="3.09935">
        <ele>3.6</ele>
        <time>2018-06-24T14:00:50Z</time>
      </trkpt>
      <trkpt lat="50.52739" lon="3.09948">
        <ele>3.2</ele>
        <time>2018-06-24T14:00:54Z</time>
      </trkpt>
      <trkpt lat="50.52751" lon="3.09962">
        <ele>2.8</ele>
        <time>2018-06-24T14:00:58Z</time>
      </trkpt>
      <trkpt lat="50.5276" lon="3.0997">
        <ele>3</ele>
        <time>2018-06-24T14:01:02Z</time>
      </trkpt>
      <trkpt lat="50.5276" lon="3.0997">
        <ele>2.8</ele>
        <time>2018-06-24T14:01:06Z</time>
      </trkpt>
      <trkpt lat="50.5276" lon="3.0997">
        <ele>3</ele>
        <time>2018-06-24T14:01:10Z</time>
      </trkpt>
      <trkpt lat="50.5276" lon="3.0997">
        <ele>3</ele>
        <time>2018-06-24T14:01:14Z</time>
      </trkpt>
      <trkpt lat="50.5276" lon="3.0997">
        <ele>2.4</ele>
        <time>2018-06-24T14:01:18Z</time>
      </trkpt>
      <trkpt lat="50.5276" lon="3.0997">
        <ele>2.8</ele>
        <time>2018-06-24T14:01:22Z</time>
      </trkpt>
      <trkpt lat="50.5276" lon="3.0997">
        <ele>2.2</ele>
        <time>2018-06-24T14:01:26Z</time>
      </trkpt>
      <trkpt lat="50.5276" lon="3.0997">
        <ele>2.4</ele>
        <time>2018-06-24T14:01:30Z</time>
      </trkpt>
      <trkpt lat="50.5276" lon="3.0997">
        <ele>2.4</ele>
        <time>2018-06-24T14:01:34Z</time>
      </trkpt>
      <trkpt lat="50.5276" lon="3.0997">
        <ele>2.6</ele>
        <time>2018-06-24T14:01:38Z</time>
      </trkpt>
      <trkpt lat="50.5276" lon="3.0997">
        <ele>2.8</ele>
        <time>2018-06-24T14:01:42Z</time>
      </trkpt>
      <trkpt lat="50.5276" lon="3.0997">
        <ele>2.4</ele>
        <time>2018-06-24T14:01:46Z</time>
      </trkpt>
      <trkpt lat="50.5276" lon="3.0997">
        <ele>2.4</ele>
        <time>2018-06-24T14:01:50Z</time>
      </trkpt>
      <trkpt lat="50.52767" lon="3.09979">
        <ele>2.8</ele>
        <time>2018-06-24T14:01:54Z</time>
      </trkpt>
      <trkpt lat="50.52766" lon="3.09986">
        <ele>3.2</ele>
        <time>2018-06-24T14:01:58Z</time>
      </trkpt>
      <trkpt lat="50.52766" lon="3.09998">
        <ele>2.6</ele>
        <time>2018-06-24T14:02:02Z</time>
      </trkpt>
      <trkpt lat="50.52766" lon="3.10014">
        <ele>2</ele>
        <time>2018-06-24T14:02:06Z</time>
      </trkpt>
      <trkpt lat="50.52768" lon="3.10027">
        <ele>2.8</ele>
        <time>2018-06-24T14:02:10Z</time>
      </trkpt>
      <trkpt lat="50.52776" lon="3.10034">
        <ele>2.4</ele>
        <time>2018-06-24T14:02:14Z</time>
      </trkpt>
      <trkpt lat="50.52787" lon="3.10041">
        <ele>2</ele>
        <time>2018-06-24T14:02:18Z</time>
      </trkpt>
      <trkpt lat="50.52799" lon="3.10041">
        <ele>1.6</ele>
        <time>2018-06-24T14:02:22Z</time>
      </trkpt>
      <trkpt lat="50.52811" lon="3.10055">
        <ele>1.4</ele>
        <time>2018-06-24T14:02:26Z</time>
      </trkpt>
      <trkpt lat="50.52822" lon="3.10076">
        <ele>1</ele>
        <time>2018-06-24T14:02:30Z</time>
      </trkpt>
      <trkpt lat="50.52832" lon="3.10099">
        <ele>-0.2</ele>
        <time>2018-06-24T14:02:34Z</time>
      </trkpt>
      <trkpt lat="50.52841" lon="3.10121">
        <ele>-0.8</ele>
        <time>2018-06-24T14:02:38Z</time>
      </trkpt>
      <trkpt lat="50.52848" lon="3.1014">
        <ele>-0.4</ele>
        <time>2018-06-24T14:02:42Z</time>
      </trkpt>
      <trkpt lat="50.52856" lon="3.10161">
        <ele>-0.8</ele>
        <time>2018-06-24T14:02:46Z</time>
      </trkpt>
      <trkpt lat="50.52864" lon="3.10184">
        <ele>-0.6</ele>
        <time>2018-06-24T14:02:50Z</time>
      </trkpt>
      <trkpt lat="50.52872" lon="3.10208">
        <ele>-0.8</ele>
        <time>2018-06-24T14:02:54Z</time>
      </trkpt>
      <trkpt lat="50.52879" lon="3.10233">
        <ele>-1.4</ele>
        <time>2018-06-24T14:02:58Z</time>
      </trkpt>
      <trkpt lat="50.52887" lon="3.1026">
        <ele>-1</ele>
        <time>2018-06-24T14:03:02Z</time>
      </trkpt>
      <trkpt lat="50.52895" lon="3.10287">
        <ele>-1.2</ele>
        <time>2018-06-24T14:03:06Z</time>
      </trkpt>
      <trkpt lat="50.52902" lon="3.10312">
        <ele>-1.4</ele>
        <time>2018-06-24T14:03:10Z</time>
      </trkpt>
      <trkpt lat="50.52908" lon="3.10336">
        <ele>-1.8</ele>
        <time>2018-06-24T14:03:14Z</time>
      </trkpt>
      <trkpt lat="50.52914" lon="3.1036">
        <ele>-2</ele>
        <time>2018-06-24T14:03:18Z</time>
      </trkpt>
      <trkpt lat="50.52921" lon="3.10385">
        <ele>-1.6</ele>
        <time>2018-06-24T14:03:22Z</time>
      </trkpt>
      <trkpt lat="50.52928" lon="3.10411">
        <ele>-1.6</ele>
        <time>2018-06-24T14:03:26Z</time>
      </trkpt>
      <trkpt lat="50.52935" lon="3.10437">
        <ele>-1.4</ele>
        <time>2018-06-24T14:03:30Z</time>
      </trkpt>
      <trkpt lat="50.52942" lon="3.10462">
        <ele>-2.2</ele>
        <time>2018-06-24T14:03:34Z</time>
      </trkpt>
      <trkpt lat="50.52949" lon="3.10487">
        <ele>-1.8</ele>
        <time>2018-06-24T14:03:38Z</time>
      </trkpt>
      <trkpt lat="50.52956" lon="3.10512">
        <ele>-2.4</ele>
        <time>2018-06-24T14:03:42Z</time>
      </trkpt>
      <trkpt lat="50.52963" lon="3.10538">
        <ele>-1.8</ele>
        <time>2018-06-24T14:03:46Z</time>
      </trkpt>
      <trkpt lat="50.5297" lon="3.10563">
        <ele>-2</ele>
        <time>2018-06-24T14:03:50Z</time>
      </trkpt>
      <trkpt lat="50.52976" lon="3.10585">
        <ele>-2.2</ele>
        <time>2018-06-24T14:03:54Z</time>
      </trkpt>
      <trkpt lat="50.52981" lon="3.10606">
        <ele>-2.8</ele>
        <time>2018-06-24T14:03:58Z</time>
      </trkpt>
      <trkpt lat="50.52984" lon="3.10625">
        <ele>-2.8</ele>
        <time>2018-06-24T14:04:02Z</time>
      </trkpt>
      <trkpt lat="50.5299" lon="3.10632">
        <ele>-2.2</ele>
        <time>2018-06-24T14:04:06Z</time>
      </trkpt>
      <trkpt lat="50.52997" lon="3.10626">
        <ele>-2</ele>
        <time>2018-06-24T14:04:10Z</time>
      </trkpt>
      <trkpt lat="50.53007" lon="3.10623">
        <ele>-2</ele>
        <time>2018-06-24T14:04:14Z</time>
      </trkpt>
      <trkpt lat="50.53016" lon="3.10628">
        <ele>-2</ele>
        <time>2018-06-24T14:04:18Z</time>
      </trkpt>
      <trkpt lat="50.53027" lon="3.10635">
        <ele>-2.4</ele>
        <time>2018-06-24T14:04:22Z</time>
      </trkpt>
      <trkpt lat="50.53033" lon="3.10653">
        <ele>-3.2</ele>
        <time>2018-06-24T14:04:26Z</time>
      </trkpt>
      <trkpt lat="50.53045" lon="3.10647">
        <ele>-3.2</ele>
        <time>2018-06-24T14:04:30Z</time>
      </trkpt>
      <trkpt lat="50.53059" lon="3.10636">
        <ele>-3.2</ele>
        <time>2018-06-24T14:04:34Z</time>
      </trkpt>
      <trkpt lat="50.53075" lon="3.10624">
        <ele>-3.4</ele>
        <time>2018-06-24T14:04:38Z</time>
      </trkpt>
      <trkpt lat="50.53091" lon="3.10615">
        <ele>-4.2</ele>
        <time>2018-06-24T14:04:42Z</time>
      </trkpt>
      <trkpt lat="50.53106" lon="3.10606">
        <ele>-4.2</ele>
        <time>2018-06-24T14:04:46Z</time>
      </trkpt>
      <trkpt lat="50.53121" lon="3.10599">
        <ele>-4.2</ele>
        <time>2018-06-24T14:04:50Z</time>
      </trkpt>
      <trkpt lat="50.53136" lon="3.10595">
        <ele>-5</ele>
        <time>2018-06-24T14:04:54Z</time>
      </trkpt>
      <trkpt lat="50.53152" lon="3.10592">
        <ele>-4.4</ele>
        <time>2018-06-24T14:04:58Z</time>
      </trkpt>
      <trkpt lat="50.53169" lon="3.1059">
        <ele>-4.6</ele>
        <time>2018-06-24T14:05:02Z</time>
      </trkpt>
      <trkpt lat="50.53188" lon="3.10591">
        <ele>-5.2</ele>
        <time>2018-06-24T14:05:06Z</time>
      </trkpt>
      <trkpt lat="50.53206" lon="3.10591">
        <ele>-5</ele>
        <time>2018-06-24T14:05:10Z</time>
      </trkpt>
      <trkpt lat="50.53223" lon="3.10593">
        <ele>-5</ele>
        <time>2018-06-24T14:05:14Z</time>
      </trkpt>
      <trkpt lat="50.5324" lon="3.10596">
        <ele>-5.6</ele>
        <time>2018-06-24T14:05:18Z</time>
      </trkpt>
      <trkpt lat="50.53257" lon="3.10596">
        <ele>-5</ele>
        <time>2018-06-24T14:05:22Z</time>
      </trkpt>
      <trkpt lat="50.53273" lon="3.10594">
        <ele>-5.4</ele>
        <time>2018-06-24T14:05:26Z</time>
      </trkpt>
      <trkpt lat="50.53289" lon="3.10591">
        <ele>-5.4</ele>
        <time>2018-06-24T14:05:30Z</time>
      </trkpt>
      <trkpt lat="50.53306" lon="3.1059">
        <ele>-5.2</ele>
        <time>2018-06-24T14:05:34Z</time>
      </trkpt>
      <trkpt lat="50.53322" lon="3.10589">
        <ele>-5.6</ele>
        <time>2018-06-24T14:05:38Z</time>
      </trkpt>
      <trkpt lat="50.53338" lon="3.10589">
        <ele>-5.6</ele>
        <time>2018-06-24T14:05:42Z</time>
      </trkpt>
      <trkpt lat="50.53353" lon="3.10588">
        <ele>-5.8</ele>
        <time>2018-06-24T14:05:46Z</time>
      </trkpt>
      <trkpt lat="50.53367" lon="3.10588">
        <ele>-5.8</ele>
        <time>2018-06-24T14:05:50Z</time>
      </trkpt>
      <trkpt lat="50.53379" lon="3.10597">
        <ele>-5.8</ele>
        <time>2018-06-24T14:05:54Z</time>
      </trkpt>
      <trkpt lat="50.53385" lon="3.10617">
        <ele>-6</ele>
        <time>2018-06-24T14:05:58Z</time>
      </trkpt>
      <trkpt lat="50.53393" lon="3.10639">
        <ele>-6</ele>
        <time>2018-06-24T14:06:02Z</time>
      </trkpt>
      <trkpt lat="50.53401" lon="3.10663">
        <ele>-6</ele>
        <time>2018-06-24T14:06:06Z</time>
      </trkpt>
      <trkpt lat="50.5341" lon="3.10689">
        <ele>-5.6</ele>
        <time>2018-06-24T14:06:10Z</time>
      </trkpt>
      <trkpt lat="50.53418" lon="3.10717">
        <ele>-6</ele>
        <time>2018-06-24T14:06:14Z</time>
      </trkpt>
      <trkpt lat="50.53424" lon="3.10743">
        <ele>-6.4</ele>
        <time>2018-06-24T14:06:18Z</time>
      </trkpt>
      <trkpt lat="50.53426" lon="3.10774">
        <ele>-6.4</ele>
        <time>2018-06-24T14:06:22Z</time>
      </trkpt>
      <trkpt lat="50.53424" lon="3.10805">
        <ele>-6.8</ele>
        <time>2018-06-24T14:06:26Z</time>
      </trkpt>
      <trkpt lat="50.53416" lon="3.10832">
        <ele>-6.8</ele>
        <time>2018-06-24T14:06:30Z</time>
      </trkpt>
      <trkpt lat="50.53409" lon="3.10857">
        <ele>-7</ele>
        <time>2018-06-24T14:06:34Z</time>
      </trkpt>
      <trkpt lat="50.53401" lon="3.1088">
        <ele>-6.8</ele>
        <time>2018-06-24T14:06:38Z</time>
      </trkpt>
      <trkpt lat="50.53394" lon="3.10903">
        <ele>-6.4</ele>
        <time>2018-06-24T14:06:42Z</time>
      </trkpt>
      <trkpt lat="50.53386" lon="3.10923">
        <ele>-6.8</ele>
        <time>2018-06-24T14:06:46Z</time>
      </trkpt>
      <trkpt lat="50.53379" lon="3.10945">
        <ele>-6.4</ele>
        <time>2018-06-24T14:06:50Z</time>
      </trkpt>
      <trkpt lat="50.53372" lon="3.10967">
        <ele>-7.2</ele>
        <time>2018-06-24T14:06:54Z</time>
      </trkpt>
      <trkpt lat="50.53365" lon="3.10988">
        <ele>-7.2</ele>
        <time>2018-06-24T14:06:58Z</time>
      </trkpt>
      <trkpt lat="50.53359" lon="3.11008">
        <ele>-7.2</ele>
        <time>2018-06-24T14:07:02Z</time>
      </trkpt>
      <trkpt lat="50.53352" lon="3.11028">
        <ele>-6</ele>
        <time>2018-06-24T14:07:06Z</time>
      </trkpt>
      <trkpt lat="50.53346" lon="3.11048">
        <ele>-6</ele>
        <time>2018-06-24T14:07:10Z</time>
      </trkpt>
      <trkpt lat="50.53339" lon="3.11067">
        <ele>-6.2</ele>
        <time>2018-06-24T14:07:14Z</time>
      </trkpt>
      <trkpt lat="50.53334" lon="3.11088">
        <ele>-6.8</ele>
        <time>2018-06-24T14:07:18Z</time>
      </trkpt>
      <trkpt lat="50.53329" lon="3.11107">
        <ele>-7</ele>
        <time>2018-06-24T14:07:22Z</time>
      </trkpt>
      <trkpt lat="50.53323" lon="3.11127">
        <ele>-7</ele>
        <time>2018-06-24T14:07:26Z</time>
      </trkpt>
      <trkpt lat="50.53318" lon="3.11147">
        <ele>-7.4</ele>
        <time>2018-06-24T14:07:30Z</time>
      </trkpt>
      <trkpt lat="50.53318" lon="3.11166">
        <ele>-6.8</ele>
        <time>2018-06-24T14:07:34Z</time>
      </trkpt>
      <trkpt lat="50.53324" lon="3.11182">
        <ele>-6.8</ele>
        <time>2018-06-24T14:07:38Z</time>
      </trkpt>
      <trkpt lat="50.53331" lon="3.11198">
        <ele>-6.4</ele>
        <time>2018-06-24T14:07:42Z</time>
      </trkpt>
      <trkpt lat="50.53338" lon="3.11214">
        <ele>-6</ele>
        <time>2018-06-24T14:07:46Z</time>
      </trkpt>
      <trkpt lat="50.53345" lon="3.1123">
        <ele>-5.4</ele>
        <time>2018-06-24T14:07:50Z</time>
      </trkpt>
      <trkpt lat="50.53353" lon="3.11248">
        <ele>-6.2</ele>
        <time>2018-06-24T14:07:54Z</time>
      </trkpt>
      <trkpt lat="50.53361" lon="3.11265">
        <ele>-5.6</ele>
        <time>2018-06-24T14:07:58Z</time>
      </trkpt>
      <trkpt lat="50.53368" lon="3.11283">
        <ele>-6.2</ele>
        <time>2018-06-24T14:08:02Z</time>
      </trkpt>
      <trkpt lat="50.53376" lon="3.113">
        <ele>-5.6</ele>
        <time>2018-06-24T14:08:06Z</time>
      </trkpt>
      <trkpt lat="50.53384" lon="3.11318">
        <ele>-5.8</ele>
        <time>2018-06-24T14:08:10Z</time>
      </trkpt>
      <trkpt lat="50.53392" lon="3.11335">
        <ele>-5.8</ele>
        <time>2018-06-24T14:08:14Z</time>
      </trkpt>
      <trkpt lat="50.53399" lon="3.11353">
        <ele>-6.2</ele>
        <time>2018-06-24T14:08:18Z</time>
      </trkpt>
      <trkpt lat="50.53406" lon="3.11369">
        <ele>-5.6</ele>
        <time>2018-06-24T14:08:22Z</time>
      </trkpt>
      <trkpt lat="50.53414" lon="3.11386">
        <ele>-5.8</ele>
        <time>2018-06-24T14:08:26Z</time>
      </trkpt>
      <trkpt lat="50.53421" lon="3.11402">
        <ele>-6.8</ele>
        <time>2018-06-24T14:08:30Z</time>
      </trkpt>
      <trkpt lat="50.53429" lon="3.11419">
        <ele>-6.2</ele>
        <time>2018-06-24T14:08:34Z</time>
      </trkpt>
      <trkpt lat="50.53436" lon="3.11436">
        <ele>-7.2</ele>
        <time>2018-06-24T14:08:38Z</time>
      </trkpt>
      <trkpt lat="50.53444" lon="3.11453">
        <ele>-6.6</ele>
        <time>2018-06-24T14:08:42Z</time>
      </trkpt>
      <trkpt lat="50.53451" lon="3.11471">
        <ele>-5.8</ele>
        <time>2018-06-24T14:08:46Z</time>
      </trkpt>
      <trkpt lat="50.5346" lon="3.11489">
        <ele>-6</ele>
        <time>2018-06-24T14:08:50Z</time>
      </trkpt>
      <trkpt lat="50.53467" lon="3.11511">
        <ele>-6.6</ele>
        <time>2018-06-24T14:08:54Z</time>
      </trkpt>
      <trkpt lat="50.53473" lon="3.11533">
        <ele>-6.2</ele>
        <time>2018-06-24T14:08:58Z</time>
      </trkpt>
      <trkpt lat="50.53479" lon="3.11557">
        <ele>-5.8</ele>
        <time>2018-06-24T14:09:02Z</time>
      </trkpt>
      <trkpt lat="50.53484" lon="3.11581">
        <ele>-6.4</ele>
        <time>2018-06-24T14:09:06Z</time>
      </trkpt>
      <trkpt lat="50.53489" lon="3.11602">
        <ele>-6</ele>
        <time>2018-06-24T14:09:10Z</time>
      </trkpt>
      <trkpt lat="50.53494" lon="3.11624">
        <ele>-6</ele>
        <time>2018-06-24T14:09:14Z</time>
      </trkpt>
      <trkpt lat="50.53498" lon="3.11647">
        <ele>-6.2</ele>
        <time>2018-06-24T14:09:18Z</time>
      </trkpt>
      <trkpt lat="50.53501" lon="3.11671">
        <ele>-6.4</ele>
        <time>2018-06-24T14:09:22Z</time>
      </trkpt>
      <trkpt lat="50.53504" lon="3.11695">
        <ele>-6.2</ele>
        <time>2018-06-24T14:09:26Z</time>
      </trkpt>
      <trkpt lat="50.53509" lon="3.11719">
        <ele>-6</ele>
        <time>2018-06-24T14:09:30Z</time>
      </trkpt>
      <trkpt lat="50.53515" lon="3.11742">
        <ele>-7.2</ele>
        <time>2018-06-24T14:09:34Z</time>
      </trkpt>
      <trkpt lat="50.53522" lon="3.11767">
        <ele>-6.8</ele>
        <time>2018-06-24T14:09:38Z</time>
      </trkpt>
      <trkpt lat="50.53529" lon="3.11793">
        <ele>-6.8</ele>
        <time>2018-06-24T14:09:42Z</time>
      </trkpt>
      <trkpt lat="50.53536" lon="3.11817">
        <ele>-6.8</ele>
        <time>2018-06-24T14:09:46Z</time>
      </trkpt>
      <trkpt lat="50.53542" lon="3.11842">
        <ele>-7.2</ele>
        <time>2018-06-24T14:09:50Z</time>
      </trkpt>
      <trkpt lat="50.53549" lon="3.11867">
        <ele>-6.6</ele>
        <time>2018-06-24T14:09:54Z</time>
      </trkpt>
      <trkpt lat="50.53555" lon="3.11891">
        <ele>-6.6</ele>
        <time>2018-06-24T14:09:58Z</time>
      </trkpt>
      <trkpt lat="50.5356" lon="3.11915">
        <ele>-6.4</ele>
        <time>2018-06-24T14:10:02Z</time>
      </trkpt>
      <trkpt lat="50.53567" lon="3.1194">
        <ele>-7</ele>
        <time>2018-06-24T14:10:06Z</time>
      </trkpt>
      <trkpt lat="50.53576" lon="3.11962">
        <ele>-7</ele>
        <time>2018-06-24T14:10:10Z</time>
      </trkpt>
      <trkpt lat="50.53586" lon="3.11984">
        <ele>-6.6</ele>
        <time>2018-06-24T14:10:14Z</time>
      </trkpt>
      <trkpt lat="50.53595" lon="3.12005">
        <ele>-6.4</ele>
        <time>2018-06-24T14:10:18Z</time>
      </trkpt>
      <trkpt lat="50.53605" lon="3.12026">
        <ele>-6.2</ele>
        <time>2018-06-24T14:10:22Z</time>
      </trkpt>
      <trkpt lat="50.53615" lon="3.12047">
        <ele>-7.2</ele>
        <time>2018-06-24T14:10:26Z</time>
      </trkpt>
      <trkpt lat="50.53625" lon="3.12069">
        <ele>-6.2</ele>
        <time>2018-06-24T14:10:30Z</time>
      </trkpt>
      <trkpt lat="50.53635" lon="3.12091">
        <ele>-6</ele>
        <time>2018-06-24T14:10:34Z</time>
      </trkpt>
      <trkpt lat="50.53645" lon="3.12111">
        <ele>-6.2</ele>
        <time>2018-06-24T14:10:38Z</time>
      </trkpt>
      <trkpt lat="50.53654" lon="3.12132">
        <ele>-7.6</ele>
        <time>2018-06-24T14:10:42Z</time>
      </trkpt>
      <trkpt lat="50.53661" lon="3.12151">
        <ele>-7.4</ele>
        <time>2018-06-24T14:10:46Z</time>
      </trkpt>
      <trkpt lat="50.53657" lon="3.12169">
        <ele>-7.8</ele>
        <time>2018-06-24T14:10:50Z</time>
      </trkpt>
      <trkpt lat="50.53646" lon="3.1218">
        <ele>-7</ele>
        <time>2018-06-24T14:10:54Z</time>
      </trkpt>
      <trkpt lat="50.53633" lon="3.12192">
        <ele>-7.4</ele>
        <time>2018-06-24T14:10:58Z</time>
      </trkpt>
      <trkpt lat="50.53623" lon="3.12204">
        <ele>-7.4</ele>
        <time>2018-06-24T14:11:02Z</time>
      </trkpt>
      <trkpt lat="50.53619" lon="3.12223">
        <ele>-7.2</ele>
        <time>2018-06-24T14:11:06Z</time>
      </trkpt>
      <trkpt lat="50.53622" lon="3.12245">
        <ele>-7.2</ele>
        <time>2018-06-24T14:11:10Z</time>
      </trkpt>
      <trkpt lat="50.53627" lon="3.12265">
        <ele>-7.8</ele>
        <time>2018-06-24T14:11:14Z</time>
      </trkpt>
      <trkpt lat="50.53632" lon="3.12284">
        <ele>-7</ele>
        <time>2018-06-24T14:11:18Z</time>
      </trkpt>
      <trkpt lat="50.53637" lon="3.12304">
        <ele>-7.4</ele>
        <time>2018-06-24T14:11:22Z</time>
      </trkpt>
      <trkpt lat="50.53643" lon="3.12323">
        <ele>-7.4</ele>
        <time>2018-06-24T14:11:26Z</time>
      </trkpt>
      <trkpt lat="50.53649" lon="3.12343">
        <ele>-7.6</ele>
        <time>2018-06-24T14:11:30Z</time>
      </trkpt>
      <trkpt lat="50.53655" lon="3.12362">
        <ele>-6.6</ele>
        <time>2018-06-24T14:11:34Z</time>
      </trkpt>
      <trkpt lat="50.53661" lon="3.1238">
        <ele>-7.2</ele>
        <time>2018-06-24T14:11:38Z</time>
      </trkpt>
      <trkpt lat="50.5367" lon="3.12399">
        <ele>-6.4</ele>
        <time>2018-06-24T14:11:42Z</time>
      </trkpt>
      <trkpt lat="50.5368" lon="3.12417">
        <ele>-6.8</ele>
        <time>2018-06-24T14:11:46Z</time>
      </trkpt>
      <trkpt lat="50.5369" lon="3.12434">
        <ele>-7</ele>
        <time>2018-06-24T14:11:50Z</time>
      </trkpt>
      <trkpt lat="50.537" lon="3.1245">
        <ele>-6.6</ele>
        <time>2018-06-24T14:11:54Z</time>
      </trkpt>
      <trkpt lat="50.53709" lon="3.1247">
        <ele>-7</ele>
        <time>2018-06-24T14:11:58Z</time>
      </trkpt>
      <trkpt lat="50.53718" lon="3.1249">
        <ele>-7</ele>
        <time>2018-06-24T14:12:02Z</time>
      </trkpt>
      <trkpt lat="50.53726" lon="3.1251">
        <ele>-6.8</ele>
        <time>2018-06-24T14:12:06Z</time>
      </trkpt>
      <trkpt lat="50.53733" lon="3.12528">
        <ele>-7.8</ele>
        <time>2018-06-24T14:12:10Z</time>
      </trkpt>
      <trkpt lat="50.5374" lon="3.12546">
        <ele>-7.6</ele>
        <time>2018-06-24T14:12:14Z</time>
      </trkpt>
      <trkpt lat="50.53744" lon="3.12561">
        <ele>-7.4</ele>
        <time>2018-06-24T14:12:18Z</time>
      </trkpt>
      <trkpt lat="50.53744" lon="3.12561">
        <ele>-7.4</ele>
        <time>2018-06-24T14:12:22Z</time>
      </trkpt>
      <trkpt lat="50.53744" lon="3.12561">
        <ele>-7.4</ele>
        <time>2018-06-24T14:12:26Z</time>
      </trkpt>
      <trkpt lat="50.53747" lon="3.12568">
        <ele>-7.4</ele>
        <time>2018-06-24T14:12:30Z</time>
      </trkpt>
      <trkpt lat="50.53747" lon="3.12568">
        <ele>-7.6</ele>
        <time>2018-06-24T14:12:34Z</time>
      </trkpt>
      <trkpt lat="50.53747" lon="3.12568">
        <ele>-7.6</ele>
        <time>2018-06-24T14:12:38Z</time>
      </trkpt>
      <trkpt lat="50.53747" lon="3.12568">
        <ele>-7.2</ele>
        <time>2018-06-24T14:12:42Z</time>
      </trkpt>
      <trkpt lat="50.53747" lon="3.12568">
        <ele>-7.4</ele>
        <time>2018-06-24T14:12:46Z</time>
      </trkpt>
      <trkpt lat="50.53747" lon="3.12568">
        <ele>-7.6</ele>
        <time>2018-06-24T14:12:50Z</time>
      </trkpt>
      <trkpt lat="50.53747" lon="3.12568">
        <ele>-7</ele>
        <time>2018-06-24T14:12:54Z</time>
      </trkpt>
      <trkpt lat="50.53747" lon="3.12568">
        <ele>-7.4</ele>
        <time>2018-06-24T14:12:58Z</time>
      </trkpt>
      <trkpt lat="50.53747" lon="3.12568">
        <ele>-8</ele>
        <time>2018-06-24T14:13:02Z</time>
      </trkpt>
      <trkpt lat="50.53747" lon="3.12568">
        <ele>-7.8</ele>
        <time>2018-06-24T14:13:06Z</time>
      </trkpt>
      <trkpt lat="50.53747" lon="3.12568">
        <ele>-8</ele>
        <time>2018-06-24T14:13:10Z</time>
      </trkpt>
      <trkpt lat="50.53747" lon="3.12568">
        <ele>-7.8</ele>
        <time>2018-06-24T14:13:14Z</time>
      </trkpt>
      <trkpt lat="50.53747" lon="3.12568">
        <ele>-8.2</ele>
        <time>2018-06-24T14:13:18Z</time>
      </trkpt>
      <trkpt lat="50.53747" lon="3.12568">
        <ele>-7.6</ele>
        <time>2018-06-24T14:13:22Z</time>
      </trkpt>
      <trkpt lat="50.53747" lon="3.12568">
        <ele>-7.8</ele>
        <time>2018-06-24T14:13:26Z</time>
      </trkpt>
      <trkpt lat="50.53747" lon="3.12568">
        <ele>-8</ele>
        <time>2018-06-24T14:13:30Z</time>
      </trkpt>
      <trkpt lat="50.53747" lon="3.12568">
        <ele>-8.2</ele>
        <time>2018-06-24T14:13:34Z</time>
      </trkpt>
      <trkpt lat="50.53747" lon="3.12568">
        <ele>-8</ele>
        <time>2018-06-24T14:13:38Z</time>
      </trkpt>
      <trkpt lat="50.53747" lon="3.12568">
        <ele>-8</ele>
        <time>2018-06-24T14:13:42Z</time>
      </trkpt>
      <trkpt lat="50.53747" lon="3.12568">
        <ele>-8</ele>
        <time>2018-06-24T14:13:46Z</time>
      </trkpt>
      <trkpt lat="50.53747" lon="3.12568">
        <ele>-8</ele>
        <time>2018-06-24T14:13:50Z</time>
      </trkpt>
      <trkpt lat="50.53747" lon="3.12568">
        <ele>-7.8</ele>
        <time>2018-06-24T14:13:54Z</time>
      </trkpt>
      <trkpt lat="50.53747" lon="3.12568">
        <ele>-7.8</ele>
        <time>2018-06-24T14:13:58Z</time>
      </trkpt>
      <trkpt lat="50.53747" lon="3.12568">
        <ele>-8</ele>
        <time>2018-06-24T14:14:02Z</time>
      </trkpt>
      <trkpt lat="50.53747" lon="3.12568">
        <ele>-8.2</ele>
        <time>2018-06-24T14:14:06Z</time>
      </trkpt>
      <trkpt lat="50.53747" lon="3.12568">
        <ele>-7.8</ele>
        <time>2018-06-24T14:14:10Z</time>
      </trkpt>
      <trkpt lat="50.53747" lon="3.12568">
        <ele>-8.2</ele>
        <time>2018-06-24T14:14:14Z</time>
      </trkpt>
      <trkpt lat="50.53747" lon="3.12568">
        <ele>-8.4</ele>
        <time>2018-06-24T14:14:18Z</time>
      </trkpt>
      <trkpt lat="50.53747" lon="3.12568">
        <ele>-8.4</ele>
        <time>2018-06-24T14:14:22Z</time>
      </trkpt>
      <trkpt lat="50.53747" lon="3.12568">
        <ele>-8.4</ele>
        <time>2018-06-24T14:14:26Z</time>
      </trkpt>
      <trkpt lat="50.53747" lon="3.12568">
        <ele>-8</ele>
        <time>2018-06-24T14:14:30Z</time>
      </trkpt>
      <trkpt lat="50.53747" lon="3.12568">
        <ele>-8</ele>
        <time>2018-06-24T14:14:34Z</time>
      </trkpt>
      <trkpt lat="50.53747" lon="3.12568">
        <ele>-8</ele>
        <time>2018-06-24T14:14:38Z</time>
      </trkpt>
      <trkpt lat="50.53747" lon="3.12568">
        <ele>-8</ele>
        <time>2018-06-24T14:14:42Z</time>
      </trkpt>
      <trkpt lat="50.53747" lon="3.12568">
        <ele>-8</ele>
        <time>2018-06-24T14:14:46Z</time>
      </trkpt>
      <trkpt lat="50.53747" lon="3.12568">
        <ele>-8.2</ele>
        <time>2018-06-24T14:14:50Z</time>
      </trkpt>
      <trkpt lat="50.53747" lon="3.12568">
        <ele>-8</ele>
        <time>2018-06-24T14:14:54Z</time>
      </trkpt>
      <trkpt lat="50.53747" lon="3.12568">
        <ele>-8.2</ele>
        <time>2018-06-24T14:14:58Z</time>
      </trkpt>
      <trkpt lat="50.53747" lon="3.12568">
        <ele>-8.2</ele>
        <time>2018-06-24T14:15:02Z</time>
      </trkpt>
      <trkpt lat="50.53747" lon="3.12568">
        <ele>-8.2</ele>
        <time>2018-06-24T14:15:06Z</time>
      </trkpt>
      <trkpt lat="50.53747" lon="3.12568">
        <ele>-7.8</ele>
        <time>2018-06-24T14:15:10Z</time>
      </trkpt>
      <trkpt lat="50.53747" lon="3.12568">
        <ele>-8</ele>
        <time>2018-06-24T14:15:14Z</time>
      </trkpt>
      <trkpt lat="50.53747" lon="3.12568">
        <ele>-7.8</ele>
        <time>2018-06-24T14:15:18Z</time>
      </trkpt>
      <trkpt lat="50.53747" lon="3.12568">
        <ele>-8.2</ele>
        <time>2018-06-24T14:15:22Z</time>
      </trkpt>
      <trkpt lat="50.53747" lon="3.12568">
        <ele>-7.8</ele>
        <time>2018-06-24T14:15:26Z</time>
      </trkpt>
      <trkpt lat="50.53747" lon="3.12568">
        <ele>-8</ele>
        <time>2018-06-24T14:15:30Z</time>
      </trkpt>
      <trkpt lat="50.53747" lon="3.12568">
        <ele>-7.8</ele>
        <time>2018-06-24T14:15:34Z</time>
      </trkpt>
      <trkpt lat="50.53747" lon="3.12568">
        <ele>-7.8</ele>
        <time>2018-06-24T14:15:38Z</time>
      </trkpt>
      <trkpt lat="50.53747" lon="3.12568">
        <ele>-7.6</ele>
        <time>2018-06-24T14:15:42Z</time>
      </trkpt>
      <trkpt lat="50.53747" lon="3.12568">
        <ele>-7.6</ele>
        <time>2018-06-24T14:15:46Z</time>
      </trkpt>
      <trkpt lat="50.53747" lon="3.12568">
        <ele>-7.6</ele>
        <time>2018-06-24T14:15:50Z</time>
      </trkpt>
      <trkpt lat="50.53747" lon="3.12568">
        <ele>-7.4</ele>
        <time>2018-06-24T14:15:54Z</time>
      </trkpt>
      <trkpt lat="50.53747" lon="3.12568">
        <ele>-7.6</ele>
        <time>2018-06-24T14:15:58Z</time>
      </trkpt>
      <trkpt lat="50.53747" lon="3.12568">
        <ele>-7.6</ele>
        <time>2018-06-24T14:16:02Z</time>
      </trkpt>
      <trkpt lat="50.53747" lon="3.12568">
        <ele>-7.8</ele>
        <time>2018-06-24T14:16:06Z</time>
      </trkpt>
      <trkpt lat="50.53747" lon="3.12568">
        <ele>-7.8</ele>
        <time>2018-06-24T14:16:10Z</time>
      </trkpt>
      <trkpt lat="50.53747" lon="3.12568">
        <ele>-8</ele>
        <time>2018-06-24T14:16:14Z</time>
      </trkpt>
      <trkpt lat="50.53747" lon="3.12568">
        <ele>-7.6</ele>
        <time>2018-06-24T14:16:18Z</time>
      </trkpt>
      <trkpt lat="50.53747" lon="3.12568">
        <ele>-7.6</ele>
        <time>2018-06-24T14:16:22Z</time>
      </trkpt>
      <trkpt lat="50.53747" lon="3.12568">
        <ele>-7.8</ele>
        <time>2018-06-24T14:16:26Z</time>
      </trkpt>
      <trkpt lat="50.53747" lon="3.12568">
        <ele>-7.2</ele>
        <time>2018-06-24T14:16:30Z</time>
      </trkpt>
      <trkpt lat="50.53747" lon="3.12568">
        <ele>-7.6</ele>
        <time>2018-06-24T14:16:34Z</time>
      </trkpt>
      <trkpt lat="50.53747" lon="3.12568">
        <ele>-7.4</ele>
        <time>2018-06-24T14:16:38Z</time>
      </trkpt>
      <trkpt lat="50.53746" lon="3.12566">
        <ele>-7.6</ele>
        <time>2018-06-24T14:16:42Z</time>
      </trkpt>
      <trkpt lat="50.53747" lon="3.12569">
        <ele>-7.4</ele>
        <time>2018-06-24T14:16:46Z</time>
      </trkpt>
      <trkpt lat="50.53748" lon="3.12574">
        <ele>-7.8</ele>
        <time>2018-06-24T14:16:50Z</time>
      </trkpt>
      <trkpt lat="50.53751" lon="3.12586">
        <ele>-7.8</ele>
        <time>2018-06-24T14:16:54Z</time>
      </trkpt>
      <trkpt lat="50.53759" lon="3.12595">
        <ele>-7.2</ele>
        <time>2018-06-24T14:16:58Z</time>
      </trkpt>
      <trkpt lat="50.5377" lon="3.12597">
        <ele>-7</ele>
        <time>2018-06-24T14:17:02Z</time>
      </trkpt>
      <trkpt lat="50.53779" lon="3.12596">
        <ele>-8</ele>
        <time>2018-06-24T14:17:06Z</time>
      </trkpt>
      <trkpt lat="50.53789" lon="3.12595">
        <ele>-7.4</ele>
        <time>2018-06-24T14:17:10Z</time>
      </trkpt>
      <trkpt lat="50.53799" lon="3.12593">
        <ele>-7.4</ele>
        <time>2018-06-24T14:17:14Z</time>
      </trkpt>
      <trkpt lat="50.53809" lon="3.12593">
        <ele>-7.2</ele>
        <time>2018-06-24T14:17:18Z</time>
      </trkpt>
      <trkpt lat="50.53821" lon="3.12598">
        <ele>-7.2</ele>
        <time>2018-06-24T14:17:22Z</time>
      </trkpt>
      <trkpt lat="50.53832" lon="3.12604">
        <ele>-7.6</ele>
        <time>2018-06-24T14:17:26Z</time>
      </trkpt>
      <trkpt lat="50.53843" lon="3.12613">
        <ele>-7.2</ele>
        <time>2018-06-24T14:17:30Z</time>
      </trkpt>
      <trkpt lat="50.53853" lon="3.12628">
        <ele>-7.2</ele>
        <time>2018-06-24T14:17:34Z</time>
      </trkpt>
      <trkpt lat="50.53861" lon="3.12641">
        <ele>-7.2</ele>
        <time>2018-06-24T14:17:38Z</time>
      </trkpt>
      <trkpt lat="50.53867" lon="3.12653">
        <ele>-7</ele>
        <time>2018-06-24T14:17:42Z</time>
      </trkpt>
      <trkpt lat="50.53873" lon="3.12665">
        <ele>-6.8</ele>
        <time>2018-06-24T14:17:46Z</time>
      </trkpt>
      <trkpt lat="50.53878" lon="3.12676">
        <ele>-6.8</ele>
        <time>2018-06-24T14:17:50Z</time>
      </trkpt>
      <trkpt lat="50.53883" lon="3.12685">
        <ele>-6.4</ele>
        <time>2018-06-24T14:17:54Z</time>
      </trkpt>
      <trkpt lat="50.53884" lon="3.12694">
        <ele>-7</ele>
        <time>2018-06-24T14:17:58Z</time>
      </trkpt>
      <trkpt lat="50.53886" lon="3.127">
        <ele>-6.8</ele>
        <time>2018-06-24T14:18:02Z</time>
      </trkpt>
      <trkpt lat="50.53884" lon="3.12706">
        <ele>-7</ele>
        <time>2018-06-24T14:18:06Z</time>
      </trkpt>
      <trkpt lat="50.53884" lon="3.12706">
        <ele>-6.8</ele>
        <time>2018-06-24T14:18:10Z</time>
      </trkpt>
      <trkpt lat="50.53882" lon="3.1271">
        <ele>-6.6</ele>
        <time>2018-06-24T14:18:14Z</time>
      </trkpt>
      <trkpt lat="50.53879" lon="3.12715">
        <ele>-6.4</ele>
        <time>2018-06-24T14:18:18Z</time>
      </trkpt>
      <trkpt lat="50.53876" lon="3.12722">
        <ele>-6.8</ele>
        <time>2018-06-24T14:18:22Z</time>
      </trkpt>
      <trkpt lat="50.53871" lon="3.12724">
        <ele>-6.6</ele>
        <time>2018-06-24T14:18:26Z</time>
      </trkpt>
      <trkpt lat="50.53868" lon="3.12717">
        <ele>-6.4</ele>
        <time>2018-06-24T14:18:30Z</time>
      </trkpt>
      <trkpt lat="50.53871" lon="3.12711">
        <ele>-6.6</ele>
        <time>2018-06-24T14:18:34Z</time>
      </trkpt>
      <trkpt lat="50.53874" lon="3.12709">
        <ele>-6.6</ele>
        <time>2018-06-24T14:18:38Z</time>
      </trkpt>
      <trkpt lat="50.53877" lon="3.12705">
        <ele>-7</ele>
        <time>2018-06-24T14:18:42Z</time>
      </trkpt>
      <trkpt lat="50.53877" lon="3.12703">
        <ele>-6.6</ele>
        <time>2018-06-24T14:18:46Z</time>
      </trkpt>
      <trkpt lat="50.53877" lon="3.12699">
        <ele>-6.4</ele>
        <time>2018-06-24T14:18:50Z</time>
      </trkpt>
      <trkpt lat="50.53877" lon="3.12699">
        <ele>-6.4</ele>
        <time>2018-06-24T14:18:54Z</time>
      </trkpt>
      <trkpt lat="50.53876" lon="3.12698">
        <ele>-6.8</ele>
        <time>2018-06-24T14:18:58Z</time>
      </trkpt>
      <trkpt lat="50.53876" lon="3.12698">
        <ele>-6.6</ele>
        <time>2018-06-24T14:19:02Z</time>
      </trkpt>
      <trkpt lat="50.53876" lon="3.12694">
        <ele>-6.6</ele>
        <time>2018-06-24T14:19:06Z</time>
      </trkpt>
      <trkpt lat="50.53876" lon="3.12694">
        <ele>-6.8</ele>
        <time>2018-06-24T14:19:10Z</time>
      </trkpt>
      <trkpt lat="50.53876" lon="3.12694">
        <ele>-6.6</ele>
        <time>2018-06-24T14:19:14Z</time>
      </trkpt>
      <trkpt lat="50.53876" lon="3.12694">
        <ele>-6.6</ele>
        <time>2018-06-24T14:19:18Z</time>
      </trkpt>
      <trkpt lat="50.53876" lon="3.12694">
        <ele>-6.6</ele>
        <time>2018-06-24T14:19:22Z</time>
      </trkpt>
      <trkpt lat="50.53876" lon="3.12694">
        <ele>-6.8</ele>
        <time>2018-06-24T14:19:26Z</time>
      </trkpt>
      <trkpt lat="50.53876" lon="3.12694">
        <ele>-6.8</ele>
        <time>2018-06-24T14:19:30Z</time>
      </trkpt>
      <trkpt lat="50.53876" lon="3.12694">
        <ele>-6.6</ele>
        <time>2018-06-24T14:19:34Z</time>
      </trkpt>
      <trkpt lat="50.53876" lon="3.12694">
        <ele>-6.6</ele>
        <time>2018-06-24T14:19:38Z</time>
      </trkpt>
      <trkpt lat="50.53876" lon="3.12694">
        <ele>-6.6</ele>
        <time>2018-06-24T14:19:42Z</time>
      </trkpt>
      <trkpt lat="50.53876" lon="3.12694">
        <ele>-6.6</ele>
        <time>2018-06-24T14:19:46Z</time>
      </trkpt>
      <trkpt lat="50.53876" lon="3.12694">
        <ele>-6.4</ele>
        <time>2018-06-24T14:19:50Z</time>
      </trkpt>
      <trkpt lat="50.53876" lon="3.12694">
        <ele>-6.4</ele>
        <time>2018-06-24T14:19:54Z</time>
      </trkpt>
      <trkpt lat="50.53876" lon="3.12694">
        <ele>-6.4</ele>
        <time>2018-06-24T14:19:58Z</time>
      </trkpt>
      <trkpt lat="50.53876" lon="3.12694">
        <ele>-6.4</ele>
        <time>2018-06-24T14:20:02Z</time>
      </trkpt>
      <trkpt lat="50.53876" lon="3.12694">
        <ele>-6.4</ele>
        <time>2018-06-24T14:20:06Z</time>
      </trkpt>
      <trkpt lat="50.53876" lon="3.12694">
        <ele>-6.2</ele>
        <time>2018-06-24T14:20:10Z</time>
      </trkpt>
      <trkpt lat="50.53876" lon="3.12694">
        <ele>-6.6</ele>
        <time>2018-06-24T14:20:14Z</time>
      </trkpt>
      <trkpt lat="50.53876" lon="3.12694">
        <ele>-6.4</ele>
        <time>2018-06-24T14:20:18Z</time>
      </trkpt>
      <trkpt lat="50.53876" lon="3.12694">
        <ele>-6.4</ele>
        <time>2018-06-24T14:20:22Z</time>
      </trkpt>
      <trkpt lat="50.53876" lon="3.12694">
        <ele>-6.4</ele>
        <time>2018-06-24T14:20:26Z</time>
      </trkpt>
      <trkpt lat="50.53876" lon="3.12694">
        <ele>-6.4</ele>
        <time>2018-06-24T14:20:30Z</time>
      </trkpt>
      <trkpt lat="50.53876" lon="3.12694">
        <ele>-6.4</ele>
        <time>2018-06-24T14:20:34Z</time>
      </trkpt>
      <trkpt lat="50.53876" lon="3.12694">
        <ele>-6.6</ele>
        <time>2018-06-24T14:20:38Z</time>
      </trkpt>
      <trkpt lat="50.53876" lon="3.12694">
        <ele>-6.8</ele>
        <time>2018-06-24T14:20:42Z</time>
      </trkpt>
      <trkpt lat="50.53876" lon="3.12694">
        <ele>-6.6</ele>
        <time>2018-06-24T14:20:46Z</time>
      </trkpt>
      <trkpt lat="50.53876" lon="3.12694">
        <ele>-7</ele>
        <time>2018-06-24T14:20:50Z</time>
      </trkpt>
      <trkpt lat="50.53876" lon="3.12694">
        <ele>-6.8</ele>
        <time>2018-06-24T14:20:54Z</time>
      </trkpt>
      <trkpt lat="50.53876" lon="3.12694">
        <ele>-6.4</ele>
        <time>2018-06-24T14:20:58Z</time>
      </trkpt>
      <trkpt lat="50.53876" lon="3.12694">
        <ele>-6.4</ele>
        <time>2018-06-24T14:21:02Z</time>
      </trkpt>
      <trkpt lat="50.53876" lon="3.12694">
        <ele>-7.2</ele>
        <time>2018-06-24T14:21:06Z</time>
      </trkpt>
      <trkpt lat="50.53876" lon="3.12694">
        <ele>-7.2</ele>
        <time>2018-06-24T14:21:10Z</time>
      </trkpt>
      <trkpt lat="50.53876" lon="3.12694">
        <ele>-7</ele>
        <time>2018-06-24T14:21:14Z</time>
      </trkpt>
      <trkpt lat="50.53876" lon="3.12694">
        <ele>-6.8</ele>
        <time>2018-06-24T14:21:18Z</time>
      </trkpt>
      <trkpt lat="50.53876" lon="3.12694">
        <ele>-6.8</ele>
        <time>2018-06-24T14:21:22Z</time>
      </trkpt>
      <trkpt lat="50.53876" lon="3.12694">
        <ele>-7</ele>
        <time>2018-06-24T14:21:26Z</time>
      </trkpt>
      <trkpt lat="50.53876" lon="3.12694">
        <ele>-6.6</ele>
        <time>2018-06-24T14:21:30Z</time>
      </trkpt>
      <trkpt lat="50.53876" lon="3.12694">
        <ele>-6.8</ele>
        <time>2018-06-24T14:21:34Z</time>
      </trkpt>
      <trkpt lat="50.53876" lon="3.12694">
        <ele>-6.4</ele>
        <time>2018-06-24T14:21:38Z</time>
      </trkpt>
      <trkpt lat="50.53876" lon="3.12694">
        <ele>-6.8</ele>
        <time>2018-06-24T14:21:42Z</time>
      </trkpt>
      <trkpt lat="50.53876" lon="3.12694">
        <ele>-6.8</ele>
        <time>2018-06-24T14:21:46Z</time>
      </trkpt>
      <trkpt lat="50.53876" lon="3.12694">
        <ele>-6.8</ele>
        <time>2018-06-24T14:21:50Z</time>
      </trkpt>
      <trkpt lat="50.53876" lon="3.12694">
        <ele>-7</ele>
        <time>2018-06-24T14:21:54Z</time>
      </trkpt>
      <trkpt lat="50.53876" lon="3.12694">
        <ele>-6.8</ele>
        <time>2018-06-24T14:21:58Z</time>
      </trkpt>
      <trkpt lat="50.53876" lon="3.12694">
        <ele>-6.4</ele>
        <time>2018-06-24T14:22:02Z</time>
      </trkpt>
      <trkpt lat="50.53876" lon="3.12694">
        <ele>-6.6</ele>
        <time>2018-06-24T14:22:06Z</time>
      </trkpt>
      <trkpt lat="50.53876" lon="3.12694">
        <ele>-7</ele>
        <time>2018-06-24T14:22:10Z</time>
      </trkpt>
      <trkpt lat="50.53876" lon="3.12694">
        <ele>-6.6</ele>
        <time>2018-06-24T14:22:14Z</time>
      </trkpt>
      <trkpt lat="50.53876" lon="3.12694">
        <ele>-6.2</ele>
        <time>2018-06-24T14:22:18Z</time>
      </trkpt>
      <trkpt lat="50.53876" lon="3.12694">
        <ele>-6.4</ele>
        <time>2018-06-24T14:22:22Z</time>
      </trkpt>
      <trkpt lat="50.53876" lon="3.12694">
        <ele>-6.4</ele>
        <time>2018-06-24T14:22:26Z</time>
      </trkpt>
      <trkpt lat="50.53876" lon="3.12694">
        <ele>-6.8</ele>
        <time>2018-06-24T14:22:30Z</time>
      </trkpt>
      <trkpt lat="50.53876" lon="3.12694">
        <ele>-6.6</ele>
        <time>2018-06-24T14:22:34Z</time>
      </trkpt>
      <trkpt lat="50.53876" lon="3.12694">
        <ele>-6.8</ele>
        <time>2018-06-24T14:22:38Z</time>
      </trkpt>
      <trkpt lat="50.53876" lon="3.12694">
        <ele>-6.4</ele>
        <time>2018-06-24T14:22:42Z</time>
      </trkpt>
      <trkpt lat="50.53876" lon="3.12694">
        <ele>-6.4</ele>
        <time>2018-06-24T14:22:46Z</time>
      </trkpt>
      <trkpt lat="50.53876" lon="3.12694">
        <ele>-6.4</ele>
        <time>2018-06-24T14:22:50Z</time>
      </trkpt>
      <trkpt lat="50.53876" lon="3.12694">
        <ele>-6.6</ele>
        <time>2018-06-24T14:22:54Z</time>
      </trkpt>
      <trkpt lat="50.53876" lon="3.12694">
        <ele>-6.4</ele>
        <time>2018-06-24T14:22:58Z</time>
      </trkpt>
      <trkpt lat="50.53876" lon="3.12694">
        <ele>-6.4</ele>
        <time>2018-06-24T14:23:02Z</time>
      </trkpt>
      <trkpt lat="50.53876" lon="3.12694">
        <ele>-6.4</ele>
        <time>2018-06-24T14:23:06Z</time>
      </trkpt>
      <trkpt lat="50.53876" lon="3.12694">
        <ele>-6.8</ele>
        <time>2018-06-24T14:23:10Z</time>
      </trkpt>
      <trkpt lat="50.53876" lon="3.12694">
        <ele>-6.4</ele>
        <time>2018-06-24T14:23:14Z</time>
      </trkpt>
      <trkpt lat="50.53876" lon="3.12694">
        <ele>-6.4</ele>
        <time>2018-06-24T14:23:18Z</time>
      </trkpt>
      <trkpt lat="50.53876" lon="3.12694">
        <ele>-6.4</ele>
        <time>2018-06-24T14:23:22Z</time>
      </trkpt>
      <trkpt lat="50.53876" lon="3.12694">
        <ele>-6.6</ele>
        <time>2018-06-24T14:23:26Z</time>
      </trkpt>
      <trkpt lat="50.53876" lon="3.12694">
        <ele>-6.8</ele>
        <time>2018-06-24T14:23:30Z</time>
      </trkpt>
      <trkpt lat="50.53876" lon="3.12694">
        <ele>-6.2</ele>
        <time>2018-06-24T14:23:34Z</time>
      </trkpt>
      <trkpt lat="50.53876" lon="3.12694">
        <ele>-6.2</ele>
        <time>2018-06-24T14:23:38Z</time>
      </trkpt>
      <trkpt lat="50.53876" lon="3.12694">
        <ele>-6.6</ele>
        <time>2018-06-24T14:23:42Z</time>
      </trkpt>
      <trkpt lat="50.53876" lon="3.12694">
        <ele>-6.6</ele>
        <time>2018-06-24T14:23:46Z</time>
      </trkpt>
      <trkpt lat="50.53876" lon="3.12694">
        <ele>-6.8</ele>
        <time>2018-06-24T14:23:50Z</time>
      </trkpt>
      <trkpt lat="50.53876" lon="3.12694">
        <ele>-7</ele>
        <time>2018-06-24T14:23:54Z</time>
      </trkpt>
      <trkpt lat="50.53876" lon="3.12694">
        <ele>-6.8</ele>
        <time>2018-06-24T14:23:58Z</time>
      </trkpt>
      <trkpt lat="50.53876" lon="3.12694">
        <ele>-7</ele>
        <time>2018-06-24T14:24:02Z</time>
      </trkpt>
      <trkpt lat="50.53876" lon="3.12694">
        <ele>-6.6</ele>
        <time>2018-06-24T14:24:06Z</time>
      </trkpt>
      <trkpt lat="50.53876" lon="3.12694">
        <ele>-6.6</ele>
        <time>2018-06-24T14:24:10Z</time>
      </trkpt>
      <trkpt lat="50.53876" lon="3.12694">
        <ele>-6.4</ele>
        <time>2018-06-24T14:24:14Z</time>
      </trkpt>
      <trkpt lat="50.53876" lon="3.12694">
        <ele>-6.4</ele>
        <time>2018-06-24T14:24:18Z</time>
      </trkpt>
      <trkpt lat="50.53876" lon="3.12694">
        <ele>-6.8</ele>
        <time>2018-06-24T14:24:22Z</time>
      </trkpt>
      <trkpt lat="50.53876" lon="3.12694">
        <ele>-6.4</ele>
        <time>2018-06-24T14:24:26Z</time>
      </trkpt>
      <trkpt lat="50.53876" lon="3.12694">
        <ele>-6.6</ele>
        <time>2018-06-24T14:24:30Z</time>
      </trkpt>
      <trkpt lat="50.53876" lon="3.12694">
        <ele>-6.8</ele>
        <time>2018-06-24T14:24:34Z</time>
      </trkpt>
      <trkpt lat="50.53876" lon="3.12694">
        <ele>-6.6</ele>
        <time>2018-06-24T14:24:38Z</time>
      </trkpt>
      <trkpt lat="50.53876" lon="3.12694">
        <ele>-6.6</ele>
        <time>2018-06-24T14:24:42Z</time>
      </trkpt>
      <trkpt lat="50.53876" lon="3.12694">
        <ele>-6.6</ele>
        <time>2018-06-24T14:24:46Z</time>
      </trkpt>
      <trkpt lat="50.53876" lon="3.12694">
        <ele>-6.6</ele>
        <time>2018-06-24T14:24:50Z</time>
      </trkpt>
      <trkpt lat="50.53876" lon="3.12694">
        <ele>-6.8</ele>
        <time>2018-06-24T14:24:54Z</time>
      </trkpt>
      <trkpt lat="50.53876" lon="3.12694">
        <ele>-6.2</ele>
        <time>2018-06-24T14:24:58Z</time>
      </trkpt>
      <trkpt lat="50.53876" lon="3.12694">
        <ele>-6.4</ele>
        <time>2018-06-24T14:25:02Z</time>
      </trkpt>
      <trkpt lat="50.53876" lon="3.12694">
        <ele>-6.4</ele>
        <time>2018-06-24T14:25:06Z</time>
      </trkpt>
      <trkpt lat="50.53876" lon="3.12694">
        <ele>-6.2</ele>
        <time>2018-06-24T14:25:10Z</time>
      </trkpt>
      <trkpt lat="50.53876" lon="3.12694">
        <ele>-6</ele>
        <time>2018-06-24T14:25:14Z</time>
      </trkpt>
      <trkpt lat="50.53876" lon="3.12694">
        <ele>-6.4</ele>
        <time>2018-06-24T14:25:18Z</time>
      </trkpt>
      <trkpt lat="50.53876" lon="3.12694">
        <ele>-6.4</ele>
        <time>2018-06-24T14:25:22Z</time>
      </trkpt>
      <trkpt lat="50.53876" lon="3.12694">
        <ele>-6.2</ele>
        <time>2018-06-24T14:25:26Z</time>
      </trkpt>
      <trkpt lat="50.53876" lon="3.12694">
        <ele>-6.4</ele>
        <time>2018-06-24T14:25:30Z</time>
      </trkpt>
      <trkpt lat="50.53876" lon="3.12694">
        <ele>-6.4</ele>
        <time>2018-06-24T14:25:34Z</time>
      </trkpt>
      <trkpt lat="50.53876" lon="3.12694">
        <ele>-6.4</ele>
        <time>2018-06-24T14:25:38Z</time>
      </trkpt>
      <trkpt lat="50.53876" lon="3.12694">
        <ele>-6.2</ele>
        <time>2018-06-24T14:25:42Z</time>
      </trkpt>
      <trkpt lat="50.53876" lon="3.12694">
        <ele>-6.2</ele>
        <time>2018-06-24T14:25:46Z</time>
      </trkpt>
      <trkpt lat="50.53876" lon="3.12694">
        <ele>-6.4</ele>
        <time>2018-06-24T14:25:50Z</time>
      </trkpt>
      <trkpt lat="50.53876" lon="3.12694">
        <ele>-6.4</ele>
        <time>2018-06-24T14:25:54Z</time>
      </trkpt>
      <trkpt lat="50.53876" lon="3.12694">
        <ele>-6.4</ele>
        <time>2018-06-24T14:25:58Z</time>
      </trkpt>
      <trkpt lat="50.53876" lon="3.12694">
        <ele>-6.4</ele>
        <time>2018-06-24T14:26:02Z</time>
      </trkpt>
      <trkpt lat="50.53876" lon="3.12694">
        <ele>-6.4</ele>
        <time>2018-06-24T14:26:06Z</time>
      </trkpt>
      <trkpt lat="50.53876" lon="3.12694">
        <ele>-6.4</ele>
        <time>2018-06-24T14:26:10Z</time>
      </trkpt>
      <trkpt lat="50.53876" lon="3.12694">
        <ele>-6.4</ele>
        <time>2018-06-24T14:26:14Z</time>
      </trkpt>
      <trkpt lat="50.53876" lon="3.12694">
        <ele>-6.4</ele>
        <time>2018-06-24T14:26:18Z</time>
      </trkpt>
      <trkpt lat="50.53876" lon="3.12694">
        <ele>-6.6</ele>
        <time>2018-06-24T14:26:22Z</time>
      </trkpt>
      <trkpt lat="50.53876" lon="3.12694">
        <ele>-6.6</ele>
        <time>2018-06-24T14:26:26Z</time>
      </trkpt>
      <trkpt lat="50.53876" lon="3.12694">
        <ele>-6.6</ele>
        <time>2018-06-24T14:26:30Z</time>
      </trkpt>
      <trkpt lat="50.53876" lon="3.12694">
        <ele>-6.8</ele>
        <time>2018-06-24T14:26:34Z</time>
      </trkpt>
      <trkpt lat="50.53876" lon="3.12694">
        <ele>-6.6</ele>
        <time>2018-06-24T14:26:38Z</time>
      </trkpt>
      <trkpt lat="50.53876" lon="3.12694">
        <ele>-6.8</ele>
        <time>2018-06-24T14:26:42Z</time>
      </trkpt>
      <trkpt lat="50.53876" lon="3.12694">
        <ele>-6.6</ele>
        <time>2018-06-24T14:26:46Z</time>
      </trkpt>
      <trkpt lat="50.53876" lon="3.12694">
        <ele>-6.4</ele>
        <time>2018-06-24T14:26:50Z</time>
      </trkpt>
      <trkpt lat="50.53876" lon="3.12694">
        <ele>-6.2</ele>
        <time>2018-06-24T14:26:54Z</time>
      </trkpt>
      <trkpt lat="50.53876" lon="3.12694">
        <ele>-6.2</ele>
        <time>2018-06-24T14:26:58Z</time>
      </trkpt>
      <trkpt lat="50.53876" lon="3.12694">
        <ele>-6</ele>
        <time>2018-06-24T14:27:02Z</time>
      </trkpt>
      <trkpt lat="50.53876" lon="3.12694">
        <ele>-6.4</ele>
        <time>2018-06-24T14:27:06Z</time>
      </trkpt>
      <trkpt lat="50.53876" lon="3.12694">
        <ele>-6.8</ele>
        <time>2018-06-24T14:27:10Z</time>
      </trkpt>
      <trkpt lat="50.53876" lon="3.12694">
        <ele>-6.4</ele>
        <time>2018-06-24T14:27:14Z</time>
      </trkpt>
      <trkpt lat="50.53876" lon="3.12694">
        <ele>-6.6</ele>
        <time>2018-06-24T14:27:18Z</time>
      </trkpt>
      <trkpt lat="50.53876" lon="3.12694">
        <ele>-6.4</ele>
        <time>2018-06-24T14:27:22Z</time>
      </trkpt>
      <trkpt lat="50.53876" lon="3.12694">
        <ele>-6.6</ele>
        <time>2018-06-24T14:27:26Z</time>
      </trkpt>
      <trkpt lat="50.53876" lon="3.12694">
        <ele>-6.4</ele>
        <time>2018-06-24T14:27:30Z</time>
      </trkpt>
      <trkpt lat="50.53876" lon="3.12694">
        <ele>-6.4</ele>
        <time>2018-06-24T14:27:34Z</time>
      </trkpt>
      <trkpt lat="50.53876" lon="3.12694">
        <ele>-6.6</ele>
        <time>2018-06-24T14:27:38Z</time>
      </trkpt>
      <trkpt lat="50.53876" lon="3.12694">
        <ele>-6.8</ele>
        <time>2018-06-24T14:27:42Z</time>
      </trkpt>
      <trkpt lat="50.53876" lon="3.12694">
        <ele>-6.4</ele>
        <time>2018-06-24T14:27:46Z</time>
      </trkpt>
      <trkpt lat="50.53876" lon="3.12694">
        <ele>-6.6</ele>
        <time>2018-06-24T14:27:50Z</time>
      </trkpt>
      <trkpt lat="50.53876" lon="3.12694">
        <ele>-6.6</ele>
        <time>2018-06-24T14:27:54Z</time>
      </trkpt>
      <trkpt lat="50.53876" lon="3.12694">
        <ele>-6.8</ele>
        <time>2018-06-24T14:27:58Z</time>
      </trkpt>
      <trkpt lat="50.53876" lon="3.12694">
        <ele>-6.6</ele>
        <time>2018-06-24T14:28:02Z</time>
      </trkpt>
      <trkpt lat="50.53876" lon="3.12694">
        <ele>-6.4</ele>
        <time>2018-06-24T14:28:06Z</time>
      </trkpt>
      <trkpt lat="50.53876" lon="3.12694">
        <ele>-6.8</ele>
        <time>2018-06-24T14:28:10Z</time>
      </trkpt>
      <trkpt lat="50.53876" lon="3.12694">
        <ele>-6.8</ele>
        <time>2018-06-24T14:28:14Z</time>
      </trkpt>
      <trkpt lat="50.53876" lon="3.12694">
        <ele>-6.4</ele>
        <time>2018-06-24T14:28:18Z</time>
      </trkpt>
      <trkpt lat="50.53876" lon="3.12694">
        <ele>-6.4</ele>
        <time>2018-06-24T14:28:22Z</time>
      </trkpt>
      <trkpt lat="50.53876" lon="3.12694">
        <ele>-6.6</ele>
        <time>2018-06-24T14:28:26Z</time>
      </trkpt>
      <trkpt lat="50.53876" lon="3.12694">
        <ele>-6.8</ele>
        <time>2018-06-24T14:28:30Z</time>
      </trkpt>
      <trkpt lat="50.53876" lon="3.12694">
        <ele>-6.4</ele>
        <time>2018-06-24T14:28:34Z</time>
      </trkpt>
      <trkpt lat="50.53876" lon="3.12694">
        <ele>-6.4</ele>
        <time>2018-06-24T14:28:38Z</time>
      </trkpt>
      <trkpt lat="50.53876" lon="3.12694">
        <ele>-6.4</ele>
        <time>2018-06-24T14:28:42Z</time>
      </trkpt>
      <trkpt lat="50.53876" lon="3.12694">
        <ele>-6.6</ele>
        <time>2018-06-24T14:28:46Z</time>
      </trkpt>
      <trkpt lat="50.53876" lon="3.12694">
        <ele>-6.6</ele>
        <time>2018-06-24T14:28:50Z</time>
      </trkpt>
      <trkpt lat="50.53876" lon="3.12694">
        <ele>-6.4</ele>
        <time>2018-06-24T14:28:54Z</time>
      </trkpt>
      <trkpt lat="50.53876" lon="3.12694">
        <ele>-6.4</ele>
        <time>2018-06-24T14:28:58Z</time>
      </trkpt>
      <trkpt lat="50.53876" lon="3.12694">
        <ele>-6.4</ele>
        <time>2018-06-24T14:29:02Z</time>
      </trkpt>
      <trkpt lat="50.53876" lon="3.12694">
        <ele>-6.4</ele>
        <time>2018-06-24T14:29:06Z</time>
      </trkpt>
      <trkpt lat="50.53876" lon="3.12694">
        <ele>-6.4</ele>
        <time>2018-06-24T14:29:10Z</time>
      </trkpt>
      <trkpt lat="50.53876" lon="3.12694">
        <ele>-6.2</ele>
        <time>2018-06-24T14:29:14Z</time>
      </trkpt>
      <trkpt lat="50.53876" lon="3.12694">
        <ele>-6.4</ele>
        <time>2018-06-24T14:29:18Z</time>
      </trkpt>
      <trkpt lat="50.53876" lon="3.12694">
        <ele>-6.4</ele>
        <time>2018-06-24T14:29:22Z</time>
      </trkpt>
      <trkpt lat="50.53876" lon="3.12694">
        <ele>-6.2</ele>
        <time>2018-06-24T14:29:26Z</time>
      </trkpt>
      <trkpt lat="50.53876" lon="3.12694">
        <ele>-6.4</ele>
        <time>2018-06-24T14:29:30Z</time>
      </trkpt>
      <trkpt lat="50.53876" lon="3.12694">
        <ele>-6.6</ele>
        <time>2018-06-24T14:29:34Z</time>
      </trkpt>
      <trkpt lat="50.53876" lon="3.12694">
        <ele>-6.4</ele>
        <time>2018-06-24T14:29:38Z</time>
      </trkpt>
      <trkpt lat="50.53876" lon="3.12694">
        <ele>-6.4</ele>
        <time>2018-06-24T14:29:42Z</time>
      </trkpt>
      <trkpt lat="50.53876" lon="3.12694">
        <ele>-6.2</ele>
        <time>2018-06-24T14:29:46Z</time>
      </trkpt>
      <trkpt lat="50.53876" lon="3.12694">
        <ele>-6.2</ele>
        <time>2018-06-24T14:29:50Z</time>
      </trkpt>
      <trkpt lat="50.53876" lon="3.12694">
        <ele>-6.4</ele>
        <time>2018-06-24T14:29:54Z</time>
      </trkpt>
      <trkpt lat="50.53876" lon="3.12694">
        <ele>-6.4</ele>
        <time>2018-06-24T14:29:58Z</time>
      </trkpt>
      <trkpt lat="50.53876" lon="3.12694">
        <ele>-6.4</ele>
        <time>2018-06-24T14:30:02Z</time>
      </trkpt>
      <trkpt lat="50.53876" lon="3.12694">
        <ele>-6.4</ele>
        <time>2018-06-24T14:30:06Z</time>
      </trkpt>
      <trkpt lat="50.53876" lon="3.12694">
        <ele>-6.4</ele>
        <time>2018-06-24T14:30:10Z</time>
      </trkpt>
      <trkpt lat="50.53876" lon="3.12694">
        <ele>-6.4</ele>
        <time>2018-06-24T14:30:14Z</time>
      </trkpt>
      <trkpt lat="50.53876" lon="3.12694">
        <ele>-6.4</ele>
        <time>2018-06-24T14:30:18Z</time>
      </trkpt>
      <trkpt lat="50.53876" lon="3.12694">
        <ele>-6.4</ele>
        <time>2018-06-24T14:30:22Z</time>
      </trkpt>
      <trkpt lat="50.53876" lon="3.12694">
        <ele>-6.4</ele>
        <time>2018-06-24T14:30:26Z</time>
      </trkpt>
      <trkpt lat="50.53876" lon="3.12694">
        <ele>-6.4</ele>
        <time>2018-06-24T14:30:30Z</time>
      </trkpt>
      <trkpt lat="50.53876" lon="3.12694">
        <ele>-6.4</ele>
        <time>2018-06-24T14:30:34Z</time>
      </trkpt>
      <trkpt lat="50.53876" lon="3.12694">
        <ele>-6.6</ele>
        <time>2018-06-24T14:30:38Z</time>
      </trkpt>
      <trkpt lat="50.53876" lon="3.12694">
        <ele>-6.6</ele>
        <time>2018-06-24T14:30:42Z</time>
      </trkpt>
      <trkpt lat="50.53876" lon="3.12694">
        <ele>-6</ele>
        <time>2018-06-24T14:30:46Z</time>
      </trkpt>
      <trkpt lat="50.53876" lon="3.12694">
        <ele>-6.6</ele>
        <time>2018-06-24T14:30:50Z</time>
      </trkpt>
      <trkpt lat="50.53876" lon="3.12694">
        <ele>-6.6</ele>
        <time>2018-06-24T14:30:54Z</time>
      </trkpt>
      <trkpt lat="50.53876" lon="3.12694">
        <ele>-6.4</ele>
        <time>2018-06-24T14:30:58Z</time>
      </trkpt>
      <trkpt lat="50.53876" lon="3.12694">
        <ele>-6.4</ele>
        <time>2018-06-24T14:31:02Z</time>
      </trkpt>
      <trkpt lat="50.53876" lon="3.12694">
        <ele>-6.6</ele>
        <time>2018-06-24T14:31:06Z</time>
      </trkpt>
      <trkpt lat="50.53876" lon="3.12694">
        <ele>-6.8</ele>
        <time>2018-06-24T14:31:10Z</time>
      </trkpt>
      <trkpt lat="50.53876" lon="3.12694">
        <ele>-7</ele>
        <time>2018-06-24T14:31:14Z</time>
      </trkpt>
      <trkpt lat="50.53876" lon="3.12694">
        <ele>-7.4</ele>
        <time>2018-06-24T14:31:18Z</time>
      </trkpt>
      <trkpt lat="50.53876" lon="3.12694">
        <ele>-7</ele>
        <time>2018-06-24T14:31:22Z</time>
      </trkpt>
      <trkpt lat="50.53876" lon="3.12694">
        <ele>-6.4</ele>
        <time>2018-06-24T14:31:26Z</time>
      </trkpt>
      <trkpt lat="50.53876" lon="3.12694">
        <ele>-6.4</ele>
        <time>2018-06-24T14:31:30Z</time>
      </trkpt>
      <trkpt lat="50.53876" lon="3.12694">
        <ele>-6.8</ele>
        <time>2018-06-24T14:31:34Z</time>
      </trkpt>
      <trkpt lat="50.53876" lon="3.12694">
        <ele>-7.4</ele>
        <time>2018-06-24T14:31:38Z</time>
      </trkpt>
      <trkpt lat="50.53876" lon="3.12694">
        <ele>-7</ele>
        <time>2018-06-24T14:31:42Z</time>
      </trkpt>
      <trkpt lat="50.53876" lon="3.12694">
        <ele>-7.2</ele>
        <time>2018-06-24T14:31:46Z</time>
      </trkpt>
      <trkpt lat="50.53876" lon="3.12694">
        <ele>-7</ele>
        <time>2018-06-24T14:31:50Z</time>
      </trkpt>
      <trkpt lat="50.53876" lon="3.12694">
        <ele>-6.8</ele>
        <time>2018-06-24T14:31:54Z</time>
      </trkpt>
      <trkpt lat="50.53876" lon="3.12694">
        <ele>-6.4</ele>
        <time>2018-06-24T14:31:58Z</time>
      </trkpt>
      <trkpt lat="50.53876" lon="3.12694">
        <ele>-6.8</ele>
        <time>2018-06-24T14:32:02Z</time>
      </trkpt>
      <trkpt lat="50.53876" lon="3.12694">
        <ele>-7</ele>
        <time>2018-06-24T14:32:06Z</time>
      </trkpt>
      <trkpt lat="50.53876" lon="3.12694">
        <ele>-7.2</ele>
        <time>2018-06-24T14:32:10Z</time>
      </trkpt>
      <trkpt lat="50.53876" lon="3.12694">
        <ele>-7.4</ele>
        <time>2018-06-24T14:32:14Z</time>
      </trkpt>
      <trkpt lat="50.53876" lon="3.12694">
        <ele>-7</ele>
        <time>2018-06-24T14:32:18Z</time>
      </trkpt>
      <trkpt lat="50.53876" lon="3.12694">
        <ele>-7.2</ele>
        <time>2018-06-24T14:32:22Z</time>
      </trkpt>
      <trkpt lat="50.53876" lon="3.12694">
        <ele>-7.2</ele>
        <time>2018-06-24T14:32:26Z</time>
      </trkpt>
      <trkpt lat="50.53876" lon="3.12694">
        <ele>-7</ele>
        <time>2018-06-24T14:32:30Z</time>
      </trkpt>
      <trkpt lat="50.53876" lon="3.12694">
        <ele>-6.6</ele>
        <time>2018-06-24T14:32:34Z</time>
      </trkpt>
      <trkpt lat="50.53876" lon="3.12694">
        <ele>-6.6</ele>
        <time>2018-06-24T14:32:38Z</time>
      </trkpt>
      <trkpt lat="50.53876" lon="3.12694">
        <ele>-6.4</ele>
        <time>2018-06-24T14:32:42Z</time>
      </trkpt>
      <trkpt lat="50.53876" lon="3.12694">
        <ele>-6.8</ele>
        <time>2018-06-24T14:32:46Z</time>
      </trkpt>
      <trkpt lat="50.53876" lon="3.12694">
        <ele>-6.6</ele>
        <time>2018-06-24T14:32:50Z</time>
      </trkpt>
      <trkpt lat="50.53876" lon="3.12694">
        <ele>-6.8</ele>
        <time>2018-06-24T14:32:54Z</time>
      </trkpt>
      <trkpt lat="50.53876" lon="3.12694">
        <ele>-7</ele>
        <time>2018-06-24T14:32:58Z</time>
      </trkpt>
      <trkpt lat="50.53876" lon="3.12694">
        <ele>-7</ele>
        <time>2018-06-24T14:33:02Z</time>
      </trkpt>
      <trkpt lat="50.53876" lon="3.12694">
        <ele>-7</ele>
        <time>2018-06-24T14:33:06Z</time>
      </trkpt>
      <trkpt lat="50.53876" lon="3.12694">
        <ele>-7.4</ele>
        <time>2018-06-24T14:33:10Z</time>
      </trkpt>
      <trkpt lat="50.53876" lon="3.12694">
        <ele>-7.2</ele>
        <time>2018-06-24T14:33:14Z</time>
      </trkpt>
      <trkpt lat="50.53876" lon="3.12694">
        <ele>-7</ele>
        <time>2018-06-24T14:33:18Z</time>
      </trkpt>
      <trkpt lat="50.53876" lon="3.12694">
        <ele>-6.8</ele>
        <time>2018-06-24T14:33:22Z</time>
      </trkpt>
      <trkpt lat="50.53876" lon="3.12694">
        <ele>-6.8</ele>
        <time>2018-06-24T14:33:26Z</time>
      </trkpt>
      <trkpt lat="50.53876" lon="3.12694">
        <ele>-7.2</ele>
        <time>2018-06-24T14:33:30Z</time>
      </trkpt>
      <trkpt lat="50.53876" lon="3.12694">
        <ele>-6.8</ele>
        <time>2018-06-24T14:33:34Z</time>
      </trkpt>
      <trkpt lat="50.53876" lon="3.12694">
        <ele>-7.2</ele>
        <time>2018-06-24T14:33:38Z</time>
      </trkpt>
      <trkpt lat="50.53876" lon="3.12694">
        <ele>-7</ele>
        <time>2018-06-24T14:33:42Z</time>
      </trkpt>
      <trkpt lat="50.53876" lon="3.12694">
        <ele>-7.4</ele>
        <time>2018-06-24T14:33:46Z</time>
      </trkpt>
      <trkpt lat="50.53876" lon="3.12694">
        <ele>-7.4</ele>
        <time>2018-06-24T14:33:50Z</time>
      </trkpt>
      <trkpt lat="50.53876" lon="3.12694">
        <ele>-7.8</ele>
        <time>2018-06-24T14:33:54Z</time>
      </trkpt>
      <trkpt lat="50.53876" lon="3.12694">
        <ele>-7.2</ele>
        <time>2018-06-24T14:33:58Z</time>
      </trkpt>
      <trkpt lat="50.53876" lon="3.12694">
        <ele>-7.2</ele>
        <time>2018-06-24T14:34:02Z</time>
      </trkpt>
      <trkpt lat="50.53876" lon="3.12694">
        <ele>-7.4</ele>
        <time>2018-06-24T14:34:06Z</time>
      </trkpt>
      <trkpt lat="50.53876" lon="3.12694">
        <ele>-7</ele>
        <time>2018-06-24T14:34:10Z</time>
      </trkpt>
      <trkpt lat="50.53876" lon="3.12694">
        <ele>-7.2</ele>
        <time>2018-06-24T14:34:14Z</time>
      </trkpt>
      <trkpt lat="50.53876" lon="3.12694">
        <ele>-7</ele>
        <time>2018-06-24T14:34:18Z</time>
      </trkpt>
      <trkpt lat="50.53876" lon="3.12694">
        <ele>-6.8</ele>
        <time>2018-06-24T14:34:22Z</time>
      </trkpt>
      <trkpt lat="50.53876" lon="3.12694">
        <ele>-6.8</ele>
        <time>2018-06-24T14:34:26Z</time>
      </trkpt>
      <trkpt lat="50.53876" lon="3.12694">
        <ele>-7</ele>
        <time>2018-06-24T14:34:30Z</time>
      </trkpt>
      <trkpt lat="50.53876" lon="3.12694">
        <ele>-7</ele>
        <time>2018-06-24T14:34:34Z</time>
      </trkpt>
      <trkpt lat="50.53876" lon="3.12694">
        <ele>-7</ele>
        <time>2018-06-24T14:34:38Z</time>
      </trkpt>
      <trkpt lat="50.53876" lon="3.12694">
        <ele>-7.2</ele>
        <time>2018-06-24T14:34:42Z</time>
      </trkpt>
      <trkpt lat="50.53876" lon="3.12694">
        <ele>-7</ele>
        <time>2018-06-24T14:34:46Z</time>
      </trkpt>
      <trkpt lat="50.53876" lon="3.12694">
        <ele>-7.4</ele>
        <time>2018-06-24T14:34:50Z</time>
      </trkpt>
      <trkpt lat="50.53876" lon="3.12694">
        <ele>-7.2</ele>
        <time>2018-06-24T14:34:54Z</time>
      </trkpt>
      <trkpt lat="50.53876" lon="3.12694">
        <ele>-7.4</ele>
        <time>2018-06-24T14:34:58Z</time>
      </trkpt>
      <trkpt lat="50.53876" lon="3.12694">
        <ele>-7.4</ele>
        <time>2018-06-24T14:35:02Z</time>
      </trkpt>
      <trkpt lat="50.53876" lon="3.12694">
        <ele>-7</ele>
        <time>2018-06-24T14:35:06Z</time>
      </trkpt>
      <trkpt lat="50.53876" lon="3.12694">
        <ele>-7.4</ele>
        <time>2018-06-24T14:35:10Z</time>
      </trkpt>
      <trkpt lat="50.53876" lon="3.12694">
        <ele>-7</ele>
        <time>2018-06-24T14:35:14Z</time>
      </trkpt>
      <trkpt lat="50.53876" lon="3.12694">
        <ele>-7</ele>
        <time>2018-06-24T14:35:18Z</time>
      </trkpt>
      <trkpt lat="50.53876" lon="3.12694">
        <ele>-6.8</ele>
        <time>2018-06-24T14:35:22Z</time>
      </trkpt>
      <trkpt lat="50.53876" lon="3.12694">
        <ele>-7.2</ele>
        <time>2018-06-24T14:35:26Z</time>
      </trkpt>
      <trkpt lat="50.53876" lon="3.12694">
        <ele>-7</ele>
        <time>2018-06-24T14:35:30Z</time>
      </trkpt>
      <trkpt lat="50.53876" lon="3.12694">
        <ele>-7</ele>
        <time>2018-06-24T14:35:34Z</time>
      </trkpt>
      <trkpt lat="50.53876" lon="3.12694">
        <ele>-7</ele>
        <time>2018-06-24T14:35:38Z</time>
      </trkpt>
      <trkpt lat="50.53876" lon="3.12694">
        <ele>-7.2</ele>
        <time>2018-06-24T14:35:42Z</time>
      </trkpt>
      <trkpt lat="50.53876" lon="3.12694">
        <ele>-7.2</ele>
        <time>2018-06-24T14:35:46Z</time>
      </trkpt>
      <trkpt lat="50.53876" lon="3.12694">
        <ele>-7</ele>
        <time>2018-06-24T14:35:50Z</time>
      </trkpt>
      <trkpt lat="50.53876" lon="3.12694">
        <ele>-7</ele>
        <time>2018-06-24T14:35:54Z</time>
      </trkpt>
      <trkpt lat="50.53876" lon="3.12694">
        <ele>-7.2</ele>
        <time>2018-06-24T14:35:58Z</time>
      </trkpt>
      <trkpt lat="50.53876" lon="3.12694">
        <ele>-7.2</ele>
        <time>2018-06-24T14:36:02Z</time>
      </trkpt>
      <trkpt lat="50.53876" lon="3.12694">
        <ele>-7.4</ele>
        <time>2018-06-24T14:36:06Z</time>
      </trkpt>
      <trkpt lat="50.53876" lon="3.12694">
        <ele>-6.8</ele>
        <time>2018-06-24T14:36:10Z</time>
      </trkpt>
      <trkpt lat="50.53876" lon="3.12694">
        <ele>-7</ele>
        <time>2018-06-24T14:36:14Z</time>
      </trkpt>
      <trkpt lat="50.53876" lon="3.12694">
        <ele>-6.8</ele>
        <time>2018-06-24T14:36:18Z</time>
      </trkpt>
      <trkpt lat="50.53876" lon="3.12694">
        <ele>-7</ele>
        <time>2018-06-24T14:36:22Z</time>
      </trkpt>
      <trkpt lat="50.53876" lon="3.12694">
        <ele>-7.2</ele>
        <time>2018-06-24T14:36:26Z</time>
      </trkpt>
      <trkpt lat="50.53876" lon="3.12694">
        <ele>-7</ele>
        <time>2018-06-24T14:36:30Z</time>
      </trkpt>
      <trkpt lat="50.53876" lon="3.12694">
        <ele>-7</ele>
        <time>2018-06-24T14:36:34Z</time>
      </trkpt>
      <trkpt lat="50.53876" lon="3.12694">
        <ele>-7</ele>
        <time>2018-06-24T14:36:38Z</time>
      </trkpt>
      <trkpt lat="50.53876" lon="3.12694">
        <ele>-7</ele>
        <time>2018-06-24T14:36:42Z</time>
      </trkpt>
      <trkpt lat="50.53876" lon="3.12694">
        <ele>-7</ele>
        <time>2018-06-24T14:36:46Z</time>
      </trkpt>
      <trkpt lat="50.53876" lon="3.12694">
        <ele>-7.2</ele>
        <time>2018-06-24T14:36:50Z</time>
      </trkpt>
      <trkpt lat="50.53876" lon="3.12694">
        <ele>-7.2</ele>
        <time>2018-06-24T14:36:54Z</time>
      </trkpt>
      <trkpt lat="50.53876" lon="3.12694">
        <ele>-7.4</ele>
        <time>2018-06-24T14:36:58Z</time>
      </trkpt>
      <trkpt lat="50.53876" lon="3.12694">
        <ele>-7</ele>
        <time>2018-06-24T14:37:02Z</time>
      </trkpt>
      <trkpt lat="50.53876" lon="3.12694">
        <ele>-6.8</ele>
        <time>2018-06-24T14:37:06Z</time>
      </trkpt>
      <trkpt lat="50.53876" lon="3.12694">
        <ele>-7</ele>
        <time>2018-06-24T14:37:10Z</time>
      </trkpt>
      <trkpt lat="50.53876" lon="3.12694">
        <ele>-7</ele>
        <time>2018-06-24T14:37:14Z</time>
      </trkpt>
      <trkpt lat="50.53876" lon="3.12694">
        <ele>-7.2</ele>
        <time>2018-06-24T14:37:18Z</time>
      </trkpt>
      <trkpt lat="50.53876" lon="3.12694">
        <ele>-7</ele>
        <time>2018-06-24T14:37:22Z</time>
      </trkpt>
      <trkpt lat="50.53876" lon="3.12694">
        <ele>-7.2</ele>
        <time>2018-06-24T14:37:26Z</time>
      </trkpt>
      <trkpt lat="50.53876" lon="3.12694">
        <ele>-7</ele>
        <time>2018-06-24T14:37:30Z</time>
      </trkpt>
      <trkpt lat="50.53876" lon="3.12694">
        <ele>-7</ele>
        <time>2018-06-24T14:37:34Z</time>
      </trkpt>
      <trkpt lat="50.53876" lon="3.12694">
        <ele>-6.6</ele>
        <time>2018-06-24T14:37:38Z</time>
      </trkpt>
      <trkpt lat="50.53876" lon="3.12694">
        <ele>-6.8</ele>
        <time>2018-06-24T14:37:42Z</time>
      </trkpt>
      <trkpt lat="50.53876" lon="3.12694">
        <ele>-7</ele>
        <time>2018-06-24T14:37:46Z</time>
      </trkpt>
      <trkpt lat="50.53876" lon="3.12694">
        <ele>-7</ele>
        <time>2018-06-24T14:37:50Z</time>
      </trkpt>
      <trkpt lat="50.53876" lon="3.12694">
        <ele>-6.8</ele>
        <time>2018-06-24T14:37:54Z</time>
      </trkpt>
      <trkpt lat="50.53876" lon="3.12694">
        <ele>-6.8</ele>
        <time>2018-06-24T14:37:58Z</time>
      </trkpt>
      <trkpt lat="50.53876" lon="3.12694">
        <ele>-6.8</ele>
        <time>2018-06-24T14:38:02Z</time>
      </trkpt>
      <trkpt lat="50.53876" lon="3.12694">
        <ele>-6.4</ele>
        <time>2018-06-24T14:38:06Z</time>
      </trkpt>
      <trkpt lat="50.53876" lon="3.12694">
        <ele>-6.8</ele>
        <time>2018-06-24T14:38:10Z</time>
      </trkpt>
      <trkpt lat="50.53876" lon="3.12694">
        <ele>-7.2</ele>
        <time>2018-06-24T14:38:14Z</time>
      </trkpt>
      <trkpt lat="50.53876" lon="3.12694">
        <ele>-7</ele>
        <time>2018-06-24T14:38:18Z</time>
      </trkpt>
      <trkpt lat="50.53876" lon="3.12694">
        <ele>-6.4</ele>
        <time>2018-06-24T14:38:22Z</time>
      </trkpt>
      <trkpt lat="50.53876" lon="3.12694">
        <ele>-7</ele>
        <time>2018-06-24T14:38:26Z</time>
      </trkpt>
      <trkpt lat="50.53876" lon="3.12694">
        <ele>-7.2</ele>
        <time>2018-06-24T14:38:30Z</time>
      </trkpt>
      <trkpt lat="50.53876" lon="3.12694">
        <ele>-6.6</ele>
        <time>2018-06-24T14:38:34Z</time>
      </trkpt>
      <trkpt lat="50.53876" lon="3.12694">
        <ele>-6.6</ele>
        <time>2018-06-24T14:38:38Z</time>
      </trkpt>
      <trkpt lat="50.53876" lon="3.12694">
        <ele>-7.2</ele>
        <time>2018-06-24T14:38:42Z</time>
      </trkpt>
      <trkpt lat="50.53876" lon="3.12694">
        <ele>-7</ele>
        <time>2018-06-24T14:38:46Z</time>
      </trkpt>
      <trkpt lat="50.53876" lon="3.12694">
        <ele>-7</ele>
        <time>2018-06-24T14:38:50Z</time>
      </trkpt>
      <trkpt lat="50.53876" lon="3.12694">
        <ele>-7</ele>
        <time>2018-06-24T14:38:54Z</time>
      </trkpt>
      <trkpt lat="50.53876" lon="3.12694">
        <ele>-6.8</ele>
        <time>2018-06-24T14:38:58Z</time>
      </trkpt>
      <trkpt lat="50.53876" lon="3.12694">
        <ele>-6.8</ele>
        <time>2018-06-24T14:39:02Z</time>
      </trkpt>
      <trkpt lat="50.53876" lon="3.12694">
        <ele>-7.4</ele>
        <time>2018-06-24T14:39:06Z</time>
      </trkpt>
      <trkpt lat="50.53876" lon="3.12694">
        <ele>-7</ele>
        <time>2018-06-24T14:39:10Z</time>
      </trkpt>
      <trkpt lat="50.53876" lon="3.12694">
        <ele>-7</ele>
        <time>2018-06-24T14:39:14Z</time>
      </trkpt>
      <trkpt lat="50.53876" lon="3.12694">
        <ele>-7</ele>
        <time>2018-06-24T14:39:18Z</time>
      </trkpt>
      <trkpt lat="50.53876" lon="3.12694">
        <ele>-7</ele>
        <time>2018-06-24T14:39:22Z</time>
      </trkpt>
      <trkpt lat="50.53876" lon="3.12694">
        <ele>-6.8</ele>
        <time>2018-06-24T14:39:26Z</time>
      </trkpt>
      <trkpt lat="50.53876" lon="3.12694">
        <ele>-7.2</ele>
        <time>2018-06-24T14:39:30Z</time>
      </trkpt>
      <trkpt lat="50.53876" lon="3.12694">
        <ele>-6.6</ele>
        <time>2018-06-24T14:39:34Z</time>
      </trkpt>
      <trkpt lat="50.53876" lon="3.12694">
        <ele>-6.8</ele>
        <time>2018-06-24T14:39:38Z</time>
      </trkpt>
      <trkpt lat="50.53876" lon="3.12694">
        <ele>-6.6</ele>
        <time>2018-06-24T14:39:42Z</time>
      </trkpt>
      <trkpt lat="50.53876" lon="3.12694">
        <ele>-7</ele>
        <time>2018-06-24T14:39:46Z</time>
      </trkpt>
      <trkpt lat="50.53877" lon="3.12697">
        <ele>-6.8</ele>
        <time>2018-06-24T14:39:50Z</time>
      </trkpt>
      <trkpt lat="50.53876" lon="3.12696">
        <ele>-6.8</ele>
        <time>2018-06-24T14:39:54Z</time>
      </trkpt>
      <trkpt lat="50.53876" lon="3.12696">
        <ele>-7</ele>
        <time>2018-06-24T14:39:58Z</time>
      </trkpt>
      <trkpt lat="50.53876" lon="3.127">
        <ele>-6.6</ele>
        <time>2018-06-24T14:40:02Z</time>
      </trkpt>
      <trkpt lat="50.53878" lon="3.12703">
        <ele>-6.8</ele>
        <time>2018-06-24T14:40:06Z</time>
      </trkpt>
      <trkpt lat="50.53876" lon="3.12708">
        <ele>-6.8</ele>
        <time>2018-06-24T14:40:10Z</time>
      </trkpt>
      <trkpt lat="50.53873" lon="3.12712">
        <ele>-6.8</ele>
        <time>2018-06-24T14:40:14Z</time>
      </trkpt>
      <trkpt lat="50.5387" lon="3.12716">
        <ele>-7</ele>
        <time>2018-06-24T14:40:18Z</time>
      </trkpt>
      <trkpt lat="50.5387" lon="3.12722">
        <ele>-6.4</ele>
        <time>2018-06-24T14:40:22Z</time>
      </trkpt>
      <trkpt lat="50.53873" lon="3.12722">
        <ele>-6.6</ele>
        <time>2018-06-24T14:40:26Z</time>
      </trkpt>
      <trkpt lat="50.53876" lon="3.12722">
        <ele>-6.6</ele>
        <time>2018-06-24T14:40:30Z</time>
      </trkpt>
      <trkpt lat="50.53878" lon="3.12721">
        <ele>-7</ele>
        <time>2018-06-24T14:40:34Z</time>
      </trkpt>
      <trkpt lat="50.53881" lon="3.12721">
        <ele>-7</ele>
        <time>2018-06-24T14:40:38Z</time>
      </trkpt>
      <trkpt lat="50.53881" lon="3.12721">
        <ele>-7.4</ele>
        <time>2018-06-24T14:40:42Z</time>
      </trkpt>
      <trkpt lat="50.53883" lon="3.12721">
        <ele>-7</ele>
        <time>2018-06-24T14:40:46Z</time>
      </trkpt>
      <trkpt lat="50.53888" lon="3.12722">
        <ele>-7.4</ele>
        <time>2018-06-24T14:40:50Z</time>
      </trkpt>
      <trkpt lat="50.53892" lon="3.12725">
        <ele>-7.2</ele>
        <time>2018-06-24T14:40:54Z</time>
      </trkpt>
      <trkpt lat="50.53897" lon="3.12727">
        <ele>-7.4</ele>
        <time>2018-06-24T14:40:58Z</time>
      </trkpt>
      <trkpt lat="50.53903" lon="3.12728">
        <ele>-7.2</ele>
        <time>2018-06-24T14:41:02Z</time>
      </trkpt>
      <trkpt lat="50.53908" lon="3.12733">
        <ele>-6.6</ele>
        <time>2018-06-24T14:41:06Z</time>
      </trkpt>
      <trkpt lat="50.53913" lon="3.12735">
        <ele>-7</ele>
        <time>2018-06-24T14:41:10Z</time>
      </trkpt>
      <trkpt lat="50.53919" lon="3.12737">
        <ele>-7</ele>
        <time>2018-06-24T14:41:14Z</time>
      </trkpt>
      <trkpt lat="50.53925" lon="3.12739">
        <ele>-6.8</ele>
        <time>2018-06-24T14:41:18Z</time>
      </trkpt>
      <trkpt lat="50.53932" lon="3.12739">
        <ele>-7</ele>
        <time>2018-06-24T14:41:22Z</time>
      </trkpt>
      <trkpt lat="50.53939" lon="3.1274">
        <ele>-7.2</ele>
        <time>2018-06-24T14:41:26Z</time>
      </trkpt>
      <trkpt lat="50.53946" lon="3.12741">
        <ele>-7.4</ele>
        <time>2018-06-24T14:41:30Z</time>
      </trkpt>
      <trkpt lat="50.53953" lon="3.12744">
        <ele>-7.2</ele>
        <time>2018-06-24T14:41:34Z</time>
      </trkpt>
      <trkpt lat="50.5396" lon="3.12747">
        <ele>-7.2</ele>
        <time>2018-06-24T14:41:38Z</time>
      </trkpt>
      <trkpt lat="50.53968" lon="3.12752">
        <ele>-7</ele>
        <time>2018-06-24T14:41:42Z</time>
      </trkpt>
      <trkpt lat="50.53975" lon="3.12758">
        <ele>-7.6</ele>
        <time>2018-06-24T14:41:46Z</time>
      </trkpt>
      <trkpt lat="50.53981" lon="3.12762">
        <ele>-7.4</ele>
        <time>2018-06-24T14:41:50Z</time>
      </trkpt>
      <trkpt lat="50.53988" lon="3.12766">
        <ele>-7.6</ele>
        <time>2018-06-24T14:41:54Z</time>
      </trkpt>
      <trkpt lat="50.53995" lon="3.12771">
        <ele>-6.4</ele>
        <time>2018-06-24T14:41:58Z</time>
      </trkpt>
      <trkpt lat="50.54002" lon="3.12775">
        <ele>-6.2</ele>
        <time>2018-06-24T14:42:02Z</time>
      </trkpt>
      <trkpt lat="50.5401" lon="3.12779">
        <ele>-6.2</ele>
        <time>2018-06-24T14:42:06Z</time>
      </trkpt>
      <trkpt lat="50.54017" lon="3.12782">
        <ele>-7</ele>
        <time>2018-06-24T14:42:10Z</time>
      </trkpt>
      <trkpt lat="50.54021" lon="3.1278">
        <ele>-6.2</ele>
        <time>2018-06-24T14:42:14Z</time>
      </trkpt>
      <trkpt lat="50.54026" lon="3.12773">
        <ele>-5.8</ele>
        <time>2018-06-24T14:42:18Z</time>
      </trkpt>
      <trkpt lat="50.54031" lon="3.12762">
        <ele>-6</ele>
        <time>2018-06-24T14:42:22Z</time>
      </trkpt>
      <trkpt lat="50.54035" lon="3.12746">
        <ele>-6.2</ele>
        <time>2018-06-24T14:42:26Z</time>
      </trkpt>
      <trkpt lat="50.5404" lon="3.1273">
        <ele>-6.6</ele>
        <time>2018-06-24T14:42:30Z</time>
      </trkpt>
      <trkpt lat="50.54045" lon="3.12714">
        <ele>-6.2</ele>
        <time>2018-06-24T14:42:34Z</time>
      </trkpt>
      <trkpt lat="50.54057" lon="3.1271">
        <ele>-6.8</ele>
        <time>2018-06-24T14:42:38Z</time>
      </trkpt>
      <trkpt lat="50.54069" lon="3.12717">
        <ele>-6.4</ele>
        <time>2018-06-24T14:42:42Z</time>
      </trkpt>
      <trkpt lat="50.5408" lon="3.12723">
        <ele>-6</ele>
        <time>2018-06-24T14:42:46Z</time>
      </trkpt>
      <trkpt lat="50.54091" lon="3.12727">
        <ele>-5.6</ele>
        <time>2018-06-24T14:42:50Z</time>
      </trkpt>
      <trkpt lat="50.54102" lon="3.12728">
        <ele>-5</ele>
        <time>2018-06-24T14:42:54Z</time>
      </trkpt>
      <trkpt lat="50.54115" lon="3.12732">
        <ele>-6</ele>
        <time>2018-06-24T14:42:58Z</time>
      </trkpt>
      <trkpt lat="50.54129" lon="3.12737">
        <ele>-5.4</ele>
        <time>2018-06-24T14:43:02Z</time>
      </trkpt>
      <trkpt lat="50.54143" lon="3.12742">
        <ele>-5.4</ele>
        <time>2018-06-24T14:43:06Z</time>
      </trkpt>
      <trkpt lat="50.54155" lon="3.12743">
        <ele>-5.2</ele>
        <time>2018-06-24T14:43:10Z</time>
      </trkpt>
      <trkpt lat="50.54167" lon="3.1274">
        <ele>-4.8</ele>
        <time>2018-06-24T14:43:14Z</time>
      </trkpt>
      <trkpt lat="50.54178" lon="3.12731">
        <ele>-4.6</ele>
        <time>2018-06-24T14:43:18Z</time>
      </trkpt>
      <trkpt lat="50.54185" lon="3.12718">
        <ele>-5</ele>
        <time>2018-06-24T14:43:22Z</time>
      </trkpt>
      <trkpt lat="50.54193" lon="3.12702">
        <ele>-4.8</ele>
        <time>2018-06-24T14:43:26Z</time>
      </trkpt>
      <trkpt lat="50.54202" lon="3.12685">
        <ele>-5</ele>
        <time>2018-06-24T14:43:30Z</time>
      </trkpt>
      <trkpt lat="50.54211" lon="3.12668">
        <ele>-5.6</ele>
        <time>2018-06-24T14:43:34Z</time>
      </trkpt>
      <trkpt lat="50.54218" lon="3.12652">
        <ele>-4.6</ele>
        <time>2018-06-24T14:43:38Z</time>
      </trkpt>
      <trkpt lat="50.5423" lon="3.12642">
        <ele>-5.6</ele>
        <time>2018-06-24T14:43:42Z</time>
      </trkpt>
      <trkpt lat="50.54245" lon="3.12639">
        <ele>-5</ele>
        <time>2018-06-24T14:43:46Z</time>
      </trkpt>
      <trkpt lat="50.5426" lon="3.12637">
        <ele>-5.2</ele>
        <time>2018-06-24T14:43:50Z</time>
      </trkpt>
      <trkpt lat="50.54274" lon="3.12633">
        <ele>-5.6</ele>
        <time>2018-06-24T14:43:54Z</time>
      </trkpt>
      <trkpt lat="50.54288" lon="3.1263">
        <ele>-5.8</ele>
        <time>2018-06-24T14:43:58Z</time>
      </trkpt>
      <trkpt lat="50.54303" lon="3.12627">
        <ele>-5.8</ele>
        <time>2018-06-24T14:44:02Z</time>
      </trkpt>
      <trkpt lat="50.54319" lon="3.12624">
        <ele>-6.4</ele>
        <time>2018-06-24T14:44:06Z</time>
      </trkpt>
      <trkpt lat="50.54333" lon="3.12621">
        <ele>-6.2</ele>
        <time>2018-06-24T14:44:10Z</time>
      </trkpt>
      <trkpt lat="50.54348" lon="3.12617">
        <ele>-6</ele>
        <time>2018-06-24T14:44:14Z</time>
      </trkpt>
      <trkpt lat="50.54364" lon="3.12614">
        <ele>-6.4</ele>
        <time>2018-06-24T14:44:18Z</time>
      </trkpt>
      <trkpt lat="50.54379" lon="3.1261">
        <ele>-6.2</ele>
        <time>2018-06-24T14:44:22Z</time>
      </trkpt>
      <trkpt lat="50.54395" lon="3.12607">
        <ele>-6</ele>
        <time>2018-06-24T14:44:26Z</time>
      </trkpt>
      <trkpt lat="50.5441" lon="3.12602">
        <ele>-6.4</ele>
        <time>2018-06-24T14:44:30Z</time>
      </trkpt>
      <trkpt lat="50.54425" lon="3.12597">
        <ele>-6.2</ele>
        <time>2018-06-24T14:44:34Z</time>
      </trkpt>
      <trkpt lat="50.5444" lon="3.12595">
        <ele>-6.8</ele>
        <time>2018-06-24T14:44:38Z</time>
      </trkpt>
      <trkpt lat="50.54456" lon="3.12592">
        <ele>-6.4</ele>
        <time>2018-06-24T14:44:42Z</time>
      </trkpt>
      <trkpt lat="50.54471" lon="3.12589">
        <ele>-7</ele>
        <time>2018-06-24T14:44:46Z</time>
      </trkpt>
      <trkpt lat="50.54485" lon="3.12586">
        <ele>-6.4</ele>
        <time>2018-06-24T14:44:50Z</time>
      </trkpt>
      <trkpt lat="50.545" lon="3.12579">
        <ele>-6</ele>
        <time>2018-06-24T14:44:54Z</time>
      </trkpt>
      <trkpt lat="50.54515" lon="3.12579">
        <ele>-6</ele>
        <time>2018-06-24T14:44:58Z</time>
      </trkpt>
      <trkpt lat="50.5453" lon="3.12582">
        <ele>-6.2</ele>
        <time>2018-06-24T14:45:02Z</time>
      </trkpt>
      <trkpt lat="50.54544" lon="3.12584">
        <ele>-5.6</ele>
        <time>2018-06-24T14:45:06Z</time>
      </trkpt>
      <trkpt lat="50.54559" lon="3.12584">
        <ele>-5.8</ele>
        <time>2018-06-24T14:45:10Z</time>
      </trkpt>
      <trkpt lat="50.54574" lon="3.12585">
        <ele>-5.6</ele>
        <time>2018-06-24T14:45:14Z</time>
      </trkpt>
      <trkpt lat="50.5459" lon="3.12586">
        <ele>-5.6</ele>
        <time>2018-06-24T14:45:18Z</time>
      </trkpt>
      <trkpt lat="50.54605" lon="3.12587">
        <ele>-4.6</ele>
        <time>2018-06-24T14:45:22Z</time>
      </trkpt>
      <trkpt lat="50.54622" lon="3.12587">
        <ele>-5.2</ele>
        <time>2018-06-24T14:45:26Z</time>
      </trkpt>
      <trkpt lat="50.54639" lon="3.12588">
        <ele>-4.6</ele>
        <time>2018-06-24T14:45:30Z</time>
      </trkpt>
      <trkpt lat="50.54657" lon="3.12589">
        <ele>-4.2</ele>
        <time>2018-06-24T14:45:34Z</time>
      </trkpt>
      <trkpt lat="50.54675" lon="3.12589">
        <ele>-4.2</ele>
        <time>2018-06-24T14:45:38Z</time>
      </trkpt>
      <trkpt lat="50.54694" lon="3.12589">
        <ele>-4.6</ele>
        <time>2018-06-24T14:45:42Z</time>
      </trkpt>
      <trkpt lat="50.54712" lon="3.1259">
        <ele>-4.6</ele>
        <time>2018-06-24T14:45:46Z</time>
      </trkpt>
      <trkpt lat="50.54731" lon="3.12591">
        <ele>-4.2</ele>
        <time>2018-06-24T14:45:50Z</time>
      </trkpt>
      <trkpt lat="50.5475" lon="3.12591">
        <ele>-4.6</ele>
        <time>2018-06-24T14:45:54Z</time>
      </trkpt>
      <trkpt lat="50.54768" lon="3.12592">
        <ele>-5</ele>
        <time>2018-06-24T14:45:58Z</time>
      </trkpt>
      <trkpt lat="50.54787" lon="3.12593">
        <ele>-5.2</ele>
        <time>2018-06-24T14:46:02Z</time>
      </trkpt>
      <trkpt lat="50.54806" lon="3.12593">
        <ele>-5.2</ele>
        <time>2018-06-24T14:46:06Z</time>
      </trkpt>
      <trkpt lat="50.54825" lon="3.12594">
        <ele>-4.6</ele>
        <time>2018-06-24T14:46:10Z</time>
      </trkpt>
      <trkpt lat="50.54844" lon="3.12594">
        <ele>-5</ele>
        <time>2018-06-24T14:46:14Z</time>
      </trkpt>
      <trkpt lat="50.54863" lon="3.12595">
        <ele>-5</ele>
        <time>2018-06-24T14:46:18Z</time>
      </trkpt>
      <trkpt lat="50.54881" lon="3.12596">
        <ele>-4.6</ele>
        <time>2018-06-24T14:46:22Z</time>
      </trkpt>
      <trkpt lat="50.549" lon="3.12597">
        <ele>-5.4</ele>
        <time>2018-06-24T14:46:26Z</time>
      </trkpt>
      <trkpt lat="50.54919" lon="3.12599">
        <ele>-6</ele>
        <time>2018-06-24T14:46:30Z</time>
      </trkpt>
      <trkpt lat="50.54939" lon="3.126">
        <ele>-5.8</ele>
        <time>2018-06-24T14:46:34Z</time>
      </trkpt>
      <trkpt lat="50.54959" lon="3.12602">
        <ele>-6</ele>
        <time>2018-06-24T14:46:38Z</time>
      </trkpt>
      <trkpt lat="50.54979" lon="3.12603">
        <ele>-6.2</ele>
        <time>2018-06-24T14:46:42Z</time>
      </trkpt>
      <trkpt lat="50.54998" lon="3.12605">
        <ele>-5.8</ele>
        <time>2018-06-24T14:46:46Z</time>
      </trkpt>
      <trkpt lat="50.55018" lon="3.12606">
        <ele>-6</ele>
        <time>2018-06-24T14:46:50Z</time>
      </trkpt>
      <trkpt lat="50.55037" lon="3.12607">
        <ele>-5.8</ele>
        <time>2018-06-24T14:46:54Z</time>
      </trkpt>
      <trkpt lat="50.55056" lon="3.12608">
        <ele>-6.4</ele>
        <time>2018-06-24T14:46:58Z</time>
      </trkpt>
      <trkpt lat="50.55075" lon="3.12609">
        <ele>-6</ele>
        <time>2018-06-24T14:47:02Z</time>
      </trkpt>
      <trkpt lat="50.55095" lon="3.12611">
        <ele>-6.2</ele>
        <time>2018-06-24T14:47:06Z</time>
      </trkpt>
      <trkpt lat="50.55114" lon="3.12612">
        <ele>-6.4</ele>
        <time>2018-06-24T14:47:10Z</time>
      </trkpt>
      <trkpt lat="50.55132" lon="3.12614">
        <ele>-6.2</ele>
        <time>2018-06-24T14:47:14Z</time>
      </trkpt>
      <trkpt lat="50.5515" lon="3.12616">
        <ele>-6.2</ele>
        <time>2018-06-24T14:47:18Z</time>
      </trkpt>
      <trkpt lat="50.55168" lon="3.12619">
        <ele>-6.4</ele>
        <time>2018-06-24T14:47:22Z</time>
      </trkpt>
      <trkpt lat="50.55187" lon="3.1262">
        <ele>-5.8</ele>
        <time>2018-06-24T14:47:26Z</time>
      </trkpt>
      <trkpt lat="50.55206" lon="3.12622">
        <ele>-6.4</ele>
        <time>2018-06-24T14:47:30Z</time>
      </trkpt>
      <trkpt lat="50.55225" lon="3.12622">
        <ele>-6.4</ele>
        <time>2018-06-24T14:47:34Z</time>
      </trkpt>
      <trkpt lat="50.55243" lon="3.12617">
        <ele>-7</ele>
        <time>2018-06-24T14:47:38Z</time>
      </trkpt>
      <trkpt lat="50.55262" lon="3.1261">
        <ele>-6.6</ele>
        <time>2018-06-24T14:47:42Z</time>
      </trkpt>
      <trkpt lat="50.5528" lon="3.126">
        <ele>-6.4</ele>
        <time>2018-06-24T14:47:46Z</time>
      </trkpt>
      <trkpt lat="50.55298" lon="3.12591">
        <ele>-6.4</ele>
        <time>2018-06-24T14:47:50Z</time>
      </trkpt>
      <trkpt lat="50.55315" lon="3.12581">
        <ele>-7</ele>
        <time>2018-06-24T14:47:54Z</time>
      </trkpt>
      <trkpt lat="50.55333" lon="3.12572">
        <ele>-7</ele>
        <time>2018-06-24T14:47:58Z</time>
      </trkpt>
      <trkpt lat="50.55348" lon="3.12565">
        <ele>-7</ele>
        <time>2018-06-24T14:48:02Z</time>
      </trkpt>
      <trkpt lat="50.55365" lon="3.12558">
        <ele>-6.8</ele>
        <time>2018-06-24T14:48:06Z</time>
      </trkpt>
      <trkpt lat="50.55382" lon="3.12549">
        <ele>-6.8</ele>
        <time>2018-06-24T14:48:10Z</time>
      </trkpt>
      <trkpt lat="50.55399" lon="3.1254">
        <ele>-7</ele>
        <time>2018-06-24T14:48:14Z</time>
      </trkpt>
      <trkpt lat="50.55417" lon="3.12531">
        <ele>-6.2</ele>
        <time>2018-06-24T14:48:18Z</time>
      </trkpt>
      <trkpt lat="50.55433" lon="3.12522">
        <ele>-6.2</ele>
        <time>2018-06-24T14:48:22Z</time>
      </trkpt>
      <trkpt lat="50.5545" lon="3.12514">
        <ele>-6</ele>
        <time>2018-06-24T14:48:26Z</time>
      </trkpt>
      <trkpt lat="50.55467" lon="3.12505">
        <ele>-6</ele>
        <time>2018-06-24T14:48:30Z</time>
      </trkpt>
      <trkpt lat="50.55484" lon="3.12498">
        <ele>-6</ele>
        <time>2018-06-24T14:48:34Z</time>
      </trkpt>
      <trkpt lat="50.55501" lon="3.12492">
        <ele>-6</ele>
        <time>2018-06-24T14:48:38Z</time>
      </trkpt>
      <trkpt lat="50.55519" lon="3.12484">
        <ele>-5.2</ele>
        <time>2018-06-24T14:48:42Z</time>
      </trkpt>
      <trkpt lat="50.55538" lon="3.12475">
        <ele>-5.4</ele>
        <time>2018-06-24T14:48:46Z</time>
      </trkpt>
      <trkpt lat="50.55556" lon="3.12462">
        <ele>-5.6</ele>
        <time>2018-06-24T14:48:50Z</time>
      </trkpt>
      <trkpt lat="50.55574" lon="3.1245">
        <ele>-5.8</ele>
        <time>2018-06-24T14:48:54Z</time>
      </trkpt>
      <trkpt lat="50.55591" lon="3.12439">
        <ele>-6.4</ele>
        <time>2018-06-24T14:48:58Z</time>
      </trkpt>
      <trkpt lat="50.55607" lon="3.12425">
        <ele>-6</ele>
        <time>2018-06-24T14:49:02Z</time>
      </trkpt>
      <trkpt lat="50.55622" lon="3.12413">
        <ele>-6</ele>
        <time>2018-06-24T14:49:06Z</time>
      </trkpt>
      <trkpt lat="50.55634" lon="3.12405">
        <ele>-6</ele>
        <time>2018-06-24T14:49:10Z</time>
      </trkpt>
      <trkpt lat="50.55643" lon="3.12409">
        <ele>-6</ele>
        <time>2018-06-24T14:49:14Z</time>
      </trkpt>
      <trkpt lat="50.5565" lon="3.12431">
        <ele>-5.4</ele>
        <time>2018-06-24T14:49:18Z</time>
      </trkpt>
      <trkpt lat="50.55654" lon="3.12455">
        <ele>-5</ele>
        <time>2018-06-24T14:49:22Z</time>
      </trkpt>
      <trkpt lat="50.55656" lon="3.1248">
        <ele>-5.2</ele>
        <time>2018-06-24T14:49:26Z</time>
      </trkpt>
      <trkpt lat="50.55659" lon="3.12507">
        <ele>-5</ele>
        <time>2018-06-24T14:49:30Z</time>
      </trkpt>
      <trkpt lat="50.55661" lon="3.12535">
        <ele>-5.2</ele>
        <time>2018-06-24T14:49:34Z</time>
      </trkpt>
      <trkpt lat="50.55663" lon="3.12563">
        <ele>-5</ele>
        <time>2018-06-24T14:49:38Z</time>
      </trkpt>
      <trkpt lat="50.55665" lon="3.1259">
        <ele>-5</ele>
        <time>2018-06-24T14:49:42Z</time>
      </trkpt>
      <trkpt lat="50.55667" lon="3.12619">
        <ele>-4.8</ele>
        <time>2018-06-24T14:49:46Z</time>
      </trkpt>
      <trkpt lat="50.55669" lon="3.12648">
        <ele>-4.4</ele>
        <time>2018-06-24T14:49:50Z</time>
      </trkpt>
      <trkpt lat="50.5567" lon="3.12676">
        <ele>-4</ele>
        <time>2018-06-24T14:49:54Z</time>
      </trkpt>
      <trkpt lat="50.55673" lon="3.12704">
        <ele>-4.2</ele>
        <time>2018-06-24T14:49:58Z</time>
      </trkpt>
      <trkpt lat="50.55676" lon="3.12733">
        <ele>-3.6</ele>
        <time>2018-06-24T14:50:02Z</time>
      </trkpt>
      <trkpt lat="50.5568" lon="3.12763">
        <ele>-3</ele>
        <time>2018-06-24T14:50:06Z</time>
      </trkpt>
      <trkpt lat="50.55683" lon="3.12793">
        <ele>-3.2</ele>
        <time>2018-06-24T14:50:10Z</time>
      </trkpt>
      <trkpt lat="50.55685" lon="3.12823">
        <ele>-2.8</ele>
        <time>2018-06-24T14:50:14Z</time>
      </trkpt>
      <trkpt lat="50.55689" lon="3.12853">
        <ele>-2.8</ele>
        <time>2018-06-24T14:50:18Z</time>
      </trkpt>
      <trkpt lat="50.55693" lon="3.12881">
        <ele>-2.4</ele>
        <time>2018-06-24T14:50:22Z</time>
      </trkpt>
      <trkpt lat="50.55697" lon="3.12907">
        <ele>-2.2</ele>
        <time>2018-06-24T14:50:26Z</time>
      </trkpt>
      <trkpt lat="50.55702" lon="3.12935">
        <ele>-2.8</ele>
        <time>2018-06-24T14:50:30Z</time>
      </trkpt>
      <trkpt lat="50.55706" lon="3.12963">
        <ele>-2</ele>
        <time>2018-06-24T14:50:34Z</time>
      </trkpt>
      <trkpt lat="50.55711" lon="3.12987">
        <ele>-2</ele>
        <time>2018-06-24T14:50:38Z</time>
      </trkpt>
      <trkpt lat="50.55717" lon="3.13012">
        <ele>-1.8</ele>
        <time>2018-06-24T14:50:42Z</time>
      </trkpt>
      <trkpt lat="50.55721" lon="3.13034">
        <ele>-2.2</ele>
        <time>2018-06-24T14:50:46Z</time>
      </trkpt>
      <trkpt lat="50.55727" lon="3.13051">
        <ele>-2.2</ele>
        <time>2018-06-24T14:50:50Z</time>
      </trkpt>
      <trkpt lat="50.55739" lon="3.13053">
        <ele>-1.8</ele>
        <time>2018-06-24T14:50:54Z</time>
      </trkpt>
      <trkpt lat="50.55754" lon="3.13051">
        <ele>-1.4</ele>
        <time>2018-06-24T14:50:58Z</time>
      </trkpt>
      <trkpt lat="50.55768" lon="3.13048">
        <ele>-1.4</ele>
        <time>2018-06-24T14:51:02Z</time>
      </trkpt>
      <trkpt lat="50.55783" lon="3.13047">
        <ele>-0.8</ele>
        <time>2018-06-24T14:51:06Z</time>
      </trkpt>
      <trkpt lat="50.55799" lon="3.13044">
        <ele>-0.4</ele>
        <time>2018-06-24T14:51:10Z</time>
      </trkpt>
      <trkpt lat="50.55817" lon="3.13044">
        <ele>-0.8</ele>
        <time>2018-06-24T14:51:14Z</time>
      </trkpt>
      <trkpt lat="50.55835" lon="3.13046">
        <ele>-0.6</ele>
        <time>2018-06-24T14:51:18Z</time>
      </trkpt>
      <trkpt lat="50.55853" lon="3.13045">
        <ele>-0.6</ele>
        <time>2018-06-24T14:51:22Z</time>
      </trkpt>
      <trkpt lat="50.55869" lon="3.13043">
        <ele>-0.2</ele>
        <time>2018-06-24T14:51:26Z</time>
      </trkpt>
      <trkpt lat="50.55886" lon="3.13039">
        <ele>37</ele>
        <time>2018-06-24T14:51:30Z</time>
      </trkpt>
      <trkpt lat="50.55901" lon="3.13037">
        <ele>0.2</ele>
        <time>2018-06-24T14:51:34Z</time>
      </trkpt>
      <trkpt lat="50.55916" lon="3.13036">
        <ele>0.2</ele>
        <time>2018-06-24T14:51:38Z</time>
      </trkpt>
      <trkpt lat="50.55931" lon="3.13035">
        <ele>0.6</ele>
        <time>2018-06-24T14:51:42Z</time>
      </trkpt>
      <trkpt lat="50.55944" lon="3.13035">
        <ele>0.6</ele>
        <time>2018-06-24T14:51:46Z</time>
      </trkpt>
      <trkpt lat="50.55958" lon="3.13033">
        <ele>0.6</ele>
        <time>2018-06-24T14:51:50Z</time>
      </trkpt>
      <trkpt lat="50.5597" lon="3.13044">
        <ele>-0.4</ele>
        <time>2018-06-24T14:51:54Z</time>
      </trkpt>
      <trkpt lat="50.55971" lon="3.13071">
        <ele>-0.4</ele>
        <time>2018-06-24T14:51:58Z</time>
      </trkpt>
      <trkpt lat="50.5597" lon="3.13097">
        <ele>-0.6</ele>
        <time>2018-06-24T14:52:02Z</time>
      </trkpt>
      <trkpt lat="50.55969" lon="3.13124">
        <ele>-0.8</ele>
        <time>2018-06-24T14:52:06Z</time>
      </trkpt>
      <trkpt lat="50.5597" lon="3.13148">
        <ele>-1</ele>
        <time>2018-06-24T14:52:10Z</time>
      </trkpt>
      <trkpt lat="50.55973" lon="3.13172">
        <ele>-0.8</ele>
        <time>2018-06-24T14:52:14Z</time>
      </trkpt>
      <trkpt lat="50.5598" lon="3.13197">
        <ele>-0.4</ele>
        <time>2018-06-24T14:52:18Z</time>
      </trkpt>
      <trkpt lat="50.55988" lon="3.13222">
        <ele>-0.6</ele>
        <time>2018-06-24T14:52:22Z</time>
      </trkpt>
      <trkpt lat="50.55996" lon="3.13247">
        <ele>-0.8</ele>
        <time>2018-06-24T14:52:26Z</time>
      </trkpt>
      <trkpt lat="50.56004" lon="3.13273">
        <ele>-0.4</ele>
        <time>2018-06-24T14:52:30Z</time>
      </trkpt>
      <trkpt lat="50.56012" lon="3.13301">
        <ele>-0.6</ele>
        <time>2018-06-24T14:52:34Z</time>
      </trkpt>
      <trkpt lat="50.56021" lon="3.13329">
        <ele>-0.6</ele>
        <time>2018-06-24T14:52:38Z</time>
      </trkpt>
      <trkpt lat="50.56029" lon="3.13353">
        <ele>-0.8</ele>
        <time>2018-06-24T14:52:42Z</time>
      </trkpt>
      <trkpt lat="50.56036" lon="3.13378">
        <ele>-0.4</ele>
        <time>2018-06-24T14:52:46Z</time>
      </trkpt>
      <trkpt lat="50.56043" lon="3.13399">
        <ele>-1.2</ele>
        <time>2018-06-24T14:52:50Z</time>
      </trkpt>
      <trkpt lat="50.56049" lon="3.13417">
        <ele>-0.8</ele>
        <time>2018-06-24T14:52:54Z</time>
      </trkpt>
      <trkpt lat="50.56056" lon="3.13418">
        <ele>-0.6</ele>
        <time>2018-06-24T14:52:58Z</time>
      </trkpt>
      <trkpt lat="50.56065" lon="3.13404">
        <ele>-0.4</ele>
        <time>2018-06-24T14:53:02Z</time>
      </trkpt>
      <trkpt lat="50.56074" lon="3.13386">
        <ele>-0.4</ele>
        <time>2018-06-24T14:53:06Z</time>
      </trkpt>
      <trkpt lat="50.56084" lon="3.13367">
        <ele>-0.2</ele>
        <time>2018-06-24T14:53:10Z</time>
      </trkpt>
      <trkpt lat="50.56095" lon="3.13348">
        <ele>-0.6</ele>
        <time>2018-06-24T14:53:14Z</time>
      </trkpt>
      <trkpt lat="50.56105" lon="3.1333">
        <ele>-0.4</ele>
        <time>2018-06-24T14:53:18Z</time>
      </trkpt>
      <trkpt lat="50.56116" lon="3.13311">
        <ele>0.2</ele>
        <time>2018-06-24T14:53:22Z</time>
      </trkpt>
      <trkpt lat="50.56128" lon="3.13293">
        <ele>-0.2</ele>
        <time>2018-06-24T14:53:26Z</time>
      </trkpt>
      <trkpt lat="50.56139" lon="3.13273">
        <ele>0.4</ele>
        <time>2018-06-24T14:53:30Z</time>
      </trkpt>
      <trkpt lat="50.56149" lon="3.1325">
        <ele>0.4</ele>
        <time>2018-06-24T14:53:34Z</time>
      </trkpt>
      <trkpt lat="50.56157" lon="3.13226">
        <ele>1</ele>
        <time>2018-06-24T14:53:38Z</time>
      </trkpt>
      <trkpt lat="50.56161" lon="3.13199">
        <ele>0.4</ele>
        <time>2018-06-24T14:53:42Z</time>
      </trkpt>
      <trkpt lat="50.5616" lon="3.13171">
        <ele>1</ele>
        <time>2018-06-24T14:53:46Z</time>
      </trkpt>
      <trkpt lat="50.56156" lon="3.13143">
        <ele>1</ele>
        <time>2018-06-24T14:53:50Z</time>
      </trkpt>
      <trkpt lat="50.56147" lon="3.13118">
        <ele>0.6</ele>
        <time>2018-06-24T14:53:54Z</time>
      </trkpt>
      <trkpt lat="50.56136" lon="3.13096">
        <ele>1</ele>
        <time>2018-06-24T14:53:58Z</time>
      </trkpt>
      <trkpt lat="50.56126" lon="3.13072">
        <ele>0.8</ele>
        <time>2018-06-24T14:54:02Z</time>
      </trkpt>
      <trkpt lat="50.56117" lon="3.13047">
        <ele>0.8</ele>
        <time>2018-06-24T14:54:06Z</time>
      </trkpt>
      <trkpt lat="50.56111" lon="3.13017">
        <ele>0.6</ele>
        <time>2018-06-24T14:54:10Z</time>
      </trkpt>
      <trkpt lat="50.56109" lon="3.12987">
        <ele>1</ele>
        <time>2018-06-24T14:54:14Z</time>
      </trkpt>
      <trkpt lat="50.56109" lon="3.12959">
        <ele>0.8</ele>
        <time>2018-06-24T14:54:18Z</time>
      </trkpt>
      <trkpt lat="50.56116" lon="3.12938">
        <ele>1.6</ele>
        <time>2018-06-24T14:54:22Z</time>
      </trkpt>
      <trkpt lat="50.5613" lon="3.1292">
        <ele>2</ele>
        <time>2018-06-24T14:54:26Z</time>
      </trkpt>
      <trkpt lat="50.56135" lon="3.12892">
        <ele>0.8</ele>
        <time>2018-06-24T14:54:30Z</time>
      </trkpt>
      <trkpt lat="50.56128" lon="3.12863">
        <ele>0.8</ele>
        <time>2018-06-24T14:54:34Z</time>
      </trkpt>
      <trkpt lat="50.56131" lon="3.12831">
        <ele>0.6</ele>
        <time>2018-06-24T14:54:38Z</time>
      </trkpt>
      <trkpt lat="50.56146" lon="3.12807">
        <ele>0.6</ele>
        <time>2018-06-24T14:54:42Z</time>
      </trkpt>
      <trkpt lat="50.56165" lon="3.12795">
        <ele>0.6</ele>
        <time>2018-06-24T14:54:46Z</time>
      </trkpt>
      <trkpt lat="50.56185" lon="3.12786">
        <ele>0.8</ele>
        <time>2018-06-24T14:54:50Z</time>
      </trkpt>
      <trkpt lat="50.56206" lon="3.1278">
        <ele>1.2</ele>
        <time>2018-06-24T14:54:54Z</time>
      </trkpt>
      <trkpt lat="50.56225" lon="3.12773">
        <ele>1.2</ele>
        <time>2018-06-24T14:54:58Z</time>
      </trkpt>
      <trkpt lat="50.56244" lon="3.12764">
        <ele>1</ele>
        <time>2018-06-24T14:55:02Z</time>
      </trkpt>
      <trkpt lat="50.56264" lon="3.12757">
        <ele>0.8</ele>
        <time>2018-06-24T14:55:06Z</time>
      </trkpt>
      <trkpt lat="50.56284" lon="3.1275">
        <ele>1.6</ele>
        <time>2018-06-24T14:55:10Z</time>
      </trkpt>
      <trkpt lat="50.56304" lon="3.12743">
        <ele>1.6</ele>
        <time>2018-06-24T14:55:14Z</time>
      </trkpt>
      <trkpt lat="50.56325" lon="3.12736">
        <ele>1.8</ele>
        <time>2018-06-24T14:55:18Z</time>
      </trkpt>
      <trkpt lat="50.56345" lon="3.1273">
        <ele>1.6</ele>
        <time>2018-06-24T14:55:22Z</time>
      </trkpt>
      <trkpt lat="50.56364" lon="3.12723">
        <ele>2</ele>
        <time>2018-06-24T14:55:26Z</time>
      </trkpt>
      <trkpt lat="50.56383" lon="3.12716">
        <ele>0.8</ele>
        <time>2018-06-24T14:55:30Z</time>
      </trkpt>
      <trkpt lat="50.564" lon="3.1271">
        <ele>2</ele>
        <time>2018-06-24T14:55:34Z</time>
      </trkpt>
      <trkpt lat="50.56413" lon="3.12697">
        <ele>1.2</ele>
        <time>2018-06-24T14:55:38Z</time>
      </trkpt>
      <trkpt lat="50.56429" lon="3.12687">
        <ele>1.8</ele>
        <time>2018-06-24T14:55:42Z</time>
      </trkpt>
      <trkpt lat="50.56445" lon="3.1268">
        <ele>2</ele>
        <time>2018-06-24T14:55:46Z</time>
      </trkpt>
      <trkpt lat="50.5646" lon="3.12672">
        <ele>1.6</ele>
        <time>2018-06-24T14:55:50Z</time>
      </trkpt>
      <trkpt lat="50.56475" lon="3.12664">
        <ele>2</ele>
        <time>2018-06-24T14:55:54Z</time>
      </trkpt>
      <trkpt lat="50.56491" lon="3.12656">
        <ele>2</ele>
        <time>2018-06-24T14:55:58Z</time>
      </trkpt>
      <trkpt lat="50.56506" lon="3.12647">
        <ele>2</ele>
        <time>2018-06-24T14:56:02Z</time>
      </trkpt>
      <trkpt lat="50.56523" lon="3.12636">
        <ele>2</ele>
        <time>2018-06-24T14:56:06Z</time>
      </trkpt>
      <trkpt lat="50.56539" lon="3.12625">
        <ele>2.2</ele>
        <time>2018-06-24T14:56:10Z</time>
      </trkpt>
      <trkpt lat="50.56556" lon="3.12613">
        <ele>2.8</ele>
        <time>2018-06-24T14:56:14Z</time>
      </trkpt>
      <trkpt lat="50.56571" lon="3.12601">
        <ele>3</ele>
        <time>2018-06-24T14:56:18Z</time>
      </trkpt>
      <trkpt lat="50.56587" lon="3.12589">
        <ele>3.2</ele>
        <time>2018-06-24T14:56:22Z</time>
      </trkpt>
      <trkpt lat="50.56603" lon="3.12577">
        <ele>3</ele>
        <time>2018-06-24T14:56:26Z</time>
      </trkpt>
      <trkpt lat="50.56619" lon="3.12564">
        <ele>3.8</ele>
        <time>2018-06-24T14:56:30Z</time>
      </trkpt>
      <trkpt lat="50.56636" lon="3.12553">
        <ele>4.2</ele>
        <time>2018-06-24T14:56:34Z</time>
      </trkpt>
      <trkpt lat="50.56652" lon="3.12542">
        <ele>3.8</ele>
        <time>2018-06-24T14:56:38Z</time>
      </trkpt>
      <trkpt lat="50.56669" lon="3.12531">
        <ele>4.6</ele>
        <time>2018-06-24T14:56:42Z</time>
      </trkpt>
      <trkpt lat="50.56685" lon="3.12519">
        <ele>4.8</ele>
        <time>2018-06-24T14:56:46Z</time>
      </trkpt>
      <trkpt lat="50.56702" lon="3.12508">
        <ele>4.2</ele>
        <time>2018-06-24T14:56:50Z</time>
      </trkpt>
      <trkpt lat="50.56719" lon="3.12496">
        <ele>4.8</ele>
        <time>2018-06-24T14:56:54Z</time>
      </trkpt>
      <trkpt lat="50.56735" lon="3.12484">
        <ele>5.8</ele>
        <time>2018-06-24T14:56:58Z</time>
      </trkpt>
      <trkpt lat="50.5675" lon="3.12471">
        <ele>4.6</ele>
        <time>2018-06-24T14:57:02Z</time>
      </trkpt>
      <trkpt lat="50.56764" lon="3.12457">
        <ele>4.4</ele>
        <time>2018-06-24T14:57:06Z</time>
      </trkpt>
      <trkpt lat="50.56778" lon="3.12444">
        <ele>3.6</ele>
        <time>2018-06-24T14:57:10Z</time>
      </trkpt>
      <trkpt lat="50.56792" lon="3.12431">
        <ele>3.2</ele>
        <time>2018-06-24T14:57:14Z</time>
      </trkpt>
      <trkpt lat="50.56806" lon="3.12418">
        <ele>1.8</ele>
        <time>2018-06-24T14:57:18Z</time>
      </trkpt>
      <trkpt lat="50.56821" lon="3.12403">
        <ele>1.2</ele>
        <time>2018-06-24T14:57:22Z</time>
      </trkpt>
      <trkpt lat="50.56837" lon="3.12389">
        <ele>1</ele>
        <time>2018-06-24T14:57:26Z</time>
      </trkpt>
      <trkpt lat="50.56854" lon="3.12376">
        <ele>0.6</ele>
        <time>2018-06-24T14:57:30Z</time>
      </trkpt>
      <trkpt lat="50.56872" lon="3.12363">
        <ele>1.8</ele>
        <time>2018-06-24T14:57:34Z</time>
      </trkpt>
      <trkpt lat="50.56889" lon="3.12352">
        <ele>1.6</ele>
        <time>2018-06-24T14:57:38Z</time>
      </trkpt>
      <trkpt lat="50.56904" lon="3.1234">
        <ele>2.8</ele>
        <time>2018-06-24T14:57:42Z</time>
      </trkpt>
      <trkpt lat="50.56919" lon="3.1233">
        <ele>3.2</ele>
        <time>2018-06-24T14:57:46Z</time>
      </trkpt>
      <trkpt lat="50.56934" lon="3.12321">
        <ele>3.8</ele>
        <time>2018-06-24T14:57:50Z</time>
      </trkpt>
      <trkpt lat="50.56948" lon="3.1231">
        <ele>4.6</ele>
        <time>2018-06-24T14:57:54Z</time>
      </trkpt>
      <trkpt lat="50.56963" lon="3.123">
        <ele>4.4</ele>
        <time>2018-06-24T14:57:58Z</time>
      </trkpt>
      <trkpt lat="50.56977" lon="3.12291">
        <ele>5.4</ele>
        <time>2018-06-24T14:58:02Z</time>
      </trkpt>
      <trkpt lat="50.56992" lon="3.12283">
        <ele>4.6</ele>
        <time>2018-06-24T14:58:06Z</time>
      </trkpt>
      <trkpt lat="50.57007" lon="3.12274">
        <ele>5</ele>
        <time>2018-06-24T14:58:10Z</time>
      </trkpt>
      <trkpt lat="50.57022" lon="3.12263">
        <ele>5.8</ele>
        <time>2018-06-24T14:58:14Z</time>
      </trkpt>
      <trkpt lat="50.57038" lon="3.1225">
        <ele>5.2</ele>
        <time>2018-06-24T14:58:18Z</time>
      </trkpt>
      <trkpt lat="50.57054" lon="3.12235">
        <ele>5.2</ele>
        <time>2018-06-24T14:58:22Z</time>
      </trkpt>
      <trkpt lat="50.57071" lon="3.12219">
        <ele>6</ele>
        <time>2018-06-24T14:58:26Z</time>
      </trkpt>
      <trkpt lat="50.5709" lon="3.12203">
        <ele>5.2</ele>
        <time>2018-06-24T14:58:30Z</time>
      </trkpt>
      <trkpt lat="50.57107" lon="3.12188">
        <ele>5.6</ele>
        <time>2018-06-24T14:58:34Z</time>
      </trkpt>
      <trkpt lat="50.57124" lon="3.12173">
        <ele>7.4</ele>
        <time>2018-06-24T14:58:38Z</time>
      </trkpt>
      <trkpt lat="50.5714" lon="3.12158">
        <ele>6.6</ele>
        <time>2018-06-24T14:58:42Z</time>
      </trkpt>
      <trkpt lat="50.57156" lon="3.12144">
        <ele>6.6</ele>
        <time>2018-06-24T14:58:46Z</time>
      </trkpt>
      <trkpt lat="50.5717" lon="3.12131">
        <ele>6.2</ele>
        <time>2018-06-24T14:58:50Z</time>
      </trkpt>
      <trkpt lat="50.57185" lon="3.12121">
        <ele>6.2</ele>
        <time>2018-06-24T14:58:54Z</time>
      </trkpt>
      <trkpt lat="50.572" lon="3.12111">
        <ele>6.6</ele>
        <time>2018-06-24T14:58:58Z</time>
      </trkpt>
      <trkpt lat="50.57214" lon="3.12101">
        <ele>6.2</ele>
        <time>2018-06-24T14:59:02Z</time>
      </trkpt>
      <trkpt lat="50.57229" lon="3.12091">
        <ele>6.6</ele>
        <time>2018-06-24T14:59:06Z</time>
      </trkpt>
      <trkpt lat="50.57243" lon="3.12082">
        <ele>7.2</ele>
        <time>2018-06-24T14:59:10Z</time>
      </trkpt>
      <trkpt lat="50.57257" lon="3.12073">
        <ele>7.2</ele>
        <time>2018-06-24T14:59:14Z</time>
      </trkpt>
      <trkpt lat="50.57272" lon="3.12064">
        <ele>6.6</ele>
        <time>2018-06-24T14:59:18Z</time>
      </trkpt>
      <trkpt lat="50.57286" lon="3.12055">
        <ele>7</ele>
        <time>2018-06-24T14:59:22Z</time>
      </trkpt>
      <trkpt lat="50.57301" lon="3.12044">
        <ele>6.8</ele>
        <time>2018-06-24T14:59:26Z</time>
      </trkpt>
      <trkpt lat="50.57316" lon="3.12034">
        <ele>7.2</ele>
        <time>2018-06-24T14:59:30Z</time>
      </trkpt>
      <trkpt lat="50.57332" lon="3.12023">
        <ele>8</ele>
        <time>2018-06-24T14:59:34Z</time>
      </trkpt>
      <trkpt lat="50.57349" lon="3.12013">
        <ele>8.4</ele>
        <time>2018-06-24T14:59:38Z</time>
      </trkpt>
      <trkpt lat="50.57365" lon="3.12002">
        <ele>8</ele>
        <time>2018-06-24T14:59:42Z</time>
      </trkpt>
      <trkpt lat="50.57382" lon="3.11991">
        <ele>8.8</ele>
        <time>2018-06-24T14:59:46Z</time>
      </trkpt>
      <trkpt lat="50.57398" lon="3.11979">
        <ele>8.6</ele>
        <time>2018-06-24T14:59:50Z</time>
      </trkpt>
      <trkpt lat="50.57413" lon="3.11966">
        <ele>8.8</ele>
        <time>2018-06-24T14:59:54Z</time>
      </trkpt>
      <trkpt lat="50.57428" lon="3.11951">
        <ele>9.2</ele>
        <time>2018-06-24T14:59:58Z</time>
      </trkpt>
      <trkpt lat="50.57443" lon="3.11934">
        <ele>9</ele>
        <time>2018-06-24T15:00:02Z</time>
      </trkpt>
      <trkpt lat="50.57456" lon="3.11917">
        <ele>9</ele>
        <time>2018-06-24T15:00:06Z</time>
      </trkpt>
      <trkpt lat="50.57468" lon="3.11898">
        <ele>9.6</ele>
        <time>2018-06-24T15:00:10Z</time>
      </trkpt>
      <trkpt lat="50.5748" lon="3.1188">
        <ele>9.8</ele>
        <time>2018-06-24T15:00:14Z</time>
      </trkpt>
      <trkpt lat="50.57492" lon="3.11862">
        <ele>10.2</ele>
        <time>2018-06-24T15:00:18Z</time>
      </trkpt>
      <trkpt lat="50.57504" lon="3.11845">
        <ele>10.6</ele>
        <time>2018-06-24T15:00:22Z</time>
      </trkpt>
      <trkpt lat="50.57515" lon="3.11827">
        <ele>11</ele>
        <time>2018-06-24T15:00:26Z</time>
      </trkpt>
      <trkpt lat="50.57524" lon="3.11806">
        <ele>11.4</ele>
        <time>2018-06-24T15:00:30Z</time>
      </trkpt>
      <trkpt lat="50.5753" lon="3.1178">
        <ele>11.2</ele>
        <time>2018-06-24T15:00:34Z</time>
      </trkpt>
      <trkpt lat="50.57533" lon="3.11749">
        <ele>11.4</ele>
        <time>2018-06-24T15:00:38Z</time>
      </trkpt>
      <trkpt lat="50.57534" lon="3.11718">
        <ele>11.6</ele>
        <time>2018-06-24T15:00:42Z</time>
      </trkpt>
      <trkpt lat="50.57534" lon="3.11685">
        <ele>11.4</ele>
        <time>2018-06-24T15:00:46Z</time>
      </trkpt>
      <trkpt lat="50.57533" lon="3.11647">
        <ele>11</ele>
        <time>2018-06-24T15:00:50Z</time>
      </trkpt>
      <trkpt lat="50.57532" lon="3.11609">
        <ele>10.2</ele>
        <time>2018-06-24T15:00:54Z</time>
      </trkpt>
      <trkpt lat="50.57531" lon="3.11572">
        <ele>10.4</ele>
        <time>2018-06-24T15:00:58Z</time>
      </trkpt>
      <trkpt lat="50.57531" lon="3.11537">
        <ele>11</ele>
        <time>2018-06-24T15:01:02Z</time>
      </trkpt>
      <trkpt lat="50.5753" lon="3.11503">
        <ele>10.8</ele>
        <time>2018-06-24T15:01:06Z</time>
      </trkpt>
      <trkpt lat="50.57529" lon="3.11469">
        <ele>11.2</ele>
        <time>2018-06-24T15:01:10Z</time>
      </trkpt>
      <trkpt lat="50.57528" lon="3.11437">
        <ele>11.2</ele>
        <time>2018-06-24T15:01:14Z</time>
      </trkpt>
      <trkpt lat="50.57527" lon="3.11411">
        <ele>11.4</ele>
        <time>2018-06-24T15:01:18Z</time>
      </trkpt>
      <trkpt lat="50.57523" lon="3.11387">
        <ele>11.2</ele>
        <time>2018-06-24T15:01:22Z</time>
      </trkpt>
      <trkpt lat="50.57521" lon="3.11364">
        <ele>11.8</ele>
        <time>2018-06-24T15:01:26Z</time>
      </trkpt>
      <trkpt lat="50.57518" lon="3.11343">
        <ele>11.6</ele>
        <time>2018-06-24T15:01:30Z</time>
      </trkpt>
      <trkpt lat="50.57512" lon="3.11328">
        <ele>11.2</ele>
        <time>2018-06-24T15:01:34Z</time>
      </trkpt>
      <trkpt lat="50.57504" lon="3.11314">
        <ele>11</ele>
        <time>2018-06-24T15:01:38Z</time>
      </trkpt>
      <trkpt lat="50.57503" lon="3.11296">
        <ele>11.2</ele>
        <time>2018-06-24T15:01:42Z</time>
      </trkpt>
      <trkpt lat="50.57505" lon="3.11276">
        <ele>11.6</ele>
        <time>2018-06-24T15:01:46Z</time>
      </trkpt>
      <trkpt lat="50.57513" lon="3.11258">
        <ele>11.8</ele>
        <time>2018-06-24T15:01:50Z</time>
      </trkpt>
      <trkpt lat="50.5752" lon="3.11238">
        <ele>12</ele>
        <time>2018-06-24T15:01:54Z</time>
      </trkpt>
      <trkpt lat="50.57524" lon="3.11214">
        <ele>11</ele>
        <time>2018-06-24T15:01:58Z</time>
      </trkpt>
      <trkpt lat="50.57523" lon="3.1119">
        <ele>10</ele>
        <time>2018-06-24T15:02:02Z</time>
      </trkpt>
      <trkpt lat="50.57521" lon="3.11168">
        <ele>10</ele>
        <time>2018-06-24T15:02:06Z</time>
      </trkpt>
      <trkpt lat="50.57514" lon="3.11149">
        <ele>10.2</ele>
        <time>2018-06-24T15:02:10Z</time>
      </trkpt>
      <trkpt lat="50.57504" lon="3.11136">
        <ele>10</ele>
        <time>2018-06-24T15:02:14Z</time>
      </trkpt>
      <trkpt lat="50.57498" lon="3.11129">
        <ele>10.4</ele>
        <time>2018-06-24T15:02:18Z</time>
      </trkpt>
      <trkpt lat="50.57503" lon="3.1112">
        <ele>10.8</ele>
        <time>2018-06-24T15:02:22Z</time>
      </trkpt>
      <trkpt lat="50.57513" lon="3.11107">
        <ele>11</ele>
        <time>2018-06-24T15:02:26Z</time>
      </trkpt>
      <trkpt lat="50.57524" lon="3.11091">
        <ele>10.8</ele>
        <time>2018-06-24T15:02:30Z</time>
      </trkpt>
      <trkpt lat="50.57537" lon="3.11073">
        <ele>11.4</ele>
        <time>2018-06-24T15:02:34Z</time>
      </trkpt>
      <trkpt lat="50.57551" lon="3.11055">
        <ele>11.4</ele>
        <time>2018-06-24T15:02:38Z</time>
      </trkpt>
      <trkpt lat="50.57564" lon="3.11036">
        <ele>11.6</ele>
        <time>2018-06-24T15:02:42Z</time>
      </trkpt>
      <trkpt lat="50.57579" lon="3.11017">
        <ele>11.8</ele>
        <time>2018-06-24T15:02:46Z</time>
      </trkpt>
      <trkpt lat="50.57593" lon="3.10998">
        <ele>11.6</ele>
        <time>2018-06-24T15:02:50Z</time>
      </trkpt>
      <trkpt lat="50.57608" lon="3.1098">
        <ele>11.8</ele>
        <time>2018-06-24T15:02:54Z</time>
      </trkpt>
      <trkpt lat="50.57623" lon="3.10961">
        <ele>12.2</ele>
        <time>2018-06-24T15:02:58Z</time>
      </trkpt>
      <trkpt lat="50.57638" lon="3.10942">
        <ele>11.8</ele>
        <time>2018-06-24T15:03:02Z</time>
      </trkpt>
      <trkpt lat="50.57652" lon="3.10923">
        <ele>12.4</ele>
        <time>2018-06-24T15:03:06Z</time>
      </trkpt>
      <trkpt lat="50.57667" lon="3.10903">
        <ele>12.8</ele>
        <time>2018-06-24T15:03:10Z</time>
      </trkpt>
      <trkpt lat="50.57683" lon="3.10882">
        <ele>13</ele>
        <time>2018-06-24T15:03:14Z</time>
      </trkpt>
      <trkpt lat="50.57698" lon="3.10862">
        <ele>13.2</ele>
        <time>2018-06-24T15:03:18Z</time>
      </trkpt>
      <trkpt lat="50.57714" lon="3.10844">
        <ele>13.8</ele>
        <time>2018-06-24T15:03:22Z</time>
      </trkpt>
      <trkpt lat="50.5773" lon="3.10824">
        <ele>13.2</ele>
        <time>2018-06-24T15:03:26Z</time>
      </trkpt>
      <trkpt lat="50.57746" lon="3.10807">
        <ele>14.4</ele>
        <time>2018-06-24T15:03:30Z</time>
      </trkpt>
      <trkpt lat="50.5776" lon="3.10789">
        <ele>14.6</ele>
        <time>2018-06-24T15:03:34Z</time>
      </trkpt>
      <trkpt lat="50.57775" lon="3.10769">
        <ele>14.6</ele>
        <time>2018-06-24T15:03:38Z</time>
      </trkpt>
      <trkpt lat="50.5779" lon="3.10748">
        <ele>14.6</ele>
        <time>2018-06-24T15:03:42Z</time>
      </trkpt>
      <trkpt lat="50.57807" lon="3.10733">
        <ele>14.6</ele>
        <time>2018-06-24T15:03:46Z</time>
      </trkpt>
      <trkpt lat="50.57826" lon="3.10718">
        <ele>15.2</ele>
        <time>2018-06-24T15:03:50Z</time>
      </trkpt>
      <trkpt lat="50.57843" lon="3.10706">
        <ele>15.6</ele>
        <time>2018-06-24T15:03:54Z</time>
      </trkpt>
      <trkpt lat="50.5786" lon="3.10697">
        <ele>15.4</ele>
        <time>2018-06-24T15:03:58Z</time>
      </trkpt>
      <trkpt lat="50.57878" lon="3.10689">
        <ele>16.2</ele>
        <time>2018-06-24T15:04:02Z</time>
      </trkpt>
      <trkpt lat="50.57896" lon="3.10682">
        <ele>16.6</ele>
        <time>2018-06-24T15:04:06Z</time>
      </trkpt>
      <trkpt lat="50.57913" lon="3.10674">
        <ele>16.6</ele>
        <time>2018-06-24T15:04:10Z</time>
      </trkpt>
      <trkpt lat="50.5793" lon="3.10665">
        <ele>17.2</ele>
        <time>2018-06-24T15:04:14Z</time>
      </trkpt>
      <trkpt lat="50.57947" lon="3.10657">
        <ele>16.6</ele>
        <time>2018-06-24T15:04:18Z</time>
      </trkpt>
      <trkpt lat="50.57963" lon="3.10648">
        <ele>17</ele>
        <time>2018-06-24T15:04:22Z</time>
      </trkpt>
      <trkpt lat="50.5798" lon="3.1064">
        <ele>17</ele>
        <time>2018-06-24T15:04:26Z</time>
      </trkpt>
      <trkpt lat="50.57996" lon="3.10631">
        <ele>17</ele>
        <time>2018-06-24T15:04:30Z</time>
      </trkpt>
      <trkpt lat="50.58013" lon="3.10622">
        <ele>16.8</ele>
        <time>2018-06-24T15:04:34Z</time>
      </trkpt>
      <trkpt lat="50.5803" lon="3.10611">
        <ele>17</ele>
        <time>2018-06-24T15:04:38Z</time>
      </trkpt>
      <trkpt lat="50.58047" lon="3.10601">
        <ele>17.2</ele>
        <time>2018-06-24T15:04:42Z</time>
      </trkpt>
      <trkpt lat="50.58063" lon="3.10592">
        <ele>17.6</ele>
        <time>2018-06-24T15:04:46Z</time>
      </trkpt>
      <trkpt lat="50.58076" lon="3.10587">
        <ele>17.4</ele>
        <time>2018-06-24T15:04:50Z</time>
      </trkpt>
      <trkpt lat="50.58085" lon="3.10587">
        <ele>17.6</ele>
        <time>2018-06-24T15:04:54Z</time>
      </trkpt>
      <trkpt lat="50.58093" lon="3.10586">
        <ele>17.6</ele>
        <time>2018-06-24T15:04:58Z</time>
      </trkpt>
      <trkpt lat="50.58105" lon="3.10582">
        <ele>17.6</ele>
        <time>2018-06-24T15:05:02Z</time>
      </trkpt>
      <trkpt lat="50.58118" lon="3.1057">
        <ele>18.6</ele>
        <time>2018-06-24T15:05:06Z</time>
      </trkpt>
      <trkpt lat="50.58133" lon="3.10565">
        <ele>18.2</ele>
        <time>2018-06-24T15:05:10Z</time>
      </trkpt>
      <trkpt lat="50.58148" lon="3.10568">
        <ele>18.4</ele>
        <time>2018-06-24T15:05:14Z</time>
      </trkpt>
      <trkpt lat="50.5816" lon="3.10572">
        <ele>18.2</ele>
        <time>2018-06-24T15:05:18Z</time>
      </trkpt>
      <trkpt lat="50.58164" lon="3.10574">
        <ele>18</ele>
        <time>2018-06-24T15:05:22Z</time>
      </trkpt>
      <trkpt lat="50.58171" lon="3.10572">
        <ele>18</ele>
        <time>2018-06-24T15:05:26Z</time>
      </trkpt>
      <trkpt lat="50.58183" lon="3.10561">
        <ele>18.2</ele>
        <time>2018-06-24T15:05:30Z</time>
      </trkpt>
      <trkpt lat="50.58199" lon="3.10559">
        <ele>19</ele>
        <time>2018-06-24T15:05:34Z</time>
      </trkpt>
      <trkpt lat="50.58217" lon="3.10561">
        <ele>18</ele>
        <time>2018-06-24T15:05:38Z</time>
      </trkpt>
      <trkpt lat="50.58236" lon="3.10563">
        <ele>17.8</ele>
        <time>2018-06-24T15:05:42Z</time>
      </trkpt>
      <trkpt lat="50.58255" lon="3.10566">
        <ele>16.8</ele>
        <time>2018-06-24T15:05:46Z</time>
      </trkpt>
      <trkpt lat="50.58276" lon="3.10568">
        <ele>16.4</ele>
        <time>2018-06-24T15:05:50Z</time>
      </trkpt>
      <trkpt lat="50.58301" lon="3.10571">
        <ele>14.6</ele>
        <time>2018-06-24T15:05:54Z</time>
      </trkpt>
      <trkpt lat="50.5833" lon="3.10575">
        <ele>13.2</ele>
        <time>2018-06-24T15:05:58Z</time>
      </trkpt>
      <trkpt lat="50.58359" lon="3.10577">
        <ele>13</ele>
        <time>2018-06-24T15:06:02Z</time>
      </trkpt>
      <trkpt lat="50.58379" lon="3.10575">
        <ele>13.8</ele>
        <time>2018-06-24T15:06:06Z</time>
      </trkpt>
      <trkpt lat="50.58394" lon="3.10572">
        <ele>14.6</ele>
        <time>2018-06-24T15:06:10Z</time>
      </trkpt>
      <trkpt lat="50.58421" lon="3.10579">
        <ele>16.2</ele>
        <time>2018-06-24T15:06:14Z</time>
      </trkpt>
      <trkpt lat="50.58445" lon="3.1058">
        <ele>17</ele>
        <time>2018-06-24T15:06:18Z</time>
      </trkpt>
      <trkpt lat="50.58466" lon="3.1058">
        <ele>17.4</ele>
        <time>2018-06-24T15:06:22Z</time>
      </trkpt>
      <trkpt lat="50.58481" lon="3.10574">
        <ele>17.2</ele>
        <time>2018-06-24T15:06:26Z</time>
      </trkpt>
      <trkpt lat="50.58496" lon="3.10567">
        <ele>17.4</ele>
        <time>2018-06-24T15:06:30Z</time>
      </trkpt>
      <trkpt lat="50.58509" lon="3.10557">
        <ele>17.6</ele>
        <time>2018-06-24T15:06:34Z</time>
      </trkpt>
      <trkpt lat="50.58521" lon="3.10546">
        <ele>17.4</ele>
        <time>2018-06-24T15:06:38Z</time>
      </trkpt>
      <trkpt lat="50.5853" lon="3.10537">
        <ele>17.2</ele>
        <time>2018-06-24T15:06:42Z</time>
      </trkpt>
      <trkpt lat="50.58534" lon="3.1053">
        <ele>17</ele>
        <time>2018-06-24T15:06:46Z</time>
      </trkpt>
      <trkpt lat="50.58534" lon="3.1053">
        <ele>17</ele>
        <time>2018-06-24T15:06:50Z</time>
      </trkpt>
      <trkpt lat="50.58534" lon="3.1053">
        <ele>17.4</ele>
        <time>2018-06-24T15:06:54Z</time>
      </trkpt>
      <trkpt lat="50.58534" lon="3.1053">
        <ele>17.4</ele>
        <time>2018-06-24T15:06:58Z</time>
      </trkpt>
      <trkpt lat="50.58535" lon="3.10528">
        <ele>17.4</ele>
        <time>2018-06-24T15:07:02Z</time>
      </trkpt>
      <trkpt lat="50.58544" lon="3.10519">
        <ele>17.4</ele>
        <time>2018-06-24T15:07:06Z</time>
      </trkpt>
      <trkpt lat="50.58555" lon="3.10505">
        <ele>17.6</ele>
        <time>2018-06-24T15:07:10Z</time>
      </trkpt>
      <trkpt lat="50.58569" lon="3.10491">
        <ele>17.4</ele>
        <time>2018-06-24T15:07:14Z</time>
      </trkpt>
      <trkpt lat="50.58585" lon="3.10477">
        <ele>17.2</ele>
        <time>2018-06-24T15:07:18Z</time>
      </trkpt>
      <trkpt lat="50.58601" lon="3.1046">
        <ele>17.6</ele>
        <time>2018-06-24T15:07:22Z</time>
      </trkpt>
      <trkpt lat="50.58616" lon="3.10441">
        <ele>17.2</ele>
        <time>2018-06-24T15:07:26Z</time>
      </trkpt>
      <trkpt lat="50.58633" lon="3.10421">
        <ele>17.2</ele>
        <time>2018-06-24T15:07:30Z</time>
      </trkpt>
      <trkpt lat="50.58648" lon="3.10401">
        <ele>17</ele>
        <time>2018-06-24T15:07:34Z</time>
      </trkpt>
      <trkpt lat="50.58662" lon="3.10379">
        <ele>17.2</ele>
        <time>2018-06-24T15:07:38Z</time>
      </trkpt>
      <trkpt lat="50.58676" lon="3.10358">
        <ele>17.6</ele>
        <time>2018-06-24T15:07:42Z</time>
      </trkpt>
      <trkpt lat="50.5869" lon="3.10336">
        <ele>17.6</ele>
        <time>2018-06-24T15:07:46Z</time>
      </trkpt>
      <trkpt lat="50.58702" lon="3.10313">
        <ele>17.8</ele>
        <time>2018-06-24T15:07:50Z</time>
      </trkpt>
      <trkpt lat="50.58714" lon="3.10289">
        <ele>17.2</ele>
        <time>2018-06-24T15:07:54Z</time>
      </trkpt>
      <trkpt lat="50.58725" lon="3.10268">
        <ele>17</ele>
        <time>2018-06-24T15:07:58Z</time>
      </trkpt>
      <trkpt lat="50.58737" lon="3.10243">
        <ele>17.4</ele>
        <time>2018-06-24T15:08:02Z</time>
      </trkpt>
      <trkpt lat="50.5875" lon="3.10219">
        <ele>17</ele>
        <time>2018-06-24T15:08:06Z</time>
      </trkpt>
      <trkpt lat="50.58765" lon="3.10199">
        <ele>17</ele>
        <time>2018-06-24T15:08:10Z</time>
      </trkpt>
      <trkpt lat="50.58781" lon="3.10177">
        <ele>16.6</ele>
        <time>2018-06-24T15:08:14Z</time>
      </trkpt>
      <trkpt lat="50.58796" lon="3.10155">
        <ele>16</ele>
        <time>2018-06-24T15:08:18Z</time>
      </trkpt>
      <trkpt lat="50.58806" lon="3.10129">
        <ele>16</ele>
        <time>2018-06-24T15:08:22Z</time>
      </trkpt>
      <trkpt lat="50.58814" lon="3.101">
        <ele>15.8</ele>
        <time>2018-06-24T15:08:26Z</time>
      </trkpt>
      <trkpt lat="50.58821" lon="3.10069">
        <ele>15.8</ele>
        <time>2018-06-24T15:08:30Z</time>
      </trkpt>
      <trkpt lat="50.58829" lon="3.10039">
        <ele>15.4</ele>
        <time>2018-06-24T15:08:34Z</time>
      </trkpt>
      <trkpt lat="50.58837" lon="3.1001">
        <ele>15.8</ele>
        <time>2018-06-24T15:08:38Z</time>
      </trkpt>
      <trkpt lat="50.58845" lon="3.0998">
        <ele>15.6</ele>
        <time>2018-06-24T15:08:42Z</time>
      </trkpt>
      <trkpt lat="50.58852" lon="3.09949">
        <ele>15.4</ele>
        <time>2018-06-24T15:08:46Z</time>
      </trkpt>
      <trkpt lat="50.5886" lon="3.09919">
        <ele>15.8</ele>
        <time>2018-06-24T15:08:50Z</time>
      </trkpt>
      <trkpt lat="50.58867" lon="3.09888">
        <ele>15.8</ele>
        <time>2018-06-24T15:08:54Z</time>
      </trkpt>
      <trkpt lat="50.58874" lon="3.09857">
        <ele>16.6</ele>
        <time>2018-06-24T15:08:58Z</time>
      </trkpt>
      <trkpt lat="50.58875" lon="3.09825">
        <ele>16.8</ele>
        <time>2018-06-24T15:09:02Z</time>
      </trkpt>
      <trkpt lat="50.58874" lon="3.09796">
        <ele>17.6</ele>
        <time>2018-06-24T15:09:06Z</time>
      </trkpt>
      <trkpt lat="50.58871" lon="3.09765">
        <ele>18.2</ele>
        <time>2018-06-24T15:09:10Z</time>
      </trkpt>
      <trkpt lat="50.58868" lon="3.09733">
        <ele>19</ele>
        <time>2018-06-24T15:09:14Z</time>
      </trkpt>
      <trkpt lat="50.58864" lon="3.097">
        <ele>19.8</ele>
        <time>2018-06-24T15:09:18Z</time>
      </trkpt>
      <trkpt lat="50.58861" lon="3.09668">
        <ele>20.8</ele>
        <time>2018-06-24T15:09:22Z</time>
      </trkpt>
      <trkpt lat="50.58856" lon="3.09629">
        <ele>21.4</ele>
        <time>2018-06-24T15:09:26Z</time>
      </trkpt>
      <trkpt lat="50.58854" lon="3.09594">
        <ele>22.2</ele>
        <time>2018-06-24T15:09:30Z</time>
      </trkpt>
      <trkpt lat="50.58851" lon="3.09564">
        <ele>21.8</ele>
        <time>2018-06-24T15:09:34Z</time>
      </trkpt>
      <trkpt lat="50.58849" lon="3.09534">
        <ele>21.6</ele>
        <time>2018-06-24T15:09:38Z</time>
      </trkpt>
      <trkpt lat="50.58846" lon="3.09504">
        <ele>21.6</ele>
        <time>2018-06-24T15:09:42Z</time>
      </trkpt>
      <trkpt lat="50.58841" lon="3.09474">
        <ele>21.2</ele>
        <time>2018-06-24T15:09:46Z</time>
      </trkpt>
      <trkpt lat="50.58836" lon="3.09442">
        <ele>20.4</ele>
        <time>2018-06-24T15:09:50Z</time>
      </trkpt>
      <trkpt lat="50.58831" lon="3.09406">
        <ele>19.4</ele>
        <time>2018-06-24T15:09:54Z</time>
      </trkpt>
      <trkpt lat="50.58825" lon="3.09372">
        <ele>19.2</ele>
        <time>2018-06-24T15:09:58Z</time>
      </trkpt>
      <trkpt lat="50.5882" lon="3.09341">
        <ele>19.2</ele>
        <time>2018-06-24T15:10:02Z</time>
      </trkpt>
      <trkpt lat="50.58815" lon="3.09311">
        <ele>19.2</ele>
        <time>2018-06-24T15:10:06Z</time>
      </trkpt>
      <trkpt lat="50.5881" lon="3.09281">
        <ele>19.4</ele>
        <time>2018-06-24T15:10:10Z</time>
      </trkpt>
      <trkpt lat="50.58806" lon="3.09251">
        <ele>19.4</ele>
        <time>2018-06-24T15:10:14Z</time>
      </trkpt>
      <trkpt lat="50.58802" lon="3.09221">
        <ele>19.8</ele>
        <time>2018-06-24T15:10:18Z</time>
      </trkpt>
      <trkpt lat="50.58799" lon="3.09192">
        <ele>20</ele>
        <time>2018-06-24T15:10:22Z</time>
      </trkpt>
      <trkpt lat="50.58796" lon="3.09164">
        <ele>19.8</ele>
        <time>2018-06-24T15:10:26Z</time>
      </trkpt>
      <trkpt lat="50.58793" lon="3.09137">
        <ele>20</ele>
        <time>2018-06-24T15:10:30Z</time>
      </trkpt>
      <trkpt lat="50.5879" lon="3.09108">
        <ele>19.8</ele>
        <time>2018-06-24T15:10:34Z</time>
      </trkpt>
      <trkpt lat="50.58787" lon="3.0908">
        <ele>20</ele>
        <time>2018-06-24T15:10:38Z</time>
      </trkpt>
      <trkpt lat="50.58785" lon="3.09051">
        <ele>19.8</ele>
        <time>2018-06-24T15:10:42Z</time>
      </trkpt>
      <trkpt lat="50.58781" lon="3.0902">
        <ele>19.2</ele>
        <time>2018-06-24T15:10:46Z</time>
      </trkpt>
      <trkpt lat="50.58778" lon="3.08989">
        <ele>19.4</ele>
        <time>2018-06-24T15:10:50Z</time>
      </trkpt>
      <trkpt lat="50.58775" lon="3.08957">
        <ele>19.6</ele>
        <time>2018-06-24T15:10:54Z</time>
      </trkpt>
      <trkpt lat="50.58772" lon="3.08924">
        <ele>19.8</ele>
        <time>2018-06-24T15:10:58Z</time>
      </trkpt>
      <trkpt lat="50.58769" lon="3.08894">
        <ele>19</ele>
        <time>2018-06-24T15:11:02Z</time>
      </trkpt>
      <trkpt lat="50.58766" lon="3.08866">
        <ele>18.4</ele>
        <time>2018-06-24T15:11:06Z</time>
      </trkpt>
      <trkpt lat="50.58763" lon="3.08837">
        <ele>18.8</ele>
        <time>2018-06-24T15:11:10Z</time>
      </trkpt>
      <trkpt lat="50.58761" lon="3.08811">
        <ele>18.4</ele>
        <time>2018-06-24T15:11:14Z</time>
      </trkpt>
      <trkpt lat="50.5876" lon="3.08788">
        <ele>18.8</ele>
        <time>2018-06-24T15:11:18Z</time>
      </trkpt>
      <trkpt lat="50.58761" lon="3.08768">
        <ele>18.4</ele>
        <time>2018-06-24T15:11:22Z</time>
      </trkpt>
      <trkpt lat="50.5876" lon="3.08749">
        <ele>18.4</ele>
        <time>2018-06-24T15:11:26Z</time>
      </trkpt>
      <trkpt lat="50.5876" lon="3.08728">
        <ele>18.2</ele>
        <time>2018-06-24T15:11:30Z</time>
      </trkpt>
      <trkpt lat="50.58771" lon="3.08712">
        <ele>19</ele>
        <time>2018-06-24T15:11:34Z</time>
      </trkpt>
      <trkpt lat="50.58786" lon="3.087">
        <ele>18.8</ele>
        <time>2018-06-24T15:11:38Z</time>
      </trkpt>
      <trkpt lat="50.58799" lon="3.0869">
        <ele>18</ele>
        <time>2018-06-24T15:11:42Z</time>
      </trkpt>
      <trkpt lat="50.58811" lon="3.0868">
        <ele>18.2</ele>
        <time>2018-06-24T15:11:46Z</time>
      </trkpt>
      <trkpt lat="50.58822" lon="3.08673">
        <ele>18</ele>
        <time>2018-06-24T15:11:50Z</time>
      </trkpt>
      <trkpt lat="50.58829" lon="3.08668">
        <ele>18</ele>
        <time>2018-06-24T15:11:54Z</time>
      </trkpt>
      <trkpt lat="50.58837" lon="3.08661">
        <ele>18</ele>
        <time>2018-06-24T15:11:58Z</time>
      </trkpt>
      <trkpt lat="50.58846" lon="3.08657">
        <ele>18.4</ele>
        <time>2018-06-24T15:12:02Z</time>
      </trkpt>
      <trkpt lat="50.58846" lon="3.08657">
        <ele>17.6</ele>
        <time>2018-06-24T15:12:06Z</time>
      </trkpt>
      <trkpt lat="50.58846" lon="3.08657">
        <ele>18.4</ele>
        <time>2018-06-24T15:12:10Z</time>
      </trkpt>
      <trkpt lat="50.58853" lon="3.08656">
        <ele>18</ele>
        <time>2018-06-24T15:12:14Z</time>
      </trkpt>
      <trkpt lat="50.58854" lon="3.08642">
        <ele>18.2</ele>
        <time>2018-06-24T15:12:18Z</time>
      </trkpt>
      <trkpt lat="50.58848" lon="3.0862">
        <ele>18.6</ele>
        <time>2018-06-24T15:12:22Z</time>
      </trkpt>
      <trkpt lat="50.58836" lon="3.08603">
        <ele>17.8</ele>
        <time>2018-06-24T15:12:26Z</time>
      </trkpt>
      <trkpt lat="50.58822" lon="3.08587">
        <ele>18</ele>
        <time>2018-06-24T15:12:30Z</time>
      </trkpt>
      <trkpt lat="50.58809" lon="3.08573">
        <ele>18.2</ele>
        <time>2018-06-24T15:12:34Z</time>
      </trkpt>
      <trkpt lat="50.58797" lon="3.08557">
        <ele>18.2</ele>
        <time>2018-06-24T15:12:38Z</time>
      </trkpt>
      <trkpt lat="50.58783" lon="3.0854">
        <ele>18.6</ele>
        <time>2018-06-24T15:12:42Z</time>
      </trkpt>
      <trkpt lat="50.58769" lon="3.08521">
        <ele>18.4</ele>
        <time>2018-06-24T15:12:46Z</time>
      </trkpt>
      <trkpt lat="50.58756" lon="3.08502">
        <ele>19</ele>
        <time>2018-06-24T15:12:50Z</time>
      </trkpt>
      <trkpt lat="50.58744" lon="3.08483">
        <ele>19.2</ele>
        <time>2018-06-24T15:12:54Z</time>
      </trkpt>
      <trkpt lat="50.58732" lon="3.08465">
        <ele>19.4</ele>
        <time>2018-06-24T15:12:58Z</time>
      </trkpt>
      <trkpt lat="50.58721" lon="3.08445">
        <ele>19.2</ele>
        <time>2018-06-24T15:13:02Z</time>
      </trkpt>
      <trkpt lat="50.58711" lon="3.08424">
        <ele>19.4</ele>
        <time>2018-06-24T15:13:06Z</time>
      </trkpt>
      <trkpt lat="50.587" lon="3.08403">
        <ele>19.6</ele>
        <time>2018-06-24T15:13:10Z</time>
      </trkpt>
      <trkpt lat="50.58689" lon="3.08381">
        <ele>19.8</ele>
        <time>2018-06-24T15:13:14Z</time>
      </trkpt>
      <trkpt lat="50.58678" lon="3.08356">
        <ele>19.8</ele>
        <time>2018-06-24T15:13:18Z</time>
      </trkpt>
      <trkpt lat="50.58667" lon="3.08331">
        <ele>19.8</ele>
        <time>2018-06-24T15:13:22Z</time>
      </trkpt>
      <trkpt lat="50.58654" lon="3.08306">
        <ele>19.6</ele>
        <time>2018-06-24T15:13:26Z</time>
      </trkpt>
      <trkpt lat="50.58641" lon="3.08279">
        <ele>19.4</ele>
        <time>2018-06-24T15:13:30Z</time>
      </trkpt>
      <trkpt lat="50.58628" lon="3.0825">
        <ele>19.2</ele>
        <time>2018-06-24T15:13:34Z</time>
      </trkpt>
      <trkpt lat="50.58616" lon="3.08219">
        <ele>19</ele>
        <time>2018-06-24T15:13:38Z</time>
      </trkpt>
      <trkpt lat="50.58605" lon="3.08191">
        <ele>19</ele>
        <time>2018-06-24T15:13:42Z</time>
      </trkpt>
      <trkpt lat="50.58594" lon="3.08163">
        <ele>18.8</ele>
        <time>2018-06-24T15:13:46Z</time>
      </trkpt>
      <trkpt lat="50.58584" lon="3.08137">
        <ele>19.4</ele>
        <time>2018-06-24T15:13:50Z</time>
      </trkpt>
      <trkpt lat="50.5858" lon="3.08112">
        <ele>19.4</ele>
        <time>2018-06-24T15:13:54Z</time>
      </trkpt>
      <trkpt lat="50.58591" lon="3.0809">
        <ele>19</ele>
        <time>2018-06-24T15:13:58Z</time>
      </trkpt>
      <trkpt lat="50.58609" lon="3.0807">
        <ele>18.8</ele>
        <time>2018-06-24T15:14:02Z</time>
      </trkpt>
      <trkpt lat="50.58625" lon="3.0805">
        <ele>18.2</ele>
        <time>2018-06-24T15:14:06Z</time>
      </trkpt>
      <trkpt lat="50.58643" lon="3.08028">
        <ele>18.2</ele>
        <time>2018-06-24T15:14:10Z</time>
      </trkpt>
      <trkpt lat="50.58658" lon="3.08006">
        <ele>18.4</ele>
        <time>2018-06-24T15:14:14Z</time>
      </trkpt>
      <trkpt lat="50.58672" lon="3.07981">
        <ele>18.2</ele>
        <time>2018-06-24T15:14:18Z</time>
      </trkpt>
      <trkpt lat="50.58687" lon="3.07954">
        <ele>17.6</ele>
        <time>2018-06-24T15:14:22Z</time>
      </trkpt>
      <trkpt lat="50.58701" lon="3.07929">
        <ele>17.4</ele>
        <time>2018-06-24T15:14:26Z</time>
      </trkpt>
      <trkpt lat="50.58714" lon="3.07901">
        <ele>17</ele>
        <time>2018-06-24T15:14:30Z</time>
      </trkpt>
      <trkpt lat="50.58727" lon="3.07874">
        <ele>17.2</ele>
        <time>2018-06-24T15:14:34Z</time>
      </trkpt>
      <trkpt lat="50.5874" lon="3.07847">
        <ele>16.8</ele>
        <time>2018-06-24T15:14:38Z</time>
      </trkpt>
      <trkpt lat="50.58753" lon="3.07824">
        <ele>16.4</ele>
        <time>2018-06-24T15:14:42Z</time>
      </trkpt>
      <trkpt lat="50.58761" lon="3.07794">
        <ele>15.6</ele>
        <time>2018-06-24T15:14:46Z</time>
      </trkpt>
      <trkpt lat="50.5877" lon="3.07763">
        <ele>14.6</ele>
        <time>2018-06-24T15:14:50Z</time>
      </trkpt>
      <trkpt lat="50.58777" lon="3.07735">
        <ele>15.6</ele>
        <time>2018-06-24T15:14:54Z</time>
      </trkpt>
      <trkpt lat="50.58785" lon="3.07709">
        <ele>15.6</ele>
        <time>2018-06-24T15:14:58Z</time>
      </trkpt>
      <trkpt lat="50.58793" lon="3.07688">
        <ele>15</ele>
        <time>2018-06-24T15:15:02Z</time>
      </trkpt>
      <trkpt lat="50.58802" lon="3.07676">
        <ele>14.4</ele>
        <time>2018-06-24T15:15:06Z</time>
      </trkpt>
      <trkpt lat="50.58815" lon="3.07679">
        <ele>14.4</ele>
        <time>2018-06-24T15:15:10Z</time>
      </trkpt>
      <trkpt lat="50.58824" lon="3.07661">
        <ele>14.6</ele>
        <time>2018-06-24T15:15:14Z</time>
      </trkpt>
      <trkpt lat="50.58823" lon="3.0764">
        <ele>15.4</ele>
        <time>2018-06-24T15:15:18Z</time>
      </trkpt>
      <trkpt lat="50.58819" lon="3.07616">
        <ele>15.6</ele>
        <time>2018-06-24T15:15:22Z</time>
      </trkpt>
      <trkpt lat="50.58826" lon="3.07595">
        <ele>17.4</ele>
        <time>2018-06-24T15:15:26Z</time>
      </trkpt>
      <trkpt lat="50.58832" lon="3.0758">
        <ele>15.4</ele>
        <time>2018-06-24T15:15:30Z</time>
      </trkpt>
      <trkpt lat="50.58843" lon="3.07564">
        <ele>16.2</ele>
        <time>2018-06-24T15:15:34Z</time>
      </trkpt>
      <trkpt lat="50.58856" lon="3.07543">
        <ele>17.2</ele>
        <time>2018-06-24T15:15:38Z</time>
      </trkpt>
      <trkpt lat="50.58866" lon="3.07524">
        <ele>17</ele>
        <time>2018-06-24T15:15:42Z</time>
      </trkpt>
      <trkpt lat="50.58877" lon="3.07506">
        <ele>17.6</ele>
        <time>2018-06-24T15:15:46Z</time>
      </trkpt>
      <trkpt lat="50.58877" lon="3.0749">
        <ele>16.4</ele>
        <time>2018-06-24T15:15:50Z</time>
      </trkpt>
      <trkpt lat="50.58869" lon="3.07471">
        <ele>16.6</ele>
        <time>2018-06-24T15:15:54Z</time>
      </trkpt>
      <trkpt lat="50.58859" lon="3.0745">
        <ele>17</ele>
        <time>2018-06-24T15:15:58Z</time>
      </trkpt>
      <trkpt lat="50.58848" lon="3.07429">
        <ele>16.6</ele>
        <time>2018-06-24T15:16:02Z</time>
      </trkpt>
      <trkpt lat="50.58837" lon="3.07407">
        <ele>17.2</ele>
        <time>2018-06-24T15:16:06Z</time>
      </trkpt>
      <trkpt lat="50.58827" lon="3.07388">
        <ele>17.2</ele>
        <time>2018-06-24T15:16:10Z</time>
      </trkpt>
      <trkpt lat="50.58814" lon="3.07365">
        <ele>17.6</ele>
        <time>2018-06-24T15:16:14Z</time>
      </trkpt>
      <trkpt lat="50.58802" lon="3.0734">
        <ele>17.2</ele>
        <time>2018-06-24T15:16:18Z</time>
      </trkpt>
      <trkpt lat="50.5879" lon="3.07317">
        <ele>16.4</ele>
        <time>2018-06-24T15:16:22Z</time>
      </trkpt>
      <trkpt lat="50.58779" lon="3.07294">
        <ele>16.8</ele>
        <time>2018-06-24T15:16:26Z</time>
      </trkpt>
      <trkpt lat="50.58769" lon="3.07274">
        <ele>16.6</ele>
        <time>2018-06-24T15:16:30Z</time>
      </trkpt>
      <trkpt lat="50.58759" lon="3.07256">
        <ele>16.4</ele>
        <time>2018-06-24T15:16:34Z</time>
      </trkpt>
      <trkpt lat="50.5875" lon="3.0724">
        <ele>16.4</ele>
        <time>2018-06-24T15:16:38Z</time>
      </trkpt>
      <trkpt lat="50.58743" lon="3.07237">
        <ele>16.4</ele>
        <time>2018-06-24T15:16:42Z</time>
      </trkpt>
      <trkpt lat="50.58743" lon="3.07237">
        <ele>16</ele>
        <time>2018-06-24T15:16:46Z</time>
      </trkpt>
      <trkpt lat="50.58743" lon="3.07237">
        <ele>16.2</ele>
        <time>2018-06-24T15:16:50Z</time>
      </trkpt>
      <trkpt lat="50.58743" lon="3.07237">
        <ele>16</ele>
        <time>2018-06-24T15:16:54Z</time>
      </trkpt>
      <trkpt lat="50.58743" lon="3.07237">
        <ele>15.8</ele>
        <time>2018-06-24T15:16:58Z</time>
      </trkpt>
      <trkpt lat="50.58743" lon="3.07237">
        <ele>15.8</ele>
        <time>2018-06-24T15:17:02Z</time>
      </trkpt>
      <trkpt lat="50.58743" lon="3.07237">
        <ele>15.4</ele>
        <time>2018-06-24T15:17:06Z</time>
      </trkpt>
      <trkpt lat="50.58743" lon="3.07237">
        <ele>15.6</ele>
        <time>2018-06-24T15:17:10Z</time>
      </trkpt>
      <trkpt lat="50.58743" lon="3.07237">
        <ele>16</ele>
        <time>2018-06-24T15:17:14Z</time>
      </trkpt>
      <trkpt lat="50.58743" lon="3.07237">
        <ele>16</ele>
        <time>2018-06-24T15:17:18Z</time>
      </trkpt>
      <trkpt lat="50.58743" lon="3.07237">
        <ele>15.8</ele>
        <time>2018-06-24T15:17:22Z</time>
      </trkpt>
      <trkpt lat="50.58743" lon="3.07237">
        <ele>15.6</ele>
        <time>2018-06-24T15:17:26Z</time>
      </trkpt>
      <trkpt lat="50.58743" lon="3.07237">
        <ele>15.6</ele>
        <time>2018-06-24T15:17:30Z</time>
      </trkpt>
      <trkpt lat="50.58743" lon="3.07237">
        <ele>15.8</ele>
        <time>2018-06-24T15:17:34Z</time>
      </trkpt>
      <trkpt lat="50.58743" lon="3.07237">
        <ele>15.8</ele>
        <time>2018-06-24T15:17:38Z</time>
      </trkpt>
      <trkpt lat="50.58743" lon="3.07237">
        <ele>16.2</ele>
        <time>2018-06-24T15:17:42Z</time>
      </trkpt>
      <trkpt lat="50.58743" lon="3.07237">
        <ele>15.8</ele>
        <time>2018-06-24T15:17:46Z</time>
      </trkpt>
      <trkpt lat="50.58743" lon="3.07237">
        <ele>15.6</ele>
        <time>2018-06-24T15:17:50Z</time>
      </trkpt>
      <trkpt lat="50.58743" lon="3.07237">
        <ele>16</ele>
        <time>2018-06-24T15:17:54Z</time>
      </trkpt>
      <trkpt lat="50.58743" lon="3.07237">
        <ele>16</ele>
        <time>2018-06-24T15:17:58Z</time>
      </trkpt>
      <trkpt lat="50.58743" lon="3.07237">
        <ele>15.8</ele>
        <time>2018-06-24T15:18:02Z</time>
      </trkpt>
      <trkpt lat="50.58743" lon="3.07237">
        <ele>15.6</ele>
        <time>2018-06-24T15:18:06Z</time>
      </trkpt>
      <trkpt lat="50.58743" lon="3.07237">
        <ele>16.2</ele>
        <time>2018-06-24T15:18:10Z</time>
      </trkpt>
      <trkpt lat="50.58743" lon="3.07237">
        <ele>16.2</ele>
        <time>2018-06-24T15:18:14Z</time>
      </trkpt>
      <trkpt lat="50.58743" lon="3.07237">
        <ele>16.2</ele>
        <time>2018-06-24T15:18:18Z</time>
      </trkpt>
      <trkpt lat="50.58743" lon="3.07237">
        <ele>16.2</ele>
        <time>2018-06-24T15:18:22Z</time>
      </trkpt>
      <trkpt lat="50.58743" lon="3.07237">
        <ele>16</ele>
        <time>2018-06-24T15:18:26Z</time>
      </trkpt>
      <trkpt lat="50.58743" lon="3.07237">
        <ele>16</ele>
        <time>2018-06-24T15:18:30Z</time>
      </trkpt>
      <trkpt lat="50.58743" lon="3.07237">
        <ele>16.4</ele>
        <time>2018-06-24T15:18:34Z</time>
      </trkpt>
      <trkpt lat="50.58743" lon="3.07237">
        <ele>16</ele>
        <time>2018-06-24T15:18:38Z</time>
      </trkpt>
      <trkpt lat="50.58743" lon="3.07237">
        <ele>16.2</ele>
        <time>2018-06-24T15:18:42Z</time>
      </trkpt>
      <trkpt lat="50.58743" lon="3.07237">
        <ele>15.8</ele>
        <time>2018-06-24T15:18:46Z</time>
      </trkpt>
      <trkpt lat="50.58743" lon="3.07237">
        <ele>15.8</ele>
        <time>2018-06-24T15:18:50Z</time>
      </trkpt>
      <trkpt lat="50.58743" lon="3.07237">
        <ele>15.8</ele>
        <time>2018-06-24T15:18:54Z</time>
      </trkpt>
      <trkpt lat="50.58743" lon="3.07237">
        <ele>16.2</ele>
        <time>2018-06-24T15:18:58Z</time>
      </trkpt>
      <trkpt lat="50.58743" lon="3.07237">
        <ele>15.8</ele>
        <time>2018-06-24T15:19:02Z</time>
      </trkpt>
      <trkpt lat="50.58743" lon="3.07237">
        <ele>15.6</ele>
        <time>2018-06-24T15:19:06Z</time>
      </trkpt>
      <trkpt lat="50.58743" lon="3.07237">
        <ele>16</ele>
        <time>2018-06-24T15:19:10Z</time>
      </trkpt>
      <trkpt lat="50.58743" lon="3.07237">
        <ele>16</ele>
        <time>2018-06-24T15:19:14Z</time>
      </trkpt>
      <trkpt lat="50.58743" lon="3.07237">
        <ele>15.8</ele>
        <time>2018-06-24T15:19:18Z</time>
      </trkpt>
      <trkpt lat="50.58743" lon="3.07237">
        <ele>15.8</ele>
        <time>2018-06-24T15:19:22Z</time>
      </trkpt>
      <trkpt lat="50.58743" lon="3.07237">
        <ele>16.2</ele>
        <time>2018-06-24T15:19:26Z</time>
      </trkpt>
      <trkpt lat="50.58743" lon="3.07237">
        <ele>16.2</ele>
        <time>2018-06-24T15:19:30Z</time>
      </trkpt>
      <trkpt lat="50.58743" lon="3.07237">
        <ele>16.4</ele>
        <time>2018-06-24T15:19:34Z</time>
      </trkpt>
      <trkpt lat="50.58741" lon="3.07238">
        <ele>16.4</ele>
        <time>2018-06-24T15:19:38Z</time>
      </trkpt>
      <trkpt lat="50.58741" lon="3.07235">
        <ele>16.2</ele>
        <time>2018-06-24T15:19:42Z</time>
      </trkpt>
      <trkpt lat="50.58741" lon="3.07235">
        <ele>16.2</ele>
        <time>2018-06-24T15:19:46Z</time>
      </trkpt>
      <trkpt lat="50.5874" lon="3.07232">
        <ele>16.4</ele>
        <time>2018-06-24T15:19:50Z</time>
      </trkpt>
      <trkpt lat="50.58738" lon="3.07227">
        <ele>16</ele>
        <time>2018-06-24T15:19:54Z</time>
      </trkpt>
      <trkpt lat="50.58734" lon="3.07221">
        <ele>16.2</ele>
        <time>2018-06-24T15:19:58Z</time>
      </trkpt>
      <trkpt lat="50.5873" lon="3.07213">
        <ele>16</ele>
        <time>2018-06-24T15:20:02Z</time>
      </trkpt>
      <trkpt lat="50.58723" lon="3.07212">
        <ele>15.4</ele>
        <time>2018-06-24T15:20:06Z</time>
      </trkpt>
      <trkpt lat="50.58716" lon="3.07213">
        <ele>15.6</ele>
        <time>2018-06-24T15:20:10Z</time>
      </trkpt>
      <trkpt lat="50.5871" lon="3.07219">
        <ele>15.6</ele>
        <time>2018-06-24T15:20:14Z</time>
      </trkpt>
      <trkpt lat="50.58703" lon="3.07225">
        <ele>15.4</ele>
        <time>2018-06-24T15:20:18Z</time>
      </trkpt>
      <trkpt lat="50.58695" lon="3.07226">
        <ele>15.4</ele>
        <time>2018-06-24T15:20:22Z</time>
      </trkpt>
      <trkpt lat="50.58695" lon="3.07226">
        <ele>15.6</ele>
        <time>2018-06-24T15:20:26Z</time>
      </trkpt>
      <trkpt lat="50.58695" lon="3.07226">
        <ele>15.8</ele>
        <time>2018-06-24T15:20:30Z</time>
      </trkpt>
      <trkpt lat="50.58695" lon="3.07226">
        <ele>15.6</ele>
        <time>2018-06-24T15:20:34Z</time>
      </trkpt>
      <trkpt lat="50.58695" lon="3.07226">
        <ele>15.6</ele>
        <time>2018-06-24T15:20:38Z</time>
      </trkpt>
      <trkpt lat="50.58692" lon="3.07227">
        <ele>15.4</ele>
        <time>2018-06-24T15:20:42Z</time>
      </trkpt>
      <trkpt lat="50.58692" lon="3.07227">
        <ele>15.6</ele>
        <time>2018-06-24T15:20:46Z</time>
      </trkpt>
      <trkpt lat="50.58692" lon="3.07227">
        <ele>15.6</ele>
        <time>2018-06-24T15:20:50Z</time>
      </trkpt>
      <trkpt lat="50.58692" lon="3.07227">
        <ele>16</ele>
        <time>2018-06-24T15:20:54Z</time>
      </trkpt>
      <trkpt lat="50.58687" lon="3.07229">
        <ele>16.2</ele>
        <time>2018-06-24T15:20:58Z</time>
      </trkpt>
      <trkpt lat="50.58686" lon="3.07229">
        <ele>16.2</ele>
        <time>2018-06-24T15:21:02Z</time>
      </trkpt>
      <trkpt lat="50.58686" lon="3.07229">
        <ele>16.2</ele>
        <time>2018-06-24T15:21:06Z</time>
      </trkpt>
      <trkpt lat="50.58683" lon="3.07231">
        <ele>16.2</ele>
        <time>2018-06-24T15:21:10Z</time>
      </trkpt>
      <trkpt lat="50.58681" lon="3.07233">
        <ele>16.4</ele>
        <time>2018-06-24T15:21:14Z</time>
      </trkpt>
      <trkpt lat="50.58677" lon="3.07233">
        <ele>16.2</ele>
        <time>2018-06-24T15:21:18Z</time>
      </trkpt>
      <trkpt lat="50.58677" lon="3.07233">
        <ele>16</ele>
        <time>2018-06-24T15:21:22Z</time>
      </trkpt>
      <trkpt lat="50.58677" lon="3.07233">
        <ele>16</ele>
        <time>2018-06-24T15:21:26Z</time>
      </trkpt>
      <trkpt lat="50.58677" lon="3.07233">
        <ele>15.8</ele>
        <time>2018-06-24T15:21:30Z</time>
      </trkpt>
      <trkpt lat="50.58677" lon="3.07233">
        <ele>16.4</ele>
        <time>2018-06-24T15:21:34Z</time>
      </trkpt>
      <trkpt lat="50.58677" lon="3.07233">
        <ele>16.2</ele>
        <time>2018-06-24T15:21:38Z</time>
      </trkpt>
      <trkpt lat="50.58677" lon="3.07233">
        <ele>16.2</ele>
        <time>2018-06-24T15:21:42Z</time>
      </trkpt>
      <trkpt lat="50.58677" lon="3.07233">
        <ele>16.2</ele>
        <time>2018-06-24T15:21:46Z</time>
      </trkpt>
      <trkpt lat="50.58677" lon="3.07233">
        <ele>15.8</ele>
        <time>2018-06-24T15:21:50Z</time>
      </trkpt>
      <trkpt lat="50.58677" lon="3.07233">
        <ele>16</ele>
        <time>2018-06-24T15:21:54Z</time>
      </trkpt>
      <trkpt lat="50.58677" lon="3.07233">
        <ele>16</ele>
        <time>2018-06-24T15:21:58Z</time>
      </trkpt>
      <trkpt lat="50.58677" lon="3.07233">
        <ele>15.8</ele>
        <time>2018-06-24T15:22:02Z</time>
      </trkpt>
      <trkpt lat="50.58677" lon="3.07233">
        <ele>15.6</ele>
        <time>2018-06-24T15:22:06Z</time>
      </trkpt>
      <trkpt lat="50.58677" lon="3.07233">
        <ele>16.2</ele>
        <time>2018-06-24T15:22:10Z</time>
      </trkpt>
      <trkpt lat="50.58677" lon="3.07233">
        <ele>16.2</ele>
        <time>2018-06-24T15:22:14Z</time>
      </trkpt>
      <trkpt lat="50.58677" lon="3.07233">
        <ele>15.8</ele>
        <time>2018-06-24T15:22:18Z</time>
      </trkpt>
      <trkpt lat="50.58677" lon="3.07233">
        <ele>15.8</ele>
        <time>2018-06-24T15:22:22Z</time>
      </trkpt>
      <trkpt lat="50.58677" lon="3.07233">
        <ele>16</ele>
        <time>2018-06-24T15:22:26Z</time>
      </trkpt>
      <trkpt lat="50.58677" lon="3.07233">
        <ele>16</ele>
        <time>2018-06-24T15:22:30Z</time>
      </trkpt>
      <trkpt lat="50.58677" lon="3.07233">
        <ele>16</ele>
        <time>2018-06-24T15:22:34Z</time>
      </trkpt>
      <trkpt lat="50.58677" lon="3.07233">
        <ele>16</ele>
        <time>2018-06-24T15:22:38Z</time>
      </trkpt>
      <trkpt lat="50.58677" lon="3.07233">
        <ele>16</ele>
        <time>2018-06-24T15:22:42Z</time>
      </trkpt>
      <trkpt lat="50.58677" lon="3.07233">
        <ele>16.2</ele>
        <time>2018-06-24T15:22:46Z</time>
      </trkpt>
      <trkpt lat="50.58677" lon="3.07233">
        <ele>16.2</ele>
        <time>2018-06-24T15:22:50Z</time>
      </trkpt>
      <trkpt lat="50.58677" lon="3.07233">
        <ele>15.8</ele>
        <time>2018-06-24T15:22:54Z</time>
      </trkpt>
      <trkpt lat="50.58677" lon="3.07233">
        <ele>15.8</ele>
        <time>2018-06-24T15:22:58Z</time>
      </trkpt>
      <trkpt lat="50.58677" lon="3.07233">
        <ele>16.2</ele>
        <time>2018-06-24T15:23:02Z</time>
      </trkpt>
      <trkpt lat="50.58677" lon="3.07233">
        <ele>16.4</ele>
        <time>2018-06-24T15:23:06Z</time>
      </trkpt>
      <trkpt lat="50.58677" lon="3.07233">
        <ele>16.2</ele>
        <time>2018-06-24T15:23:10Z</time>
      </trkpt>
      <trkpt lat="50.58677" lon="3.07233">
        <ele>16</ele>
        <time>2018-06-24T15:23:14Z</time>
      </trkpt>
      <trkpt lat="50.58677" lon="3.07233">
        <ele>16</ele>
        <time>2018-06-24T15:23:18Z</time>
      </trkpt>
      <trkpt lat="50.58677" lon="3.07233">
        <ele>16.2</ele>
        <time>2018-06-24T15:23:22Z</time>
      </trkpt>
      <trkpt lat="50.58677" lon="3.07233">
        <ele>16.2</ele>
        <time>2018-06-24T15:23:26Z</time>
      </trkpt>
      <trkpt lat="50.58677" lon="3.07233">
        <ele>16.2</ele>
        <time>2018-06-24T15:23:30Z</time>
      </trkpt>
      <trkpt lat="50.58677" lon="3.07233">
        <ele>16</ele>
        <time>2018-06-24T15:23:34Z</time>
      </trkpt>
      <trkpt lat="50.58677" lon="3.07233">
        <ele>16.2</ele>
        <time>2018-06-24T15:23:38Z</time>
      </trkpt>
      <trkpt lat="50.58677" lon="3.07233">
        <ele>16.2</ele>
        <time>2018-06-24T15:23:42Z</time>
      </trkpt>
      <trkpt lat="50.58677" lon="3.07233">
        <ele>16.2</ele>
        <time>2018-06-24T15:23:46Z</time>
      </trkpt>
      <trkpt lat="50.58677" lon="3.07233">
        <ele>16.4</ele>
        <time>2018-06-24T15:23:50Z</time>
      </trkpt>
      <trkpt lat="50.58677" lon="3.07233">
        <ele>16.4</ele>
        <time>2018-06-24T15:23:54Z</time>
      </trkpt>
      <trkpt lat="50.58677" lon="3.07233">
        <ele>16.2</ele>
        <time>2018-06-24T15:23:58Z</time>
      </trkpt>
      <trkpt lat="50.58677" lon="3.07233">
        <ele>16.2</ele>
        <time>2018-06-24T15:24:02Z</time>
      </trkpt>
      <trkpt lat="50.58677" lon="3.07233">
        <ele>16</ele>
        <time>2018-06-24T15:24:06Z</time>
      </trkpt>
      <trkpt lat="50.58677" lon="3.07233">
        <ele>15.8</ele>
        <time>2018-06-24T15:24:10Z</time>
      </trkpt>
      <trkpt lat="50.58677" lon="3.07233">
        <ele>16.4</ele>
        <time>2018-06-24T15:24:14Z</time>
      </trkpt>
      <trkpt lat="50.58677" lon="3.07233">
        <ele>16.8</ele>
        <time>2018-06-24T15:24:18Z</time>
      </trkpt>
      <trkpt lat="50.58677" lon="3.07233">
        <ele>16.4</ele>
        <time>2018-06-24T15:24:22Z</time>
      </trkpt>
      <trkpt lat="50.58677" lon="3.07233">
        <ele>15.8</ele>
        <time>2018-06-24T15:24:26Z</time>
      </trkpt>
      <trkpt lat="50.58677" lon="3.07233">
        <ele>16.2</ele>
        <time>2018-06-24T15:24:30Z</time>
      </trkpt>
      <trkpt lat="50.58677" lon="3.07233">
        <ele>16.2</ele>
        <time>2018-06-24T15:24:34Z</time>
      </trkpt>
      <trkpt lat="50.58677" lon="3.07233">
        <ele>16</ele>
        <time>2018-06-24T15:24:38Z</time>
      </trkpt>
      <trkpt lat="50.58677" lon="3.07233">
        <ele>16.6</ele>
        <time>2018-06-24T15:24:42Z</time>
      </trkpt>
      <trkpt lat="50.58677" lon="3.07233">
        <ele>16</ele>
        <time>2018-06-24T15:24:46Z</time>
      </trkpt>
      <trkpt lat="50.58677" lon="3.07233">
        <ele>16</ele>
        <time>2018-06-24T15:24:50Z</time>
      </trkpt>
      <trkpt lat="50.58677" lon="3.07233">
        <ele>15.8</ele>
        <time>2018-06-24T15:24:54Z</time>
      </trkpt>
      <trkpt lat="50.58677" lon="3.07233">
        <ele>15.8</ele>
        <time>2018-06-24T15:24:58Z</time>
      </trkpt>
      <trkpt lat="50.58677" lon="3.07233">
        <ele>16</ele>
        <time>2018-06-24T15:25:02Z</time>
      </trkpt>
      <trkpt lat="50.58677" lon="3.07233">
        <ele>16</ele>
        <time>2018-06-24T15:25:06Z</time>
      </trkpt>
      <trkpt lat="50.58677" lon="3.07233">
        <ele>16.2</ele>
        <time>2018-06-24T15:25:10Z</time>
      </trkpt>
      <trkpt lat="50.58677" lon="3.07233">
        <ele>16.2</ele>
        <time>2018-06-24T15:25:14Z</time>
      </trkpt>
      <trkpt lat="50.58677" lon="3.07233">
        <ele>16.4</ele>
        <time>2018-06-24T15:25:18Z</time>
      </trkpt>
      <trkpt lat="50.58677" lon="3.07233">
        <ele>16.2</ele>
        <time>2018-06-24T15:25:22Z</time>
      </trkpt>
      <trkpt lat="50.58677" lon="3.07233">
        <ele>16</ele>
        <time>2018-06-24T15:25:26Z</time>
      </trkpt>
      <trkpt lat="50.58677" lon="3.07233">
        <ele>15.8</ele>
        <time>2018-06-24T15:25:30Z</time>
      </trkpt>
      <trkpt lat="50.58677" lon="3.07233">
        <ele>16</ele>
        <time>2018-06-24T15:25:34Z</time>
      </trkpt>
      <trkpt lat="50.58677" lon="3.07233">
        <ele>16.2</ele>
        <time>2018-06-24T15:25:38Z</time>
      </trkpt>
      <trkpt lat="50.58677" lon="3.07233">
        <ele>16.2</ele>
        <time>2018-06-24T15:25:42Z</time>
      </trkpt>
      <trkpt lat="50.58677" lon="3.07233">
        <ele>16.2</ele>
        <time>2018-06-24T15:25:46Z</time>
      </trkpt>
      <trkpt lat="50.58677" lon="3.07233">
        <ele>16.2</ele>
        <time>2018-06-24T15:25:50Z</time>
      </trkpt>
      <trkpt lat="50.58677" lon="3.07233">
        <ele>15.6</ele>
        <time>2018-06-24T15:25:54Z</time>
      </trkpt>
      <trkpt lat="50.58677" lon="3.07233">
        <ele>16</ele>
        <time>2018-06-24T15:25:58Z</time>
      </trkpt>
      <trkpt lat="50.58677" lon="3.07233">
        <ele>15.6</ele>
        <time>2018-06-24T15:26:02Z</time>
      </trkpt>
      <trkpt lat="50.58677" lon="3.07233">
        <ele>15.8</ele>
        <time>2018-06-24T15:26:06Z</time>
      </trkpt>
      <trkpt lat="50.58677" lon="3.07233">
        <ele>16</ele>
        <time>2018-06-24T15:26:10Z</time>
      </trkpt>
      <trkpt lat="50.58677" lon="3.07233">
        <ele>16</ele>
        <time>2018-06-24T15:26:14Z</time>
      </trkpt>
      <trkpt lat="50.58677" lon="3.07233">
        <ele>16</ele>
        <time>2018-06-24T15:26:18Z</time>
      </trkpt>
      <trkpt lat="50.58677" lon="3.07233">
        <ele>16.2</ele>
        <time>2018-06-24T15:26:22Z</time>
      </trkpt>
      <trkpt lat="50.58677" lon="3.07233">
        <ele>16.4</ele>
        <time>2018-06-24T15:26:26Z</time>
      </trkpt>
      <trkpt lat="50.58677" lon="3.07233">
        <ele>16.2</ele>
        <time>2018-06-24T15:26:30Z</time>
      </trkpt>
      <trkpt lat="50.58677" lon="3.07233">
        <ele>16</ele>
        <time>2018-06-24T15:26:34Z</time>
      </trkpt>
      <trkpt lat="50.58677" lon="3.07233">
        <ele>15.8</ele>
        <time>2018-06-24T15:26:38Z</time>
      </trkpt>
      <trkpt lat="50.58677" lon="3.07233">
        <ele>16</ele>
        <time>2018-06-24T15:26:42Z</time>
      </trkpt>
      <trkpt lat="50.58677" lon="3.07233">
        <ele>16</ele>
        <time>2018-06-24T15:26:46Z</time>
      </trkpt>
      <trkpt lat="50.58677" lon="3.07233">
        <ele>15.6</ele>
        <time>2018-06-24T15:26:50Z</time>
      </trkpt>
      <trkpt lat="50.58677" lon="3.07233">
        <ele>15.6</ele>
        <time>2018-06-24T15:26:54Z</time>
      </trkpt>
      <trkpt lat="50.58677" lon="3.07233">
        <ele>15.6</ele>
        <time>2018-06-24T15:26:58Z</time>
      </trkpt>
      <trkpt lat="50.58677" lon="3.07233">
        <ele>15.4</ele>
        <time>2018-06-24T15:27:02Z</time>
      </trkpt>
      <trkpt lat="50.58677" lon="3.07233">
        <ele>15.8</ele>
        <time>2018-06-24T15:27:06Z</time>
      </trkpt>
      <trkpt lat="50.58677" lon="3.07233">
        <ele>16</ele>
        <time>2018-06-24T15:27:10Z</time>
      </trkpt>
      <trkpt lat="50.58677" lon="3.07233">
        <ele>16.2</ele>
        <time>2018-06-24T15:27:14Z</time>
      </trkpt>
      <trkpt lat="50.58677" lon="3.07233">
        <ele>16</ele>
        <time>2018-06-24T15:27:18Z</time>
      </trkpt>
      <trkpt lat="50.58677" lon="3.07233">
        <ele>15.6</ele>
        <time>2018-06-24T15:27:22Z</time>
      </trkpt>
      <trkpt lat="50.58677" lon="3.07233">
        <ele>15.8</ele>
        <time>2018-06-24T15:27:26Z</time>
      </trkpt>
      <trkpt lat="50.58677" lon="3.07233">
        <ele>16.2</ele>
        <time>2018-06-24T15:27:30Z</time>
      </trkpt>
      <trkpt lat="50.58677" lon="3.07233">
        <ele>16</ele>
        <time>2018-06-24T15:27:34Z</time>
      </trkpt>
      <trkpt lat="50.58677" lon="3.07233">
        <ele>16</ele>
        <time>2018-06-24T15:27:38Z</time>
      </trkpt>
      <trkpt lat="50.58677" lon="3.07233">
        <ele>16.2</ele>
        <time>2018-06-24T15:27:42Z</time>
      </trkpt>
      <trkpt lat="50.58677" lon="3.07233">
        <ele>16</ele>
        <time>2018-06-24T15:27:46Z</time>
      </trkpt>
      <trkpt lat="50.58677" lon="3.07233">
        <ele>16.2</ele>
        <time>2018-06-24T15:27:50Z</time>
      </trkpt>
      <trkpt lat="50.58677" lon="3.07233">
        <ele>16.2</ele>
        <time>2018-06-24T15:27:54Z</time>
      </trkpt>
      <trkpt lat="50.58677" lon="3.07233">
        <ele>16</ele>
        <time>2018-06-24T15:27:58Z</time>
      </trkpt>
      <trkpt lat="50.58677" lon="3.07233">
        <ele>16.2</ele>
        <time>2018-06-24T15:28:02Z</time>
      </trkpt>
      <trkpt lat="50.58677" lon="3.07233">
        <ele>16.2</ele>
        <time>2018-06-24T15:28:06Z</time>
      </trkpt>
      <trkpt lat="50.58677" lon="3.07233">
        <ele>16</ele>
        <time>2018-06-24T15:28:10Z</time>
      </trkpt>
      <trkpt lat="50.58677" lon="3.07233">
        <ele>15.8</ele>
        <time>2018-06-24T15:28:14Z</time>
      </trkpt>
      <trkpt lat="50.58677" lon="3.07233">
        <ele>16.2</ele>
        <time>2018-06-24T15:28:18Z</time>
      </trkpt>
      <trkpt lat="50.58677" lon="3.07233">
        <ele>16.4</ele>
        <time>2018-06-24T15:28:22Z</time>
      </trkpt>
      <trkpt lat="50.58677" lon="3.07233">
        <ele>16.4</ele>
        <time>2018-06-24T15:28:26Z</time>
      </trkpt>
      <trkpt lat="50.58677" lon="3.07233">
        <ele>16.4</ele>
        <time>2018-06-24T15:28:30Z</time>
      </trkpt>
      <trkpt lat="50.58677" lon="3.07233">
        <ele>16.2</ele>
        <time>2018-06-24T15:28:34Z</time>
      </trkpt>
      <trkpt lat="50.58677" lon="3.07233">
        <ele>16.2</ele>
        <time>2018-06-24T15:28:38Z</time>
      </trkpt>
      <trkpt lat="50.58677" lon="3.07233">
        <ele>16.6</ele>
        <time>2018-06-24T15:28:42Z</time>
      </trkpt>
      <trkpt lat="50.58677" lon="3.07233">
        <ele>16.4</ele>
        <time>2018-06-24T15:28:46Z</time>
      </trkpt>
      <trkpt lat="50.58677" lon="3.07233">
        <ele>16.2</ele>
        <time>2018-06-24T15:28:50Z</time>
      </trkpt>
      <trkpt lat="50.58677" lon="3.07233">
        <ele>16.2</ele>
        <time>2018-06-24T15:28:54Z</time>
      </trkpt>
      <trkpt lat="50.58677" lon="3.07233">
        <ele>16.2</ele>
        <time>2018-06-24T15:28:58Z</time>
      </trkpt>
      <trkpt lat="50.58677" lon="3.07233">
        <ele>16.2</ele>
        <time>2018-06-24T15:29:02Z</time>
      </trkpt>
      <trkpt lat="50.58677" lon="3.07233">
        <ele>16.6</ele>
        <time>2018-06-24T15:29:06Z</time>
      </trkpt>
      <trkpt lat="50.58677" lon="3.07233">
        <ele>16.4</ele>
        <time>2018-06-24T15:29:10Z</time>
      </trkpt>
      <trkpt lat="50.58677" lon="3.07233">
        <ele>16.4</ele>
        <time>2018-06-24T15:29:14Z</time>
      </trkpt>
      <trkpt lat="50.58677" lon="3.07233">
        <ele>16.2</ele>
        <time>2018-06-24T15:29:18Z</time>
      </trkpt>
      <trkpt lat="50.58677" lon="3.07233">
        <ele>16.4</ele>
        <time>2018-06-24T15:29:22Z</time>
      </trkpt>
      <trkpt lat="50.58677" lon="3.07233">
        <ele>16.4</ele>
        <time>2018-06-24T15:29:26Z</time>
      </trkpt>
      <trkpt lat="50.58677" lon="3.07233">
        <ele>16.2</ele>
        <time>2018-06-24T15:29:30Z</time>
      </trkpt>
      <trkpt lat="50.58677" lon="3.07233">
        <ele>16.4</ele>
        <time>2018-06-24T15:29:34Z</time>
      </trkpt>
      <trkpt lat="50.58677" lon="3.07233">
        <ele>16.4</ele>
        <time>2018-06-24T15:29:38Z</time>
      </trkpt>
      <trkpt lat="50.58677" lon="3.07233">
        <ele>16.4</ele>
        <time>2018-06-24T15:29:42Z</time>
      </trkpt>
      <trkpt lat="50.58677" lon="3.07233">
        <ele>16.4</ele>
        <time>2018-06-24T15:29:46Z</time>
      </trkpt>
      <trkpt lat="50.58677" lon="3.07233">
        <ele>16.2</ele>
        <time>2018-06-24T15:29:50Z</time>
      </trkpt>
      <trkpt lat="50.58677" lon="3.07233">
        <ele>16.6</ele>
        <time>2018-06-24T15:29:54Z</time>
      </trkpt>
      <trkpt lat="50.58677" lon="3.07233">
        <ele>16.4</ele>
        <time>2018-06-24T15:29:58Z</time>
      </trkpt>
      <trkpt lat="50.58677" lon="3.07233">
        <ele>16.6</ele>
        <time>2018-06-24T15:30:02Z</time>
      </trkpt>
      <trkpt lat="50.58677" lon="3.07233">
        <ele>16.2</ele>
        <time>2018-06-24T15:30:06Z</time>
      </trkpt>
      <trkpt lat="50.58677" lon="3.07233">
        <ele>16.4</ele>
        <time>2018-06-24T15:30:10Z</time>
      </trkpt>
      <trkpt lat="50.58677" lon="3.07233">
        <ele>16.2</ele>
        <time>2018-06-24T15:30:14Z</time>
      </trkpt>
      <trkpt lat="50.58677" lon="3.07233">
        <ele>16.4</ele>
        <time>2018-06-24T15:30:18Z</time>
      </trkpt>
      <trkpt lat="50.58677" lon="3.07233">
        <ele>16.6</ele>
        <time>2018-06-24T15:30:22Z</time>
      </trkpt>
      <trkpt lat="50.58677" lon="3.07233">
        <ele>16.4</ele>
        <time>2018-06-24T15:30:26Z</time>
      </trkpt>
      <trkpt lat="50.58677" lon="3.07233">
        <ele>16.4</ele>
        <time>2018-06-24T15:30:30Z</time>
      </trkpt>
      <trkpt lat="50.58677" lon="3.07233">
        <ele>16.4</ele>
        <time>2018-06-24T15:30:34Z</time>
      </trkpt>
      <trkpt lat="50.58677" lon="3.07233">
        <ele>16.2</ele>
        <time>2018-06-24T15:30:38Z</time>
      </trkpt>
      <trkpt lat="50.58677" lon="3.07233">
        <ele>16.6</ele>
        <time>2018-06-24T15:30:42Z</time>
      </trkpt>
      <trkpt lat="50.58677" lon="3.07233">
        <ele>16.4</ele>
        <time>2018-06-24T15:30:46Z</time>
      </trkpt>
      <trkpt lat="50.58677" lon="3.07233">
        <ele>16.6</ele>
        <time>2018-06-24T15:30:50Z</time>
      </trkpt>
      <trkpt lat="50.58677" lon="3.07233">
        <ele>16.6</ele>
        <time>2018-06-24T15:30:54Z</time>
      </trkpt>
      <trkpt lat="50.58677" lon="3.07233">
        <ele>16.4</ele>
        <time>2018-06-24T15:30:58Z</time>
      </trkpt>
      <trkpt lat="50.58677" lon="3.07233">
        <ele>16.2</ele>
        <time>2018-06-24T15:31:02Z</time>
      </trkpt>
      <trkpt lat="50.58677" lon="3.07233">
        <ele>17</ele>
        <time>2018-06-24T15:31:06Z</time>
      </trkpt>
      <trkpt lat="50.58677" lon="3.07233">
        <ele>16.6</ele>
        <time>2018-06-24T15:31:10Z</time>
      </trkpt>
      <trkpt lat="50.58677" lon="3.07233">
        <ele>16.6</ele>
        <time>2018-06-24T15:31:14Z</time>
      </trkpt>
      <trkpt lat="50.58677" lon="3.07233">
        <ele>16.6</ele>
        <time>2018-06-24T15:31:18Z</time>
      </trkpt>
      <trkpt lat="50.58677" lon="3.07233">
        <ele>16.2</ele>
        <time>2018-06-24T15:31:22Z</time>
      </trkpt>
      <trkpt lat="50.58677" lon="3.07233">
        <ele>16.6</ele>
        <time>2018-06-24T15:31:26Z</time>
      </trkpt>
      <trkpt lat="50.58677" lon="3.07233">
        <ele>17</ele>
        <time>2018-06-24T15:31:30Z</time>
      </trkpt>
      <trkpt lat="50.58677" lon="3.07233">
        <ele>16.6</ele>
        <time>2018-06-24T15:31:34Z</time>
      </trkpt>
      <trkpt lat="50.58677" lon="3.07233">
        <ele>16.6</ele>
        <time>2018-06-24T15:31:38Z</time>
      </trkpt>
      <trkpt lat="50.58677" lon="3.07233">
        <ele>16.4</ele>
        <time>2018-06-24T15:31:42Z</time>
      </trkpt>
      <trkpt lat="50.58677" lon="3.07233">
        <ele>16.6</ele>
        <time>2018-06-24T15:31:46Z</time>
      </trkpt>
      <trkpt lat="50.58677" lon="3.07233">
        <ele>16.6</ele>
        <time>2018-06-24T15:31:50Z</time>
      </trkpt>
      <trkpt lat="50.58677" lon="3.07233">
        <ele>16.6</ele>
        <time>2018-06-24T15:31:54Z</time>
      </trkpt>
      <trkpt lat="50.58677" lon="3.07233">
        <ele>16.6</ele>
        <time>2018-06-24T15:31:58Z</time>
      </trkpt>
      <trkpt lat="50.58677" lon="3.07233">
        <ele>16.8</ele>
        <time>2018-06-24T15:32:02Z</time>
      </trkpt>
      <trkpt lat="50.58677" lon="3.07233">
        <ele>16.6</ele>
        <time>2018-06-24T15:32:06Z</time>
      </trkpt>
      <trkpt lat="50.58677" lon="3.07233">
        <ele>16.4</ele>
        <time>2018-06-24T15:32:10Z</time>
      </trkpt>
      <trkpt lat="50.58677" lon="3.07233">
        <ele>16.6</ele>
        <time>2018-06-24T15:32:14Z</time>
      </trkpt>
      <trkpt lat="50.58677" lon="3.07233">
        <ele>16.6</ele>
        <time>2018-06-24T15:32:18Z</time>
      </trkpt>
      <trkpt lat="50.58677" lon="3.07233">
        <ele>16.2</ele>
        <time>2018-06-24T15:32:22Z</time>
      </trkpt>
      <trkpt lat="50.58677" lon="3.07233">
        <ele>16.8</ele>
        <time>2018-06-24T15:32:26Z</time>
      </trkpt>
      <trkpt lat="50.58677" lon="3.07233">
        <ele>16.4</ele>
        <time>2018-06-24T15:32:30Z</time>
      </trkpt>
      <trkpt lat="50.58677" lon="3.07233">
        <ele>16.4</ele>
        <time>2018-06-24T15:32:34Z</time>
      </trkpt>
      <trkpt lat="50.58677" lon="3.07233">
        <ele>16.6</ele>
        <time>2018-06-24T15:32:38Z</time>
      </trkpt>
      <trkpt lat="50.58677" lon="3.07233">
        <ele>16.2</ele>
        <time>2018-06-24T15:32:42Z</time>
      </trkpt>
      <trkpt lat="50.58677" lon="3.07233">
        <ele>16.4</ele>
        <time>2018-06-24T15:32:46Z</time>
      </trkpt>
      <trkpt lat="50.58677" lon="3.07233">
        <ele>16.6</ele>
        <time>2018-06-24T15:32:50Z</time>
      </trkpt>
      <trkpt lat="50.58677" lon="3.07233">
        <ele>16.4</ele>
        <time>2018-06-24T15:32:54Z</time>
      </trkpt>
      <trkpt lat="50.58677" lon="3.07233">
        <ele>16</ele>
        <time>2018-06-24T15:32:58Z</time>
      </trkpt>
      <trkpt lat="50.58677" lon="3.07233">
        <ele>16.2</ele>
        <time>2018-06-24T15:33:02Z</time>
      </trkpt>
      <trkpt lat="50.58677" lon="3.07233">
        <ele>16.2</ele>
        <time>2018-06-24T15:33:06Z</time>
      </trkpt>
      <trkpt lat="50.58677" lon="3.07233">
        <ele>16.2</ele>
        <time>2018-06-24T15:33:10Z</time>
      </trkpt>
      <trkpt lat="50.58677" lon="3.07233">
        <ele>16.2</ele>
        <time>2018-06-24T15:33:14Z</time>
      </trkpt>
      <trkpt lat="50.58677" lon="3.07233">
        <ele>16.2</ele>
        <time>2018-06-24T15:33:18Z</time>
      </trkpt>
      <trkpt lat="50.58677" lon="3.07233">
        <ele>16.2</ele>
        <time>2018-06-24T15:33:22Z</time>
      </trkpt>
      <trkpt lat="50.58677" lon="3.07233">
        <ele>16.4</ele>
        <time>2018-06-24T15:33:26Z</time>
      </trkpt>
      <trkpt lat="50.58677" lon="3.07233">
        <ele>16.4</ele>
        <time>2018-06-24T15:33:30Z</time>
      </trkpt>
      <trkpt lat="50.58677" lon="3.07233">
        <ele>16.6</ele>
        <time>2018-06-24T15:33:34Z</time>
      </trkpt>
      <trkpt lat="50.58677" lon="3.07233">
        <ele>16.4</ele>
        <time>2018-06-24T15:33:38Z</time>
      </trkpt>
      <trkpt lat="50.58677" lon="3.07233">
        <ele>16.4</ele>
        <time>2018-06-24T15:33:42Z</time>
      </trkpt>
      <trkpt lat="50.58677" lon="3.07233">
        <ele>16.6</ele>
        <time>2018-06-24T15:33:46Z</time>
      </trkpt>
      <trkpt lat="50.58677" lon="3.07233">
        <ele>16.6</ele>
        <time>2018-06-24T15:33:50Z</time>
      </trkpt>
      <trkpt lat="50.58677" lon="3.07233">
        <ele>16.4</ele>
        <time>2018-06-24T15:33:54Z</time>
      </trkpt>
      <trkpt lat="50.58677" lon="3.07233">
        <ele>16.4</ele>
        <time>2018-06-24T15:33:58Z</time>
      </trkpt>
      <trkpt lat="50.58677" lon="3.07233">
        <ele>16.2</ele>
        <time>2018-06-24T15:34:02Z</time>
      </trkpt>
      <trkpt lat="50.58677" lon="3.07233">
        <ele>16.6</ele>
        <time>2018-06-24T15:34:06Z</time>
      </trkpt>
      <trkpt lat="50.58677" lon="3.07233">
        <ele>16.6</ele>
        <time>2018-06-24T15:34:10Z</time>
      </trkpt>
      <trkpt lat="50.58677" lon="3.07233">
        <ele>16</ele>
        <time>2018-06-24T15:34:14Z</time>
      </trkpt>
      <trkpt lat="50.58677" lon="3.07233">
        <ele>16.6</ele>
        <time>2018-06-24T15:34:18Z</time>
      </trkpt>
      <trkpt lat="50.58677" lon="3.07233">
        <ele>16.4</ele>
        <time>2018-06-24T15:34:22Z</time>
      </trkpt>
      <trkpt lat="50.58677" lon="3.07233">
        <ele>16.4</ele>
        <time>2018-06-24T15:34:26Z</time>
      </trkpt>
      <trkpt lat="50.58677" lon="3.07233">
        <ele>16.6</ele>
        <time>2018-06-24T15:34:30Z</time>
      </trkpt>
      <trkpt lat="50.58677" lon="3.07233">
        <ele>16.6</ele>
        <time>2018-06-24T15:34:34Z</time>
      </trkpt>
      <trkpt lat="50.58677" lon="3.07233">
        <ele>16.6</ele>
        <time>2018-06-24T15:34:38Z</time>
      </trkpt>
      <trkpt lat="50.58677" lon="3.07233">
        <ele>16.8</ele>
        <time>2018-06-24T15:34:42Z</time>
      </trkpt>
      <trkpt lat="50.58677" lon="3.07233">
        <ele>16.6</ele>
        <time>2018-06-24T15:34:46Z</time>
      </trkpt>
      <trkpt lat="50.58677" lon="3.07233">
        <ele>16.6</ele>
        <time>2018-06-24T15:34:50Z</time>
      </trkpt>
      <trkpt lat="50.58677" lon="3.07233">
        <ele>16.4</ele>
        <time>2018-06-24T15:34:54Z</time>
      </trkpt>
      <trkpt lat="50.58677" lon="3.07233">
        <ele>16.4</ele>
        <time>2018-06-24T15:34:58Z</time>
      </trkpt>
      <trkpt lat="50.58677" lon="3.07233">
        <ele>16.6</ele>
        <time>2018-06-24T15:35:02Z</time>
      </trkpt>
      <trkpt lat="50.58677" lon="3.07233">
        <ele>16.6</ele>
        <time>2018-06-24T15:35:06Z</time>
      </trkpt>
      <trkpt lat="50.58677" lon="3.07233">
        <ele>16.4</ele>
        <time>2018-06-24T15:35:10Z</time>
      </trkpt>
      <trkpt lat="50.58677" lon="3.07233">
        <ele>16.6</ele>
        <time>2018-06-24T15:35:14Z</time>
      </trkpt>
      <trkpt lat="50.58677" lon="3.07233">
        <ele>16.8</ele>
        <time>2018-06-24T15:35:18Z</time>
      </trkpt>
      <trkpt lat="50.58677" lon="3.07233">
        <ele>17</ele>
        <time>2018-06-24T15:35:22Z</time>
      </trkpt>
      <trkpt lat="50.58677" lon="3.07233">
        <ele>17</ele>
        <time>2018-06-24T15:35:26Z</time>
      </trkpt>
      <trkpt lat="50.58677" lon="3.07233">
        <ele>16.8</ele>
        <time>2018-06-24T15:35:30Z</time>
      </trkpt>
      <trkpt lat="50.58677" lon="3.07233">
        <ele>16.8</ele>
        <time>2018-06-24T15:35:34Z</time>
      </trkpt>
      <trkpt lat="50.58677" lon="3.07233">
        <ele>16.4</ele>
        <time>2018-06-24T15:35:38Z</time>
      </trkpt>
      <trkpt lat="50.58677" lon="3.07233">
        <ele>16.4</ele>
        <time>2018-06-24T15:35:42Z</time>
      </trkpt>
      <trkpt lat="50.58677" lon="3.07233">
        <ele>16.8</ele>
        <time>2018-06-24T15:35:46Z</time>
      </trkpt>
      <trkpt lat="50.58677" lon="3.07233">
        <ele>17</ele>
        <time>2018-06-24T15:35:50Z</time>
      </trkpt>
      <trkpt lat="50.58677" lon="3.07233">
        <ele>16.6</ele>
        <time>2018-06-24T15:35:54Z</time>
      </trkpt>
      <trkpt lat="50.58677" lon="3.07233">
        <ele>17</ele>
        <time>2018-06-24T15:35:58Z</time>
      </trkpt>
      <trkpt lat="50.58677" lon="3.07233">
        <ele>17</ele>
        <time>2018-06-24T15:36:02Z</time>
      </trkpt>
      <trkpt lat="50.58677" lon="3.07233">
        <ele>16.8</ele>
        <time>2018-06-24T15:36:06Z</time>
      </trkpt>
      <trkpt lat="50.58677" lon="3.07233">
        <ele>17</ele>
        <time>2018-06-24T15:36:10Z</time>
      </trkpt>
      <trkpt lat="50.58677" lon="3.07233">
        <ele>17</ele>
        <time>2018-06-24T15:36:14Z</time>
      </trkpt>
      <trkpt lat="50.58677" lon="3.07233">
        <ele>16.8</ele>
        <time>2018-06-24T15:36:18Z</time>
      </trkpt>
      <trkpt lat="50.58677" lon="3.07233">
        <ele>16.8</ele>
        <time>2018-06-24T15:36:22Z</time>
      </trkpt>
      <trkpt lat="50.58677" lon="3.07233">
        <ele>16.8</ele>
        <time>2018-06-24T15:36:26Z</time>
      </trkpt>
      <trkpt lat="50.58677" lon="3.07233">
        <ele>16.6</ele>
        <time>2018-06-24T15:36:30Z</time>
      </trkpt>
      <trkpt lat="50.58677" lon="3.07233">
        <ele>16.6</ele>
        <time>2018-06-24T15:36:34Z</time>
      </trkpt>
      <trkpt lat="50.58677" lon="3.07233">
        <ele>16.6</ele>
        <time>2018-06-24T15:36:38Z</time>
      </trkpt>
      <trkpt lat="50.58677" lon="3.07233">
        <ele>16.6</ele>
        <time>2018-06-24T15:36:42Z</time>
      </trkpt>
      <trkpt lat="50.58677" lon="3.07233">
        <ele>16.4</ele>
        <time>2018-06-24T15:36:46Z</time>
      </trkpt>
      <trkpt lat="50.58677" lon="3.07233">
        <ele>16.4</ele>
        <time>2018-06-24T15:36:50Z</time>
      </trkpt>
      <trkpt lat="50.58677" lon="3.07233">
        <ele>16.6</ele>
        <time>2018-06-24T15:36:54Z</time>
      </trkpt>
      <trkpt lat="50.58677" lon="3.07233">
        <ele>16.4</ele>
        <time>2018-06-24T15:36:58Z</time>
      </trkpt>
      <trkpt lat="50.58677" lon="3.07233">
        <ele>16.2</ele>
        <time>2018-06-24T15:37:02Z</time>
      </trkpt>
      <trkpt lat="50.58677" lon="3.07233">
        <ele>16.2</ele>
        <time>2018-06-24T15:37:06Z</time>
      </trkpt>
      <trkpt lat="50.58677" lon="3.07233">
        <ele>16.6</ele>
        <time>2018-06-24T15:37:10Z</time>
      </trkpt>
      <trkpt lat="50.58677" lon="3.07233">
        <ele>16.2</ele>
        <time>2018-06-24T15:37:14Z</time>
      </trkpt>
      <trkpt lat="50.58677" lon="3.07233">
        <ele>16.4</ele>
        <time>2018-06-24T15:37:18Z</time>
      </trkpt>
      <trkpt lat="50.58677" lon="3.07233">
        <ele>16.2</ele>
        <time>2018-06-24T15:37:22Z</time>
      </trkpt>
      <trkpt lat="50.58677" lon="3.07233">
        <ele>16.2</ele>
        <time>2018-06-24T15:37:26Z</time>
      </trkpt>
      <trkpt lat="50.58677" lon="3.07233">
        <ele>16.6</ele>
        <time>2018-06-24T15:37:30Z</time>
      </trkpt>
      <trkpt lat="50.58677" lon="3.07233">
        <ele>16.4</ele>
        <time>2018-06-24T15:37:34Z</time>
      </trkpt>
      <trkpt lat="50.58677" lon="3.07233">
        <ele>16.6</ele>
        <time>2018-06-24T15:37:38Z</time>
      </trkpt>
      <trkpt lat="50.58677" lon="3.07233">
        <ele>16.6</ele>
        <time>2018-06-24T15:37:42Z</time>
      </trkpt>
      <trkpt lat="50.58677" lon="3.07233">
        <ele>16.4</ele>
        <time>2018-06-24T15:37:46Z</time>
      </trkpt>
      <trkpt lat="50.58677" lon="3.07233">
        <ele>16.6</ele>
        <time>2018-06-24T15:37:50Z</time>
      </trkpt>
      <trkpt lat="50.58677" lon="3.07233">
        <ele>16.6</ele>
        <time>2018-06-24T15:37:54Z</time>
      </trkpt>
      <trkpt lat="50.58677" lon="3.07233">
        <ele>16.6</ele>
        <time>2018-06-24T15:37:58Z</time>
      </trkpt>
      <trkpt lat="50.58677" lon="3.07233">
        <ele>16.6</ele>
        <time>2018-06-24T15:38:02Z</time>
      </trkpt>
      <trkpt lat="50.58677" lon="3.07233">
        <ele>16.6</ele>
        <time>2018-06-24T15:38:06Z</time>
      </trkpt>
      <trkpt lat="50.58677" lon="3.07233">
        <ele>16.4</ele>
        <time>2018-06-24T15:38:10Z</time>
      </trkpt>
      <trkpt lat="50.58677" lon="3.07233">
        <ele>16.4</ele>
        <time>2018-06-24T15:38:14Z</time>
      </trkpt>
      <trkpt lat="50.58677" lon="3.07233">
        <ele>16.6</ele>
        <time>2018-06-24T15:38:18Z</time>
      </trkpt>
      <trkpt lat="50.58677" lon="3.07233">
        <ele>16.8</ele>
        <time>2018-06-24T15:38:22Z</time>
      </trkpt>
      <trkpt lat="50.58677" lon="3.07233">
        <ele>16.8</ele>
        <time>2018-06-24T15:38:26Z</time>
      </trkpt>
      <trkpt lat="50.58677" lon="3.07233">
        <ele>16.6</ele>
        <time>2018-06-24T15:38:30Z</time>
      </trkpt>
      <trkpt lat="50.58677" lon="3.07233">
        <ele>16.8</ele>
        <time>2018-06-24T15:38:34Z</time>
      </trkpt>
      <trkpt lat="50.58677" lon="3.07233">
        <ele>16.6</ele>
        <time>2018-06-24T15:38:38Z</time>
      </trkpt>
      <trkpt lat="50.58677" lon="3.07233">
        <ele>16.8</ele>
        <time>2018-06-24T15:38:42Z</time>
      </trkpt>
      <trkpt lat="50.58677" lon="3.07233">
        <ele>16.6</ele>
        <time>2018-06-24T15:38:46Z</time>
      </trkpt>
      <trkpt lat="50.58677" lon="3.07233">
        <ele>16.8</ele>
        <time>2018-06-24T15:38:50Z</time>
      </trkpt>
      <trkpt lat="50.58677" lon="3.07233">
        <ele>16.6</ele>
        <time>2018-06-24T15:38:54Z</time>
      </trkpt>
      <trkpt lat="50.58677" lon="3.07233">
        <ele>16.6</ele>
        <time>2018-06-24T15:38:58Z</time>
      </trkpt>
      <trkpt lat="50.58677" lon="3.07233">
        <ele>16.6</ele>
        <time>2018-06-24T15:39:02Z</time>
      </trkpt>
      <trkpt lat="50.58677" lon="3.07233">
        <ele>16.4</ele>
        <time>2018-06-24T15:39:06Z</time>
      </trkpt>
      <trkpt lat="50.58677" lon="3.07233">
        <ele>16.6</ele>
        <time>2018-06-24T15:39:10Z</time>
      </trkpt>
      <trkpt lat="50.58677" lon="3.07233">
        <ele>16.6</ele>
        <time>2018-06-24T15:39:14Z</time>
      </trkpt>
      <trkpt lat="50.58677" lon="3.07233">
        <ele>17.2</ele>
        <time>2018-06-24T15:39:18Z</time>
      </trkpt>
      <trkpt lat="50.58677" lon="3.07233">
        <ele>17</ele>
        <time>2018-06-24T15:39:22Z</time>
      </trkpt>
      <trkpt lat="50.58677" lon="3.07233">
        <ele>16.8</ele>
        <time>2018-06-24T15:39:26Z</time>
      </trkpt>
      <trkpt lat="50.58677" lon="3.07233">
        <ele>17.2</ele>
        <time>2018-06-24T15:39:30Z</time>
      </trkpt>
      <trkpt lat="50.58677" lon="3.07233">
        <ele>17</ele>
        <time>2018-06-24T15:39:34Z</time>
      </trkpt>
      <trkpt lat="50.58677" lon="3.07233">
        <ele>17</ele>
        <time>2018-06-24T15:39:38Z</time>
      </trkpt>
      <trkpt lat="50.58677" lon="3.07233">
        <ele>16.6</ele>
        <time>2018-06-24T15:39:42Z</time>
      </trkpt>
      <trkpt lat="50.58677" lon="3.07233">
        <ele>17</ele>
        <time>2018-06-24T15:39:46Z</time>
      </trkpt>
      <trkpt lat="50.58677" lon="3.07233">
        <ele>16.8</ele>
        <time>2018-06-24T15:39:50Z</time>
      </trkpt>
      <trkpt lat="50.58677" lon="3.07233">
        <ele>16.6</ele>
        <time>2018-06-24T15:39:54Z</time>
      </trkpt>
      <trkpt lat="50.58677" lon="3.07233">
        <ele>16.6</ele>
        <time>2018-06-24T15:39:58Z</time>
      </trkpt>
      <trkpt lat="50.58677" lon="3.07233">
        <ele>16.2</ele>
        <time>2018-06-24T15:40:02Z</time>
      </trkpt>
      <trkpt lat="50.58677" lon="3.07233">
        <ele>16.6</ele>
        <time>2018-06-24T15:40:06Z</time>
      </trkpt>
      <trkpt lat="50.58677" lon="3.07233">
        <ele>16.8</ele>
        <time>2018-06-24T15:40:10Z</time>
      </trkpt>
      <trkpt lat="50.58677" lon="3.07233">
        <ele>16.6</ele>
        <time>2018-06-24T15:40:14Z</time>
      </trkpt>
      <trkpt lat="50.58677" lon="3.07233">
        <ele>17</ele>
        <time>2018-06-24T15:40:18Z</time>
      </trkpt>
      <trkpt lat="50.58677" lon="3.07233">
        <ele>17</ele>
        <time>2018-06-24T15:40:22Z</time>
      </trkpt>
      <trkpt lat="50.58677" lon="3.07233">
        <ele>16.6</ele>
        <time>2018-06-24T15:40:26Z</time>
      </trkpt>
      <trkpt lat="50.58677" lon="3.07233">
        <ele>16.6</ele>
        <time>2018-06-24T15:40:30Z</time>
      </trkpt>
      <trkpt lat="50.58677" lon="3.07233">
        <ele>16.6</ele>
        <time>2018-06-24T15:40:34Z</time>
      </trkpt>
      <trkpt lat="50.58677" lon="3.07233">
        <ele>16.6</ele>
        <time>2018-06-24T15:40:38Z</time>
      </trkpt>
      <trkpt lat="50.58677" lon="3.07233">
        <ele>16.4</ele>
        <time>2018-06-24T15:40:42Z</time>
      </trkpt>
      <trkpt lat="50.58677" lon="3.07233">
        <ele>16.6</ele>
        <time>2018-06-24T15:40:46Z</time>
      </trkpt>
      <trkpt lat="50.58677" lon="3.07233">
        <ele>16.8</ele>
        <time>2018-06-24T15:40:50Z</time>
      </trkpt>
      <trkpt lat="50.58677" lon="3.07233">
        <ele>16.6</ele>
        <time>2018-06-24T15:40:54Z</time>
      </trkpt>
      <trkpt lat="50.58677" lon="3.07233">
        <ele>17</ele>
        <time>2018-06-24T15:40:58Z</time>
      </trkpt>
      <trkpt lat="50.58677" lon="3.07233">
        <ele>16.6</ele>
        <time>2018-06-24T15:41:02Z</time>
      </trkpt>
      <trkpt lat="50.58677" lon="3.07233">
        <ele>16.6</ele>
        <time>2018-06-24T15:41:06Z</time>
      </trkpt>
      <trkpt lat="50.58677" lon="3.07233">
        <ele>16.6</ele>
        <time>2018-06-24T15:41:10Z</time>
      </trkpt>
      <trkpt lat="50.58677" lon="3.07233">
        <ele>16.8</ele>
        <time>2018-06-24T15:41:14Z</time>
      </trkpt>
      <trkpt lat="50.58677" lon="3.07233">
        <ele>16.6</ele>
        <time>2018-06-24T15:41:18Z</time>
      </trkpt>
      <trkpt lat="50.58677" lon="3.07233">
        <ele>16.8</ele>
        <time>2018-06-24T15:41:22Z</time>
      </trkpt>
      <trkpt lat="50.58677" lon="3.07233">
        <ele>16.4</ele>
        <time>2018-06-24T15:41:26Z</time>
      </trkpt>
      <trkpt lat="50.58677" lon="3.07233">
        <ele>16.4</ele>
        <time>2018-06-24T15:41:30Z</time>
      </trkpt>
      <trkpt lat="50.58677" lon="3.07233">
        <ele>16.4</ele>
        <time>2018-06-24T15:41:34Z</time>
      </trkpt>
      <trkpt lat="50.58677" lon="3.07233">
        <ele>16.4</ele>
        <time>2018-06-24T15:41:38Z</time>
      </trkpt>
      <trkpt lat="50.58677" lon="3.07233">
        <ele>16.4</ele>
        <time>2018-06-24T15:41:42Z</time>
      </trkpt>
      <trkpt lat="50.58677" lon="3.07233">
        <ele>16.6</ele>
        <time>2018-06-24T15:41:46Z</time>
      </trkpt>
      <trkpt lat="50.58677" lon="3.07233">
        <ele>16.6</ele>
        <time>2018-06-24T15:41:50Z</time>
      </trkpt>
      <trkpt lat="50.58677" lon="3.07233">
        <ele>16.4</ele>
        <time>2018-06-24T15:41:54Z</time>
      </trkpt>
      <trkpt lat="50.58677" lon="3.07233">
        <ele>16.2</ele>
        <time>2018-06-24T15:41:58Z</time>
      </trkpt>
      <trkpt lat="50.58677" lon="3.07233">
        <ele>16.6</ele>
        <time>2018-06-24T15:42:02Z</time>
      </trkpt>
      <trkpt lat="50.58677" lon="3.07233">
        <ele>16.6</ele>
        <time>2018-06-24T15:42:06Z</time>
      </trkpt>
      <trkpt lat="50.58677" lon="3.07233">
        <ele>16.8</ele>
        <time>2018-06-24T15:42:10Z</time>
      </trkpt>
      <trkpt lat="50.58677" lon="3.07233">
        <ele>16.6</ele>
        <time>2018-06-24T15:42:14Z</time>
      </trkpt>
      <trkpt lat="50.58677" lon="3.07233">
        <ele>16.8</ele>
        <time>2018-06-24T15:42:18Z</time>
      </trkpt>
      <trkpt lat="50.58677" lon="3.07233">
        <ele>16.6</ele>
        <time>2018-06-24T15:42:22Z</time>
      </trkpt>
      <trkpt lat="50.58677" lon="3.07233">
        <ele>16.4</ele>
        <time>2018-06-24T15:42:26Z</time>
      </trkpt>
      <trkpt lat="50.58677" lon="3.07233">
        <ele>16.4</ele>
        <time>2018-06-24T15:42:30Z</time>
      </trkpt>
      <trkpt lat="50.58677" lon="3.07233">
        <ele>16.4</ele>
        <time>2018-06-24T15:42:34Z</time>
      </trkpt>
      <trkpt lat="50.58677" lon="3.07233">
        <ele>16.6</ele>
        <time>2018-06-24T15:42:38Z</time>
      </trkpt>
      <trkpt lat="50.58677" lon="3.07233">
        <ele>16.6</ele>
        <time>2018-06-24T15:42:42Z</time>
      </trkpt>
      <trkpt lat="50.58677" lon="3.07233">
        <ele>16.2</ele>
        <time>2018-06-24T15:42:46Z</time>
      </trkpt>
      <trkpt lat="50.58677" lon="3.07233">
        <ele>16.2</ele>
        <time>2018-06-24T15:42:50Z</time>
      </trkpt>
      <trkpt lat="50.58677" lon="3.07233">
        <ele>16.4</ele>
        <time>2018-06-24T15:42:54Z</time>
      </trkpt>
      <trkpt lat="50.58677" lon="3.07233">
        <ele>16.2</ele>
        <time>2018-06-24T15:42:58Z</time>
      </trkpt>
      <trkpt lat="50.58677" lon="3.07233">
        <ele>17</ele>
        <time>2018-06-24T15:43:02Z</time>
      </trkpt>
      <trkpt lat="50.58677" lon="3.07233">
        <ele>16.2</ele>
        <time>2018-06-24T15:43:06Z</time>
      </trkpt>
      <trkpt lat="50.58677" lon="3.07233">
        <ele>16.6</ele>
        <time>2018-06-24T15:43:10Z</time>
      </trkpt>
      <trkpt lat="50.58677" lon="3.07233">
        <ele>16.6</ele>
        <time>2018-06-24T15:43:14Z</time>
      </trkpt>
      <trkpt lat="50.58677" lon="3.07233">
        <ele>16.4</ele>
        <time>2018-06-24T15:43:18Z</time>
      </trkpt>
      <trkpt lat="50.58677" lon="3.07233">
        <ele>16.2</ele>
        <time>2018-06-24T15:43:22Z</time>
      </trkpt>
      <trkpt lat="50.58677" lon="3.07233">
        <ele>16.2</ele>
        <time>2018-06-24T15:43:26Z</time>
      </trkpt>
      <trkpt lat="50.58677" lon="3.07233">
        <ele>16.4</ele>
        <time>2018-06-24T15:43:30Z</time>
      </trkpt>
      <trkpt lat="50.58677" lon="3.07233">
        <ele>16.2</ele>
        <time>2018-06-24T15:43:34Z</time>
      </trkpt>
      <trkpt lat="50.58677" lon="3.07233">
        <ele>16.2</ele>
        <time>2018-06-24T15:43:38Z</time>
      </trkpt>
      <trkpt lat="50.58677" lon="3.07233">
        <ele>16</ele>
        <time>2018-06-24T15:43:42Z</time>
      </trkpt>
      <trkpt lat="50.58677" lon="3.07233">
        <ele>15.8</ele>
        <time>2018-06-24T15:43:46Z</time>
      </trkpt>
      <trkpt lat="50.58677" lon="3.07233">
        <ele>16</ele>
        <time>2018-06-24T15:43:50Z</time>
      </trkpt>
      <trkpt lat="50.58677" lon="3.07233">
        <ele>15.8</ele>
        <time>2018-06-24T15:43:54Z</time>
      </trkpt>
      <trkpt lat="50.58677" lon="3.07233">
        <ele>16.2</ele>
        <time>2018-06-24T15:43:58Z</time>
      </trkpt>
      <trkpt lat="50.58677" lon="3.07233">
        <ele>15.6</ele>
        <time>2018-06-24T15:44:02Z</time>
      </trkpt>
      <trkpt lat="50.58677" lon="3.07233">
        <ele>15.6</ele>
        <time>2018-06-24T15:44:06Z</time>
      </trkpt>
      <trkpt lat="50.58677" lon="3.07233">
        <ele>15.6</ele>
        <time>2018-06-24T15:44:10Z</time>
      </trkpt>
      <trkpt lat="50.58677" lon="3.07233">
        <ele>15.8</ele>
        <time>2018-06-24T15:44:14Z</time>
      </trkpt>
      <trkpt lat="50.58677" lon="3.07233">
        <ele>15.8</ele>
        <time>2018-06-24T15:44:18Z</time>
      </trkpt>
      <trkpt lat="50.58677" lon="3.07233">
        <ele>16.2</ele>
        <time>2018-06-24T15:44:22Z</time>
      </trkpt>
      <trkpt lat="50.58677" lon="3.07233">
        <ele>16</ele>
        <time>2018-06-24T15:44:26Z</time>
      </trkpt>
      <trkpt lat="50.58677" lon="3.07233">
        <ele>16.2</ele>
        <time>2018-06-24T15:44:30Z</time>
      </trkpt>
      <trkpt lat="50.58677" lon="3.07233">
        <ele>16.2</ele>
        <time>2018-06-24T15:44:34Z</time>
      </trkpt>
      <trkpt lat="50.58677" lon="3.07233">
        <ele>16.2</ele>
        <time>2018-06-24T15:44:38Z</time>
      </trkpt>
      <trkpt lat="50.58677" lon="3.07233">
        <ele>16</ele>
        <time>2018-06-24T15:44:42Z</time>
      </trkpt>
      <trkpt lat="50.58677" lon="3.07233">
        <ele>16.4</ele>
        <time>2018-06-24T15:44:46Z</time>
      </trkpt>
      <trkpt lat="50.58677" lon="3.07233">
        <ele>16.2</ele>
        <time>2018-06-24T15:44:50Z</time>
      </trkpt>
      <trkpt lat="50.58677" lon="3.07233">
        <ele>15.8</ele>
        <time>2018-06-24T15:44:54Z</time>
      </trkpt>
      <trkpt lat="50.58677" lon="3.07233">
        <ele>16.2</ele>
        <time>2018-06-24T15:44:58Z</time>
      </trkpt>
      <trkpt lat="50.58677" lon="3.07233">
        <ele>16.2</ele>
        <time>2018-06-24T15:45:02Z</time>
      </trkpt>
      <trkpt lat="50.58677" lon="3.07233">
        <ele>16</ele>
        <time>2018-06-24T15:45:06Z</time>
      </trkpt>
      <trkpt lat="50.58677" lon="3.07233">
        <ele>15.8</ele>
        <time>2018-06-24T15:45:10Z</time>
      </trkpt>
      <trkpt lat="50.58677" lon="3.07233">
        <ele>15.8</ele>
        <time>2018-06-24T15:45:14Z</time>
      </trkpt>
      <trkpt lat="50.58677" lon="3.07233">
        <ele>16</ele>
        <time>2018-06-24T15:45:18Z</time>
      </trkpt>
      <trkpt lat="50.58677" lon="3.07233">
        <ele>16</ele>
        <time>2018-06-24T15:45:22Z</time>
      </trkpt>
      <trkpt lat="50.58677" lon="3.07233">
        <ele>16</ele>
        <time>2018-06-24T15:45:26Z</time>
      </trkpt>
      <trkpt lat="50.58677" lon="3.07233">
        <ele>16.2</ele>
        <time>2018-06-24T15:45:30Z</time>
      </trkpt>
      <trkpt lat="50.58677" lon="3.07233">
        <ele>16.2</ele>
        <time>2018-06-24T15:45:34Z</time>
      </trkpt>
      <trkpt lat="50.58677" lon="3.07233">
        <ele>16.2</ele>
        <time>2018-06-24T15:45:38Z</time>
      </trkpt>
      <trkpt lat="50.58677" lon="3.07233">
        <ele>16.2</ele>
        <time>2018-06-24T15:45:42Z</time>
      </trkpt>
      <trkpt lat="50.58677" lon="3.07233">
        <ele>16.2</ele>
        <time>2018-06-24T15:45:46Z</time>
      </trkpt>
      <trkpt lat="50.58677" lon="3.07233">
        <ele>16</ele>
        <time>2018-06-24T15:45:50Z</time>
      </trkpt>
      <trkpt lat="50.58677" lon="3.07233">
        <ele>16.2</ele>
        <time>2018-06-24T15:45:54Z</time>
      </trkpt>
      <trkpt lat="50.58677" lon="3.07233">
        <ele>16</ele>
        <time>2018-06-24T15:45:58Z</time>
      </trkpt>
      <trkpt lat="50.58677" lon="3.07233">
        <ele>16.4</ele>
        <time>2018-06-24T15:46:02Z</time>
      </trkpt>
      <trkpt lat="50.58677" lon="3.07233">
        <ele>16</ele>
        <time>2018-06-24T15:46:06Z</time>
      </trkpt>
      <trkpt lat="50.58677" lon="3.07233">
        <ele>16</ele>
        <time>2018-06-24T15:46:10Z</time>
      </trkpt>
      <trkpt lat="50.58677" lon="3.07233">
        <ele>16.2</ele>
        <time>2018-06-24T15:46:14Z</time>
      </trkpt>
      <trkpt lat="50.58677" lon="3.07233">
        <ele>16.2</ele>
        <time>2018-06-24T15:46:18Z</time>
      </trkpt>
      <trkpt lat="50.58677" lon="3.07233">
        <ele>16</ele>
        <time>2018-06-24T15:46:22Z</time>
      </trkpt>
      <trkpt lat="50.58677" lon="3.07233">
        <ele>15.8</ele>
        <time>2018-06-24T15:46:26Z</time>
      </trkpt>
      <trkpt lat="50.58677" lon="3.07233">
        <ele>16.2</ele>
        <time>2018-06-24T15:46:30Z</time>
      </trkpt>
      <trkpt lat="50.58677" lon="3.07233">
        <ele>16.2</ele>
        <time>2018-06-24T15:46:34Z</time>
      </trkpt>
      <trkpt lat="50.58677" lon="3.07233">
        <ele>16.2</ele>
        <time>2018-06-24T15:46:38Z</time>
      </trkpt>
      <trkpt lat="50.58677" lon="3.07233">
        <ele>16</ele>
        <time>2018-06-24T15:46:42Z</time>
      </trkpt>
      <trkpt lat="50.58677" lon="3.07233">
        <ele>16.2</ele>
        <time>2018-06-24T15:46:46Z</time>
      </trkpt>
      <trkpt lat="50.58677" lon="3.07233">
        <ele>16.2</ele>
        <time>2018-06-24T15:46:50Z</time>
      </trkpt>
      <trkpt lat="50.58677" lon="3.07233">
        <ele>16.2</ele>
        <time>2018-06-24T15:46:54Z</time>
      </trkpt>
      <trkpt lat="50.58677" lon="3.07233">
        <ele>16.2</ele>
        <time>2018-06-24T15:46:58Z</time>
      </trkpt>
      <trkpt lat="50.58677" lon="3.07233">
        <ele>16</ele>
        <time>2018-06-24T15:47:02Z</time>
      </trkpt>
      <trkpt lat="50.58677" lon="3.07233">
        <ele>16.2</ele>
        <time>2018-06-24T15:47:06Z</time>
      </trkpt>
      <trkpt lat="50.58677" lon="3.07233">
        <ele>16</ele>
        <time>2018-06-24T15:47:10Z</time>
      </trkpt>
      <trkpt lat="50.58677" lon="3.07233">
        <ele>16.2</ele>
        <time>2018-06-24T15:47:14Z</time>
      </trkpt>
      <trkpt lat="50.58677" lon="3.07233">
        <ele>16</ele>
        <time>2018-06-24T15:47:18Z</time>
      </trkpt>
      <trkpt lat="50.58677" lon="3.07233">
        <ele>16</ele>
        <time>2018-06-24T15:47:22Z</time>
      </trkpt>
      <trkpt lat="50.58677" lon="3.07233">
        <ele>16.2</ele>
        <time>2018-06-24T15:47:26Z</time>
      </trkpt>
      <trkpt lat="50.58677" lon="3.07233">
        <ele>16.2</ele>
        <time>2018-06-24T15:47:30Z</time>
      </trkpt>
      <trkpt lat="50.58677" lon="3.07233">
        <ele>16</ele>
        <time>2018-06-24T15:47:34Z</time>
      </trkpt>
      <trkpt lat="50.58677" lon="3.07233">
        <ele>16.4</ele>
        <time>2018-06-24T15:47:38Z</time>
      </trkpt>
      <trkpt lat="50.58677" lon="3.07233">
        <ele>16.2</ele>
        <time>2018-06-24T15:47:42Z</time>
      </trkpt>
      <trkpt lat="50.58677" lon="3.07233">
        <ele>16.2</ele>
        <time>2018-06-24T15:47:46Z</time>
      </trkpt>
      <trkpt lat="50.58677" lon="3.07233">
        <ele>16.2</ele>
        <time>2018-06-24T15:47:50Z</time>
      </trkpt>
      <trkpt lat="50.58677" lon="3.07233">
        <ele>16</ele>
        <time>2018-06-24T15:47:54Z</time>
      </trkpt>
      <trkpt lat="50.58677" lon="3.07233">
        <ele>16.2</ele>
        <time>2018-06-24T15:47:58Z</time>
      </trkpt>
      <trkpt lat="50.58677" lon="3.07233">
        <ele>15.6</ele>
        <time>2018-06-24T15:48:02Z</time>
      </trkpt>
      <trkpt lat="50.58677" lon="3.07233">
        <ele>16.2</ele>
        <time>2018-06-24T15:48:06Z</time>
      </trkpt>
      <trkpt lat="50.58677" lon="3.07233">
        <ele>16.2</ele>
        <time>2018-06-24T15:48:10Z</time>
      </trkpt>
      <trkpt lat="50.58677" lon="3.07233">
        <ele>15.8</ele>
        <time>2018-06-24T15:48:14Z</time>
      </trkpt>
      <trkpt lat="50.58677" lon="3.07233">
        <ele>16.2</ele>
        <time>2018-06-24T15:48:18Z</time>
      </trkpt>
      <trkpt lat="50.58677" lon="3.07233">
        <ele>16.2</ele>
        <time>2018-06-24T15:48:22Z</time>
      </trkpt>
      <trkpt lat="50.58677" lon="3.07233">
        <ele>16</ele>
        <time>2018-06-24T15:48:26Z</time>
      </trkpt>
      <trkpt lat="50.58677" lon="3.07233">
        <ele>16.2</ele>
        <time>2018-06-24T15:48:30Z</time>
      </trkpt>
      <trkpt lat="50.58677" lon="3.07233">
        <ele>16</ele>
        <time>2018-06-24T15:48:34Z</time>
      </trkpt>
      <trkpt lat="50.58677" lon="3.07233">
        <ele>16</ele>
        <time>2018-06-24T15:48:38Z</time>
      </trkpt>
      <trkpt lat="50.58677" lon="3.07233">
        <ele>16</ele>
        <time>2018-06-24T15:48:42Z</time>
      </trkpt>
      <trkpt lat="50.58677" lon="3.07233">
        <ele>16</ele>
        <time>2018-06-24T15:48:46Z</time>
      </trkpt>
      <trkpt lat="50.58677" lon="3.07233">
        <ele>15.8</ele>
        <time>2018-06-24T15:48:50Z</time>
      </trkpt>
      <trkpt lat="50.58677" lon="3.07233">
        <ele>15.8</ele>
        <time>2018-06-24T15:48:54Z</time>
      </trkpt>
      <trkpt lat="50.58677" lon="3.07233">
        <ele>15.8</ele>
        <time>2018-06-24T15:48:58Z</time>
      </trkpt>
      <trkpt lat="50.58677" lon="3.07233">
        <ele>16.2</ele>
        <time>2018-06-24T15:49:02Z</time>
      </trkpt>
      <trkpt lat="50.58677" lon="3.07233">
        <ele>16</ele>
        <time>2018-06-24T15:49:06Z</time>
      </trkpt>
      <trkpt lat="50.58677" lon="3.07233">
        <ele>15.8</ele>
        <time>2018-06-24T15:49:10Z</time>
      </trkpt>
      <trkpt lat="50.58677" lon="3.07233">
        <ele>16</ele>
        <time>2018-06-24T15:49:14Z</time>
      </trkpt>
      <trkpt lat="50.58677" lon="3.07233">
        <ele>15.6</ele>
        <time>2018-06-24T15:49:18Z</time>
      </trkpt>
      <trkpt lat="50.58677" lon="3.07233">
        <ele>15.6</ele>
        <time>2018-06-24T15:49:22Z</time>
      </trkpt>
      <trkpt lat="50.58677" lon="3.07233">
        <ele>15.6</ele>
        <time>2018-06-24T15:49:26Z</time>
      </trkpt>
      <trkpt lat="50.58677" lon="3.07233">
        <ele>16</ele>
        <time>2018-06-24T15:49:30Z</time>
      </trkpt>
      <trkpt lat="50.58677" lon="3.07233">
        <ele>15.8</ele>
        <time>2018-06-24T15:49:34Z</time>
      </trkpt>
      <trkpt lat="50.58677" lon="3.07233">
        <ele>16.2</ele>
        <time>2018-06-24T15:49:38Z</time>
      </trkpt>
      <trkpt lat="50.58677" lon="3.07233">
        <ele>16</ele>
        <time>2018-06-24T15:49:42Z</time>
      </trkpt>
      <trkpt lat="50.58677" lon="3.07233">
        <ele>15.8</ele>
        <time>2018-06-24T15:49:46Z</time>
      </trkpt>
      <trkpt lat="50.58677" lon="3.07233">
        <ele>15.8</ele>
        <time>2018-06-24T15:49:50Z</time>
      </trkpt>
      <trkpt lat="50.58677" lon="3.07233">
        <ele>16</ele>
        <time>2018-06-24T15:49:54Z</time>
      </trkpt>
      <trkpt lat="50.58677" lon="3.07233">
        <ele>16</ele>
        <time>2018-06-24T15:49:58Z</time>
      </trkpt>
      <trkpt lat="50.58677" lon="3.07233">
        <ele>16</ele>
        <time>2018-06-24T15:50:02Z</time>
      </trkpt>
      <trkpt lat="50.58677" lon="3.07233">
        <ele>16</ele>
        <time>2018-06-24T15:50:06Z</time>
      </trkpt>
      <trkpt lat="50.58677" lon="3.07233">
        <ele>15.8</ele>
        <time>2018-06-24T15:50:10Z</time>
      </trkpt>
      <trkpt lat="50.58677" lon="3.07233">
        <ele>16</ele>
        <time>2018-06-24T15:50:14Z</time>
      </trkpt>
      <trkpt lat="50.58677" lon="3.07233">
        <ele>16</ele>
        <time>2018-06-24T15:50:18Z</time>
      </trkpt>
      <trkpt lat="50.58677" lon="3.07233">
        <ele>16.2</ele>
        <time>2018-06-24T15:50:22Z</time>
      </trkpt>
      <trkpt lat="50.58677" lon="3.07233">
        <ele>16.2</ele>
        <time>2018-06-24T15:50:26Z</time>
      </trkpt>
      <trkpt lat="50.58677" lon="3.07233">
        <ele>16.4</ele>
        <time>2018-06-24T15:50:30Z</time>
      </trkpt>
      <trkpt lat="50.58677" lon="3.07233">
        <ele>16.2</ele>
        <time>2018-06-24T15:50:34Z</time>
      </trkpt>
      <trkpt lat="50.58677" lon="3.07233">
        <ele>16.2</ele>
        <time>2018-06-24T15:50:38Z</time>
      </trkpt>
      <trkpt lat="50.58677" lon="3.07233">
        <ele>16.2</ele>
        <time>2018-06-24T15:50:42Z</time>
      </trkpt>
      <trkpt lat="50.58677" lon="3.07233">
        <ele>16</ele>
        <time>2018-06-24T15:50:46Z</time>
      </trkpt>
      <trkpt lat="50.58677" lon="3.07233">
        <ele>16</ele>
        <time>2018-06-24T15:50:50Z</time>
      </trkpt>
      <trkpt lat="50.58677" lon="3.07233">
        <ele>16.4</ele>
        <time>2018-06-24T15:50:54Z</time>
      </trkpt>
      <trkpt lat="50.58677" lon="3.07233">
        <ele>16.2</ele>
        <time>2018-06-24T15:50:58Z</time>
      </trkpt>
      <trkpt lat="50.58677" lon="3.07233">
        <ele>16</ele>
        <time>2018-06-24T15:51:02Z</time>
      </trkpt>
      <trkpt lat="50.58677" lon="3.07233">
        <ele>16.4</ele>
        <time>2018-06-24T15:51:06Z</time>
      </trkpt>
      <trkpt lat="50.58677" lon="3.07233">
        <ele>16.4</ele>
        <time>2018-06-24T15:51:10Z</time>
      </trkpt>
      <trkpt lat="50.58677" lon="3.07233">
        <ele>16.4</ele>
        <time>2018-06-24T15:51:14Z</time>
      </trkpt>
      <trkpt lat="50.58677" lon="3.07233">
        <ele>16.2</ele>
        <time>2018-06-24T15:51:18Z</time>
      </trkpt>
      <trkpt lat="50.58677" lon="3.07233">
        <ele>16.2</ele>
        <time>2018-06-24T15:51:22Z</time>
      </trkpt>
      <trkpt lat="50.58677" lon="3.07233">
        <ele>16.4</ele>
        <time>2018-06-24T15:51:26Z</time>
      </trkpt>
      <trkpt lat="50.58677" lon="3.07233">
        <ele>16.4</ele>
        <time>2018-06-24T15:51:30Z</time>
      </trkpt>
      <trkpt lat="50.58677" lon="3.07233">
        <ele>16.4</ele>
        <time>2018-06-24T15:51:34Z</time>
      </trkpt>
      <trkpt lat="50.58677" lon="3.07233">
        <ele>16.2</ele>
        <time>2018-06-24T15:51:38Z</time>
      </trkpt>
      <trkpt lat="50.58677" lon="3.07233">
        <ele>15.8</ele>
        <time>2018-06-24T15:51:42Z</time>
      </trkpt>
      <trkpt lat="50.58677" lon="3.07233">
        <ele>16.2</ele>
        <time>2018-06-24T15:51:46Z</time>
      </trkpt>
      <trkpt lat="50.58677" lon="3.07233">
        <ele>16.2</ele>
        <time>2018-06-24T15:51:50Z</time>
      </trkpt>
      <trkpt lat="50.58677" lon="3.07233">
        <ele>16.4</ele>
        <time>2018-06-24T15:51:54Z</time>
      </trkpt>
      <trkpt lat="50.58677" lon="3.07233">
        <ele>16.2</ele>
        <time>2018-06-24T15:51:58Z</time>
      </trkpt>
      <trkpt lat="50.58677" lon="3.07233">
        <ele>16.8</ele>
        <time>2018-06-24T15:52:02Z</time>
      </trkpt>
      <trkpt lat="50.58677" lon="3.07233">
        <ele>16.6</ele>
        <time>2018-06-24T15:52:06Z</time>
      </trkpt>
      <trkpt lat="50.58677" lon="3.07233">
        <ele>16.8</ele>
        <time>2018-06-24T15:52:10Z</time>
      </trkpt>
      <trkpt lat="50.58677" lon="3.07233">
        <ele>16.8</ele>
        <time>2018-06-24T15:52:14Z</time>
      </trkpt>
      <trkpt lat="50.58677" lon="3.07233">
        <ele>16.4</ele>
        <time>2018-06-24T15:52:18Z</time>
      </trkpt>
      <trkpt lat="50.58677" lon="3.07233">
        <ele>16.4</ele>
        <time>2018-06-24T15:52:22Z</time>
      </trkpt>
      <trkpt lat="50.58677" lon="3.07233">
        <ele>16.4</ele>
        <time>2018-06-24T15:52:26Z</time>
      </trkpt>
      <trkpt lat="50.58677" lon="3.07233">
        <ele>16.6</ele>
        <time>2018-06-24T15:52:30Z</time>
      </trkpt>
      <trkpt lat="50.58677" lon="3.07233">
        <ele>16</ele>
        <time>2018-06-24T15:52:34Z</time>
      </trkpt>
      <trkpt lat="50.58677" lon="3.07233">
        <ele>16.2</ele>
        <time>2018-06-24T15:52:38Z</time>
      </trkpt>
      <trkpt lat="50.58677" lon="3.07233">
        <ele>16.6</ele>
        <time>2018-06-24T15:52:42Z</time>
      </trkpt>
      <trkpt lat="50.58677" lon="3.07233">
        <ele>16.2</ele>
        <time>2018-06-24T15:52:46Z</time>
      </trkpt>
      <trkpt lat="50.58677" lon="3.07233">
        <ele>16.4</ele>
        <time>2018-06-24T15:52:50Z</time>
      </trkpt>
      <trkpt lat="50.58677" lon="3.07233">
        <ele>16.6</ele>
        <time>2018-06-24T15:52:54Z</time>
      </trkpt>
      <trkpt lat="50.58677" lon="3.07233">
        <ele>16.6</ele>
        <time>2018-06-24T15:52:58Z</time>
      </trkpt>
      <trkpt lat="50.58677" lon="3.07233">
        <ele>16.4</ele>
        <time>2018-06-24T15:53:02Z</time>
      </trkpt>
      <trkpt lat="50.58677" lon="3.07233">
        <ele>16.2</ele>
        <time>2018-06-24T15:53:06Z</time>
      </trkpt>
      <trkpt lat="50.58677" lon="3.07233">
        <ele>16.4</ele>
        <time>2018-06-24T15:53:10Z</time>
      </trkpt>
      <trkpt lat="50.58677" lon="3.07233">
        <ele>16.4</ele>
        <time>2018-06-24T15:53:14Z</time>
      </trkpt>
      <trkpt lat="50.58677" lon="3.07233">
        <ele>16.4</ele>
        <time>2018-06-24T15:53:18Z</time>
      </trkpt>
      <trkpt lat="50.58677" lon="3.07233">
        <ele>16.6</ele>
        <time>2018-06-24T15:53:22Z</time>
      </trkpt>
      <trkpt lat="50.58677" lon="3.07233">
        <ele>16.6</ele>
        <time>2018-06-24T15:53:26Z</time>
      </trkpt>
      <trkpt lat="50.58677" lon="3.07233">
        <ele>16.6</ele>
        <time>2018-06-24T15:53:30Z</time>
      </trkpt>
      <trkpt lat="50.58677" lon="3.07233">
        <ele>16.6</ele>
        <time>2018-06-24T15:53:34Z</time>
      </trkpt>
      <trkpt lat="50.58677" lon="3.07233">
        <ele>16.2</ele>
        <time>2018-06-24T15:53:38Z</time>
      </trkpt>
      <trkpt lat="50.58677" lon="3.07233">
        <ele>16.2</ele>
        <time>2018-06-24T15:53:42Z</time>
      </trkpt>
      <trkpt lat="50.58677" lon="3.07233">
        <ele>16.2</ele>
        <time>2018-06-24T15:53:46Z</time>
      </trkpt>
      <trkpt lat="50.58677" lon="3.07233">
        <ele>16.4</ele>
        <time>2018-06-24T15:53:50Z</time>
      </trkpt>
      <trkpt lat="50.58677" lon="3.07233">
        <ele>16.6</ele>
        <time>2018-06-24T15:53:54Z</time>
      </trkpt>
      <trkpt lat="50.58677" lon="3.07233">
        <ele>16.6</ele>
        <time>2018-06-24T15:53:58Z</time>
      </trkpt>
      <trkpt lat="50.58677" lon="3.07233">
        <ele>16.6</ele>
        <time>2018-06-24T15:54:02Z</time>
      </trkpt>
      <trkpt lat="50.58677" lon="3.07233">
        <ele>16.2</ele>
        <time>2018-06-24T15:54:06Z</time>
      </trkpt>
      <trkpt lat="50.58677" lon="3.07233">
        <ele>16.2</ele>
        <time>2018-06-24T15:54:10Z</time>
      </trkpt>
      <trkpt lat="50.58677" lon="3.07233">
        <ele>16.2</ele>
        <time>2018-06-24T15:54:14Z</time>
      </trkpt>
      <trkpt lat="50.58677" lon="3.07233">
        <ele>16.4</ele>
        <time>2018-06-24T15:54:18Z</time>
      </trkpt>
      <trkpt lat="50.58677" lon="3.07233">
        <ele>16.4</ele>
        <time>2018-06-24T15:54:22Z</time>
      </trkpt>
      <trkpt lat="50.58677" lon="3.07233">
        <ele>16</ele>
        <time>2018-06-24T15:54:26Z</time>
      </trkpt>
      <trkpt lat="50.58677" lon="3.07233">
        <ele>16.2</ele>
        <time>2018-06-24T15:54:30Z</time>
      </trkpt>
      <trkpt lat="50.58677" lon="3.07233">
        <ele>16.4</ele>
        <time>2018-06-24T15:54:34Z</time>
      </trkpt>
      <trkpt lat="50.58677" lon="3.07233">
        <ele>16.6</ele>
        <time>2018-06-24T15:54:38Z</time>
      </trkpt>
      <trkpt lat="50.58677" lon="3.07233">
        <ele>16.2</ele>
        <time>2018-06-24T15:54:42Z</time>
      </trkpt>
      <trkpt lat="50.58677" lon="3.07233">
        <ele>16.2</ele>
        <time>2018-06-24T15:54:46Z</time>
      </trkpt>
      <trkpt lat="50.58677" lon="3.07233">
        <ele>16.2</ele>
        <time>2018-06-24T15:54:50Z</time>
      </trkpt>
      <trkpt lat="50.58677" lon="3.07233">
        <ele>16.2</ele>
        <time>2018-06-24T15:54:54Z</time>
      </trkpt>
      <trkpt lat="50.58677" lon="3.07233">
        <ele>16.2</ele>
        <time>2018-06-24T15:54:58Z</time>
      </trkpt>
      <trkpt lat="50.58677" lon="3.07233">
        <ele>16.4</ele>
        <time>2018-06-24T15:55:02Z</time>
      </trkpt>
      <trkpt lat="50.58677" lon="3.07233">
        <ele>16.4</ele>
        <time>2018-06-24T15:55:06Z</time>
      </trkpt>
      <trkpt lat="50.58677" lon="3.07233">
        <ele>16.6</ele>
        <time>2018-06-24T15:55:10Z</time>
      </trkpt>
      <trkpt lat="50.58677" lon="3.07233">
        <ele>16.4</ele>
        <time>2018-06-24T15:55:14Z</time>
      </trkpt>
      <trkpt lat="50.58677" lon="3.07233">
        <ele>16.2</ele>
        <time>2018-06-24T15:55:18Z</time>
      </trkpt>
      <trkpt lat="50.58677" lon="3.07233">
        <ele>16.8</ele>
        <time>2018-06-24T15:55:22Z</time>
      </trkpt>
      <trkpt lat="50.58677" lon="3.07233">
        <ele>16.8</ele>
        <time>2018-06-24T15:55:26Z</time>
      </trkpt>
      <trkpt lat="50.58677" lon="3.07233">
        <ele>16.6</ele>
        <time>2018-06-24T15:55:30Z</time>
      </trkpt>
      <trkpt lat="50.58677" lon="3.07233">
        <ele>16.6</ele>
        <time>2018-06-24T15:55:34Z</time>
      </trkpt>
      <trkpt lat="50.58677" lon="3.07233">
        <ele>16.6</ele>
        <time>2018-06-24T15:55:38Z</time>
      </trkpt>
      <trkpt lat="50.58677" lon="3.07233">
        <ele>16.6</ele>
        <time>2018-06-24T15:55:42Z</time>
      </trkpt>
      <trkpt lat="50.58677" lon="3.07233">
        <ele>16.6</ele>
        <time>2018-06-24T15:55:46Z</time>
      </trkpt>
      <trkpt lat="50.58677" lon="3.07233">
        <ele>16.4</ele>
        <time>2018-06-24T15:55:50Z</time>
      </trkpt>
      <trkpt lat="50.58677" lon="3.07233">
        <ele>16.4</ele>
        <time>2018-06-24T15:55:54Z</time>
      </trkpt>
      <trkpt lat="50.58677" lon="3.07233">
        <ele>16.6</ele>
        <time>2018-06-24T15:55:58Z</time>
      </trkpt>
      <trkpt lat="50.58677" lon="3.07233">
        <ele>16.8</ele>
        <time>2018-06-24T15:56:02Z</time>
      </trkpt>
      <trkpt lat="50.58677" lon="3.07233">
        <ele>16.8</ele>
        <time>2018-06-24T15:56:06Z</time>
      </trkpt>
      <trkpt lat="50.58677" lon="3.07233">
        <ele>16.4</ele>
        <time>2018-06-24T15:56:10Z</time>
      </trkpt>
      <trkpt lat="50.58677" lon="3.07233">
        <ele>16.4</ele>
        <time>2018-06-24T15:56:14Z</time>
      </trkpt>
      <trkpt lat="50.58677" lon="3.07233">
        <ele>16.4</ele>
        <time>2018-06-24T15:56:18Z</time>
      </trkpt>
      <trkpt lat="50.58677" lon="3.07233">
        <ele>16.4</ele>
        <time>2018-06-24T15:56:22Z</time>
      </trkpt>
      <trkpt lat="50.58677" lon="3.07233">
        <ele>16.4</ele>
        <time>2018-06-24T15:56:26Z</time>
      </trkpt>
      <trkpt lat="50.58677" lon="3.07233">
        <ele>16.6</ele>
        <time>2018-06-24T15:56:30Z</time>
      </trkpt>
      <trkpt lat="50.58677" lon="3.07233">
        <ele>16.6</ele>
        <time>2018-06-24T15:56:34Z</time>
      </trkpt>
      <trkpt lat="50.58677" lon="3.07233">
        <ele>16.4</ele>
        <time>2018-06-24T15:56:38Z</time>
      </trkpt>
      <trkpt lat="50.58677" lon="3.07233">
        <ele>16.6</ele>
        <time>2018-06-24T15:56:42Z</time>
      </trkpt>
      <trkpt lat="50.58677" lon="3.07233">
        <ele>16.6</ele>
        <time>2018-06-24T15:56:46Z</time>
      </trkpt>
      <trkpt lat="50.58677" lon="3.07233">
        <ele>16.2</ele>
        <time>2018-06-24T15:56:50Z</time>
      </trkpt>
      <trkpt lat="50.58677" lon="3.07233">
        <ele>16.4</ele>
        <time>2018-06-24T15:56:54Z</time>
      </trkpt>
      <trkpt lat="50.58677" lon="3.07233">
        <ele>16.2</ele>
        <time>2018-06-24T15:56:58Z</time>
      </trkpt>
      <trkpt lat="50.58677" lon="3.07233">
        <ele>16.4</ele>
        <time>2018-06-24T15:57:02Z</time>
      </trkpt>
      <trkpt lat="50.58677" lon="3.07233">
        <ele>16.4</ele>
        <time>2018-06-24T15:57:06Z</time>
      </trkpt>
      <trkpt lat="50.58677" lon="3.07233">
        <ele>16.6</ele>
        <time>2018-06-24T15:57:10Z</time>
      </trkpt>
      <trkpt lat="50.58677" lon="3.07233">
        <ele>16.4</ele>
        <time>2018-06-24T15:57:14Z</time>
      </trkpt>
      <trkpt lat="50.58677" lon="3.07233">
        <ele>16.4</ele>
        <time>2018-06-24T15:57:18Z</time>
      </trkpt>
      <trkpt lat="50.58677" lon="3.07233">
        <ele>16.6</ele>
        <time>2018-06-24T15:57:22Z</time>
      </trkpt>
      <trkpt lat="50.58677" lon="3.07233">
        <ele>16.6</ele>
        <time>2018-06-24T15:57:26Z</time>
      </trkpt>
      <trkpt lat="50.58677" lon="3.07233">
        <ele>16.6</ele>
        <time>2018-06-24T15:57:30Z</time>
      </trkpt>
      <trkpt lat="50.58677" lon="3.07233">
        <ele>16.2</ele>
        <time>2018-06-24T15:57:34Z</time>
      </trkpt>
      <trkpt lat="50.58677" lon="3.07233">
        <ele>16.4</ele>
        <time>2018-06-24T15:57:38Z</time>
      </trkpt>
      <trkpt lat="50.58677" lon="3.07233">
        <ele>16.4</ele>
        <time>2018-06-24T15:57:42Z</time>
      </trkpt>
      <trkpt lat="50.58677" lon="3.07233">
        <ele>16.2</ele>
        <time>2018-06-24T15:57:46Z</time>
      </trkpt>
      <trkpt lat="50.58677" lon="3.07233">
        <ele>16.2</ele>
        <time>2018-06-24T15:57:50Z</time>
      </trkpt>
      <trkpt lat="50.58677" lon="3.07233">
        <ele>16.2</ele>
        <time>2018-06-24T15:57:54Z</time>
      </trkpt>
      <trkpt lat="50.58677" lon="3.07233">
        <ele>16</ele>
        <time>2018-06-24T15:57:58Z</time>
      </trkpt>
      <trkpt lat="50.58677" lon="3.07233">
        <ele>16.2</ele>
        <time>2018-06-24T15:58:02Z</time>
      </trkpt>
      <trkpt lat="50.58677" lon="3.07233">
        <ele>16</ele>
        <time>2018-06-24T15:58:06Z</time>
      </trkpt>
      <trkpt lat="50.58677" lon="3.07233">
        <ele>16</ele>
        <time>2018-06-24T15:58:10Z</time>
      </trkpt>
      <trkpt lat="50.58677" lon="3.07233">
        <ele>16.2</ele>
        <time>2018-06-24T15:58:14Z</time>
      </trkpt>
      <trkpt lat="50.58677" lon="3.07233">
        <ele>16.2</ele>
        <time>2018-06-24T15:58:18Z</time>
      </trkpt>
      <trkpt lat="50.58677" lon="3.07233">
        <ele>16.2</ele>
        <time>2018-06-24T15:58:22Z</time>
      </trkpt>
      <trkpt lat="50.58677" lon="3.07233">
        <ele>16.4</ele>
        <time>2018-06-24T15:58:26Z</time>
      </trkpt>
      <trkpt lat="50.58677" lon="3.07233">
        <ele>16.4</ele>
        <time>2018-06-24T15:58:30Z</time>
      </trkpt>
      <trkpt lat="50.58677" lon="3.07233">
        <ele>16.4</ele>
        <time>2018-06-24T15:58:34Z</time>
      </trkpt>
      <trkpt lat="50.58677" lon="3.07233">
        <ele>16.2</ele>
        <time>2018-06-24T15:58:38Z</time>
      </trkpt>
      <trkpt lat="50.58677" lon="3.07233">
        <ele>16.2</ele>
        <time>2018-06-24T15:58:42Z</time>
      </trkpt>
      <trkpt lat="50.58677" lon="3.07233">
        <ele>16</ele>
        <time>2018-06-24T15:58:46Z</time>
      </trkpt>
      <trkpt lat="50.58677" lon="3.07233">
        <ele>16.6</ele>
        <time>2018-06-24T15:58:50Z</time>
      </trkpt>
      <trkpt lat="50.58677" lon="3.07233">
        <ele>16</ele>
        <time>2018-06-24T15:58:54Z</time>
      </trkpt>
      <trkpt lat="50.58677" lon="3.07233">
        <ele>16.4</ele>
        <time>2018-06-24T15:58:58Z</time>
      </trkpt>
      <trkpt lat="50.58677" lon="3.07233">
        <ele>16.2</ele>
        <time>2018-06-24T15:59:02Z</time>
      </trkpt>
      <trkpt lat="50.58677" lon="3.07233">
        <ele>16.2</ele>
        <time>2018-06-24T15:59:06Z</time>
      </trkpt>
      <trkpt lat="50.58677" lon="3.07233">
        <ele>15.8</ele>
        <time>2018-06-24T15:59:10Z</time>
      </trkpt>
      <trkpt lat="50.58677" lon="3.07233">
        <ele>15.6</ele>
        <time>2018-06-24T15:59:14Z</time>
      </trkpt>
      <trkpt lat="50.58677" lon="3.07233">
        <ele>16</ele>
        <time>2018-06-24T15:59:18Z</time>
      </trkpt>
      <trkpt lat="50.58677" lon="3.07233">
        <ele>15.8</ele>
        <time>2018-06-24T15:59:22Z</time>
      </trkpt>
      <trkpt lat="50.58677" lon="3.07233">
        <ele>15.6</ele>
        <time>2018-06-24T15:59:26Z</time>
      </trkpt>
      <trkpt lat="50.58677" lon="3.07233">
        <ele>15.8</ele>
        <time>2018-06-24T15:59:30Z</time>
      </trkpt>
      <trkpt lat="50.58677" lon="3.07233">
        <ele>15.6</ele>
        <time>2018-06-24T15:59:34Z</time>
      </trkpt>
      <trkpt lat="50.58677" lon="3.07233">
        <ele>15.8</ele>
        <time>2018-06-24T15:59:38Z</time>
      </trkpt>
      <trkpt lat="50.58677" lon="3.07233">
        <ele>15.8</ele>
        <time>2018-06-24T15:59:42Z</time>
      </trkpt>
      <trkpt lat="50.58677" lon="3.07233">
        <ele>16</ele>
        <time>2018-06-24T15:59:46Z</time>
      </trkpt>
      <trkpt lat="50.58677" lon="3.07233">
        <ele>16.2</ele>
        <time>2018-06-24T15:59:50Z</time>
      </trkpt>
      <trkpt lat="50.58677" lon="3.07233">
        <ele>16</ele>
        <time>2018-06-24T15:59:54Z</time>
      </trkpt>
      <trkpt lat="50.58677" lon="3.07233">
        <ele>15.8</ele>
        <time>2018-06-24T15:59:58Z</time>
      </trkpt>
      <trkpt lat="50.58677" lon="3.07233">
        <ele>16</ele>
        <time>2018-06-24T16:00:02Z</time>
      </trkpt>
      <trkpt lat="50.58677" lon="3.07233">
        <ele>15.6</ele>
        <time>2018-06-24T16:00:06Z</time>
      </trkpt>
      <trkpt lat="50.58677" lon="3.07233">
        <ele>15.8</ele>
        <time>2018-06-24T16:00:10Z</time>
      </trkpt>
      <trkpt lat="50.58677" lon="3.07233">
        <ele>15.6</ele>
        <time>2018-06-24T16:00:14Z</time>
      </trkpt>
      <trkpt lat="50.58677" lon="3.07233">
        <ele>15.8</ele>
        <time>2018-06-24T16:00:18Z</time>
      </trkpt>
      <trkpt lat="50.58677" lon="3.07233">
        <ele>15.8</ele>
        <time>2018-06-24T16:00:22Z</time>
      </trkpt>
      <trkpt lat="50.58677" lon="3.07233">
        <ele>16</ele>
        <time>2018-06-24T16:00:26Z</time>
      </trkpt>
      <trkpt lat="50.58677" lon="3.07233">
        <ele>15.6</ele>
        <time>2018-06-24T16:00:30Z</time>
      </trkpt>
      <trkpt lat="50.58677" lon="3.07233">
        <ele>15.6</ele>
        <time>2018-06-24T16:00:34Z</time>
      </trkpt>
      <trkpt lat="50.58677" lon="3.07233">
        <ele>15.6</ele>
        <time>2018-06-24T16:00:38Z</time>
      </trkpt>
      <trkpt lat="50.58677" lon="3.07233">
        <ele>15.6</ele>
        <time>2018-06-24T16:00:42Z</time>
      </trkpt>
      <trkpt lat="50.58677" lon="3.07233">
        <ele>15.8</ele>
        <time>2018-06-24T16:00:46Z</time>
      </trkpt>
      <trkpt lat="50.58677" lon="3.07233">
        <ele>15.8</ele>
        <time>2018-06-24T16:00:50Z</time>
      </trkpt>
      <trkpt lat="50.58677" lon="3.07233">
        <ele>15.4</ele>
        <time>2018-06-24T16:00:54Z</time>
      </trkpt>
      <trkpt lat="50.58677" lon="3.07233">
        <ele>15.2</ele>
        <time>2018-06-24T16:00:58Z</time>
      </trkpt>
      <trkpt lat="50.58677" lon="3.07233">
        <ele>15.4</ele>
        <time>2018-06-24T16:01:02Z</time>
      </trkpt>
      <trkpt lat="50.58677" lon="3.07233">
        <ele>16</ele>
        <time>2018-06-24T16:01:06Z</time>
      </trkpt>
      <trkpt lat="50.58677" lon="3.07233">
        <ele>15.8</ele>
        <time>2018-06-24T16:01:10Z</time>
      </trkpt>
      <trkpt lat="50.58677" lon="3.07233">
        <ele>16</ele>
        <time>2018-06-24T16:01:14Z</time>
      </trkpt>
      <trkpt lat="50.58677" lon="3.07233">
        <ele>16</ele>
        <time>2018-06-24T16:01:18Z</time>
      </trkpt>
      <trkpt lat="50.58677" lon="3.07233">
        <ele>15.8</ele>
        <time>2018-06-24T16:01:22Z</time>
      </trkpt>
      <trkpt lat="50.58677" lon="3.07233">
        <ele>16.2</ele>
        <time>2018-06-24T16:01:26Z</time>
      </trkpt>
      <trkpt lat="50.58677" lon="3.07233">
        <ele>16.2</ele>
        <time>2018-06-24T16:01:30Z</time>
      </trkpt>
      <trkpt lat="50.58677" lon="3.07233">
        <ele>16</ele>
        <time>2018-06-24T16:01:34Z</time>
      </trkpt>
      <trkpt lat="50.58677" lon="3.07233">
        <ele>15.8</ele>
        <time>2018-06-24T16:01:38Z</time>
      </trkpt>
      <trkpt lat="50.58677" lon="3.07233">
        <ele>16</ele>
        <time>2018-06-24T16:01:42Z</time>
      </trkpt>
      <trkpt lat="50.58677" lon="3.07233">
        <ele>16.2</ele>
        <time>2018-06-24T16:01:46Z</time>
      </trkpt>
      <trkpt lat="50.58677" lon="3.07233">
        <ele>16</ele>
        <time>2018-06-24T16:01:50Z</time>
      </trkpt>
      <trkpt lat="50.58677" lon="3.07233">
        <ele>15.6</ele>
        <time>2018-06-24T16:01:54Z</time>
      </trkpt>
      <trkpt lat="50.58677" lon="3.07233">
        <ele>16</ele>
        <time>2018-06-24T16:01:58Z</time>
      </trkpt>
      <trkpt lat="50.58677" lon="3.07233">
        <ele>16</ele>
        <time>2018-06-24T16:02:02Z</time>
      </trkpt>
      <trkpt lat="50.58677" lon="3.07233">
        <ele>16</ele>
        <time>2018-06-24T16:02:06Z</time>
      </trkpt>
      <trkpt lat="50.58677" lon="3.07233">
        <ele>16.2</ele>
        <time>2018-06-24T16:02:10Z</time>
      </trkpt>
      <trkpt lat="50.58677" lon="3.07233">
        <ele>16.2</ele>
        <time>2018-06-24T16:02:14Z</time>
      </trkpt>
      <trkpt lat="50.58677" lon="3.07233">
        <ele>16.2</ele>
        <time>2018-06-24T16:02:18Z</time>
      </trkpt>
      <trkpt lat="50.58677" lon="3.07233">
        <ele>15.8</ele>
        <time>2018-06-24T16:02:22Z</time>
      </trkpt>
      <trkpt lat="50.58677" lon="3.07233">
        <ele>15.8</ele>
        <time>2018-06-24T16:02:26Z</time>
      </trkpt>
      <trkpt lat="50.58677" lon="3.07233">
        <ele>15.6</ele>
        <time>2018-06-24T16:02:30Z</time>
      </trkpt>
      <trkpt lat="50.58677" lon="3.07233">
        <ele>16.4</ele>
        <time>2018-06-24T16:02:34Z</time>
      </trkpt>
      <trkpt lat="50.58677" lon="3.07233">
        <ele>16.4</ele>
        <time>2018-06-24T16:02:38Z</time>
      </trkpt>
      <trkpt lat="50.58677" lon="3.07233">
        <ele>16</ele>
        <time>2018-06-24T16:02:42Z</time>
      </trkpt>
      <trkpt lat="50.58677" lon="3.07233">
        <ele>16.2</ele>
        <time>2018-06-24T16:02:46Z</time>
      </trkpt>
      <trkpt lat="50.58677" lon="3.07233">
        <ele>15.8</ele>
        <time>2018-06-24T16:02:50Z</time>
      </trkpt>
      <trkpt lat="50.58677" lon="3.07233">
        <ele>16.2</ele>
        <time>2018-06-24T16:02:54Z</time>
      </trkpt>
      <trkpt lat="50.58677" lon="3.07233">
        <ele>16.4</ele>
        <time>2018-06-24T16:02:58Z</time>
      </trkpt>
      <trkpt lat="50.58677" lon="3.07233">
        <ele>16.2</ele>
        <time>2018-06-24T16:03:02Z</time>
      </trkpt>
      <trkpt lat="50.58677" lon="3.07233">
        <ele>16</ele>
        <time>2018-06-24T16:03:06Z</time>
      </trkpt>
      <trkpt lat="50.58677" lon="3.07233">
        <ele>16.2</ele>
        <time>2018-06-24T16:03:10Z</time>
      </trkpt>
      <trkpt lat="50.58677" lon="3.07233">
        <ele>16.2</ele>
        <time>2018-06-24T16:03:14Z</time>
      </trkpt>
      <trkpt lat="50.58677" lon="3.07233">
        <ele>16</ele>
        <time>2018-06-24T16:03:18Z</time>
      </trkpt>
      <trkpt lat="50.58677" lon="3.07233">
        <ele>16.2</ele>
        <time>2018-06-24T16:03:22Z</time>
      </trkpt>
      <trkpt lat="50.58677" lon="3.07233">
        <ele>15.8</ele>
        <time>2018-06-24T16:03:26Z</time>
      </trkpt>
      <trkpt lat="50.58677" lon="3.07233">
        <ele>15.8</ele>
        <time>2018-06-24T16:03:30Z</time>
      </trkpt>
      <trkpt lat="50.58677" lon="3.07233">
        <ele>16</ele>
        <time>2018-06-24T16:03:34Z</time>
      </trkpt>
      <trkpt lat="50.58677" lon="3.07233">
        <ele>16.4</ele>
        <time>2018-06-24T16:03:38Z</time>
      </trkpt>
      <trkpt lat="50.58677" lon="3.07233">
        <ele>16.2</ele>
        <time>2018-06-24T16:03:42Z</time>
      </trkpt>
      <trkpt lat="50.58677" lon="3.07233">
        <ele>16</ele>
        <time>2018-06-24T16:03:46Z</time>
      </trkpt>
      <trkpt lat="50.58677" lon="3.07233">
        <ele>16.4</ele>
        <time>2018-06-24T16:03:50Z</time>
      </trkpt>
      <trkpt lat="50.58677" lon="3.07233">
        <ele>16.6</ele>
        <time>2018-06-24T16:03:54Z</time>
      </trkpt>
      <trkpt lat="50.58677" lon="3.07233">
        <ele>16.2</ele>
        <time>2018-06-24T16:03:58Z</time>
      </trkpt>
      <trkpt lat="50.58677" lon="3.07233">
        <ele>15.8</ele>
        <time>2018-06-24T16:04:02Z</time>
      </trkpt>
      <trkpt lat="50.58677" lon="3.07233">
        <ele>16</ele>
        <time>2018-06-24T16:04:06Z</time>
      </trkpt>
      <trkpt lat="50.58677" lon="3.07233">
        <ele>16.2</ele>
        <time>2018-06-24T16:04:10Z</time>
      </trkpt>
      <trkpt lat="50.58677" lon="3.07233">
        <ele>16.4</ele>
        <time>2018-06-24T16:04:14Z</time>
      </trkpt>
      <trkpt lat="50.58677" lon="3.07233">
        <ele>16.6</ele>
        <time>2018-06-24T16:04:18Z</time>
      </trkpt>
      <trkpt lat="50.58677" lon="3.07233">
        <ele>16.6</ele>
        <time>2018-06-24T16:04:22Z</time>
      </trkpt>
      <trkpt lat="50.58677" lon="3.07233">
        <ele>16.6</ele>
        <time>2018-06-24T16:04:26Z</time>
      </trkpt>
      <trkpt lat="50.58677" lon="3.07233">
        <ele>16</ele>
        <time>2018-06-24T16:04:30Z</time>
      </trkpt>
      <trkpt lat="50.58677" lon="3.07233">
        <ele>15.8</ele>
        <time>2018-06-24T16:04:34Z</time>
      </trkpt>
      <trkpt lat="50.58677" lon="3.07233">
        <ele>16.2</ele>
        <time>2018-06-24T16:04:38Z</time>
      </trkpt>
      <trkpt lat="50.58677" lon="3.07233">
        <ele>16</ele>
        <time>2018-06-24T16:04:42Z</time>
      </trkpt>
      <trkpt lat="50.58677" lon="3.07233">
        <ele>16.4</ele>
        <time>2018-06-24T16:04:46Z</time>
      </trkpt>
      <trkpt lat="50.58677" lon="3.07233">
        <ele>16</ele>
        <time>2018-06-24T16:04:50Z</time>
      </trkpt>
      <trkpt lat="50.58677" lon="3.07233">
        <ele>16.2</ele>
        <time>2018-06-24T16:04:54Z</time>
      </trkpt>
      <trkpt lat="50.58677" lon="3.07233">
        <ele>16.2</ele>
        <time>2018-06-24T16:04:58Z</time>
      </trkpt>
      <trkpt lat="50.58677" lon="3.07233">
        <ele>16</ele>
        <time>2018-06-24T16:05:02Z</time>
      </trkpt>
      <trkpt lat="50.58677" lon="3.07233">
        <ele>16.4</ele>
        <time>2018-06-24T16:05:06Z</time>
      </trkpt>
      <trkpt lat="50.58677" lon="3.07233">
        <ele>16.2</ele>
        <time>2018-06-24T16:05:10Z</time>
      </trkpt>
      <trkpt lat="50.58677" lon="3.07233">
        <ele>16.4</ele>
        <time>2018-06-24T16:05:14Z</time>
      </trkpt>
      <trkpt lat="50.58677" lon="3.07233">
        <ele>16.2</ele>
        <time>2018-06-24T16:05:18Z</time>
      </trkpt>
      <trkpt lat="50.58677" lon="3.07233">
        <ele>16.4</ele>
        <time>2018-06-24T16:05:22Z</time>
      </trkpt>
      <trkpt lat="50.58677" lon="3.07233">
        <ele>16.2</ele>
        <time>2018-06-24T16:05:26Z</time>
      </trkpt>
      <trkpt lat="50.58677" lon="3.07233">
        <ele>16.6</ele>
        <time>2018-06-24T16:05:30Z</time>
      </trkpt>
      <trkpt lat="50.58677" lon="3.07233">
        <ele>16.2</ele>
        <time>2018-06-24T16:05:34Z</time>
      </trkpt>
      <trkpt lat="50.58677" lon="3.07233">
        <ele>16.2</ele>
        <time>2018-06-24T16:05:38Z</time>
      </trkpt>
      <trkpt lat="50.58677" lon="3.07233">
        <ele>16.2</ele>
        <time>2018-06-24T16:05:42Z</time>
      </trkpt>
      <trkpt lat="50.58677" lon="3.07233">
        <ele>16.4</ele>
        <time>2018-06-24T16:05:46Z</time>
      </trkpt>
      <trkpt lat="50.58677" lon="3.07233">
        <ele>16.4</ele>
        <time>2018-06-24T16:05:50Z</time>
      </trkpt>
      <trkpt lat="50.58677" lon="3.07233">
        <ele>16.4</ele>
        <time>2018-06-24T16:05:54Z</time>
      </trkpt>
      <trkpt lat="50.58677" lon="3.07233">
        <ele>16.4</ele>
        <time>2018-06-24T16:05:58Z</time>
      </trkpt>
      <trkpt lat="50.58677" lon="3.07233">
        <ele>16.4</ele>
        <time>2018-06-24T16:06:02Z</time>
      </trkpt>
      <trkpt lat="50.58677" lon="3.07233">
        <ele>16.4</ele>
        <time>2018-06-24T16:06:06Z</time>
      </trkpt>
      <trkpt lat="50.58677" lon="3.07233">
        <ele>16.6</ele>
        <time>2018-06-24T16:06:10Z</time>
      </trkpt>
      <trkpt lat="50.58677" lon="3.07233">
        <ele>16.4</ele>
        <time>2018-06-24T16:06:14Z</time>
      </trkpt>
      <trkpt lat="50.58677" lon="3.07233">
        <ele>16.4</ele>
        <time>2018-06-24T16:06:18Z</time>
      </trkpt>
      <trkpt lat="50.58677" lon="3.07233">
        <ele>16.6</ele>
        <time>2018-06-24T16:06:22Z</time>
      </trkpt>
      <trkpt lat="50.58677" lon="3.07233">
        <ele>16.4</ele>
        <time>2018-06-24T16:06:26Z</time>
      </trkpt>
      <trkpt lat="50.58677" lon="3.07233">
        <ele>16.4</ele>
        <time>2018-06-24T16:06:30Z</time>
      </trkpt>
      <trkpt lat="50.58677" lon="3.07233">
        <ele>16.4</ele>
        <time>2018-06-24T16:06:34Z</time>
      </trkpt>
      <trkpt lat="50.58677" lon="3.07233">
        <ele>16.2</ele>
        <time>2018-06-24T16:06:38Z</time>
      </trkpt>
      <trkpt lat="50.58677" lon="3.07233">
        <ele>16.6</ele>
        <time>2018-06-24T16:06:42Z</time>
      </trkpt>
      <trkpt lat="50.58677" lon="3.07233">
        <ele>16.6</ele>
        <time>2018-06-24T16:06:46Z</time>
      </trkpt>
      <trkpt lat="50.58677" lon="3.07233">
        <ele>16.6</ele>
        <time>2018-06-24T16:06:50Z</time>
      </trkpt>
      <trkpt lat="50.58677" lon="3.07233">
        <ele>16.8</ele>
        <time>2018-06-24T16:06:54Z</time>
      </trkpt>
      <trkpt lat="50.58677" lon="3.07233">
        <ele>16.6</ele>
        <time>2018-06-24T16:06:58Z</time>
      </trkpt>
      <trkpt lat="50.58677" lon="3.07233">
        <ele>16.6</ele>
        <time>2018-06-24T16:07:02Z</time>
      </trkpt>
      <trkpt lat="50.58677" lon="3.07233">
        <ele>16.8</ele>
        <time>2018-06-24T16:07:06Z</time>
      </trkpt>
      <trkpt lat="50.58677" lon="3.07233">
        <ele>16.6</ele>
        <time>2018-06-24T16:07:10Z</time>
      </trkpt>
      <trkpt lat="50.58677" lon="3.07233">
        <ele>16.6</ele>
        <time>2018-06-24T16:07:14Z</time>
      </trkpt>
      <trkpt lat="50.58677" lon="3.07233">
        <ele>16.8</ele>
        <time>2018-06-24T16:07:18Z</time>
      </trkpt>
      <trkpt lat="50.58677" lon="3.07233">
        <ele>16.8</ele>
        <time>2018-06-24T16:07:22Z</time>
      </trkpt>
      <trkpt lat="50.58677" lon="3.07233">
        <ele>16.8</ele>
        <time>2018-06-24T16:07:26Z</time>
      </trkpt>
      <trkpt lat="50.58677" lon="3.07233">
        <ele>16.6</ele>
        <time>2018-06-24T16:07:30Z</time>
      </trkpt>
      <trkpt lat="50.58677" lon="3.07233">
        <ele>16.6</ele>
        <time>2018-06-24T16:07:34Z</time>
      </trkpt>
      <trkpt lat="50.58677" lon="3.07233">
        <ele>16.6</ele>
        <time>2018-06-24T16:07:38Z</time>
      </trkpt>
      <trkpt lat="50.58677" lon="3.07233">
        <ele>16.8</ele>
        <time>2018-06-24T16:07:42Z</time>
      </trkpt>
      <trkpt lat="50.58677" lon="3.07233">
        <ele>16.6</ele>
        <time>2018-06-24T16:07:46Z</time>
      </trkpt>
      <trkpt lat="50.58677" lon="3.07233">
        <ele>16.6</ele>
        <time>2018-06-24T16:07:50Z</time>
      </trkpt>
      <trkpt lat="50.58677" lon="3.07233">
        <ele>16.8</ele>
        <time>2018-06-24T16:07:54Z</time>
      </trkpt>
      <trkpt lat="50.58677" lon="3.07233">
        <ele>16.8</ele>
        <time>2018-06-24T16:07:58Z</time>
      </trkpt>
      <trkpt lat="50.58677" lon="3.07233">
        <ele>16.6</ele>
        <time>2018-06-24T16:08:02Z</time>
      </trkpt>
      <trkpt lat="50.58677" lon="3.07233">
        <ele>16.8</ele>
        <time>2018-06-24T16:08:06Z</time>
      </trkpt>
      <trkpt lat="50.58677" lon="3.07233">
        <ele>16.8</ele>
        <time>2018-06-24T16:08:10Z</time>
      </trkpt>
      <trkpt lat="50.58677" lon="3.07233">
        <ele>16.8</ele>
        <time>2018-06-24T16:08:14Z</time>
      </trkpt>
      <trkpt lat="50.58677" lon="3.07233">
        <ele>17</ele>
        <time>2018-06-24T16:08:18Z</time>
      </trkpt>
      <trkpt lat="50.58677" lon="3.07233">
        <ele>16.6</ele>
        <time>2018-06-24T16:08:22Z</time>
      </trkpt>
      <trkpt lat="50.58677" lon="3.07233">
        <ele>16.6</ele>
        <time>2018-06-24T16:08:26Z</time>
      </trkpt>
      <trkpt lat="50.58677" lon="3.07233">
        <ele>16.6</ele>
        <time>2018-06-24T16:08:30Z</time>
      </trkpt>
      <trkpt lat="50.58677" lon="3.07233">
        <ele>16.8</ele>
        <time>2018-06-24T16:08:34Z</time>
      </trkpt>
      <trkpt lat="50.58677" lon="3.07233">
        <ele>16.8</ele>
        <time>2018-06-24T16:08:38Z</time>
      </trkpt>
      <trkpt lat="50.58677" lon="3.07233">
        <ele>16.6</ele>
        <time>2018-06-24T16:08:42Z</time>
      </trkpt>
      <trkpt lat="50.58677" lon="3.07233">
        <ele>16.8</ele>
        <time>2018-06-24T16:08:46Z</time>
      </trkpt>
      <trkpt lat="50.58677" lon="3.07233">
        <ele>17</ele>
        <time>2018-06-24T16:08:50Z</time>
      </trkpt>
      <trkpt lat="50.58677" lon="3.07233">
        <ele>16.6</ele>
        <time>2018-06-24T16:08:54Z</time>
      </trkpt>
      <trkpt lat="50.58677" lon="3.07233">
        <ele>16.6</ele>
        <time>2018-06-24T16:08:58Z</time>
      </trkpt>
      <trkpt lat="50.58677" lon="3.07233">
        <ele>16.6</ele>
        <time>2018-06-24T16:09:02Z</time>
      </trkpt>
      <trkpt lat="50.58677" lon="3.07233">
        <ele>16.8</ele>
        <time>2018-06-24T16:09:06Z</time>
      </trkpt>
      <trkpt lat="50.58677" lon="3.07233">
        <ele>16.6</ele>
        <time>2018-06-24T16:09:10Z</time>
      </trkpt>
      <trkpt lat="50.58677" lon="3.07233">
        <ele>16.2</ele>
        <time>2018-06-24T16:09:14Z</time>
      </trkpt>
      <trkpt lat="50.58677" lon="3.07233">
        <ele>16.4</ele>
        <time>2018-06-24T16:09:18Z</time>
      </trkpt>
      <trkpt lat="50.58677" lon="3.07233">
        <ele>16.8</ele>
        <time>2018-06-24T16:09:22Z</time>
      </trkpt>
      <trkpt lat="50.58677" lon="3.07233">
        <ele>17</ele>
        <time>2018-06-24T16:09:26Z</time>
      </trkpt>
      <trkpt lat="50.58677" lon="3.07233">
        <ele>17</ele>
        <time>2018-06-24T16:09:30Z</time>
      </trkpt>
      <trkpt lat="50.58677" lon="3.07233">
        <ele>17.2</ele>
        <time>2018-06-24T16:09:34Z</time>
      </trkpt>
      <trkpt lat="50.58677" lon="3.07233">
        <ele>16.6</ele>
        <time>2018-06-24T16:09:38Z</time>
      </trkpt>
      <trkpt lat="50.58677" lon="3.07233">
        <ele>17</ele>
        <time>2018-06-24T16:09:42Z</time>
      </trkpt>
      <trkpt lat="50.58677" lon="3.07233">
        <ele>16.6</ele>
        <time>2018-06-24T16:09:46Z</time>
      </trkpt>
      <trkpt lat="50.58677" lon="3.07233">
        <ele>16.6</ele>
        <time>2018-06-24T16:09:50Z</time>
      </trkpt>
      <trkpt lat="50.58677" lon="3.07233">
        <ele>16.6</ele>
        <time>2018-06-24T16:09:54Z</time>
      </trkpt>
      <trkpt lat="50.58677" lon="3.07233">
        <ele>16.8</ele>
        <time>2018-06-24T16:09:58Z</time>
      </trkpt>
      <trkpt lat="50.58677" lon="3.07233">
        <ele>16.8</ele>
        <time>2018-06-24T16:10:02Z</time>
      </trkpt>
      <trkpt lat="50.58677" lon="3.07233">
        <ele>17</ele>
        <time>2018-06-24T16:10:06Z</time>
      </trkpt>
      <trkpt lat="50.58677" lon="3.07233">
        <ele>16.6</ele>
        <time>2018-06-24T16:10:10Z</time>
      </trkpt>
      <trkpt lat="50.58677" lon="3.07233">
        <ele>17</ele>
        <time>2018-06-24T16:10:14Z</time>
      </trkpt>
      <trkpt lat="50.58677" lon="3.07233">
        <ele>16.8</ele>
        <time>2018-06-24T16:10:18Z</time>
      </trkpt>
      <trkpt lat="50.58677" lon="3.07233">
        <ele>16.6</ele>
        <time>2018-06-24T16:10:22Z</time>
      </trkpt>
      <trkpt lat="50.58677" lon="3.07233">
        <ele>17</ele>
        <time>2018-06-24T16:10:26Z</time>
      </trkpt>
      <trkpt lat="50.58677" lon="3.07233">
        <ele>17</ele>
        <time>2018-06-24T16:10:30Z</time>
      </trkpt>
      <trkpt lat="50.58677" lon="3.07233">
        <ele>16.8</ele>
        <time>2018-06-24T16:10:34Z</time>
      </trkpt>
      <trkpt lat="50.58677" lon="3.07233">
        <ele>16.8</ele>
        <time>2018-06-24T16:10:38Z</time>
      </trkpt>
      <trkpt lat="50.58677" lon="3.07233">
        <ele>17</ele>
        <time>2018-06-24T16:10:42Z</time>
      </trkpt>
      <trkpt lat="50.58677" lon="3.07233">
        <ele>17</ele>
        <time>2018-06-24T16:10:46Z</time>
      </trkpt>
      <trkpt lat="50.58677" lon="3.07233">
        <ele>17</ele>
        <time>2018-06-24T16:10:50Z</time>
      </trkpt>
      <trkpt lat="50.58677" lon="3.07233">
        <ele>17</ele>
        <time>2018-06-24T16:10:54Z</time>
      </trkpt>
      <trkpt lat="50.58677" lon="3.07233">
        <ele>17</ele>
        <time>2018-06-24T16:10:58Z</time>
      </trkpt>
      <trkpt lat="50.58677" lon="3.07233">
        <ele>16.8</ele>
        <time>2018-06-24T16:11:02Z</time>
      </trkpt>
      <trkpt lat="50.58677" lon="3.07233">
        <ele>16.6</ele>
        <time>2018-06-24T16:11:06Z</time>
      </trkpt>
      <trkpt lat="50.58677" lon="3.07233">
        <ele>17</ele>
        <time>2018-06-24T16:11:10Z</time>
      </trkpt>
      <trkpt lat="50.58677" lon="3.07233">
        <ele>17</ele>
        <time>2018-06-24T16:11:14Z</time>
      </trkpt>
      <trkpt lat="50.58677" lon="3.07233">
        <ele>16.8</ele>
        <time>2018-06-24T16:11:18Z</time>
      </trkpt>
      <trkpt lat="50.58677" lon="3.07233">
        <ele>16.6</ele>
        <time>2018-06-24T16:11:22Z</time>
      </trkpt>
      <trkpt lat="50.58677" lon="3.07233">
        <ele>16.8</ele>
        <time>2018-06-24T16:11:26Z</time>
      </trkpt>
      <trkpt lat="50.58677" lon="3.07233">
        <ele>16.6</ele>
        <time>2018-06-24T16:11:30Z</time>
      </trkpt>
      <trkpt lat="50.58677" lon="3.07233">
        <ele>16.6</ele>
        <time>2018-06-24T16:11:34Z</time>
      </trkpt>
      <trkpt lat="50.58677" lon="3.07233">
        <ele>16.8</ele>
        <time>2018-06-24T16:11:38Z</time>
      </trkpt>
      <trkpt lat="50.58677" lon="3.07233">
        <ele>16.8</ele>
        <time>2018-06-24T16:11:42Z</time>
      </trkpt>
      <trkpt lat="50.58677" lon="3.07233">
        <ele>16.8</ele>
        <time>2018-06-24T16:11:46Z</time>
      </trkpt>
      <trkpt lat="50.58677" lon="3.07233">
        <ele>16.8</ele>
        <time>2018-06-24T16:11:50Z</time>
      </trkpt>
      <trkpt lat="50.58677" lon="3.07233">
        <ele>17</ele>
        <time>2018-06-24T16:11:54Z</time>
      </trkpt>
      <trkpt lat="50.58677" lon="3.07233">
        <ele>16.8</ele>
        <time>2018-06-24T16:11:58Z</time>
      </trkpt>
      <trkpt lat="50.58677" lon="3.07233">
        <ele>17</ele>
        <time>2018-06-24T16:12:02Z</time>
      </trkpt>
      <trkpt lat="50.58677" lon="3.07233">
        <ele>17</ele>
        <time>2018-06-24T16:12:06Z</time>
      </trkpt>
      <trkpt lat="50.58677" lon="3.07233">
        <ele>16.8</ele>
        <time>2018-06-24T16:12:10Z</time>
      </trkpt>
      <trkpt lat="50.58677" lon="3.07233">
        <ele>17</ele>
        <time>2018-06-24T16:12:14Z</time>
      </trkpt>
      <trkpt lat="50.58677" lon="3.07233">
        <ele>17</ele>
        <time>2018-06-24T16:12:18Z</time>
      </trkpt>
      <trkpt lat="50.58677" lon="3.07233">
        <ele>17</ele>
        <time>2018-06-24T16:12:22Z</time>
      </trkpt>
      <trkpt lat="50.58677" lon="3.07233">
        <ele>16.8</ele>
        <time>2018-06-24T16:12:26Z</time>
      </trkpt>
      <trkpt lat="50.58677" lon="3.07233">
        <ele>17</ele>
        <time>2018-06-24T16:12:30Z</time>
      </trkpt>
      <trkpt lat="50.58677" lon="3.07233">
        <ele>17.4</ele>
        <time>2018-06-24T16:12:34Z</time>
      </trkpt>
      <trkpt lat="50.58679" lon="3.07233">
        <ele>17</ele>
        <time>2018-06-24T16:12:38Z</time>
      </trkpt>
      <trkpt lat="50.58679" lon="3.07233">
        <ele>17</ele>
        <time>2018-06-24T16:12:42Z</time>
      </trkpt>
      <trkpt lat="50.58679" lon="3.07233">
        <ele>16.8</ele>
        <time>2018-06-24T16:12:46Z</time>
      </trkpt>
      <trkpt lat="50.58679" lon="3.07232">
        <ele>17</ele>
        <time>2018-06-24T16:12:50Z</time>
      </trkpt>
      <trkpt lat="50.58682" lon="3.0723">
        <ele>17.2</ele>
        <time>2018-06-24T16:12:54Z</time>
      </trkpt>
      <trkpt lat="50.58682" lon="3.0723">
        <ele>17.2</ele>
        <time>2018-06-24T16:12:58Z</time>
      </trkpt>
      <trkpt lat="50.58683" lon="3.07226">
        <ele>17</ele>
        <time>2018-06-24T16:13:02Z</time>
      </trkpt>
      <trkpt lat="50.58687" lon="3.07224">
        <ele>16.4</ele>
        <time>2018-06-24T16:13:06Z</time>
      </trkpt>
      <trkpt lat="50.58691" lon="3.07222">
        <ele>16.4</ele>
        <time>2018-06-24T16:13:10Z</time>
      </trkpt>
      <trkpt lat="50.58692" lon="3.07222">
        <ele>16.2</ele>
        <time>2018-06-24T16:13:14Z</time>
      </trkpt>
      <trkpt lat="50.58692" lon="3.07221">
        <ele>16.6</ele>
        <time>2018-06-24T16:13:18Z</time>
      </trkpt>
      <trkpt lat="50.58697" lon="3.07222">
        <ele>16.8</ele>
        <time>2018-06-24T16:13:22Z</time>
      </trkpt>
      <trkpt lat="50.58701" lon="3.07222">
        <ele>16.4</ele>
        <time>2018-06-24T16:13:26Z</time>
      </trkpt>
      <trkpt lat="50.58705" lon="3.0722">
        <ele>16.8</ele>
        <time>2018-06-24T16:13:30Z</time>
      </trkpt>
      <trkpt lat="50.58709" lon="3.07218">
        <ele>16.6</ele>
        <time>2018-06-24T16:13:34Z</time>
      </trkpt>
      <trkpt lat="50.58713" lon="3.07215">
        <ele>16.6</ele>
        <time>2018-06-24T16:13:38Z</time>
      </trkpt>
      <trkpt lat="50.58718" lon="3.07211">
        <ele>16.6</ele>
        <time>2018-06-24T16:13:42Z</time>
      </trkpt>
      <trkpt lat="50.58722" lon="3.07207">
        <ele>16.6</ele>
        <time>2018-06-24T16:13:46Z</time>
      </trkpt>
      <trkpt lat="50.58727" lon="3.07206">
        <ele>16.8</ele>
        <time>2018-06-24T16:13:50Z</time>
      </trkpt>
      <trkpt lat="50.58733" lon="3.07211">
        <ele>16.4</ele>
        <time>2018-06-24T16:13:54Z</time>
      </trkpt>
      <trkpt lat="50.58738" lon="3.07218">
        <ele>16.6</ele>
        <time>2018-06-24T16:13:58Z</time>
      </trkpt>
      <trkpt lat="50.58742" lon="3.07227">
        <ele>17</ele>
        <time>2018-06-24T16:14:02Z</time>
      </trkpt>
      <trkpt lat="50.58747" lon="3.07237">
        <ele>17.6</ele>
        <time>2018-06-24T16:14:06Z</time>
      </trkpt>
      <trkpt lat="50.58753" lon="3.07247">
        <ele>17.4</ele>
        <time>2018-06-24T16:14:10Z</time>
      </trkpt>
      <trkpt lat="50.58759" lon="3.07258">
        <ele>17</ele>
        <time>2018-06-24T16:14:14Z</time>
      </trkpt>
      <trkpt lat="50.58765" lon="3.07271">
        <ele>17.6</ele>
        <time>2018-06-24T16:14:18Z</time>
      </trkpt>
      <trkpt lat="50.58772" lon="3.07284">
        <ele>17</ele>
        <time>2018-06-24T16:14:22Z</time>
      </trkpt>
      <trkpt lat="50.58779" lon="3.07296">
        <ele>17.6</ele>
        <time>2018-06-24T16:14:26Z</time>
      </trkpt>
      <trkpt lat="50.58786" lon="3.07309">
        <ele>17.6</ele>
        <time>2018-06-24T16:14:30Z</time>
      </trkpt>
      <trkpt lat="50.58793" lon="3.07323">
        <ele>17.6</ele>
        <time>2018-06-24T16:14:34Z</time>
      </trkpt>
      <trkpt lat="50.588" lon="3.07338">
        <ele>17.8</ele>
        <time>2018-06-24T16:14:38Z</time>
      </trkpt>
      <trkpt lat="50.58807" lon="3.07353">
        <ele>17.6</ele>
        <time>2018-06-24T16:14:42Z</time>
      </trkpt>
      <trkpt lat="50.58815" lon="3.07368">
        <ele>18.2</ele>
        <time>2018-06-24T16:14:46Z</time>
      </trkpt>
      <trkpt lat="50.58823" lon="3.07382">
        <ele>17.8</ele>
        <time>2018-06-24T16:14:50Z</time>
      </trkpt>
      <trkpt lat="50.58831" lon="3.07396">
        <ele>18</ele>
        <time>2018-06-24T16:14:54Z</time>
      </trkpt>
      <trkpt lat="50.58838" lon="3.07411">
        <ele>17.6</ele>
        <time>2018-06-24T16:14:58Z</time>
      </trkpt>
      <trkpt lat="50.58847" lon="3.07426">
        <ele>18</ele>
        <time>2018-06-24T16:15:02Z</time>
      </trkpt>
      <trkpt lat="50.58855" lon="3.07439">
        <ele>18</ele>
        <time>2018-06-24T16:15:06Z</time>
      </trkpt>
      <trkpt lat="50.58863" lon="3.07454">
        <ele>18.4</ele>
        <time>2018-06-24T16:15:10Z</time>
      </trkpt>
      <trkpt lat="50.58871" lon="3.0747">
        <ele>18.4</ele>
        <time>2018-06-24T16:15:14Z</time>
      </trkpt>
      <trkpt lat="50.58879" lon="3.07486">
        <ele>18.4</ele>
        <time>2018-06-24T16:15:18Z</time>
      </trkpt>
      <trkpt lat="50.58887" lon="3.07502">
        <ele>18.2</ele>
        <time>2018-06-24T16:15:22Z</time>
      </trkpt>
      <trkpt lat="50.58894" lon="3.07517">
        <ele>17.8</ele>
        <time>2018-06-24T16:15:26Z</time>
      </trkpt>
      <trkpt lat="50.58901" lon="3.0753">
        <ele>17</ele>
        <time>2018-06-24T16:15:30Z</time>
      </trkpt>
      <trkpt lat="50.58908" lon="3.07546">
        <ele>17.2</ele>
        <time>2018-06-24T16:15:34Z</time>
      </trkpt>
      <trkpt lat="50.58909" lon="3.07565">
        <ele>17.4</ele>
        <time>2018-06-24T16:15:38Z</time>
      </trkpt>
      <trkpt lat="50.58907" lon="3.07584">
        <ele>17.2</ele>
        <time>2018-06-24T16:15:42Z</time>
      </trkpt>
      <trkpt lat="50.5891" lon="3.07593">
        <ele>17</ele>
        <time>2018-06-24T16:15:46Z</time>
      </trkpt>
      <trkpt lat="50.5892" lon="3.07593">
        <ele>17</ele>
        <time>2018-06-24T16:15:50Z</time>
      </trkpt>
      <trkpt lat="50.5893" lon="3.07583">
        <ele>17.6</ele>
        <time>2018-06-24T16:15:54Z</time>
      </trkpt>
      <trkpt lat="50.5894" lon="3.07573">
        <ele>18</ele>
        <time>2018-06-24T16:15:58Z</time>
      </trkpt>
      <trkpt lat="50.58949" lon="3.07562">
        <ele>18.4</ele>
        <time>2018-06-24T16:16:02Z</time>
      </trkpt>
      <trkpt lat="50.58957" lon="3.0755">
        <ele>18.4</ele>
        <time>2018-06-24T16:16:06Z</time>
      </trkpt>
      <trkpt lat="50.58965" lon="3.0754">
        <ele>19</ele>
        <time>2018-06-24T16:16:10Z</time>
      </trkpt>
      <trkpt lat="50.58972" lon="3.07525">
        <ele>18.4</ele>
        <time>2018-06-24T16:16:14Z</time>
      </trkpt>
      <trkpt lat="50.58981" lon="3.0751">
        <ele>19</ele>
        <time>2018-06-24T16:16:18Z</time>
      </trkpt>
      <trkpt lat="50.58993" lon="3.07495">
        <ele>19.2</ele>
        <time>2018-06-24T16:16:22Z</time>
      </trkpt>
      <trkpt lat="50.58999" lon="3.07485">
        <ele>18.8</ele>
        <time>2018-06-24T16:16:26Z</time>
      </trkpt>
      <trkpt lat="50.59006" lon="3.07475">
        <ele>18.2</ele>
        <time>2018-06-24T16:16:30Z</time>
      </trkpt>
      <trkpt lat="50.59006" lon="3.07475">
        <ele>18.6</ele>
        <time>2018-06-24T16:16:34Z</time>
      </trkpt>
      <trkpt lat="50.59009" lon="3.0747">
        <ele>18</ele>
        <time>2018-06-24T16:16:38Z</time>
      </trkpt>
      <trkpt lat="50.59013" lon="3.07463">
        <ele>18</ele>
        <time>2018-06-24T16:16:42Z</time>
      </trkpt>
      <trkpt lat="50.59017" lon="3.07452">
        <ele>18.4</ele>
        <time>2018-06-24T16:16:46Z</time>
      </trkpt>
      <trkpt lat="50.5902" lon="3.07434">
        <ele>18.4</ele>
        <time>2018-06-24T16:16:50Z</time>
      </trkpt>
      <trkpt lat="50.59026" lon="3.07416">
        <ele>18.4</ele>
        <time>2018-06-24T16:16:54Z</time>
      </trkpt>
      <trkpt lat="50.59036" lon="3.07402">
        <ele>19.4</ele>
        <time>2018-06-24T16:16:58Z</time>
      </trkpt>
      <trkpt lat="50.59047" lon="3.07389">
        <ele>19.4</ele>
        <time>2018-06-24T16:17:02Z</time>
      </trkpt>
      <trkpt lat="50.59059" lon="3.07375">
        <ele>19.6</ele>
        <time>2018-06-24T16:17:06Z</time>
      </trkpt>
      <trkpt lat="50.59072" lon="3.07361">
        <ele>19.2</ele>
        <time>2018-06-24T16:17:10Z</time>
      </trkpt>
      <trkpt lat="50.59085" lon="3.07346">
        <ele>19</ele>
        <time>2018-06-24T16:17:14Z</time>
      </trkpt>
      <trkpt lat="50.59098" lon="3.07331">
        <ele>19.4</ele>
        <time>2018-06-24T16:17:18Z</time>
      </trkpt>
      <trkpt lat="50.59113" lon="3.07316">
        <ele>19.4</ele>
        <time>2018-06-24T16:17:22Z</time>
      </trkpt>
      <trkpt lat="50.59127" lon="3.073">
        <ele>19</ele>
        <time>2018-06-24T16:17:26Z</time>
      </trkpt>
      <trkpt lat="50.59142" lon="3.07283">
        <ele>19</ele>
        <time>2018-06-24T16:17:30Z</time>
      </trkpt>
      <trkpt lat="50.59157" lon="3.07265">
        <ele>19.4</ele>
        <time>2018-06-24T16:17:34Z</time>
      </trkpt>
      <trkpt lat="50.59172" lon="3.07245">
        <ele>18.6</ele>
        <time>2018-06-24T16:17:38Z</time>
      </trkpt>
      <trkpt lat="50.59188" lon="3.07225">
        <ele>18.6</ele>
        <time>2018-06-24T16:17:42Z</time>
      </trkpt>
      <trkpt lat="50.59204" lon="3.07204">
        <ele>18.2</ele>
        <time>2018-06-24T16:17:46Z</time>
      </trkpt>
      <trkpt lat="50.59219" lon="3.07185">
        <ele>17.8</ele>
        <time>2018-06-24T16:17:50Z</time>
      </trkpt>
      <trkpt lat="50.59235" lon="3.07166">
        <ele>18.4</ele>
        <time>2018-06-24T16:17:54Z</time>
      </trkpt>
      <trkpt lat="50.5925" lon="3.07146">
        <ele>17.6</ele>
        <time>2018-06-24T16:17:58Z</time>
      </trkpt>
      <trkpt lat="50.59264" lon="3.07128">
        <ele>17.2</ele>
        <time>2018-06-24T16:18:02Z</time>
      </trkpt>
      <trkpt lat="50.59278" lon="3.0711">
        <ele>17.2</ele>
        <time>2018-06-24T16:18:06Z</time>
      </trkpt>
      <trkpt lat="50.59294" lon="3.07089">
        <ele>17</ele>
        <time>2018-06-24T16:18:10Z</time>
      </trkpt>
      <trkpt lat="50.59311" lon="3.07068">
        <ele>17</ele>
        <time>2018-06-24T16:18:14Z</time>
      </trkpt>
      <trkpt lat="50.59328" lon="3.07047">
        <ele>16.6</ele>
        <time>2018-06-24T16:18:18Z</time>
      </trkpt>
      <trkpt lat="50.59345" lon="3.07027">
        <ele>17</ele>
        <time>2018-06-24T16:18:22Z</time>
      </trkpt>
      <trkpt lat="50.59361" lon="3.0701">
        <ele>16.2</ele>
        <time>2018-06-24T16:18:26Z</time>
      </trkpt>
      <trkpt lat="50.59378" lon="3.06992">
        <ele>16.6</ele>
        <time>2018-06-24T16:18:30Z</time>
      </trkpt>
      <trkpt lat="50.59396" lon="3.06979">
        <ele>15.6</ele>
        <time>2018-06-24T16:18:34Z</time>
      </trkpt>
      <trkpt lat="50.59415" lon="3.0697">
        <ele>14.6</ele>
        <time>2018-06-24T16:18:38Z</time>
      </trkpt>
      <trkpt lat="50.59433" lon="3.06962">
        <ele>14.6</ele>
        <time>2018-06-24T16:18:42Z</time>
      </trkpt>
      <trkpt lat="50.59452" lon="3.06953">
        <ele>13.6</ele>
        <time>2018-06-24T16:18:46Z</time>
      </trkpt>
      <trkpt lat="50.59472" lon="3.06945">
        <ele>13.6</ele>
        <time>2018-06-24T16:18:50Z</time>
      </trkpt>
      <trkpt lat="50.5949" lon="3.06939">
        <ele>13.2</ele>
        <time>2018-06-24T16:18:54Z</time>
      </trkpt>
      <trkpt lat="50.59507" lon="3.06933">
        <ele>13.4</ele>
        <time>2018-06-24T16:18:58Z</time>
      </trkpt>
      <trkpt lat="50.59527" lon="3.06934">
        <ele>13.6</ele>
        <time>2018-06-24T16:19:02Z</time>
      </trkpt>
      <trkpt lat="50.59546" lon="3.06928">
        <ele>13.2</ele>
        <time>2018-06-24T16:19:06Z</time>
      </trkpt>
      <trkpt lat="50.59563" lon="3.06917">
        <ele>12.4</ele>
        <time>2018-06-24T16:19:10Z</time>
      </trkpt>
      <trkpt lat="50.59583" lon="3.06911">
        <ele>11.6</ele>
        <time>2018-06-24T16:19:14Z</time>
      </trkpt>
      <trkpt lat="50.59604" lon="3.06904">
        <ele>11</ele>
        <time>2018-06-24T16:19:18Z</time>
      </trkpt>
      <trkpt lat="50.59627" lon="3.06898">
        <ele>11.4</ele>
        <time>2018-06-24T16:19:22Z</time>
      </trkpt>
      <trkpt lat="50.59648" lon="3.06891">
        <ele>10.2</ele>
        <time>2018-06-24T16:19:26Z</time>
      </trkpt>
      <trkpt lat="50.59669" lon="3.06885">
        <ele>10.2</ele>
        <time>2018-06-24T16:19:30Z</time>
      </trkpt>
      <trkpt lat="50.59692" lon="3.06878">
        <ele>10.4</ele>
        <time>2018-06-24T16:19:34Z</time>
      </trkpt>
      <trkpt lat="50.59714" lon="3.06872">
        <ele>8.8</ele>
        <time>2018-06-24T16:19:38Z</time>
      </trkpt>
      <trkpt lat="50.59736" lon="3.06864">
        <ele>7.8</ele>
        <time>2018-06-24T16:19:42Z</time>
      </trkpt>
      <trkpt lat="50.59759" lon="3.06857">
        <ele>7.8</ele>
        <time>2018-06-24T16:19:46Z</time>
      </trkpt>
      <trkpt lat="50.59783" lon="3.0685">
        <ele>7.6</ele>
        <time>2018-06-24T16:19:50Z</time>
      </trkpt>
      <trkpt lat="50.59808" lon="3.06845">
        <ele>7</ele>
        <time>2018-06-24T16:19:54Z</time>
      </trkpt>
      <trkpt lat="50.59832" lon="3.0684">
        <ele>6.6</ele>
        <time>2018-06-24T16:19:58Z</time>
      </trkpt>
      <trkpt lat="50.59856" lon="3.06835">
        <ele>5.8</ele>
        <time>2018-06-24T16:20:02Z</time>
      </trkpt>
      <trkpt lat="50.5988" lon="3.06834">
        <ele>5.8</ele>
        <time>2018-06-24T16:20:06Z</time>
      </trkpt>
      <trkpt lat="50.59902" lon="3.06834">
        <ele>5</ele>
        <time>2018-06-24T16:20:10Z</time>
      </trkpt>
      <trkpt lat="50.59925" lon="3.06834">
        <ele>4.8</ele>
        <time>2018-06-24T16:20:14Z</time>
      </trkpt>
      <trkpt lat="50.59947" lon="3.06835">
        <ele>4.4</ele>
        <time>2018-06-24T16:20:18Z</time>
      </trkpt>
      <trkpt lat="50.5997" lon="3.06837">
        <ele>4</ele>
        <time>2018-06-24T16:20:22Z</time>
      </trkpt>
      <trkpt lat="50.59992" lon="3.06839">
        <ele>4.4</ele>
        <time>2018-06-24T16:20:26Z</time>
      </trkpt>
      <trkpt lat="50.60013" lon="3.06836">
        <ele>3.8</ele>
        <time>2018-06-24T16:20:30Z</time>
      </trkpt>
      <trkpt lat="50.60035" lon="3.06833">
        <ele>3.2</ele>
        <time>2018-06-24T16:20:34Z</time>
      </trkpt>
      <trkpt lat="50.60056" lon="3.06828">
        <ele>3.2</ele>
        <time>2018-06-24T16:20:38Z</time>
      </trkpt>
      <trkpt lat="50.60078" lon="3.0682">
        <ele>3</ele>
        <time>2018-06-24T16:20:42Z</time>
      </trkpt>
      <trkpt lat="50.60096" lon="3.06805">
        <ele>3</ele>
        <time>2018-06-24T16:20:46Z</time>
      </trkpt>
      <trkpt lat="50.60112" lon="3.06791">
        <ele>3</ele>
        <time>2018-06-24T16:20:50Z</time>
      </trkpt>
      <trkpt lat="50.60129" lon="3.06774">
        <ele>3</ele>
        <time>2018-06-24T16:20:54Z</time>
      </trkpt>
      <trkpt lat="50.60151" lon="3.06765">
        <ele>2.4</ele>
        <time>2018-06-24T16:20:58Z</time>
      </trkpt>
      <trkpt lat="50.60172" lon="3.06765">
        <ele>2.6</ele>
        <time>2018-06-24T16:21:02Z</time>
      </trkpt>
      <trkpt lat="50.60193" lon="3.06764">
        <ele>2.4</ele>
        <time>2018-06-24T16:21:06Z</time>
      </trkpt>
      <trkpt lat="50.60214" lon="3.06762">
        <ele>2.2</ele>
        <time>2018-06-24T16:21:10Z</time>
      </trkpt>
      <trkpt lat="50.60233" lon="3.06756">
        <ele>2.6</ele>
        <time>2018-06-24T16:21:14Z</time>
      </trkpt>
      <trkpt lat="50.60245" lon="3.06762">
        <ele>2.6</ele>
        <time>2018-06-24T16:21:18Z</time>
      </trkpt>
      <trkpt lat="50.60254" lon="3.06788">
        <ele>2</ele>
        <time>2018-06-24T16:21:22Z</time>
      </trkpt>
      <trkpt lat="50.60261" lon="3.06817">
        <ele>1.2</ele>
        <time>2018-06-24T16:21:26Z</time>
      </trkpt>
      <trkpt lat="50.60269" lon="3.06848">
        <ele>1.4</ele>
        <time>2018-06-24T16:21:30Z</time>
      </trkpt>
      <trkpt lat="50.60276" lon="3.06879">
        <ele>1.4</ele>
        <time>2018-06-24T16:21:34Z</time>
      </trkpt>
      <trkpt lat="50.60283" lon="3.06906">
        <ele>1.4</ele>
        <time>2018-06-24T16:21:38Z</time>
      </trkpt>
      <trkpt lat="50.60294" lon="3.06911">
        <ele>1</ele>
        <time>2018-06-24T16:21:42Z</time>
      </trkpt>
      <trkpt lat="50.60314" lon="3.06904">
        <ele>1</ele>
        <time>2018-06-24T16:21:46Z</time>
      </trkpt>
      <trkpt lat="50.60335" lon="3.06896">
        <ele>1.6</ele>
        <time>2018-06-24T16:21:50Z</time>
      </trkpt>
      <trkpt lat="50.60355" lon="3.06887">
        <ele>0.8</ele>
        <time>2018-06-24T16:21:54Z</time>
      </trkpt>
      <trkpt lat="50.60376" lon="3.06878">
        <ele>1</ele>
        <time>2018-06-24T16:21:58Z</time>
      </trkpt>
      <trkpt lat="50.60394" lon="3.0687">
        <ele>1.4</ele>
        <time>2018-06-24T16:22:02Z</time>
      </trkpt>
      <trkpt lat="50.60413" lon="3.06864">
        <ele>0.4</ele>
        <time>2018-06-24T16:22:06Z</time>
      </trkpt>
      <trkpt lat="50.6043" lon="3.06874">
        <ele>0.4</ele>
        <time>2018-06-24T16:22:10Z</time>
      </trkpt>
      <trkpt lat="50.60447" lon="3.0689">
        <ele>-0.2</ele>
        <time>2018-06-24T16:22:14Z</time>
      </trkpt>
      <trkpt lat="50.60466" lon="3.06908">
        <ele>-0.2</ele>
        <time>2018-06-24T16:22:18Z</time>
      </trkpt>
      <trkpt lat="50.60485" lon="3.06927">
        <ele>-0.8</ele>
        <time>2018-06-24T16:22:22Z</time>
      </trkpt>
      <trkpt lat="50.60506" lon="3.06948">
        <ele>-1.4</ele>
        <time>2018-06-24T16:22:26Z</time>
      </trkpt>
      <trkpt lat="50.60529" lon="3.06971">
        <ele>-1.2</ele>
        <time>2018-06-24T16:22:30Z</time>
      </trkpt>
      <trkpt lat="50.6055" lon="3.06995">
        <ele>-1.6</ele>
        <time>2018-06-24T16:22:34Z</time>
      </trkpt>
      <trkpt lat="50.60571" lon="3.07016">
        <ele>-2</ele>
        <time>2018-06-24T16:22:38Z</time>
      </trkpt>
      <trkpt lat="50.60591" lon="3.07036">
        <ele>-1.8</ele>
        <time>2018-06-24T16:22:42Z</time>
      </trkpt>
      <trkpt lat="50.60611" lon="3.07056">
        <ele>-2</ele>
        <time>2018-06-24T16:22:46Z</time>
      </trkpt>
      <trkpt lat="50.6063" lon="3.07075">
        <ele>-2</ele>
        <time>2018-06-24T16:22:50Z</time>
      </trkpt>
      <trkpt lat="50.60651" lon="3.07096">
        <ele>-1.6</ele>
        <time>2018-06-24T16:22:54Z</time>
      </trkpt>
      <trkpt lat="50.60674" lon="3.0712">
        <ele>-2.4</ele>
        <time>2018-06-24T16:22:58Z</time>
      </trkpt>
      <trkpt lat="50.60695" lon="3.07143">
        <ele>-2.2</ele>
        <time>2018-06-24T16:23:02Z</time>
      </trkpt>
      <trkpt lat="50.60715" lon="3.07169">
        <ele>-2.6</ele>
        <time>2018-06-24T16:23:06Z</time>
      </trkpt>
      <trkpt lat="50.60737" lon="3.07195">
        <ele>-2.6</ele>
        <time>2018-06-24T16:23:10Z</time>
      </trkpt>
      <trkpt lat="50.60759" lon="3.07223">
        <ele>-3.2</ele>
        <time>2018-06-24T16:23:14Z</time>
      </trkpt>
      <trkpt lat="50.60783" lon="3.07251">
        <ele>-3.2</ele>
        <time>2018-06-24T16:23:18Z</time>
      </trkpt>
      <trkpt lat="50.60807" lon="3.07282">
        <ele>-3.2</ele>
        <time>2018-06-24T16:23:22Z</time>
      </trkpt>
      <trkpt lat="50.60831" lon="3.07307">
        <ele>-2.8</ele>
        <time>2018-06-24T16:23:26Z</time>
      </trkpt>
      <trkpt lat="50.60858" lon="3.07329">
        <ele>-4.6</ele>
        <time>2018-06-24T16:23:30Z</time>
      </trkpt>
      <trkpt lat="50.60883" lon="3.07348">
        <ele>-4</ele>
        <time>2018-06-24T16:23:34Z</time>
      </trkpt>
      <trkpt lat="50.60905" lon="3.07373">
        <ele>-5.2</ele>
        <time>2018-06-24T16:23:38Z</time>
      </trkpt>
      <trkpt lat="50.60922" lon="3.07399">
        <ele>-4.6</ele>
        <time>2018-06-24T16:23:42Z</time>
      </trkpt>
      <trkpt lat="50.60941" lon="3.07424">
        <ele>-5</ele>
        <time>2018-06-24T16:23:46Z</time>
      </trkpt>
      <trkpt lat="50.60959" lon="3.0745">
        <ele>-4.6</ele>
        <time>2018-06-24T16:23:50Z</time>
      </trkpt>
      <trkpt lat="50.60974" lon="3.07472">
        <ele>-5</ele>
        <time>2018-06-24T16:23:54Z</time>
      </trkpt>
      <trkpt lat="50.60985" lon="3.07476">
        <ele>-3.6</ele>
        <time>2018-06-24T16:23:58Z</time>
      </trkpt>
      <trkpt lat="50.60998" lon="3.07446">
        <ele>-4</ele>
        <time>2018-06-24T16:24:02Z</time>
      </trkpt>
      <trkpt lat="50.61011" lon="3.07411">
        <ele>-4.4</ele>
        <time>2018-06-24T16:24:06Z</time>
      </trkpt>
      <trkpt lat="50.61024" lon="3.07374">
        <ele>-4.6</ele>
        <time>2018-06-24T16:24:10Z</time>
      </trkpt>
      <trkpt lat="50.61036" lon="3.07336">
        <ele>-5.4</ele>
        <time>2018-06-24T16:24:14Z</time>
      </trkpt>
      <trkpt lat="50.61053" lon="3.07315">
        <ele>-5.6</ele>
        <time>2018-06-24T16:24:18Z</time>
      </trkpt>
      <trkpt lat="50.61075" lon="3.07335">
        <ele>-5.4</ele>
        <time>2018-06-24T16:24:22Z</time>
      </trkpt>
      <trkpt lat="50.61102" lon="3.07358">
        <ele>-5.2</ele>
        <time>2018-06-24T16:24:26Z</time>
      </trkpt>
      <trkpt lat="50.61126" lon="3.07383">
        <ele>-5.6</ele>
        <time>2018-06-24T16:24:30Z</time>
      </trkpt>
      <trkpt lat="50.61142" lon="3.07399">
        <ele>-6.8</ele>
        <time>2018-06-24T16:24:34Z</time>
      </trkpt>
      <trkpt lat="50.61142" lon="3.07399">
        <ele>-7</ele>
        <time>2018-06-24T16:24:38Z</time>
      </trkpt>
      <trkpt lat="50.61142" lon="3.07399">
        <ele>-7</ele>
        <time>2018-06-24T16:24:42Z</time>
      </trkpt>
      <trkpt lat="50.61142" lon="3.07399">
        <ele>-7</ele>
        <time>2018-06-24T16:24:46Z</time>
      </trkpt>
      <trkpt lat="50.61142" lon="3.07399">
        <ele>-7</ele>
        <time>2018-06-24T16:24:50Z</time>
      </trkpt>
      <trkpt lat="50.61145" lon="3.07397">
        <ele>-7</ele>
        <time>2018-06-24T16:24:54Z</time>
      </trkpt>
      <trkpt lat="50.61146" lon="3.07395">
        <ele>-6.8</ele>
        <time>2018-06-24T16:24:58Z</time>
      </trkpt>
      <trkpt lat="50.61148" lon="3.0739">
        <ele>-6.4</ele>
        <time>2018-06-24T16:25:02Z</time>
      </trkpt>
      <trkpt lat="50.61148" lon="3.0739">
        <ele>-6.6</ele>
        <time>2018-06-24T16:25:06Z</time>
      </trkpt>
      <trkpt lat="50.61149" lon="3.07388">
        <ele>-6</ele>
        <time>2018-06-24T16:25:10Z</time>
      </trkpt>
      <trkpt lat="50.61152" lon="3.07384">
        <ele>-5.6</ele>
        <time>2018-06-24T16:25:14Z</time>
      </trkpt>
      <trkpt lat="50.61154" lon="3.07385">
        <ele>-6.4</ele>
        <time>2018-06-24T16:25:18Z</time>
      </trkpt>
      <trkpt lat="50.61154" lon="3.07385">
        <ele>-6.4</ele>
        <time>2018-06-24T16:25:22Z</time>
      </trkpt>
      <trkpt lat="50.61154" lon="3.07385">
        <ele>-6.2</ele>
        <time>2018-06-24T16:25:26Z</time>
      </trkpt>
      <trkpt lat="50.61154" lon="3.07385">
        <ele>-6.2</ele>
        <time>2018-06-24T16:25:30Z</time>
      </trkpt>
      <trkpt lat="50.61154" lon="3.07385">
        <ele>-6</ele>
        <time>2018-06-24T16:25:34Z</time>
      </trkpt>
      <trkpt lat="50.61154" lon="3.07385">
        <ele>-6</ele>
        <time>2018-06-24T16:25:38Z</time>
      </trkpt>
      <trkpt lat="50.61154" lon="3.07385">
        <ele>-6.2</ele>
        <time>2018-06-24T16:25:42Z</time>
      </trkpt>
      <trkpt lat="50.61154" lon="3.07385">
        <ele>-6.2</ele>
        <time>2018-06-24T16:25:46Z</time>
      </trkpt>
      <trkpt lat="50.61154" lon="3.07385">
        <ele>-6</ele>
        <time>2018-06-24T16:25:50Z</time>
      </trkpt>
      <trkpt lat="50.61154" lon="3.07385">
        <ele>-6.4</ele>
        <time>2018-06-24T16:25:54Z</time>
      </trkpt>
      <trkpt lat="50.61154" lon="3.07385">
        <ele>-6</ele>
        <time>2018-06-24T16:25:58Z</time>
      </trkpt>
      <trkpt lat="50.61154" lon="3.07385">
        <ele>-6</ele>
        <time>2018-06-24T16:26:02Z</time>
      </trkpt>
      <trkpt lat="50.61154" lon="3.07385">
        <ele>-6</ele>
        <time>2018-06-24T16:26:06Z</time>
      </trkpt>
      <trkpt lat="50.61154" lon="3.07385">
        <ele>-5.8</ele>
        <time>2018-06-24T16:26:10Z</time>
      </trkpt>
      <trkpt lat="50.61154" lon="3.07385">
        <ele>-6</ele>
        <time>2018-06-24T16:26:14Z</time>
      </trkpt>
      <trkpt lat="50.61154" lon="3.07385">
        <ele>-6.2</ele>
        <time>2018-06-24T16:26:18Z</time>
      </trkpt>
      <trkpt lat="50.61145" lon="3.07375">
        <ele>-6</ele>
        <time>2018-06-24T16:26:22Z</time>
      </trkpt>
      <trkpt lat="50.61145" lon="3.07375">
        <ele>-6</ele>
        <time>2018-06-24T16:26:26Z</time>
      </trkpt>
      <trkpt lat="50.61145" lon="3.07367">
        <ele>-6</ele>
        <time>2018-06-24T16:26:30Z</time>
      </trkpt>
      <trkpt lat="50.61142" lon="3.0736">
        <ele>-5.8</ele>
        <time>2018-06-24T16:26:34Z</time>
      </trkpt>
      <trkpt lat="50.61131" lon="3.07353">
        <ele>-5.8</ele>
        <time>2018-06-24T16:26:38Z</time>
      </trkpt>
      <trkpt lat="50.61131" lon="3.07353">
        <ele>-6</ele>
        <time>2018-06-24T16:26:42Z</time>
      </trkpt>
      <trkpt lat="50.61131" lon="3.07353">
        <ele>-5.6</ele>
        <time>2018-06-24T16:26:46Z</time>
      </trkpt>
      <trkpt lat="50.61131" lon="3.07353">
        <ele>-5.8</ele>
        <time>2018-06-24T16:26:50Z</time>
      </trkpt>
      <trkpt lat="50.61131" lon="3.07353">
        <ele>-6</ele>
        <time>2018-06-24T16:26:54Z</time>
      </trkpt>
      <trkpt lat="50.61131" lon="3.07353">
        <ele>-5.6</ele>
        <time>2018-06-24T16:26:58Z</time>
      </trkpt>
      <trkpt lat="50.61131" lon="3.07353">
        <ele>-5.6</ele>
        <time>2018-06-24T16:27:02Z</time>
      </trkpt>
      <trkpt lat="50.61131" lon="3.07353">
        <ele>-5.8</ele>
        <time>2018-06-24T16:27:06Z</time>
      </trkpt>
      <trkpt lat="50.61145" lon="3.07361">
        <ele>-6</ele>
        <time>2018-06-24T16:27:10Z</time>
      </trkpt>
      <trkpt lat="50.61145" lon="3.07361">
        <ele>-5.8</ele>
        <time>2018-06-24T16:27:14Z</time>
      </trkpt>
      <trkpt lat="50.61145" lon="3.07361">
        <ele>-5.8</ele>
        <time>2018-06-24T16:27:18Z</time>
      </trkpt>
      <trkpt lat="50.61145" lon="3.07361">
        <ele>-5.6</ele>
        <time>2018-06-24T16:27:22Z</time>
      </trkpt>
      <trkpt lat="50.61145" lon="3.07361">
        <ele>-6</ele>
        <time>2018-06-24T16:27:26Z</time>
      </trkpt>
      <trkpt lat="50.61145" lon="3.07361">
        <ele>-5.6</ele>
        <time>2018-06-24T16:27:30Z</time>
      </trkpt>
      <trkpt lat="50.61145" lon="3.07361">
        <ele>-5.6</ele>
        <time>2018-06-24T16:27:34Z</time>
      </trkpt>
      <trkpt lat="50.61145" lon="3.07361">
        <ele>-5.2</ele>
        <time>2018-06-24T16:27:38Z</time>
      </trkpt>
      <trkpt lat="50.61145" lon="3.07361">
        <ele>-5.6</ele>
        <time>2018-06-24T16:27:42Z</time>
      </trkpt>
      <trkpt lat="50.61145" lon="3.07361">
        <ele>-5.8</ele>
        <time>2018-06-24T16:27:46Z</time>
      </trkpt>
      <trkpt lat="50.61145" lon="3.07361">
        <ele>-5.8</ele>
        <time>2018-06-24T16:27:50Z</time>
      </trkpt>
      <trkpt lat="50.61145" lon="3.07361">
        <ele>-6</ele>
        <time>2018-06-24T16:27:54Z</time>
      </trkpt>
      <trkpt lat="50.61145" lon="3.07361">
        <ele>-5.8</ele>
        <time>2018-06-24T16:27:58Z</time>
      </trkpt>
      <trkpt lat="50.61145" lon="3.07361">
        <ele>-5.6</ele>
        <time>2018-06-24T16:28:02Z</time>
      </trkpt>
      <trkpt lat="50.61145" lon="3.07361">
        <ele>-5.8</ele>
        <time>2018-06-24T16:28:06Z</time>
      </trkpt>
      <trkpt lat="50.61145" lon="3.07361">
        <ele>-5.8</ele>
        <time>2018-06-24T16:28:10Z</time>
      </trkpt>
      <trkpt lat="50.61145" lon="3.07361">
        <ele>-5.6</ele>
        <time>2018-06-24T16:28:14Z</time>
      </trkpt>
      <trkpt lat="50.61145" lon="3.07361">
        <ele>-5.2</ele>
        <time>2018-06-24T16:28:18Z</time>
      </trkpt>
      <trkpt lat="50.61145" lon="3.07361">
        <ele>-5.6</ele>
        <time>2018-06-24T16:28:22Z</time>
      </trkpt>
      <trkpt lat="50.61145" lon="3.07361">
        <ele>-5.6</ele>
        <time>2018-06-24T16:28:26Z</time>
      </trkpt>
      <trkpt lat="50.61145" lon="3.07361">
        <ele>-5.4</ele>
        <time>2018-06-24T16:28:30Z</time>
      </trkpt>
      <trkpt lat="50.61145" lon="3.07361">
        <ele>-5.4</ele>
        <time>2018-06-24T16:28:34Z</time>
      </trkpt>
      <trkpt lat="50.61145" lon="3.07361">
        <ele>-5.4</ele>
        <time>2018-06-24T16:28:38Z</time>
      </trkpt>
      <trkpt lat="50.61145" lon="3.07361">
        <ele>-5.2</ele>
        <time>2018-06-24T16:28:42Z</time>
      </trkpt>
      <trkpt lat="50.61145" lon="3.07361">
        <ele>-5</ele>
        <time>2018-06-24T16:28:46Z</time>
      </trkpt>
      <trkpt lat="50.61145" lon="3.07361">
        <ele>-5.6</ele>
        <time>2018-06-24T16:28:50Z</time>
      </trkpt>
      <trkpt lat="50.61145" lon="3.07361">
        <ele>-5.4</ele>
        <time>2018-06-24T16:28:54Z</time>
      </trkpt>
      <trkpt lat="50.61145" lon="3.07361">
        <ele>-5.2</ele>
        <time>2018-06-24T16:28:58Z</time>
      </trkpt>
      <trkpt lat="50.61145" lon="3.07361">
        <ele>-5.4</ele>
        <time>2018-06-24T16:29:02Z</time>
      </trkpt>
      <trkpt lat="50.61145" lon="3.07361">
        <ele>-5.4</ele>
        <time>2018-06-24T16:29:06Z</time>
      </trkpt>
      <trkpt lat="50.61145" lon="3.07361">
        <ele>-5.4</ele>
        <time>2018-06-24T16:29:10Z</time>
      </trkpt>
      <trkpt lat="50.61145" lon="3.07361">
        <ele>-5.2</ele>
        <time>2018-06-24T16:29:14Z</time>
      </trkpt>
      <trkpt lat="50.61145" lon="3.07361">
        <ele>-5.4</ele>
        <time>2018-06-24T16:29:18Z</time>
      </trkpt>
      <trkpt lat="50.61145" lon="3.07361">
        <ele>-5.2</ele>
        <time>2018-06-24T16:29:22Z</time>
      </trkpt>
      <trkpt lat="50.61145" lon="3.07361">
        <ele>-5.2</ele>
        <time>2018-06-24T16:29:26Z</time>
      </trkpt>
      <trkpt lat="50.61145" lon="3.07361">
        <ele>-5</ele>
        <time>2018-06-24T16:29:30Z</time>
      </trkpt>
      <trkpt lat="50.61145" lon="3.07361">
        <ele>-5.2</ele>
        <time>2018-06-24T16:29:34Z</time>
      </trkpt>
      <trkpt lat="50.61145" lon="3.07361">
        <ele>-5.4</ele>
        <time>2018-06-24T16:29:38Z</time>
      </trkpt>
      <trkpt lat="50.61145" lon="3.07361">
        <ele>-5</ele>
        <time>2018-06-24T16:29:42Z</time>
      </trkpt>
      <trkpt lat="50.61145" lon="3.07361">
        <ele>-5.2</ele>
        <time>2018-06-24T16:29:46Z</time>
      </trkpt>
      <trkpt lat="50.61145" lon="3.07361">
        <ele>-5.2</ele>
        <time>2018-06-24T16:29:50Z</time>
      </trkpt>
      <trkpt lat="50.61145" lon="3.07361">
        <ele>-5.4</ele>
        <time>2018-06-24T16:29:54Z</time>
      </trkpt>
      <trkpt lat="50.61145" lon="3.07361">
        <ele>-5.2</ele>
        <time>2018-06-24T16:29:58Z</time>
      </trkpt>
      <trkpt lat="50.61145" lon="3.07361">
        <ele>-5.2</ele>
        <time>2018-06-24T16:30:02Z</time>
      </trkpt>
      <trkpt lat="50.61145" lon="3.07361">
        <ele>-5.4</ele>
        <time>2018-06-24T16:30:06Z</time>
      </trkpt>
      <trkpt lat="50.61145" lon="3.07361">
        <ele>-5.2</ele>
        <time>2018-06-24T16:30:10Z</time>
      </trkpt>
      <trkpt lat="50.61145" lon="3.07361">
        <ele>-5.6</ele>
        <time>2018-06-24T16:30:14Z</time>
      </trkpt>
      <trkpt lat="50.61145" lon="3.07361">
        <ele>-5.4</ele>
        <time>2018-06-24T16:30:18Z</time>
      </trkpt>
      <trkpt lat="50.61145" lon="3.07361">
        <ele>-5.6</ele>
        <time>2018-06-24T16:30:22Z</time>
      </trkpt>
      <trkpt lat="50.61145" lon="3.07361">
        <ele>-5.4</ele>
        <time>2018-06-24T16:30:26Z</time>
      </trkpt>
      <trkpt lat="50.61145" lon="3.07361">
        <ele>-5.4</ele>
        <time>2018-06-24T16:30:30Z</time>
      </trkpt>
      <trkpt lat="50.61145" lon="3.07361">
        <ele>-5.2</ele>
        <time>2018-06-24T16:30:34Z</time>
      </trkpt>
      <trkpt lat="50.61145" lon="3.07361">
        <ele>-5.8</ele>
        <time>2018-06-24T16:30:38Z</time>
      </trkpt>
      <trkpt lat="50.61145" lon="3.07361">
        <ele>-5.6</ele>
        <time>2018-06-24T16:30:42Z</time>
      </trkpt>
      <trkpt lat="50.61145" lon="3.07361">
        <ele>-5.4</ele>
        <time>2018-06-24T16:30:46Z</time>
      </trkpt>
      <trkpt lat="50.61145" lon="3.07361">
        <ele>-5.6</ele>
        <time>2018-06-24T16:30:50Z</time>
      </trkpt>
      <trkpt lat="50.61145" lon="3.07361">
        <ele>-5.2</ele>
        <time>2018-06-24T16:30:54Z</time>
      </trkpt>
      <trkpt lat="50.61161" lon="3.07353">
        <ele>-5.4</ele>
        <time>2018-06-24T16:30:58Z</time>
      </trkpt>
      <trkpt lat="50.61161" lon="3.07353">
        <ele>-5.4</ele>
        <time>2018-06-24T16:31:02Z</time>
      </trkpt>
      <trkpt lat="50.61161" lon="3.07353">
        <ele>-5.4</ele>
        <time>2018-06-24T16:31:06Z</time>
      </trkpt>
      <trkpt lat="50.61161" lon="3.07353">
        <ele>-5.2</ele>
        <time>2018-06-24T16:31:10Z</time>
      </trkpt>
      <trkpt lat="50.61161" lon="3.07353">
        <ele>-5.4</ele>
        <time>2018-06-24T16:31:14Z</time>
      </trkpt>
      <trkpt lat="50.61161" lon="3.07353">
        <ele>-5</ele>
        <time>2018-06-24T16:31:18Z</time>
      </trkpt>
      <trkpt lat="50.61161" lon="3.07353">
        <ele>-5.4</ele>
        <time>2018-06-24T16:31:22Z</time>
      </trkpt>
      <trkpt lat="50.61161" lon="3.07353">
        <ele>-5.6</ele>
        <time>2018-06-24T16:31:26Z</time>
      </trkpt>
      <trkpt lat="50.61161" lon="3.07353">
        <ele>-5.8</ele>
        <time>2018-06-24T16:31:30Z</time>
      </trkpt>
      <trkpt lat="50.61161" lon="3.07353">
        <ele>-5.4</ele>
        <time>2018-06-24T16:31:34Z</time>
      </trkpt>
      <trkpt lat="50.61168" lon="3.07345">
        <ele>-5.4</ele>
        <time>2018-06-24T16:31:38Z</time>
      </trkpt>
      <trkpt lat="50.61168" lon="3.07345">
        <ele>-5.4</ele>
        <time>2018-06-24T16:31:42Z</time>
      </trkpt>
      <trkpt lat="50.61172" lon="3.07345">
        <ele>-5.2</ele>
        <time>2018-06-24T16:31:46Z</time>
      </trkpt>
      <trkpt lat="50.61175" lon="3.07347">
        <ele>-5</ele>
        <time>2018-06-24T16:31:50Z</time>
      </trkpt>
      <trkpt lat="50.61175" lon="3.07347">
        <ele>-5</ele>
        <time>2018-06-24T16:31:54Z</time>
      </trkpt>
      <trkpt lat="50.61175" lon="3.07347">
        <ele>-5.6</ele>
        <time>2018-06-24T16:31:58Z</time>
      </trkpt>
      <trkpt lat="50.61175" lon="3.07347">
        <ele>-5.6</ele>
        <time>2018-06-24T16:32:02Z</time>
      </trkpt>
      <trkpt lat="50.61175" lon="3.07347">
        <ele>-5.6</ele>
        <time>2018-06-24T16:32:06Z</time>
      </trkpt>
      <trkpt lat="50.61175" lon="3.07347">
        <ele>-5.6</ele>
        <time>2018-06-24T16:32:10Z</time>
      </trkpt>
      <trkpt lat="50.61175" lon="3.07347">
        <ele>-5.6</ele>
        <time>2018-06-24T16:32:14Z</time>
      </trkpt>
      <trkpt lat="50.61175" lon="3.07347">
        <ele>-5.4</ele>
        <time>2018-06-24T16:32:18Z</time>
      </trkpt>
      <trkpt lat="50.61175" lon="3.07347">
        <ele>-5.4</ele>
        <time>2018-06-24T16:32:22Z</time>
      </trkpt>
      <trkpt lat="50.61168" lon="3.07347">
        <ele>-5.4</ele>
        <time>2018-06-24T16:32:26Z</time>
      </trkpt>
      <trkpt lat="50.61168" lon="3.07347">
        <ele>-5.4</ele>
        <time>2018-06-24T16:32:30Z</time>
      </trkpt>
      <trkpt lat="50.61168" lon="3.07347">
        <ele>-5.6</ele>
        <time>2018-06-24T16:32:34Z</time>
      </trkpt>
      <trkpt lat="50.61168" lon="3.07347">
        <ele>-5.2</ele>
        <time>2018-06-24T16:32:38Z</time>
      </trkpt>
      <trkpt lat="50.61163" lon="3.07345">
        <ele>-5.4</ele>
        <time>2018-06-24T16:32:42Z</time>
      </trkpt>
      <trkpt lat="50.61163" lon="3.07345">
        <ele>-5.6</ele>
        <time>2018-06-24T16:32:46Z</time>
      </trkpt>
      <trkpt lat="50.61163" lon="3.07345">
        <ele>-5.6</ele>
        <time>2018-06-24T16:32:50Z</time>
      </trkpt>
      <trkpt lat="50.61163" lon="3.07345">
        <ele>-5.4</ele>
        <time>2018-06-24T16:32:54Z</time>
      </trkpt>
      <trkpt lat="50.61163" lon="3.07345">
        <ele>-5.4</ele>
        <time>2018-06-24T16:32:58Z</time>
      </trkpt>
      <trkpt lat="50.61163" lon="3.07345">
        <ele>-5.4</ele>
        <time>2018-06-24T16:33:02Z</time>
      </trkpt>
      <trkpt lat="50.61163" lon="3.07345">
        <ele>-5.6</ele>
        <time>2018-06-24T16:33:06Z</time>
      </trkpt>
      <trkpt lat="50.61163" lon="3.07345">
        <ele>-5.8</ele>
        <time>2018-06-24T16:33:10Z</time>
      </trkpt>
      <trkpt lat="50.61163" lon="3.07345">
        <ele>-5.6</ele>
        <time>2018-06-24T16:33:14Z</time>
      </trkpt>
      <trkpt lat="50.61163" lon="3.07345">
        <ele>-5.6</ele>
        <time>2018-06-24T16:33:18Z</time>
      </trkpt>
      <trkpt lat="50.61163" lon="3.07345">
        <ele>-5.4</ele>
        <time>2018-06-24T16:33:22Z</time>
      </trkpt>
      <trkpt lat="50.61163" lon="3.07345">
        <ele>-5.6</ele>
        <time>2018-06-24T16:33:26Z</time>
      </trkpt>
      <trkpt lat="50.61163" lon="3.07345">
        <ele>-6</ele>
        <time>2018-06-24T16:33:30Z</time>
      </trkpt>
      <trkpt lat="50.61163" lon="3.07345">
        <ele>-5.6</ele>
        <time>2018-06-24T16:33:34Z</time>
      </trkpt>
      <trkpt lat="50.61163" lon="3.07345">
        <ele>-6</ele>
        <time>2018-06-24T16:33:38Z</time>
      </trkpt>
      <trkpt lat="50.61163" lon="3.07345">
        <ele>-5.8</ele>
        <time>2018-06-24T16:33:42Z</time>
      </trkpt>
      <trkpt lat="50.61163" lon="3.07345">
        <ele>-6</ele>
        <time>2018-06-24T16:33:46Z</time>
      </trkpt>
      <trkpt lat="50.61163" lon="3.07345">
        <ele>-6</ele>
        <time>2018-06-24T16:33:50Z</time>
      </trkpt>
      <trkpt lat="50.61163" lon="3.07345">
        <ele>-5.8</ele>
        <time>2018-06-24T16:33:54Z</time>
      </trkpt>
      <trkpt lat="50.61163" lon="3.07345">
        <ele>-5.6</ele>
        <time>2018-06-24T16:33:58Z</time>
      </trkpt>
      <trkpt lat="50.61163" lon="3.07345">
        <ele>-5.6</ele>
        <time>2018-06-24T16:34:02Z</time>
      </trkpt>
      <trkpt lat="50.61163" lon="3.07345">
        <ele>-5.6</ele>
        <time>2018-06-24T16:34:06Z</time>
      </trkpt>
      <trkpt lat="50.61163" lon="3.07345">
        <ele>-5.6</ele>
        <time>2018-06-24T16:34:10Z</time>
      </trkpt>
      <trkpt lat="50.61163" lon="3.07345">
        <ele>-5.8</ele>
        <time>2018-06-24T16:34:14Z</time>
      </trkpt>
      <trkpt lat="50.61163" lon="3.07345">
        <ele>-5.8</ele>
        <time>2018-06-24T16:34:18Z</time>
      </trkpt>
      <trkpt lat="50.61163" lon="3.07345">
        <ele>-5.6</ele>
        <time>2018-06-24T16:34:22Z</time>
      </trkpt>
      <trkpt lat="50.61163" lon="3.07345">
        <ele>-6</ele>
        <time>2018-06-24T16:34:26Z</time>
      </trkpt>
      <trkpt lat="50.61163" lon="3.07345">
        <ele>-5.8</ele>
        <time>2018-06-24T16:34:30Z</time>
      </trkpt>
      <trkpt lat="50.61163" lon="3.07345">
        <ele>-5.8</ele>
        <time>2018-06-24T16:34:34Z</time>
      </trkpt>
      <trkpt lat="50.61163" lon="3.07345">
        <ele>-5.8</ele>
        <time>2018-06-24T16:34:38Z</time>
      </trkpt>
      <trkpt lat="50.61163" lon="3.07345">
        <ele>-5.6</ele>
        <time>2018-06-24T16:34:42Z</time>
      </trkpt>
      <trkpt lat="50.61163" lon="3.07345">
        <ele>-5.8</ele>
        <time>2018-06-24T16:34:46Z</time>
      </trkpt>
      <trkpt lat="50.61163" lon="3.07345">
        <ele>-5.6</ele>
        <time>2018-06-24T16:34:50Z</time>
      </trkpt>
      <trkpt lat="50.61163" lon="3.07345">
        <ele>-5.6</ele>
        <time>2018-06-24T16:34:54Z</time>
      </trkpt>
      <trkpt lat="50.61163" lon="3.07345">
        <ele>-5.6</ele>
        <time>2018-06-24T16:34:58Z</time>
      </trkpt>
      <trkpt lat="50.61163" lon="3.07345">
        <ele>-5.4</ele>
        <time>2018-06-24T16:35:02Z</time>
      </trkpt>
      <trkpt lat="50.61163" lon="3.07345">
        <ele>-5.4</ele>
        <time>2018-06-24T16:35:06Z</time>
      </trkpt>
      <trkpt lat="50.61163" lon="3.07345">
        <ele>-5.2</ele>
        <time>2018-06-24T16:35:10Z</time>
      </trkpt>
      <trkpt lat="50.61163" lon="3.07345">
        <ele>-5.6</ele>
        <time>2018-06-24T16:35:14Z</time>
      </trkpt>
      <trkpt lat="50.61163" lon="3.07345">
        <ele>-5.8</ele>
        <time>2018-06-24T16:35:18Z</time>
      </trkpt>
      <trkpt lat="50.61163" lon="3.07345">
        <ele>-5.6</ele>
        <time>2018-06-24T16:35:22Z</time>
      </trkpt>
      <trkpt lat="50.61163" lon="3.07345">
        <ele>-5.8</ele>
        <time>2018-06-24T16:35:26Z</time>
      </trkpt>
      <trkpt lat="50.61163" lon="3.07345">
        <ele>-5.6</ele>
        <time>2018-06-24T16:35:30Z</time>
      </trkpt>
      <trkpt lat="50.61163" lon="3.07345">
        <ele>-5.2</ele>
        <time>2018-06-24T16:35:34Z</time>
      </trkpt>
      <trkpt lat="50.61163" lon="3.07345">
        <ele>-5.6</ele>
        <time>2018-06-24T16:35:38Z</time>
      </trkpt>
      <trkpt lat="50.61163" lon="3.07345">
        <ele>-5.4</ele>
        <time>2018-06-24T16:35:42Z</time>
      </trkpt>
      <trkpt lat="50.61163" lon="3.07345">
        <ele>-5.8</ele>
        <time>2018-06-24T16:35:46Z</time>
      </trkpt>
      <trkpt lat="50.61163" lon="3.07345">
        <ele>-5.6</ele>
        <time>2018-06-24T16:35:50Z</time>
      </trkpt>
      <trkpt lat="50.61163" lon="3.07345">
        <ele>-5.4</ele>
        <time>2018-06-24T16:35:54Z</time>
      </trkpt>
      <trkpt lat="50.61163" lon="3.07345">
        <ele>-5.4</ele>
        <time>2018-06-24T16:35:58Z</time>
      </trkpt>
      <trkpt lat="50.61163" lon="3.07345">
        <ele>-5.6</ele>
        <time>2018-06-24T16:36:02Z</time>
      </trkpt>
      <trkpt lat="50.61163" lon="3.07345">
        <ele>-5.6</ele>
        <time>2018-06-24T16:36:06Z</time>
      </trkpt>
      <trkpt lat="50.61163" lon="3.07345">
        <ele>-5.6</ele>
        <time>2018-06-24T16:36:10Z</time>
      </trkpt>
      <trkpt lat="50.61163" lon="3.07345">
        <ele>-5.8</ele>
        <time>2018-06-24T16:36:14Z</time>
      </trkpt>
      <trkpt lat="50.61158" lon="3.07362">
        <ele>-5.6</ele>
        <time>2018-06-24T16:36:18Z</time>
      </trkpt>
      <trkpt lat="50.61158" lon="3.07362">
        <ele>-5.6</ele>
        <time>2018-06-24T16:36:22Z</time>
      </trkpt>
      <trkpt lat="50.61158" lon="3.07362">
        <ele>-6</ele>
        <time>2018-06-24T16:36:26Z</time>
      </trkpt>
      <trkpt lat="50.61158" lon="3.07362">
        <ele>-5.8</ele>
        <time>2018-06-24T16:36:30Z</time>
      </trkpt>
      <trkpt lat="50.61158" lon="3.07362">
        <ele>-6</ele>
        <time>2018-06-24T16:36:34Z</time>
      </trkpt>
      <trkpt lat="50.61158" lon="3.07362">
        <ele>-6</ele>
        <time>2018-06-24T16:36:38Z</time>
      </trkpt>
      <trkpt lat="50.61158" lon="3.07362">
        <ele>-5.6</ele>
        <time>2018-06-24T16:36:42Z</time>
      </trkpt>
      <trkpt lat="50.61158" lon="3.07362">
        <ele>-5.6</ele>
        <time>2018-06-24T16:36:46Z</time>
      </trkpt>
      <trkpt lat="50.61158" lon="3.07362">
        <ele>-5.4</ele>
        <time>2018-06-24T16:36:50Z</time>
      </trkpt>
      <trkpt lat="50.61158" lon="3.07362">
        <ele>-5.2</ele>
        <time>2018-06-24T16:36:54Z</time>
      </trkpt>
      <trkpt lat="50.61158" lon="3.07362">
        <ele>-5.4</ele>
        <time>2018-06-24T16:36:58Z</time>
      </trkpt>
      <trkpt lat="50.61158" lon="3.07362">
        <ele>-5.4</ele>
        <time>2018-06-24T16:37:02Z</time>
      </trkpt>
      <trkpt lat="50.61158" lon="3.07362">
        <ele>-5.4</ele>
        <time>2018-06-24T16:37:06Z</time>
      </trkpt>
      <trkpt lat="50.61158" lon="3.07362">
        <ele>-5.4</ele>
        <time>2018-06-24T16:37:10Z</time>
      </trkpt>
      <trkpt lat="50.61158" lon="3.07362">
        <ele>-5.4</ele>
        <time>2018-06-24T16:37:14Z</time>
      </trkpt>
      <trkpt lat="50.61158" lon="3.07362">
        <ele>-5.6</ele>
        <time>2018-06-24T16:37:18Z</time>
      </trkpt>
      <trkpt lat="50.61158" lon="3.07362">
        <ele>-5.8</ele>
        <time>2018-06-24T16:37:22Z</time>
      </trkpt>
      <trkpt lat="50.61158" lon="3.07362">
        <ele>-5.8</ele>
        <time>2018-06-24T16:37:26Z</time>
      </trkpt>
      <trkpt lat="50.61154" lon="3.07367">
        <ele>-6</ele>
        <time>2018-06-24T16:37:30Z</time>
      </trkpt>
      <trkpt lat="50.61154" lon="3.07367">
        <ele>-5.8</ele>
        <time>2018-06-24T16:37:34Z</time>
      </trkpt>
      <trkpt lat="50.61154" lon="3.07367">
        <ele>-5.8</ele>
        <time>2018-06-24T16:37:38Z</time>
      </trkpt>
      <trkpt lat="50.61153" lon="3.07366">
        <ele>-5.8</ele>
        <time>2018-06-24T16:37:42Z</time>
      </trkpt>
      <trkpt lat="50.61153" lon="3.07366">
        <ele>-5.8</ele>
        <time>2018-06-24T16:37:46Z</time>
      </trkpt>
      <trkpt lat="50.61153" lon="3.07366">
        <ele>-6</ele>
        <time>2018-06-24T16:37:50Z</time>
      </trkpt>
      <trkpt lat="50.61153" lon="3.07366">
        <ele>-6</ele>
        <time>2018-06-24T16:37:54Z</time>
      </trkpt>
      <trkpt lat="50.61153" lon="3.07366">
        <ele>-5.6</ele>
        <time>2018-06-24T16:37:58Z</time>
      </trkpt>
      <trkpt lat="50.61153" lon="3.07366">
        <ele>-5.4</ele>
        <time>2018-06-24T16:38:02Z</time>
      </trkpt>
      <trkpt lat="50.61155" lon="3.07361">
        <ele>-5.6</ele>
        <time>2018-06-24T16:38:06Z</time>
      </trkpt>
      <trkpt lat="50.61155" lon="3.07361">
        <ele>-5.4</ele>
        <time>2018-06-24T16:38:10Z</time>
      </trkpt>
      <trkpt lat="50.61155" lon="3.07361">
        <ele>-5.6</ele>
        <time>2018-06-24T16:38:14Z</time>
      </trkpt>
      <trkpt lat="50.61155" lon="3.07361">
        <ele>-5.6</ele>
        <time>2018-06-24T16:38:18Z</time>
      </trkpt>
      <trkpt lat="50.61155" lon="3.07362">
        <ele>-6</ele>
        <time>2018-06-24T16:38:22Z</time>
      </trkpt>
      <trkpt lat="50.61155" lon="3.07362">
        <ele>-5.8</ele>
        <time>2018-06-24T16:38:26Z</time>
      </trkpt>
      <trkpt lat="50.61155" lon="3.07362">
        <ele>-5.8</ele>
        <time>2018-06-24T16:38:30Z</time>
      </trkpt>
      <trkpt lat="50.61155" lon="3.07362">
        <ele>-5.8</ele>
        <time>2018-06-24T16:38:34Z</time>
      </trkpt>
      <trkpt lat="50.61155" lon="3.07362">
        <ele>-5.6</ele>
        <time>2018-06-24T16:38:38Z</time>
      </trkpt>
      <trkpt lat="50.61155" lon="3.07362">
        <ele>-5.4</ele>
        <time>2018-06-24T16:38:42Z</time>
      </trkpt>
      <trkpt lat="50.61155" lon="3.07362">
        <ele>-5.4</ele>
        <time>2018-06-24T16:38:46Z</time>
      </trkpt>
      <trkpt lat="50.61155" lon="3.07362">
        <ele>-5.8</ele>
        <time>2018-06-24T16:38:50Z</time>
      </trkpt>
      <trkpt lat="50.61155" lon="3.07362">
        <ele>-6</ele>
        <time>2018-06-24T16:38:54Z</time>
      </trkpt>
      <trkpt lat="50.61155" lon="3.07362">
        <ele>-5.8</ele>
        <time>2018-06-24T16:38:58Z</time>
      </trkpt>
      <trkpt lat="50.61155" lon="3.07362">
        <ele>-5.8</ele>
        <time>2018-06-24T16:39:02Z</time>
      </trkpt>
      <trkpt lat="50.61158" lon="3.07373">
        <ele>-5.8</ele>
        <time>2018-06-24T16:39:06Z</time>
      </trkpt>
      <trkpt lat="50.61158" lon="3.07373">
        <ele>-6</ele>
        <time>2018-06-24T16:39:10Z</time>
      </trkpt>
      <trkpt lat="50.61158" lon="3.07373">
        <ele>-6</ele>
        <time>2018-06-24T16:39:14Z</time>
      </trkpt>
      <trkpt lat="50.61161" lon="3.07375">
        <ele>-5.8</ele>
        <time>2018-06-24T16:39:18Z</time>
      </trkpt>
      <trkpt lat="50.61164" lon="3.07376">
        <ele>-5.8</ele>
        <time>2018-06-24T16:39:22Z</time>
      </trkpt>
      <trkpt lat="50.61164" lon="3.07376">
        <ele>-5.6</ele>
        <time>2018-06-24T16:39:26Z</time>
      </trkpt>
      <trkpt lat="50.61164" lon="3.07376">
        <ele>-5.6</ele>
        <time>2018-06-24T16:39:30Z</time>
      </trkpt>
      <trkpt lat="50.61165" lon="3.07375">
        <ele>-5.8</ele>
        <time>2018-06-24T16:39:34Z</time>
      </trkpt>
      <trkpt lat="50.61165" lon="3.07375">
        <ele>-5.8</ele>
        <time>2018-06-24T16:39:38Z</time>
      </trkpt>
      <trkpt lat="50.61165" lon="3.07375">
        <ele>-5.8</ele>
        <time>2018-06-24T16:39:42Z</time>
      </trkpt>
      <trkpt lat="50.61165" lon="3.07375">
        <ele>-5.8</ele>
        <time>2018-06-24T16:39:46Z</time>
      </trkpt>
      <trkpt lat="50.61165" lon="3.07375">
        <ele>-5.8</ele>
        <time>2018-06-24T16:39:50Z</time>
      </trkpt>
      <trkpt lat="50.61165" lon="3.07375">
        <ele>-5.8</ele>
        <time>2018-06-24T16:39:54Z</time>
      </trkpt>
      <trkpt lat="50.61165" lon="3.07375">
        <ele>-5.8</ele>
        <time>2018-06-24T16:39:58Z</time>
      </trkpt>
      <trkpt lat="50.61165" lon="3.07375">
        <ele>-5.6</ele>
        <time>2018-06-24T16:40:02Z</time>
      </trkpt>
      <trkpt lat="50.61165" lon="3.07375">
        <ele>-5.8</ele>
        <time>2018-06-24T16:40:06Z</time>
      </trkpt>
      <trkpt lat="50.61165" lon="3.07375">
        <ele>-5.6</ele>
        <time>2018-06-24T16:40:10Z</time>
      </trkpt>
      <trkpt lat="50.61165" lon="3.07375">
        <ele>-5.8</ele>
        <time>2018-06-24T16:40:14Z</time>
      </trkpt>
      <trkpt lat="50.61165" lon="3.07375">
        <ele>-6.6</ele>
        <time>2018-06-24T16:40:18Z</time>
      </trkpt>
      <trkpt lat="50.61165" lon="3.07375">
        <ele>-6.2</ele>
        <time>2018-06-24T16:40:22Z</time>
      </trkpt>
      <trkpt lat="50.61165" lon="3.07375">
        <ele>-5.8</ele>
        <time>2018-06-24T16:40:26Z</time>
      </trkpt>
      <trkpt lat="50.61165" lon="3.07375">
        <ele>-5.8</ele>
        <time>2018-06-24T16:40:30Z</time>
      </trkpt>
      <trkpt lat="50.61165" lon="3.07375">
        <ele>-6</ele>
        <time>2018-06-24T16:40:34Z</time>
      </trkpt>
      <trkpt lat="50.61165" lon="3.07375">
        <ele>-6.2</ele>
        <time>2018-06-24T16:40:38Z</time>
      </trkpt>
      <trkpt lat="50.61165" lon="3.07375">
        <ele>-6.2</ele>
        <time>2018-06-24T16:40:42Z</time>
      </trkpt>
      <trkpt lat="50.61165" lon="3.07375">
        <ele>-6</ele>
        <time>2018-06-24T16:40:46Z</time>
      </trkpt>
      <trkpt lat="50.61165" lon="3.07375">
        <ele>-6</ele>
        <time>2018-06-24T16:40:50Z</time>
      </trkpt>
      <trkpt lat="50.61165" lon="3.07375">
        <ele>-6</ele>
        <time>2018-06-24T16:40:54Z</time>
      </trkpt>
      <trkpt lat="50.61165" lon="3.07375">
        <ele>-6.2</ele>
        <time>2018-06-24T16:40:58Z</time>
      </trkpt>
      <trkpt lat="50.61165" lon="3.07375">
        <ele>-5.8</ele>
        <time>2018-06-24T16:41:02Z</time>
      </trkpt>
      <trkpt lat="50.61165" lon="3.07375">
        <ele>-6</ele>
        <time>2018-06-24T16:41:06Z</time>
      </trkpt>
      <trkpt lat="50.61165" lon="3.07375">
        <ele>-6</ele>
        <time>2018-06-24T16:41:10Z</time>
      </trkpt>
      <trkpt lat="50.61165" lon="3.07375">
        <ele>-6</ele>
        <time>2018-06-24T16:41:14Z</time>
      </trkpt>
      <trkpt lat="50.61165" lon="3.07375">
        <ele>-6</ele>
        <time>2018-06-24T16:41:18Z</time>
      </trkpt>
      <trkpt lat="50.61165" lon="3.07375">
        <ele>-6.2</ele>
        <time>2018-06-24T16:41:22Z</time>
      </trkpt>
      <trkpt lat="50.61165" lon="3.07375">
        <ele>-6</ele>
        <time>2018-06-24T16:41:26Z</time>
      </trkpt>
      <trkpt lat="50.61155" lon="3.07376">
        <ele>-6</ele>
        <time>2018-06-24T16:41:30Z</time>
      </trkpt>
      <trkpt lat="50.61155" lon="3.07376">
        <ele>-6</ele>
        <time>2018-06-24T16:41:34Z</time>
      </trkpt>
      <trkpt lat="50.61155" lon="3.07376">
        <ele>-6</ele>
        <time>2018-06-24T16:41:38Z</time>
      </trkpt>
      <trkpt lat="50.61155" lon="3.07376">
        <ele>-6</ele>
        <time>2018-06-24T16:41:42Z</time>
      </trkpt>
      <trkpt lat="50.61155" lon="3.07376">
        <ele>-6</ele>
        <time>2018-06-24T16:41:46Z</time>
      </trkpt>
      <trkpt lat="50.61155" lon="3.07376">
        <ele>-6</ele>
        <time>2018-06-24T16:41:50Z</time>
      </trkpt>
      <trkpt lat="50.61155" lon="3.07376">
        <ele>-6</ele>
        <time>2018-06-24T16:41:54Z</time>
      </trkpt>
      <trkpt lat="50.61155" lon="3.07376">
        <ele>-5.8</ele>
        <time>2018-06-24T16:41:58Z</time>
      </trkpt>
      <trkpt lat="50.61155" lon="3.07376">
        <ele>-5.8</ele>
        <time>2018-06-24T16:42:02Z</time>
      </trkpt>
      <trkpt lat="50.61155" lon="3.07376">
        <ele>-5.6</ele>
        <time>2018-06-24T16:42:06Z</time>
      </trkpt>
      <trkpt lat="50.61155" lon="3.07376">
        <ele>-5.8</ele>
        <time>2018-06-24T16:42:10Z</time>
      </trkpt>
      <trkpt lat="50.61154" lon="3.07378">
        <ele>-5.8</ele>
        <time>2018-06-24T16:42:14Z</time>
      </trkpt>
      <trkpt lat="50.61156" lon="3.0738">
        <ele>-5.6</ele>
        <time>2018-06-24T16:42:18Z</time>
      </trkpt>
      <trkpt lat="50.61156" lon="3.0738">
        <ele>-5.6</ele>
        <time>2018-06-24T16:42:22Z</time>
      </trkpt>
      <trkpt lat="50.61156" lon="3.0738">
        <ele>-5.4</ele>
        <time>2018-06-24T16:42:26Z</time>
      </trkpt>
      <trkpt lat="50.61156" lon="3.0738">
        <ele>-5.6</ele>
        <time>2018-06-24T16:42:30Z</time>
      </trkpt>
      <trkpt lat="50.61156" lon="3.0738">
        <ele>-5.6</ele>
        <time>2018-06-24T16:42:34Z</time>
      </trkpt>
      <trkpt lat="50.61156" lon="3.0738">
        <ele>-5.6</ele>
        <time>2018-06-24T16:42:38Z</time>
      </trkpt>
      <trkpt lat="50.61156" lon="3.0738">
        <ele>-5.4</ele>
        <time>2018-06-24T16:42:42Z</time>
      </trkpt>
      <trkpt lat="50.61156" lon="3.0738">
        <ele>-5.8</ele>
        <time>2018-06-24T16:42:46Z</time>
      </trkpt>
      <trkpt lat="50.61156" lon="3.0738">
        <ele>-5.6</ele>
        <time>2018-06-24T16:42:50Z</time>
      </trkpt>
      <trkpt lat="50.61156" lon="3.0738">
        <ele>-5.6</ele>
        <time>2018-06-24T16:42:54Z</time>
      </trkpt>
      <trkpt lat="50.61156" lon="3.0738">
        <ele>-5.6</ele>
        <time>2018-06-24T16:42:58Z</time>
      </trkpt>
      <trkpt lat="50.61156" lon="3.0738">
        <ele>-5.4</ele>
        <time>2018-06-24T16:43:02Z</time>
      </trkpt>
      <trkpt lat="50.61156" lon="3.0738">
        <ele>-5.4</ele>
        <time>2018-06-24T16:43:06Z</time>
      </trkpt>
      <trkpt lat="50.61156" lon="3.0738">
        <ele>-5.4</ele>
        <time>2018-06-24T16:43:10Z</time>
      </trkpt>
      <trkpt lat="50.61156" lon="3.0738">
        <ele>-5.2</ele>
        <time>2018-06-24T16:43:14Z</time>
      </trkpt>
      <trkpt lat="50.61156" lon="3.0738">
        <ele>-5.6</ele>
        <time>2018-06-24T16:43:18Z</time>
      </trkpt>
      <trkpt lat="50.61156" lon="3.0738">
        <ele>-5.6</ele>
        <time>2018-06-24T16:43:22Z</time>
      </trkpt>
      <trkpt lat="50.61156" lon="3.0738">
        <ele>-5.8</ele>
        <time>2018-06-24T16:43:26Z</time>
      </trkpt>
      <trkpt lat="50.61156" lon="3.0738">
        <ele>-5.8</ele>
        <time>2018-06-24T16:43:30Z</time>
      </trkpt>
      <trkpt lat="50.61156" lon="3.0738">
        <ele>-5.8</ele>
        <time>2018-06-24T16:43:34Z</time>
      </trkpt>
      <trkpt lat="50.61156" lon="3.0738">
        <ele>-5.6</ele>
        <time>2018-06-24T16:43:38Z</time>
      </trkpt>
      <trkpt lat="50.61156" lon="3.0738">
        <ele>-5.6</ele>
        <time>2018-06-24T16:43:42Z</time>
      </trkpt>
      <trkpt lat="50.61156" lon="3.0738">
        <ele>-5.8</ele>
        <time>2018-06-24T16:43:46Z</time>
      </trkpt>
      <trkpt lat="50.61156" lon="3.0738">
        <ele>-6</ele>
        <time>2018-06-24T16:43:50Z</time>
      </trkpt>
      <trkpt lat="50.61156" lon="3.0738">
        <ele>-6.2</ele>
        <time>2018-06-24T16:43:54Z</time>
      </trkpt>
      <trkpt lat="50.61156" lon="3.0738">
        <ele>-6</ele>
        <time>2018-06-24T16:43:58Z</time>
      </trkpt>
      <trkpt lat="50.61156" lon="3.0738">
        <ele>-5.8</ele>
        <time>2018-06-24T16:44:02Z</time>
      </trkpt>
      <trkpt lat="50.61156" lon="3.0738">
        <ele>-6</ele>
        <time>2018-06-24T16:44:06Z</time>
      </trkpt>
      <trkpt lat="50.61156" lon="3.0738">
        <ele>-6</ele>
        <time>2018-06-24T16:44:10Z</time>
      </trkpt>
      <trkpt lat="50.61156" lon="3.0738">
        <ele>-5.6</ele>
        <time>2018-06-24T16:44:14Z</time>
      </trkpt>
      <trkpt lat="50.61156" lon="3.0738">
        <ele>-5.8</ele>
        <time>2018-06-24T16:44:18Z</time>
      </trkpt>
      <trkpt lat="50.61156" lon="3.0738">
        <ele>-5.6</ele>
        <time>2018-06-24T16:44:22Z</time>
      </trkpt>
      <trkpt lat="50.61156" lon="3.0738">
        <ele>-5.6</ele>
        <time>2018-06-24T16:44:26Z</time>
      </trkpt>
      <trkpt lat="50.61156" lon="3.0738">
        <ele>-5.6</ele>
        <time>2018-06-24T16:44:30Z</time>
      </trkpt>
      <trkpt lat="50.61156" lon="3.0738">
        <ele>-5.6</ele>
        <time>2018-06-24T16:44:34Z</time>
      </trkpt>
      <trkpt lat="50.61156" lon="3.0738">
        <ele>-5.8</ele>
        <time>2018-06-24T16:44:38Z</time>
      </trkpt>
      <trkpt lat="50.61156" lon="3.0738">
        <ele>-6</ele>
        <time>2018-06-24T16:44:42Z</time>
      </trkpt>
      <trkpt lat="50.61156" lon="3.0738">
        <ele>-5.8</ele>
        <time>2018-06-24T16:44:46Z</time>
      </trkpt>
      <trkpt lat="50.61156" lon="3.0738">
        <ele>-5.8</ele>
        <time>2018-06-24T16:44:50Z</time>
      </trkpt>
      <trkpt lat="50.61156" lon="3.0738">
        <ele>-5.8</ele>
        <time>2018-06-24T16:44:54Z</time>
      </trkpt>
      <trkpt lat="50.61156" lon="3.0738">
        <ele>-6</ele>
        <time>2018-06-24T16:44:58Z</time>
      </trkpt>
      <trkpt lat="50.61156" lon="3.0738">
        <ele>-5.8</ele>
        <time>2018-06-24T16:45:02Z</time>
      </trkpt>
      <trkpt lat="50.61156" lon="3.0738">
        <ele>-5.8</ele>
        <time>2018-06-24T16:45:06Z</time>
      </trkpt>
      <trkpt lat="50.61158" lon="3.07358">
        <ele>-5.6</ele>
        <time>2018-06-24T16:45:10Z</time>
      </trkpt>
      <trkpt lat="50.61158" lon="3.07358">
        <ele>-5.8</ele>
        <time>2018-06-24T16:45:14Z</time>
      </trkpt>
      <trkpt lat="50.61158" lon="3.07358">
        <ele>-6.2</ele>
        <time>2018-06-24T16:45:18Z</time>
      </trkpt>
      <trkpt lat="50.61158" lon="3.07358">
        <ele>-6.2</ele>
        <time>2018-06-24T16:45:22Z</time>
      </trkpt>
      <trkpt lat="50.6116" lon="3.07357">
        <ele>-6</ele>
        <time>2018-06-24T16:45:26Z</time>
      </trkpt>
      <trkpt lat="50.6116" lon="3.07357">
        <ele>-5.8</ele>
        <time>2018-06-24T16:45:30Z</time>
      </trkpt>
      <trkpt lat="50.61158" lon="3.07354">
        <ele>-5.8</ele>
        <time>2018-06-24T16:45:34Z</time>
      </trkpt>
      <trkpt lat="50.61158" lon="3.07354">
        <ele>-5.8</ele>
        <time>2018-06-24T16:45:38Z</time>
      </trkpt>
      <trkpt lat="50.61159" lon="3.07354">
        <ele>-5.8</ele>
        <time>2018-06-24T16:45:42Z</time>
      </trkpt>
      <trkpt lat="50.6116" lon="3.07356">
        <ele>-6</ele>
        <time>2018-06-24T16:45:46Z</time>
      </trkpt>
      <trkpt lat="50.61157" lon="3.07353">
        <ele>-6.2</ele>
        <time>2018-06-24T16:45:50Z</time>
      </trkpt>
      <trkpt lat="50.61152" lon="3.07351">
        <ele>-5.6</ele>
        <time>2018-06-24T16:45:54Z</time>
      </trkpt>
      <trkpt lat="50.61152" lon="3.07351">
        <ele>-5.6</ele>
        <time>2018-06-24T16:45:58Z</time>
      </trkpt>
      <trkpt lat="50.6115" lon="3.0735">
        <ele>-6</ele>
        <time>2018-06-24T16:46:02Z</time>
      </trkpt>
      <trkpt lat="50.61152" lon="3.0735">
        <ele>-6</ele>
        <time>2018-06-24T16:46:06Z</time>
      </trkpt>
      <trkpt lat="50.61152" lon="3.0735">
        <ele>-5.6</ele>
        <time>2018-06-24T16:46:10Z</time>
      </trkpt>
      <trkpt lat="50.61152" lon="3.0735">
        <ele>-5.6</ele>
        <time>2018-06-24T16:46:14Z</time>
      </trkpt>
      <trkpt lat="50.61152" lon="3.0735">
        <ele>-5.6</ele>
        <time>2018-06-24T16:46:18Z</time>
      </trkpt>
      <trkpt lat="50.61152" lon="3.0735">
        <ele>-5.4</ele>
        <time>2018-06-24T16:46:22Z</time>
      </trkpt>
      <trkpt lat="50.61152" lon="3.0735">
        <ele>-5.2</ele>
        <time>2018-06-24T16:46:26Z</time>
      </trkpt>
      <trkpt lat="50.61152" lon="3.0735">
        <ele>-5.4</ele>
        <time>2018-06-24T16:46:30Z</time>
      </trkpt>
      <trkpt lat="50.61152" lon="3.0735">
        <ele>-5.6</ele>
        <time>2018-06-24T16:46:34Z</time>
      </trkpt>
      <trkpt lat="50.61152" lon="3.0735">
        <ele>-5.8</ele>
        <time>2018-06-24T16:46:38Z</time>
      </trkpt>
      <trkpt lat="50.61152" lon="3.0735">
        <ele>-5.8</ele>
        <time>2018-06-24T16:46:42Z</time>
      </trkpt>
      <trkpt lat="50.61152" lon="3.0735">
        <ele>-5.4</ele>
        <time>2018-06-24T16:46:46Z</time>
      </trkpt>
      <trkpt lat="50.61152" lon="3.0735">
        <ele>-6</ele>
        <time>2018-06-24T16:46:50Z</time>
      </trkpt>
      <trkpt lat="50.61152" lon="3.0735">
        <ele>-6.2</ele>
        <time>2018-06-24T16:46:54Z</time>
      </trkpt>
      <trkpt lat="50.61152" lon="3.0735">
        <ele>-5.6</ele>
        <time>2018-06-24T16:46:58Z</time>
      </trkpt>
      <trkpt lat="50.61152" lon="3.0735">
        <ele>-5.4</ele>
        <time>2018-06-24T16:47:02Z</time>
      </trkpt>
      <trkpt lat="50.61152" lon="3.0735">
        <ele>-5.6</ele>
        <time>2018-06-24T16:47:06Z</time>
      </trkpt>
      <trkpt lat="50.61152" lon="3.0735">
        <ele>-5.6</ele>
        <time>2018-06-24T16:47:10Z</time>
      </trkpt>
      <trkpt lat="50.61152" lon="3.0735">
        <ele>-5</ele>
        <time>2018-06-24T16:47:14Z</time>
      </trkpt>
      <trkpt lat="50.61152" lon="3.0735">
        <ele>-5</ele>
        <time>2018-06-24T16:47:18Z</time>
      </trkpt>
      <trkpt lat="50.61152" lon="3.0735">
        <ele>-5</ele>
        <time>2018-06-24T16:47:22Z</time>
      </trkpt>
      <trkpt lat="50.61152" lon="3.0735">
        <ele>-5</ele>
        <time>2018-06-24T16:47:26Z</time>
      </trkpt>
      <trkpt lat="50.61152" lon="3.0735">
        <ele>-5</ele>
        <time>2018-06-24T16:47:30Z</time>
      </trkpt>
      <trkpt lat="50.61152" lon="3.0735">
        <ele>-5</ele>
        <time>2018-06-24T16:47:34Z</time>
      </trkpt>
      <trkpt lat="50.61152" lon="3.0735">
        <ele>-5</ele>
        <time>2018-06-24T16:47:38Z</time>
      </trkpt>
      <trkpt lat="50.61152" lon="3.0735">
        <ele>-5</ele>
        <time>2018-06-24T16:47:42Z</time>
      </trkpt>
      <trkpt lat="50.61152" lon="3.0735">
        <ele>-5.2</ele>
        <time>2018-06-24T16:47:46Z</time>
      </trkpt>
      <trkpt lat="50.61152" lon="3.0735">
        <ele>-5</ele>
        <time>2018-06-24T16:47:50Z</time>
      </trkpt>
      <trkpt lat="50.61152" lon="3.0735">
        <ele>-5.2</ele>
        <time>2018-06-24T16:47:54Z</time>
      </trkpt>
      <trkpt lat="50.61152" lon="3.0735">
        <ele>-5.2</ele>
        <time>2018-06-24T16:47:58Z</time>
      </trkpt>
      <trkpt lat="50.61152" lon="3.0735">
        <ele>-5.4</ele>
        <time>2018-06-24T16:48:02Z</time>
      </trkpt>
      <trkpt lat="50.61152" lon="3.0735">
        <ele>-5.2</ele>
        <time>2018-06-24T16:48:06Z</time>
      </trkpt>
      <trkpt lat="50.61152" lon="3.0735">
        <ele>-5.6</ele>
        <time>2018-06-24T16:48:10Z</time>
      </trkpt>
      <trkpt lat="50.61152" lon="3.0735">
        <ele>-5.2</ele>
        <time>2018-06-24T16:48:14Z</time>
      </trkpt>
      <trkpt lat="50.61152" lon="3.0735">
        <ele>-5.4</ele>
        <time>2018-06-24T16:48:18Z</time>
      </trkpt>
      <trkpt lat="50.61152" lon="3.0735">
        <ele>-5.6</ele>
        <time>2018-06-24T16:48:22Z</time>
      </trkpt>
      <trkpt lat="50.61152" lon="3.0735">
        <ele>-5.4</ele>
        <time>2018-06-24T16:48:26Z</time>
      </trkpt>
      <trkpt lat="50.61152" lon="3.0735">
        <ele>-5.6</ele>
        <time>2018-06-24T16:48:30Z</time>
      </trkpt>
      <trkpt lat="50.61152" lon="3.0735">
        <ele>-5.6</ele>
        <time>2018-06-24T16:48:34Z</time>
      </trkpt>
      <trkpt lat="50.61152" lon="3.0735">
        <ele>-5.2</ele>
        <time>2018-06-24T16:48:38Z</time>
      </trkpt>
      <trkpt lat="50.61152" lon="3.0735">
        <ele>-5.4</ele>
        <time>2018-06-24T16:48:42Z</time>
      </trkpt>
      <trkpt lat="50.61152" lon="3.0735">
        <ele>-5</ele>
        <time>2018-06-24T16:48:46Z</time>
      </trkpt>
      <trkpt lat="50.61152" lon="3.0735">
        <ele>-5</ele>
        <time>2018-06-24T16:48:50Z</time>
      </trkpt>
      <trkpt lat="50.61152" lon="3.0735">
        <ele>-5.6</ele>
        <time>2018-06-24T16:48:54Z</time>
      </trkpt>
      <trkpt lat="50.61152" lon="3.0735">
        <ele>-5.4</ele>
        <time>2018-06-24T16:48:58Z</time>
      </trkpt>
      <trkpt lat="50.61152" lon="3.0735">
        <ele>-5.6</ele>
        <time>2018-06-24T16:49:02Z</time>
      </trkpt>
      <trkpt lat="50.61152" lon="3.0735">
        <ele>-5.4</ele>
        <time>2018-06-24T16:49:06Z</time>
      </trkpt>
      <trkpt lat="50.61152" lon="3.0735">
        <ele>-5.4</ele>
        <time>2018-06-24T16:49:10Z</time>
      </trkpt>
      <trkpt lat="50.61152" lon="3.0735">
        <ele>-5.6</ele>
        <time>2018-06-24T16:49:14Z</time>
      </trkpt>
      <trkpt lat="50.61152" lon="3.0735">
        <ele>-5.6</ele>
        <time>2018-06-24T16:49:18Z</time>
      </trkpt>
      <trkpt lat="50.61152" lon="3.0735">
        <ele>-5</ele>
        <time>2018-06-24T16:49:22Z</time>
      </trkpt>
      <trkpt lat="50.61152" lon="3.0735">
        <ele>-5.6</ele>
        <time>2018-06-24T16:49:26Z</time>
      </trkpt>
      <trkpt lat="50.61152" lon="3.0735">
        <ele>-6</ele>
        <time>2018-06-24T16:49:30Z</time>
      </trkpt>
      <trkpt lat="50.61152" lon="3.0735">
        <ele>-5.6</ele>
        <time>2018-06-24T16:49:34Z</time>
      </trkpt>
      <trkpt lat="50.61152" lon="3.0735">
        <ele>-5.2</ele>
        <time>2018-06-24T16:49:38Z</time>
      </trkpt>
      <trkpt lat="50.61152" lon="3.0735">
        <ele>-5.2</ele>
        <time>2018-06-24T16:49:42Z</time>
      </trkpt>
      <trkpt lat="50.61152" lon="3.0735">
        <ele>-5.2</ele>
        <time>2018-06-24T16:49:46Z</time>
      </trkpt>
      <trkpt lat="50.61152" lon="3.0735">
        <ele>-5.4</ele>
        <time>2018-06-24T16:49:50Z</time>
      </trkpt>
      <trkpt lat="50.61152" lon="3.0735">
        <ele>-5</ele>
        <time>2018-06-24T16:49:54Z</time>
      </trkpt>
      <trkpt lat="50.61152" lon="3.0735">
        <ele>-5.2</ele>
        <time>2018-06-24T16:49:58Z</time>
      </trkpt>
      <trkpt lat="50.61152" lon="3.0735">
        <ele>-5.4</ele>
        <time>2018-06-24T16:50:02Z</time>
      </trkpt>
      <trkpt lat="50.61152" lon="3.0735">
        <ele>-5</ele>
        <time>2018-06-24T16:50:06Z</time>
      </trkpt>
      <trkpt lat="50.61152" lon="3.0735">
        <ele>-5.2</ele>
        <time>2018-06-24T16:50:10Z</time>
      </trkpt>
      <trkpt lat="50.61152" lon="3.0735">
        <ele>-5.2</ele>
        <time>2018-06-24T16:50:14Z</time>
      </trkpt>
      <trkpt lat="50.61152" lon="3.0735">
        <ele>-5</ele>
        <time>2018-06-24T16:50:18Z</time>
      </trkpt>
      <trkpt lat="50.61152" lon="3.0735">
        <ele>-4.8</ele>
        <time>2018-06-24T16:50:22Z</time>
      </trkpt>
      <trkpt lat="50.61152" lon="3.0735">
        <ele>-5</ele>
        <time>2018-06-24T16:50:26Z</time>
      </trkpt>
      <trkpt lat="50.61152" lon="3.0735">
        <ele>-5.2</ele>
        <time>2018-06-24T16:50:30Z</time>
      </trkpt>
      <trkpt lat="50.61152" lon="3.0735">
        <ele>-5.2</ele>
        <time>2018-06-24T16:50:34Z</time>
      </trkpt>
      <trkpt lat="50.61152" lon="3.0735">
        <ele>-5.2</ele>
        <time>2018-06-24T16:50:38Z</time>
      </trkpt>
      <trkpt lat="50.61152" lon="3.0735">
        <ele>-5.2</ele>
        <time>2018-06-24T16:50:42Z</time>
      </trkpt>
      <trkpt lat="50.61152" lon="3.0735">
        <ele>-5</ele>
        <time>2018-06-24T16:50:46Z</time>
      </trkpt>
      <trkpt lat="50.61152" lon="3.0735">
        <ele>-5.4</ele>
        <time>2018-06-24T16:50:50Z</time>
      </trkpt>
      <trkpt lat="50.61152" lon="3.0735">
        <ele>-4.6</ele>
        <time>2018-06-24T16:50:54Z</time>
      </trkpt>
      <trkpt lat="50.61152" lon="3.0735">
        <ele>-5</ele>
        <time>2018-06-24T16:50:58Z</time>
      </trkpt>
      <trkpt lat="50.61152" lon="3.0735">
        <ele>-5</ele>
        <time>2018-06-24T16:51:02Z</time>
      </trkpt>
      <trkpt lat="50.61152" lon="3.0735">
        <ele>-5</ele>
        <time>2018-06-24T16:51:06Z</time>
      </trkpt>
      <trkpt lat="50.61152" lon="3.0735">
        <ele>-5</ele>
        <time>2018-06-24T16:51:10Z</time>
      </trkpt>
      <trkpt lat="50.61152" lon="3.0735">
        <ele>-5</ele>
        <time>2018-06-24T16:51:14Z</time>
      </trkpt>
      <trkpt lat="50.61152" lon="3.0735">
        <ele>-5</ele>
        <time>2018-06-24T16:51:18Z</time>
      </trkpt>
      <trkpt lat="50.61152" lon="3.0735">
        <ele>-5.2</ele>
        <time>2018-06-24T16:51:22Z</time>
      </trkpt>
      <trkpt lat="50.61152" lon="3.0735">
        <ele>-5</ele>
        <time>2018-06-24T16:51:26Z</time>
      </trkpt>
      <trkpt lat="50.61152" lon="3.0735">
        <ele>-5.2</ele>
        <time>2018-06-24T16:51:30Z</time>
      </trkpt>
      <trkpt lat="50.61152" lon="3.0735">
        <ele>-5</ele>
        <time>2018-06-24T16:51:34Z</time>
      </trkpt>
      <trkpt lat="50.61152" lon="3.0735">
        <ele>-5.6</ele>
        <time>2018-06-24T16:51:38Z</time>
      </trkpt>
      <trkpt lat="50.61152" lon="3.0735">
        <ele>-5.4</ele>
        <time>2018-06-24T16:51:42Z</time>
      </trkpt>
      <trkpt lat="50.61152" lon="3.0735">
        <ele>-5.4</ele>
        <time>2018-06-24T16:51:46Z</time>
      </trkpt>
      <trkpt lat="50.61152" lon="3.0735">
        <ele>-5.4</ele>
        <time>2018-06-24T16:51:50Z</time>
      </trkpt>
      <trkpt lat="50.61152" lon="3.0735">
        <ele>-5.6</ele>
        <time>2018-06-24T16:51:54Z</time>
      </trkpt>
      <trkpt lat="50.61152" lon="3.0735">
        <ele>-5</ele>
        <time>2018-06-24T16:51:58Z</time>
      </trkpt>
      <trkpt lat="50.61152" lon="3.0735">
        <ele>-5.2</ele>
        <time>2018-06-24T16:52:02Z</time>
      </trkpt>
      <trkpt lat="50.61152" lon="3.0735">
        <ele>-5</ele>
        <time>2018-06-24T16:52:06Z</time>
      </trkpt>
      <trkpt lat="50.61152" lon="3.0735">
        <ele>-5</ele>
        <time>2018-06-24T16:52:10Z</time>
      </trkpt>
      <trkpt lat="50.61152" lon="3.0735">
        <ele>-5</ele>
        <time>2018-06-24T16:52:14Z</time>
      </trkpt>
      <trkpt lat="50.61152" lon="3.0735">
        <ele>-5.2</ele>
        <time>2018-06-24T16:52:18Z</time>
      </trkpt>
      <trkpt lat="50.61152" lon="3.0735">
        <ele>-5.2</ele>
        <time>2018-06-24T16:52:22Z</time>
      </trkpt>
      <trkpt lat="50.61152" lon="3.0735">
        <ele>-5.2</ele>
        <time>2018-06-24T16:52:26Z</time>
      </trkpt>
      <trkpt lat="50.61152" lon="3.0735">
        <ele>-5.2</ele>
        <time>2018-06-24T16:52:30Z</time>
      </trkpt>
      <trkpt lat="50.61152" lon="3.0735">
        <ele>-5.2</ele>
        <time>2018-06-24T16:52:34Z</time>
      </trkpt>
      <trkpt lat="50.61152" lon="3.0735">
        <ele>-5.4</ele>
        <time>2018-06-24T16:52:38Z</time>
      </trkpt>
      <trkpt lat="50.61152" lon="3.0735">
        <ele>-5</ele>
        <time>2018-06-24T16:52:42Z</time>
      </trkpt>
      <trkpt lat="50.61152" lon="3.0735">
        <ele>-5.6</ele>
        <time>2018-06-24T16:52:46Z</time>
      </trkpt>
      <trkpt lat="50.61152" lon="3.0735">
        <ele>-5.4</ele>
        <time>2018-06-24T16:52:50Z</time>
      </trkpt>
      <trkpt lat="50.61152" lon="3.0735">
        <ele>-5.6</ele>
        <time>2018-06-24T16:52:54Z</time>
      </trkpt>
      <trkpt lat="50.61152" lon="3.0735">
        <ele>-5</ele>
        <time>2018-06-24T16:52:58Z</time>
      </trkpt>
      <trkpt lat="50.61152" lon="3.0735">
        <ele>-5.2</ele>
        <time>2018-06-24T16:53:02Z</time>
      </trkpt>
      <trkpt lat="50.61152" lon="3.0735">
        <ele>-5.2</ele>
        <time>2018-06-24T16:53:06Z</time>
      </trkpt>
      <trkpt lat="50.61152" lon="3.0735">
        <ele>-5.4</ele>
        <time>2018-06-24T16:53:10Z</time>
      </trkpt>
      <trkpt lat="50.61152" lon="3.0735">
        <ele>-5.2</ele>
        <time>2018-06-24T16:53:14Z</time>
      </trkpt>
      <trkpt lat="50.61152" lon="3.0735">
        <ele>-5.2</ele>
        <time>2018-06-24T16:53:18Z</time>
      </trkpt>
      <trkpt lat="50.61152" lon="3.0735">
        <ele>-5.4</ele>
        <time>2018-06-24T16:53:22Z</time>
      </trkpt>
      <trkpt lat="50.61152" lon="3.0735">
        <ele>-5.2</ele>
        <time>2018-06-24T16:53:26Z</time>
      </trkpt>
      <trkpt lat="50.61152" lon="3.0735">
        <ele>-5.6</ele>
        <time>2018-06-24T16:53:30Z</time>
      </trkpt>
      <trkpt lat="50.61152" lon="3.0735">
        <ele>-5.4</ele>
        <time>2018-06-24T16:53:34Z</time>
      </trkpt>
      <trkpt lat="50.61152" lon="3.0735">
        <ele>-5.4</ele>
        <time>2018-06-24T16:53:38Z</time>
      </trkpt>
      <trkpt lat="50.61152" lon="3.0735">
        <ele>-5.2</ele>
        <time>2018-06-24T16:53:42Z</time>
      </trkpt>
      <trkpt lat="50.61152" lon="3.0735">
        <ele>-4.8</ele>
        <time>2018-06-24T16:53:46Z</time>
      </trkpt>
      <trkpt lat="50.61152" lon="3.0735">
        <ele>-5</ele>
        <time>2018-06-24T16:53:50Z</time>
      </trkpt>
      <trkpt lat="50.61152" lon="3.0735">
        <ele>-5.4</ele>
        <time>2018-06-24T16:53:54Z</time>
      </trkpt>
      <trkpt lat="50.61152" lon="3.0735">
        <ele>-5</ele>
        <time>2018-06-24T16:53:58Z</time>
      </trkpt>
      <trkpt lat="50.61152" lon="3.0735">
        <ele>-4.8</ele>
        <time>2018-06-24T16:54:02Z</time>
      </trkpt>
      <trkpt lat="50.61152" lon="3.0735">
        <ele>-4.8</ele>
        <time>2018-06-24T16:54:06Z</time>
      </trkpt>
      <trkpt lat="50.61152" lon="3.0735">
        <ele>-5</ele>
        <time>2018-06-24T16:54:10Z</time>
      </trkpt>
      <trkpt lat="50.61152" lon="3.0735">
        <ele>-5</ele>
        <time>2018-06-24T16:54:14Z</time>
      </trkpt>
      <trkpt lat="50.61152" lon="3.0735">
        <ele>-5</ele>
        <time>2018-06-24T16:54:18Z</time>
      </trkpt>
      <trkpt lat="50.61152" lon="3.0735">
        <ele>-5</ele>
        <time>2018-06-24T16:54:22Z</time>
      </trkpt>
      <trkpt lat="50.61152" lon="3.0735">
        <ele>-4.8</ele>
        <time>2018-06-24T16:54:26Z</time>
      </trkpt>
      <trkpt lat="50.61152" lon="3.0735">
        <ele>-5</ele>
        <time>2018-06-24T16:54:30Z</time>
      </trkpt>
      <trkpt lat="50.61152" lon="3.0735">
        <ele>-5</ele>
        <time>2018-06-24T16:54:34Z</time>
      </trkpt>
      <trkpt lat="50.61152" lon="3.0735">
        <ele>-5.6</ele>
        <time>2018-06-24T16:54:38Z</time>
      </trkpt>
      <trkpt lat="50.61152" lon="3.0735">
        <ele>-5.6</ele>
        <time>2018-06-24T16:54:42Z</time>
      </trkpt>
      <trkpt lat="50.61152" lon="3.0735">
        <ele>-5.6</ele>
        <time>2018-06-24T16:54:46Z</time>
      </trkpt>
      <trkpt lat="50.61152" lon="3.0735">
        <ele>-5.6</ele>
        <time>2018-06-24T16:54:50Z</time>
      </trkpt>
      <trkpt lat="50.61152" lon="3.0735">
        <ele>-5.6</ele>
        <time>2018-06-24T16:54:54Z</time>
      </trkpt>
      <trkpt lat="50.61152" lon="3.0735">
        <ele>-5.6</ele>
        <time>2018-06-24T16:54:58Z</time>
      </trkpt>
      <trkpt lat="50.61152" lon="3.0735">
        <ele>-6</ele>
        <time>2018-06-24T16:55:02Z</time>
      </trkpt>
      <trkpt lat="50.61152" lon="3.0735">
        <ele>-5.4</ele>
        <time>2018-06-24T16:55:06Z</time>
      </trkpt>
      <trkpt lat="50.61152" lon="3.0735">
        <ele>-5</ele>
        <time>2018-06-24T16:55:10Z</time>
      </trkpt>
      <trkpt lat="50.61152" lon="3.0735">
        <ele>-5</ele>
        <time>2018-06-24T16:55:14Z</time>
      </trkpt>
      <trkpt lat="50.61152" lon="3.0735">
        <ele>-5.4</ele>
        <time>2018-06-24T16:55:18Z</time>
      </trkpt>
      <trkpt lat="50.61152" lon="3.0735">
        <ele>-5</ele>
        <time>2018-06-24T16:55:22Z</time>
      </trkpt>
      <trkpt lat="50.61152" lon="3.0735">
        <ele>-5.4</ele>
        <time>2018-06-24T16:55:26Z</time>
      </trkpt>
      <trkpt lat="50.61152" lon="3.0735">
        <ele>-5.2</ele>
        <time>2018-06-24T16:55:30Z</time>
      </trkpt>
      <trkpt lat="50.61152" lon="3.0735">
        <ele>-5</ele>
        <time>2018-06-24T16:55:34Z</time>
      </trkpt>
      <trkpt lat="50.61152" lon="3.0735">
        <ele>-4.8</ele>
        <time>2018-06-24T16:55:38Z</time>
      </trkpt>
      <trkpt lat="50.61152" lon="3.0735">
        <ele>-5.2</ele>
        <time>2018-06-24T16:55:42Z</time>
      </trkpt>
      <trkpt lat="50.61152" lon="3.0735">
        <ele>-5.6</ele>
        <time>2018-06-24T16:55:46Z</time>
      </trkpt>
      <trkpt lat="50.61152" lon="3.0735">
        <ele>-5.6</ele>
        <time>2018-06-24T16:55:50Z</time>
      </trkpt>
      <trkpt lat="50.61152" lon="3.0735">
        <ele>-5.8</ele>
        <time>2018-06-24T16:55:54Z</time>
      </trkpt>
      <trkpt lat="50.61152" lon="3.0735">
        <ele>-5.8</ele>
        <time>2018-06-24T16:55:58Z</time>
      </trkpt>
      <trkpt lat="50.61152" lon="3.0735">
        <ele>-5.6</ele>
        <time>2018-06-24T16:56:02Z</time>
      </trkpt>
      <trkpt lat="50.61152" lon="3.0735">
        <ele>-6</ele>
        <time>2018-06-24T16:56:06Z</time>
      </trkpt>
      <trkpt lat="50.61152" lon="3.0735">
        <ele>-5.4</ele>
        <time>2018-06-24T16:56:10Z</time>
      </trkpt>
      <trkpt lat="50.61152" lon="3.0735">
        <ele>-5.4</ele>
        <time>2018-06-24T16:56:14Z</time>
      </trkpt>
      <trkpt lat="50.61152" lon="3.0735">
        <ele>-5</ele>
        <time>2018-06-24T16:56:18Z</time>
      </trkpt>
      <trkpt lat="50.61152" lon="3.0735">
        <ele>-5.2</ele>
        <time>2018-06-24T16:56:22Z</time>
      </trkpt>
      <trkpt lat="50.61152" lon="3.0735">
        <ele>-5</ele>
        <time>2018-06-24T16:56:26Z</time>
      </trkpt>
      <trkpt lat="50.61152" lon="3.0735">
        <ele>-4.8</ele>
        <time>2018-06-24T16:56:30Z</time>
      </trkpt>
      <trkpt lat="50.61152" lon="3.0735">
        <ele>-5.4</ele>
        <time>2018-06-24T16:56:34Z</time>
      </trkpt>
      <trkpt lat="50.61152" lon="3.0735">
        <ele>-5</ele>
        <time>2018-06-24T16:56:38Z</time>
      </trkpt>
      <trkpt lat="50.61152" lon="3.0735">
        <ele>-4.8</ele>
        <time>2018-06-24T16:56:42Z</time>
      </trkpt>
      <trkpt lat="50.61152" lon="3.0735">
        <ele>-5</ele>
        <time>2018-06-24T16:56:46Z</time>
      </trkpt>
      <trkpt lat="50.61152" lon="3.0735">
        <ele>-4.8</ele>
        <time>2018-06-24T16:56:50Z</time>
      </trkpt>
      <trkpt lat="50.61152" lon="3.0735">
        <ele>-5</ele>
        <time>2018-06-24T16:56:54Z</time>
      </trkpt>
      <trkpt lat="50.61152" lon="3.0735">
        <ele>-5.2</ele>
        <time>2018-06-24T16:56:58Z</time>
      </trkpt>
      <trkpt lat="50.61152" lon="3.0735">
        <ele>-5.2</ele>
        <time>2018-06-24T16:57:02Z</time>
      </trkpt>
      <trkpt lat="50.61152" lon="3.0735">
        <ele>-5</ele>
        <time>2018-06-24T16:57:06Z</time>
      </trkpt>
      <trkpt lat="50.61152" lon="3.0735">
        <ele>-5</ele>
        <time>2018-06-24T16:57:10Z</time>
      </trkpt>
      <trkpt lat="50.61152" lon="3.0735">
        <ele>-4.8</ele>
        <time>2018-06-24T16:57:14Z</time>
      </trkpt>
      <trkpt lat="50.61152" lon="3.0735">
        <ele>-4.8</ele>
        <time>2018-06-24T16:57:18Z</time>
      </trkpt>
      <trkpt lat="50.61152" lon="3.0735">
        <ele>-5</ele>
        <time>2018-06-24T16:57:22Z</time>
      </trkpt>
      <trkpt lat="50.61152" lon="3.0735">
        <ele>-4.8</ele>
        <time>2018-06-24T16:57:26Z</time>
      </trkpt>
      <trkpt lat="50.61152" lon="3.0735">
        <ele>-4.6</ele>
        <time>2018-06-24T16:57:30Z</time>
      </trkpt>
      <trkpt lat="50.61152" lon="3.0735">
        <ele>-4.8</ele>
        <time>2018-06-24T16:57:34Z</time>
      </trkpt>
      <trkpt lat="50.61152" lon="3.0735">
        <ele>-4.8</ele>
        <time>2018-06-24T16:57:38Z</time>
      </trkpt>
      <trkpt lat="50.61152" lon="3.0735">
        <ele>-4.8</ele>
        <time>2018-06-24T16:57:42Z</time>
      </trkpt>
      <trkpt lat="50.61152" lon="3.0735">
        <ele>-5</ele>
        <time>2018-06-24T16:57:46Z</time>
      </trkpt>
      <trkpt lat="50.61152" lon="3.0735">
        <ele>-4.6</ele>
        <time>2018-06-24T16:57:50Z</time>
      </trkpt>
      <trkpt lat="50.61152" lon="3.0735">
        <ele>-4.8</ele>
        <time>2018-06-24T16:57:54Z</time>
      </trkpt>
      <trkpt lat="50.61152" lon="3.0735">
        <ele>-4.8</ele>
        <time>2018-06-24T16:57:58Z</time>
      </trkpt>
      <trkpt lat="50.61152" lon="3.0735">
        <ele>-4.6</ele>
        <time>2018-06-24T16:58:02Z</time>
      </trkpt>
      <trkpt lat="50.61152" lon="3.0735">
        <ele>-4.6</ele>
        <time>2018-06-24T16:58:06Z</time>
      </trkpt>
      <trkpt lat="50.61152" lon="3.0735">
        <ele>-4.8</ele>
        <time>2018-06-24T16:58:10Z</time>
      </trkpt>
      <trkpt lat="50.61152" lon="3.0735">
        <ele>-5</ele>
        <time>2018-06-24T16:58:14Z</time>
      </trkpt>
      <trkpt lat="50.61152" lon="3.0735">
        <ele>-4.6</ele>
        <time>2018-06-24T16:58:18Z</time>
      </trkpt>
      <trkpt lat="50.61152" lon="3.0735">
        <ele>-4.4</ele>
        <time>2018-06-24T16:58:22Z</time>
      </trkpt>
      <trkpt lat="50.61152" lon="3.0735">
        <ele>-5</ele>
        <time>2018-06-24T16:58:26Z</time>
      </trkpt>
      <trkpt lat="50.61152" lon="3.0735">
        <ele>-4.8</ele>
        <time>2018-06-24T16:58:30Z</time>
      </trkpt>
      <trkpt lat="50.61152" lon="3.0735">
        <ele>-4.8</ele>
        <time>2018-06-24T16:58:34Z</time>
      </trkpt>
      <trkpt lat="50.61152" lon="3.0735">
        <ele>-4.6</ele>
        <time>2018-06-24T16:58:38Z</time>
      </trkpt>
      <trkpt lat="50.61152" lon="3.0735">
        <ele>-4.8</ele>
        <time>2018-06-24T16:58:42Z</time>
      </trkpt>
      <trkpt lat="50.61152" lon="3.0735">
        <ele>-5</ele>
        <time>2018-06-24T16:58:46Z</time>
      </trkpt>
      <trkpt lat="50.61152" lon="3.0735">
        <ele>-4.8</ele>
        <time>2018-06-24T16:58:50Z</time>
      </trkpt>
      <trkpt lat="50.61152" lon="3.0735">
        <ele>-5</ele>
        <time>2018-06-24T16:58:54Z</time>
      </trkpt>
      <trkpt lat="50.61152" lon="3.0735">
        <ele>-5</ele>
        <time>2018-06-24T16:58:58Z</time>
      </trkpt>
      <trkpt lat="50.61152" lon="3.0735">
        <ele>-5</ele>
        <time>2018-06-24T16:59:02Z</time>
      </trkpt>
      <trkpt lat="50.61152" lon="3.0735">
        <ele>-4.6</ele>
        <time>2018-06-24T16:59:06Z</time>
      </trkpt>
      <trkpt lat="50.61152" lon="3.0735">
        <ele>-4.8</ele>
        <time>2018-06-24T16:59:10Z</time>
      </trkpt>
      <trkpt lat="50.61152" lon="3.0735">
        <ele>-5</ele>
        <time>2018-06-24T16:59:14Z</time>
      </trkpt>
      <trkpt lat="50.61152" lon="3.0735">
        <ele>-5</ele>
        <time>2018-06-24T16:59:18Z</time>
      </trkpt>
      <trkpt lat="50.61152" lon="3.0735">
        <ele>-5</ele>
        <time>2018-06-24T16:59:22Z</time>
      </trkpt>
      <trkpt lat="50.61152" lon="3.0735">
        <ele>-4.4</ele>
        <time>2018-06-24T16:59:26Z</time>
      </trkpt>
      <trkpt lat="50.61152" lon="3.0735">
        <ele>-5</ele>
        <time>2018-06-24T16:59:30Z</time>
      </trkpt>
      <trkpt lat="50.61152" lon="3.0735">
        <ele>-5</ele>
        <time>2018-06-24T16:59:34Z</time>
      </trkpt>
      <trkpt lat="50.61152" lon="3.0735">
        <ele>-4.8</ele>
        <time>2018-06-24T16:59:38Z</time>
      </trkpt>
      <trkpt lat="50.61152" lon="3.0735">
        <ele>-4.4</ele>
        <time>2018-06-24T16:59:42Z</time>
      </trkpt>
      <trkpt lat="50.61152" lon="3.0735">
        <ele>-4.6</ele>
        <time>2018-06-24T16:59:46Z</time>
      </trkpt>
      <trkpt lat="50.61152" lon="3.0735">
        <ele>-4.8</ele>
        <time>2018-06-24T16:59:50Z</time>
      </trkpt>
      <trkpt lat="50.61152" lon="3.0735">
        <ele>-5</ele>
        <time>2018-06-24T16:59:54Z</time>
      </trkpt>
      <trkpt lat="50.61152" lon="3.0735">
        <ele>-5</ele>
        <time>2018-06-24T16:59:58Z</time>
      </trkpt>
      <trkpt lat="50.61152" lon="3.0735">
        <ele>-5</ele>
        <time>2018-06-24T17:00:02Z</time>
      </trkpt>
      <trkpt lat="50.61152" lon="3.0735">
        <ele>-5</ele>
        <time>2018-06-24T17:00:06Z</time>
      </trkpt>
      <trkpt lat="50.61152" lon="3.0735">
        <ele>-5.2</ele>
        <time>2018-06-24T17:00:10Z</time>
      </trkpt>
      <trkpt lat="50.61152" lon="3.0735">
        <ele>-4.8</ele>
        <time>2018-06-24T17:00:14Z</time>
      </trkpt>
      <trkpt lat="50.61152" lon="3.0735">
        <ele>-4.8</ele>
        <time>2018-06-24T17:00:18Z</time>
      </trkpt>
      <trkpt lat="50.61152" lon="3.0735">
        <ele>-4.6</ele>
        <time>2018-06-24T17:00:22Z</time>
      </trkpt>
      <trkpt lat="50.61152" lon="3.0735">
        <ele>-4.8</ele>
        <time>2018-06-24T17:00:26Z</time>
      </trkpt>
      <trkpt lat="50.61152" lon="3.0735">
        <ele>-5.4</ele>
        <time>2018-06-24T17:00:30Z</time>
      </trkpt>
      <trkpt lat="50.61152" lon="3.0735">
        <ele>-5.6</ele>
        <time>2018-06-24T17:00:34Z</time>
      </trkpt>
      <trkpt lat="50.61152" lon="3.0735">
        <ele>-5.6</ele>
        <time>2018-06-24T17:00:38Z</time>
      </trkpt>
      <trkpt lat="50.61152" lon="3.0735">
        <ele>-5.2</ele>
        <time>2018-06-24T17:00:42Z</time>
      </trkpt>
      <trkpt lat="50.61152" lon="3.0735">
        <ele>-5.2</ele>
        <time>2018-06-24T17:00:46Z</time>
      </trkpt>
      <trkpt lat="50.61152" lon="3.0735">
        <ele>-5</ele>
        <time>2018-06-24T17:00:50Z</time>
      </trkpt>
      <trkpt lat="50.61152" lon="3.0735">
        <ele>-5.2</ele>
        <time>2018-06-24T17:00:54Z</time>
      </trkpt>
      <trkpt lat="50.61152" lon="3.0735">
        <ele>-5.2</ele>
        <time>2018-06-24T17:00:58Z</time>
      </trkpt>
      <trkpt lat="50.61152" lon="3.0735">
        <ele>-5.2</ele>
        <time>2018-06-24T17:01:02Z</time>
      </trkpt>
      <trkpt lat="50.61152" lon="3.0735">
        <ele>-4.8</ele>
        <time>2018-06-24T17:01:06Z</time>
      </trkpt>
      <trkpt lat="50.61152" lon="3.0735">
        <ele>-5</ele>
        <time>2018-06-24T17:01:10Z</time>
      </trkpt>
      <trkpt lat="50.61152" lon="3.0735">
        <ele>-5</ele>
        <time>2018-06-24T17:01:14Z</time>
      </trkpt>
      <trkpt lat="50.61152" lon="3.0735">
        <ele>-5</ele>
        <time>2018-06-24T17:01:18Z</time>
      </trkpt>
      <trkpt lat="50.61152" lon="3.0735">
        <ele>-5.4</ele>
        <time>2018-06-24T17:01:22Z</time>
      </trkpt>
      <trkpt lat="50.61152" lon="3.0735">
        <ele>-5.6</ele>
        <time>2018-06-24T17:01:26Z</time>
      </trkpt>
      <trkpt lat="50.61152" lon="3.0735">
        <ele>-5.4</ele>
        <time>2018-06-24T17:01:30Z</time>
      </trkpt>
      <trkpt lat="50.61152" lon="3.0735">
        <ele>-4.8</ele>
        <time>2018-06-24T17:01:34Z</time>
      </trkpt>
      <trkpt lat="50.61152" lon="3.0735">
        <ele>-5.2</ele>
        <time>2018-06-24T17:01:38Z</time>
      </trkpt>
      <trkpt lat="50.61152" lon="3.0735">
        <ele>-5.4</ele>
        <time>2018-06-24T17:01:42Z</time>
      </trkpt>
      <trkpt lat="50.61152" lon="3.0735">
        <ele>-5.6</ele>
        <time>2018-06-24T17:01:46Z</time>
      </trkpt>
      <trkpt lat="50.61152" lon="3.0735">
        <ele>-5.8</ele>
        <time>2018-06-24T17:01:50Z</time>
      </trkpt>
      <trkpt lat="50.61152" lon="3.0735">
        <ele>-5.6</ele>
        <time>2018-06-24T17:01:54Z</time>
      </trkpt>
      <trkpt lat="50.61152" lon="3.0735">
        <ele>-5.6</ele>
        <time>2018-06-24T17:01:58Z</time>
      </trkpt>
      <trkpt lat="50.61152" lon="3.0735">
        <ele>-5.4</ele>
        <time>2018-06-24T17:02:02Z</time>
      </trkpt>
      <trkpt lat="50.61152" lon="3.0735">
        <ele>-5.2</ele>
        <time>2018-06-24T17:02:06Z</time>
      </trkpt>
      <trkpt lat="50.61152" lon="3.0735">
        <ele>-5.2</ele>
        <time>2018-06-24T17:02:10Z</time>
      </trkpt>
      <trkpt lat="50.61152" lon="3.0735">
        <ele>-5.4</ele>
        <time>2018-06-24T17:02:14Z</time>
      </trkpt>
      <trkpt lat="50.61152" lon="3.0735">
        <ele>-5</ele>
        <time>2018-06-24T17:02:18Z</time>
      </trkpt>
      <trkpt lat="50.61152" lon="3.0735">
        <ele>-5.4</ele>
        <time>2018-06-24T17:02:22Z</time>
      </trkpt>
      <trkpt lat="50.61152" lon="3.0735">
        <ele>-5.4</ele>
        <time>2018-06-24T17:02:26Z</time>
      </trkpt>
      <trkpt lat="50.61152" lon="3.0735">
        <ele>-5.4</ele>
        <time>2018-06-24T17:02:30Z</time>
      </trkpt>
      <trkpt lat="50.61152" lon="3.0735">
        <ele>-5.6</ele>
        <time>2018-06-24T17:02:34Z</time>
      </trkpt>
      <trkpt lat="50.61152" lon="3.0735">
        <ele>-5.4</ele>
        <time>2018-06-24T17:02:38Z</time>
      </trkpt>
      <trkpt lat="50.61152" lon="3.0735">
        <ele>-5.4</ele>
        <time>2018-06-24T17:02:42Z</time>
      </trkpt>
      <trkpt lat="50.61152" lon="3.0735">
        <ele>-5.4</ele>
        <time>2018-06-24T17:02:46Z</time>
      </trkpt>
      <trkpt lat="50.61152" lon="3.0735">
        <ele>-5.6</ele>
        <time>2018-06-24T17:02:50Z</time>
      </trkpt>
      <trkpt lat="50.61152" lon="3.0735">
        <ele>-5.6</ele>
        <time>2018-06-24T17:02:54Z</time>
      </trkpt>
      <trkpt lat="50.61152" lon="3.0735">
        <ele>-5.6</ele>
        <time>2018-06-24T17:02:58Z</time>
      </trkpt>
      <trkpt lat="50.61152" lon="3.0735">
        <ele>-5.6</ele>
        <time>2018-06-24T17:03:02Z</time>
      </trkpt>
      <trkpt lat="50.61152" lon="3.0735">
        <ele>-5.8</ele>
        <time>2018-06-24T17:03:06Z</time>
      </trkpt>
      <trkpt lat="50.61152" lon="3.0735">
        <ele>-5.2</ele>
        <time>2018-06-24T17:03:10Z</time>
      </trkpt>
      <trkpt lat="50.61152" lon="3.0735">
        <ele>-5.4</ele>
        <time>2018-06-24T17:03:14Z</time>
      </trkpt>
      <trkpt lat="50.61152" lon="3.0735">
        <ele>-5.4</ele>
        <time>2018-06-24T17:03:18Z</time>
      </trkpt>
      <trkpt lat="50.61152" lon="3.0735">
        <ele>-5.2</ele>
        <time>2018-06-24T17:03:22Z</time>
      </trkpt>
      <trkpt lat="50.61152" lon="3.0735">
        <ele>-5.4</ele>
        <time>2018-06-24T17:03:26Z</time>
      </trkpt>
      <trkpt lat="50.61152" lon="3.0735">
        <ele>-5.4</ele>
        <time>2018-06-24T17:03:30Z</time>
      </trkpt>
      <trkpt lat="50.61152" lon="3.0735">
        <ele>-5.4</ele>
        <time>2018-06-24T17:03:34Z</time>
      </trkpt>
      <trkpt lat="50.61152" lon="3.0735">
        <ele>-5.6</ele>
        <time>2018-06-24T17:03:38Z</time>
      </trkpt>
      <trkpt lat="50.61152" lon="3.0735">
        <ele>-5.2</ele>
        <time>2018-06-24T17:03:42Z</time>
      </trkpt>
      <trkpt lat="50.61152" lon="3.0735">
        <ele>-4.8</ele>
        <time>2018-06-24T17:03:46Z</time>
      </trkpt>
      <trkpt lat="50.61167" lon="3.07377">
        <ele>-5.2</ele>
        <time>2018-06-24T17:03:50Z</time>
      </trkpt>
      <trkpt lat="50.61171" lon="3.07379">
        <ele>-5.6</ele>
        <time>2018-06-24T17:03:54Z</time>
      </trkpt>
      <trkpt lat="50.61171" lon="3.07379">
        <ele>-5.6</ele>
        <time>2018-06-24T17:03:58Z</time>
      </trkpt>
      <trkpt lat="50.61171" lon="3.07379">
        <ele>-5.6</ele>
        <time>2018-06-24T17:04:02Z</time>
      </trkpt>
      <trkpt lat="50.61171" lon="3.07379">
        <ele>-5.2</ele>
        <time>2018-06-24T17:04:06Z</time>
      </trkpt>
      <trkpt lat="50.61171" lon="3.07379">
        <ele>-5</ele>
        <time>2018-06-24T17:04:10Z</time>
      </trkpt>
      <trkpt lat="50.61171" lon="3.07379">
        <ele>-5</ele>
        <time>2018-06-24T17:04:14Z</time>
      </trkpt>
      <trkpt lat="50.61171" lon="3.07379">
        <ele>-5.4</ele>
        <time>2018-06-24T17:04:18Z</time>
      </trkpt>
      <trkpt lat="50.61171" lon="3.07379">
        <ele>-5.6</ele>
        <time>2018-06-24T17:04:22Z</time>
      </trkpt>
      <trkpt lat="50.61171" lon="3.07379">
        <ele>-5.4</ele>
        <time>2018-06-24T17:04:26Z</time>
      </trkpt>
      <trkpt lat="50.61171" lon="3.07379">
        <ele>-5.6</ele>
        <time>2018-06-24T17:04:30Z</time>
      </trkpt>
      <trkpt lat="50.61171" lon="3.07379">
        <ele>-5.4</ele>
        <time>2018-06-24T17:04:34Z</time>
      </trkpt>
      <trkpt lat="50.61165" lon="3.07358">
        <ele>-5.2</ele>
        <time>2018-06-24T17:04:38Z</time>
      </trkpt>
      <trkpt lat="50.61165" lon="3.07358">
        <ele>-5</ele>
        <time>2018-06-24T17:04:42Z</time>
      </trkpt>
      <trkpt lat="50.61165" lon="3.07358">
        <ele>-5.2</ele>
        <time>2018-06-24T17:04:46Z</time>
      </trkpt>
      <trkpt lat="50.61165" lon="3.07358">
        <ele>-5</ele>
        <time>2018-06-24T17:04:50Z</time>
      </trkpt>
      <trkpt lat="50.61165" lon="3.07358">
        <ele>-5.4</ele>
        <time>2018-06-24T17:04:54Z</time>
      </trkpt>
      <trkpt lat="50.61154" lon="3.07347">
        <ele>-5</ele>
        <time>2018-06-24T17:04:58Z</time>
      </trkpt>
      <trkpt lat="50.61154" lon="3.07347">
        <ele>-5</ele>
        <time>2018-06-24T17:05:02Z</time>
      </trkpt>
      <trkpt lat="50.61154" lon="3.07347">
        <ele>-5.2</ele>
        <time>2018-06-24T17:05:06Z</time>
      </trkpt>
      <trkpt lat="50.61154" lon="3.07347">
        <ele>-5.2</ele>
        <time>2018-06-24T17:05:10Z</time>
      </trkpt>
      <trkpt lat="50.61154" lon="3.07347">
        <ele>-4.8</ele>
        <time>2018-06-24T17:05:14Z</time>
      </trkpt>
      <trkpt lat="50.61154" lon="3.07347">
        <ele>-5.4</ele>
        <time>2018-06-24T17:05:18Z</time>
      </trkpt>
      <trkpt lat="50.61154" lon="3.07347">
        <ele>-5.2</ele>
        <time>2018-06-24T17:05:22Z</time>
      </trkpt>
      <trkpt lat="50.61154" lon="3.07347">
        <ele>-5.6</ele>
        <time>2018-06-24T17:05:26Z</time>
      </trkpt>
      <trkpt lat="50.61154" lon="3.07347">
        <ele>-5.4</ele>
        <time>2018-06-24T17:05:30Z</time>
      </trkpt>
      <trkpt lat="50.61154" lon="3.07347">
        <ele>-5.2</ele>
        <time>2018-06-24T17:05:34Z</time>
      </trkpt>
      <trkpt lat="50.61154" lon="3.07347">
        <ele>-5.4</ele>
        <time>2018-06-24T17:05:38Z</time>
      </trkpt>
      <trkpt lat="50.61154" lon="3.07347">
        <ele>-5</ele>
        <time>2018-06-24T17:05:42Z</time>
      </trkpt>
      <trkpt lat="50.61154" lon="3.07347">
        <ele>-5.2</ele>
        <time>2018-06-24T17:05:46Z</time>
      </trkpt>
      <trkpt lat="50.61154" lon="3.07347">
        <ele>-5.2</ele>
        <time>2018-06-24T17:05:50Z</time>
      </trkpt>
      <trkpt lat="50.61154" lon="3.07347">
        <ele>-5.2</ele>
        <time>2018-06-24T17:05:54Z</time>
      </trkpt>
      <trkpt lat="50.61154" lon="3.07347">
        <ele>-5.6</ele>
        <time>2018-06-24T17:05:58Z</time>
      </trkpt>
      <trkpt lat="50.61154" lon="3.07347">
        <ele>-5.6</ele>
        <time>2018-06-24T17:06:02Z</time>
      </trkpt>
      <trkpt lat="50.61154" lon="3.07347">
        <ele>-5.6</ele>
        <time>2018-06-24T17:06:06Z</time>
      </trkpt>
      <trkpt lat="50.61154" lon="3.07347">
        <ele>-5.2</ele>
        <time>2018-06-24T17:06:10Z</time>
      </trkpt>
      <trkpt lat="50.61154" lon="3.07347">
        <ele>-5.2</ele>
        <time>2018-06-24T17:06:14Z</time>
      </trkpt>
      <trkpt lat="50.61154" lon="3.07347">
        <ele>-5.2</ele>
        <time>2018-06-24T17:06:18Z</time>
      </trkpt>
      <trkpt lat="50.61154" lon="3.07347">
        <ele>-5.2</ele>
        <time>2018-06-24T17:06:22Z</time>
      </trkpt>
      <trkpt lat="50.61154" lon="3.07347">
        <ele>-5</ele>
        <time>2018-06-24T17:06:26Z</time>
      </trkpt>
      <trkpt lat="50.61154" lon="3.07347">
        <ele>-5.2</ele>
        <time>2018-06-24T17:06:30Z</time>
      </trkpt>
      <trkpt lat="50.61154" lon="3.07347">
        <ele>-5.6</ele>
        <time>2018-06-24T17:06:34Z</time>
      </trkpt>
      <trkpt lat="50.61154" lon="3.07347">
        <ele>-5.6</ele>
        <time>2018-06-24T17:06:38Z</time>
      </trkpt>
      <trkpt lat="50.61154" lon="3.07347">
        <ele>-5.4</ele>
        <time>2018-06-24T17:06:42Z</time>
      </trkpt>
      <trkpt lat="50.61154" lon="3.07347">
        <ele>-5.2</ele>
        <time>2018-06-24T17:06:46Z</time>
      </trkpt>
      <trkpt lat="50.61154" lon="3.07347">
        <ele>-5.2</ele>
        <time>2018-06-24T17:06:50Z</time>
      </trkpt>
      <trkpt lat="50.61154" lon="3.07347">
        <ele>-5</ele>
        <time>2018-06-24T17:06:54Z</time>
      </trkpt>
      <trkpt lat="50.61154" lon="3.07347">
        <ele>-4.8</ele>
        <time>2018-06-24T17:06:58Z</time>
      </trkpt>
      <trkpt lat="50.61154" lon="3.07347">
        <ele>-5</ele>
        <time>2018-06-24T17:07:02Z</time>
      </trkpt>
      <trkpt lat="50.61154" lon="3.07347">
        <ele>-5</ele>
        <time>2018-06-24T17:07:06Z</time>
      </trkpt>
      <trkpt lat="50.61154" lon="3.07347">
        <ele>-5.2</ele>
        <time>2018-06-24T17:07:10Z</time>
      </trkpt>
      <trkpt lat="50.61154" lon="3.07347">
        <ele>-5</ele>
        <time>2018-06-24T17:07:14Z</time>
      </trkpt>
      <trkpt lat="50.61154" lon="3.07347">
        <ele>-5</ele>
        <time>2018-06-24T17:07:18Z</time>
      </trkpt>
      <trkpt lat="50.61154" lon="3.07347">
        <ele>-5.2</ele>
        <time>2018-06-24T17:07:22Z</time>
      </trkpt>
      <trkpt lat="50.61154" lon="3.07347">
        <ele>-5.2</ele>
        <time>2018-06-24T17:07:26Z</time>
      </trkpt>
      <trkpt lat="50.61154" lon="3.07347">
        <ele>-5</ele>
        <time>2018-06-24T17:07:30Z</time>
      </trkpt>
      <trkpt lat="50.61154" lon="3.07347">
        <ele>-5.6</ele>
        <time>2018-06-24T17:07:34Z</time>
      </trkpt>
      <trkpt lat="50.61154" lon="3.07347">
        <ele>-5.6</ele>
        <time>2018-06-24T17:07:38Z</time>
      </trkpt>
      <trkpt lat="50.61154" lon="3.07347">
        <ele>-5.4</ele>
        <time>2018-06-24T17:07:42Z</time>
      </trkpt>
      <trkpt lat="50.61154" lon="3.07347">
        <ele>-5.4</ele>
        <time>2018-06-24T17:07:46Z</time>
      </trkpt>
      <trkpt lat="50.61154" lon="3.07347">
        <ele>-5.4</ele>
        <time>2018-06-24T17:07:50Z</time>
      </trkpt>
      <trkpt lat="50.61154" lon="3.07347">
        <ele>-5.2</ele>
        <time>2018-06-24T17:07:54Z</time>
      </trkpt>
      <trkpt lat="50.61154" lon="3.07347">
        <ele>-5.4</ele>
        <time>2018-06-24T17:07:58Z</time>
      </trkpt>
      <trkpt lat="50.61154" lon="3.07347">
        <ele>-4.6</ele>
        <time>2018-06-24T17:08:02Z</time>
      </trkpt>
      <trkpt lat="50.61154" lon="3.07347">
        <ele>-5.2</ele>
        <time>2018-06-24T17:08:06Z</time>
      </trkpt>
      <trkpt lat="50.61154" lon="3.07347">
        <ele>-5.6</ele>
        <time>2018-06-24T17:08:10Z</time>
      </trkpt>
      <trkpt lat="50.61154" lon="3.07347">
        <ele>-5.4</ele>
        <time>2018-06-24T17:08:14Z</time>
      </trkpt>
      <trkpt lat="50.61154" lon="3.07347">
        <ele>-5.4</ele>
        <time>2018-06-24T17:08:18Z</time>
      </trkpt>
      <trkpt lat="50.61154" lon="3.07347">
        <ele>-5.6</ele>
        <time>2018-06-24T17:08:22Z</time>
      </trkpt>
      <trkpt lat="50.61154" lon="3.07347">
        <ele>-5.4</ele>
        <time>2018-06-24T17:08:26Z</time>
      </trkpt>
      <trkpt lat="50.61154" lon="3.07347">
        <ele>-5.4</ele>
        <time>2018-06-24T17:08:30Z</time>
      </trkpt>
      <trkpt lat="50.61154" lon="3.07347">
        <ele>-5.6</ele>
        <time>2018-06-24T17:08:34Z</time>
      </trkpt>
      <trkpt lat="50.61154" lon="3.07347">
        <ele>-5.2</ele>
        <time>2018-06-24T17:08:38Z</time>
      </trkpt>
      <trkpt lat="50.61154" lon="3.07347">
        <ele>-5.4</ele>
        <time>2018-06-24T17:08:42Z</time>
      </trkpt>
      <trkpt lat="50.61154" lon="3.07347">
        <ele>-5.6</ele>
        <time>2018-06-24T17:08:46Z</time>
      </trkpt>
      <trkpt lat="50.61154" lon="3.07347">
        <ele>-5.4</ele>
        <time>2018-06-24T17:08:50Z</time>
      </trkpt>
      <trkpt lat="50.61154" lon="3.07347">
        <ele>-5.4</ele>
        <time>2018-06-24T17:08:54Z</time>
      </trkpt>
      <trkpt lat="50.61154" lon="3.07347">
        <ele>-5.2</ele>
        <time>2018-06-24T17:08:58Z</time>
      </trkpt>
      <trkpt lat="50.61154" lon="3.07347">
        <ele>-5.6</ele>
        <time>2018-06-24T17:09:02Z</time>
      </trkpt>
      <trkpt lat="50.61154" lon="3.07347">
        <ele>-5.6</ele>
        <time>2018-06-24T17:09:06Z</time>
      </trkpt>
      <trkpt lat="50.61154" lon="3.07347">
        <ele>-5.4</ele>
        <time>2018-06-24T17:09:10Z</time>
      </trkpt>
      <trkpt lat="50.61154" lon="3.07347">
        <ele>-5.2</ele>
        <time>2018-06-24T17:09:14Z</time>
      </trkpt>
      <trkpt lat="50.61154" lon="3.07347">
        <ele>-5.4</ele>
        <time>2018-06-24T17:09:18Z</time>
      </trkpt>
      <trkpt lat="50.61154" lon="3.07347">
        <ele>-5</ele>
        <time>2018-06-24T17:09:22Z</time>
      </trkpt>
      <trkpt lat="50.61154" lon="3.07347">
        <ele>-5.2</ele>
        <time>2018-06-24T17:09:26Z</time>
      </trkpt>
      <trkpt lat="50.61154" lon="3.07347">
        <ele>-5.4</ele>
        <time>2018-06-24T17:09:30Z</time>
      </trkpt>
      <trkpt lat="50.61154" lon="3.07347">
        <ele>-5.2</ele>
        <time>2018-06-24T17:09:34Z</time>
      </trkpt>
      <trkpt lat="50.61154" lon="3.07347">
        <ele>-5</ele>
        <time>2018-06-24T17:09:38Z</time>
      </trkpt>
      <trkpt lat="50.61154" lon="3.07347">
        <ele>-5.4</ele>
        <time>2018-06-24T17:09:42Z</time>
      </trkpt>
      <trkpt lat="50.61154" lon="3.07347">
        <ele>-5.6</ele>
        <time>2018-06-24T17:09:46Z</time>
      </trkpt>
      <trkpt lat="50.61154" lon="3.07347">
        <ele>-5.2</ele>
        <time>2018-06-24T17:09:50Z</time>
      </trkpt>
      <trkpt lat="50.61154" lon="3.07347">
        <ele>-5</ele>
        <time>2018-06-24T17:09:54Z</time>
      </trkpt>
      <trkpt lat="50.61154" lon="3.07347">
        <ele>-5.4</ele>
        <time>2018-06-24T17:09:58Z</time>
      </trkpt>
      <trkpt lat="50.61154" lon="3.07347">
        <ele>-5.2</ele>
        <time>2018-06-24T17:10:02Z</time>
      </trkpt>
      <trkpt lat="50.61154" lon="3.07347">
        <ele>-5.2</ele>
        <time>2018-06-24T17:10:06Z</time>
      </trkpt>
      <trkpt lat="50.61154" lon="3.07347">
        <ele>-5.2</ele>
        <time>2018-06-24T17:10:10Z</time>
      </trkpt>
      <trkpt lat="50.61154" lon="3.07347">
        <ele>-5.4</ele>
        <time>2018-06-24T17:10:14Z</time>
      </trkpt>
      <trkpt lat="50.61154" lon="3.07347">
        <ele>-4.8</ele>
        <time>2018-06-24T17:10:18Z</time>
      </trkpt>
      <trkpt lat="50.61154" lon="3.07347">
        <ele>-5.2</ele>
        <time>2018-06-24T17:10:22Z</time>
      </trkpt>
      <trkpt lat="50.61154" lon="3.07347">
        <ele>-5.8</ele>
        <time>2018-06-24T17:10:26Z</time>
      </trkpt>
      <trkpt lat="50.61154" lon="3.07347">
        <ele>-5.2</ele>
        <time>2018-06-24T17:10:30Z</time>
      </trkpt>
      <trkpt lat="50.61154" lon="3.07347">
        <ele>-5.4</ele>
        <time>2018-06-24T17:10:34Z</time>
      </trkpt>
      <trkpt lat="50.61154" lon="3.07347">
        <ele>-5.4</ele>
        <time>2018-06-24T17:10:38Z</time>
      </trkpt>
      <trkpt lat="50.61168" lon="3.07373">
        <ele>-5.6</ele>
        <time>2018-06-24T17:10:42Z</time>
      </trkpt>
      <trkpt lat="50.61165" lon="3.07376">
        <ele>-5</ele>
        <time>2018-06-24T17:10:46Z</time>
      </trkpt>
      <trkpt lat="50.61165" lon="3.07376">
        <ele>-5.4</ele>
        <time>2018-06-24T17:10:50Z</time>
      </trkpt>
      <trkpt lat="50.61165" lon="3.07376">
        <ele>-5</ele>
        <time>2018-06-24T17:10:54Z</time>
      </trkpt>
      <trkpt lat="50.61165" lon="3.07376">
        <ele>-5.2</ele>
        <time>2018-06-24T17:10:58Z</time>
      </trkpt>
      <trkpt lat="50.61165" lon="3.07376">
        <ele>-5.4</ele>
        <time>2018-06-24T17:11:02Z</time>
      </trkpt>
      <trkpt lat="50.61165" lon="3.07376">
        <ele>-5.6</ele>
        <time>2018-06-24T17:11:06Z</time>
      </trkpt>
      <trkpt lat="50.61165" lon="3.07376">
        <ele>-5.6</ele>
        <time>2018-06-24T17:11:10Z</time>
      </trkpt>
      <trkpt lat="50.61165" lon="3.07376">
        <ele>-5.6</ele>
        <time>2018-06-24T17:11:14Z</time>
      </trkpt>
      <trkpt lat="50.61165" lon="3.07376">
        <ele>-5.6</ele>
        <time>2018-06-24T17:11:18Z</time>
      </trkpt>
      <trkpt lat="50.61165" lon="3.07376">
        <ele>-5.6</ele>
        <time>2018-06-24T17:11:22Z</time>
      </trkpt>
      <trkpt lat="50.61165" lon="3.07376">
        <ele>-5.4</ele>
        <time>2018-06-24T17:11:26Z</time>
      </trkpt>
      <trkpt lat="50.61165" lon="3.07376">
        <ele>-5.6</ele>
        <time>2018-06-24T17:11:30Z</time>
      </trkpt>
      <trkpt lat="50.61165" lon="3.07376">
        <ele>-5.2</ele>
        <time>2018-06-24T17:11:34Z</time>
      </trkpt>
      <trkpt lat="50.61165" lon="3.07376">
        <ele>-5.6</ele>
        <time>2018-06-24T17:11:38Z</time>
      </trkpt>
      <trkpt lat="50.61165" lon="3.07376">
        <ele>-5.6</ele>
        <time>2018-06-24T17:11:42Z</time>
      </trkpt>
      <trkpt lat="50.61165" lon="3.07376">
        <ele>-5.6</ele>
        <time>2018-06-24T17:11:46Z</time>
      </trkpt>
      <trkpt lat="50.61165" lon="3.07376">
        <ele>-5.4</ele>
        <time>2018-06-24T17:11:50Z</time>
      </trkpt>
      <trkpt lat="50.61165" lon="3.07376">
        <ele>-5.8</ele>
        <time>2018-06-24T17:11:54Z</time>
      </trkpt>
      <trkpt lat="50.61165" lon="3.07376">
        <ele>-5.4</ele>
        <time>2018-06-24T17:11:58Z</time>
      </trkpt>
      <trkpt lat="50.61165" lon="3.07376">
        <ele>-5.2</ele>
        <time>2018-06-24T17:12:02Z</time>
      </trkpt>
      <trkpt lat="50.61165" lon="3.07376">
        <ele>-5.4</ele>
        <time>2018-06-24T17:12:06Z</time>
      </trkpt>
      <trkpt lat="50.61165" lon="3.07376">
        <ele>-5.4</ele>
        <time>2018-06-24T17:12:10Z</time>
      </trkpt>
      <trkpt lat="50.61165" lon="3.07376">
        <ele>-5.4</ele>
        <time>2018-06-24T17:12:14Z</time>
      </trkpt>
      <trkpt lat="50.61165" lon="3.07376">
        <ele>-5.4</ele>
        <time>2018-06-24T17:12:18Z</time>
      </trkpt>
      <trkpt lat="50.61165" lon="3.07376">
        <ele>-5.2</ele>
        <time>2018-06-24T17:12:22Z</time>
      </trkpt>
      <trkpt lat="50.61165" lon="3.07376">
        <ele>-5.2</ele>
        <time>2018-06-24T17:12:26Z</time>
      </trkpt>
      <trkpt lat="50.61165" lon="3.07376">
        <ele>-5.2</ele>
        <time>2018-06-24T17:12:30Z</time>
      </trkpt>
      <trkpt lat="50.61165" lon="3.07376">
        <ele>-5.2</ele>
        <time>2018-06-24T17:12:34Z</time>
      </trkpt>
      <trkpt lat="50.61165" lon="3.07376">
        <ele>-5.2</ele>
        <time>2018-06-24T17:12:38Z</time>
      </trkpt>
      <trkpt lat="50.61165" lon="3.07376">
        <ele>-5.6</ele>
        <time>2018-06-24T17:12:42Z</time>
      </trkpt>
      <trkpt lat="50.61165" lon="3.07376">
        <ele>-5.4</ele>
        <time>2018-06-24T17:12:46Z</time>
      </trkpt>
      <trkpt lat="50.61165" lon="3.07376">
        <ele>-5.2</ele>
        <time>2018-06-24T17:12:50Z</time>
      </trkpt>
      <trkpt lat="50.61165" lon="3.07376">
        <ele>-5.4</ele>
        <time>2018-06-24T17:12:54Z</time>
      </trkpt>
      <trkpt lat="50.61165" lon="3.07376">
        <ele>-5.2</ele>
        <time>2018-06-24T17:12:58Z</time>
      </trkpt>
      <trkpt lat="50.61165" lon="3.07376">
        <ele>-5.2</ele>
        <time>2018-06-24T17:13:02Z</time>
      </trkpt>
      <trkpt lat="50.61165" lon="3.07376">
        <ele>-5.4</ele>
        <time>2018-06-24T17:13:06Z</time>
      </trkpt>
      <trkpt lat="50.61165" lon="3.07376">
        <ele>-5.4</ele>
        <time>2018-06-24T17:13:10Z</time>
      </trkpt>
      <trkpt lat="50.61165" lon="3.07376">
        <ele>-5.4</ele>
        <time>2018-06-24T17:13:14Z</time>
      </trkpt>
      <trkpt lat="50.61167" lon="3.07365">
        <ele>-5.2</ele>
        <time>2018-06-24T17:13:18Z</time>
      </trkpt>
      <trkpt lat="50.61161" lon="3.07362">
        <ele>-5.6</ele>
        <time>2018-06-24T17:13:22Z</time>
      </trkpt>
      <trkpt lat="50.61153" lon="3.07364">
        <ele>-5.6</ele>
        <time>2018-06-24T17:13:26Z</time>
      </trkpt>
      <trkpt lat="50.61149" lon="3.07365">
        <ele>-6</ele>
        <time>2018-06-24T17:13:30Z</time>
      </trkpt>
      <trkpt lat="50.61149" lon="3.07365">
        <ele>-5.6</ele>
        <time>2018-06-24T17:13:34Z</time>
      </trkpt>
      <trkpt lat="50.61142" lon="3.07365">
        <ele>-5.4</ele>
        <time>2018-06-24T17:13:38Z</time>
      </trkpt>
      <trkpt lat="50.61142" lon="3.07365">
        <ele>-5.6</ele>
        <time>2018-06-24T17:13:42Z</time>
      </trkpt>
      <trkpt lat="50.61142" lon="3.07365">
        <ele>-5.2</ele>
        <time>2018-06-24T17:13:46Z</time>
      </trkpt>
      <trkpt lat="50.61142" lon="3.07365">
        <ele>-5.8</ele>
        <time>2018-06-24T17:13:50Z</time>
      </trkpt>
      <trkpt lat="50.61147" lon="3.07365">
        <ele>-6</ele>
        <time>2018-06-24T17:13:54Z</time>
      </trkpt>
      <trkpt lat="50.61147" lon="3.07365">
        <ele>-6</ele>
        <time>2018-06-24T17:13:58Z</time>
      </trkpt>
      <trkpt lat="50.61147" lon="3.07365">
        <ele>-6</ele>
        <time>2018-06-24T17:14:02Z</time>
      </trkpt>
      <trkpt lat="50.61147" lon="3.07365">
        <ele>-5.8</ele>
        <time>2018-06-24T17:14:06Z</time>
      </trkpt>
      <trkpt lat="50.61147" lon="3.07365">
        <ele>-5.8</ele>
        <time>2018-06-24T17:14:10Z</time>
      </trkpt>
      <trkpt lat="50.61147" lon="3.07365">
        <ele>-5.8</ele>
        <time>2018-06-24T17:14:14Z</time>
      </trkpt>
      <trkpt lat="50.61147" lon="3.07365">
        <ele>-5.6</ele>
        <time>2018-06-24T17:14:18Z</time>
      </trkpt>
      <trkpt lat="50.61147" lon="3.07365">
        <ele>-5.4</ele>
        <time>2018-06-24T17:14:22Z</time>
      </trkpt>
      <trkpt lat="50.61147" lon="3.07365">
        <ele>-5.8</ele>
        <time>2018-06-24T17:14:26Z</time>
      </trkpt>
      <trkpt lat="50.61147" lon="3.07365">
        <ele>-5.6</ele>
        <time>2018-06-24T17:14:30Z</time>
      </trkpt>
      <trkpt lat="50.61147" lon="3.07365">
        <ele>-6</ele>
        <time>2018-06-24T17:14:34Z</time>
      </trkpt>
      <trkpt lat="50.61147" lon="3.07365">
        <ele>-5.6</ele>
        <time>2018-06-24T17:14:38Z</time>
      </trkpt>
      <trkpt lat="50.61147" lon="3.07365">
        <ele>-5.6</ele>
        <time>2018-06-24T17:14:42Z</time>
      </trkpt>
      <trkpt lat="50.61147" lon="3.07365">
        <ele>-5.8</ele>
        <time>2018-06-24T17:14:46Z</time>
      </trkpt>
      <trkpt lat="50.61147" lon="3.07365">
        <ele>-5.4</ele>
        <time>2018-06-24T17:14:50Z</time>
      </trkpt>
      <trkpt lat="50.61147" lon="3.07365">
        <ele>-5.6</ele>
        <time>2018-06-24T17:14:54Z</time>
      </trkpt>
      <trkpt lat="50.61147" lon="3.07365">
        <ele>-5.6</ele>
        <time>2018-06-24T17:14:58Z</time>
      </trkpt>
      <trkpt lat="50.61147" lon="3.07365">
        <ele>-5.4</ele>
        <time>2018-06-24T17:15:02Z</time>
      </trkpt>
      <trkpt lat="50.61147" lon="3.07365">
        <ele>-5.6</ele>
        <time>2018-06-24T17:15:06Z</time>
      </trkpt>
      <trkpt lat="50.61147" lon="3.07365">
        <ele>-5</ele>
        <time>2018-06-24T17:15:10Z</time>
      </trkpt>
      <trkpt lat="50.61147" lon="3.07365">
        <ele>-5.2</ele>
        <time>2018-06-24T17:15:14Z</time>
      </trkpt>
      <trkpt lat="50.61147" lon="3.07365">
        <ele>-5.6</ele>
        <time>2018-06-24T17:15:18Z</time>
      </trkpt>
      <trkpt lat="50.61147" lon="3.07365">
        <ele>-5.6</ele>
        <time>2018-06-24T17:15:22Z</time>
      </trkpt>
      <trkpt lat="50.61147" lon="3.07365">
        <ele>-5.4</ele>
        <time>2018-06-24T17:15:26Z</time>
      </trkpt>
      <trkpt lat="50.61147" lon="3.07365">
        <ele>-5.4</ele>
        <time>2018-06-24T17:15:30Z</time>
      </trkpt>
      <trkpt lat="50.61147" lon="3.07365">
        <ele>-5.4</ele>
        <time>2018-06-24T17:15:34Z</time>
      </trkpt>
      <trkpt lat="50.61147" lon="3.07365">
        <ele>-5.4</ele>
        <time>2018-06-24T17:15:38Z</time>
      </trkpt>
      <trkpt lat="50.61147" lon="3.07365">
        <ele>-5.4</ele>
        <time>2018-06-24T17:15:42Z</time>
      </trkpt>
      <trkpt lat="50.61147" lon="3.07365">
        <ele>-5.6</ele>
        <time>2018-06-24T17:15:46Z</time>
      </trkpt>
      <trkpt lat="50.61147" lon="3.07365">
        <ele>-5.8</ele>
        <time>2018-06-24T17:15:50Z</time>
      </trkpt>
      <trkpt lat="50.61147" lon="3.07365">
        <ele>-5.4</ele>
        <time>2018-06-24T17:15:54Z</time>
      </trkpt>
      <trkpt lat="50.61147" lon="3.07365">
        <ele>-5.6</ele>
        <time>2018-06-24T17:15:58Z</time>
      </trkpt>
      <trkpt lat="50.61147" lon="3.07365">
        <ele>-5.4</ele>
        <time>2018-06-24T17:16:02Z</time>
      </trkpt>
      <trkpt lat="50.61147" lon="3.07365">
        <ele>-5.4</ele>
        <time>2018-06-24T17:16:06Z</time>
      </trkpt>
      <trkpt lat="50.61147" lon="3.07365">
        <ele>-5.6</ele>
        <time>2018-06-24T17:16:10Z</time>
      </trkpt>
      <trkpt lat="50.61147" lon="3.07365">
        <ele>-5.4</ele>
        <time>2018-06-24T17:16:14Z</time>
      </trkpt>
      <trkpt lat="50.61147" lon="3.07365">
        <ele>-5.2</ele>
        <time>2018-06-24T17:16:18Z</time>
      </trkpt>
      <trkpt lat="50.61147" lon="3.07365">
        <ele>-5.4</ele>
        <time>2018-06-24T17:16:22Z</time>
      </trkpt>
      <trkpt lat="50.61147" lon="3.07365">
        <ele>-5.2</ele>
        <time>2018-06-24T17:16:26Z</time>
      </trkpt>
      <trkpt lat="50.61147" lon="3.07365">
        <ele>-5</ele>
        <time>2018-06-24T17:16:30Z</time>
      </trkpt>
      <trkpt lat="50.61147" lon="3.07365">
        <ele>-5</ele>
        <time>2018-06-24T17:16:34Z</time>
      </trkpt>
      <trkpt lat="50.61147" lon="3.07365">
        <ele>-5.2</ele>
        <time>2018-06-24T17:16:38Z</time>
      </trkpt>
      <trkpt lat="50.61147" lon="3.07365">
        <ele>-5.4</ele>
        <time>2018-06-24T17:16:42Z</time>
      </trkpt>
      <trkpt lat="50.61147" lon="3.07365">
        <ele>-5.4</ele>
        <time>2018-06-24T17:16:46Z</time>
      </trkpt>
      <trkpt lat="50.61147" lon="3.07365">
        <ele>-5.4</ele>
        <time>2018-06-24T17:16:50Z</time>
      </trkpt>
      <trkpt lat="50.61147" lon="3.07365">
        <ele>-5.4</ele>
        <time>2018-06-24T17:16:54Z</time>
      </trkpt>
      <trkpt lat="50.61147" lon="3.07365">
        <ele>-5.6</ele>
        <time>2018-06-24T17:16:58Z</time>
      </trkpt>
      <trkpt lat="50.61147" lon="3.07365">
        <ele>-5</ele>
        <time>2018-06-24T17:17:02Z</time>
      </trkpt>
      <trkpt lat="50.61147" lon="3.07365">
        <ele>-5.6</ele>
        <time>2018-06-24T17:17:06Z</time>
      </trkpt>
      <trkpt lat="50.61147" lon="3.07365">
        <ele>-5.6</ele>
        <time>2018-06-24T17:17:10Z</time>
      </trkpt>
      <trkpt lat="50.61147" lon="3.07365">
        <ele>-5.6</ele>
        <time>2018-06-24T17:17:14Z</time>
      </trkpt>
      <trkpt lat="50.61147" lon="3.07365">
        <ele>-5.6</ele>
        <time>2018-06-24T17:17:18Z</time>
      </trkpt>
      <trkpt lat="50.61147" lon="3.07365">
        <ele>-5.6</ele>
        <time>2018-06-24T17:17:22Z</time>
      </trkpt>
      <trkpt lat="50.61147" lon="3.07365">
        <ele>-5.6</ele>
        <time>2018-06-24T17:17:26Z</time>
      </trkpt>
      <trkpt lat="50.61147" lon="3.07365">
        <ele>-5.6</ele>
        <time>2018-06-24T17:17:30Z</time>
      </trkpt>
      <trkpt lat="50.61147" lon="3.07365">
        <ele>-5.8</ele>
        <time>2018-06-24T17:17:34Z</time>
      </trkpt>
      <trkpt lat="50.61147" lon="3.07365">
        <ele>-5.6</ele>
        <time>2018-06-24T17:17:38Z</time>
      </trkpt>
      <trkpt lat="50.61147" lon="3.07365">
        <ele>-5.8</ele>
        <time>2018-06-24T17:17:42Z</time>
      </trkpt>
      <trkpt lat="50.61147" lon="3.07365">
        <ele>-5.6</ele>
        <time>2018-06-24T17:17:46Z</time>
      </trkpt>
      <trkpt lat="50.61147" lon="3.07365">
        <ele>-5.6</ele>
        <time>2018-06-24T17:17:50Z</time>
      </trkpt>
      <trkpt lat="50.61147" lon="3.07365">
        <ele>-5.6</ele>
        <time>2018-06-24T17:17:54Z</time>
      </trkpt>
      <trkpt lat="50.61147" lon="3.07365">
        <ele>-5.6</ele>
        <time>2018-06-24T17:17:58Z</time>
      </trkpt>
      <trkpt lat="50.61147" lon="3.07365">
        <ele>-5.4</ele>
        <time>2018-06-24T17:18:02Z</time>
      </trkpt>
      <trkpt lat="50.61147" lon="3.07365">
        <ele>-5.4</ele>
        <time>2018-06-24T17:18:06Z</time>
      </trkpt>
      <trkpt lat="50.61147" lon="3.07365">
        <ele>-5.6</ele>
        <time>2018-06-24T17:18:10Z</time>
      </trkpt>
      <trkpt lat="50.61147" lon="3.07365">
        <ele>-5.4</ele>
        <time>2018-06-24T17:18:14Z</time>
      </trkpt>
      <trkpt lat="50.61147" lon="3.07365">
        <ele>-5.4</ele>
        <time>2018-06-24T17:18:18Z</time>
      </trkpt>
      <trkpt lat="50.61147" lon="3.07365">
        <ele>-5.4</ele>
        <time>2018-06-24T17:18:22Z</time>
      </trkpt>
      <trkpt lat="50.61147" lon="3.07365">
        <ele>-5.4</ele>
        <time>2018-06-24T17:18:26Z</time>
      </trkpt>
      <trkpt lat="50.61147" lon="3.07365">
        <ele>-5.4</ele>
        <time>2018-06-24T17:18:30Z</time>
      </trkpt>
      <trkpt lat="50.61147" lon="3.07365">
        <ele>-5.4</ele>
        <time>2018-06-24T17:18:34Z</time>
      </trkpt>
      <trkpt lat="50.61147" lon="3.07365">
        <ele>-5.2</ele>
        <time>2018-06-24T17:18:38Z</time>
      </trkpt>
      <trkpt lat="50.61147" lon="3.07365">
        <ele>-5.2</ele>
        <time>2018-06-24T17:18:42Z</time>
      </trkpt>
      <trkpt lat="50.61147" lon="3.07365">
        <ele>-5</ele>
        <time>2018-06-24T17:18:46Z</time>
      </trkpt>
      <trkpt lat="50.61147" lon="3.07365">
        <ele>-4.8</ele>
        <time>2018-06-24T17:18:50Z</time>
      </trkpt>
      <trkpt lat="50.61147" lon="3.07365">
        <ele>-5</ele>
        <time>2018-06-24T17:18:54Z</time>
      </trkpt>
      <trkpt lat="50.61147" lon="3.07365">
        <ele>-5</ele>
        <time>2018-06-24T17:18:58Z</time>
      </trkpt>
      <trkpt lat="50.61147" lon="3.07365">
        <ele>-5</ele>
        <time>2018-06-24T17:19:02Z</time>
      </trkpt>
      <trkpt lat="50.61147" lon="3.07365">
        <ele>-4.8</ele>
        <time>2018-06-24T17:19:06Z</time>
      </trkpt>
      <trkpt lat="50.61147" lon="3.07365">
        <ele>-5</ele>
        <time>2018-06-24T17:19:10Z</time>
      </trkpt>
      <trkpt lat="50.61147" lon="3.07365">
        <ele>-4.8</ele>
        <time>2018-06-24T17:19:14Z</time>
      </trkpt>
      <trkpt lat="50.61147" lon="3.07365">
        <ele>-5.2</ele>
        <time>2018-06-24T17:19:18Z</time>
      </trkpt>
      <trkpt lat="50.61147" lon="3.07365">
        <ele>-5.2</ele>
        <time>2018-06-24T17:19:22Z</time>
      </trkpt>
      <trkpt lat="50.61147" lon="3.07365">
        <ele>-5</ele>
        <time>2018-06-24T17:19:26Z</time>
      </trkpt>
      <trkpt lat="50.61147" lon="3.07365">
        <ele>-5.2</ele>
        <time>2018-06-24T17:19:30Z</time>
      </trkpt>
      <trkpt lat="50.61147" lon="3.07365">
        <ele>-5.2</ele>
        <time>2018-06-24T17:19:34Z</time>
      </trkpt>
      <trkpt lat="50.61147" lon="3.07365">
        <ele>-5.4</ele>
        <time>2018-06-24T17:19:38Z</time>
      </trkpt>
      <trkpt lat="50.61147" lon="3.07365">
        <ele>-5.6</ele>
        <time>2018-06-24T17:19:42Z</time>
      </trkpt>
      <trkpt lat="50.61147" lon="3.07365">
        <ele>-5.6</ele>
        <time>2018-06-24T17:19:46Z</time>
      </trkpt>
      <trkpt lat="50.61147" lon="3.07365">
        <ele>-5.6</ele>
        <time>2018-06-24T17:19:50Z</time>
      </trkpt>
      <trkpt lat="50.61147" lon="3.07365">
        <ele>-5.6</ele>
        <time>2018-06-24T17:19:54Z</time>
      </trkpt>
      <trkpt lat="50.61147" lon="3.07365">
        <ele>-5.4</ele>
        <time>2018-06-24T17:19:58Z</time>
      </trkpt>
      <trkpt lat="50.61147" lon="3.07365">
        <ele>-5.6</ele>
        <time>2018-06-24T17:20:02Z</time>
      </trkpt>
      <trkpt lat="50.61147" lon="3.07365">
        <ele>-5.8</ele>
        <time>2018-06-24T17:20:06Z</time>
      </trkpt>
      <trkpt lat="50.61147" lon="3.07365">
        <ele>-5.6</ele>
        <time>2018-06-24T17:20:10Z</time>
      </trkpt>
      <trkpt lat="50.61147" lon="3.07365">
        <ele>-5.6</ele>
        <time>2018-06-24T17:20:14Z</time>
      </trkpt>
      <trkpt lat="50.61147" lon="3.07365">
        <ele>-5.4</ele>
        <time>2018-06-24T17:20:18Z</time>
      </trkpt>
      <trkpt lat="50.61147" lon="3.07365">
        <ele>-5.4</ele>
        <time>2018-06-24T17:20:22Z</time>
      </trkpt>
      <trkpt lat="50.61147" lon="3.07365">
        <ele>-5.4</ele>
        <time>2018-06-24T17:20:26Z</time>
      </trkpt>
      <trkpt lat="50.61147" lon="3.07365">
        <ele>-5</ele>
        <time>2018-06-24T17:20:30Z</time>
      </trkpt>
      <trkpt lat="50.61147" lon="3.07365">
        <ele>-5.6</ele>
        <time>2018-06-24T17:20:34Z</time>
      </trkpt>
      <trkpt lat="50.61147" lon="3.07365">
        <ele>-5</ele>
        <time>2018-06-24T17:20:38Z</time>
      </trkpt>
      <trkpt lat="50.61147" lon="3.07365">
        <ele>-5.4</ele>
        <time>2018-06-24T17:20:42Z</time>
      </trkpt>
      <trkpt lat="50.61147" lon="3.07365">
        <ele>-5.6</ele>
        <time>2018-06-24T17:20:46Z</time>
      </trkpt>
      <trkpt lat="50.61147" lon="3.07365">
        <ele>-5.4</ele>
        <time>2018-06-24T17:20:50Z</time>
      </trkpt>
      <trkpt lat="50.61172" lon="3.07383">
        <ele>-5.4</ele>
        <time>2018-06-24T17:20:54Z</time>
      </trkpt>
      <trkpt lat="50.61172" lon="3.07383">
        <ele>-5.4</ele>
        <time>2018-06-24T17:20:58Z</time>
      </trkpt>
      <trkpt lat="50.61172" lon="3.07383">
        <ele>-5.4</ele>
        <time>2018-06-24T17:21:02Z</time>
      </trkpt>
      <trkpt lat="50.61172" lon="3.07383">
        <ele>-5.4</ele>
        <time>2018-06-24T17:21:06Z</time>
      </trkpt>
      <trkpt lat="50.61172" lon="3.07383">
        <ele>-5</ele>
        <time>2018-06-24T17:21:10Z</time>
      </trkpt>
      <trkpt lat="50.61172" lon="3.07383">
        <ele>-5.2</ele>
        <time>2018-06-24T17:21:14Z</time>
      </trkpt>
      <trkpt lat="50.61172" lon="3.07383">
        <ele>-5.6</ele>
        <time>2018-06-24T17:21:18Z</time>
      </trkpt>
      <trkpt lat="50.61172" lon="3.07383">
        <ele>-5.4</ele>
        <time>2018-06-24T17:21:22Z</time>
      </trkpt>
      <trkpt lat="50.61172" lon="3.07383">
        <ele>-5.2</ele>
        <time>2018-06-24T17:21:26Z</time>
      </trkpt>
      <trkpt lat="50.61174" lon="3.07382">
        <ele>-5.6</ele>
        <time>2018-06-24T17:21:30Z</time>
      </trkpt>
      <trkpt lat="50.61174" lon="3.07382">
        <ele>-5</ele>
        <time>2018-06-24T17:21:34Z</time>
      </trkpt>
      <trkpt lat="50.61174" lon="3.07382">
        <ele>-5.6</ele>
        <time>2018-06-24T17:21:38Z</time>
      </trkpt>
      <trkpt lat="50.61168" lon="3.07382">
        <ele>-5.2</ele>
        <time>2018-06-24T17:21:42Z</time>
      </trkpt>
      <trkpt lat="50.61168" lon="3.07382">
        <ele>-5.4</ele>
        <time>2018-06-24T17:21:46Z</time>
      </trkpt>
      <trkpt lat="50.61168" lon="3.07382">
        <ele>-5.4</ele>
        <time>2018-06-24T17:21:50Z</time>
      </trkpt>
      <trkpt lat="50.61168" lon="3.07382">
        <ele>-5.4</ele>
        <time>2018-06-24T17:21:54Z</time>
      </trkpt>
      <trkpt lat="50.61168" lon="3.07382">
        <ele>-5.4</ele>
        <time>2018-06-24T17:21:58Z</time>
      </trkpt>
      <trkpt lat="50.61168" lon="3.07382">
        <ele>-5.6</ele>
        <time>2018-06-24T17:22:02Z</time>
      </trkpt>
      <trkpt lat="50.61168" lon="3.07382">
        <ele>-5.4</ele>
        <time>2018-06-24T17:22:06Z</time>
      </trkpt>
      <trkpt lat="50.61168" lon="3.07382">
        <ele>-5.6</ele>
        <time>2018-06-24T17:22:10Z</time>
      </trkpt>
      <trkpt lat="50.61168" lon="3.07382">
        <ele>-6</ele>
        <time>2018-06-24T17:22:14Z</time>
      </trkpt>
      <trkpt lat="50.61168" lon="3.07382">
        <ele>-5.6</ele>
        <time>2018-06-24T17:22:18Z</time>
      </trkpt>
      <trkpt lat="50.61168" lon="3.07382">
        <ele>-5.6</ele>
        <time>2018-06-24T17:22:22Z</time>
      </trkpt>
      <trkpt lat="50.61168" lon="3.07382">
        <ele>-5.6</ele>
        <time>2018-06-24T17:22:26Z</time>
      </trkpt>
      <trkpt lat="50.61168" lon="3.07382">
        <ele>-5.6</ele>
        <time>2018-06-24T17:22:30Z</time>
      </trkpt>
      <trkpt lat="50.61168" lon="3.07382">
        <ele>-5.6</ele>
        <time>2018-06-24T17:22:34Z</time>
      </trkpt>
      <trkpt lat="50.61168" lon="3.07382">
        <ele>-6</ele>
        <time>2018-06-24T17:22:38Z</time>
      </trkpt>
      <trkpt lat="50.61168" lon="3.07382">
        <ele>-6</ele>
        <time>2018-06-24T17:22:42Z</time>
      </trkpt>
      <trkpt lat="50.61168" lon="3.07382">
        <ele>-6.2</ele>
        <time>2018-06-24T17:22:46Z</time>
      </trkpt>
      <trkpt lat="50.61168" lon="3.07382">
        <ele>-6</ele>
        <time>2018-06-24T17:22:50Z</time>
      </trkpt>
      <trkpt lat="50.61168" lon="3.07382">
        <ele>-5.6</ele>
        <time>2018-06-24T17:22:54Z</time>
      </trkpt>
      <trkpt lat="50.61168" lon="3.07382">
        <ele>-6</ele>
        <time>2018-06-24T17:22:58Z</time>
      </trkpt>
      <trkpt lat="50.61168" lon="3.07382">
        <ele>-5.4</ele>
        <time>2018-06-24T17:23:02Z</time>
      </trkpt>
      <trkpt lat="50.61168" lon="3.07382">
        <ele>-5.6</ele>
        <time>2018-06-24T17:23:06Z</time>
      </trkpt>
      <trkpt lat="50.61168" lon="3.07382">
        <ele>-5.4</ele>
        <time>2018-06-24T17:23:10Z</time>
      </trkpt>
      <trkpt lat="50.61168" lon="3.07382">
        <ele>-5.2</ele>
        <time>2018-06-24T17:23:14Z</time>
      </trkpt>
      <trkpt lat="50.61168" lon="3.07382">
        <ele>-5.8</ele>
        <time>2018-06-24T17:23:18Z</time>
      </trkpt>
      <trkpt lat="50.61168" lon="3.07382">
        <ele>-5.4</ele>
        <time>2018-06-24T17:23:22Z</time>
      </trkpt>
      <trkpt lat="50.61168" lon="3.07382">
        <ele>-5.4</ele>
        <time>2018-06-24T17:23:26Z</time>
      </trkpt>
      <trkpt lat="50.61168" lon="3.07382">
        <ele>-5.6</ele>
        <time>2018-06-24T17:23:30Z</time>
      </trkpt>
      <trkpt lat="50.61168" lon="3.07382">
        <ele>-5.4</ele>
        <time>2018-06-24T17:23:34Z</time>
      </trkpt>
      <trkpt lat="50.61168" lon="3.07382">
        <ele>-5.6</ele>
        <time>2018-06-24T17:23:38Z</time>
      </trkpt>
      <trkpt lat="50.61168" lon="3.07382">
        <ele>-6.4</ele>
        <time>2018-06-24T17:23:42Z</time>
      </trkpt>
      <trkpt lat="50.61168" lon="3.07382">
        <ele>-5.8</ele>
        <time>2018-06-24T17:23:46Z</time>
      </trkpt>
      <trkpt lat="50.61168" lon="3.07382">
        <ele>-6.2</ele>
        <time>2018-06-24T17:23:50Z</time>
      </trkpt>
      <trkpt lat="50.61168" lon="3.07382">
        <ele>-6.2</ele>
        <time>2018-06-24T17:23:54Z</time>
      </trkpt>
      <trkpt lat="50.61168" lon="3.07382">
        <ele>-6</ele>
        <time>2018-06-24T17:23:58Z</time>
      </trkpt>
      <trkpt lat="50.61168" lon="3.07382">
        <ele>-5.6</ele>
        <time>2018-06-24T17:24:02Z</time>
      </trkpt>
      <trkpt lat="50.61168" lon="3.07382">
        <ele>-5.6</ele>
        <time>2018-06-24T17:24:06Z</time>
      </trkpt>
      <trkpt lat="50.61168" lon="3.07382">
        <ele>-5.2</ele>
        <time>2018-06-24T17:24:10Z</time>
      </trkpt>
      <trkpt lat="50.61168" lon="3.07382">
        <ele>-5.2</ele>
        <time>2018-06-24T17:24:14Z</time>
      </trkpt>
      <trkpt lat="50.61168" lon="3.07382">
        <ele>-5.6</ele>
        <time>2018-06-24T17:24:18Z</time>
      </trkpt>
      <trkpt lat="50.61168" lon="3.07382">
        <ele>-6</ele>
        <time>2018-06-24T17:24:22Z</time>
      </trkpt>
      <trkpt lat="50.61168" lon="3.07382">
        <ele>-6</ele>
        <time>2018-06-24T17:24:26Z</time>
      </trkpt>
      <trkpt lat="50.61168" lon="3.07382">
        <ele>-5.6</ele>
        <time>2018-06-24T17:24:30Z</time>
      </trkpt>
      <trkpt lat="50.61168" lon="3.07382">
        <ele>-5.6</ele>
        <time>2018-06-24T17:24:34Z</time>
      </trkpt>
      <trkpt lat="50.61168" lon="3.07382">
        <ele>-5.6</ele>
        <time>2018-06-24T17:24:38Z</time>
      </trkpt>
      <trkpt lat="50.61168" lon="3.07382">
        <ele>-5.6</ele>
        <time>2018-06-24T17:24:42Z</time>
      </trkpt>
      <trkpt lat="50.61168" lon="3.07382">
        <ele>-5.6</ele>
        <time>2018-06-24T17:24:46Z</time>
      </trkpt>
      <trkpt lat="50.61168" lon="3.07382">
        <ele>-5.6</ele>
        <time>2018-06-24T17:24:50Z</time>
      </trkpt>
      <trkpt lat="50.61168" lon="3.07382">
        <ele>-5.6</ele>
        <time>2018-06-24T17:24:54Z</time>
      </trkpt>
      <trkpt lat="50.61168" lon="3.07382">
        <ele>-5.6</ele>
        <time>2018-06-24T17:24:58Z</time>
      </trkpt>
      <trkpt lat="50.61168" lon="3.07382">
        <ele>-6</ele>
        <time>2018-06-24T17:25:02Z</time>
      </trkpt>
      <trkpt lat="50.61168" lon="3.07382">
        <ele>-5.8</ele>
        <time>2018-06-24T17:25:06Z</time>
      </trkpt>
      <trkpt lat="50.61168" lon="3.07382">
        <ele>-5.8</ele>
        <time>2018-06-24T17:25:10Z</time>
      </trkpt>
      <trkpt lat="50.61168" lon="3.07382">
        <ele>-5.6</ele>
        <time>2018-06-24T17:25:14Z</time>
      </trkpt>
      <trkpt lat="50.61168" lon="3.07382">
        <ele>-5.8</ele>
        <time>2018-06-24T17:25:18Z</time>
      </trkpt>
      <trkpt lat="50.61168" lon="3.07382">
        <ele>-6.2</ele>
        <time>2018-06-24T17:25:22Z</time>
      </trkpt>
      <trkpt lat="50.61168" lon="3.07382">
        <ele>-6</ele>
        <time>2018-06-24T17:25:26Z</time>
      </trkpt>
      <trkpt lat="50.61168" lon="3.07382">
        <ele>-6.2</ele>
        <time>2018-06-24T17:25:30Z</time>
      </trkpt>
      <trkpt lat="50.61168" lon="3.07382">
        <ele>-6</ele>
        <time>2018-06-24T17:25:34Z</time>
      </trkpt>
      <trkpt lat="50.61168" lon="3.07382">
        <ele>-6</ele>
        <time>2018-06-24T17:25:38Z</time>
      </trkpt>
      <trkpt lat="50.61168" lon="3.07382">
        <ele>-5.8</ele>
        <time>2018-06-24T17:25:42Z</time>
      </trkpt>
      <trkpt lat="50.61168" lon="3.07382">
        <ele>-5.4</ele>
        <time>2018-06-24T17:25:46Z</time>
      </trkpt>
      <trkpt lat="50.61168" lon="3.07382">
        <ele>-5.8</ele>
        <time>2018-06-24T17:25:50Z</time>
      </trkpt>
      <trkpt lat="50.61168" lon="3.07382">
        <ele>-5.6</ele>
        <time>2018-06-24T17:25:54Z</time>
      </trkpt>
      <trkpt lat="50.61168" lon="3.07382">
        <ele>-5.6</ele>
        <time>2018-06-24T17:25:58Z</time>
      </trkpt>
      <trkpt lat="50.61168" lon="3.07382">
        <ele>-5.6</ele>
        <time>2018-06-24T17:26:02Z</time>
      </trkpt>
      <trkpt lat="50.61168" lon="3.07382">
        <ele>-5.6</ele>
        <time>2018-06-24T17:26:06Z</time>
      </trkpt>
      <trkpt lat="50.61168" lon="3.07382">
        <ele>-5.6</ele>
        <time>2018-06-24T17:26:10Z</time>
      </trkpt>
      <trkpt lat="50.61168" lon="3.07382">
        <ele>-5.6</ele>
        <time>2018-06-24T17:26:14Z</time>
      </trkpt>
      <trkpt lat="50.61168" lon="3.07382">
        <ele>-5.6</ele>
        <time>2018-06-24T17:26:18Z</time>
      </trkpt>
      <trkpt lat="50.61168" lon="3.07382">
        <ele>-5.8</ele>
        <time>2018-06-24T17:26:22Z</time>
      </trkpt>
      <trkpt lat="50.61168" lon="3.07382">
        <ele>-5.8</ele>
        <time>2018-06-24T17:26:26Z</time>
      </trkpt>
      <trkpt lat="50.61168" lon="3.07382">
        <ele>-6</ele>
        <time>2018-06-24T17:26:30Z</time>
      </trkpt>
      <trkpt lat="50.61168" lon="3.07382">
        <ele>-5.8</ele>
        <time>2018-06-24T17:26:34Z</time>
      </trkpt>
      <trkpt lat="50.61168" lon="3.07382">
        <ele>-5.8</ele>
        <time>2018-06-24T17:26:38Z</time>
      </trkpt>
      <trkpt lat="50.61168" lon="3.07382">
        <ele>-5.4</ele>
        <time>2018-06-24T17:26:42Z</time>
      </trkpt>
      <trkpt lat="50.61168" lon="3.07382">
        <ele>-5.4</ele>
        <time>2018-06-24T17:26:46Z</time>
      </trkpt>
      <trkpt lat="50.61168" lon="3.07382">
        <ele>-5.4</ele>
        <time>2018-06-24T17:26:50Z</time>
      </trkpt>
      <trkpt lat="50.61168" lon="3.07382">
        <ele>-5.6</ele>
        <time>2018-06-24T17:26:54Z</time>
      </trkpt>
      <trkpt lat="50.61168" lon="3.07382">
        <ele>-6</ele>
        <time>2018-06-24T17:26:58Z</time>
      </trkpt>
      <trkpt lat="50.61168" lon="3.07382">
        <ele>-6</ele>
        <time>2018-06-24T17:27:02Z</time>
      </trkpt>
      <trkpt lat="50.61168" lon="3.07382">
        <ele>-5.8</ele>
        <time>2018-06-24T17:27:06Z</time>
      </trkpt>
      <trkpt lat="50.61168" lon="3.07382">
        <ele>-5.8</ele>
        <time>2018-06-24T17:27:10Z</time>
      </trkpt>
      <trkpt lat="50.61168" lon="3.07382">
        <ele>-5.4</ele>
        <time>2018-06-24T17:27:14Z</time>
      </trkpt>
      <trkpt lat="50.61168" lon="3.07382">
        <ele>-5.6</ele>
        <time>2018-06-24T17:27:18Z</time>
      </trkpt>
      <trkpt lat="50.61168" lon="3.07382">
        <ele>-5.8</ele>
        <time>2018-06-24T17:27:22Z</time>
      </trkpt>
      <trkpt lat="50.61168" lon="3.07382">
        <ele>-5.4</ele>
        <time>2018-06-24T17:27:26Z</time>
      </trkpt>
      <trkpt lat="50.61168" lon="3.07382">
        <ele>-5.6</ele>
        <time>2018-06-24T17:27:30Z</time>
      </trkpt>
      <trkpt lat="50.61168" lon="3.07382">
        <ele>-5.8</ele>
        <time>2018-06-24T17:27:34Z</time>
      </trkpt>
      <trkpt lat="50.61168" lon="3.07382">
        <ele>-5.6</ele>
        <time>2018-06-24T17:27:38Z</time>
      </trkpt>
      <trkpt lat="50.61168" lon="3.07382">
        <ele>-5.6</ele>
        <time>2018-06-24T17:27:42Z</time>
      </trkpt>
      <trkpt lat="50.61168" lon="3.07382">
        <ele>-5.6</ele>
        <time>2018-06-24T17:27:46Z</time>
      </trkpt>
      <trkpt lat="50.61168" lon="3.07382">
        <ele>-5.6</ele>
        <time>2018-06-24T17:27:50Z</time>
      </trkpt>
      <trkpt lat="50.61168" lon="3.07382">
        <ele>-5.6</ele>
        <time>2018-06-24T17:27:54Z</time>
      </trkpt>
      <trkpt lat="50.61168" lon="3.07382">
        <ele>-5.6</ele>
        <time>2018-06-24T17:27:58Z</time>
      </trkpt>
      <trkpt lat="50.61168" lon="3.07382">
        <ele>-6</ele>
        <time>2018-06-24T17:28:02Z</time>
      </trkpt>
      <trkpt lat="50.61168" lon="3.07382">
        <ele>-5.8</ele>
        <time>2018-06-24T17:28:06Z</time>
      </trkpt>
      <trkpt lat="50.61168" lon="3.07382">
        <ele>-5.8</ele>
        <time>2018-06-24T17:28:10Z</time>
      </trkpt>
      <trkpt lat="50.61168" lon="3.07382">
        <ele>-5.8</ele>
        <time>2018-06-24T17:28:14Z</time>
      </trkpt>
      <trkpt lat="50.61168" lon="3.07382">
        <ele>-5.6</ele>
        <time>2018-06-24T17:28:18Z</time>
      </trkpt>
      <trkpt lat="50.61168" lon="3.07382">
        <ele>-5.6</ele>
        <time>2018-06-24T17:28:22Z</time>
      </trkpt>
      <trkpt lat="50.61168" lon="3.07382">
        <ele>-5.4</ele>
        <time>2018-06-24T17:28:26Z</time>
      </trkpt>
      <trkpt lat="50.61168" lon="3.07382">
        <ele>-5.4</ele>
        <time>2018-06-24T17:28:30Z</time>
      </trkpt>
      <trkpt lat="50.61168" lon="3.07382">
        <ele>-5.2</ele>
        <time>2018-06-24T17:28:34Z</time>
      </trkpt>
      <trkpt lat="50.61168" lon="3.07382">
        <ele>-5.4</ele>
        <time>2018-06-24T17:28:38Z</time>
      </trkpt>
      <trkpt lat="50.61168" lon="3.07382">
        <ele>-5.2</ele>
        <time>2018-06-24T17:28:42Z</time>
      </trkpt>
      <trkpt lat="50.61168" lon="3.07382">
        <ele>-5.6</ele>
        <time>2018-06-24T17:28:46Z</time>
      </trkpt>
      <trkpt lat="50.61168" lon="3.07382">
        <ele>-5.6</ele>
        <time>2018-06-24T17:28:50Z</time>
      </trkpt>
      <trkpt lat="50.61168" lon="3.07382">
        <ele>-5.8</ele>
        <time>2018-06-24T17:28:54Z</time>
      </trkpt>
      <trkpt lat="50.61168" lon="3.07382">
        <ele>-6</ele>
        <time>2018-06-24T17:28:58Z</time>
      </trkpt>
      <trkpt lat="50.61168" lon="3.07382">
        <ele>-5.6</ele>
        <time>2018-06-24T17:29:02Z</time>
      </trkpt>
      <trkpt lat="50.61168" lon="3.07382">
        <ele>-5.6</ele>
        <time>2018-06-24T17:29:06Z</time>
      </trkpt>
      <trkpt lat="50.61168" lon="3.07382">
        <ele>-5.6</ele>
        <time>2018-06-24T17:29:10Z</time>
      </trkpt>
      <trkpt lat="50.61168" lon="3.07382">
        <ele>-5.6</ele>
        <time>2018-06-24T17:29:14Z</time>
      </trkpt>
      <trkpt lat="50.61168" lon="3.07382">
        <ele>-5.6</ele>
        <time>2018-06-24T17:29:18Z</time>
      </trkpt>
      <trkpt lat="50.61176" lon="3.07359">
        <ele>-5.6</ele>
        <time>2018-06-24T17:29:22Z</time>
      </trkpt>
      <trkpt lat="50.61176" lon="3.07359">
        <ele>-5.6</ele>
        <time>2018-06-24T17:29:26Z</time>
      </trkpt>
      <trkpt lat="50.61176" lon="3.07359">
        <ele>-5.6</ele>
        <time>2018-06-24T17:29:30Z</time>
      </trkpt>
      <trkpt lat="50.61176" lon="3.07359">
        <ele>-5.2</ele>
        <time>2018-06-24T17:29:34Z</time>
      </trkpt>
      <trkpt lat="50.61176" lon="3.07359">
        <ele>-5.2</ele>
        <time>2018-06-24T17:29:38Z</time>
      </trkpt>
      <trkpt lat="50.61176" lon="3.07359">
        <ele>-5.2</ele>
        <time>2018-06-24T17:29:42Z</time>
      </trkpt>
      <trkpt lat="50.61176" lon="3.07359">
        <ele>-5.2</ele>
        <time>2018-06-24T17:29:46Z</time>
      </trkpt>
      <trkpt lat="50.61176" lon="3.07359">
        <ele>-5.8</ele>
        <time>2018-06-24T17:29:50Z</time>
      </trkpt>
      <trkpt lat="50.61176" lon="3.07359">
        <ele>-5.6</ele>
        <time>2018-06-24T17:29:54Z</time>
      </trkpt>
      <trkpt lat="50.61176" lon="3.07359">
        <ele>-5.6</ele>
        <time>2018-06-24T17:29:58Z</time>
      </trkpt>
      <trkpt lat="50.61176" lon="3.07359">
        <ele>-5.4</ele>
        <time>2018-06-24T17:30:02Z</time>
      </trkpt>
      <trkpt lat="50.61176" lon="3.07359">
        <ele>-5.4</ele>
        <time>2018-06-24T17:30:06Z</time>
      </trkpt>
      <trkpt lat="50.61163" lon="3.07351">
        <ele>-5.4</ele>
        <time>2018-06-24T17:30:10Z</time>
      </trkpt>
      <trkpt lat="50.61163" lon="3.07351">
        <ele>-5.6</ele>
        <time>2018-06-24T17:30:14Z</time>
      </trkpt>
      <trkpt lat="50.61163" lon="3.07351">
        <ele>-5.6</ele>
        <time>2018-06-24T17:30:18Z</time>
      </trkpt>
      <trkpt lat="50.61163" lon="3.07351">
        <ele>-5.6</ele>
        <time>2018-06-24T17:30:22Z</time>
      </trkpt>
      <trkpt lat="50.61163" lon="3.07351">
        <ele>-5.8</ele>
        <time>2018-06-24T17:30:26Z</time>
      </trkpt>
      <trkpt lat="50.61163" lon="3.07351">
        <ele>-5.4</ele>
        <time>2018-06-24T17:30:30Z</time>
      </trkpt>
      <trkpt lat="50.61163" lon="3.07351">
        <ele>-5.6</ele>
        <time>2018-06-24T17:30:34Z</time>
      </trkpt>
      <trkpt lat="50.61163" lon="3.07351">
        <ele>-5.6</ele>
        <time>2018-06-24T17:30:38Z</time>
      </trkpt>
      <trkpt lat="50.61163" lon="3.07351">
        <ele>-6</ele>
        <time>2018-06-24T17:30:42Z</time>
      </trkpt>
      <trkpt lat="50.61163" lon="3.07351">
        <ele>-5.8</ele>
        <time>2018-06-24T17:30:46Z</time>
      </trkpt>
      <trkpt lat="50.61163" lon="3.07351">
        <ele>-5.8</ele>
        <time>2018-06-24T17:30:50Z</time>
      </trkpt>
      <trkpt lat="50.61163" lon="3.07351">
        <ele>-5.4</ele>
        <time>2018-06-24T17:30:54Z</time>
      </trkpt>
      <trkpt lat="50.61163" lon="3.07351">
        <ele>-5.4</ele>
        <time>2018-06-24T17:30:58Z</time>
      </trkpt>
      <trkpt lat="50.61163" lon="3.07351">
        <ele>-5.8</ele>
        <time>2018-06-24T17:31:02Z</time>
      </trkpt>
      <trkpt lat="50.61163" lon="3.07351">
        <ele>-5.6</ele>
        <time>2018-06-24T17:31:06Z</time>
      </trkpt>
      <trkpt lat="50.61163" lon="3.07351">
        <ele>-5.6</ele>
        <time>2018-06-24T17:31:10Z</time>
      </trkpt>
      <trkpt lat="50.61163" lon="3.07351">
        <ele>-5.6</ele>
        <time>2018-06-24T17:31:14Z</time>
      </trkpt>
      <trkpt lat="50.61163" lon="3.07351">
        <ele>-5.6</ele>
        <time>2018-06-24T17:31:18Z</time>
      </trkpt>
      <trkpt lat="50.61163" lon="3.07351">
        <ele>-5.6</ele>
        <time>2018-06-24T17:31:22Z</time>
      </trkpt>
      <trkpt lat="50.61163" lon="3.07351">
        <ele>-5.2</ele>
        <time>2018-06-24T17:31:26Z</time>
      </trkpt>
      <trkpt lat="50.61163" lon="3.07351">
        <ele>-5.4</ele>
        <time>2018-06-24T17:31:30Z</time>
      </trkpt>
      <trkpt lat="50.61163" lon="3.07351">
        <ele>-5.6</ele>
        <time>2018-06-24T17:31:34Z</time>
      </trkpt>
      <trkpt lat="50.61163" lon="3.07351">
        <ele>-5.4</ele>
        <time>2018-06-24T17:31:38Z</time>
      </trkpt>
      <trkpt lat="50.61163" lon="3.07351">
        <ele>-5.8</ele>
        <time>2018-06-24T17:31:42Z</time>
      </trkpt>
      <trkpt lat="50.61163" lon="3.07351">
        <ele>-5.8</ele>
        <time>2018-06-24T17:31:46Z</time>
      </trkpt>
      <trkpt lat="50.61163" lon="3.07351">
        <ele>-5.6</ele>
        <time>2018-06-24T17:31:50Z</time>
      </trkpt>
      <trkpt lat="50.61163" lon="3.07351">
        <ele>-6</ele>
        <time>2018-06-24T17:31:54Z</time>
      </trkpt>
      <trkpt lat="50.61163" lon="3.07351">
        <ele>-6.2</ele>
        <time>2018-06-24T17:31:58Z</time>
      </trkpt>
      <trkpt lat="50.61163" lon="3.07351">
        <ele>-6</ele>
        <time>2018-06-24T17:32:02Z</time>
      </trkpt>
      <trkpt lat="50.61163" lon="3.07351">
        <ele>-5.8</ele>
        <time>2018-06-24T17:32:06Z</time>
      </trkpt>
      <trkpt lat="50.61163" lon="3.07351">
        <ele>-5.8</ele>
        <time>2018-06-24T17:32:10Z</time>
      </trkpt>
      <trkpt lat="50.61163" lon="3.07351">
        <ele>-6</ele>
        <time>2018-06-24T17:32:14Z</time>
      </trkpt>
      <trkpt lat="50.61163" lon="3.07351">
        <ele>-6.2</ele>
        <time>2018-06-24T17:32:18Z</time>
      </trkpt>
      <trkpt lat="50.61163" lon="3.07351">
        <ele>-6.2</ele>
        <time>2018-06-24T17:32:22Z</time>
      </trkpt>
      <trkpt lat="50.61163" lon="3.07351">
        <ele>-6.4</ele>
        <time>2018-06-24T17:32:26Z</time>
      </trkpt>
      <trkpt lat="50.61163" lon="3.07351">
        <ele>-5.8</ele>
        <time>2018-06-24T17:32:30Z</time>
      </trkpt>
      <trkpt lat="50.61163" lon="3.07351">
        <ele>-6</ele>
        <time>2018-06-24T17:32:34Z</time>
      </trkpt>
      <trkpt lat="50.61163" lon="3.07351">
        <ele>-6.4</ele>
        <time>2018-06-24T17:32:38Z</time>
      </trkpt>
      <trkpt lat="50.61163" lon="3.07351">
        <ele>-6</ele>
        <time>2018-06-24T17:32:42Z</time>
      </trkpt>
      <trkpt lat="50.61163" lon="3.07351">
        <ele>-5.8</ele>
        <time>2018-06-24T17:32:46Z</time>
      </trkpt>
      <trkpt lat="50.61147" lon="3.07337">
        <ele>-6.2</ele>
        <time>2018-06-24T17:32:50Z</time>
      </trkpt>
      <trkpt lat="50.61147" lon="3.07337">
        <ele>-6.4</ele>
        <time>2018-06-24T17:32:54Z</time>
      </trkpt>
      <trkpt lat="50.61147" lon="3.07337">
        <ele>-6</ele>
        <time>2018-06-24T17:32:58Z</time>
      </trkpt>
      <trkpt lat="50.61147" lon="3.07337">
        <ele>-6</ele>
        <time>2018-06-24T17:33:02Z</time>
      </trkpt>
      <trkpt lat="50.61147" lon="3.07337">
        <ele>-6.2</ele>
        <time>2018-06-24T17:33:06Z</time>
      </trkpt>
      <trkpt lat="50.61147" lon="3.07337">
        <ele>-5.8</ele>
        <time>2018-06-24T17:33:10Z</time>
      </trkpt>
      <trkpt lat="50.61159" lon="3.07349">
        <ele>-6</ele>
        <time>2018-06-24T17:33:14Z</time>
      </trkpt>
      <trkpt lat="50.61159" lon="3.07349">
        <ele>-5.8</ele>
        <time>2018-06-24T17:33:18Z</time>
      </trkpt>
      <trkpt lat="50.61159" lon="3.07349">
        <ele>-6.4</ele>
        <time>2018-06-24T17:33:22Z</time>
      </trkpt>
      <trkpt lat="50.61159" lon="3.07349">
        <ele>-6.2</ele>
        <time>2018-06-24T17:33:26Z</time>
      </trkpt>
      <trkpt lat="50.61159" lon="3.07349">
        <ele>-6.4</ele>
        <time>2018-06-24T17:33:30Z</time>
      </trkpt>
      <trkpt lat="50.61159" lon="3.07349">
        <ele>-6.4</ele>
        <time>2018-06-24T17:33:34Z</time>
      </trkpt>
      <trkpt lat="50.61159" lon="3.07349">
        <ele>-6.4</ele>
        <time>2018-06-24T17:33:38Z</time>
      </trkpt>
      <trkpt lat="50.61159" lon="3.07349">
        <ele>-6.4</ele>
        <time>2018-06-24T17:33:42Z</time>
      </trkpt>
      <trkpt lat="50.61169" lon="3.07347">
        <ele>-5.8</ele>
        <time>2018-06-24T17:33:46Z</time>
      </trkpt>
      <trkpt lat="50.61169" lon="3.07347">
        <ele>-6</ele>
        <time>2018-06-24T17:33:50Z</time>
      </trkpt>
      <trkpt lat="50.61169" lon="3.07347">
        <ele>-6</ele>
        <time>2018-06-24T17:33:54Z</time>
      </trkpt>
      <trkpt lat="50.61169" lon="3.07347">
        <ele>-6</ele>
        <time>2018-06-24T17:33:58Z</time>
      </trkpt>
      <trkpt lat="50.61169" lon="3.07347">
        <ele>-5.8</ele>
        <time>2018-06-24T17:34:02Z</time>
      </trkpt>
      <trkpt lat="50.61176" lon="3.07349">
        <ele>-6.2</ele>
        <time>2018-06-24T17:34:06Z</time>
      </trkpt>
      <trkpt lat="50.61176" lon="3.07349">
        <ele>-6.2</ele>
        <time>2018-06-24T17:34:10Z</time>
      </trkpt>
      <trkpt lat="50.61176" lon="3.07349">
        <ele>-6</ele>
        <time>2018-06-24T17:34:14Z</time>
      </trkpt>
      <trkpt lat="50.61176" lon="3.07349">
        <ele>-5.6</ele>
        <time>2018-06-24T17:34:18Z</time>
      </trkpt>
      <trkpt lat="50.61176" lon="3.07349">
        <ele>-5.6</ele>
        <time>2018-06-24T17:34:22Z</time>
      </trkpt>
      <trkpt lat="50.61176" lon="3.07349">
        <ele>-5.6</ele>
        <time>2018-06-24T17:34:26Z</time>
      </trkpt>
      <trkpt lat="50.61176" lon="3.07349">
        <ele>-6</ele>
        <time>2018-06-24T17:34:30Z</time>
      </trkpt>
      <trkpt lat="50.61176" lon="3.07349">
        <ele>-6.2</ele>
        <time>2018-06-24T17:34:34Z</time>
      </trkpt>
      <trkpt lat="50.61176" lon="3.07349">
        <ele>-6</ele>
        <time>2018-06-24T17:34:38Z</time>
      </trkpt>
      <trkpt lat="50.61176" lon="3.07349">
        <ele>-6.2</ele>
        <time>2018-06-24T17:34:42Z</time>
      </trkpt>
      <trkpt lat="50.61176" lon="3.07349">
        <ele>-6.2</ele>
        <time>2018-06-24T17:34:46Z</time>
      </trkpt>
      <trkpt lat="50.61176" lon="3.07349">
        <ele>-5.6</ele>
        <time>2018-06-24T17:34:50Z</time>
      </trkpt>
      <trkpt lat="50.61176" lon="3.07349">
        <ele>-5.6</ele>
        <time>2018-06-24T17:34:54Z</time>
      </trkpt>
      <trkpt lat="50.61176" lon="3.07349">
        <ele>-5.8</ele>
        <time>2018-06-24T17:34:58Z</time>
      </trkpt>
      <trkpt lat="50.61176" lon="3.07349">
        <ele>-5.8</ele>
        <time>2018-06-24T17:35:02Z</time>
      </trkpt>
      <trkpt lat="50.61176" lon="3.07349">
        <ele>-6.6</ele>
        <time>2018-06-24T17:35:06Z</time>
      </trkpt>
      <trkpt lat="50.61176" lon="3.07349">
        <ele>-6.2</ele>
        <time>2018-06-24T17:35:10Z</time>
      </trkpt>
      <trkpt lat="50.61176" lon="3.07349">
        <ele>-6.4</ele>
        <time>2018-06-24T17:35:14Z</time>
      </trkpt>
      <trkpt lat="50.61176" lon="3.07349">
        <ele>-6.4</ele>
        <time>2018-06-24T17:35:18Z</time>
      </trkpt>
      <trkpt lat="50.61176" lon="3.07349">
        <ele>-6</ele>
        <time>2018-06-24T17:35:22Z</time>
      </trkpt>
      <trkpt lat="50.61176" lon="3.07349">
        <ele>-5.8</ele>
        <time>2018-06-24T17:35:26Z</time>
      </trkpt>
      <trkpt lat="50.61176" lon="3.07349">
        <ele>-5.8</ele>
        <time>2018-06-24T17:35:30Z</time>
      </trkpt>
      <trkpt lat="50.61176" lon="3.07349">
        <ele>-5.8</ele>
        <time>2018-06-24T17:35:34Z</time>
      </trkpt>
      <trkpt lat="50.61176" lon="3.07349">
        <ele>-5.8</ele>
        <time>2018-06-24T17:35:38Z</time>
      </trkpt>
      <trkpt lat="50.61176" lon="3.07349">
        <ele>-5.6</ele>
        <time>2018-06-24T17:35:42Z</time>
      </trkpt>
      <trkpt lat="50.61176" lon="3.07349">
        <ele>-5.6</ele>
        <time>2018-06-24T17:35:46Z</time>
      </trkpt>
      <trkpt lat="50.61176" lon="3.07349">
        <ele>-5.6</ele>
        <time>2018-06-24T17:35:50Z</time>
      </trkpt>
      <trkpt lat="50.61176" lon="3.07349">
        <ele>-5.6</ele>
        <time>2018-06-24T17:35:54Z</time>
      </trkpt>
      <trkpt lat="50.61176" lon="3.07349">
        <ele>-5.6</ele>
        <time>2018-06-24T17:35:58Z</time>
      </trkpt>
      <trkpt lat="50.61176" lon="3.07349">
        <ele>-5.6</ele>
        <time>2018-06-24T17:36:02Z</time>
      </trkpt>
      <trkpt lat="50.61176" lon="3.07349">
        <ele>-5.2</ele>
        <time>2018-06-24T17:36:06Z</time>
      </trkpt>
      <trkpt lat="50.61176" lon="3.07349">
        <ele>-5.2</ele>
        <time>2018-06-24T17:36:10Z</time>
      </trkpt>
      <trkpt lat="50.61176" lon="3.07349">
        <ele>-5.4</ele>
        <time>2018-06-24T17:36:14Z</time>
      </trkpt>
      <trkpt lat="50.61176" lon="3.07349">
        <ele>-5.4</ele>
        <time>2018-06-24T17:36:18Z</time>
      </trkpt>
      <trkpt lat="50.61176" lon="3.07349">
        <ele>-5.6</ele>
        <time>2018-06-24T17:36:22Z</time>
      </trkpt>
      <trkpt lat="50.61176" lon="3.07349">
        <ele>-5.4</ele>
        <time>2018-06-24T17:36:26Z</time>
      </trkpt>
      <trkpt lat="50.61176" lon="3.07349">
        <ele>-5.4</ele>
        <time>2018-06-24T17:36:30Z</time>
      </trkpt>
      <trkpt lat="50.61176" lon="3.07349">
        <ele>-5.8</ele>
        <time>2018-06-24T17:36:34Z</time>
      </trkpt>
      <trkpt lat="50.61176" lon="3.07349">
        <ele>-6</ele>
        <time>2018-06-24T17:36:38Z</time>
      </trkpt>
      <trkpt lat="50.61176" lon="3.07349">
        <ele>-5.8</ele>
        <time>2018-06-24T17:36:42Z</time>
      </trkpt>
      <trkpt lat="50.61176" lon="3.07349">
        <ele>-5.6</ele>
        <time>2018-06-24T17:36:46Z</time>
      </trkpt>
      <trkpt lat="50.61176" lon="3.07349">
        <ele>-5.8</ele>
        <time>2018-06-24T17:36:50Z</time>
      </trkpt>
      <trkpt lat="50.61176" lon="3.07349">
        <ele>-5.6</ele>
        <time>2018-06-24T17:36:54Z</time>
      </trkpt>
      <trkpt lat="50.61176" lon="3.07349">
        <ele>-5.6</ele>
        <time>2018-06-24T17:36:58Z</time>
      </trkpt>
      <trkpt lat="50.61176" lon="3.07349">
        <ele>-5.6</ele>
        <time>2018-06-24T17:37:02Z</time>
      </trkpt>
      <trkpt lat="50.61176" lon="3.07349">
        <ele>-5.6</ele>
        <time>2018-06-24T17:37:06Z</time>
      </trkpt>
      <trkpt lat="50.61176" lon="3.07349">
        <ele>-5.8</ele>
        <time>2018-06-24T17:37:10Z</time>
      </trkpt>
      <trkpt lat="50.61176" lon="3.07349">
        <ele>-5.8</ele>
        <time>2018-06-24T17:37:14Z</time>
      </trkpt>
      <trkpt lat="50.61176" lon="3.07349">
        <ele>-6</ele>
        <time>2018-06-24T17:37:18Z</time>
      </trkpt>
      <trkpt lat="50.61176" lon="3.07349">
        <ele>-6.2</ele>
        <time>2018-06-24T17:37:22Z</time>
      </trkpt>
      <trkpt lat="50.61176" lon="3.07349">
        <ele>-5.6</ele>
        <time>2018-06-24T17:37:26Z</time>
      </trkpt>
      <trkpt lat="50.61176" lon="3.07349">
        <ele>-6</ele>
        <time>2018-06-24T17:37:30Z</time>
      </trkpt>
      <trkpt lat="50.61176" lon="3.07349">
        <ele>-5.6</ele>
        <time>2018-06-24T17:37:34Z</time>
      </trkpt>
      <trkpt lat="50.61176" lon="3.07349">
        <ele>-5.8</ele>
        <time>2018-06-24T17:37:38Z</time>
      </trkpt>
      <trkpt lat="50.61176" lon="3.07349">
        <ele>-5.8</ele>
        <time>2018-06-24T17:37:42Z</time>
      </trkpt>
      <trkpt lat="50.61176" lon="3.07349">
        <ele>-6.2</ele>
        <time>2018-06-24T17:37:46Z</time>
      </trkpt>
      <trkpt lat="50.61176" lon="3.07349">
        <ele>-6.2</ele>
        <time>2018-06-24T17:37:50Z</time>
      </trkpt>
      <trkpt lat="50.61176" lon="3.07349">
        <ele>-5.8</ele>
        <time>2018-06-24T17:37:54Z</time>
      </trkpt>
      <trkpt lat="50.61176" lon="3.07349">
        <ele>-6</ele>
        <time>2018-06-24T17:37:58Z</time>
      </trkpt>
      <trkpt lat="50.61176" lon="3.07349">
        <ele>-6</ele>
        <time>2018-06-24T17:38:02Z</time>
      </trkpt>
      <trkpt lat="50.61176" lon="3.07349">
        <ele>-6</ele>
        <time>2018-06-24T17:38:06Z</time>
      </trkpt>
      <trkpt lat="50.61176" lon="3.07349">
        <ele>-6</ele>
        <time>2018-06-24T17:38:10Z</time>
      </trkpt>
      <trkpt lat="50.61176" lon="3.07349">
        <ele>-6</ele>
        <time>2018-06-24T17:38:14Z</time>
      </trkpt>
      <trkpt lat="50.61176" lon="3.07349">
        <ele>-6</ele>
        <time>2018-06-24T17:38:18Z</time>
      </trkpt>
      <trkpt lat="50.61176" lon="3.07349">
        <ele>-6.2</ele>
        <time>2018-06-24T17:38:22Z</time>
      </trkpt>
      <trkpt lat="50.61176" lon="3.07349">
        <ele>-6</ele>
        <time>2018-06-24T17:38:26Z</time>
      </trkpt>
      <trkpt lat="50.61176" lon="3.07349">
        <ele>-6</ele>
        <time>2018-06-24T17:38:30Z</time>
      </trkpt>
      <trkpt lat="50.61176" lon="3.07349">
        <ele>-6</ele>
        <time>2018-06-24T17:38:34Z</time>
      </trkpt>
      <trkpt lat="50.61176" lon="3.07349">
        <ele>-5.8</ele>
        <time>2018-06-24T17:38:38Z</time>
      </trkpt>
      <trkpt lat="50.61176" lon="3.07349">
        <ele>-6</ele>
        <time>2018-06-24T17:38:42Z</time>
      </trkpt>
      <trkpt lat="50.61176" lon="3.07349">
        <ele>-6</ele>
        <time>2018-06-24T17:38:46Z</time>
      </trkpt>
      <trkpt lat="50.61176" lon="3.07349">
        <ele>-6</ele>
        <time>2018-06-24T17:38:50Z</time>
      </trkpt>
      <trkpt lat="50.61176" lon="3.07349">
        <ele>-5.8</ele>
        <time>2018-06-24T17:38:54Z</time>
      </trkpt>
      <trkpt lat="50.61176" lon="3.07349">
        <ele>-5.8</ele>
        <time>2018-06-24T17:38:58Z</time>
      </trkpt>
      <trkpt lat="50.61176" lon="3.07349">
        <ele>-5.6</ele>
        <time>2018-06-24T17:39:02Z</time>
      </trkpt>
      <trkpt lat="50.61176" lon="3.07349">
        <ele>-5.8</ele>
        <time>2018-06-24T17:39:06Z</time>
      </trkpt>
      <trkpt lat="50.61176" lon="3.07349">
        <ele>-5.8</ele>
        <time>2018-06-24T17:39:10Z</time>
      </trkpt>
      <trkpt lat="50.61176" lon="3.07349">
        <ele>-5.8</ele>
        <time>2018-06-24T17:39:14Z</time>
      </trkpt>
      <trkpt lat="50.61176" lon="3.07349">
        <ele>-5.6</ele>
        <time>2018-06-24T17:39:18Z</time>
      </trkpt>
      <trkpt lat="50.61176" lon="3.07349">
        <ele>-5.8</ele>
        <time>2018-06-24T17:39:22Z</time>
      </trkpt>
      <trkpt lat="50.61176" lon="3.07349">
        <ele>-5.8</ele>
        <time>2018-06-24T17:39:26Z</time>
      </trkpt>
      <trkpt lat="50.61176" lon="3.07349">
        <ele>-6.2</ele>
        <time>2018-06-24T17:39:30Z</time>
      </trkpt>
      <trkpt lat="50.61176" lon="3.07349">
        <ele>-5.6</ele>
        <time>2018-06-24T17:39:34Z</time>
      </trkpt>
      <trkpt lat="50.61176" lon="3.07349">
        <ele>-5.8</ele>
        <time>2018-06-24T17:39:38Z</time>
      </trkpt>
      <trkpt lat="50.61176" lon="3.07349">
        <ele>-6</ele>
        <time>2018-06-24T17:39:42Z</time>
      </trkpt>
      <trkpt lat="50.61176" lon="3.07349">
        <ele>-6.2</ele>
        <time>2018-06-24T17:39:46Z</time>
      </trkpt>
      <trkpt lat="50.61142" lon="3.07365">
        <ele>-6</ele>
        <time>2018-06-24T17:39:50Z</time>
      </trkpt>
      <trkpt lat="50.61142" lon="3.07365">
        <ele>-5.8</ele>
        <time>2018-06-24T17:39:54Z</time>
      </trkpt>
      <trkpt lat="50.6114" lon="3.07364">
        <ele>-6</ele>
        <time>2018-06-24T17:39:58Z</time>
      </trkpt>
      <trkpt lat="50.6114" lon="3.07364">
        <ele>-6</ele>
        <time>2018-06-24T17:40:02Z</time>
      </trkpt>
      <trkpt lat="50.6114" lon="3.07364">
        <ele>-5.8</ele>
        <time>2018-06-24T17:40:06Z</time>
      </trkpt>
      <trkpt lat="50.6114" lon="3.07364">
        <ele>-5.8</ele>
        <time>2018-06-24T17:40:10Z</time>
      </trkpt>
      <trkpt lat="50.6114" lon="3.07364">
        <ele>-5.8</ele>
        <time>2018-06-24T17:40:14Z</time>
      </trkpt>
      <trkpt lat="50.6114" lon="3.07364">
        <ele>-6</ele>
        <time>2018-06-24T17:40:18Z</time>
      </trkpt>
      <trkpt lat="50.6114" lon="3.07364">
        <ele>-6</ele>
        <time>2018-06-24T17:40:22Z</time>
      </trkpt>
      <trkpt lat="50.61133" lon="3.07354">
        <ele>-6</ele>
        <time>2018-06-24T17:40:26Z</time>
      </trkpt>
      <trkpt lat="50.61133" lon="3.07354">
        <ele>-6</ele>
        <time>2018-06-24T17:40:30Z</time>
      </trkpt>
      <trkpt lat="50.61133" lon="3.07354">
        <ele>-6.2</ele>
        <time>2018-06-24T17:40:34Z</time>
      </trkpt>
      <trkpt lat="50.61133" lon="3.07354">
        <ele>-6</ele>
        <time>2018-06-24T17:40:38Z</time>
      </trkpt>
      <trkpt lat="50.61133" lon="3.07354">
        <ele>-6.2</ele>
        <time>2018-06-24T17:40:42Z</time>
      </trkpt>
      <trkpt lat="50.61133" lon="3.07354">
        <ele>-6.4</ele>
        <time>2018-06-24T17:40:46Z</time>
      </trkpt>
      <trkpt lat="50.61133" lon="3.07354">
        <ele>-6</ele>
        <time>2018-06-24T17:40:50Z</time>
      </trkpt>
      <trkpt lat="50.61133" lon="3.07354">
        <ele>-6</ele>
        <time>2018-06-24T17:40:54Z</time>
      </trkpt>
      <trkpt lat="50.61133" lon="3.07354">
        <ele>-6.4</ele>
        <time>2018-06-24T17:40:58Z</time>
      </trkpt>
      <trkpt lat="50.61133" lon="3.07354">
        <ele>-6</ele>
        <time>2018-06-24T17:41:02Z</time>
      </trkpt>
      <trkpt lat="50.61133" lon="3.07354">
        <ele>-6</ele>
        <time>2018-06-24T17:41:06Z</time>
      </trkpt>
      <trkpt lat="50.61133" lon="3.07354">
        <ele>-6.2</ele>
        <time>2018-06-24T17:41:10Z</time>
      </trkpt>
      <trkpt lat="50.61133" lon="3.07354">
        <ele>-6</ele>
        <time>2018-06-24T17:41:14Z</time>
      </trkpt>
      <trkpt lat="50.61133" lon="3.07354">
        <ele>-6</ele>
        <time>2018-06-24T17:41:18Z</time>
      </trkpt>
      <trkpt lat="50.61133" lon="3.07354">
        <ele>-6</ele>
        <time>2018-06-24T17:41:22Z</time>
      </trkpt>
      <trkpt lat="50.61133" lon="3.07354">
        <ele>-6.4</ele>
        <time>2018-06-24T17:41:26Z</time>
      </trkpt>
      <trkpt lat="50.61133" lon="3.07354">
        <ele>-6.4</ele>
        <time>2018-06-24T17:41:30Z</time>
      </trkpt>
      <trkpt lat="50.61133" lon="3.07354">
        <ele>-6.4</ele>
        <time>2018-06-24T17:41:34Z</time>
      </trkpt>
      <trkpt lat="50.61133" lon="3.07354">
        <ele>-6.4</ele>
        <time>2018-06-24T17:41:38Z</time>
      </trkpt>
      <trkpt lat="50.61133" lon="3.07354">
        <ele>-6.2</ele>
        <time>2018-06-24T17:41:42Z</time>
      </trkpt>
      <trkpt lat="50.61133" lon="3.07354">
        <ele>-6.2</ele>
        <time>2018-06-24T17:41:46Z</time>
      </trkpt>
      <trkpt lat="50.61133" lon="3.07354">
        <ele>-6</ele>
        <time>2018-06-24T17:41:50Z</time>
      </trkpt>
      <trkpt lat="50.61133" lon="3.07354">
        <ele>-6.4</ele>
        <time>2018-06-24T17:41:54Z</time>
      </trkpt>
      <trkpt lat="50.61133" lon="3.07354">
        <ele>-6.6</ele>
        <time>2018-06-24T17:41:58Z</time>
      </trkpt>
      <trkpt lat="50.61133" lon="3.07354">
        <ele>-6.4</ele>
        <time>2018-06-24T17:42:02Z</time>
      </trkpt>
      <trkpt lat="50.61133" lon="3.07354">
        <ele>-6.8</ele>
        <time>2018-06-24T17:42:06Z</time>
      </trkpt>
      <trkpt lat="50.61133" lon="3.07354">
        <ele>-6.8</ele>
        <time>2018-06-24T17:42:10Z</time>
      </trkpt>
      <trkpt lat="50.61133" lon="3.07354">
        <ele>-6.4</ele>
        <time>2018-06-24T17:42:14Z</time>
      </trkpt>
      <trkpt lat="50.61133" lon="3.07354">
        <ele>-7</ele>
        <time>2018-06-24T17:42:18Z</time>
      </trkpt>
      <trkpt lat="50.61133" lon="3.07354">
        <ele>-6.4</ele>
        <time>2018-06-24T17:42:22Z</time>
      </trkpt>
      <trkpt lat="50.61133" lon="3.07354">
        <ele>-6.4</ele>
        <time>2018-06-24T17:42:26Z</time>
      </trkpt>
      <trkpt lat="50.61133" lon="3.07354">
        <ele>-6.4</ele>
        <time>2018-06-24T17:42:30Z</time>
      </trkpt>
      <trkpt lat="50.61133" lon="3.07354">
        <ele>-6.8</ele>
        <time>2018-06-24T17:42:34Z</time>
      </trkpt>
      <trkpt lat="50.61133" lon="3.07354">
        <ele>-7</ele>
        <time>2018-06-24T17:42:38Z</time>
      </trkpt>
      <trkpt lat="50.61133" lon="3.07354">
        <ele>-7</ele>
        <time>2018-06-24T17:42:42Z</time>
      </trkpt>
      <trkpt lat="50.61155" lon="3.07367">
        <ele>-7</ele>
        <time>2018-06-24T17:42:46Z</time>
      </trkpt>
      <trkpt lat="50.61155" lon="3.07367">
        <ele>-6.4</ele>
        <time>2018-06-24T17:42:50Z</time>
      </trkpt>
      <trkpt lat="50.61155" lon="3.07367">
        <ele>-6.8</ele>
        <time>2018-06-24T17:42:54Z</time>
      </trkpt>
      <trkpt lat="50.61153" lon="3.07373">
        <ele>-7.4</ele>
        <time>2018-06-24T17:42:58Z</time>
      </trkpt>
      <trkpt lat="50.61153" lon="3.07373">
        <ele>-7</ele>
        <time>2018-06-24T17:43:02Z</time>
      </trkpt>
      <trkpt lat="50.61153" lon="3.07373">
        <ele>-7</ele>
        <time>2018-06-24T17:43:06Z</time>
      </trkpt>
      <trkpt lat="50.61153" lon="3.07373">
        <ele>-6.4</ele>
        <time>2018-06-24T17:43:10Z</time>
      </trkpt>
      <trkpt lat="50.61153" lon="3.07373">
        <ele>-6.8</ele>
        <time>2018-06-24T17:43:14Z</time>
      </trkpt>
      <trkpt lat="50.61153" lon="3.07373">
        <ele>-6.4</ele>
        <time>2018-06-24T17:43:18Z</time>
      </trkpt>
      <trkpt lat="50.61153" lon="3.07373">
        <ele>-6.8</ele>
        <time>2018-06-24T17:43:22Z</time>
      </trkpt>
      <trkpt lat="50.61151" lon="3.07378">
        <ele>-6.6</ele>
        <time>2018-06-24T17:43:26Z</time>
      </trkpt>
      <trkpt lat="50.61151" lon="3.07378">
        <ele>-6.6</ele>
        <time>2018-06-24T17:43:30Z</time>
      </trkpt>
      <trkpt lat="50.61151" lon="3.07378">
        <ele>-6.4</ele>
        <time>2018-06-24T17:43:34Z</time>
      </trkpt>
      <trkpt lat="50.61151" lon="3.07378">
        <ele>-6.4</ele>
        <time>2018-06-24T17:43:38Z</time>
      </trkpt>
      <trkpt lat="50.61151" lon="3.07378">
        <ele>-6.8</ele>
        <time>2018-06-24T17:43:42Z</time>
      </trkpt>
      <trkpt lat="50.61151" lon="3.07378">
        <ele>-6.4</ele>
        <time>2018-06-24T17:43:46Z</time>
      </trkpt>
      <trkpt lat="50.61151" lon="3.07378">
        <ele>-6.4</ele>
        <time>2018-06-24T17:43:50Z</time>
      </trkpt>
      <trkpt lat="50.61151" lon="3.07378">
        <ele>-6.6</ele>
        <time>2018-06-24T17:43:54Z</time>
      </trkpt>
      <trkpt lat="50.61151" lon="3.07378">
        <ele>-6.4</ele>
        <time>2018-06-24T17:43:58Z</time>
      </trkpt>
      <trkpt lat="50.61151" lon="3.07378">
        <ele>-6.4</ele>
        <time>2018-06-24T17:44:02Z</time>
      </trkpt>
      <trkpt lat="50.61151" lon="3.07378">
        <ele>-7</ele>
        <time>2018-06-24T17:44:06Z</time>
      </trkpt>
      <trkpt lat="50.61151" lon="3.07378">
        <ele>-6.6</ele>
        <time>2018-06-24T17:44:10Z</time>
      </trkpt>
      <trkpt lat="50.61151" lon="3.07378">
        <ele>-6.6</ele>
        <time>2018-06-24T17:44:14Z</time>
      </trkpt>
      <trkpt lat="50.61151" lon="3.07378">
        <ele>-6.4</ele>
        <time>2018-06-24T17:44:18Z</time>
      </trkpt>
      <trkpt lat="50.61151" lon="3.07378">
        <ele>-6.6</ele>
        <time>2018-06-24T17:44:22Z</time>
      </trkpt>
      <trkpt lat="50.61151" lon="3.07378">
        <ele>-6.4</ele>
        <time>2018-06-24T17:44:26Z</time>
      </trkpt>
      <trkpt lat="50.61161" lon="3.07387">
        <ele>-6.4</ele>
        <time>2018-06-24T17:44:30Z</time>
      </trkpt>
      <trkpt lat="50.61161" lon="3.07387">
        <ele>-6.4</ele>
        <time>2018-06-24T17:44:34Z</time>
      </trkpt>
      <trkpt lat="50.61161" lon="3.07387">
        <ele>-6.2</ele>
        <time>2018-06-24T17:44:38Z</time>
      </trkpt>
      <trkpt lat="50.61161" lon="3.07387">
        <ele>-6.6</ele>
        <time>2018-06-24T17:44:42Z</time>
      </trkpt>
      <trkpt lat="50.61161" lon="3.07387">
        <ele>-6.8</ele>
        <time>2018-06-24T17:44:46Z</time>
      </trkpt>
      <trkpt lat="50.61161" lon="3.07387">
        <ele>-6.4</ele>
        <time>2018-06-24T17:44:50Z</time>
      </trkpt>
      <trkpt lat="50.61161" lon="3.07387">
        <ele>-7</ele>
        <time>2018-06-24T17:44:54Z</time>
      </trkpt>
      <trkpt lat="50.61161" lon="3.07387">
        <ele>-6.4</ele>
        <time>2018-06-24T17:44:58Z</time>
      </trkpt>
      <trkpt lat="50.61161" lon="3.07387">
        <ele>-6.4</ele>
        <time>2018-06-24T17:45:02Z</time>
      </trkpt>
      <trkpt lat="50.61161" lon="3.07387">
        <ele>-6.2</ele>
        <time>2018-06-24T17:45:06Z</time>
      </trkpt>
      <trkpt lat="50.61161" lon="3.07387">
        <ele>-6.2</ele>
        <time>2018-06-24T17:45:10Z</time>
      </trkpt>
      <trkpt lat="50.61161" lon="3.07387">
        <ele>-6</ele>
        <time>2018-06-24T17:45:14Z</time>
      </trkpt>
      <trkpt lat="50.61161" lon="3.07387">
        <ele>-6.2</ele>
        <time>2018-06-24T17:45:18Z</time>
      </trkpt>
      <trkpt lat="50.61161" lon="3.07387">
        <ele>-6.4</ele>
        <time>2018-06-24T17:45:22Z</time>
      </trkpt>
      <trkpt lat="50.61161" lon="3.07387">
        <ele>-6.4</ele>
        <time>2018-06-24T17:45:26Z</time>
      </trkpt>
      <trkpt lat="50.61161" lon="3.07387">
        <ele>-6.4</ele>
        <time>2018-06-24T17:45:30Z</time>
      </trkpt>
      <trkpt lat="50.61161" lon="3.07387">
        <ele>-6.4</ele>
        <time>2018-06-24T17:45:34Z</time>
      </trkpt>
      <trkpt lat="50.61161" lon="3.07387">
        <ele>-6</ele>
        <time>2018-06-24T17:45:38Z</time>
      </trkpt>
      <trkpt lat="50.61161" lon="3.07387">
        <ele>-6.4</ele>
        <time>2018-06-24T17:45:42Z</time>
      </trkpt>
      <trkpt lat="50.61161" lon="3.07387">
        <ele>-6.4</ele>
        <time>2018-06-24T17:45:46Z</time>
      </trkpt>
      <trkpt lat="50.61161" lon="3.07387">
        <ele>-6.2</ele>
        <time>2018-06-24T17:45:50Z</time>
      </trkpt>
      <trkpt lat="50.61161" lon="3.07387">
        <ele>-6.4</ele>
        <time>2018-06-24T17:45:54Z</time>
      </trkpt>
      <trkpt lat="50.61161" lon="3.07387">
        <ele>-6.2</ele>
        <time>2018-06-24T17:45:58Z</time>
      </trkpt>
      <trkpt lat="50.61161" lon="3.07387">
        <ele>-6</ele>
        <time>2018-06-24T17:46:02Z</time>
      </trkpt>
      <trkpt lat="50.61161" lon="3.07387">
        <ele>-6.2</ele>
        <time>2018-06-24T17:46:06Z</time>
      </trkpt>
      <trkpt lat="50.61161" lon="3.07387">
        <ele>-6.6</ele>
        <time>2018-06-24T17:46:10Z</time>
      </trkpt>
      <trkpt lat="50.61161" lon="3.07387">
        <ele>-6.4</ele>
        <time>2018-06-24T17:46:14Z</time>
      </trkpt>
      <trkpt lat="50.61185" lon="3.07377">
        <ele>-6.8</ele>
        <time>2018-06-24T17:46:18Z</time>
      </trkpt>
      <trkpt lat="50.61185" lon="3.07377">
        <ele>-6.4</ele>
        <time>2018-06-24T17:46:22Z</time>
      </trkpt>
      <trkpt lat="50.61185" lon="3.07377">
        <ele>-6.6</ele>
        <time>2018-06-24T17:46:26Z</time>
      </trkpt>
      <trkpt lat="50.61185" lon="3.07377">
        <ele>-6.4</ele>
        <time>2018-06-24T17:46:30Z</time>
      </trkpt>
      <trkpt lat="50.61185" lon="3.07377">
        <ele>-6.4</ele>
        <time>2018-06-24T17:46:34Z</time>
      </trkpt>
      <trkpt lat="50.61185" lon="3.07377">
        <ele>-6.4</ele>
        <time>2018-06-24T17:46:38Z</time>
      </trkpt>
      <trkpt lat="50.61185" lon="3.07377">
        <ele>-7</ele>
        <time>2018-06-24T17:46:42Z</time>
      </trkpt>
      <trkpt lat="50.61185" lon="3.07377">
        <ele>-7</ele>
        <time>2018-06-24T17:46:46Z</time>
      </trkpt>
      <trkpt lat="50.61185" lon="3.07377">
        <ele>-6.8</ele>
        <time>2018-06-24T17:46:50Z</time>
      </trkpt>
      <trkpt lat="50.61185" lon="3.07377">
        <ele>-6.8</ele>
        <time>2018-06-24T17:46:54Z</time>
      </trkpt>
      <trkpt lat="50.61185" lon="3.07377">
        <ele>-6.6</ele>
        <time>2018-06-24T17:46:58Z</time>
      </trkpt>
      <trkpt lat="50.61185" lon="3.07377">
        <ele>-6.6</ele>
        <time>2018-06-24T17:47:02Z</time>
      </trkpt>
      <trkpt lat="50.61185" lon="3.07377">
        <ele>-6.4</ele>
        <time>2018-06-24T17:47:06Z</time>
      </trkpt>
      <trkpt lat="50.61185" lon="3.07377">
        <ele>-6.4</ele>
        <time>2018-06-24T17:47:10Z</time>
      </trkpt>
      <trkpt lat="50.61162" lon="3.07383">
        <ele>-7</ele>
        <time>2018-06-24T17:47:14Z</time>
      </trkpt>
      <trkpt lat="50.6116" lon="3.0738">
        <ele>-6.6</ele>
        <time>2018-06-24T17:47:18Z</time>
      </trkpt>
      <trkpt lat="50.6116" lon="3.0738">
        <ele>-7</ele>
        <time>2018-06-24T17:47:22Z</time>
      </trkpt>
      <trkpt lat="50.6116" lon="3.0738">
        <ele>-7</ele>
        <time>2018-06-24T17:47:26Z</time>
      </trkpt>
      <trkpt lat="50.6116" lon="3.0738">
        <ele>-6.6</ele>
        <time>2018-06-24T17:47:30Z</time>
      </trkpt>
      <trkpt lat="50.6116" lon="3.0738">
        <ele>-6.8</ele>
        <time>2018-06-24T17:47:34Z</time>
      </trkpt>
      <trkpt lat="50.6116" lon="3.0738">
        <ele>-6.4</ele>
        <time>2018-06-24T17:47:38Z</time>
      </trkpt>
      <trkpt lat="50.6116" lon="3.0738">
        <ele>-6.6</ele>
        <time>2018-06-24T17:47:42Z</time>
      </trkpt>
      <trkpt lat="50.61167" lon="3.07414">
        <ele>-6.4</ele>
        <time>2018-06-24T17:47:46Z</time>
      </trkpt>
      <trkpt lat="50.61169" lon="3.07417">
        <ele>-6.4</ele>
        <time>2018-06-24T17:47:50Z</time>
      </trkpt>
      <trkpt lat="50.61169" lon="3.07417">
        <ele>-6.6</ele>
        <time>2018-06-24T17:47:54Z</time>
      </trkpt>
      <trkpt lat="50.61169" lon="3.07417">
        <ele>-7</ele>
        <time>2018-06-24T17:47:58Z</time>
      </trkpt>
      <trkpt lat="50.61169" lon="3.07417">
        <ele>-6.8</ele>
        <time>2018-06-24T17:48:02Z</time>
      </trkpt>
      <trkpt lat="50.61169" lon="3.07417">
        <ele>-6.6</ele>
        <time>2018-06-24T17:48:06Z</time>
      </trkpt>
      <trkpt lat="50.61169" lon="3.07417">
        <ele>-6.8</ele>
        <time>2018-06-24T17:48:10Z</time>
      </trkpt>
      <trkpt lat="50.61169" lon="3.07417">
        <ele>-6.6</ele>
        <time>2018-06-24T17:48:14Z</time>
      </trkpt>
      <trkpt lat="50.61156" lon="3.07388">
        <ele>-6.6</ele>
        <time>2018-06-24T17:48:18Z</time>
      </trkpt>
      <trkpt lat="50.61156" lon="3.07388">
        <ele>-7</ele>
        <time>2018-06-24T17:48:22Z</time>
      </trkpt>
      <trkpt lat="50.61156" lon="3.07388">
        <ele>-7</ele>
        <time>2018-06-24T17:48:26Z</time>
      </trkpt>
      <trkpt lat="50.61156" lon="3.07388">
        <ele>-6.8</ele>
        <time>2018-06-24T17:48:30Z</time>
      </trkpt>
      <trkpt lat="50.61156" lon="3.07388">
        <ele>-7</ele>
        <time>2018-06-24T17:48:34Z</time>
      </trkpt>
      <trkpt lat="50.61156" lon="3.07388">
        <ele>-7</ele>
        <time>2018-06-24T17:48:38Z</time>
      </trkpt>
      <trkpt lat="50.61156" lon="3.07388">
        <ele>-7.2</ele>
        <time>2018-06-24T17:48:42Z</time>
      </trkpt>
      <trkpt lat="50.61156" lon="3.07388">
        <ele>-7.2</ele>
        <time>2018-06-24T17:48:46Z</time>
      </trkpt>
      <trkpt lat="50.61156" lon="3.07388">
        <ele>-7.2</ele>
        <time>2018-06-24T17:48:50Z</time>
      </trkpt>
      <trkpt lat="50.61156" lon="3.07388">
        <ele>-6.8</ele>
        <time>2018-06-24T17:48:54Z</time>
      </trkpt>
      <trkpt lat="50.61156" lon="3.07388">
        <ele>-7</ele>
        <time>2018-06-24T17:48:58Z</time>
      </trkpt>
      <trkpt lat="50.61156" lon="3.07388">
        <ele>-6.8</ele>
        <time>2018-06-24T17:49:02Z</time>
      </trkpt>
      <trkpt lat="50.61156" lon="3.07388">
        <ele>-7.4</ele>
        <time>2018-06-24T17:49:06Z</time>
      </trkpt>
      <trkpt lat="50.61156" lon="3.07388">
        <ele>-7.2</ele>
        <time>2018-06-24T17:49:10Z</time>
      </trkpt>
      <trkpt lat="50.61156" lon="3.07388">
        <ele>-7</ele>
        <time>2018-06-24T17:49:14Z</time>
      </trkpt>
      <trkpt lat="50.61156" lon="3.07388">
        <ele>-7</ele>
        <time>2018-06-24T17:49:18Z</time>
      </trkpt>
      <trkpt lat="50.61169" lon="3.07388">
        <ele>-7.2</ele>
        <time>2018-06-24T17:49:22Z</time>
      </trkpt>
      <trkpt lat="50.61172" lon="3.07391">
        <ele>-7</ele>
        <time>2018-06-24T17:49:26Z</time>
      </trkpt>
      <trkpt lat="50.61172" lon="3.07391">
        <ele>-7</ele>
        <time>2018-06-24T17:49:30Z</time>
      </trkpt>
      <trkpt lat="50.61172" lon="3.07391">
        <ele>-7</ele>
        <time>2018-06-24T17:49:34Z</time>
      </trkpt>
      <trkpt lat="50.61172" lon="3.07391">
        <ele>-7.2</ele>
        <time>2018-06-24T17:49:38Z</time>
      </trkpt>
      <trkpt lat="50.61172" lon="3.07391">
        <ele>-7.4</ele>
        <time>2018-06-24T17:49:42Z</time>
      </trkpt>
      <trkpt lat="50.61172" lon="3.07391">
        <ele>-7.2</ele>
        <time>2018-06-24T17:49:46Z</time>
      </trkpt>
      <trkpt lat="50.61172" lon="3.07391">
        <ele>-7.4</ele>
        <time>2018-06-24T17:49:50Z</time>
      </trkpt>
      <trkpt lat="50.61172" lon="3.07391">
        <ele>-7.4</ele>
        <time>2018-06-24T17:49:54Z</time>
      </trkpt>
      <trkpt lat="50.61172" lon="3.07391">
        <ele>-7</ele>
        <time>2018-06-24T17:49:58Z</time>
      </trkpt>
      <trkpt lat="50.61172" lon="3.07391">
        <ele>-7</ele>
        <time>2018-06-24T17:50:02Z</time>
      </trkpt>
      <trkpt lat="50.61168" lon="3.07385">
        <ele>-7</ele>
        <time>2018-06-24T17:50:06Z</time>
      </trkpt>
      <trkpt lat="50.61168" lon="3.07385">
        <ele>-7</ele>
        <time>2018-06-24T17:50:10Z</time>
      </trkpt>
      <trkpt lat="50.61168" lon="3.07385">
        <ele>-7</ele>
        <time>2018-06-24T17:50:14Z</time>
      </trkpt>
      <trkpt lat="50.61168" lon="3.07385">
        <ele>-7.4</ele>
        <time>2018-06-24T17:50:18Z</time>
      </trkpt>
      <trkpt lat="50.61168" lon="3.07385">
        <ele>-7</ele>
        <time>2018-06-24T17:50:22Z</time>
      </trkpt>
      <trkpt lat="50.61168" lon="3.07385">
        <ele>-7.2</ele>
        <time>2018-06-24T17:50:26Z</time>
      </trkpt>
      <trkpt lat="50.61168" lon="3.07385">
        <ele>-7.4</ele>
        <time>2018-06-24T17:50:30Z</time>
      </trkpt>
      <trkpt lat="50.61168" lon="3.07385">
        <ele>-7.2</ele>
        <time>2018-06-24T17:50:34Z</time>
      </trkpt>
      <trkpt lat="50.61168" lon="3.07385">
        <ele>-6.8</ele>
        <time>2018-06-24T17:50:38Z</time>
      </trkpt>
      <trkpt lat="50.61168" lon="3.07385">
        <ele>-7</ele>
        <time>2018-06-24T17:50:42Z</time>
      </trkpt>
      <trkpt lat="50.61168" lon="3.07385">
        <ele>-7.2</ele>
        <time>2018-06-24T17:50:46Z</time>
      </trkpt>
      <trkpt lat="50.61168" lon="3.07385">
        <ele>-7.2</ele>
        <time>2018-06-24T17:50:50Z</time>
      </trkpt>
      <trkpt lat="50.61168" lon="3.07385">
        <ele>-7.2</ele>
        <time>2018-06-24T17:50:54Z</time>
      </trkpt>
      <trkpt lat="50.61168" lon="3.07385">
        <ele>-7</ele>
        <time>2018-06-24T17:50:58Z</time>
      </trkpt>
      <trkpt lat="50.61168" lon="3.07385">
        <ele>-7.2</ele>
        <time>2018-06-24T17:51:02Z</time>
      </trkpt>
      <trkpt lat="50.61168" lon="3.07385">
        <ele>-7</ele>
        <time>2018-06-24T17:51:06Z</time>
      </trkpt>
      <trkpt lat="50.61168" lon="3.07385">
        <ele>-7.4</ele>
        <time>2018-06-24T17:51:10Z</time>
      </trkpt>
      <trkpt lat="50.61168" lon="3.07385">
        <ele>-7</ele>
        <time>2018-06-24T17:51:14Z</time>
      </trkpt>
      <trkpt lat="50.61168" lon="3.07385">
        <ele>-7.4</ele>
        <time>2018-06-24T17:51:18Z</time>
      </trkpt>
      <trkpt lat="50.61168" lon="3.07385">
        <ele>-7.2</ele>
        <time>2018-06-24T17:51:22Z</time>
      </trkpt>
      <trkpt lat="50.61168" lon="3.07385">
        <ele>-6.4</ele>
        <time>2018-06-24T17:51:26Z</time>
      </trkpt>
      <trkpt lat="50.61168" lon="3.07385">
        <ele>-6.8</ele>
        <time>2018-06-24T17:51:30Z</time>
      </trkpt>
      <trkpt lat="50.61168" lon="3.07385">
        <ele>-7</ele>
        <time>2018-06-24T17:51:34Z</time>
      </trkpt>
      <trkpt lat="50.61168" lon="3.07385">
        <ele>-6.4</ele>
        <time>2018-06-24T17:51:38Z</time>
      </trkpt>
      <trkpt lat="50.61168" lon="3.07385">
        <ele>-6.6</ele>
        <time>2018-06-24T17:51:42Z</time>
      </trkpt>
      <trkpt lat="50.61168" lon="3.07385">
        <ele>-7</ele>
        <time>2018-06-24T17:51:46Z</time>
      </trkpt>
      <trkpt lat="50.61168" lon="3.07385">
        <ele>-7</ele>
        <time>2018-06-24T17:51:50Z</time>
      </trkpt>
      <trkpt lat="50.61168" lon="3.07385">
        <ele>-7</ele>
        <time>2018-06-24T17:51:54Z</time>
      </trkpt>
      <trkpt lat="50.61168" lon="3.07385">
        <ele>-7</ele>
        <time>2018-06-24T17:51:58Z</time>
      </trkpt>
      <trkpt lat="50.61168" lon="3.07385">
        <ele>-7.4</ele>
        <time>2018-06-24T17:52:02Z</time>
      </trkpt>
      <trkpt lat="50.61168" lon="3.07385">
        <ele>-7</ele>
        <time>2018-06-24T17:52:06Z</time>
      </trkpt>
      <trkpt lat="50.61168" lon="3.07385">
        <ele>-7</ele>
        <time>2018-06-24T17:52:10Z</time>
      </trkpt>
      <trkpt lat="50.61168" lon="3.07385">
        <ele>-7</ele>
        <time>2018-06-24T17:52:14Z</time>
      </trkpt>
      <trkpt lat="50.61168" lon="3.07385">
        <ele>-6.8</ele>
        <time>2018-06-24T17:52:18Z</time>
      </trkpt>
      <trkpt lat="50.61168" lon="3.07385">
        <ele>-7</ele>
        <time>2018-06-24T17:52:22Z</time>
      </trkpt>
      <trkpt lat="50.61168" lon="3.07385">
        <ele>-6.8</ele>
        <time>2018-06-24T17:52:26Z</time>
      </trkpt>
      <trkpt lat="50.61168" lon="3.07385">
        <ele>-6.8</ele>
        <time>2018-06-24T17:52:30Z</time>
      </trkpt>
      <trkpt lat="50.61168" lon="3.07385">
        <ele>-6.8</ele>
        <time>2018-06-24T17:52:34Z</time>
      </trkpt>
      <trkpt lat="50.61168" lon="3.07385">
        <ele>-7</ele>
        <time>2018-06-24T17:52:38Z</time>
      </trkpt>
      <trkpt lat="50.61168" lon="3.07385">
        <ele>-6.6</ele>
        <time>2018-06-24T17:52:42Z</time>
      </trkpt>
      <trkpt lat="50.61168" lon="3.07385">
        <ele>-6.8</ele>
        <time>2018-06-24T17:52:46Z</time>
      </trkpt>
      <trkpt lat="50.61168" lon="3.07385">
        <ele>-6.6</ele>
        <time>2018-06-24T17:52:50Z</time>
      </trkpt>
      <trkpt lat="50.61168" lon="3.07385">
        <ele>-7</ele>
        <time>2018-06-24T17:52:54Z</time>
      </trkpt>
      <trkpt lat="50.61168" lon="3.07385">
        <ele>-7</ele>
        <time>2018-06-24T17:52:58Z</time>
      </trkpt>
      <trkpt lat="50.61168" lon="3.07385">
        <ele>-7</ele>
        <time>2018-06-24T17:53:02Z</time>
      </trkpt>
      <trkpt lat="50.61168" lon="3.07385">
        <ele>-7.4</ele>
        <time>2018-06-24T17:53:06Z</time>
      </trkpt>
      <trkpt lat="50.61168" lon="3.07385">
        <ele>-6.8</ele>
        <time>2018-06-24T17:53:10Z</time>
      </trkpt>
      <trkpt lat="50.61168" lon="3.07385">
        <ele>-6.6</ele>
        <time>2018-06-24T17:53:14Z</time>
      </trkpt>
      <trkpt lat="50.61168" lon="3.07385">
        <ele>-6.6</ele>
        <time>2018-06-24T17:53:18Z</time>
      </trkpt>
    </trkseg>
  </trk>
</gpx>